<?xml version="1.0" encoding="UTF-8" standalone="no" ?>
<gpx xmlns="http://www.topografix.com/GPX/1/1" xmlns:xsi="http://www.w3.org/2001/XMLSchema-instance" xsi:schemaLocation="http://www.topografix.com/GPX/1/1 http://www.topografix.com/GPX/1/1/gpx.xsd" version="1.1" creator="VisuGPX - https://www.visugpx.com">
  <metadata>
    <name>Tour du Beaufortain 6 jours</name>
    <desc><![CDATA[Détour par le "lac" des Saisies]]></desc>
  </metadata>
  <trk>
    <name><![CDATA[Queige Randonnée]]></name>
    <extensions>
      <line xmlns="http://www.topografix.com/GPX/gpx_style/0/2">
        <color>0000FF</color>
        <width>4</width>
      </line>
    </extensions>
    <trkseg>
      <trkpt lat="45.7179" lon="6.45766">
        <ele>538</ele>
        <time>2022-07-23T10:12:28Z</time>
      </trkpt>
      <trkpt lat="45.71791" lon="6.45766">
        <ele>538</ele>
        <time>2022-07-23T10:12:29Z</time>
      </trkpt>
      <trkpt lat="45.71791" lon="6.45766">
        <ele>539</ele>
        <time>2022-07-23T10:12:30Z</time>
      </trkpt>
      <trkpt lat="45.71791" lon="6.45767">
        <ele>538</ele>
        <time>2022-07-23T10:12:31Z</time>
      </trkpt>
      <trkpt lat="45.71792" lon="6.45768">
        <ele>538</ele>
        <time>2022-07-23T10:12:32Z</time>
      </trkpt>
      <trkpt lat="45.71792" lon="6.45769">
        <ele>538</ele>
        <time>2022-07-23T10:12:33Z</time>
      </trkpt>
      <trkpt lat="45.71793" lon="6.4577">
        <ele>538</ele>
        <time>2022-07-23T10:12:34Z</time>
      </trkpt>
      <trkpt lat="45.71794" lon="6.45771">
        <ele>538</ele>
        <time>2022-07-23T10:12:35Z</time>
      </trkpt>
      <trkpt lat="45.71795" lon="6.45772">
        <ele>538</ele>
        <time>2022-07-23T10:12:36Z</time>
      </trkpt>
      <trkpt lat="45.71796" lon="6.45773">
        <ele>538</ele>
        <time>2022-07-23T10:12:37Z</time>
      </trkpt>
      <trkpt lat="45.71797" lon="6.45774">
        <ele>538</ele>
        <time>2022-07-23T10:12:38Z</time>
      </trkpt>
      <trkpt lat="45.71798" lon="6.45775">
        <ele>538</ele>
        <time>2022-07-23T10:12:39Z</time>
      </trkpt>
      <trkpt lat="45.71799" lon="6.45776">
        <ele>538</ele>
        <time>2022-07-23T10:12:40Z</time>
      </trkpt>
      <trkpt lat="45.71801" lon="6.45776">
        <ele>538</ele>
        <time>2022-07-23T10:12:41Z</time>
      </trkpt>
      <trkpt lat="45.71802" lon="6.45777">
        <ele>538</ele>
        <time>2022-07-23T10:12:42Z</time>
      </trkpt>
      <trkpt lat="45.71803" lon="6.45777">
        <ele>538</ele>
        <time>2022-07-23T10:12:43Z</time>
      </trkpt>
      <trkpt lat="45.71804" lon="6.45777">
        <ele>538</ele>
        <time>2022-07-23T10:12:44Z</time>
      </trkpt>
      <trkpt lat="45.71806" lon="6.45777">
        <ele>538</ele>
        <time>2022-07-23T10:12:51Z</time>
      </trkpt>
      <trkpt lat="45.71806" lon="6.45777">
        <ele>538</ele>
        <time>2022-07-23T10:12:52Z</time>
      </trkpt>
      <trkpt lat="45.71806" lon="6.45777">
        <ele>538</ele>
        <time>2022-07-23T10:12:53Z</time>
      </trkpt>
      <trkpt lat="45.71805" lon="6.45776">
        <ele>538</ele>
        <time>2022-07-23T10:13:01Z</time>
      </trkpt>
      <trkpt lat="45.71805" lon="6.45776">
        <ele>538</ele>
        <time>2022-07-23T10:13:02Z</time>
      </trkpt>
      <trkpt lat="45.71805" lon="6.45776">
        <ele>538</ele>
        <time>2022-07-23T10:13:03Z</time>
      </trkpt>
      <trkpt lat="45.71806" lon="6.45776">
        <ele>538</ele>
        <time>2022-07-23T10:13:04Z</time>
      </trkpt>
      <trkpt lat="45.71806" lon="6.45776">
        <ele>538</ele>
        <time>2022-07-23T10:13:05Z</time>
      </trkpt>
      <trkpt lat="45.71807" lon="6.45775">
        <ele>538</ele>
        <time>2022-07-23T10:13:06Z</time>
      </trkpt>
      <trkpt lat="45.71807" lon="6.45775">
        <ele>538</ele>
        <time>2022-07-23T10:13:07Z</time>
      </trkpt>
      <trkpt lat="45.71808" lon="6.45774">
        <ele>538</ele>
        <time>2022-07-23T10:13:08Z</time>
      </trkpt>
      <trkpt lat="45.71809" lon="6.45773">
        <ele>538</ele>
        <time>2022-07-23T10:13:09Z</time>
      </trkpt>
      <trkpt lat="45.71809" lon="6.45773">
        <ele>539</ele>
        <time>2022-07-23T10:13:10Z</time>
      </trkpt>
      <trkpt lat="45.71809" lon="6.45772">
        <ele>539</ele>
        <time>2022-07-23T10:13:11Z</time>
      </trkpt>
      <trkpt lat="45.7181" lon="6.45771">
        <ele>539</ele>
        <time>2022-07-23T10:13:12Z</time>
      </trkpt>
      <trkpt lat="45.7181" lon="6.4577">
        <ele>539</ele>
        <time>2022-07-23T10:13:13Z</time>
      </trkpt>
      <trkpt lat="45.7181" lon="6.45769">
        <ele>539</ele>
        <time>2022-07-23T10:13:14Z</time>
      </trkpt>
      <trkpt lat="45.7181" lon="6.45769">
        <ele>539</ele>
        <time>2022-07-23T10:13:15Z</time>
      </trkpt>
      <trkpt lat="45.71811" lon="6.45768">
        <ele>539</ele>
        <time>2022-07-23T10:13:16Z</time>
      </trkpt>
      <trkpt lat="45.71812" lon="6.45767">
        <ele>540</ele>
        <time>2022-07-23T10:13:27Z</time>
      </trkpt>
      <trkpt lat="45.71812" lon="6.45766">
        <ele>540</ele>
        <time>2022-07-23T10:13:28Z</time>
      </trkpt>
      <trkpt lat="45.71813" lon="6.45766">
        <ele>540</ele>
        <time>2022-07-23T10:13:29Z</time>
      </trkpt>
      <trkpt lat="45.71814" lon="6.45766">
        <ele>540</ele>
        <time>2022-07-23T10:13:30Z</time>
      </trkpt>
      <trkpt lat="45.71814" lon="6.45766">
        <ele>540</ele>
        <time>2022-07-23T10:13:31Z</time>
      </trkpt>
      <trkpt lat="45.71815" lon="6.45766">
        <ele>540</ele>
        <time>2022-07-23T10:13:32Z</time>
      </trkpt>
      <trkpt lat="45.71815" lon="6.45766">
        <ele>540</ele>
        <time>2022-07-23T10:13:33Z</time>
      </trkpt>
      <trkpt lat="45.71816" lon="6.45765">
        <ele>540</ele>
        <time>2022-07-23T10:13:34Z</time>
      </trkpt>
      <trkpt lat="45.71817" lon="6.45765">
        <ele>540</ele>
        <time>2022-07-23T10:13:35Z</time>
      </trkpt>
      <trkpt lat="45.71818" lon="6.45765">
        <ele>540</ele>
        <time>2022-07-23T10:13:36Z</time>
      </trkpt>
      <trkpt lat="45.71819" lon="6.45765">
        <ele>540</ele>
        <time>2022-07-23T10:13:37Z</time>
      </trkpt>
      <trkpt lat="45.71819" lon="6.45765">
        <ele>540</ele>
        <time>2022-07-23T10:13:38Z</time>
      </trkpt>
      <trkpt lat="45.7182" lon="6.45765">
        <ele>542</ele>
        <time>2022-07-23T10:13:53Z</time>
      </trkpt>
      <trkpt lat="45.7182" lon="6.45766">
        <ele>542</ele>
        <time>2022-07-23T10:13:54Z</time>
      </trkpt>
      <trkpt lat="45.7182" lon="6.45766">
        <ele>542</ele>
        <time>2022-07-23T10:13:55Z</time>
      </trkpt>
      <trkpt lat="45.7182" lon="6.45767">
        <ele>542</ele>
        <time>2022-07-23T10:13:56Z</time>
      </trkpt>
      <trkpt lat="45.7182" lon="6.45768">
        <ele>542</ele>
        <time>2022-07-23T10:13:57Z</time>
      </trkpt>
      <trkpt lat="45.7182" lon="6.45769">
        <ele>542</ele>
        <time>2022-07-23T10:13:58Z</time>
      </trkpt>
      <trkpt lat="45.7182" lon="6.4577">
        <ele>542</ele>
        <time>2022-07-23T10:13:59Z</time>
      </trkpt>
      <trkpt lat="45.7182" lon="6.45772">
        <ele>542</ele>
        <time>2022-07-23T10:14:00Z</time>
      </trkpt>
      <trkpt lat="45.7182" lon="6.45773">
        <ele>542</ele>
        <time>2022-07-23T10:14:01Z</time>
      </trkpt>
      <trkpt lat="45.7182" lon="6.45775">
        <ele>542</ele>
        <time>2022-07-23T10:14:02Z</time>
      </trkpt>
      <trkpt lat="45.7182" lon="6.45776">
        <ele>542</ele>
        <time>2022-07-23T10:14:03Z</time>
      </trkpt>
      <trkpt lat="45.7182" lon="6.45778">
        <ele>542</ele>
        <time>2022-07-23T10:14:04Z</time>
      </trkpt>
      <trkpt lat="45.7182" lon="6.45779">
        <ele>542</ele>
        <time>2022-07-23T10:14:05Z</time>
      </trkpt>
      <trkpt lat="45.7182" lon="6.4578">
        <ele>542</ele>
        <time>2022-07-23T10:14:06Z</time>
      </trkpt>
      <trkpt lat="45.71821" lon="6.45781">
        <ele>542</ele>
        <time>2022-07-23T10:14:07Z</time>
      </trkpt>
      <trkpt lat="45.71821" lon="6.45783">
        <ele>542</ele>
        <time>2022-07-23T10:14:08Z</time>
      </trkpt>
      <trkpt lat="45.71821" lon="6.45784">
        <ele>542</ele>
        <time>2022-07-23T10:14:09Z</time>
      </trkpt>
      <trkpt lat="45.71821" lon="6.45785">
        <ele>542</ele>
        <time>2022-07-23T10:14:10Z</time>
      </trkpt>
      <trkpt lat="45.71822" lon="6.45787">
        <ele>542</ele>
        <time>2022-07-23T10:14:11Z</time>
      </trkpt>
      <trkpt lat="45.71822" lon="6.45788">
        <ele>542</ele>
        <time>2022-07-23T10:14:12Z</time>
      </trkpt>
      <trkpt lat="45.71822" lon="6.45789">
        <ele>542</ele>
        <time>2022-07-23T10:14:13Z</time>
      </trkpt>
      <trkpt lat="45.71821" lon="6.4579">
        <ele>542</ele>
        <time>2022-07-23T10:14:14Z</time>
      </trkpt>
      <trkpt lat="45.71821" lon="6.45791">
        <ele>543</ele>
        <time>2022-07-23T10:14:15Z</time>
      </trkpt>
      <trkpt lat="45.71821" lon="6.45792">
        <ele>543</ele>
        <time>2022-07-23T10:14:16Z</time>
      </trkpt>
      <trkpt lat="45.71821" lon="6.45793">
        <ele>543</ele>
        <time>2022-07-23T10:14:17Z</time>
      </trkpt>
      <trkpt lat="45.71821" lon="6.45794">
        <ele>543</ele>
        <time>2022-07-23T10:14:18Z</time>
      </trkpt>
      <trkpt lat="45.7182" lon="6.45795">
        <ele>543</ele>
        <time>2022-07-23T10:14:19Z</time>
      </trkpt>
      <trkpt lat="45.7182" lon="6.45796">
        <ele>544</ele>
        <time>2022-07-23T10:14:20Z</time>
      </trkpt>
      <trkpt lat="45.71819" lon="6.45797">
        <ele>544</ele>
        <time>2022-07-23T10:14:21Z</time>
      </trkpt>
      <trkpt lat="45.71819" lon="6.45798">
        <ele>544</ele>
        <time>2022-07-23T10:14:22Z</time>
      </trkpt>
      <trkpt lat="45.71818" lon="6.45799">
        <ele>544</ele>
        <time>2022-07-23T10:14:23Z</time>
      </trkpt>
      <trkpt lat="45.71818" lon="6.458">
        <ele>544</ele>
        <time>2022-07-23T10:14:24Z</time>
      </trkpt>
      <trkpt lat="45.71818" lon="6.45801">
        <ele>544</ele>
        <time>2022-07-23T10:14:25Z</time>
      </trkpt>
      <trkpt lat="45.71817" lon="6.45802">
        <ele>544</ele>
        <time>2022-07-23T10:14:26Z</time>
      </trkpt>
      <trkpt lat="45.71817" lon="6.45804">
        <ele>544</ele>
        <time>2022-07-23T10:14:27Z</time>
      </trkpt>
      <trkpt lat="45.71817" lon="6.45805">
        <ele>544</ele>
        <time>2022-07-23T10:14:28Z</time>
      </trkpt>
      <trkpt lat="45.71817" lon="6.45806">
        <ele>544</ele>
        <time>2022-07-23T10:14:29Z</time>
      </trkpt>
      <trkpt lat="45.71817" lon="6.45807">
        <ele>545</ele>
        <time>2022-07-23T10:14:30Z</time>
      </trkpt>
      <trkpt lat="45.71817" lon="6.45808">
        <ele>545</ele>
        <time>2022-07-23T10:14:31Z</time>
      </trkpt>
      <trkpt lat="45.71817" lon="6.45809">
        <ele>545</ele>
        <time>2022-07-23T10:14:32Z</time>
      </trkpt>
      <trkpt lat="45.71817" lon="6.45811">
        <ele>545</ele>
        <time>2022-07-23T10:14:33Z</time>
      </trkpt>
      <trkpt lat="45.71816" lon="6.45812">
        <ele>545</ele>
        <time>2022-07-23T10:14:34Z</time>
      </trkpt>
      <trkpt lat="45.71816" lon="6.45813">
        <ele>546</ele>
        <time>2022-07-23T10:14:35Z</time>
      </trkpt>
      <trkpt lat="45.71816" lon="6.45814">
        <ele>546</ele>
        <time>2022-07-23T10:14:36Z</time>
      </trkpt>
      <trkpt lat="45.71816" lon="6.45815">
        <ele>546</ele>
        <time>2022-07-23T10:14:37Z</time>
      </trkpt>
      <trkpt lat="45.71816" lon="6.45816">
        <ele>546</ele>
        <time>2022-07-23T10:14:38Z</time>
      </trkpt>
      <trkpt lat="45.71816" lon="6.45817">
        <ele>546</ele>
        <time>2022-07-23T10:14:39Z</time>
      </trkpt>
      <trkpt lat="45.71815" lon="6.45818">
        <ele>546</ele>
        <time>2022-07-23T10:14:40Z</time>
      </trkpt>
      <trkpt lat="45.71815" lon="6.45819">
        <ele>546</ele>
        <time>2022-07-23T10:14:41Z</time>
      </trkpt>
      <trkpt lat="45.71815" lon="6.45821">
        <ele>546</ele>
        <time>2022-07-23T10:14:42Z</time>
      </trkpt>
      <trkpt lat="45.71815" lon="6.45822">
        <ele>546</ele>
        <time>2022-07-23T10:14:43Z</time>
      </trkpt>
      <trkpt lat="45.71815" lon="6.45823">
        <ele>546</ele>
        <time>2022-07-23T10:14:44Z</time>
      </trkpt>
      <trkpt lat="45.71814" lon="6.45824">
        <ele>547</ele>
        <time>2022-07-23T10:14:45Z</time>
      </trkpt>
      <trkpt lat="45.71814" lon="6.45825">
        <ele>547</ele>
        <time>2022-07-23T10:14:46Z</time>
      </trkpt>
      <trkpt lat="45.71814" lon="6.45827">
        <ele>547</ele>
        <time>2022-07-23T10:14:47Z</time>
      </trkpt>
      <trkpt lat="45.71814" lon="6.45828">
        <ele>547</ele>
        <time>2022-07-23T10:14:48Z</time>
      </trkpt>
      <trkpt lat="45.71813" lon="6.45829">
        <ele>547</ele>
        <time>2022-07-23T10:14:49Z</time>
      </trkpt>
      <trkpt lat="45.71813" lon="6.4583">
        <ele>547</ele>
        <time>2022-07-23T10:14:50Z</time>
      </trkpt>
      <trkpt lat="45.71813" lon="6.45831">
        <ele>547</ele>
        <time>2022-07-23T10:14:51Z</time>
      </trkpt>
      <trkpt lat="45.71813" lon="6.45832">
        <ele>547</ele>
        <time>2022-07-23T10:14:52Z</time>
      </trkpt>
      <trkpt lat="45.71813" lon="6.45833">
        <ele>547</ele>
        <time>2022-07-23T10:14:53Z</time>
      </trkpt>
      <trkpt lat="45.71812" lon="6.45834">
        <ele>547</ele>
        <time>2022-07-23T10:14:54Z</time>
      </trkpt>
      <trkpt lat="45.71812" lon="6.45835">
        <ele>548</ele>
        <time>2022-07-23T10:14:55Z</time>
      </trkpt>
      <trkpt lat="45.71811" lon="6.45836">
        <ele>548</ele>
        <time>2022-07-23T10:14:56Z</time>
      </trkpt>
      <trkpt lat="45.71811" lon="6.45838">
        <ele>548</ele>
        <time>2022-07-23T10:14:57Z</time>
      </trkpt>
      <trkpt lat="45.7181" lon="6.45839">
        <ele>548</ele>
        <time>2022-07-23T10:14:58Z</time>
      </trkpt>
      <trkpt lat="45.7181" lon="6.4584">
        <ele>548</ele>
        <time>2022-07-23T10:14:59Z</time>
      </trkpt>
      <trkpt lat="45.71809" lon="6.45841">
        <ele>549</ele>
        <time>2022-07-23T10:15:00Z</time>
      </trkpt>
      <trkpt lat="45.71809" lon="6.45842">
        <ele>549</ele>
        <time>2022-07-23T10:15:01Z</time>
      </trkpt>
      <trkpt lat="45.71808" lon="6.45843">
        <ele>549</ele>
        <time>2022-07-23T10:15:02Z</time>
      </trkpt>
      <trkpt lat="45.71808" lon="6.45844">
        <ele>549</ele>
        <time>2022-07-23T10:15:03Z</time>
      </trkpt>
      <trkpt lat="45.71807" lon="6.45846">
        <ele>549</ele>
        <time>2022-07-23T10:15:04Z</time>
      </trkpt>
      <trkpt lat="45.71807" lon="6.45847">
        <ele>549</ele>
        <time>2022-07-23T10:15:05Z</time>
      </trkpt>
      <trkpt lat="45.71806" lon="6.45848">
        <ele>549</ele>
        <time>2022-07-23T10:15:06Z</time>
      </trkpt>
      <trkpt lat="45.71806" lon="6.45849">
        <ele>549</ele>
        <time>2022-07-23T10:15:07Z</time>
      </trkpt>
      <trkpt lat="45.71805" lon="6.4585">
        <ele>549</ele>
        <time>2022-07-23T10:15:08Z</time>
      </trkpt>
      <trkpt lat="45.71805" lon="6.45852">
        <ele>549</ele>
        <time>2022-07-23T10:15:09Z</time>
      </trkpt>
      <trkpt lat="45.71805" lon="6.45853">
        <ele>549</ele>
        <time>2022-07-23T10:15:10Z</time>
      </trkpt>
      <trkpt lat="45.71804" lon="6.45854">
        <ele>549</ele>
        <time>2022-07-23T10:15:11Z</time>
      </trkpt>
      <trkpt lat="45.71804" lon="6.45856">
        <ele>549</ele>
        <time>2022-07-23T10:15:12Z</time>
      </trkpt>
      <trkpt lat="45.71803" lon="6.45857">
        <ele>549</ele>
        <time>2022-07-23T10:15:13Z</time>
      </trkpt>
      <trkpt lat="45.71803" lon="6.45858">
        <ele>549</ele>
        <time>2022-07-23T10:15:14Z</time>
      </trkpt>
      <trkpt lat="45.71802" lon="6.45859">
        <ele>550</ele>
        <time>2022-07-23T10:15:15Z</time>
      </trkpt>
      <trkpt lat="45.71802" lon="6.45861">
        <ele>550</ele>
        <time>2022-07-23T10:15:16Z</time>
      </trkpt>
      <trkpt lat="45.71801" lon="6.45862">
        <ele>550</ele>
        <time>2022-07-23T10:15:17Z</time>
      </trkpt>
      <trkpt lat="45.71801" lon="6.45863">
        <ele>550</ele>
        <time>2022-07-23T10:15:18Z</time>
      </trkpt>
      <trkpt lat="45.71801" lon="6.45864">
        <ele>550</ele>
        <time>2022-07-23T10:15:19Z</time>
      </trkpt>
      <trkpt lat="45.71801" lon="6.45866">
        <ele>550</ele>
        <time>2022-07-23T10:15:20Z</time>
      </trkpt>
      <trkpt lat="45.718" lon="6.45867">
        <ele>550</ele>
        <time>2022-07-23T10:15:21Z</time>
      </trkpt>
      <trkpt lat="45.718" lon="6.45869">
        <ele>550</ele>
        <time>2022-07-23T10:15:22Z</time>
      </trkpt>
      <trkpt lat="45.718" lon="6.4587">
        <ele>550</ele>
        <time>2022-07-23T10:15:23Z</time>
      </trkpt>
      <trkpt lat="45.718" lon="6.45872">
        <ele>550</ele>
        <time>2022-07-23T10:15:24Z</time>
      </trkpt>
      <trkpt lat="45.718" lon="6.45873">
        <ele>550</ele>
        <time>2022-07-23T10:15:25Z</time>
      </trkpt>
      <trkpt lat="45.718" lon="6.45875">
        <ele>550</ele>
        <time>2022-07-23T10:15:26Z</time>
      </trkpt>
      <trkpt lat="45.718" lon="6.45876">
        <ele>550</ele>
        <time>2022-07-23T10:15:27Z</time>
      </trkpt>
      <trkpt lat="45.718" lon="6.45878">
        <ele>550</ele>
        <time>2022-07-23T10:15:28Z</time>
      </trkpt>
      <trkpt lat="45.718" lon="6.45879">
        <ele>550</ele>
        <time>2022-07-23T10:15:29Z</time>
      </trkpt>
      <trkpt lat="45.718" lon="6.45881">
        <ele>551</ele>
        <time>2022-07-23T10:15:30Z</time>
      </trkpt>
      <trkpt lat="45.718" lon="6.45882">
        <ele>551</ele>
        <time>2022-07-23T10:15:31Z</time>
      </trkpt>
      <trkpt lat="45.718" lon="6.45884">
        <ele>551</ele>
        <time>2022-07-23T10:15:32Z</time>
      </trkpt>
      <trkpt lat="45.718" lon="6.45885">
        <ele>551</ele>
        <time>2022-07-23T10:15:33Z</time>
      </trkpt>
      <trkpt lat="45.718" lon="6.45887">
        <ele>551</ele>
        <time>2022-07-23T10:15:34Z</time>
      </trkpt>
      <trkpt lat="45.718" lon="6.45888">
        <ele>551</ele>
        <time>2022-07-23T10:15:35Z</time>
      </trkpt>
      <trkpt lat="45.718" lon="6.4589">
        <ele>551</ele>
        <time>2022-07-23T10:15:36Z</time>
      </trkpt>
      <trkpt lat="45.718" lon="6.45891">
        <ele>551</ele>
        <time>2022-07-23T10:15:37Z</time>
      </trkpt>
      <trkpt lat="45.71799" lon="6.45893">
        <ele>551</ele>
        <time>2022-07-23T10:15:38Z</time>
      </trkpt>
      <trkpt lat="45.71799" lon="6.45894">
        <ele>551</ele>
        <time>2022-07-23T10:15:39Z</time>
      </trkpt>
      <trkpt lat="45.71799" lon="6.45896">
        <ele>551</ele>
        <time>2022-07-23T10:15:40Z</time>
      </trkpt>
      <trkpt lat="45.71798" lon="6.45897">
        <ele>551</ele>
        <time>2022-07-23T10:15:41Z</time>
      </trkpt>
      <trkpt lat="45.71797" lon="6.45898">
        <ele>551</ele>
        <time>2022-07-23T10:15:42Z</time>
      </trkpt>
      <trkpt lat="45.71797" lon="6.459">
        <ele>551</ele>
        <time>2022-07-23T10:15:43Z</time>
      </trkpt>
      <trkpt lat="45.71796" lon="6.45901">
        <ele>551</ele>
        <time>2022-07-23T10:15:44Z</time>
      </trkpt>
      <trkpt lat="45.71796" lon="6.45902">
        <ele>551</ele>
        <time>2022-07-23T10:15:45Z</time>
      </trkpt>
      <trkpt lat="45.71795" lon="6.45904">
        <ele>551</ele>
        <time>2022-07-23T10:15:46Z</time>
      </trkpt>
      <trkpt lat="45.71795" lon="6.45905">
        <ele>551</ele>
        <time>2022-07-23T10:15:47Z</time>
      </trkpt>
      <trkpt lat="45.71795" lon="6.45906">
        <ele>551</ele>
        <time>2022-07-23T10:15:48Z</time>
      </trkpt>
      <trkpt lat="45.71794" lon="6.45907">
        <ele>551</ele>
        <time>2022-07-23T10:15:49Z</time>
      </trkpt>
      <trkpt lat="45.71795" lon="6.45909">
        <ele>551</ele>
        <time>2022-07-23T10:15:50Z</time>
      </trkpt>
      <trkpt lat="45.71795" lon="6.4591">
        <ele>551</ele>
        <time>2022-07-23T10:15:51Z</time>
      </trkpt>
      <trkpt lat="45.71796" lon="6.45911">
        <ele>551</ele>
        <time>2022-07-23T10:15:52Z</time>
      </trkpt>
      <trkpt lat="45.71797" lon="6.45912">
        <ele>551</ele>
        <time>2022-07-23T10:15:53Z</time>
      </trkpt>
      <trkpt lat="45.71798" lon="6.45912">
        <ele>551</ele>
        <time>2022-07-23T10:15:54Z</time>
      </trkpt>
      <trkpt lat="45.71799" lon="6.45913">
        <ele>551</ele>
        <time>2022-07-23T10:15:55Z</time>
      </trkpt>
      <trkpt lat="45.718" lon="6.45913">
        <ele>551</ele>
        <time>2022-07-23T10:15:56Z</time>
      </trkpt>
      <trkpt lat="45.71801" lon="6.45914">
        <ele>551</ele>
        <time>2022-07-23T10:15:57Z</time>
      </trkpt>
      <trkpt lat="45.71802" lon="6.45914">
        <ele>551</ele>
        <time>2022-07-23T10:15:58Z</time>
      </trkpt>
      <trkpt lat="45.71802" lon="6.45914">
        <ele>551</ele>
        <time>2022-07-23T10:15:59Z</time>
      </trkpt>
      <trkpt lat="45.71803" lon="6.45913">
        <ele>551</ele>
        <time>2022-07-23T10:16:00Z</time>
      </trkpt>
      <trkpt lat="45.71804" lon="6.45913">
        <ele>551</ele>
        <time>2022-07-23T10:16:01Z</time>
      </trkpt>
      <trkpt lat="45.71805" lon="6.45913">
        <ele>551</ele>
        <time>2022-07-23T10:16:02Z</time>
      </trkpt>
      <trkpt lat="45.71806" lon="6.45912">
        <ele>551</ele>
        <time>2022-07-23T10:16:03Z</time>
      </trkpt>
      <trkpt lat="45.71807" lon="6.45912">
        <ele>551</ele>
        <time>2022-07-23T10:16:04Z</time>
      </trkpt>
      <trkpt lat="45.71808" lon="6.45911">
        <ele>552</ele>
        <time>2022-07-23T10:16:05Z</time>
      </trkpt>
      <trkpt lat="45.71808" lon="6.45911">
        <ele>552</ele>
        <time>2022-07-23T10:16:06Z</time>
      </trkpt>
      <trkpt lat="45.71809" lon="6.4591">
        <ele>552</ele>
        <time>2022-07-23T10:16:07Z</time>
      </trkpt>
      <trkpt lat="45.71809" lon="6.4591">
        <ele>552</ele>
        <time>2022-07-23T10:16:08Z</time>
      </trkpt>
      <trkpt lat="45.7181" lon="6.45909">
        <ele>552</ele>
        <time>2022-07-23T10:16:09Z</time>
      </trkpt>
      <trkpt lat="45.71811" lon="6.45909">
        <ele>552</ele>
        <time>2022-07-23T10:16:10Z</time>
      </trkpt>
      <trkpt lat="45.71811" lon="6.45909">
        <ele>552</ele>
        <time>2022-07-23T10:16:11Z</time>
      </trkpt>
      <trkpt lat="45.71812" lon="6.45908">
        <ele>552</ele>
        <time>2022-07-23T10:16:12Z</time>
      </trkpt>
      <trkpt lat="45.71813" lon="6.45908">
        <ele>552</ele>
        <time>2022-07-23T10:16:13Z</time>
      </trkpt>
      <trkpt lat="45.71814" lon="6.45908">
        <ele>552</ele>
        <time>2022-07-23T10:16:14Z</time>
      </trkpt>
      <trkpt lat="45.71814" lon="6.45908">
        <ele>553</ele>
        <time>2022-07-23T10:16:15Z</time>
      </trkpt>
      <trkpt lat="45.71815" lon="6.45908">
        <ele>553</ele>
        <time>2022-07-23T10:16:16Z</time>
      </trkpt>
      <trkpt lat="45.71816" lon="6.45907">
        <ele>553</ele>
        <time>2022-07-23T10:16:17Z</time>
      </trkpt>
      <trkpt lat="45.71817" lon="6.45907">
        <ele>553</ele>
        <time>2022-07-23T10:16:18Z</time>
      </trkpt>
      <trkpt lat="45.71818" lon="6.45907">
        <ele>553</ele>
        <time>2022-07-23T10:16:19Z</time>
      </trkpt>
      <trkpt lat="45.71819" lon="6.45907">
        <ele>553</ele>
        <time>2022-07-23T10:16:20Z</time>
      </trkpt>
      <trkpt lat="45.7182" lon="6.45906">
        <ele>553</ele>
        <time>2022-07-23T10:16:21Z</time>
      </trkpt>
      <trkpt lat="45.71821" lon="6.45906">
        <ele>553</ele>
        <time>2022-07-23T10:16:22Z</time>
      </trkpt>
      <trkpt lat="45.71822" lon="6.45906">
        <ele>553</ele>
        <time>2022-07-23T10:16:23Z</time>
      </trkpt>
      <trkpt lat="45.71823" lon="6.45905">
        <ele>553</ele>
        <time>2022-07-23T10:16:24Z</time>
      </trkpt>
      <trkpt lat="45.71823" lon="6.45905">
        <ele>553</ele>
        <time>2022-07-23T10:16:25Z</time>
      </trkpt>
      <trkpt lat="45.71824" lon="6.45905">
        <ele>553</ele>
        <time>2022-07-23T10:16:26Z</time>
      </trkpt>
      <trkpt lat="45.71825" lon="6.45904">
        <ele>553</ele>
        <time>2022-07-23T10:16:27Z</time>
      </trkpt>
      <trkpt lat="45.71826" lon="6.45904">
        <ele>553</ele>
        <time>2022-07-23T10:16:28Z</time>
      </trkpt>
      <trkpt lat="45.71826" lon="6.45904">
        <ele>553</ele>
        <time>2022-07-23T10:16:29Z</time>
      </trkpt>
      <trkpt lat="45.71827" lon="6.45903">
        <ele>554</ele>
        <time>2022-07-23T10:16:30Z</time>
      </trkpt>
      <trkpt lat="45.71828" lon="6.45903">
        <ele>554</ele>
        <time>2022-07-23T10:16:31Z</time>
      </trkpt>
      <trkpt lat="45.71829" lon="6.45902">
        <ele>554</ele>
        <time>2022-07-23T10:16:32Z</time>
      </trkpt>
      <trkpt lat="45.7183" lon="6.45901">
        <ele>554</ele>
        <time>2022-07-23T10:16:33Z</time>
      </trkpt>
      <trkpt lat="45.71831" lon="6.45901">
        <ele>554</ele>
        <time>2022-07-23T10:16:34Z</time>
      </trkpt>
      <trkpt lat="45.71831" lon="6.459">
        <ele>554</ele>
        <time>2022-07-23T10:16:35Z</time>
      </trkpt>
      <trkpt lat="45.71832" lon="6.459">
        <ele>554</ele>
        <time>2022-07-23T10:16:36Z</time>
      </trkpt>
      <trkpt lat="45.71833" lon="6.45899">
        <ele>554</ele>
        <time>2022-07-23T10:16:37Z</time>
      </trkpt>
      <trkpt lat="45.71834" lon="6.45899">
        <ele>554</ele>
        <time>2022-07-23T10:16:38Z</time>
      </trkpt>
      <trkpt lat="45.71834" lon="6.45898">
        <ele>554</ele>
        <time>2022-07-23T10:16:39Z</time>
      </trkpt>
      <trkpt lat="45.71835" lon="6.45898">
        <ele>554</ele>
        <time>2022-07-23T10:16:40Z</time>
      </trkpt>
      <trkpt lat="45.71835" lon="6.45898">
        <ele>554</ele>
        <time>2022-07-23T10:16:41Z</time>
      </trkpt>
      <trkpt lat="45.71836" lon="6.45897">
        <ele>554</ele>
        <time>2022-07-23T10:16:42Z</time>
      </trkpt>
      <trkpt lat="45.71837" lon="6.45897">
        <ele>555</ele>
        <time>2022-07-23T10:16:43Z</time>
      </trkpt>
      <trkpt lat="45.71837" lon="6.45896">
        <ele>555</ele>
        <time>2022-07-23T10:16:44Z</time>
      </trkpt>
      <trkpt lat="45.71838" lon="6.45896">
        <ele>556</ele>
        <time>2022-07-23T10:16:45Z</time>
      </trkpt>
      <trkpt lat="45.71838" lon="6.45896">
        <ele>556</ele>
        <time>2022-07-23T10:16:46Z</time>
      </trkpt>
      <trkpt lat="45.71839" lon="6.45895">
        <ele>556</ele>
        <time>2022-07-23T10:16:47Z</time>
      </trkpt>
      <trkpt lat="45.7184" lon="6.45895">
        <ele>556</ele>
        <time>2022-07-23T10:16:48Z</time>
      </trkpt>
      <trkpt lat="45.71841" lon="6.45895">
        <ele>556</ele>
        <time>2022-07-23T10:16:49Z</time>
      </trkpt>
      <trkpt lat="45.71841" lon="6.45894">
        <ele>556</ele>
        <time>2022-07-23T10:16:50Z</time>
      </trkpt>
      <trkpt lat="45.71842" lon="6.45894">
        <ele>556</ele>
        <time>2022-07-23T10:16:51Z</time>
      </trkpt>
      <trkpt lat="45.71843" lon="6.45894">
        <ele>556</ele>
        <time>2022-07-23T10:16:52Z</time>
      </trkpt>
      <trkpt lat="45.71844" lon="6.45893">
        <ele>556</ele>
        <time>2022-07-23T10:16:53Z</time>
      </trkpt>
      <trkpt lat="45.71844" lon="6.45893">
        <ele>556</ele>
        <time>2022-07-23T10:16:54Z</time>
      </trkpt>
      <trkpt lat="45.71845" lon="6.45893">
        <ele>556</ele>
        <time>2022-07-23T10:16:55Z</time>
      </trkpt>
      <trkpt lat="45.71846" lon="6.45892">
        <ele>556</ele>
        <time>2022-07-23T10:16:56Z</time>
      </trkpt>
      <trkpt lat="45.71846" lon="6.45892">
        <ele>556</ele>
        <time>2022-07-23T10:16:57Z</time>
      </trkpt>
      <trkpt lat="45.71847" lon="6.45891">
        <ele>556</ele>
        <time>2022-07-23T10:16:58Z</time>
      </trkpt>
      <trkpt lat="45.71847" lon="6.45891">
        <ele>556</ele>
        <time>2022-07-23T10:16:59Z</time>
      </trkpt>
      <trkpt lat="45.71848" lon="6.45891">
        <ele>557</ele>
        <time>2022-07-23T10:17:00Z</time>
      </trkpt>
      <trkpt lat="45.71849" lon="6.4589">
        <ele>557</ele>
        <time>2022-07-23T10:17:01Z</time>
      </trkpt>
      <trkpt lat="45.71849" lon="6.4589">
        <ele>557</ele>
        <time>2022-07-23T10:17:02Z</time>
      </trkpt>
      <trkpt lat="45.7185" lon="6.4589">
        <ele>557</ele>
        <time>2022-07-23T10:17:03Z</time>
      </trkpt>
      <trkpt lat="45.7185" lon="6.45889">
        <ele>557</ele>
        <time>2022-07-23T10:17:04Z</time>
      </trkpt>
      <trkpt lat="45.71851" lon="6.45889">
        <ele>558</ele>
        <time>2022-07-23T10:17:05Z</time>
      </trkpt>
      <trkpt lat="45.71852" lon="6.45889">
        <ele>558</ele>
        <time>2022-07-23T10:17:06Z</time>
      </trkpt>
      <trkpt lat="45.71853" lon="6.45888">
        <ele>558</ele>
        <time>2022-07-23T10:17:07Z</time>
      </trkpt>
      <trkpt lat="45.71853" lon="6.45888">
        <ele>558</ele>
        <time>2022-07-23T10:17:08Z</time>
      </trkpt>
      <trkpt lat="45.71854" lon="6.45888">
        <ele>558</ele>
        <time>2022-07-23T10:17:09Z</time>
      </trkpt>
      <trkpt lat="45.71855" lon="6.45887">
        <ele>558</ele>
        <time>2022-07-23T10:17:10Z</time>
      </trkpt>
      <trkpt lat="45.71856" lon="6.45887">
        <ele>558</ele>
        <time>2022-07-23T10:17:11Z</time>
      </trkpt>
      <trkpt lat="45.71857" lon="6.45886">
        <ele>558</ele>
        <time>2022-07-23T10:17:12Z</time>
      </trkpt>
      <trkpt lat="45.71857" lon="6.45886">
        <ele>558</ele>
        <time>2022-07-23T10:17:13Z</time>
      </trkpt>
      <trkpt lat="45.71858" lon="6.45885">
        <ele>558</ele>
        <time>2022-07-23T10:17:14Z</time>
      </trkpt>
      <trkpt lat="45.71859" lon="6.45885">
        <ele>559</ele>
        <time>2022-07-23T10:17:15Z</time>
      </trkpt>
      <trkpt lat="45.7186" lon="6.45884">
        <ele>559</ele>
        <time>2022-07-23T10:17:16Z</time>
      </trkpt>
      <trkpt lat="45.71861" lon="6.45884">
        <ele>559</ele>
        <time>2022-07-23T10:17:17Z</time>
      </trkpt>
      <trkpt lat="45.71862" lon="6.45883">
        <ele>559</ele>
        <time>2022-07-23T10:17:18Z</time>
      </trkpt>
      <trkpt lat="45.71862" lon="6.45882">
        <ele>559</ele>
        <time>2022-07-23T10:17:19Z</time>
      </trkpt>
      <trkpt lat="45.71863" lon="6.45882">
        <ele>559</ele>
        <time>2022-07-23T10:17:20Z</time>
      </trkpt>
      <trkpt lat="45.71864" lon="6.45881">
        <ele>559</ele>
        <time>2022-07-23T10:17:21Z</time>
      </trkpt>
      <trkpt lat="45.71865" lon="6.45881">
        <ele>559</ele>
        <time>2022-07-23T10:17:22Z</time>
      </trkpt>
      <trkpt lat="45.71865" lon="6.4588">
        <ele>559</ele>
        <time>2022-07-23T10:17:23Z</time>
      </trkpt>
      <trkpt lat="45.71866" lon="6.45879">
        <ele>559</ele>
        <time>2022-07-23T10:17:24Z</time>
      </trkpt>
      <trkpt lat="45.71867" lon="6.45879">
        <ele>560</ele>
        <time>2022-07-23T10:17:25Z</time>
      </trkpt>
      <trkpt lat="45.71867" lon="6.45878">
        <ele>560</ele>
        <time>2022-07-23T10:17:26Z</time>
      </trkpt>
      <trkpt lat="45.71867" lon="6.45877">
        <ele>560</ele>
        <time>2022-07-23T10:17:27Z</time>
      </trkpt>
      <trkpt lat="45.71869" lon="6.45876">
        <ele>561</ele>
        <time>2022-07-23T10:17:35Z</time>
      </trkpt>
      <trkpt lat="45.71869" lon="6.45875">
        <ele>561</ele>
        <time>2022-07-23T10:17:36Z</time>
      </trkpt>
      <trkpt lat="45.7187" lon="6.45875">
        <ele>561</ele>
        <time>2022-07-23T10:17:37Z</time>
      </trkpt>
      <trkpt lat="45.7187" lon="6.45875">
        <ele>561</ele>
        <time>2022-07-23T10:17:38Z</time>
      </trkpt>
      <trkpt lat="45.71871" lon="6.45874">
        <ele>561</ele>
        <time>2022-07-23T10:17:39Z</time>
      </trkpt>
      <trkpt lat="45.71872" lon="6.45874">
        <ele>561</ele>
        <time>2022-07-23T10:17:40Z</time>
      </trkpt>
      <trkpt lat="45.71872" lon="6.45874">
        <ele>561</ele>
        <time>2022-07-23T10:17:41Z</time>
      </trkpt>
      <trkpt lat="45.71873" lon="6.45874">
        <ele>561</ele>
        <time>2022-07-23T10:17:42Z</time>
      </trkpt>
      <trkpt lat="45.71874" lon="6.45873">
        <ele>561</ele>
        <time>2022-07-23T10:17:43Z</time>
      </trkpt>
      <trkpt lat="45.71875" lon="6.45873">
        <ele>561</ele>
        <time>2022-07-23T10:17:44Z</time>
      </trkpt>
      <trkpt lat="45.71875" lon="6.45872">
        <ele>561</ele>
        <time>2022-07-23T10:17:45Z</time>
      </trkpt>
      <trkpt lat="45.71876" lon="6.45872">
        <ele>561</ele>
        <time>2022-07-23T10:17:46Z</time>
      </trkpt>
      <trkpt lat="45.71877" lon="6.45872">
        <ele>561</ele>
        <time>2022-07-23T10:17:47Z</time>
      </trkpt>
      <trkpt lat="45.71878" lon="6.45871">
        <ele>561</ele>
        <time>2022-07-23T10:17:48Z</time>
      </trkpt>
      <trkpt lat="45.71879" lon="6.45871">
        <ele>561</ele>
        <time>2022-07-23T10:17:49Z</time>
      </trkpt>
      <trkpt lat="45.71879" lon="6.4587">
        <ele>562</ele>
        <time>2022-07-23T10:17:50Z</time>
      </trkpt>
      <trkpt lat="45.7188" lon="6.4587">
        <ele>562</ele>
        <time>2022-07-23T10:17:51Z</time>
      </trkpt>
      <trkpt lat="45.7188" lon="6.45869">
        <ele>562</ele>
        <time>2022-07-23T10:17:52Z</time>
      </trkpt>
      <trkpt lat="45.71881" lon="6.45869">
        <ele>562</ele>
        <time>2022-07-23T10:17:53Z</time>
      </trkpt>
      <trkpt lat="45.71881" lon="6.45868">
        <ele>562</ele>
        <time>2022-07-23T10:17:54Z</time>
      </trkpt>
      <trkpt lat="45.71882" lon="6.45868">
        <ele>562</ele>
        <time>2022-07-23T10:17:55Z</time>
      </trkpt>
      <trkpt lat="45.71883" lon="6.45867">
        <ele>562</ele>
        <time>2022-07-23T10:17:56Z</time>
      </trkpt>
      <trkpt lat="45.71883" lon="6.45866">
        <ele>562</ele>
        <time>2022-07-23T10:17:57Z</time>
      </trkpt>
      <trkpt lat="45.71884" lon="6.45866">
        <ele>562</ele>
        <time>2022-07-23T10:17:58Z</time>
      </trkpt>
      <trkpt lat="45.71884" lon="6.45865">
        <ele>562</ele>
        <time>2022-07-23T10:17:59Z</time>
      </trkpt>
      <trkpt lat="45.71885" lon="6.45865">
        <ele>563</ele>
        <time>2022-07-23T10:18:00Z</time>
      </trkpt>
      <trkpt lat="45.71886" lon="6.45864">
        <ele>563</ele>
        <time>2022-07-23T10:18:01Z</time>
      </trkpt>
      <trkpt lat="45.71887" lon="6.45864">
        <ele>563</ele>
        <time>2022-07-23T10:18:02Z</time>
      </trkpt>
      <trkpt lat="45.71887" lon="6.45863">
        <ele>563</ele>
        <time>2022-07-23T10:18:03Z</time>
      </trkpt>
      <trkpt lat="45.71888" lon="6.45863">
        <ele>563</ele>
        <time>2022-07-23T10:18:04Z</time>
      </trkpt>
      <trkpt lat="45.71889" lon="6.45863">
        <ele>564</ele>
        <time>2022-07-23T10:18:05Z</time>
      </trkpt>
      <trkpt lat="45.7189" lon="6.45862">
        <ele>564</ele>
        <time>2022-07-23T10:18:06Z</time>
      </trkpt>
      <trkpt lat="45.7189" lon="6.45862">
        <ele>564</ele>
        <time>2022-07-23T10:18:07Z</time>
      </trkpt>
      <trkpt lat="45.71891" lon="6.45862">
        <ele>564</ele>
        <time>2022-07-23T10:18:08Z</time>
      </trkpt>
      <trkpt lat="45.71892" lon="6.45861">
        <ele>564</ele>
        <time>2022-07-23T10:18:09Z</time>
      </trkpt>
      <trkpt lat="45.71892" lon="6.45861">
        <ele>564</ele>
        <time>2022-07-23T10:18:10Z</time>
      </trkpt>
      <trkpt lat="45.71893" lon="6.4586">
        <ele>564</ele>
        <time>2022-07-23T10:18:11Z</time>
      </trkpt>
      <trkpt lat="45.71894" lon="6.4586">
        <ele>564</ele>
        <time>2022-07-23T10:18:12Z</time>
      </trkpt>
      <trkpt lat="45.71894" lon="6.45859">
        <ele>564</ele>
        <time>2022-07-23T10:18:13Z</time>
      </trkpt>
      <trkpt lat="45.71895" lon="6.45859">
        <ele>564</ele>
        <time>2022-07-23T10:18:14Z</time>
      </trkpt>
      <trkpt lat="45.71896" lon="6.45859">
        <ele>564</ele>
        <time>2022-07-23T10:18:15Z</time>
      </trkpt>
      <trkpt lat="45.71896" lon="6.45858">
        <ele>564</ele>
        <time>2022-07-23T10:18:16Z</time>
      </trkpt>
      <trkpt lat="45.71897" lon="6.45858">
        <ele>564</ele>
        <time>2022-07-23T10:18:17Z</time>
      </trkpt>
      <trkpt lat="45.71898" lon="6.45858">
        <ele>564</ele>
        <time>2022-07-23T10:18:18Z</time>
      </trkpt>
      <trkpt lat="45.71899" lon="6.45857">
        <ele>564</ele>
        <time>2022-07-23T10:18:19Z</time>
      </trkpt>
      <trkpt lat="45.71899" lon="6.45857">
        <ele>565</ele>
        <time>2022-07-23T10:18:20Z</time>
      </trkpt>
      <trkpt lat="45.719" lon="6.45856">
        <ele>565</ele>
        <time>2022-07-23T10:18:21Z</time>
      </trkpt>
      <trkpt lat="45.71901" lon="6.45855">
        <ele>565</ele>
        <time>2022-07-23T10:18:22Z</time>
      </trkpt>
      <trkpt lat="45.71902" lon="6.45855">
        <ele>565</ele>
        <time>2022-07-23T10:18:23Z</time>
      </trkpt>
      <trkpt lat="45.71902" lon="6.45854">
        <ele>565</ele>
        <time>2022-07-23T10:18:24Z</time>
      </trkpt>
      <trkpt lat="45.71903" lon="6.45854">
        <ele>565</ele>
        <time>2022-07-23T10:18:25Z</time>
      </trkpt>
      <trkpt lat="45.71904" lon="6.45853">
        <ele>565</ele>
        <time>2022-07-23T10:18:26Z</time>
      </trkpt>
      <trkpt lat="45.71905" lon="6.45853">
        <ele>565</ele>
        <time>2022-07-23T10:18:27Z</time>
      </trkpt>
      <trkpt lat="45.71906" lon="6.45852">
        <ele>565</ele>
        <time>2022-07-23T10:18:28Z</time>
      </trkpt>
      <trkpt lat="45.71907" lon="6.45852">
        <ele>565</ele>
        <time>2022-07-23T10:18:29Z</time>
      </trkpt>
      <trkpt lat="45.71908" lon="6.45851">
        <ele>566</ele>
        <time>2022-07-23T10:18:30Z</time>
      </trkpt>
      <trkpt lat="45.71908" lon="6.45851">
        <ele>566</ele>
        <time>2022-07-23T10:18:31Z</time>
      </trkpt>
      <trkpt lat="45.71909" lon="6.45851">
        <ele>566</ele>
        <time>2022-07-23T10:18:32Z</time>
      </trkpt>
      <trkpt lat="45.7191" lon="6.4585">
        <ele>566</ele>
        <time>2022-07-23T10:18:33Z</time>
      </trkpt>
      <trkpt lat="45.71911" lon="6.4585">
        <ele>566</ele>
        <time>2022-07-23T10:18:34Z</time>
      </trkpt>
      <trkpt lat="45.71912" lon="6.4585">
        <ele>566</ele>
        <time>2022-07-23T10:18:35Z</time>
      </trkpt>
      <trkpt lat="45.71913" lon="6.4585">
        <ele>566</ele>
        <time>2022-07-23T10:18:36Z</time>
      </trkpt>
      <trkpt lat="45.71914" lon="6.4585">
        <ele>566</ele>
        <time>2022-07-23T10:18:37Z</time>
      </trkpt>
      <trkpt lat="45.71915" lon="6.45849">
        <ele>566</ele>
        <time>2022-07-23T10:18:38Z</time>
      </trkpt>
      <trkpt lat="45.71915" lon="6.45849">
        <ele>566</ele>
        <time>2022-07-23T10:18:39Z</time>
      </trkpt>
      <trkpt lat="45.71916" lon="6.45849">
        <ele>567</ele>
        <time>2022-07-23T10:18:40Z</time>
      </trkpt>
      <trkpt lat="45.71917" lon="6.45849">
        <ele>567</ele>
        <time>2022-07-23T10:18:41Z</time>
      </trkpt>
      <trkpt lat="45.71918" lon="6.45848">
        <ele>567</ele>
        <time>2022-07-23T10:18:42Z</time>
      </trkpt>
      <trkpt lat="45.71918" lon="6.45848">
        <ele>567</ele>
        <time>2022-07-23T10:18:43Z</time>
      </trkpt>
      <trkpt lat="45.71919" lon="6.45848">
        <ele>567</ele>
        <time>2022-07-23T10:18:44Z</time>
      </trkpt>
      <trkpt lat="45.7192" lon="6.45848">
        <ele>567</ele>
        <time>2022-07-23T10:18:45Z</time>
      </trkpt>
      <trkpt lat="45.7192" lon="6.45847">
        <ele>567</ele>
        <time>2022-07-23T10:18:46Z</time>
      </trkpt>
      <trkpt lat="45.71921" lon="6.45847">
        <ele>567</ele>
        <time>2022-07-23T10:18:47Z</time>
      </trkpt>
      <trkpt lat="45.71922" lon="6.45847">
        <ele>567</ele>
        <time>2022-07-23T10:18:48Z</time>
      </trkpt>
      <trkpt lat="45.71922" lon="6.45846">
        <ele>567</ele>
        <time>2022-07-23T10:18:49Z</time>
      </trkpt>
      <trkpt lat="45.71923" lon="6.45846">
        <ele>568</ele>
        <time>2022-07-23T10:18:50Z</time>
      </trkpt>
      <trkpt lat="45.71924" lon="6.45845">
        <ele>568</ele>
        <time>2022-07-23T10:18:51Z</time>
      </trkpt>
      <trkpt lat="45.71925" lon="6.45845">
        <ele>568</ele>
        <time>2022-07-23T10:18:52Z</time>
      </trkpt>
      <trkpt lat="45.71926" lon="6.45845">
        <ele>568</ele>
        <time>2022-07-23T10:18:53Z</time>
      </trkpt>
      <trkpt lat="45.71926" lon="6.45845">
        <ele>568</ele>
        <time>2022-07-23T10:18:54Z</time>
      </trkpt>
      <trkpt lat="45.71927" lon="6.45844">
        <ele>569</ele>
        <time>2022-07-23T10:18:55Z</time>
      </trkpt>
      <trkpt lat="45.71928" lon="6.45844">
        <ele>569</ele>
        <time>2022-07-23T10:18:56Z</time>
      </trkpt>
      <trkpt lat="45.71929" lon="6.45844">
        <ele>569</ele>
        <time>2022-07-23T10:18:57Z</time>
      </trkpt>
      <trkpt lat="45.7193" lon="6.45844">
        <ele>569</ele>
        <time>2022-07-23T10:18:58Z</time>
      </trkpt>
      <trkpt lat="45.71931" lon="6.45843">
        <ele>569</ele>
        <time>2022-07-23T10:18:59Z</time>
      </trkpt>
      <trkpt lat="45.71931" lon="6.45843">
        <ele>569</ele>
        <time>2022-07-23T10:19:00Z</time>
      </trkpt>
      <trkpt lat="45.71932" lon="6.45843">
        <ele>569</ele>
        <time>2022-07-23T10:19:01Z</time>
      </trkpt>
      <trkpt lat="45.71933" lon="6.45842">
        <ele>569</ele>
        <time>2022-07-23T10:19:02Z</time>
      </trkpt>
      <trkpt lat="45.71933" lon="6.45842">
        <ele>569</ele>
        <time>2022-07-23T10:19:03Z</time>
      </trkpt>
      <trkpt lat="45.71934" lon="6.45842">
        <ele>569</ele>
        <time>2022-07-23T10:19:04Z</time>
      </trkpt>
      <trkpt lat="45.71935" lon="6.45841">
        <ele>570</ele>
        <time>2022-07-23T10:19:05Z</time>
      </trkpt>
      <trkpt lat="45.71935" lon="6.45841">
        <ele>570</ele>
        <time>2022-07-23T10:19:06Z</time>
      </trkpt>
      <trkpt lat="45.71936" lon="6.45841">
        <ele>570</ele>
        <time>2022-07-23T10:19:07Z</time>
      </trkpt>
      <trkpt lat="45.71937" lon="6.45841">
        <ele>570</ele>
        <time>2022-07-23T10:19:08Z</time>
      </trkpt>
      <trkpt lat="45.71938" lon="6.4584">
        <ele>570</ele>
        <time>2022-07-23T10:19:09Z</time>
      </trkpt>
      <trkpt lat="45.71939" lon="6.4584">
        <ele>570</ele>
        <time>2022-07-23T10:19:10Z</time>
      </trkpt>
      <trkpt lat="45.71939" lon="6.4584">
        <ele>570</ele>
        <time>2022-07-23T10:19:11Z</time>
      </trkpt>
      <trkpt lat="45.7194" lon="6.4584">
        <ele>570</ele>
        <time>2022-07-23T10:19:12Z</time>
      </trkpt>
      <trkpt lat="45.71941" lon="6.45839">
        <ele>570</ele>
        <time>2022-07-23T10:19:13Z</time>
      </trkpt>
      <trkpt lat="45.71942" lon="6.45839">
        <ele>570</ele>
        <time>2022-07-23T10:19:14Z</time>
      </trkpt>
      <trkpt lat="45.71943" lon="6.45839">
        <ele>571</ele>
        <time>2022-07-23T10:19:15Z</time>
      </trkpt>
      <trkpt lat="45.71944" lon="6.45839">
        <ele>571</ele>
        <time>2022-07-23T10:19:16Z</time>
      </trkpt>
      <trkpt lat="45.71945" lon="6.45839">
        <ele>571</ele>
        <time>2022-07-23T10:19:17Z</time>
      </trkpt>
      <trkpt lat="45.71946" lon="6.45839">
        <ele>571</ele>
        <time>2022-07-23T10:19:18Z</time>
      </trkpt>
      <trkpt lat="45.71946" lon="6.45838">
        <ele>571</ele>
        <time>2022-07-23T10:19:19Z</time>
      </trkpt>
      <trkpt lat="45.71947" lon="6.45838">
        <ele>571</ele>
        <time>2022-07-23T10:19:20Z</time>
      </trkpt>
      <trkpt lat="45.71948" lon="6.45838">
        <ele>571</ele>
        <time>2022-07-23T10:19:21Z</time>
      </trkpt>
      <trkpt lat="45.71949" lon="6.45838">
        <ele>571</ele>
        <time>2022-07-23T10:19:22Z</time>
      </trkpt>
      <trkpt lat="45.71949" lon="6.45837">
        <ele>571</ele>
        <time>2022-07-23T10:19:23Z</time>
      </trkpt>
      <trkpt lat="45.7195" lon="6.45837">
        <ele>571</ele>
        <time>2022-07-23T10:19:24Z</time>
      </trkpt>
      <trkpt lat="45.71951" lon="6.45837">
        <ele>572</ele>
        <time>2022-07-23T10:19:25Z</time>
      </trkpt>
      <trkpt lat="45.71951" lon="6.45836">
        <ele>572</ele>
        <time>2022-07-23T10:19:26Z</time>
      </trkpt>
      <trkpt lat="45.71952" lon="6.45836">
        <ele>572</ele>
        <time>2022-07-23T10:19:27Z</time>
      </trkpt>
      <trkpt lat="45.71953" lon="6.45836">
        <ele>572</ele>
        <time>2022-07-23T10:19:28Z</time>
      </trkpt>
      <trkpt lat="45.71954" lon="6.45836">
        <ele>572</ele>
        <time>2022-07-23T10:19:29Z</time>
      </trkpt>
      <trkpt lat="45.71955" lon="6.45835">
        <ele>572</ele>
        <time>2022-07-23T10:19:30Z</time>
      </trkpt>
      <trkpt lat="45.71955" lon="6.45835">
        <ele>572</ele>
        <time>2022-07-23T10:19:31Z</time>
      </trkpt>
      <trkpt lat="45.71956" lon="6.45835">
        <ele>572</ele>
        <time>2022-07-23T10:19:32Z</time>
      </trkpt>
      <trkpt lat="45.71957" lon="6.45835">
        <ele>573</ele>
        <time>2022-07-23T10:19:33Z</time>
      </trkpt>
      <trkpt lat="45.71958" lon="6.45835">
        <ele>573</ele>
        <time>2022-07-23T10:19:34Z</time>
      </trkpt>
      <trkpt lat="45.71959" lon="6.45835">
        <ele>574</ele>
        <time>2022-07-23T10:19:35Z</time>
      </trkpt>
      <trkpt lat="45.7196" lon="6.45835">
        <ele>574</ele>
        <time>2022-07-23T10:19:36Z</time>
      </trkpt>
      <trkpt lat="45.71961" lon="6.45834">
        <ele>574</ele>
        <time>2022-07-23T10:19:37Z</time>
      </trkpt>
      <trkpt lat="45.71962" lon="6.45834">
        <ele>574</ele>
        <time>2022-07-23T10:19:38Z</time>
      </trkpt>
      <trkpt lat="45.71962" lon="6.45834">
        <ele>574</ele>
        <time>2022-07-23T10:19:39Z</time>
      </trkpt>
      <trkpt lat="45.71963" lon="6.45834">
        <ele>574</ele>
        <time>2022-07-23T10:19:40Z</time>
      </trkpt>
      <trkpt lat="45.71964" lon="6.45834">
        <ele>574</ele>
        <time>2022-07-23T10:19:41Z</time>
      </trkpt>
      <trkpt lat="45.71965" lon="6.45834">
        <ele>574</ele>
        <time>2022-07-23T10:19:42Z</time>
      </trkpt>
      <trkpt lat="45.71966" lon="6.45834">
        <ele>574</ele>
        <time>2022-07-23T10:19:43Z</time>
      </trkpt>
      <trkpt lat="45.71966" lon="6.45834">
        <ele>574</ele>
        <time>2022-07-23T10:19:44Z</time>
      </trkpt>
      <trkpt lat="45.71967" lon="6.45834">
        <ele>575</ele>
        <time>2022-07-23T10:19:45Z</time>
      </trkpt>
      <trkpt lat="45.71968" lon="6.45834">
        <ele>575</ele>
        <time>2022-07-23T10:19:46Z</time>
      </trkpt>
      <trkpt lat="45.71969" lon="6.45834">
        <ele>575</ele>
        <time>2022-07-23T10:19:47Z</time>
      </trkpt>
      <trkpt lat="45.7197" lon="6.45833">
        <ele>575</ele>
        <time>2022-07-23T10:19:48Z</time>
      </trkpt>
      <trkpt lat="45.71971" lon="6.45833">
        <ele>575</ele>
        <time>2022-07-23T10:19:49Z</time>
      </trkpt>
      <trkpt lat="45.71971" lon="6.45833">
        <ele>575</ele>
        <time>2022-07-23T10:19:50Z</time>
      </trkpt>
      <trkpt lat="45.71972" lon="6.45833">
        <ele>575</ele>
        <time>2022-07-23T10:19:51Z</time>
      </trkpt>
      <trkpt lat="45.71973" lon="6.45833">
        <ele>575</ele>
        <time>2022-07-23T10:19:52Z</time>
      </trkpt>
      <trkpt lat="45.71974" lon="6.45833">
        <ele>575</ele>
        <time>2022-07-23T10:19:53Z</time>
      </trkpt>
      <trkpt lat="45.71975" lon="6.45832">
        <ele>575</ele>
        <time>2022-07-23T10:19:54Z</time>
      </trkpt>
      <trkpt lat="45.71976" lon="6.45832">
        <ele>576</ele>
        <time>2022-07-23T10:19:55Z</time>
      </trkpt>
      <trkpt lat="45.71976" lon="6.45832">
        <ele>576</ele>
        <time>2022-07-23T10:19:56Z</time>
      </trkpt>
      <trkpt lat="45.71977" lon="6.45832">
        <ele>576</ele>
        <time>2022-07-23T10:19:57Z</time>
      </trkpt>
      <trkpt lat="45.71978" lon="6.45831">
        <ele>576</ele>
        <time>2022-07-23T10:19:58Z</time>
      </trkpt>
      <trkpt lat="45.71979" lon="6.45831">
        <ele>576</ele>
        <time>2022-07-23T10:19:59Z</time>
      </trkpt>
      <trkpt lat="45.7198" lon="6.45831">
        <ele>577</ele>
        <time>2022-07-23T10:20:00Z</time>
      </trkpt>
      <trkpt lat="45.7198" lon="6.45831">
        <ele>577</ele>
        <time>2022-07-23T10:20:01Z</time>
      </trkpt>
      <trkpt lat="45.71981" lon="6.45831">
        <ele>577</ele>
        <time>2022-07-23T10:20:02Z</time>
      </trkpt>
      <trkpt lat="45.71982" lon="6.45831">
        <ele>577</ele>
        <time>2022-07-23T10:20:03Z</time>
      </trkpt>
      <trkpt lat="45.71983" lon="6.45831">
        <ele>577</ele>
        <time>2022-07-23T10:20:04Z</time>
      </trkpt>
      <trkpt lat="45.71984" lon="6.45831">
        <ele>577</ele>
        <time>2022-07-23T10:20:05Z</time>
      </trkpt>
      <trkpt lat="45.71984" lon="6.45831">
        <ele>577</ele>
        <time>2022-07-23T10:20:06Z</time>
      </trkpt>
      <trkpt lat="45.71985" lon="6.45831">
        <ele>577</ele>
        <time>2022-07-23T10:20:07Z</time>
      </trkpt>
      <trkpt lat="45.71986" lon="6.45831">
        <ele>577</ele>
        <time>2022-07-23T10:20:08Z</time>
      </trkpt>
      <trkpt lat="45.71987" lon="6.45831">
        <ele>577</ele>
        <time>2022-07-23T10:20:09Z</time>
      </trkpt>
      <trkpt lat="45.71988" lon="6.45831">
        <ele>578</ele>
        <time>2022-07-23T10:20:10Z</time>
      </trkpt>
      <trkpt lat="45.71988" lon="6.45831">
        <ele>578</ele>
        <time>2022-07-23T10:20:11Z</time>
      </trkpt>
      <trkpt lat="45.71989" lon="6.45831">
        <ele>578</ele>
        <time>2022-07-23T10:20:12Z</time>
      </trkpt>
      <trkpt lat="45.7199" lon="6.45831">
        <ele>578</ele>
        <time>2022-07-23T10:20:13Z</time>
      </trkpt>
      <trkpt lat="45.71991" lon="6.45831">
        <ele>578</ele>
        <time>2022-07-23T10:20:14Z</time>
      </trkpt>
      <trkpt lat="45.71992" lon="6.45831">
        <ele>578</ele>
        <time>2022-07-23T10:20:15Z</time>
      </trkpt>
      <trkpt lat="45.71993" lon="6.45831">
        <ele>578</ele>
        <time>2022-07-23T10:20:16Z</time>
      </trkpt>
      <trkpt lat="45.71994" lon="6.45831">
        <ele>578</ele>
        <time>2022-07-23T10:20:17Z</time>
      </trkpt>
      <trkpt lat="45.71995" lon="6.45831">
        <ele>578</ele>
        <time>2022-07-23T10:20:18Z</time>
      </trkpt>
      <trkpt lat="45.71995" lon="6.45831">
        <ele>578</ele>
        <time>2022-07-23T10:20:19Z</time>
      </trkpt>
      <trkpt lat="45.71996" lon="6.45831">
        <ele>579</ele>
        <time>2022-07-23T10:20:20Z</time>
      </trkpt>
      <trkpt lat="45.71997" lon="6.45831">
        <ele>579</ele>
        <time>2022-07-23T10:20:21Z</time>
      </trkpt>
      <trkpt lat="45.71998" lon="6.45831">
        <ele>579</ele>
        <time>2022-07-23T10:20:22Z</time>
      </trkpt>
      <trkpt lat="45.71998" lon="6.45831">
        <ele>579</ele>
        <time>2022-07-23T10:20:23Z</time>
      </trkpt>
      <trkpt lat="45.71999" lon="6.45831">
        <ele>579</ele>
        <time>2022-07-23T10:20:24Z</time>
      </trkpt>
      <trkpt lat="45.72" lon="6.45831">
        <ele>579</ele>
        <time>2022-07-23T10:20:25Z</time>
      </trkpt>
      <trkpt lat="45.72" lon="6.45832">
        <ele>579</ele>
        <time>2022-07-23T10:20:26Z</time>
      </trkpt>
      <trkpt lat="45.72001" lon="6.45832">
        <ele>579</ele>
        <time>2022-07-23T10:20:27Z</time>
      </trkpt>
      <trkpt lat="45.72002" lon="6.45832">
        <ele>579</ele>
        <time>2022-07-23T10:20:28Z</time>
      </trkpt>
      <trkpt lat="45.72003" lon="6.45832">
        <ele>579</ele>
        <time>2022-07-23T10:20:29Z</time>
      </trkpt>
      <trkpt lat="45.72003" lon="6.45833">
        <ele>580</ele>
        <time>2022-07-23T10:20:30Z</time>
      </trkpt>
      <trkpt lat="45.72004" lon="6.45833">
        <ele>580</ele>
        <time>2022-07-23T10:20:31Z</time>
      </trkpt>
      <trkpt lat="45.72005" lon="6.45833">
        <ele>580</ele>
        <time>2022-07-23T10:20:32Z</time>
      </trkpt>
      <trkpt lat="45.72006" lon="6.45833">
        <ele>580</ele>
        <time>2022-07-23T10:20:33Z</time>
      </trkpt>
      <trkpt lat="45.72006" lon="6.45834">
        <ele>580</ele>
        <time>2022-07-23T10:20:34Z</time>
      </trkpt>
      <trkpt lat="45.72007" lon="6.45834">
        <ele>580</ele>
        <time>2022-07-23T10:20:35Z</time>
      </trkpt>
      <trkpt lat="45.72008" lon="6.45834">
        <ele>580</ele>
        <time>2022-07-23T10:20:36Z</time>
      </trkpt>
      <trkpt lat="45.72009" lon="6.45833">
        <ele>580</ele>
        <time>2022-07-23T10:20:37Z</time>
      </trkpt>
      <trkpt lat="45.72009" lon="6.45833">
        <ele>580</ele>
        <time>2022-07-23T10:20:38Z</time>
      </trkpt>
      <trkpt lat="45.7201" lon="6.45833">
        <ele>580</ele>
        <time>2022-07-23T10:20:39Z</time>
      </trkpt>
      <trkpt lat="45.72011" lon="6.45833">
        <ele>581</ele>
        <time>2022-07-23T10:20:40Z</time>
      </trkpt>
      <trkpt lat="45.72011" lon="6.45833">
        <ele>581</ele>
        <time>2022-07-23T10:20:41Z</time>
      </trkpt>
      <trkpt lat="45.72012" lon="6.45832">
        <ele>581</ele>
        <time>2022-07-23T10:20:42Z</time>
      </trkpt>
      <trkpt lat="45.72013" lon="6.45832">
        <ele>581</ele>
        <time>2022-07-23T10:20:43Z</time>
      </trkpt>
      <trkpt lat="45.72013" lon="6.45831">
        <ele>581</ele>
        <time>2022-07-23T10:20:44Z</time>
      </trkpt>
      <trkpt lat="45.72014" lon="6.4583">
        <ele>582</ele>
        <time>2022-07-23T10:20:45Z</time>
      </trkpt>
      <trkpt lat="45.72014" lon="6.45829">
        <ele>582</ele>
        <time>2022-07-23T10:20:46Z</time>
      </trkpt>
      <trkpt lat="45.72015" lon="6.45828">
        <ele>582</ele>
        <time>2022-07-23T10:20:47Z</time>
      </trkpt>
      <trkpt lat="45.72015" lon="6.45826">
        <ele>582</ele>
        <time>2022-07-23T10:20:48Z</time>
      </trkpt>
      <trkpt lat="45.72016" lon="6.45826">
        <ele>582</ele>
        <time>2022-07-23T10:20:49Z</time>
      </trkpt>
      <trkpt lat="45.72016" lon="6.45825">
        <ele>582</ele>
        <time>2022-07-23T10:20:50Z</time>
      </trkpt>
      <trkpt lat="45.72016" lon="6.45825">
        <ele>583</ele>
        <time>2022-07-23T10:21:09Z</time>
      </trkpt>
      <trkpt lat="45.72016" lon="6.45825">
        <ele>583</ele>
        <time>2022-07-23T10:21:10Z</time>
      </trkpt>
      <trkpt lat="45.72017" lon="6.45825">
        <ele>583</ele>
        <time>2022-07-23T10:21:11Z</time>
      </trkpt>
      <trkpt lat="45.72017" lon="6.45824">
        <ele>583</ele>
        <time>2022-07-23T10:21:12Z</time>
      </trkpt>
      <trkpt lat="45.72017" lon="6.45824">
        <ele>583</ele>
        <time>2022-07-23T10:21:13Z</time>
      </trkpt>
      <trkpt lat="45.72017" lon="6.45823">
        <ele>583</ele>
        <time>2022-07-23T10:24:10Z</time>
      </trkpt>
      <trkpt lat="45.72017" lon="6.45823">
        <ele>583</ele>
        <time>2022-07-23T10:24:11Z</time>
      </trkpt>
      <trkpt lat="45.72017" lon="6.45824">
        <ele>583</ele>
        <time>2022-07-23T10:24:12Z</time>
      </trkpt>
      <trkpt lat="45.72017" lon="6.45824">
        <ele>583</ele>
        <time>2022-07-23T10:24:13Z</time>
      </trkpt>
      <trkpt lat="45.72017" lon="6.45824">
        <ele>583</ele>
        <time>2022-07-23T10:24:14Z</time>
      </trkpt>
      <trkpt lat="45.72017" lon="6.45825">
        <ele>583</ele>
        <time>2022-07-23T10:24:15Z</time>
      </trkpt>
      <trkpt lat="45.72017" lon="6.45825">
        <ele>583</ele>
        <time>2022-07-23T10:24:16Z</time>
      </trkpt>
      <trkpt lat="45.72016" lon="6.45825">
        <ele>583</ele>
        <time>2022-07-23T10:26:03Z</time>
      </trkpt>
      <trkpt lat="45.72016" lon="6.45825">
        <ele>583</ele>
        <time>2022-07-23T10:26:04Z</time>
      </trkpt>
      <trkpt lat="45.72016" lon="6.45825">
        <ele>583</ele>
        <time>2022-07-23T10:26:05Z</time>
      </trkpt>
      <trkpt lat="45.72016" lon="6.45824">
        <ele>583</ele>
        <time>2022-07-23T10:26:06Z</time>
      </trkpt>
      <trkpt lat="45.72016" lon="6.45823">
        <ele>583</ele>
        <time>2022-07-23T10:26:07Z</time>
      </trkpt>
      <trkpt lat="45.72017" lon="6.45824">
        <ele>584</ele>
        <time>2022-07-23T10:26:36Z</time>
      </trkpt>
      <trkpt lat="45.72017" lon="6.45824">
        <ele>584</ele>
        <time>2022-07-23T10:26:37Z</time>
      </trkpt>
      <trkpt lat="45.72018" lon="6.45825">
        <ele>584</ele>
        <time>2022-07-23T10:26:38Z</time>
      </trkpt>
      <trkpt lat="45.72018" lon="6.45825">
        <ele>584</ele>
        <time>2022-07-23T10:28:10Z</time>
      </trkpt>
      <trkpt lat="45.72017" lon="6.45824">
        <ele>584</ele>
        <time>2022-07-23T10:28:11Z</time>
      </trkpt>
      <trkpt lat="45.72016" lon="6.45824">
        <ele>584</ele>
        <time>2022-07-23T10:28:12Z</time>
      </trkpt>
      <trkpt lat="45.72016" lon="6.45823">
        <ele>584</ele>
        <time>2022-07-23T10:28:18Z</time>
      </trkpt>
      <trkpt lat="45.72015" lon="6.45822">
        <ele>584</ele>
        <time>2022-07-23T10:28:19Z</time>
      </trkpt>
      <trkpt lat="45.72015" lon="6.45821">
        <ele>584</ele>
        <time>2022-07-23T10:28:20Z</time>
      </trkpt>
      <trkpt lat="45.72015" lon="6.45821">
        <ele>584</ele>
        <time>2022-07-23T10:28:21Z</time>
      </trkpt>
      <trkpt lat="45.72015" lon="6.4582">
        <ele>584</ele>
        <time>2022-07-23T10:28:22Z</time>
      </trkpt>
      <trkpt lat="45.72015" lon="6.45818">
        <ele>584</ele>
        <time>2022-07-23T10:28:23Z</time>
      </trkpt>
      <trkpt lat="45.72015" lon="6.45817">
        <ele>584</ele>
        <time>2022-07-23T10:28:24Z</time>
      </trkpt>
      <trkpt lat="45.72015" lon="6.45816">
        <ele>584</ele>
        <time>2022-07-23T10:28:25Z</time>
      </trkpt>
      <trkpt lat="45.72015" lon="6.45815">
        <ele>584</ele>
        <time>2022-07-23T10:28:26Z</time>
      </trkpt>
      <trkpt lat="45.72015" lon="6.45813">
        <ele>584</ele>
        <time>2022-07-23T10:28:27Z</time>
      </trkpt>
      <trkpt lat="45.72015" lon="6.45812">
        <ele>584</ele>
        <time>2022-07-23T10:28:28Z</time>
      </trkpt>
      <trkpt lat="45.72015" lon="6.45811">
        <ele>584</ele>
        <time>2022-07-23T10:28:29Z</time>
      </trkpt>
      <trkpt lat="45.72016" lon="6.45811">
        <ele>584</ele>
        <time>2022-07-23T10:28:30Z</time>
      </trkpt>
      <trkpt lat="45.72016" lon="6.4581">
        <ele>584</ele>
        <time>2022-07-23T10:28:31Z</time>
      </trkpt>
      <trkpt lat="45.72016" lon="6.45809">
        <ele>584</ele>
        <time>2022-07-23T10:28:32Z</time>
      </trkpt>
      <trkpt lat="45.72016" lon="6.45809">
        <ele>584</ele>
        <time>2022-07-23T10:28:33Z</time>
      </trkpt>
      <trkpt lat="45.72017" lon="6.45809">
        <ele>585</ele>
        <time>2022-07-23T10:28:52Z</time>
      </trkpt>
      <trkpt lat="45.72018" lon="6.45809">
        <ele>585</ele>
        <time>2022-07-23T10:28:53Z</time>
      </trkpt>
      <trkpt lat="45.72018" lon="6.45809">
        <ele>585</ele>
        <time>2022-07-23T10:28:54Z</time>
      </trkpt>
      <trkpt lat="45.72019" lon="6.45809">
        <ele>585</ele>
        <time>2022-07-23T10:28:55Z</time>
      </trkpt>
      <trkpt lat="45.7202" lon="6.45809">
        <ele>585</ele>
        <time>2022-07-23T10:28:56Z</time>
      </trkpt>
      <trkpt lat="45.72021" lon="6.4581">
        <ele>585</ele>
        <time>2022-07-23T10:28:57Z</time>
      </trkpt>
      <trkpt lat="45.72023" lon="6.4581">
        <ele>585</ele>
        <time>2022-07-23T10:28:58Z</time>
      </trkpt>
      <trkpt lat="45.72024" lon="6.4581">
        <ele>585</ele>
        <time>2022-07-23T10:28:59Z</time>
      </trkpt>
      <trkpt lat="45.72025" lon="6.45811">
        <ele>585</ele>
        <time>2022-07-23T10:29:00Z</time>
      </trkpt>
      <trkpt lat="45.72027" lon="6.45811">
        <ele>585</ele>
        <time>2022-07-23T10:29:01Z</time>
      </trkpt>
      <trkpt lat="45.72028" lon="6.45812">
        <ele>585</ele>
        <time>2022-07-23T10:29:02Z</time>
      </trkpt>
      <trkpt lat="45.72029" lon="6.45812">
        <ele>585</ele>
        <time>2022-07-23T10:29:03Z</time>
      </trkpt>
      <trkpt lat="45.72031" lon="6.45812">
        <ele>585</ele>
        <time>2022-07-23T10:29:04Z</time>
      </trkpt>
      <trkpt lat="45.72032" lon="6.45812">
        <ele>585</ele>
        <time>2022-07-23T10:29:05Z</time>
      </trkpt>
      <trkpt lat="45.72033" lon="6.45812">
        <ele>585</ele>
        <time>2022-07-23T10:29:06Z</time>
      </trkpt>
      <trkpt lat="45.72033" lon="6.45813">
        <ele>585</ele>
        <time>2022-07-23T10:29:07Z</time>
      </trkpt>
      <trkpt lat="45.72034" lon="6.45813">
        <ele>585</ele>
        <time>2022-07-23T10:29:08Z</time>
      </trkpt>
      <trkpt lat="45.72035" lon="6.45813">
        <ele>585</ele>
        <time>2022-07-23T10:29:09Z</time>
      </trkpt>
      <trkpt lat="45.72036" lon="6.45814">
        <ele>585</ele>
        <time>2022-07-23T10:29:10Z</time>
      </trkpt>
      <trkpt lat="45.72036" lon="6.45814">
        <ele>585</ele>
        <time>2022-07-23T10:29:11Z</time>
      </trkpt>
      <trkpt lat="45.72037" lon="6.45814">
        <ele>585</ele>
        <time>2022-07-23T10:29:12Z</time>
      </trkpt>
      <trkpt lat="45.72037" lon="6.45815">
        <ele>585</ele>
        <time>2022-07-23T10:29:13Z</time>
      </trkpt>
      <trkpt lat="45.72038" lon="6.45815">
        <ele>585</ele>
        <time>2022-07-23T10:29:14Z</time>
      </trkpt>
      <trkpt lat="45.72039" lon="6.45816">
        <ele>586</ele>
        <time>2022-07-23T10:29:15Z</time>
      </trkpt>
      <trkpt lat="45.72039" lon="6.45816">
        <ele>586</ele>
        <time>2022-07-23T10:29:16Z</time>
      </trkpt>
      <trkpt lat="45.7204" lon="6.45817">
        <ele>586</ele>
        <time>2022-07-23T10:29:17Z</time>
      </trkpt>
      <trkpt lat="45.72041" lon="6.45817">
        <ele>586</ele>
        <time>2022-07-23T10:29:18Z</time>
      </trkpt>
      <trkpt lat="45.72041" lon="6.45818">
        <ele>586</ele>
        <time>2022-07-23T10:29:19Z</time>
      </trkpt>
      <trkpt lat="45.72042" lon="6.45818">
        <ele>587</ele>
        <time>2022-07-23T10:29:20Z</time>
      </trkpt>
      <trkpt lat="45.72043" lon="6.45819">
        <ele>587</ele>
        <time>2022-07-23T10:29:21Z</time>
      </trkpt>
      <trkpt lat="45.72043" lon="6.45819">
        <ele>587</ele>
        <time>2022-07-23T10:29:22Z</time>
      </trkpt>
      <trkpt lat="45.72044" lon="6.4582">
        <ele>587</ele>
        <time>2022-07-23T10:29:23Z</time>
      </trkpt>
      <trkpt lat="45.72044" lon="6.45821">
        <ele>587</ele>
        <time>2022-07-23T10:29:24Z</time>
      </trkpt>
      <trkpt lat="45.72045" lon="6.45821">
        <ele>587</ele>
        <time>2022-07-23T10:29:25Z</time>
      </trkpt>
      <trkpt lat="45.72045" lon="6.45822">
        <ele>587</ele>
        <time>2022-07-23T10:29:26Z</time>
      </trkpt>
      <trkpt lat="45.72046" lon="6.45823">
        <ele>587</ele>
        <time>2022-07-23T10:29:27Z</time>
      </trkpt>
      <trkpt lat="45.72046" lon="6.45823">
        <ele>587</ele>
        <time>2022-07-23T10:29:28Z</time>
      </trkpt>
      <trkpt lat="45.72047" lon="6.45824">
        <ele>587</ele>
        <time>2022-07-23T10:29:29Z</time>
      </trkpt>
      <trkpt lat="45.72047" lon="6.45825">
        <ele>588</ele>
        <time>2022-07-23T10:29:30Z</time>
      </trkpt>
      <trkpt lat="45.72048" lon="6.45825">
        <ele>588</ele>
        <time>2022-07-23T10:29:31Z</time>
      </trkpt>
      <trkpt lat="45.72048" lon="6.45826">
        <ele>588</ele>
        <time>2022-07-23T10:29:32Z</time>
      </trkpt>
      <trkpt lat="45.72049" lon="6.45827">
        <ele>588</ele>
        <time>2022-07-23T10:29:33Z</time>
      </trkpt>
      <trkpt lat="45.7205" lon="6.45827">
        <ele>588</ele>
        <time>2022-07-23T10:29:34Z</time>
      </trkpt>
      <trkpt lat="45.7205" lon="6.45828">
        <ele>589</ele>
        <time>2022-07-23T10:29:35Z</time>
      </trkpt>
      <trkpt lat="45.72051" lon="6.45828">
        <ele>589</ele>
        <time>2022-07-23T10:29:36Z</time>
      </trkpt>
      <trkpt lat="45.72052" lon="6.45828">
        <ele>589</ele>
        <time>2022-07-23T10:29:37Z</time>
      </trkpt>
      <trkpt lat="45.72053" lon="6.45828">
        <ele>589</ele>
        <time>2022-07-23T10:29:38Z</time>
      </trkpt>
      <trkpt lat="45.72053" lon="6.45829">
        <ele>589</ele>
        <time>2022-07-23T10:29:39Z</time>
      </trkpt>
      <trkpt lat="45.72054" lon="6.45829">
        <ele>589</ele>
        <time>2022-07-23T10:29:40Z</time>
      </trkpt>
      <trkpt lat="45.72054" lon="6.45829">
        <ele>589</ele>
        <time>2022-07-23T10:29:41Z</time>
      </trkpt>
      <trkpt lat="45.72055" lon="6.4583">
        <ele>589</ele>
        <time>2022-07-23T10:29:42Z</time>
      </trkpt>
      <trkpt lat="45.72056" lon="6.4583">
        <ele>589</ele>
        <time>2022-07-23T10:29:43Z</time>
      </trkpt>
      <trkpt lat="45.72056" lon="6.4583">
        <ele>589</ele>
        <time>2022-07-23T10:29:44Z</time>
      </trkpt>
      <trkpt lat="45.72057" lon="6.45831">
        <ele>590</ele>
        <time>2022-07-23T10:29:45Z</time>
      </trkpt>
      <trkpt lat="45.72058" lon="6.45831">
        <ele>590</ele>
        <time>2022-07-23T10:29:46Z</time>
      </trkpt>
      <trkpt lat="45.72058" lon="6.45832">
        <ele>590</ele>
        <time>2022-07-23T10:29:47Z</time>
      </trkpt>
      <trkpt lat="45.72059" lon="6.45832">
        <ele>590</ele>
        <time>2022-07-23T10:29:48Z</time>
      </trkpt>
      <trkpt lat="45.7206" lon="6.45833">
        <ele>590</ele>
        <time>2022-07-23T10:29:49Z</time>
      </trkpt>
      <trkpt lat="45.72061" lon="6.45833">
        <ele>592</ele>
        <time>2022-07-23T10:30:01Z</time>
      </trkpt>
      <trkpt lat="45.72061" lon="6.45833">
        <ele>592</ele>
        <time>2022-07-23T10:30:02Z</time>
      </trkpt>
      <trkpt lat="45.72062" lon="6.45833">
        <ele>592</ele>
        <time>2022-07-23T10:30:03Z</time>
      </trkpt>
      <trkpt lat="45.72062" lon="6.45832">
        <ele>592</ele>
        <time>2022-07-23T10:30:04Z</time>
      </trkpt>
      <trkpt lat="45.72062" lon="6.45831">
        <ele>592</ele>
        <time>2022-07-23T10:30:05Z</time>
      </trkpt>
      <trkpt lat="45.72063" lon="6.4583">
        <ele>592</ele>
        <time>2022-07-23T10:30:06Z</time>
      </trkpt>
      <trkpt lat="45.72063" lon="6.4583">
        <ele>592</ele>
        <time>2022-07-23T10:30:07Z</time>
      </trkpt>
      <trkpt lat="45.72063" lon="6.45829">
        <ele>592</ele>
        <time>2022-07-23T10:30:08Z</time>
      </trkpt>
      <trkpt lat="45.72063" lon="6.45828">
        <ele>592</ele>
        <time>2022-07-23T10:30:09Z</time>
      </trkpt>
      <trkpt lat="45.72063" lon="6.45827">
        <ele>593</ele>
        <time>2022-07-23T10:30:10Z</time>
      </trkpt>
      <trkpt lat="45.72063" lon="6.45827">
        <ele>593</ele>
        <time>2022-07-23T10:30:11Z</time>
      </trkpt>
      <trkpt lat="45.72063" lon="6.45826">
        <ele>593</ele>
        <time>2022-07-23T10:30:12Z</time>
      </trkpt>
      <trkpt lat="45.72063" lon="6.45825">
        <ele>593</ele>
        <time>2022-07-23T10:30:13Z</time>
      </trkpt>
      <trkpt lat="45.72063" lon="6.45825">
        <ele>593</ele>
        <time>2022-07-23T10:30:14Z</time>
      </trkpt>
      <trkpt lat="45.72063" lon="6.45824">
        <ele>593</ele>
        <time>2022-07-23T10:30:15Z</time>
      </trkpt>
      <trkpt lat="45.72064" lon="6.45823">
        <ele>593</ele>
        <time>2022-07-23T10:30:16Z</time>
      </trkpt>
      <trkpt lat="45.72064" lon="6.45822">
        <ele>593</ele>
        <time>2022-07-23T10:30:17Z</time>
      </trkpt>
      <trkpt lat="45.72064" lon="6.45821">
        <ele>593</ele>
        <time>2022-07-23T10:30:18Z</time>
      </trkpt>
      <trkpt lat="45.72064" lon="6.45821">
        <ele>593</ele>
        <time>2022-07-23T10:30:19Z</time>
      </trkpt>
      <trkpt lat="45.72065" lon="6.4582">
        <ele>594</ele>
        <time>2022-07-23T10:30:20Z</time>
      </trkpt>
      <trkpt lat="45.72065" lon="6.45819">
        <ele>594</ele>
        <time>2022-07-23T10:30:21Z</time>
      </trkpt>
      <trkpt lat="45.72065" lon="6.45818">
        <ele>594</ele>
        <time>2022-07-23T10:30:22Z</time>
      </trkpt>
      <trkpt lat="45.72066" lon="6.45818">
        <ele>594</ele>
        <time>2022-07-23T10:30:23Z</time>
      </trkpt>
      <trkpt lat="45.72066" lon="6.45817">
        <ele>594</ele>
        <time>2022-07-23T10:30:24Z</time>
      </trkpt>
      <trkpt lat="45.72066" lon="6.45817">
        <ele>594</ele>
        <time>2022-07-23T10:30:25Z</time>
      </trkpt>
      <trkpt lat="45.72066" lon="6.45816">
        <ele>594</ele>
        <time>2022-07-23T10:30:26Z</time>
      </trkpt>
      <trkpt lat="45.72067" lon="6.45815">
        <ele>594</ele>
        <time>2022-07-23T10:30:27Z</time>
      </trkpt>
      <trkpt lat="45.72067" lon="6.45815">
        <ele>594</ele>
        <time>2022-07-23T10:30:28Z</time>
      </trkpt>
      <trkpt lat="45.72067" lon="6.45814">
        <ele>594</ele>
        <time>2022-07-23T10:30:29Z</time>
      </trkpt>
      <trkpt lat="45.72068" lon="6.45813">
        <ele>595</ele>
        <time>2022-07-23T10:30:30Z</time>
      </trkpt>
      <trkpt lat="45.72068" lon="6.45812">
        <ele>595</ele>
        <time>2022-07-23T10:30:31Z</time>
      </trkpt>
      <trkpt lat="45.72068" lon="6.45812">
        <ele>595</ele>
        <time>2022-07-23T10:30:32Z</time>
      </trkpt>
      <trkpt lat="45.72068" lon="6.45811">
        <ele>595</ele>
        <time>2022-07-23T10:30:33Z</time>
      </trkpt>
      <trkpt lat="45.72068" lon="6.4581">
        <ele>595</ele>
        <time>2022-07-23T10:30:34Z</time>
      </trkpt>
      <trkpt lat="45.72067" lon="6.45807">
        <ele>599</ele>
        <time>2022-07-23T10:31:21Z</time>
      </trkpt>
      <trkpt lat="45.72067" lon="6.45805">
        <ele>599</ele>
        <time>2022-07-23T10:31:22Z</time>
      </trkpt>
      <trkpt lat="45.72067" lon="6.45804">
        <ele>599</ele>
        <time>2022-07-23T10:31:23Z</time>
      </trkpt>
      <trkpt lat="45.72066" lon="6.45803">
        <ele>599</ele>
        <time>2022-07-23T10:31:24Z</time>
      </trkpt>
      <trkpt lat="45.72066" lon="6.45802">
        <ele>599</ele>
        <time>2022-07-23T10:31:25Z</time>
      </trkpt>
      <trkpt lat="45.72066" lon="6.45802">
        <ele>599</ele>
        <time>2022-07-23T10:31:26Z</time>
      </trkpt>
      <trkpt lat="45.72066" lon="6.45801">
        <ele>599</ele>
        <time>2022-07-23T10:31:27Z</time>
      </trkpt>
      <trkpt lat="45.72065" lon="6.458">
        <ele>599</ele>
        <time>2022-07-23T10:31:28Z</time>
      </trkpt>
      <trkpt lat="45.72065" lon="6.458">
        <ele>599</ele>
        <time>2022-07-23T10:31:29Z</time>
      </trkpt>
      <trkpt lat="45.72065" lon="6.45799">
        <ele>600</ele>
        <time>2022-07-23T10:31:30Z</time>
      </trkpt>
      <trkpt lat="45.72064" lon="6.45799">
        <ele>600</ele>
        <time>2022-07-23T10:31:31Z</time>
      </trkpt>
      <trkpt lat="45.72064" lon="6.45799">
        <ele>600</ele>
        <time>2022-07-23T10:31:32Z</time>
      </trkpt>
      <trkpt lat="45.72064" lon="6.45798">
        <ele>600</ele>
        <time>2022-07-23T10:31:33Z</time>
      </trkpt>
      <trkpt lat="45.72064" lon="6.45798">
        <ele>600</ele>
        <time>2022-07-23T10:31:34Z</time>
      </trkpt>
      <trkpt lat="45.72064" lon="6.45798">
        <ele>601</ele>
        <time>2022-07-23T10:31:35Z</time>
      </trkpt>
      <trkpt lat="45.72063" lon="6.45797">
        <ele>601</ele>
        <time>2022-07-23T10:31:36Z</time>
      </trkpt>
      <trkpt lat="45.72063" lon="6.45796">
        <ele>601</ele>
        <time>2022-07-23T10:31:37Z</time>
      </trkpt>
      <trkpt lat="45.72063" lon="6.45795">
        <ele>601</ele>
        <time>2022-07-23T10:31:38Z</time>
      </trkpt>
      <trkpt lat="45.72063" lon="6.45794">
        <ele>601</ele>
        <time>2022-07-23T10:31:39Z</time>
      </trkpt>
      <trkpt lat="45.72062" lon="6.45794">
        <ele>601</ele>
        <time>2022-07-23T10:31:40Z</time>
      </trkpt>
      <trkpt lat="45.72062" lon="6.45792">
        <ele>601</ele>
        <time>2022-07-23T10:31:41Z</time>
      </trkpt>
      <trkpt lat="45.72062" lon="6.45791">
        <ele>601</ele>
        <time>2022-07-23T10:31:42Z</time>
      </trkpt>
      <trkpt lat="45.72062" lon="6.4579">
        <ele>601</ele>
        <time>2022-07-23T10:31:43Z</time>
      </trkpt>
      <trkpt lat="45.72063" lon="6.45789">
        <ele>601</ele>
        <time>2022-07-23T10:31:44Z</time>
      </trkpt>
      <trkpt lat="45.72063" lon="6.45788">
        <ele>602</ele>
        <time>2022-07-23T10:31:45Z</time>
      </trkpt>
      <trkpt lat="45.72063" lon="6.45786">
        <ele>602</ele>
        <time>2022-07-23T10:31:46Z</time>
      </trkpt>
      <trkpt lat="45.72063" lon="6.45785">
        <ele>602</ele>
        <time>2022-07-23T10:31:47Z</time>
      </trkpt>
      <trkpt lat="45.72064" lon="6.45784">
        <ele>602</ele>
        <time>2022-07-23T10:31:48Z</time>
      </trkpt>
      <trkpt lat="45.72064" lon="6.45782">
        <ele>602</ele>
        <time>2022-07-23T10:31:49Z</time>
      </trkpt>
      <trkpt lat="45.72064" lon="6.45781">
        <ele>603</ele>
        <time>2022-07-23T10:31:50Z</time>
      </trkpt>
      <trkpt lat="45.72064" lon="6.45779">
        <ele>603</ele>
        <time>2022-07-23T10:31:51Z</time>
      </trkpt>
      <trkpt lat="45.72065" lon="6.45778">
        <ele>603</ele>
        <time>2022-07-23T10:31:52Z</time>
      </trkpt>
      <trkpt lat="45.72065" lon="6.45777">
        <ele>603</ele>
        <time>2022-07-23T10:31:53Z</time>
      </trkpt>
      <trkpt lat="45.72065" lon="6.45776">
        <ele>603</ele>
        <time>2022-07-23T10:31:54Z</time>
      </trkpt>
      <trkpt lat="45.72065" lon="6.45774">
        <ele>604</ele>
        <time>2022-07-23T10:31:55Z</time>
      </trkpt>
      <trkpt lat="45.72066" lon="6.45773">
        <ele>604</ele>
        <time>2022-07-23T10:31:56Z</time>
      </trkpt>
      <trkpt lat="45.72066" lon="6.45772">
        <ele>604</ele>
        <time>2022-07-23T10:31:57Z</time>
      </trkpt>
      <trkpt lat="45.72066" lon="6.45771">
        <ele>604</ele>
        <time>2022-07-23T10:31:58Z</time>
      </trkpt>
      <trkpt lat="45.72066" lon="6.4577">
        <ele>604</ele>
        <time>2022-07-23T10:31:59Z</time>
      </trkpt>
      <trkpt lat="45.72066" lon="6.45769">
        <ele>604</ele>
        <time>2022-07-23T10:32:00Z</time>
      </trkpt>
      <trkpt lat="45.72066" lon="6.45769">
        <ele>604</ele>
        <time>2022-07-23T10:32:01Z</time>
      </trkpt>
      <trkpt lat="45.72066" lon="6.45768">
        <ele>604</ele>
        <time>2022-07-23T10:32:02Z</time>
      </trkpt>
      <trkpt lat="45.72066" lon="6.45767">
        <ele>604</ele>
        <time>2022-07-23T10:32:03Z</time>
      </trkpt>
      <trkpt lat="45.72066" lon="6.45766">
        <ele>604</ele>
        <time>2022-07-23T10:32:04Z</time>
      </trkpt>
      <trkpt lat="45.72065" lon="6.45765">
        <ele>605</ele>
        <time>2022-07-23T10:32:05Z</time>
      </trkpt>
      <trkpt lat="45.72065" lon="6.45765">
        <ele>605</ele>
        <time>2022-07-23T10:32:06Z</time>
      </trkpt>
      <trkpt lat="45.72065" lon="6.45764">
        <ele>605</ele>
        <time>2022-07-23T10:32:07Z</time>
      </trkpt>
      <trkpt lat="45.72065" lon="6.45762">
        <ele>605</ele>
        <time>2022-07-23T10:32:14Z</time>
      </trkpt>
      <trkpt lat="45.72064" lon="6.45761">
        <ele>606</ele>
        <time>2022-07-23T10:32:15Z</time>
      </trkpt>
      <trkpt lat="45.72064" lon="6.4576">
        <ele>606</ele>
        <time>2022-07-23T10:32:16Z</time>
      </trkpt>
      <trkpt lat="45.72064" lon="6.45759">
        <ele>606</ele>
        <time>2022-07-23T10:32:17Z</time>
      </trkpt>
      <trkpt lat="45.72064" lon="6.45758">
        <ele>606</ele>
        <time>2022-07-23T10:32:18Z</time>
      </trkpt>
      <trkpt lat="45.72064" lon="6.45757">
        <ele>606</ele>
        <time>2022-07-23T10:32:19Z</time>
      </trkpt>
      <trkpt lat="45.72064" lon="6.45756">
        <ele>606</ele>
        <time>2022-07-23T10:32:20Z</time>
      </trkpt>
      <trkpt lat="45.72063" lon="6.45755">
        <ele>606</ele>
        <time>2022-07-23T10:32:21Z</time>
      </trkpt>
      <trkpt lat="45.72063" lon="6.45753">
        <ele>606</ele>
        <time>2022-07-23T10:32:22Z</time>
      </trkpt>
      <trkpt lat="45.72063" lon="6.45753">
        <ele>606</ele>
        <time>2022-07-23T10:32:23Z</time>
      </trkpt>
      <trkpt lat="45.72062" lon="6.45752">
        <ele>606</ele>
        <time>2022-07-23T10:32:24Z</time>
      </trkpt>
      <trkpt lat="45.72061" lon="6.45751">
        <ele>607</ele>
        <time>2022-07-23T10:32:25Z</time>
      </trkpt>
      <trkpt lat="45.72061" lon="6.4575">
        <ele>607</ele>
        <time>2022-07-23T10:32:26Z</time>
      </trkpt>
      <trkpt lat="45.7206" lon="6.45749">
        <ele>607</ele>
        <time>2022-07-23T10:32:27Z</time>
      </trkpt>
      <trkpt lat="45.7206" lon="6.45749">
        <ele>607</ele>
        <time>2022-07-23T10:32:28Z</time>
      </trkpt>
      <trkpt lat="45.7206" lon="6.45748">
        <ele>607</ele>
        <time>2022-07-23T10:32:29Z</time>
      </trkpt>
      <trkpt lat="45.72059" lon="6.45747">
        <ele>608</ele>
        <time>2022-07-23T10:32:30Z</time>
      </trkpt>
      <trkpt lat="45.72059" lon="6.45747">
        <ele>608</ele>
        <time>2022-07-23T10:32:31Z</time>
      </trkpt>
      <trkpt lat="45.72059" lon="6.45746">
        <ele>608</ele>
        <time>2022-07-23T10:32:32Z</time>
      </trkpt>
      <trkpt lat="45.72059" lon="6.45745">
        <ele>608</ele>
        <time>2022-07-23T10:32:33Z</time>
      </trkpt>
      <trkpt lat="45.72059" lon="6.45745">
        <ele>608</ele>
        <time>2022-07-23T10:32:34Z</time>
      </trkpt>
      <trkpt lat="45.72059" lon="6.45744">
        <ele>608</ele>
        <time>2022-07-23T10:32:35Z</time>
      </trkpt>
      <trkpt lat="45.72058" lon="6.45743">
        <ele>608</ele>
        <time>2022-07-23T10:32:36Z</time>
      </trkpt>
      <trkpt lat="45.72058" lon="6.45742">
        <ele>608</ele>
        <time>2022-07-23T10:32:37Z</time>
      </trkpt>
      <trkpt lat="45.72058" lon="6.45741">
        <ele>609</ele>
        <time>2022-07-23T10:32:38Z</time>
      </trkpt>
      <trkpt lat="45.72058" lon="6.4574">
        <ele>609</ele>
        <time>2022-07-23T10:32:39Z</time>
      </trkpt>
      <trkpt lat="45.72058" lon="6.45739">
        <ele>610</ele>
        <time>2022-07-23T10:32:40Z</time>
      </trkpt>
      <trkpt lat="45.72059" lon="6.45737">
        <ele>610</ele>
        <time>2022-07-23T10:32:41Z</time>
      </trkpt>
      <trkpt lat="45.72059" lon="6.45736">
        <ele>610</ele>
        <time>2022-07-23T10:32:42Z</time>
      </trkpt>
      <trkpt lat="45.72059" lon="6.45735">
        <ele>610</ele>
        <time>2022-07-23T10:32:43Z</time>
      </trkpt>
      <trkpt lat="45.72059" lon="6.45735">
        <ele>610</ele>
        <time>2022-07-23T10:32:44Z</time>
      </trkpt>
      <trkpt lat="45.72059" lon="6.45734">
        <ele>610</ele>
        <time>2022-07-23T10:32:45Z</time>
      </trkpt>
      <trkpt lat="45.72059" lon="6.45733">
        <ele>610</ele>
        <time>2022-07-23T10:32:46Z</time>
      </trkpt>
      <trkpt lat="45.72059" lon="6.45732">
        <ele>610</ele>
        <time>2022-07-23T10:32:47Z</time>
      </trkpt>
      <trkpt lat="45.72059" lon="6.45732">
        <ele>610</ele>
        <time>2022-07-23T10:32:48Z</time>
      </trkpt>
      <trkpt lat="45.72059" lon="6.4573">
        <ele>610</ele>
        <time>2022-07-23T10:32:49Z</time>
      </trkpt>
      <trkpt lat="45.72059" lon="6.45729">
        <ele>611</ele>
        <time>2022-07-23T10:32:50Z</time>
      </trkpt>
      <trkpt lat="45.72059" lon="6.45728">
        <ele>611</ele>
        <time>2022-07-23T10:32:51Z</time>
      </trkpt>
      <trkpt lat="45.72059" lon="6.45727">
        <ele>611</ele>
        <time>2022-07-23T10:32:52Z</time>
      </trkpt>
      <trkpt lat="45.72059" lon="6.45727">
        <ele>611</ele>
        <time>2022-07-23T10:32:53Z</time>
      </trkpt>
      <trkpt lat="45.72059" lon="6.45726">
        <ele>611</ele>
        <time>2022-07-23T10:32:54Z</time>
      </trkpt>
      <trkpt lat="45.72059" lon="6.45725">
        <ele>612</ele>
        <time>2022-07-23T10:32:55Z</time>
      </trkpt>
      <trkpt lat="45.72059" lon="6.45724">
        <ele>612</ele>
        <time>2022-07-23T10:32:56Z</time>
      </trkpt>
      <trkpt lat="45.72058" lon="6.45723">
        <ele>612</ele>
        <time>2022-07-23T10:32:57Z</time>
      </trkpt>
      <trkpt lat="45.72058" lon="6.45722">
        <ele>612</ele>
        <time>2022-07-23T10:32:58Z</time>
      </trkpt>
      <trkpt lat="45.72058" lon="6.45722">
        <ele>612</ele>
        <time>2022-07-23T10:32:59Z</time>
      </trkpt>
      <trkpt lat="45.72058" lon="6.45721">
        <ele>613</ele>
        <time>2022-07-23T10:33:00Z</time>
      </trkpt>
      <trkpt lat="45.72058" lon="6.4572">
        <ele>613</ele>
        <time>2022-07-23T10:33:01Z</time>
      </trkpt>
      <trkpt lat="45.72058" lon="6.45719">
        <ele>613</ele>
        <time>2022-07-23T10:33:02Z</time>
      </trkpt>
      <trkpt lat="45.72058" lon="6.45718">
        <ele>613</ele>
        <time>2022-07-23T10:33:03Z</time>
      </trkpt>
      <trkpt lat="45.72058" lon="6.45717">
        <ele>613</ele>
        <time>2022-07-23T10:33:04Z</time>
      </trkpt>
      <trkpt lat="45.72058" lon="6.45716">
        <ele>613</ele>
        <time>2022-07-23T10:33:05Z</time>
      </trkpt>
      <trkpt lat="45.72058" lon="6.45716">
        <ele>613</ele>
        <time>2022-07-23T10:33:06Z</time>
      </trkpt>
      <trkpt lat="45.72058" lon="6.45715">
        <ele>613</ele>
        <time>2022-07-23T10:33:07Z</time>
      </trkpt>
      <trkpt lat="45.72059" lon="6.45714">
        <ele>613</ele>
        <time>2022-07-23T10:33:08Z</time>
      </trkpt>
      <trkpt lat="45.72059" lon="6.45712">
        <ele>614</ele>
        <time>2022-07-23T10:33:14Z</time>
      </trkpt>
      <trkpt lat="45.72059" lon="6.45711">
        <ele>615</ele>
        <time>2022-07-23T10:33:15Z</time>
      </trkpt>
      <trkpt lat="45.72059" lon="6.4571">
        <ele>615</ele>
        <time>2022-07-23T10:33:16Z</time>
      </trkpt>
      <trkpt lat="45.72059" lon="6.45709">
        <ele>615</ele>
        <time>2022-07-23T10:33:17Z</time>
      </trkpt>
      <trkpt lat="45.72059" lon="6.45708">
        <ele>615</ele>
        <time>2022-07-23T10:33:18Z</time>
      </trkpt>
      <trkpt lat="45.7206" lon="6.45707">
        <ele>615</ele>
        <time>2022-07-23T10:33:19Z</time>
      </trkpt>
      <trkpt lat="45.7206" lon="6.45707">
        <ele>615</ele>
        <time>2022-07-23T10:33:20Z</time>
      </trkpt>
      <trkpt lat="45.7206" lon="6.45706">
        <ele>615</ele>
        <time>2022-07-23T10:33:21Z</time>
      </trkpt>
      <trkpt lat="45.72061" lon="6.45706">
        <ele>615</ele>
        <time>2022-07-23T10:33:22Z</time>
      </trkpt>
      <trkpt lat="45.72061" lon="6.45705">
        <ele>615</ele>
        <time>2022-07-23T10:33:23Z</time>
      </trkpt>
      <trkpt lat="45.72061" lon="6.45705">
        <ele>615</ele>
        <time>2022-07-23T10:33:24Z</time>
      </trkpt>
      <trkpt lat="45.72062" lon="6.45704">
        <ele>616</ele>
        <time>2022-07-23T10:33:25Z</time>
      </trkpt>
      <trkpt lat="45.72062" lon="6.45704">
        <ele>616</ele>
        <time>2022-07-23T10:33:26Z</time>
      </trkpt>
      <trkpt lat="45.72063" lon="6.45704">
        <ele>616</ele>
        <time>2022-07-23T10:33:27Z</time>
      </trkpt>
      <trkpt lat="45.72063" lon="6.45703">
        <ele>616</ele>
        <time>2022-07-23T10:33:28Z</time>
      </trkpt>
      <trkpt lat="45.72064" lon="6.45703">
        <ele>616</ele>
        <time>2022-07-23T10:33:29Z</time>
      </trkpt>
      <trkpt lat="45.72064" lon="6.45702">
        <ele>616</ele>
        <time>2022-07-23T10:33:30Z</time>
      </trkpt>
      <trkpt lat="45.72065" lon="6.45702">
        <ele>616</ele>
        <time>2022-07-23T10:33:31Z</time>
      </trkpt>
      <trkpt lat="45.72065" lon="6.45702">
        <ele>616</ele>
        <time>2022-07-23T10:33:32Z</time>
      </trkpt>
      <trkpt lat="45.72065" lon="6.45701">
        <ele>616</ele>
        <time>2022-07-23T10:33:33Z</time>
      </trkpt>
      <trkpt lat="45.72066" lon="6.45701">
        <ele>616</ele>
        <time>2022-07-23T10:33:34Z</time>
      </trkpt>
      <trkpt lat="45.72066" lon="6.457">
        <ele>617</ele>
        <time>2022-07-23T10:33:35Z</time>
      </trkpt>
      <trkpt lat="45.72067" lon="6.457">
        <ele>617</ele>
        <time>2022-07-23T10:33:36Z</time>
      </trkpt>
      <trkpt lat="45.72068" lon="6.45699">
        <ele>617</ele>
        <time>2022-07-23T10:33:37Z</time>
      </trkpt>
      <trkpt lat="45.72068" lon="6.45699">
        <ele>617</ele>
        <time>2022-07-23T10:33:38Z</time>
      </trkpt>
      <trkpt lat="45.72069" lon="6.45698">
        <ele>617</ele>
        <time>2022-07-23T10:33:39Z</time>
      </trkpt>
      <trkpt lat="45.72069" lon="6.45698">
        <ele>618</ele>
        <time>2022-07-23T10:33:40Z</time>
      </trkpt>
      <trkpt lat="45.7207" lon="6.45698">
        <ele>618</ele>
        <time>2022-07-23T10:33:41Z</time>
      </trkpt>
      <trkpt lat="45.7207" lon="6.45697">
        <ele>618</ele>
        <time>2022-07-23T10:33:42Z</time>
      </trkpt>
      <trkpt lat="45.72071" lon="6.45697">
        <ele>618</ele>
        <time>2022-07-23T10:33:43Z</time>
      </trkpt>
      <trkpt lat="45.72072" lon="6.45697">
        <ele>618</ele>
        <time>2022-07-23T10:33:44Z</time>
      </trkpt>
      <trkpt lat="45.72073" lon="6.45696">
        <ele>618</ele>
        <time>2022-07-23T10:33:45Z</time>
      </trkpt>
      <trkpt lat="45.72073" lon="6.45696">
        <ele>618</ele>
        <time>2022-07-23T10:33:46Z</time>
      </trkpt>
      <trkpt lat="45.72074" lon="6.45695">
        <ele>618</ele>
        <time>2022-07-23T10:33:47Z</time>
      </trkpt>
      <trkpt lat="45.72074" lon="6.45695">
        <ele>618</ele>
        <time>2022-07-23T10:33:48Z</time>
      </trkpt>
      <trkpt lat="45.72075" lon="6.45694">
        <ele>618</ele>
        <time>2022-07-23T10:33:49Z</time>
      </trkpt>
      <trkpt lat="45.72076" lon="6.45694">
        <ele>619</ele>
        <time>2022-07-23T10:33:50Z</time>
      </trkpt>
      <trkpt lat="45.72076" lon="6.45693">
        <ele>619</ele>
        <time>2022-07-23T10:33:51Z</time>
      </trkpt>
      <trkpt lat="45.72077" lon="6.45693">
        <ele>619</ele>
        <time>2022-07-23T10:33:52Z</time>
      </trkpt>
      <trkpt lat="45.72077" lon="6.45692">
        <ele>619</ele>
        <time>2022-07-23T10:33:53Z</time>
      </trkpt>
      <trkpt lat="45.72078" lon="6.45692">
        <ele>619</ele>
        <time>2022-07-23T10:33:54Z</time>
      </trkpt>
      <trkpt lat="45.72078" lon="6.45691">
        <ele>619</ele>
        <time>2022-07-23T10:33:55Z</time>
      </trkpt>
      <trkpt lat="45.7208" lon="6.4569">
        <ele>621</ele>
        <time>2022-07-23T10:34:06Z</time>
      </trkpt>
      <trkpt lat="45.7208" lon="6.45689">
        <ele>621</ele>
        <time>2022-07-23T10:34:07Z</time>
      </trkpt>
      <trkpt lat="45.72081" lon="6.45689">
        <ele>621</ele>
        <time>2022-07-23T10:34:08Z</time>
      </trkpt>
      <trkpt lat="45.72083" lon="6.45688">
        <ele>621</ele>
        <time>2022-07-23T10:34:17Z</time>
      </trkpt>
      <trkpt lat="45.72083" lon="6.45688">
        <ele>621</ele>
        <time>2022-07-23T10:34:18Z</time>
      </trkpt>
      <trkpt lat="45.72084" lon="6.45688">
        <ele>621</ele>
        <time>2022-07-23T10:34:19Z</time>
      </trkpt>
      <trkpt lat="45.72085" lon="6.45687">
        <ele>621</ele>
        <time>2022-07-23T10:34:20Z</time>
      </trkpt>
      <trkpt lat="45.72085" lon="6.45686">
        <ele>621</ele>
        <time>2022-07-23T10:34:21Z</time>
      </trkpt>
      <trkpt lat="45.72086" lon="6.45686">
        <ele>621</ele>
        <time>2022-07-23T10:34:22Z</time>
      </trkpt>
      <trkpt lat="45.72087" lon="6.45685">
        <ele>621</ele>
        <time>2022-07-23T10:34:23Z</time>
      </trkpt>
      <trkpt lat="45.72088" lon="6.45684">
        <ele>621</ele>
        <time>2022-07-23T10:34:24Z</time>
      </trkpt>
      <trkpt lat="45.72088" lon="6.45683">
        <ele>621</ele>
        <time>2022-07-23T10:34:25Z</time>
      </trkpt>
      <trkpt lat="45.72089" lon="6.45682">
        <ele>621</ele>
        <time>2022-07-23T10:34:26Z</time>
      </trkpt>
      <trkpt lat="45.72089" lon="6.45681">
        <ele>621</ele>
        <time>2022-07-23T10:34:27Z</time>
      </trkpt>
      <trkpt lat="45.7209" lon="6.4568">
        <ele>621</ele>
        <time>2022-07-23T10:34:28Z</time>
      </trkpt>
      <trkpt lat="45.7209" lon="6.45679">
        <ele>621</ele>
        <time>2022-07-23T10:34:29Z</time>
      </trkpt>
      <trkpt lat="45.72091" lon="6.45678">
        <ele>622</ele>
        <time>2022-07-23T10:34:30Z</time>
      </trkpt>
      <trkpt lat="45.72091" lon="6.45677">
        <ele>622</ele>
        <time>2022-07-23T10:34:31Z</time>
      </trkpt>
      <trkpt lat="45.72092" lon="6.45675">
        <ele>622</ele>
        <time>2022-07-23T10:34:32Z</time>
      </trkpt>
      <trkpt lat="45.72092" lon="6.45674">
        <ele>622</ele>
        <time>2022-07-23T10:34:33Z</time>
      </trkpt>
      <trkpt lat="45.72092" lon="6.45673">
        <ele>622</ele>
        <time>2022-07-23T10:34:34Z</time>
      </trkpt>
      <trkpt lat="45.72092" lon="6.45672">
        <ele>622</ele>
        <time>2022-07-23T10:34:35Z</time>
      </trkpt>
      <trkpt lat="45.72093" lon="6.4567">
        <ele>622</ele>
        <time>2022-07-23T10:34:36Z</time>
      </trkpt>
      <trkpt lat="45.72093" lon="6.45669">
        <ele>622</ele>
        <time>2022-07-23T10:34:37Z</time>
      </trkpt>
      <trkpt lat="45.72093" lon="6.45668">
        <ele>622</ele>
        <time>2022-07-23T10:34:38Z</time>
      </trkpt>
      <trkpt lat="45.72093" lon="6.45666">
        <ele>622</ele>
        <time>2022-07-23T10:34:39Z</time>
      </trkpt>
      <trkpt lat="45.72093" lon="6.45665">
        <ele>623</ele>
        <time>2022-07-23T10:34:40Z</time>
      </trkpt>
      <trkpt lat="45.72093" lon="6.45664">
        <ele>623</ele>
        <time>2022-07-23T10:34:41Z</time>
      </trkpt>
      <trkpt lat="45.72093" lon="6.45662">
        <ele>623</ele>
        <time>2022-07-23T10:34:42Z</time>
      </trkpt>
      <trkpt lat="45.72093" lon="6.45661">
        <ele>623</ele>
        <time>2022-07-23T10:34:43Z</time>
      </trkpt>
      <trkpt lat="45.72093" lon="6.4566">
        <ele>623</ele>
        <time>2022-07-23T10:34:44Z</time>
      </trkpt>
      <trkpt lat="45.72093" lon="6.45659">
        <ele>623</ele>
        <time>2022-07-23T10:34:45Z</time>
      </trkpt>
      <trkpt lat="45.72093" lon="6.45658">
        <ele>623</ele>
        <time>2022-07-23T10:34:46Z</time>
      </trkpt>
      <trkpt lat="45.72093" lon="6.45657">
        <ele>623</ele>
        <time>2022-07-23T10:34:47Z</time>
      </trkpt>
      <trkpt lat="45.72092" lon="6.45656">
        <ele>623</ele>
        <time>2022-07-23T10:34:48Z</time>
      </trkpt>
      <trkpt lat="45.72092" lon="6.45655">
        <ele>623</ele>
        <time>2022-07-23T10:34:49Z</time>
      </trkpt>
      <trkpt lat="45.72092" lon="6.45654">
        <ele>624</ele>
        <time>2022-07-23T10:34:50Z</time>
      </trkpt>
      <trkpt lat="45.72092" lon="6.45653">
        <ele>624</ele>
        <time>2022-07-23T10:34:51Z</time>
      </trkpt>
      <trkpt lat="45.72092" lon="6.45652">
        <ele>624</ele>
        <time>2022-07-23T10:34:52Z</time>
      </trkpt>
      <trkpt lat="45.72092" lon="6.4565">
        <ele>624</ele>
        <time>2022-07-23T10:34:53Z</time>
      </trkpt>
      <trkpt lat="45.72092" lon="6.45649">
        <ele>624</ele>
        <time>2022-07-23T10:34:54Z</time>
      </trkpt>
      <trkpt lat="45.72092" lon="6.45648">
        <ele>624</ele>
        <time>2022-07-23T10:34:55Z</time>
      </trkpt>
      <trkpt lat="45.72092" lon="6.45647">
        <ele>624</ele>
        <time>2022-07-23T10:34:56Z</time>
      </trkpt>
      <trkpt lat="45.72092" lon="6.45645">
        <ele>624</ele>
        <time>2022-07-23T10:34:57Z</time>
      </trkpt>
      <trkpt lat="45.72091" lon="6.45644">
        <ele>624</ele>
        <time>2022-07-23T10:34:58Z</time>
      </trkpt>
      <trkpt lat="45.72091" lon="6.45643">
        <ele>624</ele>
        <time>2022-07-23T10:34:59Z</time>
      </trkpt>
      <trkpt lat="45.72091" lon="6.45642">
        <ele>624</ele>
        <time>2022-07-23T10:35:00Z</time>
      </trkpt>
      <trkpt lat="45.72091" lon="6.45641">
        <ele>624</ele>
        <time>2022-07-23T10:35:01Z</time>
      </trkpt>
      <trkpt lat="45.72091" lon="6.4564">
        <ele>624</ele>
        <time>2022-07-23T10:35:02Z</time>
      </trkpt>
      <trkpt lat="45.7209" lon="6.45639">
        <ele>624</ele>
        <time>2022-07-23T10:35:03Z</time>
      </trkpt>
      <trkpt lat="45.7209" lon="6.45638">
        <ele>624</ele>
        <time>2022-07-23T10:35:04Z</time>
      </trkpt>
      <trkpt lat="45.7209" lon="6.45637">
        <ele>625</ele>
        <time>2022-07-23T10:35:05Z</time>
      </trkpt>
      <trkpt lat="45.7209" lon="6.45636">
        <ele>625</ele>
        <time>2022-07-23T10:35:06Z</time>
      </trkpt>
      <trkpt lat="45.72089" lon="6.45634">
        <ele>625</ele>
        <time>2022-07-23T10:35:07Z</time>
      </trkpt>
      <trkpt lat="45.72089" lon="6.45633">
        <ele>625</ele>
        <time>2022-07-23T10:35:08Z</time>
      </trkpt>
      <trkpt lat="45.72089" lon="6.45632">
        <ele>625</ele>
        <time>2022-07-23T10:35:09Z</time>
      </trkpt>
      <trkpt lat="45.72089" lon="6.4563">
        <ele>625</ele>
        <time>2022-07-23T10:35:10Z</time>
      </trkpt>
      <trkpt lat="45.72088" lon="6.45629">
        <ele>625</ele>
        <time>2022-07-23T10:35:11Z</time>
      </trkpt>
      <trkpt lat="45.72088" lon="6.45628">
        <ele>625</ele>
        <time>2022-07-23T10:35:12Z</time>
      </trkpt>
      <trkpt lat="45.72088" lon="6.45626">
        <ele>625</ele>
        <time>2022-07-23T10:35:13Z</time>
      </trkpt>
      <trkpt lat="45.72088" lon="6.45625">
        <ele>625</ele>
        <time>2022-07-23T10:35:14Z</time>
      </trkpt>
      <trkpt lat="45.72087" lon="6.45624">
        <ele>625</ele>
        <time>2022-07-23T10:35:15Z</time>
      </trkpt>
      <trkpt lat="45.72087" lon="6.45622">
        <ele>625</ele>
        <time>2022-07-23T10:35:16Z</time>
      </trkpt>
      <trkpt lat="45.72087" lon="6.45621">
        <ele>625</ele>
        <time>2022-07-23T10:35:17Z</time>
      </trkpt>
      <trkpt lat="45.72086" lon="6.45619">
        <ele>625</ele>
        <time>2022-07-23T10:35:18Z</time>
      </trkpt>
      <trkpt lat="45.72086" lon="6.45618">
        <ele>625</ele>
        <time>2022-07-23T10:35:19Z</time>
      </trkpt>
      <trkpt lat="45.72085" lon="6.45617">
        <ele>625</ele>
        <time>2022-07-23T10:35:20Z</time>
      </trkpt>
      <trkpt lat="45.72085" lon="6.45616">
        <ele>625</ele>
        <time>2022-07-23T10:35:21Z</time>
      </trkpt>
      <trkpt lat="45.72084" lon="6.45614">
        <ele>625</ele>
        <time>2022-07-23T10:35:22Z</time>
      </trkpt>
      <trkpt lat="45.72084" lon="6.45613">
        <ele>625</ele>
        <time>2022-07-23T10:35:23Z</time>
      </trkpt>
      <trkpt lat="45.72083" lon="6.45612">
        <ele>625</ele>
        <time>2022-07-23T10:35:24Z</time>
      </trkpt>
      <trkpt lat="45.72083" lon="6.45611">
        <ele>625</ele>
        <time>2022-07-23T10:35:25Z</time>
      </trkpt>
      <trkpt lat="45.72082" lon="6.4561">
        <ele>625</ele>
        <time>2022-07-23T10:35:26Z</time>
      </trkpt>
      <trkpt lat="45.72082" lon="6.45609">
        <ele>625</ele>
        <time>2022-07-23T10:35:27Z</time>
      </trkpt>
      <trkpt lat="45.72081" lon="6.45608">
        <ele>625</ele>
        <time>2022-07-23T10:35:28Z</time>
      </trkpt>
      <trkpt lat="45.72081" lon="6.45607">
        <ele>625</ele>
        <time>2022-07-23T10:35:29Z</time>
      </trkpt>
      <trkpt lat="45.72081" lon="6.45605">
        <ele>625</ele>
        <time>2022-07-23T10:35:30Z</time>
      </trkpt>
      <trkpt lat="45.7208" lon="6.45604">
        <ele>625</ele>
        <time>2022-07-23T10:35:31Z</time>
      </trkpt>
      <trkpt lat="45.7208" lon="6.45603">
        <ele>625</ele>
        <time>2022-07-23T10:35:32Z</time>
      </trkpt>
      <trkpt lat="45.7208" lon="6.45602">
        <ele>625</ele>
        <time>2022-07-23T10:35:33Z</time>
      </trkpt>
      <trkpt lat="45.7208" lon="6.456">
        <ele>625</ele>
        <time>2022-07-23T10:35:34Z</time>
      </trkpt>
      <trkpt lat="45.7208" lon="6.45599">
        <ele>626</ele>
        <time>2022-07-23T10:35:35Z</time>
      </trkpt>
      <trkpt lat="45.7208" lon="6.45597">
        <ele>626</ele>
        <time>2022-07-23T10:35:36Z</time>
      </trkpt>
      <trkpt lat="45.72079" lon="6.45596">
        <ele>626</ele>
        <time>2022-07-23T10:35:37Z</time>
      </trkpt>
      <trkpt lat="45.72079" lon="6.45594">
        <ele>626</ele>
        <time>2022-07-23T10:35:38Z</time>
      </trkpt>
      <trkpt lat="45.72079" lon="6.45593">
        <ele>626</ele>
        <time>2022-07-23T10:35:39Z</time>
      </trkpt>
      <trkpt lat="45.72079" lon="6.45592">
        <ele>626</ele>
        <time>2022-07-23T10:35:40Z</time>
      </trkpt>
      <trkpt lat="45.72079" lon="6.4559">
        <ele>626</ele>
        <time>2022-07-23T10:35:41Z</time>
      </trkpt>
      <trkpt lat="45.72078" lon="6.45589">
        <ele>626</ele>
        <time>2022-07-23T10:35:42Z</time>
      </trkpt>
      <trkpt lat="45.72078" lon="6.45588">
        <ele>626</ele>
        <time>2022-07-23T10:35:43Z</time>
      </trkpt>
      <trkpt lat="45.72078" lon="6.45586">
        <ele>626</ele>
        <time>2022-07-23T10:35:44Z</time>
      </trkpt>
      <trkpt lat="45.72078" lon="6.45585">
        <ele>626</ele>
        <time>2022-07-23T10:35:45Z</time>
      </trkpt>
      <trkpt lat="45.72078" lon="6.45584">
        <ele>626</ele>
        <time>2022-07-23T10:35:46Z</time>
      </trkpt>
      <trkpt lat="45.72077" lon="6.45583">
        <ele>626</ele>
        <time>2022-07-23T10:35:47Z</time>
      </trkpt>
      <trkpt lat="45.72077" lon="6.45581">
        <ele>626</ele>
        <time>2022-07-23T10:35:48Z</time>
      </trkpt>
      <trkpt lat="45.72077" lon="6.4558">
        <ele>626</ele>
        <time>2022-07-23T10:35:49Z</time>
      </trkpt>
      <trkpt lat="45.72077" lon="6.45579">
        <ele>626</ele>
        <time>2022-07-23T10:35:50Z</time>
      </trkpt>
      <trkpt lat="45.72076" lon="6.45577">
        <ele>626</ele>
        <time>2022-07-23T10:35:51Z</time>
      </trkpt>
      <trkpt lat="45.72076" lon="6.45577">
        <ele>626</ele>
        <time>2022-07-23T10:35:52Z</time>
      </trkpt>
      <trkpt lat="45.72076" lon="6.45577">
        <ele>627</ele>
        <time>2022-07-23T10:35:53Z</time>
      </trkpt>
      <trkpt lat="45.72076" lon="6.45576">
        <ele>627</ele>
        <time>2022-07-23T10:35:54Z</time>
      </trkpt>
      <trkpt lat="45.72076" lon="6.45575">
        <ele>628</ele>
        <time>2022-07-23T10:35:55Z</time>
      </trkpt>
      <trkpt lat="45.72076" lon="6.45574">
        <ele>628</ele>
        <time>2022-07-23T10:35:56Z</time>
      </trkpt>
      <trkpt lat="45.72077" lon="6.45573">
        <ele>628</ele>
        <time>2022-07-23T10:35:57Z</time>
      </trkpt>
      <trkpt lat="45.72077" lon="6.45572">
        <ele>628</ele>
        <time>2022-07-23T10:35:58Z</time>
      </trkpt>
      <trkpt lat="45.72077" lon="6.45571">
        <ele>628</ele>
        <time>2022-07-23T10:35:59Z</time>
      </trkpt>
      <trkpt lat="45.72078" lon="6.4557">
        <ele>629</ele>
        <time>2022-07-23T10:36:00Z</time>
      </trkpt>
      <trkpt lat="45.72078" lon="6.45568">
        <ele>629</ele>
        <time>2022-07-23T10:36:01Z</time>
      </trkpt>
      <trkpt lat="45.72078" lon="6.45567">
        <ele>629</ele>
        <time>2022-07-23T10:36:02Z</time>
      </trkpt>
      <trkpt lat="45.72078" lon="6.45566">
        <ele>629</ele>
        <time>2022-07-23T10:36:03Z</time>
      </trkpt>
      <trkpt lat="45.72078" lon="6.45565">
        <ele>629</ele>
        <time>2022-07-23T10:36:04Z</time>
      </trkpt>
      <trkpt lat="45.72078" lon="6.45564">
        <ele>629</ele>
        <time>2022-07-23T10:36:05Z</time>
      </trkpt>
      <trkpt lat="45.72078" lon="6.45563">
        <ele>629</ele>
        <time>2022-07-23T10:36:06Z</time>
      </trkpt>
      <trkpt lat="45.72077" lon="6.45561">
        <ele>629</ele>
        <time>2022-07-23T10:36:07Z</time>
      </trkpt>
      <trkpt lat="45.72077" lon="6.4556">
        <ele>629</ele>
        <time>2022-07-23T10:36:08Z</time>
      </trkpt>
      <trkpt lat="45.72077" lon="6.45559">
        <ele>629</ele>
        <time>2022-07-23T10:36:09Z</time>
      </trkpt>
      <trkpt lat="45.72077" lon="6.45557">
        <ele>629</ele>
        <time>2022-07-23T10:36:10Z</time>
      </trkpt>
      <trkpt lat="45.72077" lon="6.45556">
        <ele>629</ele>
        <time>2022-07-23T10:36:11Z</time>
      </trkpt>
      <trkpt lat="45.72077" lon="6.45555">
        <ele>629</ele>
        <time>2022-07-23T10:36:12Z</time>
      </trkpt>
      <trkpt lat="45.72077" lon="6.45553">
        <ele>629</ele>
        <time>2022-07-23T10:36:13Z</time>
      </trkpt>
      <trkpt lat="45.72076" lon="6.45552">
        <ele>629</ele>
        <time>2022-07-23T10:36:14Z</time>
      </trkpt>
      <trkpt lat="45.72076" lon="6.45551">
        <ele>630</ele>
        <time>2022-07-23T10:36:15Z</time>
      </trkpt>
      <trkpt lat="45.72076" lon="6.45549">
        <ele>630</ele>
        <time>2022-07-23T10:36:16Z</time>
      </trkpt>
      <trkpt lat="45.72076" lon="6.45548">
        <ele>630</ele>
        <time>2022-07-23T10:36:17Z</time>
      </trkpt>
      <trkpt lat="45.72077" lon="6.45547">
        <ele>630</ele>
        <time>2022-07-23T10:36:18Z</time>
      </trkpt>
      <trkpt lat="45.72077" lon="6.45546">
        <ele>630</ele>
        <time>2022-07-23T10:36:19Z</time>
      </trkpt>
      <trkpt lat="45.72077" lon="6.45545">
        <ele>630</ele>
        <time>2022-07-23T10:36:20Z</time>
      </trkpt>
      <trkpt lat="45.72078" lon="6.45544">
        <ele>630</ele>
        <time>2022-07-23T10:36:21Z</time>
      </trkpt>
      <trkpt lat="45.72078" lon="6.45543">
        <ele>630</ele>
        <time>2022-07-23T10:36:22Z</time>
      </trkpt>
      <trkpt lat="45.72079" lon="6.45542">
        <ele>630</ele>
        <time>2022-07-23T10:36:23Z</time>
      </trkpt>
      <trkpt lat="45.72079" lon="6.45541">
        <ele>630</ele>
        <time>2022-07-23T10:36:24Z</time>
      </trkpt>
      <trkpt lat="45.72079" lon="6.4554">
        <ele>630</ele>
        <time>2022-07-23T10:36:25Z</time>
      </trkpt>
      <trkpt lat="45.7208" lon="6.45539">
        <ele>630</ele>
        <time>2022-07-23T10:36:26Z</time>
      </trkpt>
      <trkpt lat="45.7208" lon="6.45538">
        <ele>630</ele>
        <time>2022-07-23T10:36:27Z</time>
      </trkpt>
      <trkpt lat="45.7208" lon="6.45537">
        <ele>630</ele>
        <time>2022-07-23T10:36:28Z</time>
      </trkpt>
      <trkpt lat="45.72081" lon="6.45536">
        <ele>630</ele>
        <time>2022-07-23T10:36:29Z</time>
      </trkpt>
      <trkpt lat="45.72081" lon="6.45535">
        <ele>631</ele>
        <time>2022-07-23T10:36:30Z</time>
      </trkpt>
      <trkpt lat="45.72082" lon="6.45534">
        <ele>631</ele>
        <time>2022-07-23T10:36:31Z</time>
      </trkpt>
      <trkpt lat="45.72083" lon="6.45533">
        <ele>631</ele>
        <time>2022-07-23T10:36:32Z</time>
      </trkpt>
      <trkpt lat="45.72083" lon="6.45532">
        <ele>631</ele>
        <time>2022-07-23T10:36:33Z</time>
      </trkpt>
      <trkpt lat="45.72084" lon="6.45531">
        <ele>631</ele>
        <time>2022-07-23T10:36:34Z</time>
      </trkpt>
      <trkpt lat="45.72084" lon="6.4553">
        <ele>632</ele>
        <time>2022-07-23T10:36:35Z</time>
      </trkpt>
      <trkpt lat="45.72085" lon="6.45529">
        <ele>632</ele>
        <time>2022-07-23T10:36:36Z</time>
      </trkpt>
      <trkpt lat="45.72085" lon="6.45528">
        <ele>632</ele>
        <time>2022-07-23T10:36:37Z</time>
      </trkpt>
      <trkpt lat="45.72086" lon="6.45527">
        <ele>632</ele>
        <time>2022-07-23T10:36:38Z</time>
      </trkpt>
      <trkpt lat="45.72086" lon="6.45525">
        <ele>632</ele>
        <time>2022-07-23T10:36:39Z</time>
      </trkpt>
      <trkpt lat="45.72087" lon="6.45524">
        <ele>632</ele>
        <time>2022-07-23T10:36:40Z</time>
      </trkpt>
      <trkpt lat="45.72087" lon="6.45523">
        <ele>632</ele>
        <time>2022-07-23T10:36:41Z</time>
      </trkpt>
      <trkpt lat="45.72088" lon="6.45522">
        <ele>632</ele>
        <time>2022-07-23T10:36:42Z</time>
      </trkpt>
      <trkpt lat="45.72088" lon="6.4552">
        <ele>632</ele>
        <time>2022-07-23T10:36:43Z</time>
      </trkpt>
      <trkpt lat="45.72089" lon="6.45519">
        <ele>632</ele>
        <time>2022-07-23T10:36:44Z</time>
      </trkpt>
      <trkpt lat="45.72089" lon="6.45517">
        <ele>633</ele>
        <time>2022-07-23T10:36:45Z</time>
      </trkpt>
      <trkpt lat="45.72088" lon="6.45516">
        <ele>633</ele>
        <time>2022-07-23T10:36:46Z</time>
      </trkpt>
      <trkpt lat="45.72088" lon="6.45515">
        <ele>633</ele>
        <time>2022-07-23T10:36:47Z</time>
      </trkpt>
      <trkpt lat="45.72088" lon="6.45514">
        <ele>633</ele>
        <time>2022-07-23T10:36:48Z</time>
      </trkpt>
      <trkpt lat="45.72088" lon="6.45513">
        <ele>633</ele>
        <time>2022-07-23T10:36:49Z</time>
      </trkpt>
      <trkpt lat="45.72088" lon="6.45512">
        <ele>633</ele>
        <time>2022-07-23T10:36:50Z</time>
      </trkpt>
      <trkpt lat="45.72088" lon="6.45512">
        <ele>633</ele>
        <time>2022-07-23T10:36:51Z</time>
      </trkpt>
      <trkpt lat="45.72088" lon="6.45511">
        <ele>633</ele>
        <time>2022-07-23T10:36:52Z</time>
      </trkpt>
      <trkpt lat="45.72088" lon="6.4551">
        <ele>633</ele>
        <time>2022-07-23T10:36:53Z</time>
      </trkpt>
      <trkpt lat="45.72088" lon="6.45509">
        <ele>633</ele>
        <time>2022-07-23T10:36:54Z</time>
      </trkpt>
      <trkpt lat="45.72088" lon="6.45509">
        <ele>634</ele>
        <time>2022-07-23T10:36:55Z</time>
      </trkpt>
      <trkpt lat="45.72088" lon="6.45508">
        <ele>634</ele>
        <time>2022-07-23T10:36:56Z</time>
      </trkpt>
      <trkpt lat="45.72087" lon="6.45507">
        <ele>634</ele>
        <time>2022-07-23T10:36:57Z</time>
      </trkpt>
      <trkpt lat="45.72087" lon="6.45506">
        <ele>634</ele>
        <time>2022-07-23T10:36:58Z</time>
      </trkpt>
      <trkpt lat="45.72087" lon="6.45505">
        <ele>634</ele>
        <time>2022-07-23T10:36:59Z</time>
      </trkpt>
      <trkpt lat="45.72087" lon="6.45505">
        <ele>634</ele>
        <time>2022-07-23T10:37:00Z</time>
      </trkpt>
      <trkpt lat="45.72086" lon="6.45504">
        <ele>634</ele>
        <time>2022-07-23T10:37:01Z</time>
      </trkpt>
      <trkpt lat="45.72086" lon="6.45503">
        <ele>634</ele>
        <time>2022-07-23T10:37:02Z</time>
      </trkpt>
      <trkpt lat="45.72086" lon="6.45503">
        <ele>634</ele>
        <time>2022-07-23T10:37:03Z</time>
      </trkpt>
      <trkpt lat="45.72085" lon="6.45502">
        <ele>634</ele>
        <time>2022-07-23T10:37:04Z</time>
      </trkpt>
      <trkpt lat="45.72085" lon="6.45501">
        <ele>635</ele>
        <time>2022-07-23T10:37:05Z</time>
      </trkpt>
      <trkpt lat="45.72085" lon="6.455">
        <ele>635</ele>
        <time>2022-07-23T10:37:06Z</time>
      </trkpt>
      <trkpt lat="45.72085" lon="6.45499">
        <ele>635</ele>
        <time>2022-07-23T10:37:07Z</time>
      </trkpt>
      <trkpt lat="45.72084" lon="6.45499">
        <ele>635</ele>
        <time>2022-07-23T10:37:08Z</time>
      </trkpt>
      <trkpt lat="45.72084" lon="6.45498">
        <ele>635</ele>
        <time>2022-07-23T10:37:09Z</time>
      </trkpt>
      <trkpt lat="45.72084" lon="6.45498">
        <ele>636</ele>
        <time>2022-07-23T10:37:10Z</time>
      </trkpt>
      <trkpt lat="45.72084" lon="6.45497">
        <ele>636</ele>
        <time>2022-07-23T10:37:11Z</time>
      </trkpt>
      <trkpt lat="45.72084" lon="6.45497">
        <ele>636</ele>
        <time>2022-07-23T10:37:12Z</time>
      </trkpt>
      <trkpt lat="45.72083" lon="6.45496">
        <ele>636</ele>
        <time>2022-07-23T10:37:13Z</time>
      </trkpt>
      <trkpt lat="45.72083" lon="6.45495">
        <ele>636</ele>
        <time>2022-07-23T10:37:14Z</time>
      </trkpt>
      <trkpt lat="45.72083" lon="6.45495">
        <ele>637</ele>
        <time>2022-07-23T10:37:15Z</time>
      </trkpt>
      <trkpt lat="45.72082" lon="6.45494">
        <ele>637</ele>
        <time>2022-07-23T10:37:16Z</time>
      </trkpt>
      <trkpt lat="45.72082" lon="6.45493">
        <ele>637</ele>
        <time>2022-07-23T10:37:17Z</time>
      </trkpt>
      <trkpt lat="45.72082" lon="6.45492">
        <ele>637</ele>
        <time>2022-07-23T10:37:18Z</time>
      </trkpt>
      <trkpt lat="45.72082" lon="6.45492">
        <ele>637</ele>
        <time>2022-07-23T10:37:19Z</time>
      </trkpt>
      <trkpt lat="45.72081" lon="6.45491">
        <ele>638</ele>
        <time>2022-07-23T10:37:20Z</time>
      </trkpt>
      <trkpt lat="45.72081" lon="6.4549">
        <ele>638</ele>
        <time>2022-07-23T10:37:21Z</time>
      </trkpt>
      <trkpt lat="45.72081" lon="6.45489">
        <ele>638</ele>
        <time>2022-07-23T10:37:22Z</time>
      </trkpt>
      <trkpt lat="45.72081" lon="6.45488">
        <ele>638</ele>
        <time>2022-07-23T10:37:23Z</time>
      </trkpt>
      <trkpt lat="45.7208" lon="6.45486">
        <ele>638</ele>
        <time>2022-07-23T10:37:24Z</time>
      </trkpt>
      <trkpt lat="45.7208" lon="6.45485">
        <ele>638</ele>
        <time>2022-07-23T10:37:25Z</time>
      </trkpt>
      <trkpt lat="45.7208" lon="6.45485">
        <ele>638</ele>
        <time>2022-07-23T10:37:26Z</time>
      </trkpt>
      <trkpt lat="45.7208" lon="6.45484">
        <ele>638</ele>
        <time>2022-07-23T10:37:27Z</time>
      </trkpt>
      <trkpt lat="45.7208" lon="6.45483">
        <ele>638</ele>
        <time>2022-07-23T10:37:28Z</time>
      </trkpt>
      <trkpt lat="45.7208" lon="6.45482">
        <ele>638</ele>
        <time>2022-07-23T10:37:29Z</time>
      </trkpt>
      <trkpt lat="45.7208" lon="6.4548">
        <ele>639</ele>
        <time>2022-07-23T10:37:30Z</time>
      </trkpt>
      <trkpt lat="45.7208" lon="6.45479">
        <ele>639</ele>
        <time>2022-07-23T10:37:31Z</time>
      </trkpt>
      <trkpt lat="45.7208" lon="6.45478">
        <ele>639</ele>
        <time>2022-07-23T10:37:32Z</time>
      </trkpt>
      <trkpt lat="45.72079" lon="6.45476">
        <ele>639</ele>
        <time>2022-07-23T10:37:33Z</time>
      </trkpt>
      <trkpt lat="45.72079" lon="6.45475">
        <ele>639</ele>
        <time>2022-07-23T10:37:34Z</time>
      </trkpt>
      <trkpt lat="45.72079" lon="6.45474">
        <ele>640</ele>
        <time>2022-07-23T10:37:35Z</time>
      </trkpt>
      <trkpt lat="45.72079" lon="6.45473">
        <ele>640</ele>
        <time>2022-07-23T10:37:36Z</time>
      </trkpt>
      <trkpt lat="45.72078" lon="6.45471">
        <ele>640</ele>
        <time>2022-07-23T10:37:37Z</time>
      </trkpt>
      <trkpt lat="45.72078" lon="6.4547">
        <ele>640</ele>
        <time>2022-07-23T10:37:38Z</time>
      </trkpt>
      <trkpt lat="45.72077" lon="6.45469">
        <ele>640</ele>
        <time>2022-07-23T10:37:39Z</time>
      </trkpt>
      <trkpt lat="45.72077" lon="6.45468">
        <ele>640</ele>
        <time>2022-07-23T10:37:40Z</time>
      </trkpt>
      <trkpt lat="45.72077" lon="6.45466">
        <ele>640</ele>
        <time>2022-07-23T10:37:41Z</time>
      </trkpt>
      <trkpt lat="45.72076" lon="6.45465">
        <ele>640</ele>
        <time>2022-07-23T10:37:42Z</time>
      </trkpt>
      <trkpt lat="45.72076" lon="6.45464">
        <ele>640</ele>
        <time>2022-07-23T10:37:43Z</time>
      </trkpt>
      <trkpt lat="45.72076" lon="6.45462">
        <ele>640</ele>
        <time>2022-07-23T10:37:44Z</time>
      </trkpt>
      <trkpt lat="45.72076" lon="6.45461">
        <ele>640</ele>
        <time>2022-07-23T10:37:45Z</time>
      </trkpt>
      <trkpt lat="45.72076" lon="6.4546">
        <ele>640</ele>
        <time>2022-07-23T10:37:46Z</time>
      </trkpt>
      <trkpt lat="45.72076" lon="6.45458">
        <ele>640</ele>
        <time>2022-07-23T10:37:47Z</time>
      </trkpt>
      <trkpt lat="45.72076" lon="6.45457">
        <ele>640</ele>
        <time>2022-07-23T10:37:48Z</time>
      </trkpt>
      <trkpt lat="45.72076" lon="6.45456">
        <ele>640</ele>
        <time>2022-07-23T10:37:49Z</time>
      </trkpt>
      <trkpt lat="45.72076" lon="6.45454">
        <ele>640</ele>
        <time>2022-07-23T10:37:50Z</time>
      </trkpt>
      <trkpt lat="45.72076" lon="6.45453">
        <ele>640</ele>
        <time>2022-07-23T10:37:51Z</time>
      </trkpt>
      <trkpt lat="45.72076" lon="6.45451">
        <ele>640</ele>
        <time>2022-07-23T10:37:52Z</time>
      </trkpt>
      <trkpt lat="45.72076" lon="6.4545">
        <ele>640</ele>
        <time>2022-07-23T10:37:53Z</time>
      </trkpt>
      <trkpt lat="45.72076" lon="6.45448">
        <ele>640</ele>
        <time>2022-07-23T10:37:54Z</time>
      </trkpt>
      <trkpt lat="45.72076" lon="6.45447">
        <ele>640</ele>
        <time>2022-07-23T10:37:55Z</time>
      </trkpt>
      <trkpt lat="45.72075" lon="6.45446">
        <ele>640</ele>
        <time>2022-07-23T10:37:56Z</time>
      </trkpt>
      <trkpt lat="45.72075" lon="6.45445">
        <ele>640</ele>
        <time>2022-07-23T10:37:57Z</time>
      </trkpt>
      <trkpt lat="45.72075" lon="6.45445">
        <ele>640</ele>
        <time>2022-07-23T10:37:58Z</time>
      </trkpt>
      <trkpt lat="45.72075" lon="6.45444">
        <ele>640</ele>
        <time>2022-07-23T10:37:59Z</time>
      </trkpt>
      <trkpt lat="45.72075" lon="6.45443">
        <ele>641</ele>
        <time>2022-07-23T10:38:00Z</time>
      </trkpt>
      <trkpt lat="45.72076" lon="6.45443">
        <ele>641</ele>
        <time>2022-07-23T10:38:01Z</time>
      </trkpt>
      <trkpt lat="45.72076" lon="6.45442">
        <ele>641</ele>
        <time>2022-07-23T10:38:02Z</time>
      </trkpt>
      <trkpt lat="45.72076" lon="6.45441">
        <ele>641</ele>
        <time>2022-07-23T10:38:03Z</time>
      </trkpt>
      <trkpt lat="45.72076" lon="6.45441">
        <ele>641</ele>
        <time>2022-07-23T10:38:04Z</time>
      </trkpt>
      <trkpt lat="45.72076" lon="6.4544">
        <ele>641</ele>
        <time>2022-07-23T10:38:05Z</time>
      </trkpt>
      <trkpt lat="45.72076" lon="6.45439">
        <ele>642</ele>
        <time>2022-07-23T10:38:18Z</time>
      </trkpt>
      <trkpt lat="45.72077" lon="6.45438">
        <ele>642</ele>
        <time>2022-07-23T10:38:19Z</time>
      </trkpt>
      <trkpt lat="45.72077" lon="6.45437">
        <ele>642</ele>
        <time>2022-07-23T10:38:20Z</time>
      </trkpt>
      <trkpt lat="45.72077" lon="6.45436">
        <ele>642</ele>
        <time>2022-07-23T10:38:21Z</time>
      </trkpt>
      <trkpt lat="45.72077" lon="6.45435">
        <ele>642</ele>
        <time>2022-07-23T10:38:22Z</time>
      </trkpt>
      <trkpt lat="45.72078" lon="6.45434">
        <ele>642</ele>
        <time>2022-07-23T10:38:23Z</time>
      </trkpt>
      <trkpt lat="45.72078" lon="6.45433">
        <ele>642</ele>
        <time>2022-07-23T10:38:24Z</time>
      </trkpt>
      <trkpt lat="45.72078" lon="6.45431">
        <ele>642</ele>
        <time>2022-07-23T10:38:25Z</time>
      </trkpt>
      <trkpt lat="45.72078" lon="6.4543">
        <ele>642</ele>
        <time>2022-07-23T10:38:26Z</time>
      </trkpt>
      <trkpt lat="45.72078" lon="6.45428">
        <ele>642</ele>
        <time>2022-07-23T10:38:27Z</time>
      </trkpt>
      <trkpt lat="45.72078" lon="6.45426">
        <ele>642</ele>
        <time>2022-07-23T10:38:28Z</time>
      </trkpt>
      <trkpt lat="45.72078" lon="6.45425">
        <ele>642</ele>
        <time>2022-07-23T10:38:29Z</time>
      </trkpt>
      <trkpt lat="45.72078" lon="6.45424">
        <ele>642</ele>
        <time>2022-07-23T10:38:30Z</time>
      </trkpt>
      <trkpt lat="45.72078" lon="6.45422">
        <ele>642</ele>
        <time>2022-07-23T10:38:31Z</time>
      </trkpt>
      <trkpt lat="45.72078" lon="6.45421">
        <ele>642</ele>
        <time>2022-07-23T10:38:32Z</time>
      </trkpt>
      <trkpt lat="45.72078" lon="6.4542">
        <ele>642</ele>
        <time>2022-07-23T10:38:33Z</time>
      </trkpt>
      <trkpt lat="45.72078" lon="6.45418">
        <ele>642</ele>
        <time>2022-07-23T10:38:34Z</time>
      </trkpt>
      <trkpt lat="45.72078" lon="6.45417">
        <ele>643</ele>
        <time>2022-07-23T10:38:35Z</time>
      </trkpt>
      <trkpt lat="45.72078" lon="6.45416">
        <ele>643</ele>
        <time>2022-07-23T10:38:36Z</time>
      </trkpt>
      <trkpt lat="45.72078" lon="6.45415">
        <ele>643</ele>
        <time>2022-07-23T10:38:37Z</time>
      </trkpt>
      <trkpt lat="45.72078" lon="6.45414">
        <ele>643</ele>
        <time>2022-07-23T10:38:38Z</time>
      </trkpt>
      <trkpt lat="45.72078" lon="6.45412">
        <ele>643</ele>
        <time>2022-07-23T10:38:39Z</time>
      </trkpt>
      <trkpt lat="45.72078" lon="6.45411">
        <ele>643</ele>
        <time>2022-07-23T10:38:40Z</time>
      </trkpt>
      <trkpt lat="45.72078" lon="6.4541">
        <ele>643</ele>
        <time>2022-07-23T10:38:41Z</time>
      </trkpt>
      <trkpt lat="45.72078" lon="6.45408">
        <ele>643</ele>
        <time>2022-07-23T10:38:42Z</time>
      </trkpt>
      <trkpt lat="45.72078" lon="6.45407">
        <ele>643</ele>
        <time>2022-07-23T10:38:43Z</time>
      </trkpt>
      <trkpt lat="45.72079" lon="6.45405">
        <ele>643</ele>
        <time>2022-07-23T10:38:44Z</time>
      </trkpt>
      <trkpt lat="45.72079" lon="6.45403">
        <ele>644</ele>
        <time>2022-07-23T10:38:45Z</time>
      </trkpt>
      <trkpt lat="45.72079" lon="6.45402">
        <ele>644</ele>
        <time>2022-07-23T10:38:46Z</time>
      </trkpt>
      <trkpt lat="45.7208" lon="6.454">
        <ele>644</ele>
        <time>2022-07-23T10:38:47Z</time>
      </trkpt>
      <trkpt lat="45.7208" lon="6.45399">
        <ele>644</ele>
        <time>2022-07-23T10:38:48Z</time>
      </trkpt>
      <trkpt lat="45.7208" lon="6.45397">
        <ele>644</ele>
        <time>2022-07-23T10:38:49Z</time>
      </trkpt>
      <trkpt lat="45.72081" lon="6.45396">
        <ele>644</ele>
        <time>2022-07-23T10:38:50Z</time>
      </trkpt>
      <trkpt lat="45.72081" lon="6.45394">
        <ele>644</ele>
        <time>2022-07-23T10:38:51Z</time>
      </trkpt>
      <trkpt lat="45.72082" lon="6.45393">
        <ele>644</ele>
        <time>2022-07-23T10:38:52Z</time>
      </trkpt>
      <trkpt lat="45.72082" lon="6.45392">
        <ele>645</ele>
        <time>2022-07-23T10:38:53Z</time>
      </trkpt>
      <trkpt lat="45.72082" lon="6.45391">
        <ele>645</ele>
        <time>2022-07-23T10:38:54Z</time>
      </trkpt>
      <trkpt lat="45.72083" lon="6.4539">
        <ele>646</ele>
        <time>2022-07-23T10:38:55Z</time>
      </trkpt>
      <trkpt lat="45.72083" lon="6.45389">
        <ele>646</ele>
        <time>2022-07-23T10:38:56Z</time>
      </trkpt>
      <trkpt lat="45.72083" lon="6.45388">
        <ele>646</ele>
        <time>2022-07-23T10:38:57Z</time>
      </trkpt>
      <trkpt lat="45.72084" lon="6.45387">
        <ele>646</ele>
        <time>2022-07-23T10:38:58Z</time>
      </trkpt>
      <trkpt lat="45.72085" lon="6.45386">
        <ele>646</ele>
        <time>2022-07-23T10:38:59Z</time>
      </trkpt>
      <trkpt lat="45.72085" lon="6.45384">
        <ele>647</ele>
        <time>2022-07-23T10:39:00Z</time>
      </trkpt>
      <trkpt lat="45.72086" lon="6.45383">
        <ele>647</ele>
        <time>2022-07-23T10:39:01Z</time>
      </trkpt>
      <trkpt lat="45.72086" lon="6.45382">
        <ele>647</ele>
        <time>2022-07-23T10:39:02Z</time>
      </trkpt>
      <trkpt lat="45.72087" lon="6.45381">
        <ele>647</ele>
        <time>2022-07-23T10:39:03Z</time>
      </trkpt>
      <trkpt lat="45.72087" lon="6.4538">
        <ele>647</ele>
        <time>2022-07-23T10:39:04Z</time>
      </trkpt>
      <trkpt lat="45.72087" lon="6.45379">
        <ele>647</ele>
        <time>2022-07-23T10:39:05Z</time>
      </trkpt>
      <trkpt lat="45.72088" lon="6.45378">
        <ele>647</ele>
        <time>2022-07-23T10:39:06Z</time>
      </trkpt>
      <trkpt lat="45.72088" lon="6.45377">
        <ele>647</ele>
        <time>2022-07-23T10:39:07Z</time>
      </trkpt>
      <trkpt lat="45.72088" lon="6.45376">
        <ele>647</ele>
        <time>2022-07-23T10:39:08Z</time>
      </trkpt>
      <trkpt lat="45.72088" lon="6.45376">
        <ele>647</ele>
        <time>2022-07-23T10:39:09Z</time>
      </trkpt>
      <trkpt lat="45.72088" lon="6.45375">
        <ele>648</ele>
        <time>2022-07-23T10:39:10Z</time>
      </trkpt>
      <trkpt lat="45.72088" lon="6.45374">
        <ele>648</ele>
        <time>2022-07-23T10:39:11Z</time>
      </trkpt>
      <trkpt lat="45.72088" lon="6.45373">
        <ele>648</ele>
        <time>2022-07-23T10:39:12Z</time>
      </trkpt>
      <trkpt lat="45.72089" lon="6.45373">
        <ele>648</ele>
        <time>2022-07-23T10:39:13Z</time>
      </trkpt>
      <trkpt lat="45.72089" lon="6.45372">
        <ele>648</ele>
        <time>2022-07-23T10:39:14Z</time>
      </trkpt>
      <trkpt lat="45.72089" lon="6.45372">
        <ele>649</ele>
        <time>2022-07-23T10:39:15Z</time>
      </trkpt>
      <trkpt lat="45.7209" lon="6.45372">
        <ele>649</ele>
        <time>2022-07-23T10:39:16Z</time>
      </trkpt>
      <trkpt lat="45.72091" lon="6.4537">
        <ele>650</ele>
        <time>2022-07-23T10:39:23Z</time>
      </trkpt>
      <trkpt lat="45.72091" lon="6.45369">
        <ele>650</ele>
        <time>2022-07-23T10:39:24Z</time>
      </trkpt>
      <trkpt lat="45.72092" lon="6.45368">
        <ele>650</ele>
        <time>2022-07-23T10:39:25Z</time>
      </trkpt>
      <trkpt lat="45.72093" lon="6.45367">
        <ele>650</ele>
        <time>2022-07-23T10:39:26Z</time>
      </trkpt>
      <trkpt lat="45.72093" lon="6.45366">
        <ele>650</ele>
        <time>2022-07-23T10:39:27Z</time>
      </trkpt>
      <trkpt lat="45.72094" lon="6.45365">
        <ele>650</ele>
        <time>2022-07-23T10:39:28Z</time>
      </trkpt>
      <trkpt lat="45.72095" lon="6.45364">
        <ele>650</ele>
        <time>2022-07-23T10:39:29Z</time>
      </trkpt>
      <trkpt lat="45.72095" lon="6.45364">
        <ele>651</ele>
        <time>2022-07-23T10:39:30Z</time>
      </trkpt>
      <trkpt lat="45.72096" lon="6.45363">
        <ele>651</ele>
        <time>2022-07-23T10:39:31Z</time>
      </trkpt>
      <trkpt lat="45.72097" lon="6.45362">
        <ele>651</ele>
        <time>2022-07-23T10:39:32Z</time>
      </trkpt>
      <trkpt lat="45.72098" lon="6.45361">
        <ele>651</ele>
        <time>2022-07-23T10:39:33Z</time>
      </trkpt>
      <trkpt lat="45.72098" lon="6.45361">
        <ele>651</ele>
        <time>2022-07-23T10:39:34Z</time>
      </trkpt>
      <trkpt lat="45.72099" lon="6.4536">
        <ele>652</ele>
        <time>2022-07-23T10:39:35Z</time>
      </trkpt>
      <trkpt lat="45.72099" lon="6.4536">
        <ele>652</ele>
        <time>2022-07-23T10:39:36Z</time>
      </trkpt>
      <trkpt lat="45.721" lon="6.4536">
        <ele>652</ele>
        <time>2022-07-23T10:39:37Z</time>
      </trkpt>
      <trkpt lat="45.721" lon="6.4536">
        <ele>652</ele>
        <time>2022-07-23T10:39:38Z</time>
      </trkpt>
      <trkpt lat="45.721" lon="6.45359">
        <ele>652</ele>
        <time>2022-07-23T10:39:39Z</time>
      </trkpt>
      <trkpt lat="45.721" lon="6.45359">
        <ele>652</ele>
        <time>2022-07-23T10:39:40Z</time>
      </trkpt>
      <trkpt lat="45.72101" lon="6.45358">
        <ele>652</ele>
        <time>2022-07-23T10:39:41Z</time>
      </trkpt>
      <trkpt lat="45.72101" lon="6.45357">
        <ele>652</ele>
        <time>2022-07-23T10:39:42Z</time>
      </trkpt>
      <trkpt lat="45.72102" lon="6.45356">
        <ele>652</ele>
        <time>2022-07-23T10:39:43Z</time>
      </trkpt>
      <trkpt lat="45.72102" lon="6.45355">
        <ele>652</ele>
        <time>2022-07-23T10:39:44Z</time>
      </trkpt>
      <trkpt lat="45.72102" lon="6.45354">
        <ele>653</ele>
        <time>2022-07-23T10:39:45Z</time>
      </trkpt>
      <trkpt lat="45.72102" lon="6.45353">
        <ele>653</ele>
        <time>2022-07-23T10:39:46Z</time>
      </trkpt>
      <trkpt lat="45.72102" lon="6.45352">
        <ele>653</ele>
        <time>2022-07-23T10:39:47Z</time>
      </trkpt>
      <trkpt lat="45.72102" lon="6.45351">
        <ele>653</ele>
        <time>2022-07-23T10:39:48Z</time>
      </trkpt>
      <trkpt lat="45.72101" lon="6.4535">
        <ele>653</ele>
        <time>2022-07-23T10:39:49Z</time>
      </trkpt>
      <trkpt lat="45.72101" lon="6.45349">
        <ele>654</ele>
        <time>2022-07-23T10:39:50Z</time>
      </trkpt>
      <trkpt lat="45.72102" lon="6.45347">
        <ele>654</ele>
        <time>2022-07-23T10:39:51Z</time>
      </trkpt>
      <trkpt lat="45.72102" lon="6.45346">
        <ele>654</ele>
        <time>2022-07-23T10:39:52Z</time>
      </trkpt>
      <trkpt lat="45.72102" lon="6.45345">
        <ele>654</ele>
        <time>2022-07-23T10:39:53Z</time>
      </trkpt>
      <trkpt lat="45.72102" lon="6.45344">
        <ele>654</ele>
        <time>2022-07-23T10:39:54Z</time>
      </trkpt>
      <trkpt lat="45.72102" lon="6.45343">
        <ele>655</ele>
        <time>2022-07-23T10:39:55Z</time>
      </trkpt>
      <trkpt lat="45.72102" lon="6.45342">
        <ele>655</ele>
        <time>2022-07-23T10:39:56Z</time>
      </trkpt>
      <trkpt lat="45.72102" lon="6.45341">
        <ele>655</ele>
        <time>2022-07-23T10:39:57Z</time>
      </trkpt>
      <trkpt lat="45.72102" lon="6.4534">
        <ele>655</ele>
        <time>2022-07-23T10:39:58Z</time>
      </trkpt>
      <trkpt lat="45.72102" lon="6.45339">
        <ele>655</ele>
        <time>2022-07-23T10:39:59Z</time>
      </trkpt>
      <trkpt lat="45.72102" lon="6.45338">
        <ele>656</ele>
        <time>2022-07-23T10:40:00Z</time>
      </trkpt>
      <trkpt lat="45.72102" lon="6.45337">
        <ele>656</ele>
        <time>2022-07-23T10:40:01Z</time>
      </trkpt>
      <trkpt lat="45.72102" lon="6.45337">
        <ele>656</ele>
        <time>2022-07-23T10:40:02Z</time>
      </trkpt>
      <trkpt lat="45.72102" lon="6.45336">
        <ele>656</ele>
        <time>2022-07-23T10:40:03Z</time>
      </trkpt>
      <trkpt lat="45.72102" lon="6.45336">
        <ele>656</ele>
        <time>2022-07-23T10:40:04Z</time>
      </trkpt>
      <trkpt lat="45.72102" lon="6.45335">
        <ele>657</ele>
        <time>2022-07-23T10:40:05Z</time>
      </trkpt>
      <trkpt lat="45.72103" lon="6.45334">
        <ele>657</ele>
        <time>2022-07-23T10:40:06Z</time>
      </trkpt>
      <trkpt lat="45.72103" lon="6.45332">
        <ele>657</ele>
        <time>2022-07-23T10:40:07Z</time>
      </trkpt>
      <trkpt lat="45.72103" lon="6.45331">
        <ele>657</ele>
        <time>2022-07-23T10:40:08Z</time>
      </trkpt>
      <trkpt lat="45.72104" lon="6.4533">
        <ele>657</ele>
        <time>2022-07-23T10:40:09Z</time>
      </trkpt>
      <trkpt lat="45.72106" lon="6.45331">
        <ele>659</ele>
        <time>2022-07-23T10:40:30Z</time>
      </trkpt>
      <trkpt lat="45.72107" lon="6.45331">
        <ele>659</ele>
        <time>2022-07-23T10:40:31Z</time>
      </trkpt>
      <trkpt lat="45.72108" lon="6.45332">
        <ele>659</ele>
        <time>2022-07-23T10:40:32Z</time>
      </trkpt>
      <trkpt lat="45.72109" lon="6.45332">
        <ele>659</ele>
        <time>2022-07-23T10:40:33Z</time>
      </trkpt>
      <trkpt lat="45.7211" lon="6.45332">
        <ele>659</ele>
        <time>2022-07-23T10:40:34Z</time>
      </trkpt>
      <trkpt lat="45.7211" lon="6.45332">
        <ele>659</ele>
        <time>2022-07-23T10:40:35Z</time>
      </trkpt>
      <trkpt lat="45.72111" lon="6.45332">
        <ele>659</ele>
        <time>2022-07-23T10:40:36Z</time>
      </trkpt>
      <trkpt lat="45.72111" lon="6.45332">
        <ele>659</ele>
        <time>2022-07-23T10:40:37Z</time>
      </trkpt>
      <trkpt lat="45.72112" lon="6.45332">
        <ele>659</ele>
        <time>2022-07-23T10:40:38Z</time>
      </trkpt>
      <trkpt lat="45.72115" lon="6.45332">
        <ele>662</ele>
        <time>2022-07-23T10:40:52Z</time>
      </trkpt>
      <trkpt lat="45.72116" lon="6.45332">
        <ele>663</ele>
        <time>2022-07-23T10:40:53Z</time>
      </trkpt>
      <trkpt lat="45.72117" lon="6.45331">
        <ele>663</ele>
        <time>2022-07-23T10:40:54Z</time>
      </trkpt>
      <trkpt lat="45.72119" lon="6.45332">
        <ele>664</ele>
        <time>2022-07-23T10:41:01Z</time>
      </trkpt>
      <trkpt lat="45.7212" lon="6.45332">
        <ele>664</ele>
        <time>2022-07-23T10:41:02Z</time>
      </trkpt>
      <trkpt lat="45.72121" lon="6.45332">
        <ele>665</ele>
        <time>2022-07-23T10:41:03Z</time>
      </trkpt>
      <trkpt lat="45.72121" lon="6.45332">
        <ele>665</ele>
        <time>2022-07-23T10:41:04Z</time>
      </trkpt>
      <trkpt lat="45.72122" lon="6.45332">
        <ele>666</ele>
        <time>2022-07-23T10:41:05Z</time>
      </trkpt>
      <trkpt lat="45.72123" lon="6.45332">
        <ele>666</ele>
        <time>2022-07-23T10:41:06Z</time>
      </trkpt>
      <trkpt lat="45.72124" lon="6.45333">
        <ele>666</ele>
        <time>2022-07-23T10:41:07Z</time>
      </trkpt>
      <trkpt lat="45.72124" lon="6.45333">
        <ele>666</ele>
        <time>2022-07-23T10:41:08Z</time>
      </trkpt>
      <trkpt lat="45.72125" lon="6.45333">
        <ele>666</ele>
        <time>2022-07-23T10:41:09Z</time>
      </trkpt>
      <trkpt lat="45.72126" lon="6.45333">
        <ele>666</ele>
        <time>2022-07-23T10:41:10Z</time>
      </trkpt>
      <trkpt lat="45.72127" lon="6.45334">
        <ele>666</ele>
        <time>2022-07-23T10:41:11Z</time>
      </trkpt>
      <trkpt lat="45.72127" lon="6.45335">
        <ele>666</ele>
        <time>2022-07-23T10:41:12Z</time>
      </trkpt>
      <trkpt lat="45.72128" lon="6.45335">
        <ele>666</ele>
        <time>2022-07-23T10:41:13Z</time>
      </trkpt>
      <trkpt lat="45.72128" lon="6.45336">
        <ele>666</ele>
        <time>2022-07-23T10:41:14Z</time>
      </trkpt>
      <trkpt lat="45.72129" lon="6.45337">
        <ele>667</ele>
        <time>2022-07-23T10:41:15Z</time>
      </trkpt>
      <trkpt lat="45.72129" lon="6.45338">
        <ele>667</ele>
        <time>2022-07-23T10:41:16Z</time>
      </trkpt>
      <trkpt lat="45.72129" lon="6.45338">
        <ele>667</ele>
        <time>2022-07-23T10:41:17Z</time>
      </trkpt>
      <trkpt lat="45.72129" lon="6.45339">
        <ele>667</ele>
        <time>2022-07-23T10:41:18Z</time>
      </trkpt>
      <trkpt lat="45.7213" lon="6.4534">
        <ele>667</ele>
        <time>2022-07-23T10:41:19Z</time>
      </trkpt>
      <trkpt lat="45.7213" lon="6.45341">
        <ele>668</ele>
        <time>2022-07-23T10:41:20Z</time>
      </trkpt>
      <trkpt lat="45.72131" lon="6.45342">
        <ele>668</ele>
        <time>2022-07-23T10:41:21Z</time>
      </trkpt>
      <trkpt lat="45.72132" lon="6.45343">
        <ele>668</ele>
        <time>2022-07-23T10:41:22Z</time>
      </trkpt>
      <trkpt lat="45.72132" lon="6.45343">
        <ele>668</ele>
        <time>2022-07-23T10:41:23Z</time>
      </trkpt>
      <trkpt lat="45.72133" lon="6.45344">
        <ele>668</ele>
        <time>2022-07-23T10:41:24Z</time>
      </trkpt>
      <trkpt lat="45.72134" lon="6.45344">
        <ele>671</ele>
        <time>2022-07-23T10:41:51Z</time>
      </trkpt>
      <trkpt lat="45.72134" lon="6.45345">
        <ele>671</ele>
        <time>2022-07-23T10:41:52Z</time>
      </trkpt>
      <trkpt lat="45.72134" lon="6.45345">
        <ele>671</ele>
        <time>2022-07-23T10:41:53Z</time>
      </trkpt>
      <trkpt lat="45.72135" lon="6.45347">
        <ele>671</ele>
        <time>2022-07-23T10:41:54Z</time>
      </trkpt>
      <trkpt lat="45.72135" lon="6.45348">
        <ele>672</ele>
        <time>2022-07-23T10:41:55Z</time>
      </trkpt>
      <trkpt lat="45.72135" lon="6.4535">
        <ele>671</ele>
        <time>2022-07-23T10:41:56Z</time>
      </trkpt>
      <trkpt lat="45.72135" lon="6.45351">
        <ele>671</ele>
        <time>2022-07-23T10:41:57Z</time>
      </trkpt>
      <trkpt lat="45.72135" lon="6.45352">
        <ele>671</ele>
        <time>2022-07-23T10:41:58Z</time>
      </trkpt>
      <trkpt lat="45.72136" lon="6.45352">
        <ele>671</ele>
        <time>2022-07-23T10:41:59Z</time>
      </trkpt>
      <trkpt lat="45.72136" lon="6.45352">
        <ele>671</ele>
        <time>2022-07-23T10:42:00Z</time>
      </trkpt>
      <trkpt lat="45.72136" lon="6.45351">
        <ele>671</ele>
        <time>2022-07-23T10:42:01Z</time>
      </trkpt>
      <trkpt lat="45.72136" lon="6.45349">
        <ele>671</ele>
        <time>2022-07-23T10:42:02Z</time>
      </trkpt>
      <trkpt lat="45.72136" lon="6.45348">
        <ele>671</ele>
        <time>2022-07-23T10:42:03Z</time>
      </trkpt>
      <trkpt lat="45.72135" lon="6.45347">
        <ele>672</ele>
        <time>2022-07-23T10:42:38Z</time>
      </trkpt>
      <trkpt lat="45.72135" lon="6.45346">
        <ele>672</ele>
        <time>2022-07-23T10:42:39Z</time>
      </trkpt>
      <trkpt lat="45.72135" lon="6.45345">
        <ele>672</ele>
        <time>2022-07-23T10:42:40Z</time>
      </trkpt>
      <trkpt lat="45.72135" lon="6.45344">
        <ele>672</ele>
        <time>2022-07-23T10:42:41Z</time>
      </trkpt>
      <trkpt lat="45.72135" lon="6.45343">
        <ele>672</ele>
        <time>2022-07-23T10:42:42Z</time>
      </trkpt>
      <trkpt lat="45.72134" lon="6.45342">
        <ele>672</ele>
        <time>2022-07-23T10:42:43Z</time>
      </trkpt>
      <trkpt lat="45.72134" lon="6.4534">
        <ele>672</ele>
        <time>2022-07-23T10:42:44Z</time>
      </trkpt>
      <trkpt lat="45.72134" lon="6.45339">
        <ele>672</ele>
        <time>2022-07-23T10:42:45Z</time>
      </trkpt>
      <trkpt lat="45.72133" lon="6.45338">
        <ele>672</ele>
        <time>2022-07-23T10:42:46Z</time>
      </trkpt>
      <trkpt lat="45.72133" lon="6.45338">
        <ele>672</ele>
        <time>2022-07-23T10:42:47Z</time>
      </trkpt>
      <trkpt lat="45.72133" lon="6.45338">
        <ele>672</ele>
        <time>2022-07-23T10:42:48Z</time>
      </trkpt>
      <trkpt lat="45.72133" lon="6.45338">
        <ele>672</ele>
        <time>2022-07-23T10:42:49Z</time>
      </trkpt>
      <trkpt lat="45.72133" lon="6.45338">
        <ele>672</ele>
        <time>2022-07-23T10:42:50Z</time>
      </trkpt>
      <trkpt lat="45.72133" lon="6.45337">
        <ele>672</ele>
        <time>2022-07-23T10:42:51Z</time>
      </trkpt>
      <trkpt lat="45.72133" lon="6.45337">
        <ele>672</ele>
        <time>2022-07-23T10:42:52Z</time>
      </trkpt>
      <trkpt lat="45.72133" lon="6.45337">
        <ele>672</ele>
        <time>2022-07-23T10:42:53Z</time>
      </trkpt>
      <trkpt lat="45.72133" lon="6.45339">
        <ele>672</ele>
        <time>2022-07-23T10:42:54Z</time>
      </trkpt>
      <trkpt lat="45.72133" lon="6.4534">
        <ele>673</ele>
        <time>2022-07-23T10:42:55Z</time>
      </trkpt>
      <trkpt lat="45.72133" lon="6.45342">
        <ele>672</ele>
        <time>2022-07-23T10:42:56Z</time>
      </trkpt>
      <trkpt lat="45.72133" lon="6.45343">
        <ele>672</ele>
        <time>2022-07-23T10:42:57Z</time>
      </trkpt>
      <trkpt lat="45.72133" lon="6.45344">
        <ele>672</ele>
        <time>2022-07-23T10:42:58Z</time>
      </trkpt>
      <trkpt lat="45.72133" lon="6.45344">
        <ele>672</ele>
        <time>2022-07-23T10:42:59Z</time>
      </trkpt>
      <trkpt lat="45.72133" lon="6.45345">
        <ele>672</ele>
        <time>2022-07-23T10:43:00Z</time>
      </trkpt>
      <trkpt lat="45.72133" lon="6.45345">
        <ele>672</ele>
        <time>2022-07-23T10:43:01Z</time>
      </trkpt>
      <trkpt lat="45.72133" lon="6.45345">
        <ele>672</ele>
        <time>2022-07-23T10:43:02Z</time>
      </trkpt>
      <trkpt lat="45.72133" lon="6.45346">
        <ele>672</ele>
        <time>2022-07-23T10:43:03Z</time>
      </trkpt>
      <trkpt lat="45.72134" lon="6.45345">
        <ele>672</ele>
        <time>2022-07-23T10:43:04Z</time>
      </trkpt>
      <trkpt lat="45.72134" lon="6.45344">
        <ele>672</ele>
        <time>2022-07-23T10:43:05Z</time>
      </trkpt>
      <trkpt lat="45.72134" lon="6.45343">
        <ele>672</ele>
        <time>2022-07-23T10:43:06Z</time>
      </trkpt>
      <trkpt lat="45.72134" lon="6.45341">
        <ele>672</ele>
        <time>2022-07-23T10:43:07Z</time>
      </trkpt>
      <trkpt lat="45.72134" lon="6.45339">
        <ele>672</ele>
        <time>2022-07-23T10:43:08Z</time>
      </trkpt>
      <trkpt lat="45.72133" lon="6.45337">
        <ele>672</ele>
        <time>2022-07-23T10:43:09Z</time>
      </trkpt>
      <trkpt lat="45.72133" lon="6.45335">
        <ele>672</ele>
        <time>2022-07-23T10:43:10Z</time>
      </trkpt>
      <trkpt lat="45.72132" lon="6.45334">
        <ele>672</ele>
        <time>2022-07-23T10:43:11Z</time>
      </trkpt>
      <trkpt lat="45.72132" lon="6.45332">
        <ele>672</ele>
        <time>2022-07-23T10:43:12Z</time>
      </trkpt>
      <trkpt lat="45.72131" lon="6.45331">
        <ele>672</ele>
        <time>2022-07-23T10:43:13Z</time>
      </trkpt>
      <trkpt lat="45.72131" lon="6.4533">
        <ele>672</ele>
        <time>2022-07-23T10:43:14Z</time>
      </trkpt>
      <trkpt lat="45.72131" lon="6.45329">
        <ele>672</ele>
        <time>2022-07-23T10:43:15Z</time>
      </trkpt>
      <trkpt lat="45.72131" lon="6.4533">
        <ele>672</ele>
        <time>2022-07-23T10:43:16Z</time>
      </trkpt>
      <trkpt lat="45.72132" lon="6.4533">
        <ele>672</ele>
        <time>2022-07-23T10:43:17Z</time>
      </trkpt>
      <trkpt lat="45.72132" lon="6.45331">
        <ele>672</ele>
        <time>2022-07-23T10:43:18Z</time>
      </trkpt>
      <trkpt lat="45.72132" lon="6.45331">
        <ele>672</ele>
        <time>2022-07-23T10:43:19Z</time>
      </trkpt>
      <trkpt lat="45.72131" lon="6.45331">
        <ele>673</ele>
        <time>2022-07-23T10:43:20Z</time>
      </trkpt>
      <trkpt lat="45.72131" lon="6.45331">
        <ele>673</ele>
        <time>2022-07-23T10:43:21Z</time>
      </trkpt>
      <trkpt lat="45.72131" lon="6.45329">
        <ele>673</ele>
        <time>2022-07-23T10:43:22Z</time>
      </trkpt>
      <trkpt lat="45.7213" lon="6.45328">
        <ele>673</ele>
        <time>2022-07-23T10:43:23Z</time>
      </trkpt>
      <trkpt lat="45.7213" lon="6.45326">
        <ele>673</ele>
        <time>2022-07-23T10:43:24Z</time>
      </trkpt>
      <trkpt lat="45.72129" lon="6.45325">
        <ele>673</ele>
        <time>2022-07-23T10:43:25Z</time>
      </trkpt>
      <trkpt lat="45.72129" lon="6.45323">
        <ele>673</ele>
        <time>2022-07-23T10:43:26Z</time>
      </trkpt>
      <trkpt lat="45.72128" lon="6.45321">
        <ele>673</ele>
        <time>2022-07-23T10:43:27Z</time>
      </trkpt>
      <trkpt lat="45.72128" lon="6.4532">
        <ele>673</ele>
        <time>2022-07-23T10:43:28Z</time>
      </trkpt>
      <trkpt lat="45.72127" lon="6.45318">
        <ele>673</ele>
        <time>2022-07-23T10:43:29Z</time>
      </trkpt>
      <trkpt lat="45.72126" lon="6.45317">
        <ele>673</ele>
        <time>2022-07-23T10:43:30Z</time>
      </trkpt>
      <trkpt lat="45.72126" lon="6.45316">
        <ele>673</ele>
        <time>2022-07-23T10:43:31Z</time>
      </trkpt>
      <trkpt lat="45.72125" lon="6.45315">
        <ele>673</ele>
        <time>2022-07-23T10:43:32Z</time>
      </trkpt>
      <trkpt lat="45.72125" lon="6.45314">
        <ele>673</ele>
        <time>2022-07-23T10:43:33Z</time>
      </trkpt>
      <trkpt lat="45.72124" lon="6.45313">
        <ele>673</ele>
        <time>2022-07-23T10:43:34Z</time>
      </trkpt>
      <trkpt lat="45.72124" lon="6.45312">
        <ele>673</ele>
        <time>2022-07-23T10:43:35Z</time>
      </trkpt>
      <trkpt lat="45.72123" lon="6.45311">
        <ele>673</ele>
        <time>2022-07-23T10:43:36Z</time>
      </trkpt>
      <trkpt lat="45.72123" lon="6.4531">
        <ele>673</ele>
        <time>2022-07-23T10:43:37Z</time>
      </trkpt>
      <trkpt lat="45.72122" lon="6.45309">
        <ele>673</ele>
        <time>2022-07-23T10:43:38Z</time>
      </trkpt>
      <trkpt lat="45.72122" lon="6.45307">
        <ele>673</ele>
        <time>2022-07-23T10:43:39Z</time>
      </trkpt>
      <trkpt lat="45.72121" lon="6.45307">
        <ele>674</ele>
        <time>2022-07-23T10:43:40Z</time>
      </trkpt>
      <trkpt lat="45.72121" lon="6.45306">
        <ele>674</ele>
        <time>2022-07-23T10:43:41Z</time>
      </trkpt>
      <trkpt lat="45.7212" lon="6.45305">
        <ele>674</ele>
        <time>2022-07-23T10:43:42Z</time>
      </trkpt>
      <trkpt lat="45.7212" lon="6.45304">
        <ele>674</ele>
        <time>2022-07-23T10:43:43Z</time>
      </trkpt>
      <trkpt lat="45.72119" lon="6.45303">
        <ele>674</ele>
        <time>2022-07-23T10:43:44Z</time>
      </trkpt>
      <trkpt lat="45.72119" lon="6.45301">
        <ele>674</ele>
        <time>2022-07-23T10:43:45Z</time>
      </trkpt>
      <trkpt lat="45.72118" lon="6.45301">
        <ele>674</ele>
        <time>2022-07-23T10:43:46Z</time>
      </trkpt>
      <trkpt lat="45.72118" lon="6.453">
        <ele>674</ele>
        <time>2022-07-23T10:43:47Z</time>
      </trkpt>
      <trkpt lat="45.72117" lon="6.45299">
        <ele>674</ele>
        <time>2022-07-23T10:43:48Z</time>
      </trkpt>
      <trkpt lat="45.72117" lon="6.45298">
        <ele>674</ele>
        <time>2022-07-23T10:43:49Z</time>
      </trkpt>
      <trkpt lat="45.72116" lon="6.45297">
        <ele>675</ele>
        <time>2022-07-23T10:43:50Z</time>
      </trkpt>
      <trkpt lat="45.72116" lon="6.45296">
        <ele>675</ele>
        <time>2022-07-23T10:43:51Z</time>
      </trkpt>
      <trkpt lat="45.72115" lon="6.45295">
        <ele>675</ele>
        <time>2022-07-23T10:43:52Z</time>
      </trkpt>
      <trkpt lat="45.72115" lon="6.45294">
        <ele>675</ele>
        <time>2022-07-23T10:43:53Z</time>
      </trkpt>
      <trkpt lat="45.72114" lon="6.45293">
        <ele>675</ele>
        <time>2022-07-23T10:43:54Z</time>
      </trkpt>
      <trkpt lat="45.72114" lon="6.45292">
        <ele>675</ele>
        <time>2022-07-23T10:43:55Z</time>
      </trkpt>
      <trkpt lat="45.72113" lon="6.45291">
        <ele>675</ele>
        <time>2022-07-23T10:43:56Z</time>
      </trkpt>
      <trkpt lat="45.72112" lon="6.45289">
        <ele>675</ele>
        <time>2022-07-23T10:43:57Z</time>
      </trkpt>
      <trkpt lat="45.72112" lon="6.45288">
        <ele>675</ele>
        <time>2022-07-23T10:43:58Z</time>
      </trkpt>
      <trkpt lat="45.72111" lon="6.45287">
        <ele>675</ele>
        <time>2022-07-23T10:43:59Z</time>
      </trkpt>
      <trkpt lat="45.72111" lon="6.45286">
        <ele>676</ele>
        <time>2022-07-23T10:44:00Z</time>
      </trkpt>
      <trkpt lat="45.7211" lon="6.45284">
        <ele>676</ele>
        <time>2022-07-23T10:44:01Z</time>
      </trkpt>
      <trkpt lat="45.72109" lon="6.45283">
        <ele>676</ele>
        <time>2022-07-23T10:44:02Z</time>
      </trkpt>
      <trkpt lat="45.72109" lon="6.45282">
        <ele>676</ele>
        <time>2022-07-23T10:44:03Z</time>
      </trkpt>
      <trkpt lat="45.72108" lon="6.45281">
        <ele>676</ele>
        <time>2022-07-23T10:44:04Z</time>
      </trkpt>
      <trkpt lat="45.72108" lon="6.45279">
        <ele>676</ele>
        <time>2022-07-23T10:44:05Z</time>
      </trkpt>
      <trkpt lat="45.72107" lon="6.45278">
        <ele>676</ele>
        <time>2022-07-23T10:44:06Z</time>
      </trkpt>
      <trkpt lat="45.72107" lon="6.45277">
        <ele>676</ele>
        <time>2022-07-23T10:44:07Z</time>
      </trkpt>
      <trkpt lat="45.72106" lon="6.45276">
        <ele>676</ele>
        <time>2022-07-23T10:44:08Z</time>
      </trkpt>
      <trkpt lat="45.72106" lon="6.45275">
        <ele>676</ele>
        <time>2022-07-23T10:44:09Z</time>
      </trkpt>
      <trkpt lat="45.72105" lon="6.45273">
        <ele>677</ele>
        <time>2022-07-23T10:44:10Z</time>
      </trkpt>
      <trkpt lat="45.72105" lon="6.45272">
        <ele>677</ele>
        <time>2022-07-23T10:44:11Z</time>
      </trkpt>
      <trkpt lat="45.72104" lon="6.45271">
        <ele>677</ele>
        <time>2022-07-23T10:44:12Z</time>
      </trkpt>
      <trkpt lat="45.72104" lon="6.4527">
        <ele>677</ele>
        <time>2022-07-23T10:44:13Z</time>
      </trkpt>
      <trkpt lat="45.72104" lon="6.45269">
        <ele>677</ele>
        <time>2022-07-23T10:44:14Z</time>
      </trkpt>
      <trkpt lat="45.72103" lon="6.45268">
        <ele>677</ele>
        <time>2022-07-23T10:44:15Z</time>
      </trkpt>
      <trkpt lat="45.72103" lon="6.45267">
        <ele>677</ele>
        <time>2022-07-23T10:44:16Z</time>
      </trkpt>
      <trkpt lat="45.72102" lon="6.45266">
        <ele>677</ele>
        <time>2022-07-23T10:44:17Z</time>
      </trkpt>
      <trkpt lat="45.72102" lon="6.45265">
        <ele>677</ele>
        <time>2022-07-23T10:44:18Z</time>
      </trkpt>
      <trkpt lat="45.72101" lon="6.45263">
        <ele>677</ele>
        <time>2022-07-23T10:44:19Z</time>
      </trkpt>
      <trkpt lat="45.721" lon="6.45262">
        <ele>677</ele>
        <time>2022-07-23T10:44:20Z</time>
      </trkpt>
      <trkpt lat="45.721" lon="6.45261">
        <ele>677</ele>
        <time>2022-07-23T10:44:21Z</time>
      </trkpt>
      <trkpt lat="45.72099" lon="6.4526">
        <ele>677</ele>
        <time>2022-07-23T10:44:22Z</time>
      </trkpt>
      <trkpt lat="45.72099" lon="6.45258">
        <ele>677</ele>
        <time>2022-07-23T10:44:23Z</time>
      </trkpt>
      <trkpt lat="45.72098" lon="6.45257">
        <ele>677</ele>
        <time>2022-07-23T10:44:24Z</time>
      </trkpt>
      <trkpt lat="45.72098" lon="6.45255">
        <ele>678</ele>
        <time>2022-07-23T10:44:25Z</time>
      </trkpt>
      <trkpt lat="45.72098" lon="6.45254">
        <ele>678</ele>
        <time>2022-07-23T10:44:26Z</time>
      </trkpt>
      <trkpt lat="45.72098" lon="6.45253">
        <ele>678</ele>
        <time>2022-07-23T10:44:27Z</time>
      </trkpt>
      <trkpt lat="45.72098" lon="6.45251">
        <ele>678</ele>
        <time>2022-07-23T10:44:28Z</time>
      </trkpt>
      <trkpt lat="45.72098" lon="6.4525">
        <ele>678</ele>
        <time>2022-07-23T10:44:29Z</time>
      </trkpt>
      <trkpt lat="45.72098" lon="6.45248">
        <ele>678</ele>
        <time>2022-07-23T10:44:30Z</time>
      </trkpt>
      <trkpt lat="45.72098" lon="6.45247">
        <ele>678</ele>
        <time>2022-07-23T10:44:31Z</time>
      </trkpt>
      <trkpt lat="45.72098" lon="6.45246">
        <ele>678</ele>
        <time>2022-07-23T10:44:32Z</time>
      </trkpt>
      <trkpt lat="45.72098" lon="6.45244">
        <ele>678</ele>
        <time>2022-07-23T10:44:33Z</time>
      </trkpt>
      <trkpt lat="45.72099" lon="6.45241">
        <ele>680</ele>
        <time>2022-07-23T10:45:02Z</time>
      </trkpt>
      <trkpt lat="45.721" lon="6.4524">
        <ele>680</ele>
        <time>2022-07-23T10:45:03Z</time>
      </trkpt>
      <trkpt lat="45.72101" lon="6.4524">
        <ele>680</ele>
        <time>2022-07-23T10:45:04Z</time>
      </trkpt>
      <trkpt lat="45.72101" lon="6.4524">
        <ele>680</ele>
        <time>2022-07-23T10:45:05Z</time>
      </trkpt>
      <trkpt lat="45.72102" lon="6.4524">
        <ele>680</ele>
        <time>2022-07-23T10:45:06Z</time>
      </trkpt>
      <trkpt lat="45.72103" lon="6.45241">
        <ele>680</ele>
        <time>2022-07-23T10:45:07Z</time>
      </trkpt>
      <trkpt lat="45.72103" lon="6.45241">
        <ele>680</ele>
        <time>2022-07-23T10:45:08Z</time>
      </trkpt>
      <trkpt lat="45.72104" lon="6.45242">
        <ele>680</ele>
        <time>2022-07-23T10:45:09Z</time>
      </trkpt>
      <trkpt lat="45.72105" lon="6.45243">
        <ele>680</ele>
        <time>2022-07-23T10:45:10Z</time>
      </trkpt>
      <trkpt lat="45.72105" lon="6.45244">
        <ele>680</ele>
        <time>2022-07-23T10:45:11Z</time>
      </trkpt>
      <trkpt lat="45.72106" lon="6.45245">
        <ele>680</ele>
        <time>2022-07-23T10:45:12Z</time>
      </trkpt>
      <trkpt lat="45.72106" lon="6.45246">
        <ele>680</ele>
        <time>2022-07-23T10:45:13Z</time>
      </trkpt>
      <trkpt lat="45.72107" lon="6.45247">
        <ele>680</ele>
        <time>2022-07-23T10:45:14Z</time>
      </trkpt>
      <trkpt lat="45.72107" lon="6.45248">
        <ele>680</ele>
        <time>2022-07-23T10:45:15Z</time>
      </trkpt>
      <trkpt lat="45.72108" lon="6.45249">
        <ele>680</ele>
        <time>2022-07-23T10:45:16Z</time>
      </trkpt>
      <trkpt lat="45.72108" lon="6.4525">
        <ele>680</ele>
        <time>2022-07-23T10:45:17Z</time>
      </trkpt>
      <trkpt lat="45.72109" lon="6.45251">
        <ele>680</ele>
        <time>2022-07-23T10:45:18Z</time>
      </trkpt>
      <trkpt lat="45.7211" lon="6.45252">
        <ele>680</ele>
        <time>2022-07-23T10:45:19Z</time>
      </trkpt>
      <trkpt lat="45.7211" lon="6.45253">
        <ele>680</ele>
        <time>2022-07-23T10:45:20Z</time>
      </trkpt>
      <trkpt lat="45.72111" lon="6.45254">
        <ele>680</ele>
        <time>2022-07-23T10:45:21Z</time>
      </trkpt>
      <trkpt lat="45.72112" lon="6.45255">
        <ele>680</ele>
        <time>2022-07-23T10:45:22Z</time>
      </trkpt>
      <trkpt lat="45.72113" lon="6.45256">
        <ele>681</ele>
        <time>2022-07-23T10:45:23Z</time>
      </trkpt>
      <trkpt lat="45.72114" lon="6.45256">
        <ele>681</ele>
        <time>2022-07-23T10:45:24Z</time>
      </trkpt>
      <trkpt lat="45.72114" lon="6.45258">
        <ele>682</ele>
        <time>2022-07-23T10:45:25Z</time>
      </trkpt>
      <trkpt lat="45.72115" lon="6.45259">
        <ele>682</ele>
        <time>2022-07-23T10:45:26Z</time>
      </trkpt>
      <trkpt lat="45.72115" lon="6.4526">
        <ele>682</ele>
        <time>2022-07-23T10:45:27Z</time>
      </trkpt>
      <trkpt lat="45.72116" lon="6.45261">
        <ele>682</ele>
        <time>2022-07-23T10:45:28Z</time>
      </trkpt>
      <trkpt lat="45.72117" lon="6.45262">
        <ele>682</ele>
        <time>2022-07-23T10:45:29Z</time>
      </trkpt>
      <trkpt lat="45.72117" lon="6.45263">
        <ele>682</ele>
        <time>2022-07-23T10:45:30Z</time>
      </trkpt>
      <trkpt lat="45.72118" lon="6.45265">
        <ele>682</ele>
        <time>2022-07-23T10:45:31Z</time>
      </trkpt>
      <trkpt lat="45.72118" lon="6.45266">
        <ele>682</ele>
        <time>2022-07-23T10:45:32Z</time>
      </trkpt>
      <trkpt lat="45.72118" lon="6.45267">
        <ele>682</ele>
        <time>2022-07-23T10:45:33Z</time>
      </trkpt>
      <trkpt lat="45.72119" lon="6.45268">
        <ele>682</ele>
        <time>2022-07-23T10:45:34Z</time>
      </trkpt>
      <trkpt lat="45.72119" lon="6.45269">
        <ele>683</ele>
        <time>2022-07-23T10:45:35Z</time>
      </trkpt>
      <trkpt lat="45.7212" lon="6.4527">
        <ele>683</ele>
        <time>2022-07-23T10:45:36Z</time>
      </trkpt>
      <trkpt lat="45.7212" lon="6.45271">
        <ele>683</ele>
        <time>2022-07-23T10:45:37Z</time>
      </trkpt>
      <trkpt lat="45.72121" lon="6.45272">
        <ele>683</ele>
        <time>2022-07-23T10:45:38Z</time>
      </trkpt>
      <trkpt lat="45.72121" lon="6.45273">
        <ele>683</ele>
        <time>2022-07-23T10:45:39Z</time>
      </trkpt>
      <trkpt lat="45.72122" lon="6.45273">
        <ele>683</ele>
        <time>2022-07-23T10:45:40Z</time>
      </trkpt>
      <trkpt lat="45.72123" lon="6.45274">
        <ele>683</ele>
        <time>2022-07-23T10:45:41Z</time>
      </trkpt>
      <trkpt lat="45.72124" lon="6.45275">
        <ele>683</ele>
        <time>2022-07-23T10:45:42Z</time>
      </trkpt>
      <trkpt lat="45.72124" lon="6.45276">
        <ele>683</ele>
        <time>2022-07-23T10:45:43Z</time>
      </trkpt>
      <trkpt lat="45.72125" lon="6.45277">
        <ele>683</ele>
        <time>2022-07-23T10:45:44Z</time>
      </trkpt>
      <trkpt lat="45.72126" lon="6.45278">
        <ele>684</ele>
        <time>2022-07-23T10:45:45Z</time>
      </trkpt>
      <trkpt lat="45.72127" lon="6.45279">
        <ele>684</ele>
        <time>2022-07-23T10:45:46Z</time>
      </trkpt>
      <trkpt lat="45.72128" lon="6.4528">
        <ele>684</ele>
        <time>2022-07-23T10:45:47Z</time>
      </trkpt>
      <trkpt lat="45.72129" lon="6.4528">
        <ele>684</ele>
        <time>2022-07-23T10:45:48Z</time>
      </trkpt>
      <trkpt lat="45.72129" lon="6.45281">
        <ele>684</ele>
        <time>2022-07-23T10:45:49Z</time>
      </trkpt>
      <trkpt lat="45.7213" lon="6.45282">
        <ele>684</ele>
        <time>2022-07-23T10:45:50Z</time>
      </trkpt>
      <trkpt lat="45.72131" lon="6.45282">
        <ele>684</ele>
        <time>2022-07-23T10:45:51Z</time>
      </trkpt>
      <trkpt lat="45.72132" lon="6.45283">
        <ele>684</ele>
        <time>2022-07-23T10:45:52Z</time>
      </trkpt>
      <trkpt lat="45.72133" lon="6.45283">
        <ele>684</ele>
        <time>2022-07-23T10:45:53Z</time>
      </trkpt>
      <trkpt lat="45.72134" lon="6.45284">
        <ele>684</ele>
        <time>2022-07-23T10:45:54Z</time>
      </trkpt>
      <trkpt lat="45.72135" lon="6.45284">
        <ele>684</ele>
        <time>2022-07-23T10:45:55Z</time>
      </trkpt>
      <trkpt lat="45.72136" lon="6.45284">
        <ele>684</ele>
        <time>2022-07-23T10:45:56Z</time>
      </trkpt>
      <trkpt lat="45.72136" lon="6.45284">
        <ele>684</ele>
        <time>2022-07-23T10:45:57Z</time>
      </trkpt>
      <trkpt lat="45.72137" lon="6.45284">
        <ele>684</ele>
        <time>2022-07-23T10:45:58Z</time>
      </trkpt>
      <trkpt lat="45.72138" lon="6.45284">
        <ele>684</ele>
        <time>2022-07-23T10:45:59Z</time>
      </trkpt>
      <trkpt lat="45.72138" lon="6.45283">
        <ele>685</ele>
        <time>2022-07-23T10:46:00Z</time>
      </trkpt>
      <trkpt lat="45.72138" lon="6.45282">
        <ele>685</ele>
        <time>2022-07-23T10:46:01Z</time>
      </trkpt>
      <trkpt lat="45.72138" lon="6.45281">
        <ele>685</ele>
        <time>2022-07-23T10:46:02Z</time>
      </trkpt>
      <trkpt lat="45.72138" lon="6.4528">
        <ele>685</ele>
        <time>2022-07-23T10:46:03Z</time>
      </trkpt>
      <trkpt lat="45.72137" lon="6.45279">
        <ele>685</ele>
        <time>2022-07-23T10:46:04Z</time>
      </trkpt>
      <trkpt lat="45.72137" lon="6.45277">
        <ele>685</ele>
        <time>2022-07-23T10:46:05Z</time>
      </trkpt>
      <trkpt lat="45.72136" lon="6.45276">
        <ele>685</ele>
        <time>2022-07-23T10:46:06Z</time>
      </trkpt>
      <trkpt lat="45.72135" lon="6.45275">
        <ele>685</ele>
        <time>2022-07-23T10:46:07Z</time>
      </trkpt>
      <trkpt lat="45.72135" lon="6.45273">
        <ele>685</ele>
        <time>2022-07-23T10:46:08Z</time>
      </trkpt>
      <trkpt lat="45.72136" lon="6.45272">
        <ele>687</ele>
        <time>2022-07-23T10:46:24Z</time>
      </trkpt>
      <trkpt lat="45.72136" lon="6.45271">
        <ele>688</ele>
        <time>2022-07-23T10:46:25Z</time>
      </trkpt>
      <trkpt lat="45.72137" lon="6.45271">
        <ele>688</ele>
        <time>2022-07-23T10:46:26Z</time>
      </trkpt>
      <trkpt lat="45.72138" lon="6.45271">
        <ele>688</ele>
        <time>2022-07-23T10:46:27Z</time>
      </trkpt>
      <trkpt lat="45.72138" lon="6.45271">
        <ele>688</ele>
        <time>2022-07-23T10:46:28Z</time>
      </trkpt>
      <trkpt lat="45.72139" lon="6.45271">
        <ele>688</ele>
        <time>2022-07-23T10:46:29Z</time>
      </trkpt>
      <trkpt lat="45.72139" lon="6.45272">
        <ele>689</ele>
        <time>2022-07-23T10:46:30Z</time>
      </trkpt>
      <trkpt lat="45.7214" lon="6.45272">
        <ele>689</ele>
        <time>2022-07-23T10:46:31Z</time>
      </trkpt>
      <trkpt lat="45.72141" lon="6.45272">
        <ele>689</ele>
        <time>2022-07-23T10:46:32Z</time>
      </trkpt>
      <trkpt lat="45.72142" lon="6.45273">
        <ele>689</ele>
        <time>2022-07-23T10:46:33Z</time>
      </trkpt>
      <trkpt lat="45.72142" lon="6.45273">
        <ele>689</ele>
        <time>2022-07-23T10:46:34Z</time>
      </trkpt>
      <trkpt lat="45.72143" lon="6.45274">
        <ele>690</ele>
        <time>2022-07-23T10:46:35Z</time>
      </trkpt>
      <trkpt lat="45.72144" lon="6.45275">
        <ele>690</ele>
        <time>2022-07-23T10:46:36Z</time>
      </trkpt>
      <trkpt lat="45.72147" lon="6.45277">
        <ele>692</ele>
        <time>2022-07-23T10:46:51Z</time>
      </trkpt>
      <trkpt lat="45.72149" lon="6.45277">
        <ele>692</ele>
        <time>2022-07-23T10:46:52Z</time>
      </trkpt>
      <trkpt lat="45.7215" lon="6.45278">
        <ele>692</ele>
        <time>2022-07-23T10:46:53Z</time>
      </trkpt>
      <trkpt lat="45.72151" lon="6.45278">
        <ele>692</ele>
        <time>2022-07-23T10:46:54Z</time>
      </trkpt>
      <trkpt lat="45.72152" lon="6.45279">
        <ele>693</ele>
        <time>2022-07-23T10:46:55Z</time>
      </trkpt>
      <trkpt lat="45.72153" lon="6.45279">
        <ele>693</ele>
        <time>2022-07-23T10:46:56Z</time>
      </trkpt>
      <trkpt lat="45.72154" lon="6.45279">
        <ele>693</ele>
        <time>2022-07-23T10:46:57Z</time>
      </trkpt>
      <trkpt lat="45.72155" lon="6.45278">
        <ele>695</ele>
        <time>2022-07-23T10:47:06Z</time>
      </trkpt>
      <trkpt lat="45.72156" lon="6.45278">
        <ele>695</ele>
        <time>2022-07-23T10:47:07Z</time>
      </trkpt>
      <trkpt lat="45.72156" lon="6.45277">
        <ele>695</ele>
        <time>2022-07-23T10:47:08Z</time>
      </trkpt>
      <trkpt lat="45.72156" lon="6.45277">
        <ele>695</ele>
        <time>2022-07-23T10:47:09Z</time>
      </trkpt>
      <trkpt lat="45.72156" lon="6.45277">
        <ele>696</ele>
        <time>2022-07-23T10:47:10Z</time>
      </trkpt>
      <trkpt lat="45.72155" lon="6.45276">
        <ele>696</ele>
        <time>2022-07-23T10:47:11Z</time>
      </trkpt>
      <trkpt lat="45.72155" lon="6.45276">
        <ele>696</ele>
        <time>2022-07-23T10:47:12Z</time>
      </trkpt>
      <trkpt lat="45.72154" lon="6.45275">
        <ele>696</ele>
        <time>2022-07-23T10:47:13Z</time>
      </trkpt>
      <trkpt lat="45.72153" lon="6.45275">
        <ele>696</ele>
        <time>2022-07-23T10:47:14Z</time>
      </trkpt>
      <trkpt lat="45.72153" lon="6.45274">
        <ele>697</ele>
        <time>2022-07-23T10:47:15Z</time>
      </trkpt>
      <trkpt lat="45.72153" lon="6.45274">
        <ele>697</ele>
        <time>2022-07-23T10:47:16Z</time>
      </trkpt>
      <trkpt lat="45.72152" lon="6.45272">
        <ele>698</ele>
        <time>2022-07-23T10:47:22Z</time>
      </trkpt>
      <trkpt lat="45.72152" lon="6.45272">
        <ele>699</ele>
        <time>2022-07-23T10:47:23Z</time>
      </trkpt>
      <trkpt lat="45.72152" lon="6.45271">
        <ele>699</ele>
        <time>2022-07-23T10:47:24Z</time>
      </trkpt>
      <trkpt lat="45.72152" lon="6.45271">
        <ele>700</ele>
        <time>2022-07-23T10:47:25Z</time>
      </trkpt>
      <trkpt lat="45.72151" lon="6.4527">
        <ele>700</ele>
        <time>2022-07-23T10:47:26Z</time>
      </trkpt>
      <trkpt lat="45.72151" lon="6.4527">
        <ele>700</ele>
        <time>2022-07-23T10:47:27Z</time>
      </trkpt>
      <trkpt lat="45.72151" lon="6.45269">
        <ele>700</ele>
        <time>2022-07-23T10:47:28Z</time>
      </trkpt>
      <trkpt lat="45.72151" lon="6.45268">
        <ele>700</ele>
        <time>2022-07-23T10:47:29Z</time>
      </trkpt>
      <trkpt lat="45.72151" lon="6.45268">
        <ele>700</ele>
        <time>2022-07-23T10:47:30Z</time>
      </trkpt>
      <trkpt lat="45.72151" lon="6.45267">
        <ele>700</ele>
        <time>2022-07-23T10:47:31Z</time>
      </trkpt>
      <trkpt lat="45.72152" lon="6.45266">
        <ele>703</ele>
        <time>2022-07-23T10:48:11Z</time>
      </trkpt>
      <trkpt lat="45.72153" lon="6.45266">
        <ele>703</ele>
        <time>2022-07-23T10:48:12Z</time>
      </trkpt>
      <trkpt lat="45.72154" lon="6.45265">
        <ele>703</ele>
        <time>2022-07-23T10:48:13Z</time>
      </trkpt>
      <trkpt lat="45.72155" lon="6.45265">
        <ele>703</ele>
        <time>2022-07-23T10:48:14Z</time>
      </trkpt>
      <trkpt lat="45.72156" lon="6.45265">
        <ele>703</ele>
        <time>2022-07-23T10:48:15Z</time>
      </trkpt>
      <trkpt lat="45.72157" lon="6.45266">
        <ele>703</ele>
        <time>2022-07-23T10:48:16Z</time>
      </trkpt>
      <trkpt lat="45.72158" lon="6.45266">
        <ele>703</ele>
        <time>2022-07-23T10:48:17Z</time>
      </trkpt>
      <trkpt lat="45.72159" lon="6.45267">
        <ele>703</ele>
        <time>2022-07-23T10:48:18Z</time>
      </trkpt>
      <trkpt lat="45.7216" lon="6.45267">
        <ele>703</ele>
        <time>2022-07-23T10:48:19Z</time>
      </trkpt>
      <trkpt lat="45.72161" lon="6.45267">
        <ele>703</ele>
        <time>2022-07-23T10:48:20Z</time>
      </trkpt>
      <trkpt lat="45.72162" lon="6.45268">
        <ele>703</ele>
        <time>2022-07-23T10:48:21Z</time>
      </trkpt>
      <trkpt lat="45.72163" lon="6.45268">
        <ele>703</ele>
        <time>2022-07-23T10:48:22Z</time>
      </trkpt>
      <trkpt lat="45.72164" lon="6.45269">
        <ele>703</ele>
        <time>2022-07-23T10:48:23Z</time>
      </trkpt>
      <trkpt lat="45.72165" lon="6.45269">
        <ele>703</ele>
        <time>2022-07-23T10:48:24Z</time>
      </trkpt>
      <trkpt lat="45.72165" lon="6.4527">
        <ele>703</ele>
        <time>2022-07-23T10:48:25Z</time>
      </trkpt>
      <trkpt lat="45.72166" lon="6.45271">
        <ele>703</ele>
        <time>2022-07-23T10:48:26Z</time>
      </trkpt>
      <trkpt lat="45.72167" lon="6.45272">
        <ele>703</ele>
        <time>2022-07-23T10:48:27Z</time>
      </trkpt>
      <trkpt lat="45.72167" lon="6.45273">
        <ele>703</ele>
        <time>2022-07-23T10:48:28Z</time>
      </trkpt>
      <trkpt lat="45.72167" lon="6.45274">
        <ele>703</ele>
        <time>2022-07-23T10:48:29Z</time>
      </trkpt>
      <trkpt lat="45.72168" lon="6.45275">
        <ele>703</ele>
        <time>2022-07-23T10:48:30Z</time>
      </trkpt>
      <trkpt lat="45.72168" lon="6.45277">
        <ele>703</ele>
        <time>2022-07-23T10:48:31Z</time>
      </trkpt>
      <trkpt lat="45.72169" lon="6.45278">
        <ele>703</ele>
        <time>2022-07-23T10:48:32Z</time>
      </trkpt>
      <trkpt lat="45.72169" lon="6.45279">
        <ele>703</ele>
        <time>2022-07-23T10:48:33Z</time>
      </trkpt>
      <trkpt lat="45.7217" lon="6.4528">
        <ele>703</ele>
        <time>2022-07-23T10:48:34Z</time>
      </trkpt>
      <trkpt lat="45.7217" lon="6.45281">
        <ele>704</ele>
        <time>2022-07-23T10:48:35Z</time>
      </trkpt>
      <trkpt lat="45.72171" lon="6.45283">
        <ele>704</ele>
        <time>2022-07-23T10:48:36Z</time>
      </trkpt>
      <trkpt lat="45.72172" lon="6.45284">
        <ele>704</ele>
        <time>2022-07-23T10:48:37Z</time>
      </trkpt>
      <trkpt lat="45.72172" lon="6.45285">
        <ele>704</ele>
        <time>2022-07-23T10:48:38Z</time>
      </trkpt>
      <trkpt lat="45.72173" lon="6.45285">
        <ele>704</ele>
        <time>2022-07-23T10:48:39Z</time>
      </trkpt>
      <trkpt lat="45.72173" lon="6.45286">
        <ele>704</ele>
        <time>2022-07-23T10:48:40Z</time>
      </trkpt>
      <trkpt lat="45.72174" lon="6.45287">
        <ele>704</ele>
        <time>2022-07-23T10:48:41Z</time>
      </trkpt>
      <trkpt lat="45.72175" lon="6.45288">
        <ele>704</ele>
        <time>2022-07-23T10:48:42Z</time>
      </trkpt>
      <trkpt lat="45.72175" lon="6.45289">
        <ele>704</ele>
        <time>2022-07-23T10:48:43Z</time>
      </trkpt>
      <trkpt lat="45.72176" lon="6.4529">
        <ele>704</ele>
        <time>2022-07-23T10:48:44Z</time>
      </trkpt>
      <trkpt lat="45.72177" lon="6.45291">
        <ele>704</ele>
        <time>2022-07-23T10:48:45Z</time>
      </trkpt>
      <trkpt lat="45.72178" lon="6.45291">
        <ele>704</ele>
        <time>2022-07-23T10:48:46Z</time>
      </trkpt>
      <trkpt lat="45.72178" lon="6.45292">
        <ele>704</ele>
        <time>2022-07-23T10:48:47Z</time>
      </trkpt>
      <trkpt lat="45.72179" lon="6.45293">
        <ele>704</ele>
        <time>2022-07-23T10:48:48Z</time>
      </trkpt>
      <trkpt lat="45.7218" lon="6.45294">
        <ele>704</ele>
        <time>2022-07-23T10:48:49Z</time>
      </trkpt>
      <trkpt lat="45.7218" lon="6.45295">
        <ele>705</ele>
        <time>2022-07-23T10:48:50Z</time>
      </trkpt>
      <trkpt lat="45.72181" lon="6.45296">
        <ele>705</ele>
        <time>2022-07-23T10:48:51Z</time>
      </trkpt>
      <trkpt lat="45.72182" lon="6.45297">
        <ele>705</ele>
        <time>2022-07-23T10:48:52Z</time>
      </trkpt>
      <trkpt lat="45.72182" lon="6.45298">
        <ele>705</ele>
        <time>2022-07-23T10:48:53Z</time>
      </trkpt>
      <trkpt lat="45.72183" lon="6.45298">
        <ele>705</ele>
        <time>2022-07-23T10:48:54Z</time>
      </trkpt>
      <trkpt lat="45.72184" lon="6.45299">
        <ele>705</ele>
        <time>2022-07-23T10:48:55Z</time>
      </trkpt>
      <trkpt lat="45.72185" lon="6.453">
        <ele>705</ele>
        <time>2022-07-23T10:48:56Z</time>
      </trkpt>
      <trkpt lat="45.72185" lon="6.45301">
        <ele>705</ele>
        <time>2022-07-23T10:48:57Z</time>
      </trkpt>
      <trkpt lat="45.72186" lon="6.45302">
        <ele>705</ele>
        <time>2022-07-23T10:48:58Z</time>
      </trkpt>
      <trkpt lat="45.72186" lon="6.45303">
        <ele>705</ele>
        <time>2022-07-23T10:48:59Z</time>
      </trkpt>
      <trkpt lat="45.72187" lon="6.45304">
        <ele>706</ele>
        <time>2022-07-23T10:49:00Z</time>
      </trkpt>
      <trkpt lat="45.72188" lon="6.45305">
        <ele>706</ele>
        <time>2022-07-23T10:49:01Z</time>
      </trkpt>
      <trkpt lat="45.72188" lon="6.45306">
        <ele>706</ele>
        <time>2022-07-23T10:49:02Z</time>
      </trkpt>
      <trkpt lat="45.72188" lon="6.45307">
        <ele>706</ele>
        <time>2022-07-23T10:49:03Z</time>
      </trkpt>
      <trkpt lat="45.72189" lon="6.45308">
        <ele>706</ele>
        <time>2022-07-23T10:49:04Z</time>
      </trkpt>
      <trkpt lat="45.72189" lon="6.45309">
        <ele>707</ele>
        <time>2022-07-23T10:49:05Z</time>
      </trkpt>
      <trkpt lat="45.72189" lon="6.4531">
        <ele>707</ele>
        <time>2022-07-23T10:49:06Z</time>
      </trkpt>
      <trkpt lat="45.7219" lon="6.45311">
        <ele>707</ele>
        <time>2022-07-23T10:49:07Z</time>
      </trkpt>
      <trkpt lat="45.7219" lon="6.45312">
        <ele>707</ele>
        <time>2022-07-23T10:49:08Z</time>
      </trkpt>
      <trkpt lat="45.7219" lon="6.45314">
        <ele>707</ele>
        <time>2022-07-23T10:49:09Z</time>
      </trkpt>
      <trkpt lat="45.72191" lon="6.45315">
        <ele>707</ele>
        <time>2022-07-23T10:49:10Z</time>
      </trkpt>
      <trkpt lat="45.72191" lon="6.45316">
        <ele>707</ele>
        <time>2022-07-23T10:49:11Z</time>
      </trkpt>
      <trkpt lat="45.72192" lon="6.45317">
        <ele>707</ele>
        <time>2022-07-23T10:49:12Z</time>
      </trkpt>
      <trkpt lat="45.72192" lon="6.45318">
        <ele>707</ele>
        <time>2022-07-23T10:49:13Z</time>
      </trkpt>
      <trkpt lat="45.72193" lon="6.45319">
        <ele>707</ele>
        <time>2022-07-23T10:49:14Z</time>
      </trkpt>
      <trkpt lat="45.72193" lon="6.4532">
        <ele>707</ele>
        <time>2022-07-23T10:49:15Z</time>
      </trkpt>
      <trkpt lat="45.72193" lon="6.4532">
        <ele>707</ele>
        <time>2022-07-23T10:49:16Z</time>
      </trkpt>
      <trkpt lat="45.72194" lon="6.45321">
        <ele>707</ele>
        <time>2022-07-23T10:49:17Z</time>
      </trkpt>
      <trkpt lat="45.72195" lon="6.45322">
        <ele>707</ele>
        <time>2022-07-23T10:49:18Z</time>
      </trkpt>
      <trkpt lat="45.72196" lon="6.45323">
        <ele>707</ele>
        <time>2022-07-23T10:49:19Z</time>
      </trkpt>
      <trkpt lat="45.72197" lon="6.45324">
        <ele>707</ele>
        <time>2022-07-23T10:49:20Z</time>
      </trkpt>
      <trkpt lat="45.72198" lon="6.45324">
        <ele>707</ele>
        <time>2022-07-23T10:49:21Z</time>
      </trkpt>
      <trkpt lat="45.72199" lon="6.45325">
        <ele>707</ele>
        <time>2022-07-23T10:49:22Z</time>
      </trkpt>
      <trkpt lat="45.722" lon="6.45326">
        <ele>707</ele>
        <time>2022-07-23T10:49:23Z</time>
      </trkpt>
      <trkpt lat="45.72201" lon="6.45327">
        <ele>707</ele>
        <time>2022-07-23T10:49:24Z</time>
      </trkpt>
      <trkpt lat="45.72202" lon="6.45328">
        <ele>708</ele>
        <time>2022-07-23T10:49:25Z</time>
      </trkpt>
      <trkpt lat="45.72202" lon="6.45329">
        <ele>708</ele>
        <time>2022-07-23T10:49:26Z</time>
      </trkpt>
      <trkpt lat="45.72203" lon="6.4533">
        <ele>708</ele>
        <time>2022-07-23T10:49:27Z</time>
      </trkpt>
      <trkpt lat="45.72203" lon="6.45331">
        <ele>708</ele>
        <time>2022-07-23T10:49:28Z</time>
      </trkpt>
      <trkpt lat="45.72204" lon="6.45332">
        <ele>708</ele>
        <time>2022-07-23T10:49:29Z</time>
      </trkpt>
      <trkpt lat="45.72205" lon="6.45333">
        <ele>708</ele>
        <time>2022-07-23T10:49:30Z</time>
      </trkpt>
      <trkpt lat="45.72206" lon="6.45333">
        <ele>708</ele>
        <time>2022-07-23T10:49:31Z</time>
      </trkpt>
      <trkpt lat="45.72206" lon="6.45334">
        <ele>708</ele>
        <time>2022-07-23T10:49:32Z</time>
      </trkpt>
      <trkpt lat="45.72207" lon="6.45335">
        <ele>708</ele>
        <time>2022-07-23T10:49:33Z</time>
      </trkpt>
      <trkpt lat="45.72208" lon="6.45337">
        <ele>708</ele>
        <time>2022-07-23T10:49:34Z</time>
      </trkpt>
      <trkpt lat="45.72209" lon="6.45338">
        <ele>708</ele>
        <time>2022-07-23T10:49:35Z</time>
      </trkpt>
      <trkpt lat="45.72209" lon="6.45339">
        <ele>708</ele>
        <time>2022-07-23T10:49:36Z</time>
      </trkpt>
      <trkpt lat="45.7221" lon="6.45341">
        <ele>708</ele>
        <time>2022-07-23T10:49:37Z</time>
      </trkpt>
      <trkpt lat="45.7221" lon="6.45342">
        <ele>708</ele>
        <time>2022-07-23T10:49:38Z</time>
      </trkpt>
      <trkpt lat="45.72211" lon="6.45344">
        <ele>708</ele>
        <time>2022-07-23T10:49:39Z</time>
      </trkpt>
      <trkpt lat="45.72211" lon="6.45345">
        <ele>709</ele>
        <time>2022-07-23T10:49:40Z</time>
      </trkpt>
      <trkpt lat="45.72211" lon="6.45347">
        <ele>709</ele>
        <time>2022-07-23T10:49:41Z</time>
      </trkpt>
      <trkpt lat="45.72211" lon="6.45348">
        <ele>709</ele>
        <time>2022-07-23T10:49:42Z</time>
      </trkpt>
      <trkpt lat="45.72211" lon="6.45349">
        <ele>709</ele>
        <time>2022-07-23T10:49:43Z</time>
      </trkpt>
      <trkpt lat="45.72211" lon="6.4535">
        <ele>709</ele>
        <time>2022-07-23T10:49:44Z</time>
      </trkpt>
      <trkpt lat="45.72212" lon="6.45351">
        <ele>709</ele>
        <time>2022-07-23T10:49:45Z</time>
      </trkpt>
      <trkpt lat="45.72212" lon="6.45352">
        <ele>709</ele>
        <time>2022-07-23T10:49:46Z</time>
      </trkpt>
      <trkpt lat="45.72212" lon="6.45353">
        <ele>709</ele>
        <time>2022-07-23T10:49:47Z</time>
      </trkpt>
      <trkpt lat="45.72214" lon="6.45355">
        <ele>710</ele>
        <time>2022-07-23T10:49:57Z</time>
      </trkpt>
      <trkpt lat="45.72215" lon="6.45356">
        <ele>710</ele>
        <time>2022-07-23T10:49:58Z</time>
      </trkpt>
      <trkpt lat="45.72216" lon="6.45357">
        <ele>710</ele>
        <time>2022-07-23T10:49:59Z</time>
      </trkpt>
      <trkpt lat="45.72216" lon="6.45358">
        <ele>710</ele>
        <time>2022-07-23T10:50:00Z</time>
      </trkpt>
      <trkpt lat="45.72217" lon="6.45359">
        <ele>710</ele>
        <time>2022-07-23T10:50:01Z</time>
      </trkpt>
      <trkpt lat="45.72218" lon="6.4536">
        <ele>710</ele>
        <time>2022-07-23T10:50:02Z</time>
      </trkpt>
      <trkpt lat="45.72219" lon="6.45361">
        <ele>710</ele>
        <time>2022-07-23T10:50:03Z</time>
      </trkpt>
      <trkpt lat="45.72219" lon="6.45361">
        <ele>710</ele>
        <time>2022-07-23T10:50:04Z</time>
      </trkpt>
      <trkpt lat="45.7222" lon="6.45361">
        <ele>711</ele>
        <time>2022-07-23T10:50:05Z</time>
      </trkpt>
      <trkpt lat="45.7222" lon="6.45362">
        <ele>711</ele>
        <time>2022-07-23T10:50:06Z</time>
      </trkpt>
      <trkpt lat="45.7222" lon="6.45362">
        <ele>711</ele>
        <time>2022-07-23T10:50:07Z</time>
      </trkpt>
      <trkpt lat="45.72221" lon="6.45363">
        <ele>711</ele>
        <time>2022-07-23T10:50:08Z</time>
      </trkpt>
      <trkpt lat="45.72221" lon="6.45363">
        <ele>711</ele>
        <time>2022-07-23T10:50:09Z</time>
      </trkpt>
      <trkpt lat="45.72221" lon="6.45364">
        <ele>711</ele>
        <time>2022-07-23T10:50:10Z</time>
      </trkpt>
      <trkpt lat="45.7222" lon="6.45364">
        <ele>711</ele>
        <time>2022-07-23T10:50:11Z</time>
      </trkpt>
      <trkpt lat="45.7222" lon="6.45365">
        <ele>711</ele>
        <time>2022-07-23T10:50:12Z</time>
      </trkpt>
      <trkpt lat="45.7222" lon="6.45365">
        <ele>711</ele>
        <time>2022-07-23T10:50:13Z</time>
      </trkpt>
      <trkpt lat="45.72219" lon="6.45365">
        <ele>711</ele>
        <time>2022-07-23T10:50:14Z</time>
      </trkpt>
      <trkpt lat="45.72219" lon="6.45365">
        <ele>712</ele>
        <time>2022-07-23T10:50:15Z</time>
      </trkpt>
      <trkpt lat="45.72218" lon="6.45365">
        <ele>712</ele>
        <time>2022-07-23T10:50:24Z</time>
      </trkpt>
      <trkpt lat="45.72217" lon="6.45364">
        <ele>713</ele>
        <time>2022-07-23T10:50:25Z</time>
      </trkpt>
      <trkpt lat="45.72217" lon="6.45364">
        <ele>713</ele>
        <time>2022-07-23T10:50:26Z</time>
      </trkpt>
      <trkpt lat="45.72215" lon="6.45362">
        <ele>714</ele>
        <time>2022-07-23T10:50:35Z</time>
      </trkpt>
      <trkpt lat="45.72215" lon="6.45361">
        <ele>714</ele>
        <time>2022-07-23T10:50:36Z</time>
      </trkpt>
      <trkpt lat="45.72214" lon="6.45359">
        <ele>714</ele>
        <time>2022-07-23T10:50:37Z</time>
      </trkpt>
      <trkpt lat="45.72214" lon="6.45358">
        <ele>714</ele>
        <time>2022-07-23T10:50:38Z</time>
      </trkpt>
      <trkpt lat="45.72214" lon="6.45357">
        <ele>714</ele>
        <time>2022-07-23T10:50:39Z</time>
      </trkpt>
      <trkpt lat="45.72213" lon="6.45356">
        <ele>714</ele>
        <time>2022-07-23T10:50:40Z</time>
      </trkpt>
      <trkpt lat="45.72213" lon="6.45355">
        <ele>714</ele>
        <time>2022-07-23T10:50:41Z</time>
      </trkpt>
      <trkpt lat="45.72213" lon="6.45355">
        <ele>714</ele>
        <time>2022-07-23T10:50:42Z</time>
      </trkpt>
      <trkpt lat="45.72213" lon="6.45354">
        <ele>714</ele>
        <time>2022-07-23T10:50:43Z</time>
      </trkpt>
      <trkpt lat="45.72212" lon="6.45353">
        <ele>714</ele>
        <time>2022-07-23T10:50:44Z</time>
      </trkpt>
      <trkpt lat="45.72212" lon="6.45351">
        <ele>715</ele>
        <time>2022-07-23T10:50:45Z</time>
      </trkpt>
      <trkpt lat="45.72212" lon="6.4535">
        <ele>715</ele>
        <time>2022-07-23T10:50:46Z</time>
      </trkpt>
      <trkpt lat="45.72211" lon="6.45349">
        <ele>715</ele>
        <time>2022-07-23T10:50:47Z</time>
      </trkpt>
      <trkpt lat="45.72211" lon="6.45348">
        <ele>715</ele>
        <time>2022-07-23T10:50:48Z</time>
      </trkpt>
      <trkpt lat="45.7221" lon="6.45347">
        <ele>715</ele>
        <time>2022-07-23T10:50:49Z</time>
      </trkpt>
      <trkpt lat="45.7221" lon="6.45345">
        <ele>716</ele>
        <time>2022-07-23T10:50:50Z</time>
      </trkpt>
      <trkpt lat="45.7221" lon="6.45344">
        <ele>716</ele>
        <time>2022-07-23T10:50:51Z</time>
      </trkpt>
      <trkpt lat="45.72209" lon="6.45343">
        <ele>716</ele>
        <time>2022-07-23T10:50:52Z</time>
      </trkpt>
      <trkpt lat="45.72209" lon="6.45342">
        <ele>717</ele>
        <time>2022-07-23T10:50:53Z</time>
      </trkpt>
      <trkpt lat="45.72209" lon="6.4534">
        <ele>717</ele>
        <time>2022-07-23T10:50:54Z</time>
      </trkpt>
      <trkpt lat="45.72208" lon="6.45339">
        <ele>718</ele>
        <time>2022-07-23T10:50:55Z</time>
      </trkpt>
      <trkpt lat="45.72208" lon="6.45338">
        <ele>718</ele>
        <time>2022-07-23T10:50:56Z</time>
      </trkpt>
      <trkpt lat="45.72207" lon="6.45337">
        <ele>718</ele>
        <time>2022-07-23T10:50:57Z</time>
      </trkpt>
      <trkpt lat="45.72206" lon="6.45333">
        <ele>720</ele>
        <time>2022-07-23T10:51:14Z</time>
      </trkpt>
      <trkpt lat="45.72205" lon="6.45331">
        <ele>721</ele>
        <time>2022-07-23T10:51:15Z</time>
      </trkpt>
      <trkpt lat="45.72205" lon="6.45329">
        <ele>721</ele>
        <time>2022-07-23T10:51:16Z</time>
      </trkpt>
      <trkpt lat="45.72204" lon="6.45327">
        <ele>721</ele>
        <time>2022-07-23T10:51:17Z</time>
      </trkpt>
      <trkpt lat="45.72203" lon="6.45326">
        <ele>721</ele>
        <time>2022-07-23T10:51:18Z</time>
      </trkpt>
      <trkpt lat="45.72203" lon="6.45325">
        <ele>721</ele>
        <time>2022-07-23T10:51:19Z</time>
      </trkpt>
      <trkpt lat="45.72202" lon="6.45324">
        <ele>721</ele>
        <time>2022-07-23T10:51:20Z</time>
      </trkpt>
      <trkpt lat="45.72201" lon="6.45321">
        <ele>723</ele>
        <time>2022-07-23T10:51:45Z</time>
      </trkpt>
      <trkpt lat="45.722" lon="6.4532">
        <ele>723</ele>
        <time>2022-07-23T10:51:46Z</time>
      </trkpt>
      <trkpt lat="45.72199" lon="6.45319">
        <ele>723</ele>
        <time>2022-07-23T10:51:47Z</time>
      </trkpt>
      <trkpt lat="45.72199" lon="6.45318">
        <ele>723</ele>
        <time>2022-07-23T10:51:48Z</time>
      </trkpt>
      <trkpt lat="45.72198" lon="6.45317">
        <ele>723</ele>
        <time>2022-07-23T10:51:49Z</time>
      </trkpt>
      <trkpt lat="45.72198" lon="6.45317">
        <ele>723</ele>
        <time>2022-07-23T10:51:50Z</time>
      </trkpt>
      <trkpt lat="45.72197" lon="6.45316">
        <ele>723</ele>
        <time>2022-07-23T10:51:51Z</time>
      </trkpt>
      <trkpt lat="45.72197" lon="6.45315">
        <ele>723</ele>
        <time>2022-07-23T10:51:52Z</time>
      </trkpt>
      <trkpt lat="45.72196" lon="6.45314">
        <ele>723</ele>
        <time>2022-07-23T10:51:53Z</time>
      </trkpt>
      <trkpt lat="45.72196" lon="6.45313">
        <ele>723</ele>
        <time>2022-07-23T10:51:54Z</time>
      </trkpt>
      <trkpt lat="45.72196" lon="6.45312">
        <ele>723</ele>
        <time>2022-07-23T10:51:55Z</time>
      </trkpt>
      <trkpt lat="45.72196" lon="6.4531">
        <ele>723</ele>
        <time>2022-07-23T10:51:56Z</time>
      </trkpt>
      <trkpt lat="45.72195" lon="6.45309">
        <ele>723</ele>
        <time>2022-07-23T10:51:57Z</time>
      </trkpt>
      <trkpt lat="45.72195" lon="6.45308">
        <ele>723</ele>
        <time>2022-07-23T10:51:58Z</time>
      </trkpt>
      <trkpt lat="45.72195" lon="6.45307">
        <ele>723</ele>
        <time>2022-07-23T10:51:59Z</time>
      </trkpt>
      <trkpt lat="45.72195" lon="6.45306">
        <ele>723</ele>
        <time>2022-07-23T10:52:00Z</time>
      </trkpt>
      <trkpt lat="45.72195" lon="6.45305">
        <ele>723</ele>
        <time>2022-07-23T10:52:01Z</time>
      </trkpt>
      <trkpt lat="45.72195" lon="6.45305">
        <ele>723</ele>
        <time>2022-07-23T10:52:02Z</time>
      </trkpt>
      <trkpt lat="45.72195" lon="6.45304">
        <ele>723</ele>
        <time>2022-07-23T10:52:03Z</time>
      </trkpt>
      <trkpt lat="45.72195" lon="6.45303">
        <ele>723</ele>
        <time>2022-07-23T10:52:04Z</time>
      </trkpt>
      <trkpt lat="45.72195" lon="6.45302">
        <ele>724</ele>
        <time>2022-07-23T10:52:05Z</time>
      </trkpt>
      <trkpt lat="45.72195" lon="6.45301">
        <ele>724</ele>
        <time>2022-07-23T10:52:06Z</time>
      </trkpt>
      <trkpt lat="45.72195" lon="6.45301">
        <ele>724</ele>
        <time>2022-07-23T10:52:07Z</time>
      </trkpt>
      <trkpt lat="45.72195" lon="6.453">
        <ele>724</ele>
        <time>2022-07-23T10:52:08Z</time>
      </trkpt>
      <trkpt lat="45.72195" lon="6.45299">
        <ele>724</ele>
        <time>2022-07-23T10:52:09Z</time>
      </trkpt>
      <trkpt lat="45.72195" lon="6.45299">
        <ele>725</ele>
        <time>2022-07-23T10:52:10Z</time>
      </trkpt>
      <trkpt lat="45.72195" lon="6.45298">
        <ele>725</ele>
        <time>2022-07-23T10:52:11Z</time>
      </trkpt>
      <trkpt lat="45.72195" lon="6.45297">
        <ele>725</ele>
        <time>2022-07-23T10:52:12Z</time>
      </trkpt>
      <trkpt lat="45.72194" lon="6.45296">
        <ele>725</ele>
        <time>2022-07-23T10:52:18Z</time>
      </trkpt>
      <trkpt lat="45.72193" lon="6.45296">
        <ele>725</ele>
        <time>2022-07-23T10:52:19Z</time>
      </trkpt>
      <trkpt lat="45.72193" lon="6.45295">
        <ele>726</ele>
        <time>2022-07-23T10:52:20Z</time>
      </trkpt>
      <trkpt lat="45.72192" lon="6.45294">
        <ele>726</ele>
        <time>2022-07-23T10:52:21Z</time>
      </trkpt>
      <trkpt lat="45.72192" lon="6.45294">
        <ele>726</ele>
        <time>2022-07-23T10:52:22Z</time>
      </trkpt>
      <trkpt lat="45.72191" lon="6.45293">
        <ele>726</ele>
        <time>2022-07-23T10:52:23Z</time>
      </trkpt>
      <trkpt lat="45.72191" lon="6.45292">
        <ele>726</ele>
        <time>2022-07-23T10:52:24Z</time>
      </trkpt>
      <trkpt lat="45.72191" lon="6.45291">
        <ele>726</ele>
        <time>2022-07-23T10:52:25Z</time>
      </trkpt>
      <trkpt lat="45.7219" lon="6.4529">
        <ele>726</ele>
        <time>2022-07-23T10:52:26Z</time>
      </trkpt>
      <trkpt lat="45.7219" lon="6.45289">
        <ele>726</ele>
        <time>2022-07-23T10:52:27Z</time>
      </trkpt>
      <trkpt lat="45.7219" lon="6.45289">
        <ele>726</ele>
        <time>2022-07-23T10:52:28Z</time>
      </trkpt>
      <trkpt lat="45.72189" lon="6.45288">
        <ele>726</ele>
        <time>2022-07-23T10:52:29Z</time>
      </trkpt>
      <trkpt lat="45.72189" lon="6.45287">
        <ele>727</ele>
        <time>2022-07-23T10:52:30Z</time>
      </trkpt>
      <trkpt lat="45.72189" lon="6.45285">
        <ele>727</ele>
        <time>2022-07-23T10:52:31Z</time>
      </trkpt>
      <trkpt lat="45.72189" lon="6.45284">
        <ele>727</ele>
        <time>2022-07-23T10:52:32Z</time>
      </trkpt>
      <trkpt lat="45.72188" lon="6.45283">
        <ele>727</ele>
        <time>2022-07-23T10:52:33Z</time>
      </trkpt>
      <trkpt lat="45.72188" lon="6.45281">
        <ele>727</ele>
        <time>2022-07-23T10:52:34Z</time>
      </trkpt>
      <trkpt lat="45.72188" lon="6.4528">
        <ele>727</ele>
        <time>2022-07-23T10:52:35Z</time>
      </trkpt>
      <trkpt lat="45.72188" lon="6.45279">
        <ele>727</ele>
        <time>2022-07-23T10:52:36Z</time>
      </trkpt>
      <trkpt lat="45.72187" lon="6.45278">
        <ele>727</ele>
        <time>2022-07-23T10:52:37Z</time>
      </trkpt>
      <trkpt lat="45.72187" lon="6.45276">
        <ele>727</ele>
        <time>2022-07-23T10:52:38Z</time>
      </trkpt>
      <trkpt lat="45.72187" lon="6.45276">
        <ele>727</ele>
        <time>2022-07-23T10:52:39Z</time>
      </trkpt>
      <trkpt lat="45.72186" lon="6.45275">
        <ele>728</ele>
        <time>2022-07-23T10:52:40Z</time>
      </trkpt>
      <trkpt lat="45.72186" lon="6.45274">
        <ele>728</ele>
        <time>2022-07-23T10:52:41Z</time>
      </trkpt>
      <trkpt lat="45.72186" lon="6.45273">
        <ele>728</ele>
        <time>2022-07-23T10:52:42Z</time>
      </trkpt>
      <trkpt lat="45.72185" lon="6.45272">
        <ele>728</ele>
        <time>2022-07-23T10:52:43Z</time>
      </trkpt>
      <trkpt lat="45.72185" lon="6.45271">
        <ele>728</ele>
        <time>2022-07-23T10:52:44Z</time>
      </trkpt>
      <trkpt lat="45.72185" lon="6.4527">
        <ele>728</ele>
        <time>2022-07-23T10:52:45Z</time>
      </trkpt>
      <trkpt lat="45.72184" lon="6.45269">
        <ele>728</ele>
        <time>2022-07-23T10:52:46Z</time>
      </trkpt>
      <trkpt lat="45.72184" lon="6.45268">
        <ele>728</ele>
        <time>2022-07-23T10:52:47Z</time>
      </trkpt>
      <trkpt lat="45.72184" lon="6.45267">
        <ele>728</ele>
        <time>2022-07-23T10:52:48Z</time>
      </trkpt>
      <trkpt lat="45.72185" lon="6.45266">
        <ele>730</ele>
        <time>2022-07-23T10:53:03Z</time>
      </trkpt>
      <trkpt lat="45.72186" lon="6.45265">
        <ele>730</ele>
        <time>2022-07-23T10:53:04Z</time>
      </trkpt>
      <trkpt lat="45.72186" lon="6.45264">
        <ele>731</ele>
        <time>2022-07-23T10:53:05Z</time>
      </trkpt>
      <trkpt lat="45.72186" lon="6.45264">
        <ele>731</ele>
        <time>2022-07-23T10:53:06Z</time>
      </trkpt>
      <trkpt lat="45.72186" lon="6.45263">
        <ele>731</ele>
        <time>2022-07-23T10:53:07Z</time>
      </trkpt>
      <trkpt lat="45.72186" lon="6.45262">
        <ele>731</ele>
        <time>2022-07-23T10:53:08Z</time>
      </trkpt>
      <trkpt lat="45.72186" lon="6.45262">
        <ele>731</ele>
        <time>2022-07-23T10:53:09Z</time>
      </trkpt>
      <trkpt lat="45.72185" lon="6.45261">
        <ele>731</ele>
        <time>2022-07-23T10:53:10Z</time>
      </trkpt>
      <trkpt lat="45.72185" lon="6.4526">
        <ele>731</ele>
        <time>2022-07-23T10:53:11Z</time>
      </trkpt>
      <trkpt lat="45.72185" lon="6.4526">
        <ele>731</ele>
        <time>2022-07-23T10:53:12Z</time>
      </trkpt>
      <trkpt lat="45.72185" lon="6.45259">
        <ele>731</ele>
        <time>2022-07-23T10:53:13Z</time>
      </trkpt>
      <trkpt lat="45.72184" lon="6.45259">
        <ele>731</ele>
        <time>2022-07-23T10:53:14Z</time>
      </trkpt>
      <trkpt lat="45.72185" lon="6.45254">
        <ele>736</ele>
        <time>2022-07-23T10:53:48Z</time>
      </trkpt>
      <trkpt lat="45.72186" lon="6.45252">
        <ele>736</ele>
        <time>2022-07-23T10:53:49Z</time>
      </trkpt>
      <trkpt lat="45.72187" lon="6.4525">
        <ele>737</ele>
        <time>2022-07-23T10:53:50Z</time>
      </trkpt>
      <trkpt lat="45.72188" lon="6.45249">
        <ele>737</ele>
        <time>2022-07-23T10:53:51Z</time>
      </trkpt>
      <trkpt lat="45.72188" lon="6.45248">
        <ele>737</ele>
        <time>2022-07-23T10:53:52Z</time>
      </trkpt>
      <trkpt lat="45.72189" lon="6.45248">
        <ele>737</ele>
        <time>2022-07-23T10:53:53Z</time>
      </trkpt>
      <trkpt lat="45.7219" lon="6.45247">
        <ele>737</ele>
        <time>2022-07-23T10:53:54Z</time>
      </trkpt>
      <trkpt lat="45.7219" lon="6.45247">
        <ele>737</ele>
        <time>2022-07-23T10:53:55Z</time>
      </trkpt>
      <trkpt lat="45.72191" lon="6.45247">
        <ele>737</ele>
        <time>2022-07-23T10:53:56Z</time>
      </trkpt>
      <trkpt lat="45.72192" lon="6.45247">
        <ele>737</ele>
        <time>2022-07-23T10:53:57Z</time>
      </trkpt>
      <trkpt lat="45.72194" lon="6.45248">
        <ele>738</ele>
        <time>2022-07-23T10:54:04Z</time>
      </trkpt>
      <trkpt lat="45.72194" lon="6.45248">
        <ele>739</ele>
        <time>2022-07-23T10:54:05Z</time>
      </trkpt>
      <trkpt lat="45.72195" lon="6.45248">
        <ele>739</ele>
        <time>2022-07-23T10:54:06Z</time>
      </trkpt>
      <trkpt lat="45.72196" lon="6.45248">
        <ele>739</ele>
        <time>2022-07-23T10:54:07Z</time>
      </trkpt>
      <trkpt lat="45.72197" lon="6.45249">
        <ele>739</ele>
        <time>2022-07-23T10:54:08Z</time>
      </trkpt>
      <trkpt lat="45.72197" lon="6.45249">
        <ele>739</ele>
        <time>2022-07-23T10:54:09Z</time>
      </trkpt>
      <trkpt lat="45.72198" lon="6.45249">
        <ele>739</ele>
        <time>2022-07-23T10:54:10Z</time>
      </trkpt>
      <trkpt lat="45.72199" lon="6.45249">
        <ele>739</ele>
        <time>2022-07-23T10:54:11Z</time>
      </trkpt>
      <trkpt lat="45.722" lon="6.4525">
        <ele>739</ele>
        <time>2022-07-23T10:54:12Z</time>
      </trkpt>
      <trkpt lat="45.722" lon="6.4525">
        <ele>739</ele>
        <time>2022-07-23T10:54:13Z</time>
      </trkpt>
      <trkpt lat="45.72201" lon="6.4525">
        <ele>739</ele>
        <time>2022-07-23T10:54:14Z</time>
      </trkpt>
      <trkpt lat="45.72201" lon="6.45251">
        <ele>740</ele>
        <time>2022-07-23T10:54:15Z</time>
      </trkpt>
      <trkpt lat="45.72202" lon="6.45251">
        <ele>740</ele>
        <time>2022-07-23T10:54:16Z</time>
      </trkpt>
      <trkpt lat="45.72202" lon="6.45251">
        <ele>740</ele>
        <time>2022-07-23T10:54:17Z</time>
      </trkpt>
      <trkpt lat="45.72203" lon="6.45251">
        <ele>740</ele>
        <time>2022-07-23T10:54:18Z</time>
      </trkpt>
      <trkpt lat="45.72204" lon="6.45252">
        <ele>740</ele>
        <time>2022-07-23T10:54:19Z</time>
      </trkpt>
      <trkpt lat="45.72205" lon="6.45251">
        <ele>742</ele>
        <time>2022-07-23T10:54:31Z</time>
      </trkpt>
      <trkpt lat="45.72206" lon="6.4525">
        <ele>742</ele>
        <time>2022-07-23T10:54:32Z</time>
      </trkpt>
      <trkpt lat="45.72206" lon="6.45249">
        <ele>742</ele>
        <time>2022-07-23T10:54:33Z</time>
      </trkpt>
      <trkpt lat="45.72206" lon="6.45249">
        <ele>742</ele>
        <time>2022-07-23T10:54:34Z</time>
      </trkpt>
      <trkpt lat="45.72206" lon="6.45248">
        <ele>743</ele>
        <time>2022-07-23T10:54:35Z</time>
      </trkpt>
      <trkpt lat="45.72206" lon="6.45247">
        <ele>743</ele>
        <time>2022-07-23T10:54:36Z</time>
      </trkpt>
      <trkpt lat="45.72206" lon="6.45246">
        <ele>743</ele>
        <time>2022-07-23T10:54:37Z</time>
      </trkpt>
      <trkpt lat="45.72207" lon="6.45242">
        <ele>745</ele>
        <time>2022-07-23T10:54:56Z</time>
      </trkpt>
      <trkpt lat="45.72208" lon="6.45241">
        <ele>745</ele>
        <time>2022-07-23T10:54:57Z</time>
      </trkpt>
      <trkpt lat="45.72208" lon="6.45239">
        <ele>745</ele>
        <time>2022-07-23T10:54:58Z</time>
      </trkpt>
      <trkpt lat="45.72208" lon="6.45238">
        <ele>745</ele>
        <time>2022-07-23T10:54:59Z</time>
      </trkpt>
      <trkpt lat="45.72209" lon="6.45237">
        <ele>745</ele>
        <time>2022-07-23T10:55:00Z</time>
      </trkpt>
      <trkpt lat="45.72209" lon="6.45236">
        <ele>745</ele>
        <time>2022-07-23T10:55:01Z</time>
      </trkpt>
      <trkpt lat="45.72209" lon="6.45235">
        <ele>745</ele>
        <time>2022-07-23T10:55:02Z</time>
      </trkpt>
      <trkpt lat="45.7221" lon="6.45234">
        <ele>745</ele>
        <time>2022-07-23T10:55:03Z</time>
      </trkpt>
      <trkpt lat="45.7221" lon="6.45233">
        <ele>745</ele>
        <time>2022-07-23T10:55:04Z</time>
      </trkpt>
      <trkpt lat="45.72211" lon="6.45232">
        <ele>746</ele>
        <time>2022-07-23T10:55:05Z</time>
      </trkpt>
      <trkpt lat="45.72211" lon="6.45232">
        <ele>746</ele>
        <time>2022-07-23T10:55:06Z</time>
      </trkpt>
      <trkpt lat="45.72212" lon="6.45231">
        <ele>746</ele>
        <time>2022-07-23T10:55:07Z</time>
      </trkpt>
      <trkpt lat="45.72212" lon="6.4523">
        <ele>746</ele>
        <time>2022-07-23T10:55:08Z</time>
      </trkpt>
      <trkpt lat="45.72212" lon="6.4523">
        <ele>746</ele>
        <time>2022-07-23T10:55:09Z</time>
      </trkpt>
      <trkpt lat="45.72213" lon="6.4523">
        <ele>746</ele>
        <time>2022-07-23T10:55:10Z</time>
      </trkpt>
      <trkpt lat="45.72213" lon="6.45229">
        <ele>746</ele>
        <time>2022-07-23T10:55:11Z</time>
      </trkpt>
      <trkpt lat="45.72214" lon="6.45228">
        <ele>746</ele>
        <time>2022-07-23T10:55:12Z</time>
      </trkpt>
      <trkpt lat="45.72214" lon="6.45228">
        <ele>746</ele>
        <time>2022-07-23T10:55:13Z</time>
      </trkpt>
      <trkpt lat="45.72215" lon="6.45227">
        <ele>746</ele>
        <time>2022-07-23T10:55:14Z</time>
      </trkpt>
      <trkpt lat="45.72215" lon="6.45227">
        <ele>747</ele>
        <time>2022-07-23T10:55:15Z</time>
      </trkpt>
      <trkpt lat="45.72215" lon="6.45226">
        <ele>747</ele>
        <time>2022-07-23T10:55:16Z</time>
      </trkpt>
      <trkpt lat="45.72215" lon="6.45226">
        <ele>747</ele>
        <time>2022-07-23T10:55:17Z</time>
      </trkpt>
      <trkpt lat="45.72215" lon="6.45225">
        <ele>747</ele>
        <time>2022-07-23T10:55:18Z</time>
      </trkpt>
      <trkpt lat="45.72216" lon="6.45225">
        <ele>747</ele>
        <time>2022-07-23T10:55:19Z</time>
      </trkpt>
      <trkpt lat="45.72216" lon="6.45224">
        <ele>748</ele>
        <time>2022-07-23T10:55:20Z</time>
      </trkpt>
      <trkpt lat="45.72216" lon="6.45223">
        <ele>748</ele>
        <time>2022-07-23T10:55:21Z</time>
      </trkpt>
      <trkpt lat="45.72216" lon="6.45222">
        <ele>748</ele>
        <time>2022-07-23T10:55:22Z</time>
      </trkpt>
      <trkpt lat="45.72216" lon="6.45221">
        <ele>748</ele>
        <time>2022-07-23T10:55:23Z</time>
      </trkpt>
      <trkpt lat="45.72217" lon="6.4522">
        <ele>748</ele>
        <time>2022-07-23T10:55:24Z</time>
      </trkpt>
      <trkpt lat="45.72217" lon="6.45219">
        <ele>748</ele>
        <time>2022-07-23T10:55:25Z</time>
      </trkpt>
      <trkpt lat="45.72217" lon="6.45218">
        <ele>748</ele>
        <time>2022-07-23T10:55:26Z</time>
      </trkpt>
      <trkpt lat="45.72217" lon="6.45218">
        <ele>748</ele>
        <time>2022-07-23T10:55:27Z</time>
      </trkpt>
      <trkpt lat="45.72218" lon="6.45217">
        <ele>748</ele>
        <time>2022-07-23T10:55:28Z</time>
      </trkpt>
      <trkpt lat="45.72218" lon="6.45216">
        <ele>748</ele>
        <time>2022-07-23T10:55:29Z</time>
      </trkpt>
      <trkpt lat="45.72218" lon="6.45215">
        <ele>749</ele>
        <time>2022-07-23T10:55:30Z</time>
      </trkpt>
      <trkpt lat="45.72218" lon="6.45214">
        <ele>749</ele>
        <time>2022-07-23T10:55:31Z</time>
      </trkpt>
      <trkpt lat="45.72218" lon="6.45214">
        <ele>749</ele>
        <time>2022-07-23T10:55:32Z</time>
      </trkpt>
      <trkpt lat="45.72218" lon="6.45213">
        <ele>749</ele>
        <time>2022-07-23T10:55:33Z</time>
      </trkpt>
      <trkpt lat="45.72218" lon="6.45213">
        <ele>749</ele>
        <time>2022-07-23T10:55:34Z</time>
      </trkpt>
      <trkpt lat="45.72218" lon="6.45212">
        <ele>749</ele>
        <time>2022-07-23T10:55:35Z</time>
      </trkpt>
      <trkpt lat="45.72218" lon="6.45211">
        <ele>749</ele>
        <time>2022-07-23T10:55:36Z</time>
      </trkpt>
      <trkpt lat="45.72218" lon="6.45209">
        <ele>750</ele>
        <time>2022-07-23T10:55:42Z</time>
      </trkpt>
      <trkpt lat="45.72219" lon="6.45208">
        <ele>750</ele>
        <time>2022-07-23T10:55:43Z</time>
      </trkpt>
      <trkpt lat="45.72219" lon="6.45207">
        <ele>750</ele>
        <time>2022-07-23T10:55:44Z</time>
      </trkpt>
      <trkpt lat="45.72219" lon="6.45207">
        <ele>750</ele>
        <time>2022-07-23T10:55:45Z</time>
      </trkpt>
      <trkpt lat="45.72219" lon="6.45206">
        <ele>750</ele>
        <time>2022-07-23T10:55:46Z</time>
      </trkpt>
      <trkpt lat="45.7222" lon="6.45205">
        <ele>750</ele>
        <time>2022-07-23T10:55:47Z</time>
      </trkpt>
      <trkpt lat="45.7222" lon="6.45204">
        <ele>750</ele>
        <time>2022-07-23T10:55:48Z</time>
      </trkpt>
      <trkpt lat="45.7222" lon="6.45203">
        <ele>750</ele>
        <time>2022-07-23T10:55:49Z</time>
      </trkpt>
      <trkpt lat="45.7222" lon="6.45202">
        <ele>751</ele>
        <time>2022-07-23T10:55:50Z</time>
      </trkpt>
      <trkpt lat="45.72219" lon="6.45201">
        <ele>751</ele>
        <time>2022-07-23T10:55:51Z</time>
      </trkpt>
      <trkpt lat="45.7222" lon="6.45197">
        <ele>754</ele>
        <time>2022-07-23T10:56:02Z</time>
      </trkpt>
      <trkpt lat="45.7222" lon="6.45195">
        <ele>754</ele>
        <time>2022-07-23T10:56:03Z</time>
      </trkpt>
      <trkpt lat="45.7222" lon="6.45193">
        <ele>754</ele>
        <time>2022-07-23T10:56:04Z</time>
      </trkpt>
      <trkpt lat="45.7222" lon="6.45192">
        <ele>755</ele>
        <time>2022-07-23T10:56:05Z</time>
      </trkpt>
      <trkpt lat="45.7222" lon="6.45191">
        <ele>755</ele>
        <time>2022-07-23T10:56:06Z</time>
      </trkpt>
      <trkpt lat="45.7222" lon="6.4519">
        <ele>755</ele>
        <time>2022-07-23T10:56:07Z</time>
      </trkpt>
      <trkpt lat="45.7222" lon="6.45189">
        <ele>755</ele>
        <time>2022-07-23T10:56:08Z</time>
      </trkpt>
      <trkpt lat="45.7222" lon="6.45188">
        <ele>755</ele>
        <time>2022-07-23T10:56:09Z</time>
      </trkpt>
      <trkpt lat="45.7222" lon="6.45187">
        <ele>755</ele>
        <time>2022-07-23T10:56:10Z</time>
      </trkpt>
      <trkpt lat="45.72222" lon="6.45179">
        <ele>761</ele>
        <time>2022-07-23T10:58:33Z</time>
      </trkpt>
      <trkpt lat="45.72223" lon="6.45174">
        <ele>761</ele>
        <time>2022-07-23T10:58:34Z</time>
      </trkpt>
      <trkpt lat="45.72224" lon="6.45169">
        <ele>761</ele>
        <time>2022-07-23T10:58:35Z</time>
      </trkpt>
      <trkpt lat="45.72224" lon="6.45167">
        <ele>761</ele>
        <time>2022-07-23T10:58:36Z</time>
      </trkpt>
      <trkpt lat="45.72225" lon="6.45164">
        <ele>761</ele>
        <time>2022-07-23T10:58:37Z</time>
      </trkpt>
      <trkpt lat="45.72225" lon="6.45162">
        <ele>761</ele>
        <time>2022-07-23T10:58:38Z</time>
      </trkpt>
      <trkpt lat="45.72225" lon="6.45161">
        <ele>761</ele>
        <time>2022-07-23T10:58:39Z</time>
      </trkpt>
      <trkpt lat="45.72225" lon="6.45159">
        <ele>762</ele>
        <time>2022-07-23T10:58:40Z</time>
      </trkpt>
      <trkpt lat="45.72225" lon="6.45158">
        <ele>762</ele>
        <time>2022-07-23T10:58:41Z</time>
      </trkpt>
      <trkpt lat="45.72225" lon="6.45157">
        <ele>762</ele>
        <time>2022-07-23T10:58:42Z</time>
      </trkpt>
      <trkpt lat="45.72225" lon="6.45157">
        <ele>762</ele>
        <time>2022-07-23T10:58:43Z</time>
      </trkpt>
      <trkpt lat="45.72226" lon="6.45156">
        <ele>762</ele>
        <time>2022-07-23T10:58:44Z</time>
      </trkpt>
      <trkpt lat="45.72226" lon="6.45155">
        <ele>762</ele>
        <time>2022-07-23T10:58:45Z</time>
      </trkpt>
      <trkpt lat="45.72226" lon="6.45154">
        <ele>762</ele>
        <time>2022-07-23T10:58:46Z</time>
      </trkpt>
      <trkpt lat="45.72226" lon="6.45153">
        <ele>762</ele>
        <time>2022-07-23T10:58:47Z</time>
      </trkpt>
      <trkpt lat="45.72226" lon="6.45153">
        <ele>762</ele>
        <time>2022-07-23T10:58:48Z</time>
      </trkpt>
      <trkpt lat="45.72227" lon="6.45152">
        <ele>762</ele>
        <time>2022-07-23T10:58:49Z</time>
      </trkpt>
      <trkpt lat="45.72227" lon="6.45151">
        <ele>763</ele>
        <time>2022-07-23T10:58:50Z</time>
      </trkpt>
      <trkpt lat="45.72227" lon="6.45151">
        <ele>763</ele>
        <time>2022-07-23T10:58:51Z</time>
      </trkpt>
      <trkpt lat="45.72228" lon="6.4515">
        <ele>763</ele>
        <time>2022-07-23T10:58:52Z</time>
      </trkpt>
      <trkpt lat="45.72228" lon="6.45149">
        <ele>763</ele>
        <time>2022-07-23T10:58:53Z</time>
      </trkpt>
      <trkpt lat="45.72228" lon="6.45149">
        <ele>763</ele>
        <time>2022-07-23T10:58:54Z</time>
      </trkpt>
      <trkpt lat="45.72228" lon="6.45148">
        <ele>764</ele>
        <time>2022-07-23T10:58:55Z</time>
      </trkpt>
      <trkpt lat="45.72229" lon="6.45148">
        <ele>764</ele>
        <time>2022-07-23T10:58:56Z</time>
      </trkpt>
      <trkpt lat="45.72229" lon="6.45147">
        <ele>766</ele>
        <time>2022-07-23T10:59:16Z</time>
      </trkpt>
      <trkpt lat="45.7223" lon="6.45146">
        <ele>766</ele>
        <time>2022-07-23T10:59:17Z</time>
      </trkpt>
      <trkpt lat="45.7223" lon="6.45146">
        <ele>766</ele>
        <time>2022-07-23T10:59:18Z</time>
      </trkpt>
      <trkpt lat="45.72231" lon="6.45146">
        <ele>766</ele>
        <time>2022-07-23T10:59:19Z</time>
      </trkpt>
      <trkpt lat="45.72232" lon="6.45146">
        <ele>767</ele>
        <time>2022-07-23T10:59:20Z</time>
      </trkpt>
      <trkpt lat="45.72232" lon="6.45146">
        <ele>767</ele>
        <time>2022-07-23T10:59:21Z</time>
      </trkpt>
      <trkpt lat="45.72233" lon="6.45146">
        <ele>767</ele>
        <time>2022-07-23T10:59:22Z</time>
      </trkpt>
      <trkpt lat="45.72234" lon="6.45146">
        <ele>767</ele>
        <time>2022-07-23T10:59:23Z</time>
      </trkpt>
      <trkpt lat="45.72235" lon="6.45146">
        <ele>767</ele>
        <time>2022-07-23T10:59:24Z</time>
      </trkpt>
      <trkpt lat="45.72236" lon="6.45146">
        <ele>767</ele>
        <time>2022-07-23T10:59:25Z</time>
      </trkpt>
      <trkpt lat="45.72237" lon="6.45147">
        <ele>767</ele>
        <time>2022-07-23T10:59:26Z</time>
      </trkpt>
      <trkpt lat="45.72238" lon="6.45147">
        <ele>767</ele>
        <time>2022-07-23T10:59:27Z</time>
      </trkpt>
      <trkpt lat="45.72239" lon="6.45147">
        <ele>767</ele>
        <time>2022-07-23T10:59:28Z</time>
      </trkpt>
      <trkpt lat="45.72239" lon="6.45148">
        <ele>767</ele>
        <time>2022-07-23T10:59:29Z</time>
      </trkpt>
      <trkpt lat="45.7224" lon="6.45148">
        <ele>767</ele>
        <time>2022-07-23T10:59:30Z</time>
      </trkpt>
      <trkpt lat="45.72241" lon="6.45149">
        <ele>767</ele>
        <time>2022-07-23T10:59:31Z</time>
      </trkpt>
      <trkpt lat="45.72242" lon="6.45149">
        <ele>767</ele>
        <time>2022-07-23T10:59:32Z</time>
      </trkpt>
      <trkpt lat="45.72242" lon="6.4515">
        <ele>767</ele>
        <time>2022-07-23T10:59:33Z</time>
      </trkpt>
      <trkpt lat="45.72243" lon="6.45151">
        <ele>767</ele>
        <time>2022-07-23T10:59:34Z</time>
      </trkpt>
      <trkpt lat="45.72244" lon="6.45151">
        <ele>767</ele>
        <time>2022-07-23T10:59:35Z</time>
      </trkpt>
      <trkpt lat="45.72244" lon="6.45152">
        <ele>767</ele>
        <time>2022-07-23T10:59:36Z</time>
      </trkpt>
      <trkpt lat="45.72245" lon="6.45152">
        <ele>767</ele>
        <time>2022-07-23T10:59:37Z</time>
      </trkpt>
      <trkpt lat="45.72246" lon="6.45153">
        <ele>767</ele>
        <time>2022-07-23T10:59:38Z</time>
      </trkpt>
      <trkpt lat="45.72247" lon="6.45153">
        <ele>767</ele>
        <time>2022-07-23T10:59:39Z</time>
      </trkpt>
      <trkpt lat="45.72248" lon="6.45153">
        <ele>768</ele>
        <time>2022-07-23T10:59:40Z</time>
      </trkpt>
      <trkpt lat="45.72249" lon="6.45154">
        <ele>768</ele>
        <time>2022-07-23T10:59:41Z</time>
      </trkpt>
      <trkpt lat="45.72249" lon="6.45154">
        <ele>768</ele>
        <time>2022-07-23T10:59:42Z</time>
      </trkpt>
      <trkpt lat="45.7225" lon="6.45154">
        <ele>768</ele>
        <time>2022-07-23T10:59:43Z</time>
      </trkpt>
      <trkpt lat="45.7225" lon="6.45155">
        <ele>768</ele>
        <time>2022-07-23T10:59:44Z</time>
      </trkpt>
      <trkpt lat="45.72251" lon="6.45155">
        <ele>768</ele>
        <time>2022-07-23T10:59:45Z</time>
      </trkpt>
      <trkpt lat="45.72252" lon="6.45155">
        <ele>768</ele>
        <time>2022-07-23T10:59:46Z</time>
      </trkpt>
      <trkpt lat="45.72252" lon="6.45156">
        <ele>768</ele>
        <time>2022-07-23T10:59:47Z</time>
      </trkpt>
      <trkpt lat="45.72253" lon="6.45156">
        <ele>768</ele>
        <time>2022-07-23T10:59:48Z</time>
      </trkpt>
      <trkpt lat="45.72253" lon="6.45157">
        <ele>768</ele>
        <time>2022-07-23T10:59:49Z</time>
      </trkpt>
      <trkpt lat="45.72254" lon="6.45158">
        <ele>769</ele>
        <time>2022-07-23T10:59:50Z</time>
      </trkpt>
      <trkpt lat="45.72255" lon="6.45159">
        <ele>769</ele>
        <time>2022-07-23T10:59:51Z</time>
      </trkpt>
      <trkpt lat="45.72255" lon="6.4516">
        <ele>769</ele>
        <time>2022-07-23T10:59:52Z</time>
      </trkpt>
      <trkpt lat="45.72256" lon="6.45161">
        <ele>769</ele>
        <time>2022-07-23T10:59:53Z</time>
      </trkpt>
      <trkpt lat="45.72256" lon="6.45162">
        <ele>769</ele>
        <time>2022-07-23T10:59:54Z</time>
      </trkpt>
      <trkpt lat="45.72257" lon="6.45163">
        <ele>769</ele>
        <time>2022-07-23T10:59:55Z</time>
      </trkpt>
      <trkpt lat="45.72257" lon="6.45164">
        <ele>769</ele>
        <time>2022-07-23T10:59:56Z</time>
      </trkpt>
      <trkpt lat="45.72258" lon="6.45165">
        <ele>769</ele>
        <time>2022-07-23T10:59:57Z</time>
      </trkpt>
      <trkpt lat="45.72258" lon="6.45166">
        <ele>769</ele>
        <time>2022-07-23T10:59:58Z</time>
      </trkpt>
      <trkpt lat="45.72259" lon="6.45168">
        <ele>769</ele>
        <time>2022-07-23T10:59:59Z</time>
      </trkpt>
      <trkpt lat="45.72259" lon="6.45169">
        <ele>769</ele>
        <time>2022-07-23T11:00:00Z</time>
      </trkpt>
      <trkpt lat="45.7226" lon="6.4517">
        <ele>769</ele>
        <time>2022-07-23T11:00:01Z</time>
      </trkpt>
      <trkpt lat="45.7226" lon="6.45171">
        <ele>769</ele>
        <time>2022-07-23T11:00:02Z</time>
      </trkpt>
      <trkpt lat="45.72261" lon="6.45172">
        <ele>769</ele>
        <time>2022-07-23T11:00:03Z</time>
      </trkpt>
      <trkpt lat="45.72261" lon="6.45173">
        <ele>769</ele>
        <time>2022-07-23T11:00:04Z</time>
      </trkpt>
      <trkpt lat="45.72261" lon="6.45174">
        <ele>770</ele>
        <time>2022-07-23T11:00:05Z</time>
      </trkpt>
      <trkpt lat="45.72261" lon="6.45175">
        <ele>770</ele>
        <time>2022-07-23T11:00:06Z</time>
      </trkpt>
      <trkpt lat="45.72262" lon="6.45176">
        <ele>770</ele>
        <time>2022-07-23T11:00:07Z</time>
      </trkpt>
      <trkpt lat="45.72262" lon="6.45176">
        <ele>770</ele>
        <time>2022-07-23T11:00:08Z</time>
      </trkpt>
      <trkpt lat="45.72262" lon="6.45177">
        <ele>770</ele>
        <time>2022-07-23T11:00:09Z</time>
      </trkpt>
      <trkpt lat="45.72263" lon="6.45177">
        <ele>770</ele>
        <time>2022-07-23T11:00:10Z</time>
      </trkpt>
      <trkpt lat="45.72263" lon="6.45178">
        <ele>770</ele>
        <time>2022-07-23T11:00:11Z</time>
      </trkpt>
      <trkpt lat="45.72264" lon="6.45179">
        <ele>770</ele>
        <time>2022-07-23T11:00:12Z</time>
      </trkpt>
      <trkpt lat="45.72264" lon="6.45179">
        <ele>771</ele>
        <time>2022-07-23T11:00:13Z</time>
      </trkpt>
      <trkpt lat="45.72265" lon="6.4518">
        <ele>771</ele>
        <time>2022-07-23T11:00:14Z</time>
      </trkpt>
      <trkpt lat="45.72265" lon="6.45181">
        <ele>772</ele>
        <time>2022-07-23T11:00:15Z</time>
      </trkpt>
      <trkpt lat="45.72265" lon="6.45181">
        <ele>772</ele>
        <time>2022-07-23T11:00:16Z</time>
      </trkpt>
      <trkpt lat="45.72266" lon="6.45182">
        <ele>772</ele>
        <time>2022-07-23T11:00:17Z</time>
      </trkpt>
      <trkpt lat="45.72266" lon="6.45182">
        <ele>772</ele>
        <time>2022-07-23T11:00:18Z</time>
      </trkpt>
      <trkpt lat="45.72267" lon="6.45183">
        <ele>772</ele>
        <time>2022-07-23T11:00:26Z</time>
      </trkpt>
      <trkpt lat="45.72268" lon="6.45184">
        <ele>772</ele>
        <time>2022-07-23T11:00:27Z</time>
      </trkpt>
      <trkpt lat="45.72268" lon="6.45184">
        <ele>772</ele>
        <time>2022-07-23T11:00:28Z</time>
      </trkpt>
      <trkpt lat="45.72269" lon="6.45183">
        <ele>772</ele>
        <time>2022-07-23T11:00:29Z</time>
      </trkpt>
      <trkpt lat="45.7227" lon="6.45183">
        <ele>773</ele>
        <time>2022-07-23T11:00:30Z</time>
      </trkpt>
      <trkpt lat="45.7227" lon="6.45183">
        <ele>773</ele>
        <time>2022-07-23T11:00:31Z</time>
      </trkpt>
      <trkpt lat="45.72271" lon="6.45182">
        <ele>773</ele>
        <time>2022-07-23T11:00:32Z</time>
      </trkpt>
      <trkpt lat="45.72272" lon="6.45182">
        <ele>773</ele>
        <time>2022-07-23T11:00:33Z</time>
      </trkpt>
      <trkpt lat="45.72272" lon="6.45182">
        <ele>773</ele>
        <time>2022-07-23T11:00:34Z</time>
      </trkpt>
      <trkpt lat="45.72273" lon="6.45182">
        <ele>773</ele>
        <time>2022-07-23T11:00:35Z</time>
      </trkpt>
      <trkpt lat="45.72274" lon="6.45182">
        <ele>773</ele>
        <time>2022-07-23T11:00:36Z</time>
      </trkpt>
      <trkpt lat="45.72274" lon="6.45181">
        <ele>773</ele>
        <time>2022-07-23T11:00:37Z</time>
      </trkpt>
      <trkpt lat="45.72275" lon="6.45181">
        <ele>773</ele>
        <time>2022-07-23T11:00:38Z</time>
      </trkpt>
      <trkpt lat="45.72276" lon="6.45181">
        <ele>773</ele>
        <time>2022-07-23T11:00:39Z</time>
      </trkpt>
      <trkpt lat="45.72276" lon="6.45181">
        <ele>774</ele>
        <time>2022-07-23T11:00:40Z</time>
      </trkpt>
      <trkpt lat="45.72277" lon="6.45181">
        <ele>775</ele>
        <time>2022-07-23T11:00:50Z</time>
      </trkpt>
      <trkpt lat="45.72278" lon="6.45181">
        <ele>775</ele>
        <time>2022-07-23T11:00:51Z</time>
      </trkpt>
      <trkpt lat="45.72279" lon="6.45181">
        <ele>775</ele>
        <time>2022-07-23T11:00:52Z</time>
      </trkpt>
      <trkpt lat="45.72279" lon="6.45181">
        <ele>775</ele>
        <time>2022-07-23T11:00:53Z</time>
      </trkpt>
      <trkpt lat="45.7228" lon="6.45181">
        <ele>775</ele>
        <time>2022-07-23T11:00:54Z</time>
      </trkpt>
      <trkpt lat="45.7228" lon="6.45181">
        <ele>776</ele>
        <time>2022-07-23T11:00:55Z</time>
      </trkpt>
      <trkpt lat="45.72281" lon="6.45181">
        <ele>776</ele>
        <time>2022-07-23T11:00:56Z</time>
      </trkpt>
      <trkpt lat="45.72281" lon="6.45182">
        <ele>776</ele>
        <time>2022-07-23T11:00:57Z</time>
      </trkpt>
      <trkpt lat="45.72282" lon="6.45182">
        <ele>776</ele>
        <time>2022-07-23T11:00:58Z</time>
      </trkpt>
      <trkpt lat="45.72283" lon="6.45182">
        <ele>776</ele>
        <time>2022-07-23T11:00:59Z</time>
      </trkpt>
      <trkpt lat="45.72283" lon="6.45182">
        <ele>777</ele>
        <time>2022-07-23T11:01:00Z</time>
      </trkpt>
      <trkpt lat="45.72285" lon="6.45182">
        <ele>778</ele>
        <time>2022-07-23T11:01:17Z</time>
      </trkpt>
      <trkpt lat="45.72285" lon="6.45181">
        <ele>778</ele>
        <time>2022-07-23T11:01:18Z</time>
      </trkpt>
      <trkpt lat="45.72286" lon="6.45181">
        <ele>778</ele>
        <time>2022-07-23T11:01:19Z</time>
      </trkpt>
      <trkpt lat="45.72287" lon="6.45181">
        <ele>778</ele>
        <time>2022-07-23T11:01:20Z</time>
      </trkpt>
      <trkpt lat="45.72287" lon="6.45181">
        <ele>778</ele>
        <time>2022-07-23T11:01:21Z</time>
      </trkpt>
      <trkpt lat="45.72288" lon="6.45181">
        <ele>778</ele>
        <time>2022-07-23T11:01:22Z</time>
      </trkpt>
      <trkpt lat="45.72289" lon="6.45182">
        <ele>778</ele>
        <time>2022-07-23T11:01:23Z</time>
      </trkpt>
      <trkpt lat="45.72289" lon="6.45182">
        <ele>778</ele>
        <time>2022-07-23T11:01:24Z</time>
      </trkpt>
      <trkpt lat="45.7229" lon="6.45182">
        <ele>779</ele>
        <time>2022-07-23T11:01:25Z</time>
      </trkpt>
      <trkpt lat="45.72291" lon="6.45183">
        <ele>779</ele>
        <time>2022-07-23T11:01:26Z</time>
      </trkpt>
      <trkpt lat="45.72291" lon="6.45184">
        <ele>779</ele>
        <time>2022-07-23T11:01:27Z</time>
      </trkpt>
      <trkpt lat="45.72291" lon="6.45184">
        <ele>779</ele>
        <time>2022-07-23T11:01:28Z</time>
      </trkpt>
      <trkpt lat="45.72292" lon="6.45185">
        <ele>779</ele>
        <time>2022-07-23T11:01:29Z</time>
      </trkpt>
      <trkpt lat="45.72292" lon="6.45187">
        <ele>780</ele>
        <time>2022-07-23T11:01:36Z</time>
      </trkpt>
      <trkpt lat="45.72293" lon="6.45188">
        <ele>780</ele>
        <time>2022-07-23T11:01:37Z</time>
      </trkpt>
      <trkpt lat="45.72294" lon="6.45188">
        <ele>780</ele>
        <time>2022-07-23T11:01:38Z</time>
      </trkpt>
      <trkpt lat="45.72294" lon="6.45189">
        <ele>780</ele>
        <time>2022-07-23T11:01:39Z</time>
      </trkpt>
      <trkpt lat="45.72295" lon="6.4519">
        <ele>781</ele>
        <time>2022-07-23T11:01:40Z</time>
      </trkpt>
      <trkpt lat="45.72295" lon="6.4519">
        <ele>781</ele>
        <time>2022-07-23T11:01:41Z</time>
      </trkpt>
      <trkpt lat="45.72296" lon="6.45191">
        <ele>781</ele>
        <time>2022-07-23T11:01:42Z</time>
      </trkpt>
      <trkpt lat="45.72296" lon="6.45191">
        <ele>781</ele>
        <time>2022-07-23T11:01:43Z</time>
      </trkpt>
      <trkpt lat="45.72297" lon="6.45191">
        <ele>781</ele>
        <time>2022-07-23T11:01:44Z</time>
      </trkpt>
      <trkpt lat="45.72298" lon="6.45191">
        <ele>781</ele>
        <time>2022-07-23T11:01:45Z</time>
      </trkpt>
      <trkpt lat="45.72298" lon="6.45192">
        <ele>781</ele>
        <time>2022-07-23T11:01:46Z</time>
      </trkpt>
      <trkpt lat="45.72299" lon="6.45192">
        <ele>781</ele>
        <time>2022-07-23T11:01:47Z</time>
      </trkpt>
      <trkpt lat="45.723" lon="6.45192">
        <ele>781</ele>
        <time>2022-07-23T11:01:48Z</time>
      </trkpt>
      <trkpt lat="45.723" lon="6.45192">
        <ele>781</ele>
        <time>2022-07-23T11:01:49Z</time>
      </trkpt>
      <trkpt lat="45.72301" lon="6.45192">
        <ele>782</ele>
        <time>2022-07-23T11:01:50Z</time>
      </trkpt>
      <trkpt lat="45.72302" lon="6.45194">
        <ele>784</ele>
        <time>2022-07-23T11:02:01Z</time>
      </trkpt>
      <trkpt lat="45.72303" lon="6.45194">
        <ele>784</ele>
        <time>2022-07-23T11:02:02Z</time>
      </trkpt>
      <trkpt lat="45.72303" lon="6.45194">
        <ele>784</ele>
        <time>2022-07-23T11:02:03Z</time>
      </trkpt>
      <trkpt lat="45.72304" lon="6.45194">
        <ele>784</ele>
        <time>2022-07-23T11:02:04Z</time>
      </trkpt>
      <trkpt lat="45.72304" lon="6.45193">
        <ele>784</ele>
        <time>2022-07-23T11:02:05Z</time>
      </trkpt>
      <trkpt lat="45.72305" lon="6.45193">
        <ele>784</ele>
        <time>2022-07-23T11:02:06Z</time>
      </trkpt>
      <trkpt lat="45.72305" lon="6.45192">
        <ele>784</ele>
        <time>2022-07-23T11:02:07Z</time>
      </trkpt>
      <trkpt lat="45.72306" lon="6.45192">
        <ele>784</ele>
        <time>2022-07-23T11:02:08Z</time>
      </trkpt>
      <trkpt lat="45.72307" lon="6.45191">
        <ele>784</ele>
        <time>2022-07-23T11:02:09Z</time>
      </trkpt>
      <trkpt lat="45.72307" lon="6.45191">
        <ele>784</ele>
        <time>2022-07-23T11:02:10Z</time>
      </trkpt>
      <trkpt lat="45.72308" lon="6.4519">
        <ele>784</ele>
        <time>2022-07-23T11:02:11Z</time>
      </trkpt>
      <trkpt lat="45.72309" lon="6.45189">
        <ele>784</ele>
        <time>2022-07-23T11:02:12Z</time>
      </trkpt>
      <trkpt lat="45.7231" lon="6.45188">
        <ele>786</ele>
        <time>2022-07-23T11:02:22Z</time>
      </trkpt>
      <trkpt lat="45.7231" lon="6.45188">
        <ele>786</ele>
        <time>2022-07-23T11:02:23Z</time>
      </trkpt>
      <trkpt lat="45.7231" lon="6.45187">
        <ele>786</ele>
        <time>2022-07-23T11:02:24Z</time>
      </trkpt>
      <trkpt lat="45.72311" lon="6.45186">
        <ele>787</ele>
        <time>2022-07-23T11:02:31Z</time>
      </trkpt>
      <trkpt lat="45.72312" lon="6.45185">
        <ele>787</ele>
        <time>2022-07-23T11:02:32Z</time>
      </trkpt>
      <trkpt lat="45.72312" lon="6.45184">
        <ele>787</ele>
        <time>2022-07-23T11:02:33Z</time>
      </trkpt>
      <trkpt lat="45.72313" lon="6.45184">
        <ele>787</ele>
        <time>2022-07-23T11:02:34Z</time>
      </trkpt>
      <trkpt lat="45.72313" lon="6.45184">
        <ele>787</ele>
        <time>2022-07-23T11:02:35Z</time>
      </trkpt>
      <trkpt lat="45.72314" lon="6.45185">
        <ele>787</ele>
        <time>2022-07-23T11:02:36Z</time>
      </trkpt>
      <trkpt lat="45.72315" lon="6.45185">
        <ele>787</ele>
        <time>2022-07-23T11:02:37Z</time>
      </trkpt>
      <trkpt lat="45.72316" lon="6.45186">
        <ele>787</ele>
        <time>2022-07-23T11:02:38Z</time>
      </trkpt>
      <trkpt lat="45.72318" lon="6.45187">
        <ele>787</ele>
        <time>2022-07-23T11:02:39Z</time>
      </trkpt>
      <trkpt lat="45.72319" lon="6.45188">
        <ele>787</ele>
        <time>2022-07-23T11:02:40Z</time>
      </trkpt>
      <trkpt lat="45.7232" lon="6.45189">
        <ele>787</ele>
        <time>2022-07-23T11:02:41Z</time>
      </trkpt>
      <trkpt lat="45.72321" lon="6.4519">
        <ele>787</ele>
        <time>2022-07-23T11:02:42Z</time>
      </trkpt>
      <trkpt lat="45.72322" lon="6.45191">
        <ele>787</ele>
        <time>2022-07-23T11:02:43Z</time>
      </trkpt>
      <trkpt lat="45.72322" lon="6.45192">
        <ele>787</ele>
        <time>2022-07-23T11:02:44Z</time>
      </trkpt>
      <trkpt lat="45.72323" lon="6.45193">
        <ele>788</ele>
        <time>2022-07-23T11:02:45Z</time>
      </trkpt>
      <trkpt lat="45.72324" lon="6.45194">
        <ele>788</ele>
        <time>2022-07-23T11:02:46Z</time>
      </trkpt>
      <trkpt lat="45.72325" lon="6.45194">
        <ele>788</ele>
        <time>2022-07-23T11:02:47Z</time>
      </trkpt>
      <trkpt lat="45.72325" lon="6.45195">
        <ele>788</ele>
        <time>2022-07-23T11:02:48Z</time>
      </trkpt>
      <trkpt lat="45.72326" lon="6.45195">
        <ele>788</ele>
        <time>2022-07-23T11:02:49Z</time>
      </trkpt>
      <trkpt lat="45.72327" lon="6.45195">
        <ele>788</ele>
        <time>2022-07-23T11:02:50Z</time>
      </trkpt>
      <trkpt lat="45.72328" lon="6.45195">
        <ele>788</ele>
        <time>2022-07-23T11:02:51Z</time>
      </trkpt>
      <trkpt lat="45.72329" lon="6.45195">
        <ele>788</ele>
        <time>2022-07-23T11:02:52Z</time>
      </trkpt>
      <trkpt lat="45.72329" lon="6.45195">
        <ele>788</ele>
        <time>2022-07-23T11:02:53Z</time>
      </trkpt>
      <trkpt lat="45.7233" lon="6.45195">
        <ele>788</ele>
        <time>2022-07-23T11:02:54Z</time>
      </trkpt>
      <trkpt lat="45.72331" lon="6.45195">
        <ele>788</ele>
        <time>2022-07-23T11:02:55Z</time>
      </trkpt>
      <trkpt lat="45.72332" lon="6.45194">
        <ele>788</ele>
        <time>2022-07-23T11:02:56Z</time>
      </trkpt>
      <trkpt lat="45.72333" lon="6.45194">
        <ele>788</ele>
        <time>2022-07-23T11:02:57Z</time>
      </trkpt>
      <trkpt lat="45.72333" lon="6.45193">
        <ele>789</ele>
        <time>2022-07-23T11:02:58Z</time>
      </trkpt>
      <trkpt lat="45.72334" lon="6.45192">
        <ele>789</ele>
        <time>2022-07-23T11:02:59Z</time>
      </trkpt>
      <trkpt lat="45.72335" lon="6.45191">
        <ele>790</ele>
        <time>2022-07-23T11:03:00Z</time>
      </trkpt>
      <trkpt lat="45.72335" lon="6.45191">
        <ele>790</ele>
        <time>2022-07-23T11:03:01Z</time>
      </trkpt>
      <trkpt lat="45.72336" lon="6.4519">
        <ele>790</ele>
        <time>2022-07-23T11:03:02Z</time>
      </trkpt>
      <trkpt lat="45.72337" lon="6.45189">
        <ele>790</ele>
        <time>2022-07-23T11:03:03Z</time>
      </trkpt>
      <trkpt lat="45.72337" lon="6.45188">
        <ele>790</ele>
        <time>2022-07-23T11:03:04Z</time>
      </trkpt>
      <trkpt lat="45.72338" lon="6.45187">
        <ele>790</ele>
        <time>2022-07-23T11:03:05Z</time>
      </trkpt>
      <trkpt lat="45.72338" lon="6.45185">
        <ele>790</ele>
        <time>2022-07-23T11:03:06Z</time>
      </trkpt>
      <trkpt lat="45.72339" lon="6.45184">
        <ele>790</ele>
        <time>2022-07-23T11:03:07Z</time>
      </trkpt>
      <trkpt lat="45.7234" lon="6.45183">
        <ele>790</ele>
        <time>2022-07-23T11:03:08Z</time>
      </trkpt>
      <trkpt lat="45.7234" lon="6.45182">
        <ele>790</ele>
        <time>2022-07-23T11:03:09Z</time>
      </trkpt>
      <trkpt lat="45.72341" lon="6.45181">
        <ele>790</ele>
        <time>2022-07-23T11:03:10Z</time>
      </trkpt>
      <trkpt lat="45.72342" lon="6.4518">
        <ele>790</ele>
        <time>2022-07-23T11:03:11Z</time>
      </trkpt>
      <trkpt lat="45.72343" lon="6.45178">
        <ele>790</ele>
        <time>2022-07-23T11:03:12Z</time>
      </trkpt>
      <trkpt lat="45.72343" lon="6.45177">
        <ele>790</ele>
        <time>2022-07-23T11:03:13Z</time>
      </trkpt>
      <trkpt lat="45.72344" lon="6.45176">
        <ele>790</ele>
        <time>2022-07-23T11:03:14Z</time>
      </trkpt>
      <trkpt lat="45.72345" lon="6.45174">
        <ele>791</ele>
        <time>2022-07-23T11:03:15Z</time>
      </trkpt>
      <trkpt lat="45.72345" lon="6.45173">
        <ele>791</ele>
        <time>2022-07-23T11:03:16Z</time>
      </trkpt>
      <trkpt lat="45.72345" lon="6.45172">
        <ele>791</ele>
        <time>2022-07-23T11:03:17Z</time>
      </trkpt>
      <trkpt lat="45.72346" lon="6.45171">
        <ele>791</ele>
        <time>2022-07-23T11:03:18Z</time>
      </trkpt>
      <trkpt lat="45.72346" lon="6.45169">
        <ele>791</ele>
        <time>2022-07-23T11:03:19Z</time>
      </trkpt>
      <trkpt lat="45.72346" lon="6.45168">
        <ele>791</ele>
        <time>2022-07-23T11:03:20Z</time>
      </trkpt>
      <trkpt lat="45.72346" lon="6.45167">
        <ele>791</ele>
        <time>2022-07-23T11:03:21Z</time>
      </trkpt>
      <trkpt lat="45.72346" lon="6.45166">
        <ele>791</ele>
        <time>2022-07-23T11:03:22Z</time>
      </trkpt>
      <trkpt lat="45.72347" lon="6.45165">
        <ele>791</ele>
        <time>2022-07-23T11:03:23Z</time>
      </trkpt>
      <trkpt lat="45.72347" lon="6.45164">
        <ele>791</ele>
        <time>2022-07-23T11:03:24Z</time>
      </trkpt>
      <trkpt lat="45.72347" lon="6.45162">
        <ele>792</ele>
        <time>2022-07-23T11:03:25Z</time>
      </trkpt>
      <trkpt lat="45.72347" lon="6.45161">
        <ele>792</ele>
        <time>2022-07-23T11:03:26Z</time>
      </trkpt>
      <trkpt lat="45.72347" lon="6.4516">
        <ele>792</ele>
        <time>2022-07-23T11:03:27Z</time>
      </trkpt>
      <trkpt lat="45.72348" lon="6.45159">
        <ele>792</ele>
        <time>2022-07-23T11:03:28Z</time>
      </trkpt>
      <trkpt lat="45.72348" lon="6.45158">
        <ele>792</ele>
        <time>2022-07-23T11:03:29Z</time>
      </trkpt>
      <trkpt lat="45.72348" lon="6.45156">
        <ele>792</ele>
        <time>2022-07-23T11:03:30Z</time>
      </trkpt>
      <trkpt lat="45.72349" lon="6.45155">
        <ele>792</ele>
        <time>2022-07-23T11:03:31Z</time>
      </trkpt>
      <trkpt lat="45.72349" lon="6.45154">
        <ele>792</ele>
        <time>2022-07-23T11:03:32Z</time>
      </trkpt>
      <trkpt lat="45.72349" lon="6.45153">
        <ele>792</ele>
        <time>2022-07-23T11:03:33Z</time>
      </trkpt>
      <trkpt lat="45.72349" lon="6.45151">
        <ele>792</ele>
        <time>2022-07-23T11:03:34Z</time>
      </trkpt>
      <trkpt lat="45.72349" lon="6.4515">
        <ele>792</ele>
        <time>2022-07-23T11:03:35Z</time>
      </trkpt>
      <trkpt lat="45.7235" lon="6.45149">
        <ele>792</ele>
        <time>2022-07-23T11:03:36Z</time>
      </trkpt>
      <trkpt lat="45.7235" lon="6.45148">
        <ele>792</ele>
        <time>2022-07-23T11:03:37Z</time>
      </trkpt>
      <trkpt lat="45.7235" lon="6.45147">
        <ele>792</ele>
        <time>2022-07-23T11:03:38Z</time>
      </trkpt>
      <trkpt lat="45.7235" lon="6.45146">
        <ele>792</ele>
        <time>2022-07-23T11:03:39Z</time>
      </trkpt>
      <trkpt lat="45.7235" lon="6.45144">
        <ele>793</ele>
        <time>2022-07-23T11:03:40Z</time>
      </trkpt>
      <trkpt lat="45.72351" lon="6.45143">
        <ele>793</ele>
        <time>2022-07-23T11:03:41Z</time>
      </trkpt>
      <trkpt lat="45.72351" lon="6.45142">
        <ele>793</ele>
        <time>2022-07-23T11:03:42Z</time>
      </trkpt>
      <trkpt lat="45.72351" lon="6.45141">
        <ele>793</ele>
        <time>2022-07-23T11:03:43Z</time>
      </trkpt>
      <trkpt lat="45.72351" lon="6.45139">
        <ele>793</ele>
        <time>2022-07-23T11:03:44Z</time>
      </trkpt>
      <trkpt lat="45.72352" lon="6.45138">
        <ele>793</ele>
        <time>2022-07-23T11:03:45Z</time>
      </trkpt>
      <trkpt lat="45.72352" lon="6.45137">
        <ele>793</ele>
        <time>2022-07-23T11:03:46Z</time>
      </trkpt>
      <trkpt lat="45.72352" lon="6.45135">
        <ele>793</ele>
        <time>2022-07-23T11:03:47Z</time>
      </trkpt>
      <trkpt lat="45.72352" lon="6.45134">
        <ele>793</ele>
        <time>2022-07-23T11:03:48Z</time>
      </trkpt>
      <trkpt lat="45.72352" lon="6.45133">
        <ele>793</ele>
        <time>2022-07-23T11:03:49Z</time>
      </trkpt>
      <trkpt lat="45.72352" lon="6.45132">
        <ele>793</ele>
        <time>2022-07-23T11:03:50Z</time>
      </trkpt>
      <trkpt lat="45.72352" lon="6.4513">
        <ele>793</ele>
        <time>2022-07-23T11:03:51Z</time>
      </trkpt>
      <trkpt lat="45.72352" lon="6.45129">
        <ele>793</ele>
        <time>2022-07-23T11:03:52Z</time>
      </trkpt>
      <trkpt lat="45.72352" lon="6.45128">
        <ele>793</ele>
        <time>2022-07-23T11:03:53Z</time>
      </trkpt>
      <trkpt lat="45.72352" lon="6.45127">
        <ele>793</ele>
        <time>2022-07-23T11:03:54Z</time>
      </trkpt>
      <trkpt lat="45.72352" lon="6.45126">
        <ele>794</ele>
        <time>2022-07-23T11:03:55Z</time>
      </trkpt>
      <trkpt lat="45.72352" lon="6.45125">
        <ele>794</ele>
        <time>2022-07-23T11:03:56Z</time>
      </trkpt>
      <trkpt lat="45.72352" lon="6.45123">
        <ele>794</ele>
        <time>2022-07-23T11:03:57Z</time>
      </trkpt>
      <trkpt lat="45.72352" lon="6.45122">
        <ele>794</ele>
        <time>2022-07-23T11:03:58Z</time>
      </trkpt>
      <trkpt lat="45.72352" lon="6.45121">
        <ele>794</ele>
        <time>2022-07-23T11:03:59Z</time>
      </trkpt>
      <trkpt lat="45.72352" lon="6.45119">
        <ele>794</ele>
        <time>2022-07-23T11:04:00Z</time>
      </trkpt>
      <trkpt lat="45.72352" lon="6.45118">
        <ele>794</ele>
        <time>2022-07-23T11:04:01Z</time>
      </trkpt>
      <trkpt lat="45.72352" lon="6.45117">
        <ele>794</ele>
        <time>2022-07-23T11:04:02Z</time>
      </trkpt>
      <trkpt lat="45.72352" lon="6.45115">
        <ele>794</ele>
        <time>2022-07-23T11:04:03Z</time>
      </trkpt>
      <trkpt lat="45.72352" lon="6.45114">
        <ele>794</ele>
        <time>2022-07-23T11:04:04Z</time>
      </trkpt>
      <trkpt lat="45.72352" lon="6.45112">
        <ele>794</ele>
        <time>2022-07-23T11:04:05Z</time>
      </trkpt>
      <trkpt lat="45.72352" lon="6.45111">
        <ele>794</ele>
        <time>2022-07-23T11:04:06Z</time>
      </trkpt>
      <trkpt lat="45.72352" lon="6.45109">
        <ele>794</ele>
        <time>2022-07-23T11:04:07Z</time>
      </trkpt>
      <trkpt lat="45.72351" lon="6.45108">
        <ele>794</ele>
        <time>2022-07-23T11:04:08Z</time>
      </trkpt>
      <trkpt lat="45.72351" lon="6.45107">
        <ele>794</ele>
        <time>2022-07-23T11:04:09Z</time>
      </trkpt>
      <trkpt lat="45.72351" lon="6.45105">
        <ele>795</ele>
        <time>2022-07-23T11:04:10Z</time>
      </trkpt>
      <trkpt lat="45.7235" lon="6.45104">
        <ele>795</ele>
        <time>2022-07-23T11:04:11Z</time>
      </trkpt>
      <trkpt lat="45.7235" lon="6.45103">
        <ele>795</ele>
        <time>2022-07-23T11:04:12Z</time>
      </trkpt>
      <trkpt lat="45.7235" lon="6.45102">
        <ele>795</ele>
        <time>2022-07-23T11:04:13Z</time>
      </trkpt>
      <trkpt lat="45.72349" lon="6.45101">
        <ele>795</ele>
        <time>2022-07-23T11:04:14Z</time>
      </trkpt>
      <trkpt lat="45.72348" lon="6.451">
        <ele>795</ele>
        <time>2022-07-23T11:04:15Z</time>
      </trkpt>
      <trkpt lat="45.72348" lon="6.45099">
        <ele>795</ele>
        <time>2022-07-23T11:04:16Z</time>
      </trkpt>
      <trkpt lat="45.72347" lon="6.45098">
        <ele>795</ele>
        <time>2022-07-23T11:04:17Z</time>
      </trkpt>
      <trkpt lat="45.72346" lon="6.45097">
        <ele>795</ele>
        <time>2022-07-23T11:04:18Z</time>
      </trkpt>
      <trkpt lat="45.72346" lon="6.45096">
        <ele>795</ele>
        <time>2022-07-23T11:04:19Z</time>
      </trkpt>
      <trkpt lat="45.72345" lon="6.45095">
        <ele>796</ele>
        <time>2022-07-23T11:04:20Z</time>
      </trkpt>
      <trkpt lat="45.72345" lon="6.45094">
        <ele>796</ele>
        <time>2022-07-23T11:04:21Z</time>
      </trkpt>
      <trkpt lat="45.72344" lon="6.45093">
        <ele>796</ele>
        <time>2022-07-23T11:04:22Z</time>
      </trkpt>
      <trkpt lat="45.72344" lon="6.45093">
        <ele>796</ele>
        <time>2022-07-23T11:04:23Z</time>
      </trkpt>
      <trkpt lat="45.72343" lon="6.45092">
        <ele>796</ele>
        <time>2022-07-23T11:04:24Z</time>
      </trkpt>
      <trkpt lat="45.72343" lon="6.45091">
        <ele>796</ele>
        <time>2022-07-23T11:04:25Z</time>
      </trkpt>
      <trkpt lat="45.72342" lon="6.4509">
        <ele>796</ele>
        <time>2022-07-23T11:04:26Z</time>
      </trkpt>
      <trkpt lat="45.72341" lon="6.45089">
        <ele>796</ele>
        <time>2022-07-23T11:04:27Z</time>
      </trkpt>
      <trkpt lat="45.72341" lon="6.45088">
        <ele>796</ele>
        <time>2022-07-23T11:04:28Z</time>
      </trkpt>
      <trkpt lat="45.7234" lon="6.45088">
        <ele>796</ele>
        <time>2022-07-23T11:04:29Z</time>
      </trkpt>
      <trkpt lat="45.7234" lon="6.45087">
        <ele>796</ele>
        <time>2022-07-23T11:04:30Z</time>
      </trkpt>
      <trkpt lat="45.72339" lon="6.45086">
        <ele>796</ele>
        <time>2022-07-23T11:04:31Z</time>
      </trkpt>
      <trkpt lat="45.72338" lon="6.45085">
        <ele>796</ele>
        <time>2022-07-23T11:04:32Z</time>
      </trkpt>
      <trkpt lat="45.72338" lon="6.45084">
        <ele>796</ele>
        <time>2022-07-23T11:04:33Z</time>
      </trkpt>
      <trkpt lat="45.72337" lon="6.45083">
        <ele>796</ele>
        <time>2022-07-23T11:04:34Z</time>
      </trkpt>
      <trkpt lat="45.72336" lon="6.45082">
        <ele>797</ele>
        <time>2022-07-23T11:04:35Z</time>
      </trkpt>
      <trkpt lat="45.72335" lon="6.45081">
        <ele>797</ele>
        <time>2022-07-23T11:04:36Z</time>
      </trkpt>
      <trkpt lat="45.72335" lon="6.4508">
        <ele>797</ele>
        <time>2022-07-23T11:04:37Z</time>
      </trkpt>
      <trkpt lat="45.72334" lon="6.45079">
        <ele>797</ele>
        <time>2022-07-23T11:04:38Z</time>
      </trkpt>
      <trkpt lat="45.72333" lon="6.45078">
        <ele>797</ele>
        <time>2022-07-23T11:04:39Z</time>
      </trkpt>
      <trkpt lat="45.72333" lon="6.45077">
        <ele>797</ele>
        <time>2022-07-23T11:04:40Z</time>
      </trkpt>
      <trkpt lat="45.72332" lon="6.45076">
        <ele>797</ele>
        <time>2022-07-23T11:04:41Z</time>
      </trkpt>
      <trkpt lat="45.72331" lon="6.45075">
        <ele>797</ele>
        <time>2022-07-23T11:04:42Z</time>
      </trkpt>
      <trkpt lat="45.7233" lon="6.45074">
        <ele>797</ele>
        <time>2022-07-23T11:04:43Z</time>
      </trkpt>
      <trkpt lat="45.7233" lon="6.45073">
        <ele>797</ele>
        <time>2022-07-23T11:04:44Z</time>
      </trkpt>
      <trkpt lat="45.72329" lon="6.45072">
        <ele>798</ele>
        <time>2022-07-23T11:04:45Z</time>
      </trkpt>
      <trkpt lat="45.72329" lon="6.45071">
        <ele>798</ele>
        <time>2022-07-23T11:04:46Z</time>
      </trkpt>
      <trkpt lat="45.72328" lon="6.4507">
        <ele>798</ele>
        <time>2022-07-23T11:04:47Z</time>
      </trkpt>
      <trkpt lat="45.72327" lon="6.45069">
        <ele>798</ele>
        <time>2022-07-23T11:04:48Z</time>
      </trkpt>
      <trkpt lat="45.72327" lon="6.45068">
        <ele>798</ele>
        <time>2022-07-23T11:04:49Z</time>
      </trkpt>
      <trkpt lat="45.72326" lon="6.45068">
        <ele>798</ele>
        <time>2022-07-23T11:04:50Z</time>
      </trkpt>
      <trkpt lat="45.72326" lon="6.45067">
        <ele>798</ele>
        <time>2022-07-23T11:04:51Z</time>
      </trkpt>
      <trkpt lat="45.72325" lon="6.45066">
        <ele>798</ele>
        <time>2022-07-23T11:04:52Z</time>
      </trkpt>
      <trkpt lat="45.72325" lon="6.45065">
        <ele>798</ele>
        <time>2022-07-23T11:04:53Z</time>
      </trkpt>
      <trkpt lat="45.72324" lon="6.45064">
        <ele>798</ele>
        <time>2022-07-23T11:04:54Z</time>
      </trkpt>
      <trkpt lat="45.72324" lon="6.45063">
        <ele>799</ele>
        <time>2022-07-23T11:04:55Z</time>
      </trkpt>
      <trkpt lat="45.72323" lon="6.45062">
        <ele>799</ele>
        <time>2022-07-23T11:04:56Z</time>
      </trkpt>
      <trkpt lat="45.72323" lon="6.45061">
        <ele>799</ele>
        <time>2022-07-23T11:04:57Z</time>
      </trkpt>
      <trkpt lat="45.72322" lon="6.4506">
        <ele>799</ele>
        <time>2022-07-23T11:04:58Z</time>
      </trkpt>
      <trkpt lat="45.72322" lon="6.45059">
        <ele>799</ele>
        <time>2022-07-23T11:04:59Z</time>
      </trkpt>
      <trkpt lat="45.72321" lon="6.45058">
        <ele>799</ele>
        <time>2022-07-23T11:05:00Z</time>
      </trkpt>
      <trkpt lat="45.72321" lon="6.45056">
        <ele>799</ele>
        <time>2022-07-23T11:05:01Z</time>
      </trkpt>
      <trkpt lat="45.7232" lon="6.45055">
        <ele>799</ele>
        <time>2022-07-23T11:05:02Z</time>
      </trkpt>
      <trkpt lat="45.7232" lon="6.45054">
        <ele>799</ele>
        <time>2022-07-23T11:05:03Z</time>
      </trkpt>
      <trkpt lat="45.72319" lon="6.45053">
        <ele>799</ele>
        <time>2022-07-23T11:05:04Z</time>
      </trkpt>
      <trkpt lat="45.72319" lon="6.45052">
        <ele>800</ele>
        <time>2022-07-23T11:05:05Z</time>
      </trkpt>
      <trkpt lat="45.72318" lon="6.4505">
        <ele>800</ele>
        <time>2022-07-23T11:05:06Z</time>
      </trkpt>
      <trkpt lat="45.72318" lon="6.45049">
        <ele>800</ele>
        <time>2022-07-23T11:05:07Z</time>
      </trkpt>
      <trkpt lat="45.72317" lon="6.45048">
        <ele>800</ele>
        <time>2022-07-23T11:05:08Z</time>
      </trkpt>
      <trkpt lat="45.72317" lon="6.45047">
        <ele>800</ele>
        <time>2022-07-23T11:05:09Z</time>
      </trkpt>
      <trkpt lat="45.72316" lon="6.45046">
        <ele>800</ele>
        <time>2022-07-23T11:05:10Z</time>
      </trkpt>
      <trkpt lat="45.72316" lon="6.45045">
        <ele>800</ele>
        <time>2022-07-23T11:05:11Z</time>
      </trkpt>
      <trkpt lat="45.72315" lon="6.45042">
        <ele>801</ele>
        <time>2022-07-23T11:05:18Z</time>
      </trkpt>
      <trkpt lat="45.72315" lon="6.45041">
        <ele>801</ele>
        <time>2022-07-23T11:05:19Z</time>
      </trkpt>
      <trkpt lat="45.72314" lon="6.4504">
        <ele>801</ele>
        <time>2022-07-23T11:05:20Z</time>
      </trkpt>
      <trkpt lat="45.72314" lon="6.45039">
        <ele>801</ele>
        <time>2022-07-23T11:05:21Z</time>
      </trkpt>
      <trkpt lat="45.72314" lon="6.45038">
        <ele>801</ele>
        <time>2022-07-23T11:05:22Z</time>
      </trkpt>
      <trkpt lat="45.72313" lon="6.45038">
        <ele>802</ele>
        <time>2022-07-23T11:05:28Z</time>
      </trkpt>
      <trkpt lat="45.72313" lon="6.45037">
        <ele>802</ele>
        <time>2022-07-23T11:05:29Z</time>
      </trkpt>
      <trkpt lat="45.72313" lon="6.45036">
        <ele>802</ele>
        <time>2022-07-23T11:05:30Z</time>
      </trkpt>
      <trkpt lat="45.72312" lon="6.45035">
        <ele>802</ele>
        <time>2022-07-23T11:05:31Z</time>
      </trkpt>
      <trkpt lat="45.72312" lon="6.45035">
        <ele>802</ele>
        <time>2022-07-23T11:05:32Z</time>
      </trkpt>
      <trkpt lat="45.72312" lon="6.45034">
        <ele>802</ele>
        <time>2022-07-23T11:05:33Z</time>
      </trkpt>
      <trkpt lat="45.72311" lon="6.45033">
        <ele>802</ele>
        <time>2022-07-23T11:05:34Z</time>
      </trkpt>
      <trkpt lat="45.72311" lon="6.45031">
        <ele>802</ele>
        <time>2022-07-23T11:05:35Z</time>
      </trkpt>
      <trkpt lat="45.72311" lon="6.4503">
        <ele>802</ele>
        <time>2022-07-23T11:05:36Z</time>
      </trkpt>
      <trkpt lat="45.72311" lon="6.45029">
        <ele>802</ele>
        <time>2022-07-23T11:05:37Z</time>
      </trkpt>
      <trkpt lat="45.72311" lon="6.45028">
        <ele>802</ele>
        <time>2022-07-23T11:05:38Z</time>
      </trkpt>
      <trkpt lat="45.7231" lon="6.45027">
        <ele>802</ele>
        <time>2022-07-23T11:05:39Z</time>
      </trkpt>
      <trkpt lat="45.7231" lon="6.45025">
        <ele>802</ele>
        <time>2022-07-23T11:05:40Z</time>
      </trkpt>
      <trkpt lat="45.7231" lon="6.45024">
        <ele>802</ele>
        <time>2022-07-23T11:05:41Z</time>
      </trkpt>
      <trkpt lat="45.7231" lon="6.45023">
        <ele>802</ele>
        <time>2022-07-23T11:05:42Z</time>
      </trkpt>
      <trkpt lat="45.7231" lon="6.45022">
        <ele>802</ele>
        <time>2022-07-23T11:05:43Z</time>
      </trkpt>
      <trkpt lat="45.72309" lon="6.4502">
        <ele>802</ele>
        <time>2022-07-23T11:05:44Z</time>
      </trkpt>
      <trkpt lat="45.72309" lon="6.45019">
        <ele>803</ele>
        <time>2022-07-23T11:05:45Z</time>
      </trkpt>
      <trkpt lat="45.7231" lon="6.45018">
        <ele>803</ele>
        <time>2022-07-23T11:05:46Z</time>
      </trkpt>
      <trkpt lat="45.7231" lon="6.45017">
        <ele>803</ele>
        <time>2022-07-23T11:05:47Z</time>
      </trkpt>
      <trkpt lat="45.7231" lon="6.45015">
        <ele>803</ele>
        <time>2022-07-23T11:05:48Z</time>
      </trkpt>
      <trkpt lat="45.7231" lon="6.45014">
        <ele>803</ele>
        <time>2022-07-23T11:05:49Z</time>
      </trkpt>
      <trkpt lat="45.7231" lon="6.45013">
        <ele>803</ele>
        <time>2022-07-23T11:05:50Z</time>
      </trkpt>
      <trkpt lat="45.7231" lon="6.45012">
        <ele>803</ele>
        <time>2022-07-23T11:05:51Z</time>
      </trkpt>
      <trkpt lat="45.7231" lon="6.4501">
        <ele>803</ele>
        <time>2022-07-23T11:05:52Z</time>
      </trkpt>
      <trkpt lat="45.72309" lon="6.45009">
        <ele>803</ele>
        <time>2022-07-23T11:05:53Z</time>
      </trkpt>
      <trkpt lat="45.72309" lon="6.45008">
        <ele>803</ele>
        <time>2022-07-23T11:05:54Z</time>
      </trkpt>
      <trkpt lat="45.72309" lon="6.45006">
        <ele>803</ele>
        <time>2022-07-23T11:05:55Z</time>
      </trkpt>
      <trkpt lat="45.72309" lon="6.45005">
        <ele>803</ele>
        <time>2022-07-23T11:05:56Z</time>
      </trkpt>
      <trkpt lat="45.72309" lon="6.45004">
        <ele>803</ele>
        <time>2022-07-23T11:05:57Z</time>
      </trkpt>
      <trkpt lat="45.72308" lon="6.45003">
        <ele>803</ele>
        <time>2022-07-23T11:05:58Z</time>
      </trkpt>
      <trkpt lat="45.72308" lon="6.45001">
        <ele>803</ele>
        <time>2022-07-23T11:05:59Z</time>
      </trkpt>
      <trkpt lat="45.72308" lon="6.45">
        <ele>804</ele>
        <time>2022-07-23T11:06:00Z</time>
      </trkpt>
      <trkpt lat="45.72308" lon="6.44999">
        <ele>804</ele>
        <time>2022-07-23T11:06:01Z</time>
      </trkpt>
      <trkpt lat="45.72308" lon="6.44998">
        <ele>804</ele>
        <time>2022-07-23T11:06:02Z</time>
      </trkpt>
      <trkpt lat="45.72307" lon="6.44996">
        <ele>804</ele>
        <time>2022-07-23T11:06:03Z</time>
      </trkpt>
      <trkpt lat="45.72307" lon="6.44995">
        <ele>804</ele>
        <time>2022-07-23T11:06:04Z</time>
      </trkpt>
      <trkpt lat="45.72307" lon="6.44994">
        <ele>804</ele>
        <time>2022-07-23T11:06:05Z</time>
      </trkpt>
      <trkpt lat="45.72307" lon="6.44993">
        <ele>804</ele>
        <time>2022-07-23T11:06:06Z</time>
      </trkpt>
      <trkpt lat="45.72307" lon="6.44992">
        <ele>804</ele>
        <time>2022-07-23T11:06:07Z</time>
      </trkpt>
      <trkpt lat="45.72307" lon="6.44991">
        <ele>804</ele>
        <time>2022-07-23T11:06:08Z</time>
      </trkpt>
      <trkpt lat="45.72306" lon="6.4499">
        <ele>804</ele>
        <time>2022-07-23T11:06:09Z</time>
      </trkpt>
      <trkpt lat="45.72306" lon="6.44989">
        <ele>804</ele>
        <time>2022-07-23T11:06:10Z</time>
      </trkpt>
      <trkpt lat="45.72306" lon="6.44988">
        <ele>804</ele>
        <time>2022-07-23T11:06:11Z</time>
      </trkpt>
      <trkpt lat="45.72306" lon="6.44987">
        <ele>804</ele>
        <time>2022-07-23T11:06:12Z</time>
      </trkpt>
      <trkpt lat="45.72306" lon="6.44985">
        <ele>804</ele>
        <time>2022-07-23T11:06:13Z</time>
      </trkpt>
      <trkpt lat="45.72305" lon="6.44984">
        <ele>804</ele>
        <time>2022-07-23T11:06:14Z</time>
      </trkpt>
      <trkpt lat="45.72305" lon="6.44983">
        <ele>805</ele>
        <time>2022-07-23T11:06:15Z</time>
      </trkpt>
      <trkpt lat="45.72305" lon="6.44982">
        <ele>805</ele>
        <time>2022-07-23T11:06:16Z</time>
      </trkpt>
      <trkpt lat="45.72305" lon="6.4498">
        <ele>805</ele>
        <time>2022-07-23T11:06:17Z</time>
      </trkpt>
      <trkpt lat="45.72304" lon="6.44979">
        <ele>805</ele>
        <time>2022-07-23T11:06:18Z</time>
      </trkpt>
      <trkpt lat="45.72304" lon="6.44978">
        <ele>805</ele>
        <time>2022-07-23T11:06:19Z</time>
      </trkpt>
      <trkpt lat="45.72304" lon="6.44977">
        <ele>805</ele>
        <time>2022-07-23T11:06:20Z</time>
      </trkpt>
      <trkpt lat="45.72304" lon="6.44976">
        <ele>805</ele>
        <time>2022-07-23T11:06:21Z</time>
      </trkpt>
      <trkpt lat="45.72304" lon="6.44975">
        <ele>805</ele>
        <time>2022-07-23T11:06:22Z</time>
      </trkpt>
      <trkpt lat="45.72303" lon="6.44974">
        <ele>805</ele>
        <time>2022-07-23T11:06:23Z</time>
      </trkpt>
      <trkpt lat="45.72303" lon="6.44973">
        <ele>805</ele>
        <time>2022-07-23T11:06:24Z</time>
      </trkpt>
      <trkpt lat="45.72302" lon="6.44971">
        <ele>806</ele>
        <time>2022-07-23T11:06:25Z</time>
      </trkpt>
      <trkpt lat="45.72301" lon="6.4497">
        <ele>806</ele>
        <time>2022-07-23T11:06:26Z</time>
      </trkpt>
      <trkpt lat="45.72301" lon="6.44969">
        <ele>806</ele>
        <time>2022-07-23T11:06:27Z</time>
      </trkpt>
      <trkpt lat="45.723" lon="6.44968">
        <ele>806</ele>
        <time>2022-07-23T11:06:28Z</time>
      </trkpt>
      <trkpt lat="45.723" lon="6.44967">
        <ele>806</ele>
        <time>2022-07-23T11:06:29Z</time>
      </trkpt>
      <trkpt lat="45.72299" lon="6.44965">
        <ele>806</ele>
        <time>2022-07-23T11:06:30Z</time>
      </trkpt>
      <trkpt lat="45.72299" lon="6.44964">
        <ele>806</ele>
        <time>2022-07-23T11:06:31Z</time>
      </trkpt>
      <trkpt lat="45.72298" lon="6.44963">
        <ele>806</ele>
        <time>2022-07-23T11:06:32Z</time>
      </trkpt>
      <trkpt lat="45.72298" lon="6.44962">
        <ele>807</ele>
        <time>2022-07-23T11:06:33Z</time>
      </trkpt>
      <trkpt lat="45.72298" lon="6.44961">
        <ele>807</ele>
        <time>2022-07-23T11:06:34Z</time>
      </trkpt>
      <trkpt lat="45.72297" lon="6.44959">
        <ele>808</ele>
        <time>2022-07-23T11:06:35Z</time>
      </trkpt>
      <trkpt lat="45.72297" lon="6.44958">
        <ele>808</ele>
        <time>2022-07-23T11:06:36Z</time>
      </trkpt>
      <trkpt lat="45.72296" lon="6.44957">
        <ele>808</ele>
        <time>2022-07-23T11:06:37Z</time>
      </trkpt>
      <trkpt lat="45.72296" lon="6.44956">
        <ele>808</ele>
        <time>2022-07-23T11:06:38Z</time>
      </trkpt>
      <trkpt lat="45.72296" lon="6.44954">
        <ele>808</ele>
        <time>2022-07-23T11:06:39Z</time>
      </trkpt>
      <trkpt lat="45.72295" lon="6.44953">
        <ele>808</ele>
        <time>2022-07-23T11:06:40Z</time>
      </trkpt>
      <trkpt lat="45.72295" lon="6.44952">
        <ele>808</ele>
        <time>2022-07-23T11:06:41Z</time>
      </trkpt>
      <trkpt lat="45.72295" lon="6.44951">
        <ele>808</ele>
        <time>2022-07-23T11:06:42Z</time>
      </trkpt>
      <trkpt lat="45.72294" lon="6.4495">
        <ele>808</ele>
        <time>2022-07-23T11:06:43Z</time>
      </trkpt>
      <trkpt lat="45.72294" lon="6.44949">
        <ele>808</ele>
        <time>2022-07-23T11:06:44Z</time>
      </trkpt>
      <trkpt lat="45.72294" lon="6.44948">
        <ele>809</ele>
        <time>2022-07-23T11:06:45Z</time>
      </trkpt>
      <trkpt lat="45.72294" lon="6.44947">
        <ele>809</ele>
        <time>2022-07-23T11:06:46Z</time>
      </trkpt>
      <trkpt lat="45.72294" lon="6.44946">
        <ele>809</ele>
        <time>2022-07-23T11:06:47Z</time>
      </trkpt>
      <trkpt lat="45.72293" lon="6.44945">
        <ele>809</ele>
        <time>2022-07-23T11:06:48Z</time>
      </trkpt>
      <trkpt lat="45.72293" lon="6.44944">
        <ele>809</ele>
        <time>2022-07-23T11:06:49Z</time>
      </trkpt>
      <trkpt lat="45.72293" lon="6.44943">
        <ele>809</ele>
        <time>2022-07-23T11:06:50Z</time>
      </trkpt>
      <trkpt lat="45.72293" lon="6.44941">
        <ele>809</ele>
        <time>2022-07-23T11:06:51Z</time>
      </trkpt>
      <trkpt lat="45.72293" lon="6.4494">
        <ele>809</ele>
        <time>2022-07-23T11:06:52Z</time>
      </trkpt>
      <trkpt lat="45.72292" lon="6.44939">
        <ele>809</ele>
        <time>2022-07-23T11:06:53Z</time>
      </trkpt>
      <trkpt lat="45.72292" lon="6.44938">
        <ele>809</ele>
        <time>2022-07-23T11:06:54Z</time>
      </trkpt>
      <trkpt lat="45.72292" lon="6.44937">
        <ele>810</ele>
        <time>2022-07-23T11:06:55Z</time>
      </trkpt>
      <trkpt lat="45.72292" lon="6.44936">
        <ele>810</ele>
        <time>2022-07-23T11:06:56Z</time>
      </trkpt>
      <trkpt lat="45.72291" lon="6.44935">
        <ele>810</ele>
        <time>2022-07-23T11:06:57Z</time>
      </trkpt>
      <trkpt lat="45.72291" lon="6.44934">
        <ele>810</ele>
        <time>2022-07-23T11:06:58Z</time>
      </trkpt>
      <trkpt lat="45.72291" lon="6.44932">
        <ele>810</ele>
        <time>2022-07-23T11:06:59Z</time>
      </trkpt>
      <trkpt lat="45.7229" lon="6.44931">
        <ele>810</ele>
        <time>2022-07-23T11:07:00Z</time>
      </trkpt>
      <trkpt lat="45.7229" lon="6.4493">
        <ele>810</ele>
        <time>2022-07-23T11:07:01Z</time>
      </trkpt>
      <trkpt lat="45.7229" lon="6.44929">
        <ele>810</ele>
        <time>2022-07-23T11:07:02Z</time>
      </trkpt>
      <trkpt lat="45.72289" lon="6.44927">
        <ele>810</ele>
        <time>2022-07-23T11:07:03Z</time>
      </trkpt>
      <trkpt lat="45.72289" lon="6.44926">
        <ele>810</ele>
        <time>2022-07-23T11:07:04Z</time>
      </trkpt>
      <trkpt lat="45.72289" lon="6.44925">
        <ele>810</ele>
        <time>2022-07-23T11:07:05Z</time>
      </trkpt>
      <trkpt lat="45.72289" lon="6.44924">
        <ele>810</ele>
        <time>2022-07-23T11:07:06Z</time>
      </trkpt>
      <trkpt lat="45.72288" lon="6.44923">
        <ele>810</ele>
        <time>2022-07-23T11:07:07Z</time>
      </trkpt>
      <trkpt lat="45.72288" lon="6.44922">
        <ele>810</ele>
        <time>2022-07-23T11:07:08Z</time>
      </trkpt>
      <trkpt lat="45.72288" lon="6.4492">
        <ele>810</ele>
        <time>2022-07-23T11:07:09Z</time>
      </trkpt>
      <trkpt lat="45.72288" lon="6.44919">
        <ele>811</ele>
        <time>2022-07-23T11:07:10Z</time>
      </trkpt>
      <trkpt lat="45.72287" lon="6.44918">
        <ele>811</ele>
        <time>2022-07-23T11:07:11Z</time>
      </trkpt>
      <trkpt lat="45.72287" lon="6.44917">
        <ele>811</ele>
        <time>2022-07-23T11:07:12Z</time>
      </trkpt>
      <trkpt lat="45.72287" lon="6.44917">
        <ele>811</ele>
        <time>2022-07-23T11:07:13Z</time>
      </trkpt>
      <trkpt lat="45.72286" lon="6.44916">
        <ele>811</ele>
        <time>2022-07-23T11:07:14Z</time>
      </trkpt>
      <trkpt lat="45.72286" lon="6.44914">
        <ele>811</ele>
        <time>2022-07-23T11:07:15Z</time>
      </trkpt>
      <trkpt lat="45.72286" lon="6.44913">
        <ele>811</ele>
        <time>2022-07-23T11:07:16Z</time>
      </trkpt>
      <trkpt lat="45.72286" lon="6.44912">
        <ele>811</ele>
        <time>2022-07-23T11:07:17Z</time>
      </trkpt>
      <trkpt lat="45.72286" lon="6.44911">
        <ele>811</ele>
        <time>2022-07-23T11:07:18Z</time>
      </trkpt>
      <trkpt lat="45.72286" lon="6.44911">
        <ele>811</ele>
        <time>2022-07-23T11:07:19Z</time>
      </trkpt>
      <trkpt lat="45.72285" lon="6.44909">
        <ele>812</ele>
        <time>2022-07-23T11:07:20Z</time>
      </trkpt>
      <trkpt lat="45.72285" lon="6.44908">
        <ele>812</ele>
        <time>2022-07-23T11:07:21Z</time>
      </trkpt>
      <trkpt lat="45.72285" lon="6.44907">
        <ele>812</ele>
        <time>2022-07-23T11:07:22Z</time>
      </trkpt>
      <trkpt lat="45.72285" lon="6.44905">
        <ele>812</ele>
        <time>2022-07-23T11:07:23Z</time>
      </trkpt>
      <trkpt lat="45.72285" lon="6.44904">
        <ele>812</ele>
        <time>2022-07-23T11:07:24Z</time>
      </trkpt>
      <trkpt lat="45.72285" lon="6.44903">
        <ele>812</ele>
        <time>2022-07-23T11:07:25Z</time>
      </trkpt>
      <trkpt lat="45.72284" lon="6.44902">
        <ele>812</ele>
        <time>2022-07-23T11:07:26Z</time>
      </trkpt>
      <trkpt lat="45.72284" lon="6.44901">
        <ele>812</ele>
        <time>2022-07-23T11:07:27Z</time>
      </trkpt>
      <trkpt lat="45.72284" lon="6.449">
        <ele>812</ele>
        <time>2022-07-23T11:07:28Z</time>
      </trkpt>
      <trkpt lat="45.72284" lon="6.44899">
        <ele>812</ele>
        <time>2022-07-23T11:07:29Z</time>
      </trkpt>
      <trkpt lat="45.72283" lon="6.44897">
        <ele>812</ele>
        <time>2022-07-23T11:07:30Z</time>
      </trkpt>
      <trkpt lat="45.72283" lon="6.44896">
        <ele>812</ele>
        <time>2022-07-23T11:07:31Z</time>
      </trkpt>
      <trkpt lat="45.72283" lon="6.44895">
        <ele>812</ele>
        <time>2022-07-23T11:07:32Z</time>
      </trkpt>
      <trkpt lat="45.72282" lon="6.44895">
        <ele>812</ele>
        <time>2022-07-23T11:07:33Z</time>
      </trkpt>
      <trkpt lat="45.72282" lon="6.44894">
        <ele>812</ele>
        <time>2022-07-23T11:07:34Z</time>
      </trkpt>
      <trkpt lat="45.72282" lon="6.44893">
        <ele>813</ele>
        <time>2022-07-23T11:07:35Z</time>
      </trkpt>
      <trkpt lat="45.72281" lon="6.44892">
        <ele>813</ele>
        <time>2022-07-23T11:07:36Z</time>
      </trkpt>
      <trkpt lat="45.72281" lon="6.44891">
        <ele>813</ele>
        <time>2022-07-23T11:07:37Z</time>
      </trkpt>
      <trkpt lat="45.72281" lon="6.4489">
        <ele>813</ele>
        <time>2022-07-23T11:07:38Z</time>
      </trkpt>
      <trkpt lat="45.7228" lon="6.44889">
        <ele>813</ele>
        <time>2022-07-23T11:07:39Z</time>
      </trkpt>
      <trkpt lat="45.7228" lon="6.44888">
        <ele>813</ele>
        <time>2022-07-23T11:07:40Z</time>
      </trkpt>
      <trkpt lat="45.7228" lon="6.44887">
        <ele>813</ele>
        <time>2022-07-23T11:07:41Z</time>
      </trkpt>
      <trkpt lat="45.72279" lon="6.44886">
        <ele>813</ele>
        <time>2022-07-23T11:07:42Z</time>
      </trkpt>
      <trkpt lat="45.72279" lon="6.44885">
        <ele>813</ele>
        <time>2022-07-23T11:07:43Z</time>
      </trkpt>
      <trkpt lat="45.72279" lon="6.44884">
        <ele>813</ele>
        <time>2022-07-23T11:07:44Z</time>
      </trkpt>
      <trkpt lat="45.72278" lon="6.44883">
        <ele>813</ele>
        <time>2022-07-23T11:07:45Z</time>
      </trkpt>
      <trkpt lat="45.72278" lon="6.44882">
        <ele>813</ele>
        <time>2022-07-23T11:07:46Z</time>
      </trkpt>
      <trkpt lat="45.72277" lon="6.44881">
        <ele>813</ele>
        <time>2022-07-23T11:07:47Z</time>
      </trkpt>
      <trkpt lat="45.72277" lon="6.4488">
        <ele>813</ele>
        <time>2022-07-23T11:07:48Z</time>
      </trkpt>
      <trkpt lat="45.72276" lon="6.44879">
        <ele>813</ele>
        <time>2022-07-23T11:07:49Z</time>
      </trkpt>
      <trkpt lat="45.72276" lon="6.44878">
        <ele>814</ele>
        <time>2022-07-23T11:07:50Z</time>
      </trkpt>
      <trkpt lat="45.72275" lon="6.44877">
        <ele>814</ele>
        <time>2022-07-23T11:07:51Z</time>
      </trkpt>
      <trkpt lat="45.72275" lon="6.44876">
        <ele>814</ele>
        <time>2022-07-23T11:07:52Z</time>
      </trkpt>
      <trkpt lat="45.72274" lon="6.44875">
        <ele>814</ele>
        <time>2022-07-23T11:07:53Z</time>
      </trkpt>
      <trkpt lat="45.72274" lon="6.44875">
        <ele>814</ele>
        <time>2022-07-23T11:07:54Z</time>
      </trkpt>
      <trkpt lat="45.72273" lon="6.44874">
        <ele>814</ele>
        <time>2022-07-23T11:07:55Z</time>
      </trkpt>
      <trkpt lat="45.72273" lon="6.44873">
        <ele>814</ele>
        <time>2022-07-23T11:07:56Z</time>
      </trkpt>
      <trkpt lat="45.72272" lon="6.44873">
        <ele>814</ele>
        <time>2022-07-23T11:07:57Z</time>
      </trkpt>
      <trkpt lat="45.72272" lon="6.44872">
        <ele>814</ele>
        <time>2022-07-23T11:07:58Z</time>
      </trkpt>
      <trkpt lat="45.72271" lon="6.44871">
        <ele>814</ele>
        <time>2022-07-23T11:07:59Z</time>
      </trkpt>
      <trkpt lat="45.72271" lon="6.44871">
        <ele>815</ele>
        <time>2022-07-23T11:08:00Z</time>
      </trkpt>
      <trkpt lat="45.7227" lon="6.4487">
        <ele>815</ele>
        <time>2022-07-23T11:08:01Z</time>
      </trkpt>
      <trkpt lat="45.7227" lon="6.44869">
        <ele>815</ele>
        <time>2022-07-23T11:08:02Z</time>
      </trkpt>
      <trkpt lat="45.7227" lon="6.44868">
        <ele>815</ele>
        <time>2022-07-23T11:08:03Z</time>
      </trkpt>
      <trkpt lat="45.72269" lon="6.44865">
        <ele>816</ele>
        <time>2022-07-23T11:08:31Z</time>
      </trkpt>
      <trkpt lat="45.72269" lon="6.44864">
        <ele>816</ele>
        <time>2022-07-23T11:08:32Z</time>
      </trkpt>
      <trkpt lat="45.72268" lon="6.44864">
        <ele>816</ele>
        <time>2022-07-23T11:08:33Z</time>
      </trkpt>
      <trkpt lat="45.72268" lon="6.44863">
        <ele>816</ele>
        <time>2022-07-23T11:08:34Z</time>
      </trkpt>
      <trkpt lat="45.72268" lon="6.44863">
        <ele>816</ele>
        <time>2022-07-23T11:08:35Z</time>
      </trkpt>
      <trkpt lat="45.72267" lon="6.44863">
        <ele>816</ele>
        <time>2022-07-23T11:08:36Z</time>
      </trkpt>
      <trkpt lat="45.72267" lon="6.44863">
        <ele>816</ele>
        <time>2022-07-23T11:08:37Z</time>
      </trkpt>
      <trkpt lat="45.72266" lon="6.44861">
        <ele>816</ele>
        <time>2022-07-23T11:09:30Z</time>
      </trkpt>
      <trkpt lat="45.72266" lon="6.44859">
        <ele>816</ele>
        <time>2022-07-23T11:09:31Z</time>
      </trkpt>
      <trkpt lat="45.72266" lon="6.44858">
        <ele>816</ele>
        <time>2022-07-23T11:09:32Z</time>
      </trkpt>
      <trkpt lat="45.72265" lon="6.44856">
        <ele>816</ele>
        <time>2022-07-23T11:09:41Z</time>
      </trkpt>
      <trkpt lat="45.72264" lon="6.44854">
        <ele>816</ele>
        <time>2022-07-23T11:09:42Z</time>
      </trkpt>
      <trkpt lat="45.72264" lon="6.44853">
        <ele>816</ele>
        <time>2022-07-23T11:09:43Z</time>
      </trkpt>
      <trkpt lat="45.72263" lon="6.44852">
        <ele>816</ele>
        <time>2022-07-23T11:09:44Z</time>
      </trkpt>
      <trkpt lat="45.72263" lon="6.44851">
        <ele>816</ele>
        <time>2022-07-23T11:09:45Z</time>
      </trkpt>
      <trkpt lat="45.72262" lon="6.4485">
        <ele>816</ele>
        <time>2022-07-23T11:09:46Z</time>
      </trkpt>
      <trkpt lat="45.72261" lon="6.44848">
        <ele>816</ele>
        <time>2022-07-23T11:09:47Z</time>
      </trkpt>
      <trkpt lat="45.72261" lon="6.44847">
        <ele>816</ele>
        <time>2022-07-23T11:09:48Z</time>
      </trkpt>
      <trkpt lat="45.7226" lon="6.44845">
        <ele>816</ele>
        <time>2022-07-23T11:09:49Z</time>
      </trkpt>
      <trkpt lat="45.72259" lon="6.44844">
        <ele>817</ele>
        <time>2022-07-23T11:09:50Z</time>
      </trkpt>
      <trkpt lat="45.72258" lon="6.44843">
        <ele>817</ele>
        <time>2022-07-23T11:09:51Z</time>
      </trkpt>
      <trkpt lat="45.72258" lon="6.44842">
        <ele>817</ele>
        <time>2022-07-23T11:09:52Z</time>
      </trkpt>
      <trkpt lat="45.72257" lon="6.44841">
        <ele>817</ele>
        <time>2022-07-23T11:09:53Z</time>
      </trkpt>
      <trkpt lat="45.72256" lon="6.4484">
        <ele>817</ele>
        <time>2022-07-23T11:09:54Z</time>
      </trkpt>
      <trkpt lat="45.72255" lon="6.44839">
        <ele>817</ele>
        <time>2022-07-23T11:09:55Z</time>
      </trkpt>
      <trkpt lat="45.72255" lon="6.44838">
        <ele>817</ele>
        <time>2022-07-23T11:09:56Z</time>
      </trkpt>
      <trkpt lat="45.72254" lon="6.44838">
        <ele>817</ele>
        <time>2022-07-23T11:09:57Z</time>
      </trkpt>
      <trkpt lat="45.72254" lon="6.44837">
        <ele>817</ele>
        <time>2022-07-23T11:09:58Z</time>
      </trkpt>
      <trkpt lat="45.72253" lon="6.44836">
        <ele>817</ele>
        <time>2022-07-23T11:09:59Z</time>
      </trkpt>
      <trkpt lat="45.72252" lon="6.44835">
        <ele>817</ele>
        <time>2022-07-23T11:10:00Z</time>
      </trkpt>
      <trkpt lat="45.72252" lon="6.44835">
        <ele>817</ele>
        <time>2022-07-23T11:10:01Z</time>
      </trkpt>
      <trkpt lat="45.72251" lon="6.44834">
        <ele>817</ele>
        <time>2022-07-23T11:10:02Z</time>
      </trkpt>
      <trkpt lat="45.7225" lon="6.44833">
        <ele>817</ele>
        <time>2022-07-23T11:10:03Z</time>
      </trkpt>
      <trkpt lat="45.7225" lon="6.44832">
        <ele>817</ele>
        <time>2022-07-23T11:10:04Z</time>
      </trkpt>
      <trkpt lat="45.72249" lon="6.44831">
        <ele>818</ele>
        <time>2022-07-23T11:10:05Z</time>
      </trkpt>
      <trkpt lat="45.72249" lon="6.4483">
        <ele>818</ele>
        <time>2022-07-23T11:10:06Z</time>
      </trkpt>
      <trkpt lat="45.72248" lon="6.44829">
        <ele>818</ele>
        <time>2022-07-23T11:10:07Z</time>
      </trkpt>
      <trkpt lat="45.72248" lon="6.44829">
        <ele>818</ele>
        <time>2022-07-23T11:10:08Z</time>
      </trkpt>
      <trkpt lat="45.72247" lon="6.44828">
        <ele>818</ele>
        <time>2022-07-23T11:10:09Z</time>
      </trkpt>
      <trkpt lat="45.72246" lon="6.44827">
        <ele>818</ele>
        <time>2022-07-23T11:10:10Z</time>
      </trkpt>
      <trkpt lat="45.72246" lon="6.44826">
        <ele>818</ele>
        <time>2022-07-23T11:10:11Z</time>
      </trkpt>
      <trkpt lat="45.72245" lon="6.44826">
        <ele>818</ele>
        <time>2022-07-23T11:10:12Z</time>
      </trkpt>
      <trkpt lat="45.72244" lon="6.44825">
        <ele>818</ele>
        <time>2022-07-23T11:10:13Z</time>
      </trkpt>
      <trkpt lat="45.72243" lon="6.44824">
        <ele>818</ele>
        <time>2022-07-23T11:10:14Z</time>
      </trkpt>
      <trkpt lat="45.72242" lon="6.44824">
        <ele>818</ele>
        <time>2022-07-23T11:10:15Z</time>
      </trkpt>
      <trkpt lat="45.72242" lon="6.44823">
        <ele>818</ele>
        <time>2022-07-23T11:10:16Z</time>
      </trkpt>
      <trkpt lat="45.72241" lon="6.44823">
        <ele>818</ele>
        <time>2022-07-23T11:10:17Z</time>
      </trkpt>
      <trkpt lat="45.7224" lon="6.44822">
        <ele>818</ele>
        <time>2022-07-23T11:10:18Z</time>
      </trkpt>
      <trkpt lat="45.72239" lon="6.44822">
        <ele>818</ele>
        <time>2022-07-23T11:10:19Z</time>
      </trkpt>
      <trkpt lat="45.72238" lon="6.44821">
        <ele>819</ele>
        <time>2022-07-23T11:10:20Z</time>
      </trkpt>
      <trkpt lat="45.72238" lon="6.44821">
        <ele>819</ele>
        <time>2022-07-23T11:10:21Z</time>
      </trkpt>
      <trkpt lat="45.72237" lon="6.4482">
        <ele>819</ele>
        <time>2022-07-23T11:10:22Z</time>
      </trkpt>
      <trkpt lat="45.72236" lon="6.44819">
        <ele>819</ele>
        <time>2022-07-23T11:10:23Z</time>
      </trkpt>
      <trkpt lat="45.72236" lon="6.44819">
        <ele>819</ele>
        <time>2022-07-23T11:10:24Z</time>
      </trkpt>
      <trkpt lat="45.72235" lon="6.44818">
        <ele>819</ele>
        <time>2022-07-23T11:10:25Z</time>
      </trkpt>
      <trkpt lat="45.72234" lon="6.44815">
        <ele>820</ele>
        <time>2022-07-23T11:10:50Z</time>
      </trkpt>
      <trkpt lat="45.72234" lon="6.44814">
        <ele>820</ele>
        <time>2022-07-23T11:10:51Z</time>
      </trkpt>
      <trkpt lat="45.72234" lon="6.44813">
        <ele>820</ele>
        <time>2022-07-23T11:10:52Z</time>
      </trkpt>
      <trkpt lat="45.72233" lon="6.44812">
        <ele>820</ele>
        <time>2022-07-23T11:10:53Z</time>
      </trkpt>
      <trkpt lat="45.72233" lon="6.44811">
        <ele>820</ele>
        <time>2022-07-23T11:10:54Z</time>
      </trkpt>
      <trkpt lat="45.72232" lon="6.4481">
        <ele>820</ele>
        <time>2022-07-23T11:10:55Z</time>
      </trkpt>
      <trkpt lat="45.72232" lon="6.44809">
        <ele>820</ele>
        <time>2022-07-23T11:10:56Z</time>
      </trkpt>
      <trkpt lat="45.72231" lon="6.44809">
        <ele>820</ele>
        <time>2022-07-23T11:10:57Z</time>
      </trkpt>
      <trkpt lat="45.7223" lon="6.44808">
        <ele>820</ele>
        <time>2022-07-23T11:10:58Z</time>
      </trkpt>
      <trkpt lat="45.7223" lon="6.44807">
        <ele>820</ele>
        <time>2022-07-23T11:10:59Z</time>
      </trkpt>
      <trkpt lat="45.72229" lon="6.44806">
        <ele>820</ele>
        <time>2022-07-23T11:11:00Z</time>
      </trkpt>
      <trkpt lat="45.72229" lon="6.44805">
        <ele>820</ele>
        <time>2022-07-23T11:11:01Z</time>
      </trkpt>
      <trkpt lat="45.72228" lon="6.44803">
        <ele>820</ele>
        <time>2022-07-23T11:11:02Z</time>
      </trkpt>
      <trkpt lat="45.72228" lon="6.44802">
        <ele>820</ele>
        <time>2022-07-23T11:11:03Z</time>
      </trkpt>
      <trkpt lat="45.72227" lon="6.44801">
        <ele>820</ele>
        <time>2022-07-23T11:11:04Z</time>
      </trkpt>
      <trkpt lat="45.72227" lon="6.44799">
        <ele>820</ele>
        <time>2022-07-23T11:11:05Z</time>
      </trkpt>
      <trkpt lat="45.72226" lon="6.44798">
        <ele>820</ele>
        <time>2022-07-23T11:11:06Z</time>
      </trkpt>
      <trkpt lat="45.72226" lon="6.44796">
        <ele>820</ele>
        <time>2022-07-23T11:11:07Z</time>
      </trkpt>
      <trkpt lat="45.72226" lon="6.44795">
        <ele>820</ele>
        <time>2022-07-23T11:11:08Z</time>
      </trkpt>
      <trkpt lat="45.72225" lon="6.44793">
        <ele>820</ele>
        <time>2022-07-23T11:11:09Z</time>
      </trkpt>
      <trkpt lat="45.72225" lon="6.44792">
        <ele>820</ele>
        <time>2022-07-23T11:11:10Z</time>
      </trkpt>
      <trkpt lat="45.72224" lon="6.44791">
        <ele>820</ele>
        <time>2022-07-23T11:11:11Z</time>
      </trkpt>
      <trkpt lat="45.72224" lon="6.44789">
        <ele>820</ele>
        <time>2022-07-23T11:11:12Z</time>
      </trkpt>
      <trkpt lat="45.72224" lon="6.44788">
        <ele>820</ele>
        <time>2022-07-23T11:11:13Z</time>
      </trkpt>
      <trkpt lat="45.72223" lon="6.44787">
        <ele>820</ele>
        <time>2022-07-23T11:11:14Z</time>
      </trkpt>
      <trkpt lat="45.72223" lon="6.44786">
        <ele>821</ele>
        <time>2022-07-23T11:11:15Z</time>
      </trkpt>
      <trkpt lat="45.72223" lon="6.44784">
        <ele>821</ele>
        <time>2022-07-23T11:11:16Z</time>
      </trkpt>
      <trkpt lat="45.72222" lon="6.44783">
        <ele>821</ele>
        <time>2022-07-23T11:11:17Z</time>
      </trkpt>
      <trkpt lat="45.72222" lon="6.44782">
        <ele>821</ele>
        <time>2022-07-23T11:11:18Z</time>
      </trkpt>
      <trkpt lat="45.72222" lon="6.44781">
        <ele>821</ele>
        <time>2022-07-23T11:11:19Z</time>
      </trkpt>
      <trkpt lat="45.72221" lon="6.44779">
        <ele>822</ele>
        <time>2022-07-23T11:11:20Z</time>
      </trkpt>
      <trkpt lat="45.72221" lon="6.44778">
        <ele>822</ele>
        <time>2022-07-23T11:11:21Z</time>
      </trkpt>
      <trkpt lat="45.7222" lon="6.44777">
        <ele>822</ele>
        <time>2022-07-23T11:11:22Z</time>
      </trkpt>
      <trkpt lat="45.7222" lon="6.44776">
        <ele>822</ele>
        <time>2022-07-23T11:11:23Z</time>
      </trkpt>
      <trkpt lat="45.72219" lon="6.44774">
        <ele>822</ele>
        <time>2022-07-23T11:11:24Z</time>
      </trkpt>
      <trkpt lat="45.72219" lon="6.44773">
        <ele>822</ele>
        <time>2022-07-23T11:11:25Z</time>
      </trkpt>
      <trkpt lat="45.72218" lon="6.44772">
        <ele>822</ele>
        <time>2022-07-23T11:11:26Z</time>
      </trkpt>
      <trkpt lat="45.72217" lon="6.44771">
        <ele>822</ele>
        <time>2022-07-23T11:11:27Z</time>
      </trkpt>
      <trkpt lat="45.72217" lon="6.44769">
        <ele>822</ele>
        <time>2022-07-23T11:11:28Z</time>
      </trkpt>
      <trkpt lat="45.72216" lon="6.44768">
        <ele>822</ele>
        <time>2022-07-23T11:11:29Z</time>
      </trkpt>
      <trkpt lat="45.72215" lon="6.44767">
        <ele>823</ele>
        <time>2022-07-23T11:11:30Z</time>
      </trkpt>
      <trkpt lat="45.72215" lon="6.44766">
        <ele>823</ele>
        <time>2022-07-23T11:11:31Z</time>
      </trkpt>
      <trkpt lat="45.72214" lon="6.44765">
        <ele>823</ele>
        <time>2022-07-23T11:11:32Z</time>
      </trkpt>
      <trkpt lat="45.72213" lon="6.44764">
        <ele>823</ele>
        <time>2022-07-23T11:11:33Z</time>
      </trkpt>
      <trkpt lat="45.72212" lon="6.44763">
        <ele>823</ele>
        <time>2022-07-23T11:11:34Z</time>
      </trkpt>
      <trkpt lat="45.72211" lon="6.44761">
        <ele>823</ele>
        <time>2022-07-23T11:11:35Z</time>
      </trkpt>
      <trkpt lat="45.72211" lon="6.4476">
        <ele>823</ele>
        <time>2022-07-23T11:11:36Z</time>
      </trkpt>
      <trkpt lat="45.7221" lon="6.44759">
        <ele>823</ele>
        <time>2022-07-23T11:11:37Z</time>
      </trkpt>
      <trkpt lat="45.7221" lon="6.44758">
        <ele>823</ele>
        <time>2022-07-23T11:11:38Z</time>
      </trkpt>
      <trkpt lat="45.72209" lon="6.44757">
        <ele>823</ele>
        <time>2022-07-23T11:11:39Z</time>
      </trkpt>
      <trkpt lat="45.72209" lon="6.44756">
        <ele>823</ele>
        <time>2022-07-23T11:11:40Z</time>
      </trkpt>
      <trkpt lat="45.72209" lon="6.44754">
        <ele>823</ele>
        <time>2022-07-23T11:11:41Z</time>
      </trkpt>
      <trkpt lat="45.72209" lon="6.44753">
        <ele>823</ele>
        <time>2022-07-23T11:11:42Z</time>
      </trkpt>
      <trkpt lat="45.72208" lon="6.44751">
        <ele>823</ele>
        <time>2022-07-23T11:11:43Z</time>
      </trkpt>
      <trkpt lat="45.72208" lon="6.4475">
        <ele>823</ele>
        <time>2022-07-23T11:11:44Z</time>
      </trkpt>
      <trkpt lat="45.72208" lon="6.44748">
        <ele>824</ele>
        <time>2022-07-23T11:11:45Z</time>
      </trkpt>
      <trkpt lat="45.72208" lon="6.44747">
        <ele>824</ele>
        <time>2022-07-23T11:11:46Z</time>
      </trkpt>
      <trkpt lat="45.72208" lon="6.44746">
        <ele>824</ele>
        <time>2022-07-23T11:11:47Z</time>
      </trkpt>
      <trkpt lat="45.72208" lon="6.44744">
        <ele>825</ele>
        <time>2022-07-23T11:11:48Z</time>
      </trkpt>
      <trkpt lat="45.72208" lon="6.44743">
        <ele>825</ele>
        <time>2022-07-23T11:11:49Z</time>
      </trkpt>
      <trkpt lat="45.72208" lon="6.44741">
        <ele>826</ele>
        <time>2022-07-23T11:11:50Z</time>
      </trkpt>
      <trkpt lat="45.72208" lon="6.4474">
        <ele>826</ele>
        <time>2022-07-23T11:11:51Z</time>
      </trkpt>
      <trkpt lat="45.72207" lon="6.44739">
        <ele>826</ele>
        <time>2022-07-23T11:11:52Z</time>
      </trkpt>
      <trkpt lat="45.72207" lon="6.44737">
        <ele>826</ele>
        <time>2022-07-23T11:11:53Z</time>
      </trkpt>
      <trkpt lat="45.72207" lon="6.44736">
        <ele>826</ele>
        <time>2022-07-23T11:11:54Z</time>
      </trkpt>
      <trkpt lat="45.72206" lon="6.44735">
        <ele>826</ele>
        <time>2022-07-23T11:11:55Z</time>
      </trkpt>
      <trkpt lat="45.72206" lon="6.44734">
        <ele>826</ele>
        <time>2022-07-23T11:11:56Z</time>
      </trkpt>
      <trkpt lat="45.72206" lon="6.44734">
        <ele>826</ele>
        <time>2022-07-23T11:11:57Z</time>
      </trkpt>
      <trkpt lat="45.72206" lon="6.44733">
        <ele>826</ele>
        <time>2022-07-23T11:11:58Z</time>
      </trkpt>
      <trkpt lat="45.72205" lon="6.44733">
        <ele>826</ele>
        <time>2022-07-23T11:11:59Z</time>
      </trkpt>
      <trkpt lat="45.72205" lon="6.44732">
        <ele>827</ele>
        <time>2022-07-23T11:12:00Z</time>
      </trkpt>
      <trkpt lat="45.72205" lon="6.44731">
        <ele>827</ele>
        <time>2022-07-23T11:12:01Z</time>
      </trkpt>
      <trkpt lat="45.72205" lon="6.4473">
        <ele>827</ele>
        <time>2022-07-23T11:12:02Z</time>
      </trkpt>
      <trkpt lat="45.72204" lon="6.44729">
        <ele>827</ele>
        <time>2022-07-23T11:12:03Z</time>
      </trkpt>
      <trkpt lat="45.72204" lon="6.44727">
        <ele>827</ele>
        <time>2022-07-23T11:12:04Z</time>
      </trkpt>
      <trkpt lat="45.72204" lon="6.44725">
        <ele>827</ele>
        <time>2022-07-23T11:12:05Z</time>
      </trkpt>
      <trkpt lat="45.72204" lon="6.44724">
        <ele>827</ele>
        <time>2022-07-23T11:12:06Z</time>
      </trkpt>
      <trkpt lat="45.72204" lon="6.44722">
        <ele>827</ele>
        <time>2022-07-23T11:12:07Z</time>
      </trkpt>
      <trkpt lat="45.72204" lon="6.44721">
        <ele>827</ele>
        <time>2022-07-23T11:12:08Z</time>
      </trkpt>
      <trkpt lat="45.72204" lon="6.44719">
        <ele>827</ele>
        <time>2022-07-23T11:12:09Z</time>
      </trkpt>
      <trkpt lat="45.72204" lon="6.44718">
        <ele>828</ele>
        <time>2022-07-23T11:12:10Z</time>
      </trkpt>
      <trkpt lat="45.72204" lon="6.44716">
        <ele>828</ele>
        <time>2022-07-23T11:12:11Z</time>
      </trkpt>
      <trkpt lat="45.72204" lon="6.44715">
        <ele>828</ele>
        <time>2022-07-23T11:12:12Z</time>
      </trkpt>
      <trkpt lat="45.72205" lon="6.44713">
        <ele>828</ele>
        <time>2022-07-23T11:12:13Z</time>
      </trkpt>
      <trkpt lat="45.72205" lon="6.44712">
        <ele>828</ele>
        <time>2022-07-23T11:12:14Z</time>
      </trkpt>
      <trkpt lat="45.72205" lon="6.4471">
        <ele>828</ele>
        <time>2022-07-23T11:12:15Z</time>
      </trkpt>
      <trkpt lat="45.72205" lon="6.44709">
        <ele>828</ele>
        <time>2022-07-23T11:12:16Z</time>
      </trkpt>
      <trkpt lat="45.72205" lon="6.44707">
        <ele>828</ele>
        <time>2022-07-23T11:12:17Z</time>
      </trkpt>
      <trkpt lat="45.72205" lon="6.44706">
        <ele>828</ele>
        <time>2022-07-23T11:12:18Z</time>
      </trkpt>
      <trkpt lat="45.72206" lon="6.44704">
        <ele>828</ele>
        <time>2022-07-23T11:12:19Z</time>
      </trkpt>
      <trkpt lat="45.72206" lon="6.44703">
        <ele>828</ele>
        <time>2022-07-23T11:12:20Z</time>
      </trkpt>
      <trkpt lat="45.72206" lon="6.44701">
        <ele>828</ele>
        <time>2022-07-23T11:12:21Z</time>
      </trkpt>
      <trkpt lat="45.72206" lon="6.447">
        <ele>828</ele>
        <time>2022-07-23T11:12:22Z</time>
      </trkpt>
      <trkpt lat="45.72206" lon="6.44698">
        <ele>828</ele>
        <time>2022-07-23T11:12:23Z</time>
      </trkpt>
      <trkpt lat="45.72206" lon="6.44697">
        <ele>828</ele>
        <time>2022-07-23T11:12:24Z</time>
      </trkpt>
      <trkpt lat="45.72206" lon="6.44695">
        <ele>829</ele>
        <time>2022-07-23T11:12:25Z</time>
      </trkpt>
      <trkpt lat="45.72206" lon="6.44694">
        <ele>829</ele>
        <time>2022-07-23T11:12:26Z</time>
      </trkpt>
      <trkpt lat="45.72207" lon="6.44692">
        <ele>829</ele>
        <time>2022-07-23T11:12:27Z</time>
      </trkpt>
      <trkpt lat="45.72207" lon="6.44691">
        <ele>829</ele>
        <time>2022-07-23T11:12:28Z</time>
      </trkpt>
      <trkpt lat="45.72207" lon="6.44689">
        <ele>829</ele>
        <time>2022-07-23T11:12:29Z</time>
      </trkpt>
      <trkpt lat="45.72207" lon="6.44688">
        <ele>829</ele>
        <time>2022-07-23T11:12:30Z</time>
      </trkpt>
      <trkpt lat="45.72208" lon="6.44687">
        <ele>829</ele>
        <time>2022-07-23T11:12:31Z</time>
      </trkpt>
      <trkpt lat="45.72208" lon="6.44685">
        <ele>829</ele>
        <time>2022-07-23T11:12:32Z</time>
      </trkpt>
      <trkpt lat="45.72208" lon="6.44685">
        <ele>829</ele>
        <time>2022-07-23T11:12:33Z</time>
      </trkpt>
      <trkpt lat="45.72209" lon="6.44684">
        <ele>829</ele>
        <time>2022-07-23T11:12:34Z</time>
      </trkpt>
      <trkpt lat="45.72209" lon="6.44684">
        <ele>830</ele>
        <time>2022-07-23T11:12:35Z</time>
      </trkpt>
      <trkpt lat="45.72209" lon="6.44683">
        <ele>830</ele>
        <time>2022-07-23T11:12:36Z</time>
      </trkpt>
      <trkpt lat="45.72209" lon="6.44682">
        <ele>830</ele>
        <time>2022-07-23T11:12:37Z</time>
      </trkpt>
      <trkpt lat="45.7221" lon="6.44682">
        <ele>830</ele>
        <time>2022-07-23T11:12:38Z</time>
      </trkpt>
      <trkpt lat="45.7221" lon="6.44681">
        <ele>830</ele>
        <time>2022-07-23T11:12:39Z</time>
      </trkpt>
      <trkpt lat="45.7221" lon="6.44681">
        <ele>830</ele>
        <time>2022-07-23T11:12:40Z</time>
      </trkpt>
      <trkpt lat="45.7221" lon="6.4468">
        <ele>830</ele>
        <time>2022-07-23T11:12:41Z</time>
      </trkpt>
      <trkpt lat="45.72211" lon="6.44681">
        <ele>830</ele>
        <time>2022-07-23T11:12:42Z</time>
      </trkpt>
      <trkpt lat="45.72211" lon="6.44681">
        <ele>830</ele>
        <time>2022-07-23T11:12:43Z</time>
      </trkpt>
      <trkpt lat="45.72211" lon="6.44681">
        <ele>830</ele>
        <time>2022-07-23T11:12:44Z</time>
      </trkpt>
      <trkpt lat="45.72211" lon="6.44682">
        <ele>830</ele>
        <time>2022-07-23T11:12:45Z</time>
      </trkpt>
      <trkpt lat="45.72211" lon="6.44683">
        <ele>830</ele>
        <time>2022-07-23T11:12:46Z</time>
      </trkpt>
      <trkpt lat="45.72211" lon="6.44684">
        <ele>830</ele>
        <time>2022-07-23T11:12:47Z</time>
      </trkpt>
      <trkpt lat="45.72211" lon="6.44685">
        <ele>830</ele>
        <time>2022-07-23T11:12:48Z</time>
      </trkpt>
      <trkpt lat="45.72211" lon="6.44686">
        <ele>830</ele>
        <time>2022-07-23T11:12:49Z</time>
      </trkpt>
      <trkpt lat="45.72211" lon="6.44686">
        <ele>831</ele>
        <time>2022-07-23T11:12:50Z</time>
      </trkpt>
      <trkpt lat="45.72211" lon="6.44687">
        <ele>831</ele>
        <time>2022-07-23T11:12:51Z</time>
      </trkpt>
      <trkpt lat="45.72211" lon="6.44688">
        <ele>831</ele>
        <time>2022-07-23T11:12:52Z</time>
      </trkpt>
      <trkpt lat="45.72211" lon="6.44688">
        <ele>831</ele>
        <time>2022-07-23T11:12:53Z</time>
      </trkpt>
      <trkpt lat="45.72211" lon="6.44688">
        <ele>831</ele>
        <time>2022-07-23T11:12:54Z</time>
      </trkpt>
      <trkpt lat="45.72211" lon="6.44688">
        <ele>832</ele>
        <time>2022-07-23T11:12:55Z</time>
      </trkpt>
      <trkpt lat="45.72212" lon="6.44689">
        <ele>832</ele>
        <time>2022-07-23T11:12:56Z</time>
      </trkpt>
      <trkpt lat="45.72212" lon="6.4469">
        <ele>832</ele>
        <time>2022-07-23T11:12:57Z</time>
      </trkpt>
      <trkpt lat="45.72212" lon="6.44691">
        <ele>832</ele>
        <time>2022-07-23T11:12:58Z</time>
      </trkpt>
      <trkpt lat="45.72213" lon="6.44692">
        <ele>832</ele>
        <time>2022-07-23T11:12:59Z</time>
      </trkpt>
      <trkpt lat="45.72213" lon="6.44692">
        <ele>834</ele>
        <time>2022-07-23T11:13:16Z</time>
      </trkpt>
      <trkpt lat="45.72214" lon="6.44692">
        <ele>834</ele>
        <time>2022-07-23T11:13:17Z</time>
      </trkpt>
      <trkpt lat="45.72214" lon="6.44693">
        <ele>834</ele>
        <time>2022-07-23T11:13:18Z</time>
      </trkpt>
      <trkpt lat="45.72214" lon="6.44692">
        <ele>834</ele>
        <time>2022-07-23T11:13:19Z</time>
      </trkpt>
      <trkpt lat="45.72214" lon="6.44692">
        <ele>834</ele>
        <time>2022-07-23T11:13:20Z</time>
      </trkpt>
      <trkpt lat="45.72214" lon="6.44691">
        <ele>834</ele>
        <time>2022-07-23T11:13:21Z</time>
      </trkpt>
      <trkpt lat="45.72215" lon="6.4469">
        <ele>834</ele>
        <time>2022-07-23T11:13:22Z</time>
      </trkpt>
      <trkpt lat="45.72215" lon="6.44689">
        <ele>834</ele>
        <time>2022-07-23T11:13:23Z</time>
      </trkpt>
      <trkpt lat="45.72215" lon="6.44688">
        <ele>834</ele>
        <time>2022-07-23T11:13:24Z</time>
      </trkpt>
      <trkpt lat="45.72215" lon="6.44687">
        <ele>835</ele>
        <time>2022-07-23T11:13:25Z</time>
      </trkpt>
      <trkpt lat="45.72216" lon="6.44686">
        <ele>835</ele>
        <time>2022-07-23T11:13:26Z</time>
      </trkpt>
      <trkpt lat="45.72216" lon="6.44684">
        <ele>835</ele>
        <time>2022-07-23T11:13:27Z</time>
      </trkpt>
      <trkpt lat="45.72217" lon="6.44683">
        <ele>835</ele>
        <time>2022-07-23T11:13:28Z</time>
      </trkpt>
      <trkpt lat="45.72217" lon="6.44682">
        <ele>835</ele>
        <time>2022-07-23T11:13:29Z</time>
      </trkpt>
      <trkpt lat="45.72217" lon="6.44682">
        <ele>835</ele>
        <time>2022-07-23T11:13:30Z</time>
      </trkpt>
      <trkpt lat="45.72218" lon="6.44681">
        <ele>835</ele>
        <time>2022-07-23T11:13:31Z</time>
      </trkpt>
      <trkpt lat="45.72218" lon="6.44681">
        <ele>835</ele>
        <time>2022-07-23T11:13:32Z</time>
      </trkpt>
      <trkpt lat="45.72218" lon="6.44681">
        <ele>835</ele>
        <time>2022-07-23T11:13:33Z</time>
      </trkpt>
      <trkpt lat="45.72219" lon="6.4468">
        <ele>835</ele>
        <time>2022-07-23T11:13:34Z</time>
      </trkpt>
      <trkpt lat="45.72219" lon="6.4468">
        <ele>836</ele>
        <time>2022-07-23T11:13:35Z</time>
      </trkpt>
      <trkpt lat="45.7222" lon="6.4468">
        <ele>836</ele>
        <time>2022-07-23T11:13:36Z</time>
      </trkpt>
      <trkpt lat="45.7222" lon="6.4468">
        <ele>836</ele>
        <time>2022-07-23T11:13:37Z</time>
      </trkpt>
      <trkpt lat="45.72221" lon="6.44679">
        <ele>836</ele>
        <time>2022-07-23T11:13:38Z</time>
      </trkpt>
      <trkpt lat="45.72222" lon="6.44679">
        <ele>836</ele>
        <time>2022-07-23T11:13:39Z</time>
      </trkpt>
      <trkpt lat="45.72222" lon="6.44679">
        <ele>837</ele>
        <time>2022-07-23T11:13:40Z</time>
      </trkpt>
      <trkpt lat="45.72223" lon="6.44678">
        <ele>837</ele>
        <time>2022-07-23T11:13:41Z</time>
      </trkpt>
      <trkpt lat="45.72223" lon="6.44678">
        <ele>837</ele>
        <time>2022-07-23T11:13:42Z</time>
      </trkpt>
      <trkpt lat="45.72224" lon="6.44677">
        <ele>837</ele>
        <time>2022-07-23T11:13:43Z</time>
      </trkpt>
      <trkpt lat="45.72224" lon="6.44678">
        <ele>837</ele>
        <time>2022-07-23T11:13:44Z</time>
      </trkpt>
      <trkpt lat="45.72225" lon="6.44678">
        <ele>838</ele>
        <time>2022-07-23T11:13:45Z</time>
      </trkpt>
      <trkpt lat="45.72226" lon="6.44678">
        <ele>838</ele>
        <time>2022-07-23T11:13:46Z</time>
      </trkpt>
      <trkpt lat="45.72226" lon="6.44678">
        <ele>838</ele>
        <time>2022-07-23T11:13:47Z</time>
      </trkpt>
      <trkpt lat="45.72226" lon="6.44679">
        <ele>838</ele>
        <time>2022-07-23T11:13:48Z</time>
      </trkpt>
      <trkpt lat="45.72227" lon="6.4468">
        <ele>838</ele>
        <time>2022-07-23T11:13:49Z</time>
      </trkpt>
      <trkpt lat="45.72227" lon="6.44681">
        <ele>839</ele>
        <time>2022-07-23T11:13:50Z</time>
      </trkpt>
      <trkpt lat="45.72227" lon="6.44681">
        <ele>839</ele>
        <time>2022-07-23T11:13:51Z</time>
      </trkpt>
      <trkpt lat="45.72227" lon="6.44684">
        <ele>842</ele>
        <time>2022-07-23T11:16:01Z</time>
      </trkpt>
      <trkpt lat="45.72227" lon="6.44685">
        <ele>842</ele>
        <time>2022-07-23T11:16:02Z</time>
      </trkpt>
      <trkpt lat="45.72227" lon="6.44687">
        <ele>842</ele>
        <time>2022-07-23T11:16:03Z</time>
      </trkpt>
      <trkpt lat="45.72227" lon="6.44688">
        <ele>842</ele>
        <time>2022-07-23T11:16:04Z</time>
      </trkpt>
      <trkpt lat="45.72227" lon="6.44689">
        <ele>842</ele>
        <time>2022-07-23T11:16:05Z</time>
      </trkpt>
      <trkpt lat="45.72228" lon="6.44689">
        <ele>842</ele>
        <time>2022-07-23T11:16:06Z</time>
      </trkpt>
      <trkpt lat="45.72228" lon="6.4469">
        <ele>842</ele>
        <time>2022-07-23T11:16:07Z</time>
      </trkpt>
      <trkpt lat="45.72229" lon="6.4469">
        <ele>842</ele>
        <time>2022-07-23T11:16:08Z</time>
      </trkpt>
      <trkpt lat="45.72229" lon="6.44691">
        <ele>842</ele>
        <time>2022-07-23T11:16:09Z</time>
      </trkpt>
      <trkpt lat="45.7223" lon="6.44691">
        <ele>842</ele>
        <time>2022-07-23T11:16:10Z</time>
      </trkpt>
      <trkpt lat="45.72231" lon="6.44691">
        <ele>842</ele>
        <time>2022-07-23T11:16:11Z</time>
      </trkpt>
      <trkpt lat="45.72231" lon="6.44691">
        <ele>842</ele>
        <time>2022-07-23T11:16:12Z</time>
      </trkpt>
      <trkpt lat="45.72232" lon="6.44691">
        <ele>843</ele>
        <time>2022-07-23T11:16:13Z</time>
      </trkpt>
      <trkpt lat="45.72232" lon="6.44692">
        <ele>843</ele>
        <time>2022-07-23T11:16:14Z</time>
      </trkpt>
      <trkpt lat="45.72232" lon="6.44692">
        <ele>844</ele>
        <time>2022-07-23T11:16:15Z</time>
      </trkpt>
      <trkpt lat="45.72235" lon="6.44693">
        <ele>846</ele>
        <time>2022-07-23T11:16:26Z</time>
      </trkpt>
      <trkpt lat="45.72237" lon="6.44693">
        <ele>846</ele>
        <time>2022-07-23T11:16:27Z</time>
      </trkpt>
      <trkpt lat="45.72238" lon="6.44694">
        <ele>846</ele>
        <time>2022-07-23T11:16:28Z</time>
      </trkpt>
      <trkpt lat="45.72239" lon="6.44694">
        <ele>846</ele>
        <time>2022-07-23T11:16:29Z</time>
      </trkpt>
      <trkpt lat="45.7224" lon="6.44695">
        <ele>847</ele>
        <time>2022-07-23T11:16:30Z</time>
      </trkpt>
      <trkpt lat="45.7224" lon="6.44695">
        <ele>847</ele>
        <time>2022-07-23T11:16:31Z</time>
      </trkpt>
      <trkpt lat="45.72241" lon="6.44696">
        <ele>847</ele>
        <time>2022-07-23T11:16:32Z</time>
      </trkpt>
      <trkpt lat="45.72241" lon="6.44696">
        <ele>847</ele>
        <time>2022-07-23T11:16:33Z</time>
      </trkpt>
      <trkpt lat="45.72242" lon="6.44696">
        <ele>847</ele>
        <time>2022-07-23T11:16:34Z</time>
      </trkpt>
      <trkpt lat="45.72242" lon="6.44697">
        <ele>848</ele>
        <time>2022-07-23T11:16:35Z</time>
      </trkpt>
      <trkpt lat="45.72243" lon="6.44697">
        <ele>848</ele>
        <time>2022-07-23T11:16:36Z</time>
      </trkpt>
      <trkpt lat="45.72243" lon="6.44698">
        <ele>848</ele>
        <time>2022-07-23T11:16:37Z</time>
      </trkpt>
      <trkpt lat="45.72244" lon="6.44698">
        <ele>848</ele>
        <time>2022-07-23T11:16:38Z</time>
      </trkpt>
      <trkpt lat="45.72244" lon="6.44699">
        <ele>848</ele>
        <time>2022-07-23T11:16:39Z</time>
      </trkpt>
      <trkpt lat="45.72245" lon="6.447">
        <ele>849</ele>
        <time>2022-07-23T11:16:40Z</time>
      </trkpt>
      <trkpt lat="45.72245" lon="6.447">
        <ele>849</ele>
        <time>2022-07-23T11:16:41Z</time>
      </trkpt>
      <trkpt lat="45.72246" lon="6.447">
        <ele>849</ele>
        <time>2022-07-23T11:16:42Z</time>
      </trkpt>
      <trkpt lat="45.72248" lon="6.447">
        <ele>851</ele>
        <time>2022-07-23T11:16:51Z</time>
      </trkpt>
      <trkpt lat="45.72249" lon="6.44701">
        <ele>851</ele>
        <time>2022-07-23T11:16:52Z</time>
      </trkpt>
      <trkpt lat="45.7225" lon="6.44701">
        <ele>851</ele>
        <time>2022-07-23T11:16:53Z</time>
      </trkpt>
      <trkpt lat="45.72251" lon="6.44701">
        <ele>851</ele>
        <time>2022-07-23T11:16:54Z</time>
      </trkpt>
      <trkpt lat="45.72252" lon="6.44701">
        <ele>852</ele>
        <time>2022-07-23T11:16:55Z</time>
      </trkpt>
      <trkpt lat="45.72252" lon="6.44701">
        <ele>852</ele>
        <time>2022-07-23T11:16:56Z</time>
      </trkpt>
      <trkpt lat="45.72254" lon="6.44703">
        <ele>853</ele>
        <time>2022-07-23T11:17:04Z</time>
      </trkpt>
      <trkpt lat="45.72255" lon="6.44703">
        <ele>854</ele>
        <time>2022-07-23T11:17:05Z</time>
      </trkpt>
      <trkpt lat="45.72256" lon="6.44704">
        <ele>854</ele>
        <time>2022-07-23T11:17:06Z</time>
      </trkpt>
      <trkpt lat="45.72256" lon="6.44705">
        <ele>854</ele>
        <time>2022-07-23T11:17:07Z</time>
      </trkpt>
      <trkpt lat="45.72257" lon="6.44705">
        <ele>854</ele>
        <time>2022-07-23T11:17:08Z</time>
      </trkpt>
      <trkpt lat="45.72257" lon="6.44706">
        <ele>854</ele>
        <time>2022-07-23T11:17:09Z</time>
      </trkpt>
      <trkpt lat="45.72258" lon="6.44707">
        <ele>855</ele>
        <time>2022-07-23T11:17:10Z</time>
      </trkpt>
      <trkpt lat="45.72258" lon="6.44707">
        <ele>855</ele>
        <time>2022-07-23T11:17:11Z</time>
      </trkpt>
      <trkpt lat="45.72259" lon="6.44712">
        <ele>858</ele>
        <time>2022-07-23T11:18:26Z</time>
      </trkpt>
      <trkpt lat="45.72259" lon="6.44715">
        <ele>858</ele>
        <time>2022-07-23T11:18:27Z</time>
      </trkpt>
      <trkpt lat="45.72259" lon="6.44717">
        <ele>858</ele>
        <time>2022-07-23T11:18:28Z</time>
      </trkpt>
      <trkpt lat="45.72259" lon="6.44719">
        <ele>858</ele>
        <time>2022-07-23T11:18:29Z</time>
      </trkpt>
      <trkpt lat="45.72259" lon="6.4472">
        <ele>858</ele>
        <time>2022-07-23T11:18:30Z</time>
      </trkpt>
      <trkpt lat="45.72261" lon="6.44724">
        <ele>860</ele>
        <time>2022-07-23T11:18:47Z</time>
      </trkpt>
      <trkpt lat="45.72262" lon="6.44725">
        <ele>861</ele>
        <time>2022-07-23T11:18:48Z</time>
      </trkpt>
      <trkpt lat="45.72263" lon="6.44727">
        <ele>861</ele>
        <time>2022-07-23T11:18:49Z</time>
      </trkpt>
      <trkpt lat="45.72266" lon="6.44731">
        <ele>864</ele>
        <time>2022-07-23T11:19:10Z</time>
      </trkpt>
      <trkpt lat="45.72267" lon="6.44732">
        <ele>864</ele>
        <time>2022-07-23T11:19:11Z</time>
      </trkpt>
      <trkpt lat="45.72268" lon="6.44734">
        <ele>864</ele>
        <time>2022-07-23T11:19:12Z</time>
      </trkpt>
      <trkpt lat="45.72268" lon="6.44735">
        <ele>864</ele>
        <time>2022-07-23T11:19:13Z</time>
      </trkpt>
      <trkpt lat="45.72269" lon="6.44736">
        <ele>864</ele>
        <time>2022-07-23T11:19:14Z</time>
      </trkpt>
      <trkpt lat="45.72269" lon="6.44737">
        <ele>865</ele>
        <time>2022-07-23T11:19:15Z</time>
      </trkpt>
      <trkpt lat="45.72269" lon="6.4474">
        <ele>867</ele>
        <time>2022-07-23T11:19:45Z</time>
      </trkpt>
      <trkpt lat="45.72269" lon="6.44741">
        <ele>867</ele>
        <time>2022-07-23T11:19:46Z</time>
      </trkpt>
      <trkpt lat="45.72269" lon="6.44743">
        <ele>867</ele>
        <time>2022-07-23T11:19:47Z</time>
      </trkpt>
      <trkpt lat="45.7227" lon="6.44744">
        <ele>867</ele>
        <time>2022-07-23T11:19:48Z</time>
      </trkpt>
      <trkpt lat="45.7227" lon="6.44745">
        <ele>867</ele>
        <time>2022-07-23T11:19:49Z</time>
      </trkpt>
      <trkpt lat="45.7227" lon="6.44746">
        <ele>868</ele>
        <time>2022-07-23T11:19:50Z</time>
      </trkpt>
      <trkpt lat="45.72271" lon="6.44747">
        <ele>868</ele>
        <time>2022-07-23T11:19:51Z</time>
      </trkpt>
      <trkpt lat="45.72271" lon="6.44748">
        <ele>868</ele>
        <time>2022-07-23T11:19:52Z</time>
      </trkpt>
      <trkpt lat="45.72272" lon="6.44748">
        <ele>868</ele>
        <time>2022-07-23T11:19:53Z</time>
      </trkpt>
      <trkpt lat="45.72273" lon="6.44749">
        <ele>868</ele>
        <time>2022-07-23T11:19:54Z</time>
      </trkpt>
      <trkpt lat="45.72274" lon="6.4475">
        <ele>868</ele>
        <time>2022-07-23T11:19:55Z</time>
      </trkpt>
      <trkpt lat="45.72274" lon="6.44751">
        <ele>868</ele>
        <time>2022-07-23T11:19:56Z</time>
      </trkpt>
      <trkpt lat="45.72275" lon="6.44751">
        <ele>868</ele>
        <time>2022-07-23T11:19:57Z</time>
      </trkpt>
      <trkpt lat="45.72275" lon="6.44752">
        <ele>868</ele>
        <time>2022-07-23T11:19:58Z</time>
      </trkpt>
      <trkpt lat="45.72276" lon="6.44752">
        <ele>868</ele>
        <time>2022-07-23T11:19:59Z</time>
      </trkpt>
      <trkpt lat="45.72277" lon="6.44753">
        <ele>868</ele>
        <time>2022-07-23T11:20:00Z</time>
      </trkpt>
      <trkpt lat="45.72277" lon="6.44753">
        <ele>868</ele>
        <time>2022-07-23T11:20:01Z</time>
      </trkpt>
      <trkpt lat="45.72278" lon="6.44754">
        <ele>868</ele>
        <time>2022-07-23T11:20:02Z</time>
      </trkpt>
      <trkpt lat="45.72278" lon="6.44754">
        <ele>868</ele>
        <time>2022-07-23T11:20:03Z</time>
      </trkpt>
      <trkpt lat="45.72279" lon="6.44755">
        <ele>868</ele>
        <time>2022-07-23T11:20:04Z</time>
      </trkpt>
      <trkpt lat="45.72279" lon="6.44755">
        <ele>869</ele>
        <time>2022-07-23T11:20:05Z</time>
      </trkpt>
      <trkpt lat="45.7228" lon="6.44756">
        <ele>869</ele>
        <time>2022-07-23T11:20:06Z</time>
      </trkpt>
      <trkpt lat="45.7228" lon="6.44756">
        <ele>869</ele>
        <time>2022-07-23T11:20:07Z</time>
      </trkpt>
      <trkpt lat="45.72281" lon="6.44756">
        <ele>869</ele>
        <time>2022-07-23T11:20:08Z</time>
      </trkpt>
      <trkpt lat="45.72281" lon="6.44756">
        <ele>869</ele>
        <time>2022-07-23T11:20:09Z</time>
      </trkpt>
      <trkpt lat="45.72282" lon="6.44757">
        <ele>870</ele>
        <time>2022-07-23T11:20:10Z</time>
      </trkpt>
      <trkpt lat="45.72282" lon="6.44757">
        <ele>870</ele>
        <time>2022-07-23T11:20:11Z</time>
      </trkpt>
      <trkpt lat="45.72283" lon="6.44757">
        <ele>870</ele>
        <time>2022-07-23T11:20:12Z</time>
      </trkpt>
      <trkpt lat="45.72284" lon="6.44757">
        <ele>870</ele>
        <time>2022-07-23T11:20:13Z</time>
      </trkpt>
      <trkpt lat="45.72285" lon="6.44757">
        <ele>870</ele>
        <time>2022-07-23T11:20:14Z</time>
      </trkpt>
      <trkpt lat="45.72286" lon="6.44757">
        <ele>871</ele>
        <time>2022-07-23T11:20:15Z</time>
      </trkpt>
      <trkpt lat="45.72288" lon="6.44755">
        <ele>875</ele>
        <time>2022-07-23T11:20:40Z</time>
      </trkpt>
      <trkpt lat="45.72289" lon="6.44753">
        <ele>875</ele>
        <time>2022-07-23T11:20:41Z</time>
      </trkpt>
      <trkpt lat="45.7229" lon="6.44752">
        <ele>875</ele>
        <time>2022-07-23T11:20:42Z</time>
      </trkpt>
      <trkpt lat="45.7229" lon="6.44752">
        <ele>875</ele>
        <time>2022-07-23T11:20:43Z</time>
      </trkpt>
      <trkpt lat="45.72291" lon="6.44751">
        <ele>875</ele>
        <time>2022-07-23T11:20:44Z</time>
      </trkpt>
      <trkpt lat="45.72292" lon="6.44752">
        <ele>876</ele>
        <time>2022-07-23T11:20:45Z</time>
      </trkpt>
      <trkpt lat="45.72292" lon="6.44752">
        <ele>876</ele>
        <time>2022-07-23T11:20:46Z</time>
      </trkpt>
      <trkpt lat="45.72293" lon="6.44752">
        <ele>876</ele>
        <time>2022-07-23T11:20:47Z</time>
      </trkpt>
      <trkpt lat="45.72294" lon="6.44752">
        <ele>876</ele>
        <time>2022-07-23T11:20:48Z</time>
      </trkpt>
      <trkpt lat="45.72295" lon="6.44752">
        <ele>876</ele>
        <time>2022-07-23T11:20:49Z</time>
      </trkpt>
      <trkpt lat="45.72295" lon="6.44752">
        <ele>877</ele>
        <time>2022-07-23T11:20:50Z</time>
      </trkpt>
      <trkpt lat="45.72296" lon="6.44751">
        <ele>877</ele>
        <time>2022-07-23T11:20:51Z</time>
      </trkpt>
      <trkpt lat="45.72297" lon="6.44751">
        <ele>877</ele>
        <time>2022-07-23T11:20:52Z</time>
      </trkpt>
      <trkpt lat="45.72298" lon="6.44751">
        <ele>877</ele>
        <time>2022-07-23T11:20:53Z</time>
      </trkpt>
      <trkpt lat="45.72298" lon="6.44752">
        <ele>877</ele>
        <time>2022-07-23T11:20:54Z</time>
      </trkpt>
      <trkpt lat="45.72299" lon="6.44752">
        <ele>878</ele>
        <time>2022-07-23T11:20:55Z</time>
      </trkpt>
      <trkpt lat="45.723" lon="6.44753">
        <ele>878</ele>
        <time>2022-07-23T11:20:56Z</time>
      </trkpt>
      <trkpt lat="45.72301" lon="6.44753">
        <ele>878</ele>
        <time>2022-07-23T11:20:57Z</time>
      </trkpt>
      <trkpt lat="45.72301" lon="6.44754">
        <ele>879</ele>
        <time>2022-07-23T11:20:58Z</time>
      </trkpt>
      <trkpt lat="45.72302" lon="6.44754">
        <ele>879</ele>
        <time>2022-07-23T11:20:59Z</time>
      </trkpt>
      <trkpt lat="45.72303" lon="6.44755">
        <ele>880</ele>
        <time>2022-07-23T11:21:00Z</time>
      </trkpt>
      <trkpt lat="45.72303" lon="6.44755">
        <ele>880</ele>
        <time>2022-07-23T11:21:01Z</time>
      </trkpt>
      <trkpt lat="45.72304" lon="6.44756">
        <ele>880</ele>
        <time>2022-07-23T11:21:02Z</time>
      </trkpt>
      <trkpt lat="45.72305" lon="6.44756">
        <ele>880</ele>
        <time>2022-07-23T11:21:03Z</time>
      </trkpt>
      <trkpt lat="45.72305" lon="6.44757">
        <ele>880</ele>
        <time>2022-07-23T11:21:04Z</time>
      </trkpt>
      <trkpt lat="45.72306" lon="6.44757">
        <ele>881</ele>
        <time>2022-07-23T11:21:05Z</time>
      </trkpt>
      <trkpt lat="45.72307" lon="6.44757">
        <ele>881</ele>
        <time>2022-07-23T11:21:06Z</time>
      </trkpt>
      <trkpt lat="45.72307" lon="6.44757">
        <ele>881</ele>
        <time>2022-07-23T11:21:07Z</time>
      </trkpt>
      <trkpt lat="45.72308" lon="6.44758">
        <ele>881</ele>
        <time>2022-07-23T11:21:08Z</time>
      </trkpt>
      <trkpt lat="45.72309" lon="6.44758">
        <ele>881</ele>
        <time>2022-07-23T11:21:09Z</time>
      </trkpt>
      <trkpt lat="45.72309" lon="6.44758">
        <ele>882</ele>
        <time>2022-07-23T11:21:10Z</time>
      </trkpt>
      <trkpt lat="45.7231" lon="6.44758">
        <ele>882</ele>
        <time>2022-07-23T11:21:11Z</time>
      </trkpt>
      <trkpt lat="45.72311" lon="6.44758">
        <ele>882</ele>
        <time>2022-07-23T11:21:12Z</time>
      </trkpt>
      <trkpt lat="45.72312" lon="6.44758">
        <ele>882</ele>
        <time>2022-07-23T11:21:13Z</time>
      </trkpt>
      <trkpt lat="45.72313" lon="6.44759">
        <ele>882</ele>
        <time>2022-07-23T11:21:14Z</time>
      </trkpt>
      <trkpt lat="45.72313" lon="6.44759">
        <ele>883</ele>
        <time>2022-07-23T11:21:15Z</time>
      </trkpt>
      <trkpt lat="45.72314" lon="6.4476">
        <ele>883</ele>
        <time>2022-07-23T11:21:16Z</time>
      </trkpt>
      <trkpt lat="45.72315" lon="6.4476">
        <ele>883</ele>
        <time>2022-07-23T11:21:17Z</time>
      </trkpt>
      <trkpt lat="45.72316" lon="6.44761">
        <ele>883</ele>
        <time>2022-07-23T11:21:18Z</time>
      </trkpt>
      <trkpt lat="45.72316" lon="6.44762">
        <ele>883</ele>
        <time>2022-07-23T11:21:19Z</time>
      </trkpt>
      <trkpt lat="45.72317" lon="6.44762">
        <ele>883</ele>
        <time>2022-07-23T11:21:20Z</time>
      </trkpt>
      <trkpt lat="45.72318" lon="6.44763">
        <ele>883</ele>
        <time>2022-07-23T11:21:21Z</time>
      </trkpt>
      <trkpt lat="45.72318" lon="6.44763">
        <ele>883</ele>
        <time>2022-07-23T11:21:22Z</time>
      </trkpt>
      <trkpt lat="45.72319" lon="6.44763">
        <ele>883</ele>
        <time>2022-07-23T11:21:23Z</time>
      </trkpt>
      <trkpt lat="45.7232" lon="6.44763">
        <ele>883</ele>
        <time>2022-07-23T11:21:24Z</time>
      </trkpt>
      <trkpt lat="45.72321" lon="6.44763">
        <ele>884</ele>
        <time>2022-07-23T11:21:25Z</time>
      </trkpt>
      <trkpt lat="45.72322" lon="6.44763">
        <ele>884</ele>
        <time>2022-07-23T11:21:26Z</time>
      </trkpt>
      <trkpt lat="45.72322" lon="6.44763">
        <ele>884</ele>
        <time>2022-07-23T11:21:27Z</time>
      </trkpt>
      <trkpt lat="45.72323" lon="6.44763">
        <ele>884</ele>
        <time>2022-07-23T11:21:28Z</time>
      </trkpt>
      <trkpt lat="45.72324" lon="6.44763">
        <ele>884</ele>
        <time>2022-07-23T11:21:29Z</time>
      </trkpt>
      <trkpt lat="45.72325" lon="6.44763">
        <ele>884</ele>
        <time>2022-07-23T11:21:30Z</time>
      </trkpt>
      <trkpt lat="45.72326" lon="6.44763">
        <ele>884</ele>
        <time>2022-07-23T11:21:31Z</time>
      </trkpt>
      <trkpt lat="45.72326" lon="6.44763">
        <ele>884</ele>
        <time>2022-07-23T11:21:32Z</time>
      </trkpt>
      <trkpt lat="45.72327" lon="6.44763">
        <ele>884</ele>
        <time>2022-07-23T11:21:33Z</time>
      </trkpt>
      <trkpt lat="45.72328" lon="6.44764">
        <ele>884</ele>
        <time>2022-07-23T11:21:34Z</time>
      </trkpt>
      <trkpt lat="45.72328" lon="6.44764">
        <ele>885</ele>
        <time>2022-07-23T11:21:35Z</time>
      </trkpt>
      <trkpt lat="45.72329" lon="6.44764">
        <ele>885</ele>
        <time>2022-07-23T11:21:36Z</time>
      </trkpt>
      <trkpt lat="45.7233" lon="6.44764">
        <ele>885</ele>
        <time>2022-07-23T11:21:37Z</time>
      </trkpt>
      <trkpt lat="45.7233" lon="6.44765">
        <ele>885</ele>
        <time>2022-07-23T11:21:38Z</time>
      </trkpt>
      <trkpt lat="45.7233" lon="6.44768">
        <ele>887</ele>
        <time>2022-07-23T11:25:05Z</time>
      </trkpt>
      <trkpt lat="45.7233" lon="6.44769">
        <ele>887</ele>
        <time>2022-07-23T11:25:06Z</time>
      </trkpt>
      <trkpt lat="45.72331" lon="6.4477">
        <ele>887</ele>
        <time>2022-07-23T11:25:07Z</time>
      </trkpt>
      <trkpt lat="45.72331" lon="6.4477">
        <ele>887</ele>
        <time>2022-07-23T11:25:08Z</time>
      </trkpt>
      <trkpt lat="45.72332" lon="6.44771">
        <ele>887</ele>
        <time>2022-07-23T11:25:09Z</time>
      </trkpt>
      <trkpt lat="45.72332" lon="6.44771">
        <ele>887</ele>
        <time>2022-07-23T11:25:10Z</time>
      </trkpt>
      <trkpt lat="45.72333" lon="6.44771">
        <ele>887</ele>
        <time>2022-07-23T11:25:11Z</time>
      </trkpt>
      <trkpt lat="45.72334" lon="6.44771">
        <ele>887</ele>
        <time>2022-07-23T11:25:12Z</time>
      </trkpt>
      <trkpt lat="45.72335" lon="6.44772">
        <ele>887</ele>
        <time>2022-07-23T11:25:13Z</time>
      </trkpt>
      <trkpt lat="45.72336" lon="6.44772">
        <ele>887</ele>
        <time>2022-07-23T11:25:14Z</time>
      </trkpt>
      <trkpt lat="45.72337" lon="6.44772">
        <ele>887</ele>
        <time>2022-07-23T11:25:15Z</time>
      </trkpt>
      <trkpt lat="45.72338" lon="6.44773">
        <ele>887</ele>
        <time>2022-07-23T11:25:16Z</time>
      </trkpt>
      <trkpt lat="45.72339" lon="6.44773">
        <ele>887</ele>
        <time>2022-07-23T11:25:17Z</time>
      </trkpt>
      <trkpt lat="45.7234" lon="6.44774">
        <ele>887</ele>
        <time>2022-07-23T11:25:18Z</time>
      </trkpt>
      <trkpt lat="45.72341" lon="6.44775">
        <ele>887</ele>
        <time>2022-07-23T11:25:19Z</time>
      </trkpt>
      <trkpt lat="45.72342" lon="6.44775">
        <ele>887</ele>
        <time>2022-07-23T11:25:20Z</time>
      </trkpt>
      <trkpt lat="45.72343" lon="6.44775">
        <ele>887</ele>
        <time>2022-07-23T11:25:21Z</time>
      </trkpt>
      <trkpt lat="45.72343" lon="6.44776">
        <ele>887</ele>
        <time>2022-07-23T11:25:22Z</time>
      </trkpt>
      <trkpt lat="45.72344" lon="6.44776">
        <ele>887</ele>
        <time>2022-07-23T11:25:23Z</time>
      </trkpt>
      <trkpt lat="45.72344" lon="6.44776">
        <ele>887</ele>
        <time>2022-07-23T11:25:24Z</time>
      </trkpt>
      <trkpt lat="45.72345" lon="6.44776">
        <ele>888</ele>
        <time>2022-07-23T11:25:25Z</time>
      </trkpt>
      <trkpt lat="45.72346" lon="6.44776">
        <ele>888</ele>
        <time>2022-07-23T11:25:26Z</time>
      </trkpt>
      <trkpt lat="45.72346" lon="6.44777">
        <ele>888</ele>
        <time>2022-07-23T11:25:27Z</time>
      </trkpt>
      <trkpt lat="45.72347" lon="6.44777">
        <ele>888</ele>
        <time>2022-07-23T11:25:28Z</time>
      </trkpt>
      <trkpt lat="45.72347" lon="6.44777">
        <ele>888</ele>
        <time>2022-07-23T11:25:29Z</time>
      </trkpt>
      <trkpt lat="45.72348" lon="6.44777">
        <ele>889</ele>
        <time>2022-07-23T11:25:30Z</time>
      </trkpt>
      <trkpt lat="45.72349" lon="6.44776">
        <ele>889</ele>
        <time>2022-07-23T11:25:31Z</time>
      </trkpt>
      <trkpt lat="45.7235" lon="6.44776">
        <ele>889</ele>
        <time>2022-07-23T11:25:32Z</time>
      </trkpt>
      <trkpt lat="45.7235" lon="6.44776">
        <ele>889</ele>
        <time>2022-07-23T11:25:33Z</time>
      </trkpt>
      <trkpt lat="45.72351" lon="6.44776">
        <ele>889</ele>
        <time>2022-07-23T11:25:34Z</time>
      </trkpt>
      <trkpt lat="45.72352" lon="6.44776">
        <ele>890</ele>
        <time>2022-07-23T11:25:35Z</time>
      </trkpt>
      <trkpt lat="45.72353" lon="6.44776">
        <ele>890</ele>
        <time>2022-07-23T11:25:36Z</time>
      </trkpt>
      <trkpt lat="45.72354" lon="6.44776">
        <ele>890</ele>
        <time>2022-07-23T11:25:37Z</time>
      </trkpt>
      <trkpt lat="45.72355" lon="6.44776">
        <ele>890</ele>
        <time>2022-07-23T11:25:38Z</time>
      </trkpt>
      <trkpt lat="45.72356" lon="6.44776">
        <ele>890</ele>
        <time>2022-07-23T11:25:39Z</time>
      </trkpt>
      <trkpt lat="45.72357" lon="6.44777">
        <ele>890</ele>
        <time>2022-07-23T11:25:40Z</time>
      </trkpt>
      <trkpt lat="45.72358" lon="6.44777">
        <ele>890</ele>
        <time>2022-07-23T11:25:41Z</time>
      </trkpt>
      <trkpt lat="45.72359" lon="6.44777">
        <ele>890</ele>
        <time>2022-07-23T11:25:42Z</time>
      </trkpt>
      <trkpt lat="45.72359" lon="6.44778">
        <ele>890</ele>
        <time>2022-07-23T11:25:43Z</time>
      </trkpt>
      <trkpt lat="45.7236" lon="6.44778">
        <ele>890</ele>
        <time>2022-07-23T11:25:44Z</time>
      </trkpt>
      <trkpt lat="45.72361" lon="6.44778">
        <ele>891</ele>
        <time>2022-07-23T11:25:45Z</time>
      </trkpt>
      <trkpt lat="45.72362" lon="6.44779">
        <ele>891</ele>
        <time>2022-07-23T11:25:46Z</time>
      </trkpt>
      <trkpt lat="45.72362" lon="6.44779">
        <ele>891</ele>
        <time>2022-07-23T11:25:47Z</time>
      </trkpt>
      <trkpt lat="45.72363" lon="6.4478">
        <ele>891</ele>
        <time>2022-07-23T11:25:48Z</time>
      </trkpt>
      <trkpt lat="45.72364" lon="6.44781">
        <ele>891</ele>
        <time>2022-07-23T11:25:49Z</time>
      </trkpt>
      <trkpt lat="45.72364" lon="6.44781">
        <ele>892</ele>
        <time>2022-07-23T11:25:50Z</time>
      </trkpt>
      <trkpt lat="45.72365" lon="6.44782">
        <ele>892</ele>
        <time>2022-07-23T11:25:51Z</time>
      </trkpt>
      <trkpt lat="45.72366" lon="6.44783">
        <ele>892</ele>
        <time>2022-07-23T11:25:52Z</time>
      </trkpt>
      <trkpt lat="45.72366" lon="6.44783">
        <ele>892</ele>
        <time>2022-07-23T11:25:53Z</time>
      </trkpt>
      <trkpt lat="45.72367" lon="6.44784">
        <ele>892</ele>
        <time>2022-07-23T11:25:54Z</time>
      </trkpt>
      <trkpt lat="45.72367" lon="6.44784">
        <ele>893</ele>
        <time>2022-07-23T11:25:55Z</time>
      </trkpt>
      <trkpt lat="45.72368" lon="6.44785">
        <ele>893</ele>
        <time>2022-07-23T11:25:56Z</time>
      </trkpt>
      <trkpt lat="45.72368" lon="6.44785">
        <ele>893</ele>
        <time>2022-07-23T11:25:57Z</time>
      </trkpt>
      <trkpt lat="45.72369" lon="6.44786">
        <ele>893</ele>
        <time>2022-07-23T11:25:58Z</time>
      </trkpt>
      <trkpt lat="45.72369" lon="6.44786">
        <ele>893</ele>
        <time>2022-07-23T11:25:59Z</time>
      </trkpt>
      <trkpt lat="45.7237" lon="6.44787">
        <ele>894</ele>
        <time>2022-07-23T11:26:00Z</time>
      </trkpt>
      <trkpt lat="45.7237" lon="6.44787">
        <ele>894</ele>
        <time>2022-07-23T11:26:01Z</time>
      </trkpt>
      <trkpt lat="45.72371" lon="6.44788">
        <ele>894</ele>
        <time>2022-07-23T11:26:02Z</time>
      </trkpt>
      <trkpt lat="45.72372" lon="6.44788">
        <ele>894</ele>
        <time>2022-07-23T11:26:03Z</time>
      </trkpt>
      <trkpt lat="45.72372" lon="6.44789">
        <ele>894</ele>
        <time>2022-07-23T11:26:04Z</time>
      </trkpt>
      <trkpt lat="45.72373" lon="6.4479">
        <ele>894</ele>
        <time>2022-07-23T11:26:05Z</time>
      </trkpt>
      <trkpt lat="45.72374" lon="6.4479">
        <ele>894</ele>
        <time>2022-07-23T11:26:06Z</time>
      </trkpt>
      <trkpt lat="45.72374" lon="6.44791">
        <ele>894</ele>
        <time>2022-07-23T11:26:07Z</time>
      </trkpt>
      <trkpt lat="45.72375" lon="6.44792">
        <ele>894</ele>
        <time>2022-07-23T11:26:08Z</time>
      </trkpt>
      <trkpt lat="45.72376" lon="6.44792">
        <ele>894</ele>
        <time>2022-07-23T11:26:09Z</time>
      </trkpt>
      <trkpt lat="45.72376" lon="6.44793">
        <ele>895</ele>
        <time>2022-07-23T11:26:10Z</time>
      </trkpt>
      <trkpt lat="45.72377" lon="6.44794">
        <ele>895</ele>
        <time>2022-07-23T11:26:11Z</time>
      </trkpt>
      <trkpt lat="45.72377" lon="6.44794">
        <ele>895</ele>
        <time>2022-07-23T11:26:12Z</time>
      </trkpt>
      <trkpt lat="45.72377" lon="6.44795">
        <ele>895</ele>
        <time>2022-07-23T11:26:13Z</time>
      </trkpt>
      <trkpt lat="45.72378" lon="6.44796">
        <ele>895</ele>
        <time>2022-07-23T11:26:14Z</time>
      </trkpt>
      <trkpt lat="45.72378" lon="6.44797">
        <ele>895</ele>
        <time>2022-07-23T11:26:15Z</time>
      </trkpt>
      <trkpt lat="45.72378" lon="6.44797">
        <ele>895</ele>
        <time>2022-07-23T11:26:16Z</time>
      </trkpt>
      <trkpt lat="45.72379" lon="6.44798">
        <ele>895</ele>
        <time>2022-07-23T11:26:17Z</time>
      </trkpt>
      <trkpt lat="45.72379" lon="6.448">
        <ele>895</ele>
        <time>2022-07-23T11:26:18Z</time>
      </trkpt>
      <trkpt lat="45.72379" lon="6.44801">
        <ele>895</ele>
        <time>2022-07-23T11:26:19Z</time>
      </trkpt>
      <trkpt lat="45.7238" lon="6.44802">
        <ele>896</ele>
        <time>2022-07-23T11:26:20Z</time>
      </trkpt>
      <trkpt lat="45.7238" lon="6.44803">
        <ele>896</ele>
        <time>2022-07-23T11:26:21Z</time>
      </trkpt>
      <trkpt lat="45.72381" lon="6.44804">
        <ele>896</ele>
        <time>2022-07-23T11:26:22Z</time>
      </trkpt>
      <trkpt lat="45.72381" lon="6.44804">
        <ele>896</ele>
        <time>2022-07-23T11:26:23Z</time>
      </trkpt>
      <trkpt lat="45.72382" lon="6.44805">
        <ele>896</ele>
        <time>2022-07-23T11:26:24Z</time>
      </trkpt>
      <trkpt lat="45.72382" lon="6.44806">
        <ele>896</ele>
        <time>2022-07-23T11:26:25Z</time>
      </trkpt>
      <trkpt lat="45.72383" lon="6.44806">
        <ele>896</ele>
        <time>2022-07-23T11:26:26Z</time>
      </trkpt>
      <trkpt lat="45.72384" lon="6.44807">
        <ele>896</ele>
        <time>2022-07-23T11:26:27Z</time>
      </trkpt>
      <trkpt lat="45.72384" lon="6.44808">
        <ele>896</ele>
        <time>2022-07-23T11:26:28Z</time>
      </trkpt>
      <trkpt lat="45.72385" lon="6.44808">
        <ele>896</ele>
        <time>2022-07-23T11:26:29Z</time>
      </trkpt>
      <trkpt lat="45.72385" lon="6.44809">
        <ele>896</ele>
        <time>2022-07-23T11:26:30Z</time>
      </trkpt>
      <trkpt lat="45.72386" lon="6.4481">
        <ele>896</ele>
        <time>2022-07-23T11:26:31Z</time>
      </trkpt>
      <trkpt lat="45.72387" lon="6.4481">
        <ele>896</ele>
        <time>2022-07-23T11:26:32Z</time>
      </trkpt>
      <trkpt lat="45.72387" lon="6.44811">
        <ele>896</ele>
        <time>2022-07-23T11:26:33Z</time>
      </trkpt>
      <trkpt lat="45.72388" lon="6.44812">
        <ele>896</ele>
        <time>2022-07-23T11:26:34Z</time>
      </trkpt>
      <trkpt lat="45.72389" lon="6.44812">
        <ele>897</ele>
        <time>2022-07-23T11:26:35Z</time>
      </trkpt>
      <trkpt lat="45.7239" lon="6.44813">
        <ele>897</ele>
        <time>2022-07-23T11:26:36Z</time>
      </trkpt>
      <trkpt lat="45.7239" lon="6.44813">
        <ele>897</ele>
        <time>2022-07-23T11:26:37Z</time>
      </trkpt>
      <trkpt lat="45.72391" lon="6.44814">
        <ele>897</ele>
        <time>2022-07-23T11:26:38Z</time>
      </trkpt>
      <trkpt lat="45.72392" lon="6.44815">
        <ele>897</ele>
        <time>2022-07-23T11:26:39Z</time>
      </trkpt>
      <trkpt lat="45.72393" lon="6.44815">
        <ele>897</ele>
        <time>2022-07-23T11:26:40Z</time>
      </trkpt>
      <trkpt lat="45.72394" lon="6.44815">
        <ele>897</ele>
        <time>2022-07-23T11:26:41Z</time>
      </trkpt>
      <trkpt lat="45.72395" lon="6.44816">
        <ele>897</ele>
        <time>2022-07-23T11:26:42Z</time>
      </trkpt>
      <trkpt lat="45.72396" lon="6.44816">
        <ele>897</ele>
        <time>2022-07-23T11:26:43Z</time>
      </trkpt>
      <trkpt lat="45.72396" lon="6.44817">
        <ele>897</ele>
        <time>2022-07-23T11:26:44Z</time>
      </trkpt>
      <trkpt lat="45.72397" lon="6.44817">
        <ele>897</ele>
        <time>2022-07-23T11:26:45Z</time>
      </trkpt>
      <trkpt lat="45.72398" lon="6.44818">
        <ele>897</ele>
        <time>2022-07-23T11:26:46Z</time>
      </trkpt>
      <trkpt lat="45.72399" lon="6.44818">
        <ele>897</ele>
        <time>2022-07-23T11:26:47Z</time>
      </trkpt>
      <trkpt lat="45.724" lon="6.44819">
        <ele>897</ele>
        <time>2022-07-23T11:26:48Z</time>
      </trkpt>
      <trkpt lat="45.72401" lon="6.44819">
        <ele>897</ele>
        <time>2022-07-23T11:26:49Z</time>
      </trkpt>
      <trkpt lat="45.72401" lon="6.4482">
        <ele>897</ele>
        <time>2022-07-23T11:26:50Z</time>
      </trkpt>
      <trkpt lat="45.72402" lon="6.4482">
        <ele>897</ele>
        <time>2022-07-23T11:26:51Z</time>
      </trkpt>
      <trkpt lat="45.72403" lon="6.44821">
        <ele>897</ele>
        <time>2022-07-23T11:26:52Z</time>
      </trkpt>
      <trkpt lat="45.72404" lon="6.44821">
        <ele>897</ele>
        <time>2022-07-23T11:26:53Z</time>
      </trkpt>
      <trkpt lat="45.72405" lon="6.44822">
        <ele>897</ele>
        <time>2022-07-23T11:26:54Z</time>
      </trkpt>
      <trkpt lat="45.72405" lon="6.44822">
        <ele>897</ele>
        <time>2022-07-23T11:26:55Z</time>
      </trkpt>
      <trkpt lat="45.72406" lon="6.44823">
        <ele>896</ele>
        <time>2022-07-23T11:26:56Z</time>
      </trkpt>
      <trkpt lat="45.72407" lon="6.44823">
        <ele>896</ele>
        <time>2022-07-23T11:26:57Z</time>
      </trkpt>
      <trkpt lat="45.72407" lon="6.44823">
        <ele>896</ele>
        <time>2022-07-23T11:26:58Z</time>
      </trkpt>
      <trkpt lat="45.72408" lon="6.44824">
        <ele>896</ele>
        <time>2022-07-23T11:26:59Z</time>
      </trkpt>
      <trkpt lat="45.72409" lon="6.44824">
        <ele>896</ele>
        <time>2022-07-23T11:27:00Z</time>
      </trkpt>
      <trkpt lat="45.72409" lon="6.44825">
        <ele>896</ele>
        <time>2022-07-23T11:27:01Z</time>
      </trkpt>
      <trkpt lat="45.7241" lon="6.44825">
        <ele>896</ele>
        <time>2022-07-23T11:27:02Z</time>
      </trkpt>
      <trkpt lat="45.72411" lon="6.44826">
        <ele>896</ele>
        <time>2022-07-23T11:27:03Z</time>
      </trkpt>
      <trkpt lat="45.72412" lon="6.44826">
        <ele>896</ele>
        <time>2022-07-23T11:27:04Z</time>
      </trkpt>
      <trkpt lat="45.72413" lon="6.44827">
        <ele>896</ele>
        <time>2022-07-23T11:27:05Z</time>
      </trkpt>
      <trkpt lat="45.72414" lon="6.44827">
        <ele>896</ele>
        <time>2022-07-23T11:27:06Z</time>
      </trkpt>
      <trkpt lat="45.72415" lon="6.44828">
        <ele>896</ele>
        <time>2022-07-23T11:27:07Z</time>
      </trkpt>
      <trkpt lat="45.72416" lon="6.44829">
        <ele>896</ele>
        <time>2022-07-23T11:27:08Z</time>
      </trkpt>
      <trkpt lat="45.72417" lon="6.44829">
        <ele>896</ele>
        <time>2022-07-23T11:27:09Z</time>
      </trkpt>
      <trkpt lat="45.72418" lon="6.4483">
        <ele>896</ele>
        <time>2022-07-23T11:27:10Z</time>
      </trkpt>
      <trkpt lat="45.72418" lon="6.44831">
        <ele>896</ele>
        <time>2022-07-23T11:27:11Z</time>
      </trkpt>
      <trkpt lat="45.72419" lon="6.44832">
        <ele>896</ele>
        <time>2022-07-23T11:27:12Z</time>
      </trkpt>
      <trkpt lat="45.7242" lon="6.44833">
        <ele>896</ele>
        <time>2022-07-23T11:27:13Z</time>
      </trkpt>
      <trkpt lat="45.72421" lon="6.44833">
        <ele>896</ele>
        <time>2022-07-23T11:27:14Z</time>
      </trkpt>
      <trkpt lat="45.72422" lon="6.44834">
        <ele>896</ele>
        <time>2022-07-23T11:27:15Z</time>
      </trkpt>
      <trkpt lat="45.72422" lon="6.44835">
        <ele>896</ele>
        <time>2022-07-23T11:27:16Z</time>
      </trkpt>
      <trkpt lat="45.72423" lon="6.44836">
        <ele>896</ele>
        <time>2022-07-23T11:27:17Z</time>
      </trkpt>
      <trkpt lat="45.72424" lon="6.44837">
        <ele>896</ele>
        <time>2022-07-23T11:27:18Z</time>
      </trkpt>
      <trkpt lat="45.72424" lon="6.44838">
        <ele>896</ele>
        <time>2022-07-23T11:27:19Z</time>
      </trkpt>
      <trkpt lat="45.72425" lon="6.44839">
        <ele>896</ele>
        <time>2022-07-23T11:27:20Z</time>
      </trkpt>
      <trkpt lat="45.72425" lon="6.4484">
        <ele>896</ele>
        <time>2022-07-23T11:27:21Z</time>
      </trkpt>
      <trkpt lat="45.72426" lon="6.44841">
        <ele>896</ele>
        <time>2022-07-23T11:27:22Z</time>
      </trkpt>
      <trkpt lat="45.72427" lon="6.44842">
        <ele>896</ele>
        <time>2022-07-23T11:27:23Z</time>
      </trkpt>
      <trkpt lat="45.72428" lon="6.44843">
        <ele>896</ele>
        <time>2022-07-23T11:27:24Z</time>
      </trkpt>
      <trkpt lat="45.72428" lon="6.44844">
        <ele>896</ele>
        <time>2022-07-23T11:27:25Z</time>
      </trkpt>
      <trkpt lat="45.72429" lon="6.44845">
        <ele>896</ele>
        <time>2022-07-23T11:27:26Z</time>
      </trkpt>
      <trkpt lat="45.72429" lon="6.44846">
        <ele>896</ele>
        <time>2022-07-23T11:27:27Z</time>
      </trkpt>
      <trkpt lat="45.7243" lon="6.44848">
        <ele>896</ele>
        <time>2022-07-23T11:27:28Z</time>
      </trkpt>
      <trkpt lat="45.7243" lon="6.44848">
        <ele>896</ele>
        <time>2022-07-23T11:27:29Z</time>
      </trkpt>
      <trkpt lat="45.7243" lon="6.44849">
        <ele>896</ele>
        <time>2022-07-23T11:27:30Z</time>
      </trkpt>
      <trkpt lat="45.72431" lon="6.44849">
        <ele>896</ele>
        <time>2022-07-23T11:27:31Z</time>
      </trkpt>
      <trkpt lat="45.72431" lon="6.4485">
        <ele>896</ele>
        <time>2022-07-23T11:27:32Z</time>
      </trkpt>
      <trkpt lat="45.72432" lon="6.4485">
        <ele>896</ele>
        <time>2022-07-23T11:27:33Z</time>
      </trkpt>
      <trkpt lat="45.72432" lon="6.4485">
        <ele>896</ele>
        <time>2022-07-23T11:27:34Z</time>
      </trkpt>
      <trkpt lat="45.72433" lon="6.44851">
        <ele>896</ele>
        <time>2022-07-23T11:27:35Z</time>
      </trkpt>
      <trkpt lat="45.72434" lon="6.44851">
        <ele>896</ele>
        <time>2022-07-23T11:27:36Z</time>
      </trkpt>
      <trkpt lat="45.72435" lon="6.44852">
        <ele>896</ele>
        <time>2022-07-23T11:27:37Z</time>
      </trkpt>
      <trkpt lat="45.72435" lon="6.44852">
        <ele>896</ele>
        <time>2022-07-23T11:27:38Z</time>
      </trkpt>
      <trkpt lat="45.72436" lon="6.44853">
        <ele>896</ele>
        <time>2022-07-23T11:27:39Z</time>
      </trkpt>
      <trkpt lat="45.72437" lon="6.44854">
        <ele>896</ele>
        <time>2022-07-23T11:27:40Z</time>
      </trkpt>
      <trkpt lat="45.72438" lon="6.44854">
        <ele>896</ele>
        <time>2022-07-23T11:27:41Z</time>
      </trkpt>
      <trkpt lat="45.72439" lon="6.44855">
        <ele>896</ele>
        <time>2022-07-23T11:27:42Z</time>
      </trkpt>
      <trkpt lat="45.72439" lon="6.44856">
        <ele>896</ele>
        <time>2022-07-23T11:27:43Z</time>
      </trkpt>
      <trkpt lat="45.7244" lon="6.44857">
        <ele>896</ele>
        <time>2022-07-23T11:27:44Z</time>
      </trkpt>
      <trkpt lat="45.72441" lon="6.44858">
        <ele>896</ele>
        <time>2022-07-23T11:27:45Z</time>
      </trkpt>
      <trkpt lat="45.72441" lon="6.44859">
        <ele>896</ele>
        <time>2022-07-23T11:27:46Z</time>
      </trkpt>
      <trkpt lat="45.72442" lon="6.4486">
        <ele>896</ele>
        <time>2022-07-23T11:27:47Z</time>
      </trkpt>
      <trkpt lat="45.72443" lon="6.44861">
        <ele>896</ele>
        <time>2022-07-23T11:27:48Z</time>
      </trkpt>
      <trkpt lat="45.72443" lon="6.44862">
        <ele>896</ele>
        <time>2022-07-23T11:27:49Z</time>
      </trkpt>
      <trkpt lat="45.72444" lon="6.44862">
        <ele>896</ele>
        <time>2022-07-23T11:27:50Z</time>
      </trkpt>
      <trkpt lat="45.72445" lon="6.44863">
        <ele>896</ele>
        <time>2022-07-23T11:27:51Z</time>
      </trkpt>
      <trkpt lat="45.72445" lon="6.44864">
        <ele>896</ele>
        <time>2022-07-23T11:27:52Z</time>
      </trkpt>
      <trkpt lat="45.72446" lon="6.44863">
        <ele>899</ele>
        <time>2022-07-23T11:29:38Z</time>
      </trkpt>
      <trkpt lat="45.72446" lon="6.44863">
        <ele>899</ele>
        <time>2022-07-23T11:29:39Z</time>
      </trkpt>
      <trkpt lat="45.72446" lon="6.44863">
        <ele>899</ele>
        <time>2022-07-23T11:29:40Z</time>
      </trkpt>
      <trkpt lat="45.72445" lon="6.44862">
        <ele>899</ele>
        <time>2022-07-23T11:29:41Z</time>
      </trkpt>
      <trkpt lat="45.72445" lon="6.44862">
        <ele>899</ele>
        <time>2022-07-23T11:29:42Z</time>
      </trkpt>
      <trkpt lat="45.72445" lon="6.44861">
        <ele>899</ele>
        <time>2022-07-23T11:29:43Z</time>
      </trkpt>
      <trkpt lat="45.72445" lon="6.4486">
        <ele>899</ele>
        <time>2022-07-23T11:29:44Z</time>
      </trkpt>
      <trkpt lat="45.72444" lon="6.44859">
        <ele>899</ele>
        <time>2022-07-23T11:29:45Z</time>
      </trkpt>
      <trkpt lat="45.72444" lon="6.44859">
        <ele>899</ele>
        <time>2022-07-23T11:29:46Z</time>
      </trkpt>
      <trkpt lat="45.72444" lon="6.44858">
        <ele>899</ele>
        <time>2022-07-23T11:29:47Z</time>
      </trkpt>
      <trkpt lat="45.72444" lon="6.44858">
        <ele>899</ele>
        <time>2022-07-23T11:29:48Z</time>
      </trkpt>
      <trkpt lat="45.72443" lon="6.44857">
        <ele>899</ele>
        <time>2022-07-23T11:29:49Z</time>
      </trkpt>
      <trkpt lat="45.72443" lon="6.44856">
        <ele>899</ele>
        <time>2022-07-23T11:29:50Z</time>
      </trkpt>
      <trkpt lat="45.72442" lon="6.44856">
        <ele>899</ele>
        <time>2022-07-23T11:29:51Z</time>
      </trkpt>
      <trkpt lat="45.72442" lon="6.44855">
        <ele>899</ele>
        <time>2022-07-23T11:29:52Z</time>
      </trkpt>
      <trkpt lat="45.72442" lon="6.44854">
        <ele>899</ele>
        <time>2022-07-23T11:29:53Z</time>
      </trkpt>
      <trkpt lat="45.72441" lon="6.44853">
        <ele>899</ele>
        <time>2022-07-23T11:29:54Z</time>
      </trkpt>
      <trkpt lat="45.72441" lon="6.44853">
        <ele>900</ele>
        <time>2022-07-23T11:29:55Z</time>
      </trkpt>
      <trkpt lat="45.72441" lon="6.44851">
        <ele>900</ele>
        <time>2022-07-23T11:29:56Z</time>
      </trkpt>
      <trkpt lat="45.7244" lon="6.4485">
        <ele>900</ele>
        <time>2022-07-23T11:29:57Z</time>
      </trkpt>
      <trkpt lat="45.7244" lon="6.44849">
        <ele>900</ele>
        <time>2022-07-23T11:29:58Z</time>
      </trkpt>
      <trkpt lat="45.7244" lon="6.44848">
        <ele>900</ele>
        <time>2022-07-23T11:29:59Z</time>
      </trkpt>
      <trkpt lat="45.72439" lon="6.44847">
        <ele>900</ele>
        <time>2022-07-23T11:30:00Z</time>
      </trkpt>
      <trkpt lat="45.72439" lon="6.44846">
        <ele>900</ele>
        <time>2022-07-23T11:30:01Z</time>
      </trkpt>
      <trkpt lat="45.72439" lon="6.44845">
        <ele>900</ele>
        <time>2022-07-23T11:30:02Z</time>
      </trkpt>
      <trkpt lat="45.72438" lon="6.44844">
        <ele>900</ele>
        <time>2022-07-23T11:30:03Z</time>
      </trkpt>
      <trkpt lat="45.72438" lon="6.44843">
        <ele>900</ele>
        <time>2022-07-23T11:30:04Z</time>
      </trkpt>
      <trkpt lat="45.72437" lon="6.44842">
        <ele>900</ele>
        <time>2022-07-23T11:30:05Z</time>
      </trkpt>
      <trkpt lat="45.72437" lon="6.44841">
        <ele>900</ele>
        <time>2022-07-23T11:30:06Z</time>
      </trkpt>
      <trkpt lat="45.72437" lon="6.4484">
        <ele>900</ele>
        <time>2022-07-23T11:30:07Z</time>
      </trkpt>
      <trkpt lat="45.72436" lon="6.44839">
        <ele>900</ele>
        <time>2022-07-23T11:30:08Z</time>
      </trkpt>
      <trkpt lat="45.72436" lon="6.44838">
        <ele>900</ele>
        <time>2022-07-23T11:30:09Z</time>
      </trkpt>
      <trkpt lat="45.72435" lon="6.44837">
        <ele>901</ele>
        <time>2022-07-23T11:30:10Z</time>
      </trkpt>
      <trkpt lat="45.72434" lon="6.44836">
        <ele>901</ele>
        <time>2022-07-23T11:30:11Z</time>
      </trkpt>
      <trkpt lat="45.72434" lon="6.44835">
        <ele>901</ele>
        <time>2022-07-23T11:30:12Z</time>
      </trkpt>
      <trkpt lat="45.72433" lon="6.44835">
        <ele>901</ele>
        <time>2022-07-23T11:30:13Z</time>
      </trkpt>
      <trkpt lat="45.72432" lon="6.44834">
        <ele>901</ele>
        <time>2022-07-23T11:30:14Z</time>
      </trkpt>
      <trkpt lat="45.72432" lon="6.44833">
        <ele>902</ele>
        <time>2022-07-23T11:30:15Z</time>
      </trkpt>
      <trkpt lat="45.72431" lon="6.44832">
        <ele>902</ele>
        <time>2022-07-23T11:30:16Z</time>
      </trkpt>
      <trkpt lat="45.7243" lon="6.44831">
        <ele>902</ele>
        <time>2022-07-23T11:30:17Z</time>
      </trkpt>
      <trkpt lat="45.72429" lon="6.44831">
        <ele>902</ele>
        <time>2022-07-23T11:30:18Z</time>
      </trkpt>
      <trkpt lat="45.72428" lon="6.4483">
        <ele>902</ele>
        <time>2022-07-23T11:30:19Z</time>
      </trkpt>
      <trkpt lat="45.72428" lon="6.44829">
        <ele>902</ele>
        <time>2022-07-23T11:30:20Z</time>
      </trkpt>
      <trkpt lat="45.72427" lon="6.44828">
        <ele>902</ele>
        <time>2022-07-23T11:30:21Z</time>
      </trkpt>
      <trkpt lat="45.72426" lon="6.44827">
        <ele>902</ele>
        <time>2022-07-23T11:30:22Z</time>
      </trkpt>
      <trkpt lat="45.72426" lon="6.44826">
        <ele>902</ele>
        <time>2022-07-23T11:30:23Z</time>
      </trkpt>
      <trkpt lat="45.72425" lon="6.44826">
        <ele>902</ele>
        <time>2022-07-23T11:30:24Z</time>
      </trkpt>
      <trkpt lat="45.72425" lon="6.44825">
        <ele>903</ele>
        <time>2022-07-23T11:30:25Z</time>
      </trkpt>
      <trkpt lat="45.72424" lon="6.44824">
        <ele>903</ele>
        <time>2022-07-23T11:30:26Z</time>
      </trkpt>
      <trkpt lat="45.72424" lon="6.44824">
        <ele>903</ele>
        <time>2022-07-23T11:30:27Z</time>
      </trkpt>
      <trkpt lat="45.72423" lon="6.44823">
        <ele>903</ele>
        <time>2022-07-23T11:30:28Z</time>
      </trkpt>
      <trkpt lat="45.72422" lon="6.44822">
        <ele>903</ele>
        <time>2022-07-23T11:30:29Z</time>
      </trkpt>
      <trkpt lat="45.72422" lon="6.44821">
        <ele>903</ele>
        <time>2022-07-23T11:30:30Z</time>
      </trkpt>
      <trkpt lat="45.72421" lon="6.4482">
        <ele>903</ele>
        <time>2022-07-23T11:30:31Z</time>
      </trkpt>
      <trkpt lat="45.72421" lon="6.44819">
        <ele>903</ele>
        <time>2022-07-23T11:30:32Z</time>
      </trkpt>
      <trkpt lat="45.7242" lon="6.44818">
        <ele>903</ele>
        <time>2022-07-23T11:30:33Z</time>
      </trkpt>
      <trkpt lat="45.7242" lon="6.44817">
        <ele>903</ele>
        <time>2022-07-23T11:30:34Z</time>
      </trkpt>
      <trkpt lat="45.7242" lon="6.44816">
        <ele>904</ele>
        <time>2022-07-23T11:30:35Z</time>
      </trkpt>
      <trkpt lat="45.7242" lon="6.44815">
        <ele>904</ele>
        <time>2022-07-23T11:30:36Z</time>
      </trkpt>
      <trkpt lat="45.7242" lon="6.44814">
        <ele>904</ele>
        <time>2022-07-23T11:30:37Z</time>
      </trkpt>
      <trkpt lat="45.72422" lon="6.44812">
        <ele>906</ele>
        <time>2022-07-23T11:31:03Z</time>
      </trkpt>
      <trkpt lat="45.72423" lon="6.44811">
        <ele>906</ele>
        <time>2022-07-23T11:31:04Z</time>
      </trkpt>
      <trkpt lat="45.72424" lon="6.4481">
        <ele>906</ele>
        <time>2022-07-23T11:31:05Z</time>
      </trkpt>
      <trkpt lat="45.72425" lon="6.44809">
        <ele>906</ele>
        <time>2022-07-23T11:31:06Z</time>
      </trkpt>
      <trkpt lat="45.72425" lon="6.44808">
        <ele>906</ele>
        <time>2022-07-23T11:31:07Z</time>
      </trkpt>
      <trkpt lat="45.72426" lon="6.44808">
        <ele>906</ele>
        <time>2022-07-23T11:31:08Z</time>
      </trkpt>
      <trkpt lat="45.72426" lon="6.44808">
        <ele>906</ele>
        <time>2022-07-23T11:31:09Z</time>
      </trkpt>
      <trkpt lat="45.72426" lon="6.44807">
        <ele>906</ele>
        <time>2022-07-23T11:31:10Z</time>
      </trkpt>
      <trkpt lat="45.72427" lon="6.44807">
        <ele>906</ele>
        <time>2022-07-23T11:31:11Z</time>
      </trkpt>
      <trkpt lat="45.72429" lon="6.44806">
        <ele>908</ele>
        <time>2022-07-23T11:31:31Z</time>
      </trkpt>
      <trkpt lat="45.72431" lon="6.44806">
        <ele>908</ele>
        <time>2022-07-23T11:31:32Z</time>
      </trkpt>
      <trkpt lat="45.72432" lon="6.44805">
        <ele>908</ele>
        <time>2022-07-23T11:31:33Z</time>
      </trkpt>
      <trkpt lat="45.72437" lon="6.44806">
        <ele>910</ele>
        <time>2022-07-23T11:31:54Z</time>
      </trkpt>
      <trkpt lat="45.72439" lon="6.44806">
        <ele>911</ele>
        <time>2022-07-23T11:31:55Z</time>
      </trkpt>
      <trkpt lat="45.72441" lon="6.44806">
        <ele>911</ele>
        <time>2022-07-23T11:31:56Z</time>
      </trkpt>
      <trkpt lat="45.72444" lon="6.44807">
        <ele>912</ele>
        <time>2022-07-23T11:32:21Z</time>
      </trkpt>
      <trkpt lat="45.72446" lon="6.44808">
        <ele>912</ele>
        <time>2022-07-23T11:32:22Z</time>
      </trkpt>
      <trkpt lat="45.72447" lon="6.44808">
        <ele>912</ele>
        <time>2022-07-23T11:32:23Z</time>
      </trkpt>
      <trkpt lat="45.72448" lon="6.44809">
        <ele>912</ele>
        <time>2022-07-23T11:32:24Z</time>
      </trkpt>
      <trkpt lat="45.72449" lon="6.44809">
        <ele>913</ele>
        <time>2022-07-23T11:32:25Z</time>
      </trkpt>
      <trkpt lat="45.72449" lon="6.44809">
        <ele>913</ele>
        <time>2022-07-23T11:32:26Z</time>
      </trkpt>
      <trkpt lat="45.7245" lon="6.4481">
        <ele>913</ele>
        <time>2022-07-23T11:32:27Z</time>
      </trkpt>
      <trkpt lat="45.7245" lon="6.4481">
        <ele>913</ele>
        <time>2022-07-23T11:32:28Z</time>
      </trkpt>
      <trkpt lat="45.72451" lon="6.4481">
        <ele>913</ele>
        <time>2022-07-23T11:32:29Z</time>
      </trkpt>
      <trkpt lat="45.72452" lon="6.44811">
        <ele>913</ele>
        <time>2022-07-23T11:32:30Z</time>
      </trkpt>
      <trkpt lat="45.72452" lon="6.44811">
        <ele>913</ele>
        <time>2022-07-23T11:32:31Z</time>
      </trkpt>
      <trkpt lat="45.72453" lon="6.44811">
        <ele>913</ele>
        <time>2022-07-23T11:32:32Z</time>
      </trkpt>
      <trkpt lat="45.72453" lon="6.44812">
        <ele>913</ele>
        <time>2022-07-23T11:32:33Z</time>
      </trkpt>
      <trkpt lat="45.72454" lon="6.44812">
        <ele>913</ele>
        <time>2022-07-23T11:32:34Z</time>
      </trkpt>
      <trkpt lat="45.72454" lon="6.44812">
        <ele>914</ele>
        <time>2022-07-23T11:32:35Z</time>
      </trkpt>
      <trkpt lat="45.72455" lon="6.44812">
        <ele>914</ele>
        <time>2022-07-23T11:32:36Z</time>
      </trkpt>
      <trkpt lat="45.72455" lon="6.44812">
        <ele>914</ele>
        <time>2022-07-23T11:32:37Z</time>
      </trkpt>
      <trkpt lat="45.72455" lon="6.44812">
        <ele>914</ele>
        <time>2022-07-23T11:32:38Z</time>
      </trkpt>
      <trkpt lat="45.72455" lon="6.44812">
        <ele>914</ele>
        <time>2022-07-23T11:32:39Z</time>
      </trkpt>
      <trkpt lat="45.72456" lon="6.44812">
        <ele>914</ele>
        <time>2022-07-23T11:32:40Z</time>
      </trkpt>
      <trkpt lat="45.72456" lon="6.44812">
        <ele>914</ele>
        <time>2022-07-23T11:32:41Z</time>
      </trkpt>
      <trkpt lat="45.72457" lon="6.44812">
        <ele>914</ele>
        <time>2022-07-23T11:32:42Z</time>
      </trkpt>
      <trkpt lat="45.72458" lon="6.44812">
        <ele>914</ele>
        <time>2022-07-23T11:32:43Z</time>
      </trkpt>
      <trkpt lat="45.72458" lon="6.44812">
        <ele>914</ele>
        <time>2022-07-23T11:32:44Z</time>
      </trkpt>
      <trkpt lat="45.72459" lon="6.44812">
        <ele>915</ele>
        <time>2022-07-23T11:32:45Z</time>
      </trkpt>
      <trkpt lat="45.7246" lon="6.44813">
        <ele>915</ele>
        <time>2022-07-23T11:32:46Z</time>
      </trkpt>
      <trkpt lat="45.7246" lon="6.44813">
        <ele>915</ele>
        <time>2022-07-23T11:32:47Z</time>
      </trkpt>
      <trkpt lat="45.72461" lon="6.44813">
        <ele>915</ele>
        <time>2022-07-23T11:32:48Z</time>
      </trkpt>
      <trkpt lat="45.72461" lon="6.44814">
        <ele>915</ele>
        <time>2022-07-23T11:32:49Z</time>
      </trkpt>
      <trkpt lat="45.72462" lon="6.44814">
        <ele>915</ele>
        <time>2022-07-23T11:32:50Z</time>
      </trkpt>
      <trkpt lat="45.72462" lon="6.44814">
        <ele>915</ele>
        <time>2022-07-23T11:32:51Z</time>
      </trkpt>
      <trkpt lat="45.72463" lon="6.44814">
        <ele>915</ele>
        <time>2022-07-23T11:32:52Z</time>
      </trkpt>
      <trkpt lat="45.72463" lon="6.44814">
        <ele>916</ele>
        <time>2022-07-23T11:32:53Z</time>
      </trkpt>
      <trkpt lat="45.72464" lon="6.44814">
        <ele>916</ele>
        <time>2022-07-23T11:32:54Z</time>
      </trkpt>
      <trkpt lat="45.72464" lon="6.44814">
        <ele>917</ele>
        <time>2022-07-23T11:32:55Z</time>
      </trkpt>
      <trkpt lat="45.72465" lon="6.44814">
        <ele>917</ele>
        <time>2022-07-23T11:32:56Z</time>
      </trkpt>
      <trkpt lat="45.72468" lon="6.44815">
        <ele>922</ele>
        <time>2022-07-23T11:33:52Z</time>
      </trkpt>
      <trkpt lat="45.72471" lon="6.44816">
        <ele>922</ele>
        <time>2022-07-23T11:33:53Z</time>
      </trkpt>
      <trkpt lat="45.72473" lon="6.44817">
        <ele>922</ele>
        <time>2022-07-23T11:33:54Z</time>
      </trkpt>
      <trkpt lat="45.72474" lon="6.44818">
        <ele>922</ele>
        <time>2022-07-23T11:33:55Z</time>
      </trkpt>
      <trkpt lat="45.72474" lon="6.44818">
        <ele>922</ele>
        <time>2022-07-23T11:33:56Z</time>
      </trkpt>
      <trkpt lat="45.72475" lon="6.44819">
        <ele>922</ele>
        <time>2022-07-23T11:33:57Z</time>
      </trkpt>
      <trkpt lat="45.72476" lon="6.44819">
        <ele>922</ele>
        <time>2022-07-23T11:33:58Z</time>
      </trkpt>
      <trkpt lat="45.72477" lon="6.4482">
        <ele>922</ele>
        <time>2022-07-23T11:33:59Z</time>
      </trkpt>
      <trkpt lat="45.72477" lon="6.4482">
        <ele>922</ele>
        <time>2022-07-23T11:34:00Z</time>
      </trkpt>
      <trkpt lat="45.72478" lon="6.44821">
        <ele>922</ele>
        <time>2022-07-23T11:34:01Z</time>
      </trkpt>
      <trkpt lat="45.72478" lon="6.44821">
        <ele>922</ele>
        <time>2022-07-23T11:34:02Z</time>
      </trkpt>
      <trkpt lat="45.72479" lon="6.44821">
        <ele>922</ele>
        <time>2022-07-23T11:34:03Z</time>
      </trkpt>
      <trkpt lat="45.7248" lon="6.44822">
        <ele>924</ele>
        <time>2022-07-23T11:34:29Z</time>
      </trkpt>
      <trkpt lat="45.7248" lon="6.44822">
        <ele>924</ele>
        <time>2022-07-23T11:34:30Z</time>
      </trkpt>
      <trkpt lat="45.72481" lon="6.44823">
        <ele>924</ele>
        <time>2022-07-23T11:34:31Z</time>
      </trkpt>
      <trkpt lat="45.72482" lon="6.44823">
        <ele>924</ele>
        <time>2022-07-23T11:34:32Z</time>
      </trkpt>
      <trkpt lat="45.72483" lon="6.44823">
        <ele>924</ele>
        <time>2022-07-23T11:34:33Z</time>
      </trkpt>
      <trkpt lat="45.72483" lon="6.44823">
        <ele>924</ele>
        <time>2022-07-23T11:34:34Z</time>
      </trkpt>
      <trkpt lat="45.72484" lon="6.44823">
        <ele>924</ele>
        <time>2022-07-23T11:34:35Z</time>
      </trkpt>
      <trkpt lat="45.72485" lon="6.44824">
        <ele>924</ele>
        <time>2022-07-23T11:34:36Z</time>
      </trkpt>
      <trkpt lat="45.72486" lon="6.44824">
        <ele>924</ele>
        <time>2022-07-23T11:34:37Z</time>
      </trkpt>
      <trkpt lat="45.72487" lon="6.44825">
        <ele>925</ele>
        <time>2022-07-23T11:34:47Z</time>
      </trkpt>
      <trkpt lat="45.72488" lon="6.44825">
        <ele>925</ele>
        <time>2022-07-23T11:34:48Z</time>
      </trkpt>
      <trkpt lat="45.7249" lon="6.44826">
        <ele>925</ele>
        <time>2022-07-23T11:34:49Z</time>
      </trkpt>
      <trkpt lat="45.7249" lon="6.44826">
        <ele>925</ele>
        <time>2022-07-23T11:34:50Z</time>
      </trkpt>
      <trkpt lat="45.72491" lon="6.44826">
        <ele>925</ele>
        <time>2022-07-23T11:34:51Z</time>
      </trkpt>
      <trkpt lat="45.72492" lon="6.44827">
        <ele>925</ele>
        <time>2022-07-23T11:34:52Z</time>
      </trkpt>
      <trkpt lat="45.72492" lon="6.44827">
        <ele>925</ele>
        <time>2022-07-23T11:34:53Z</time>
      </trkpt>
      <trkpt lat="45.72493" lon="6.44827">
        <ele>925</ele>
        <time>2022-07-23T11:34:54Z</time>
      </trkpt>
      <trkpt lat="45.72494" lon="6.44828">
        <ele>926</ele>
        <time>2022-07-23T11:34:55Z</time>
      </trkpt>
      <trkpt lat="45.72494" lon="6.44828">
        <ele>926</ele>
        <time>2022-07-23T11:34:56Z</time>
      </trkpt>
      <trkpt lat="45.72494" lon="6.44829">
        <ele>926</ele>
        <time>2022-07-23T11:34:57Z</time>
      </trkpt>
      <trkpt lat="45.72495" lon="6.44829">
        <ele>926</ele>
        <time>2022-07-23T11:34:58Z</time>
      </trkpt>
      <trkpt lat="45.72495" lon="6.44829">
        <ele>926</ele>
        <time>2022-07-23T11:34:59Z</time>
      </trkpt>
      <trkpt lat="45.72496" lon="6.4483">
        <ele>926</ele>
        <time>2022-07-23T11:35:00Z</time>
      </trkpt>
      <trkpt lat="45.72497" lon="6.4483">
        <ele>926</ele>
        <time>2022-07-23T11:35:01Z</time>
      </trkpt>
      <trkpt lat="45.72497" lon="6.44831">
        <ele>926</ele>
        <time>2022-07-23T11:35:02Z</time>
      </trkpt>
      <trkpt lat="45.72498" lon="6.44831">
        <ele>926</ele>
        <time>2022-07-23T11:35:03Z</time>
      </trkpt>
      <trkpt lat="45.72498" lon="6.44832">
        <ele>926</ele>
        <time>2022-07-23T11:35:04Z</time>
      </trkpt>
      <trkpt lat="45.72499" lon="6.44832">
        <ele>927</ele>
        <time>2022-07-23T11:35:05Z</time>
      </trkpt>
      <trkpt lat="45.72499" lon="6.44832">
        <ele>927</ele>
        <time>2022-07-23T11:35:06Z</time>
      </trkpt>
      <trkpt lat="45.725" lon="6.44833">
        <ele>927</ele>
        <time>2022-07-23T11:35:07Z</time>
      </trkpt>
      <trkpt lat="45.725" lon="6.44833">
        <ele>927</ele>
        <time>2022-07-23T11:35:08Z</time>
      </trkpt>
      <trkpt lat="45.72501" lon="6.44833">
        <ele>927</ele>
        <time>2022-07-23T11:35:09Z</time>
      </trkpt>
      <trkpt lat="45.72502" lon="6.44833">
        <ele>928</ele>
        <time>2022-07-23T11:35:10Z</time>
      </trkpt>
      <trkpt lat="45.72502" lon="6.44833">
        <ele>928</ele>
        <time>2022-07-23T11:35:11Z</time>
      </trkpt>
      <trkpt lat="45.72503" lon="6.44833">
        <ele>928</ele>
        <time>2022-07-23T11:35:12Z</time>
      </trkpt>
      <trkpt lat="45.72504" lon="6.44833">
        <ele>928</ele>
        <time>2022-07-23T11:35:13Z</time>
      </trkpt>
      <trkpt lat="45.72504" lon="6.44833">
        <ele>928</ele>
        <time>2022-07-23T11:35:14Z</time>
      </trkpt>
      <trkpt lat="45.72505" lon="6.44833">
        <ele>928</ele>
        <time>2022-07-23T11:35:15Z</time>
      </trkpt>
      <trkpt lat="45.72506" lon="6.44832">
        <ele>928</ele>
        <time>2022-07-23T11:35:16Z</time>
      </trkpt>
      <trkpt lat="45.72507" lon="6.44832">
        <ele>928</ele>
        <time>2022-07-23T11:35:17Z</time>
      </trkpt>
      <trkpt lat="45.72507" lon="6.44832">
        <ele>928</ele>
        <time>2022-07-23T11:35:18Z</time>
      </trkpt>
      <trkpt lat="45.72508" lon="6.44832">
        <ele>928</ele>
        <time>2022-07-23T11:35:19Z</time>
      </trkpt>
      <trkpt lat="45.72509" lon="6.44831">
        <ele>929</ele>
        <time>2022-07-23T11:35:26Z</time>
      </trkpt>
      <trkpt lat="45.7251" lon="6.44831">
        <ele>929</ele>
        <time>2022-07-23T11:35:27Z</time>
      </trkpt>
      <trkpt lat="45.72511" lon="6.4483">
        <ele>929</ele>
        <time>2022-07-23T11:35:28Z</time>
      </trkpt>
      <trkpt lat="45.72511" lon="6.4483">
        <ele>929</ele>
        <time>2022-07-23T11:35:29Z</time>
      </trkpt>
      <trkpt lat="45.72512" lon="6.4483">
        <ele>930</ele>
        <time>2022-07-23T11:35:30Z</time>
      </trkpt>
      <trkpt lat="45.72513" lon="6.44829">
        <ele>930</ele>
        <time>2022-07-23T11:35:31Z</time>
      </trkpt>
      <trkpt lat="45.72513" lon="6.44829">
        <ele>930</ele>
        <time>2022-07-23T11:35:32Z</time>
      </trkpt>
      <trkpt lat="45.72514" lon="6.44829">
        <ele>930</ele>
        <time>2022-07-23T11:35:33Z</time>
      </trkpt>
      <trkpt lat="45.72515" lon="6.44828">
        <ele>930</ele>
        <time>2022-07-23T11:35:34Z</time>
      </trkpt>
      <trkpt lat="45.72516" lon="6.44828">
        <ele>930</ele>
        <time>2022-07-23T11:35:35Z</time>
      </trkpt>
      <trkpt lat="45.72516" lon="6.44828">
        <ele>930</ele>
        <time>2022-07-23T11:35:36Z</time>
      </trkpt>
      <trkpt lat="45.72518" lon="6.4483">
        <ele>933</ele>
        <time>2022-07-23T11:36:15Z</time>
      </trkpt>
      <trkpt lat="45.72519" lon="6.4483">
        <ele>933</ele>
        <time>2022-07-23T11:36:16Z</time>
      </trkpt>
      <trkpt lat="45.7252" lon="6.44831">
        <ele>933</ele>
        <time>2022-07-23T11:36:17Z</time>
      </trkpt>
      <trkpt lat="45.72521" lon="6.44832">
        <ele>933</ele>
        <time>2022-07-23T11:36:18Z</time>
      </trkpt>
      <trkpt lat="45.72522" lon="6.44833">
        <ele>933</ele>
        <time>2022-07-23T11:36:19Z</time>
      </trkpt>
      <trkpt lat="45.72522" lon="6.44833">
        <ele>933</ele>
        <time>2022-07-23T11:36:20Z</time>
      </trkpt>
      <trkpt lat="45.72523" lon="6.44834">
        <ele>933</ele>
        <time>2022-07-23T11:36:21Z</time>
      </trkpt>
      <trkpt lat="45.72524" lon="6.44835">
        <ele>933</ele>
        <time>2022-07-23T11:36:22Z</time>
      </trkpt>
      <trkpt lat="45.72524" lon="6.44835">
        <ele>933</ele>
        <time>2022-07-23T11:36:23Z</time>
      </trkpt>
      <trkpt lat="45.72526" lon="6.44835">
        <ele>937</ele>
        <time>2022-07-23T11:36:57Z</time>
      </trkpt>
      <trkpt lat="45.72526" lon="6.44835">
        <ele>937</ele>
        <time>2022-07-23T11:36:58Z</time>
      </trkpt>
      <trkpt lat="45.72527" lon="6.44834">
        <ele>937</ele>
        <time>2022-07-23T11:36:59Z</time>
      </trkpt>
      <trkpt lat="45.72528" lon="6.44834">
        <ele>937</ele>
        <time>2022-07-23T11:37:00Z</time>
      </trkpt>
      <trkpt lat="45.72528" lon="6.44834">
        <ele>937</ele>
        <time>2022-07-23T11:37:01Z</time>
      </trkpt>
      <trkpt lat="45.72529" lon="6.44833">
        <ele>937</ele>
        <time>2022-07-23T11:37:02Z</time>
      </trkpt>
      <trkpt lat="45.72533" lon="6.44834">
        <ele>939</ele>
        <time>2022-07-23T11:37:24Z</time>
      </trkpt>
      <trkpt lat="45.72535" lon="6.44835">
        <ele>939</ele>
        <time>2022-07-23T11:37:25Z</time>
      </trkpt>
      <trkpt lat="45.72537" lon="6.44836">
        <ele>939</ele>
        <time>2022-07-23T11:37:26Z</time>
      </trkpt>
      <trkpt lat="45.72539" lon="6.44836">
        <ele>939</ele>
        <time>2022-07-23T11:37:27Z</time>
      </trkpt>
      <trkpt lat="45.7254" lon="6.44837">
        <ele>939</ele>
        <time>2022-07-23T11:37:28Z</time>
      </trkpt>
      <trkpt lat="45.72541" lon="6.44837">
        <ele>939</ele>
        <time>2022-07-23T11:37:29Z</time>
      </trkpt>
      <trkpt lat="45.72541" lon="6.44837">
        <ele>940</ele>
        <time>2022-07-23T11:37:30Z</time>
      </trkpt>
      <trkpt lat="45.72542" lon="6.44837">
        <ele>940</ele>
        <time>2022-07-23T11:37:31Z</time>
      </trkpt>
      <trkpt lat="45.72546" lon="6.44838">
        <ele>943</ele>
        <time>2022-07-23T11:38:02Z</time>
      </trkpt>
      <trkpt lat="45.72548" lon="6.44839">
        <ele>943</ele>
        <time>2022-07-23T11:38:03Z</time>
      </trkpt>
      <trkpt lat="45.72549" lon="6.44839">
        <ele>943</ele>
        <time>2022-07-23T11:38:04Z</time>
      </trkpt>
      <trkpt lat="45.7255" lon="6.4484">
        <ele>944</ele>
        <time>2022-07-23T11:38:05Z</time>
      </trkpt>
      <trkpt lat="45.72551" lon="6.4484">
        <ele>944</ele>
        <time>2022-07-23T11:38:06Z</time>
      </trkpt>
      <trkpt lat="45.72559" lon="6.44845">
        <ele>949</ele>
        <time>2022-07-23T11:40:29Z</time>
      </trkpt>
      <trkpt lat="45.72563" lon="6.44847">
        <ele>949</ele>
        <time>2022-07-23T11:40:30Z</time>
      </trkpt>
      <trkpt lat="45.72566" lon="6.44849">
        <ele>949</ele>
        <time>2022-07-23T11:40:31Z</time>
      </trkpt>
      <trkpt lat="45.72574" lon="6.4485">
        <ele>954</ele>
        <time>2022-07-23T11:41:19Z</time>
      </trkpt>
      <trkpt lat="45.72577" lon="6.4485">
        <ele>955</ele>
        <time>2022-07-23T11:41:20Z</time>
      </trkpt>
      <trkpt lat="45.7258" lon="6.4485">
        <ele>955</ele>
        <time>2022-07-23T11:41:21Z</time>
      </trkpt>
      <trkpt lat="45.72582" lon="6.4485">
        <ele>955</ele>
        <time>2022-07-23T11:41:22Z</time>
      </trkpt>
      <trkpt lat="45.72583" lon="6.4485">
        <ele>955</ele>
        <time>2022-07-23T11:41:23Z</time>
      </trkpt>
      <trkpt lat="45.72585" lon="6.4485">
        <ele>955</ele>
        <time>2022-07-23T11:41:24Z</time>
      </trkpt>
      <trkpt lat="45.72586" lon="6.4485">
        <ele>956</ele>
        <time>2022-07-23T11:41:25Z</time>
      </trkpt>
      <trkpt lat="45.72586" lon="6.4485">
        <ele>956</ele>
        <time>2022-07-23T11:41:26Z</time>
      </trkpt>
      <trkpt lat="45.72587" lon="6.4485">
        <ele>956</ele>
        <time>2022-07-23T11:41:27Z</time>
      </trkpt>
      <trkpt lat="45.72587" lon="6.44851">
        <ele>956</ele>
        <time>2022-07-23T11:41:28Z</time>
      </trkpt>
      <trkpt lat="45.72588" lon="6.44851">
        <ele>956</ele>
        <time>2022-07-23T11:41:29Z</time>
      </trkpt>
      <trkpt lat="45.72589" lon="6.44851">
        <ele>957</ele>
        <time>2022-07-23T11:41:30Z</time>
      </trkpt>
      <trkpt lat="45.7259" lon="6.44851">
        <ele>957</ele>
        <time>2022-07-23T11:41:31Z</time>
      </trkpt>
      <trkpt lat="45.7259" lon="6.44851">
        <ele>957</ele>
        <time>2022-07-23T11:41:32Z</time>
      </trkpt>
      <trkpt lat="45.7259" lon="6.44852">
        <ele>957</ele>
        <time>2022-07-23T11:41:33Z</time>
      </trkpt>
      <trkpt lat="45.72593" lon="6.44853">
        <ele>959</ele>
        <time>2022-07-23T11:41:47Z</time>
      </trkpt>
      <trkpt lat="45.72595" lon="6.44854">
        <ele>959</ele>
        <time>2022-07-23T11:41:48Z</time>
      </trkpt>
      <trkpt lat="45.72597" lon="6.44854">
        <ele>959</ele>
        <time>2022-07-23T11:41:49Z</time>
      </trkpt>
      <trkpt lat="45.72597" lon="6.44854">
        <ele>960</ele>
        <time>2022-07-23T11:41:50Z</time>
      </trkpt>
      <trkpt lat="45.72598" lon="6.44855">
        <ele>960</ele>
        <time>2022-07-23T11:41:51Z</time>
      </trkpt>
      <trkpt lat="45.72599" lon="6.44855">
        <ele>960</ele>
        <time>2022-07-23T11:41:52Z</time>
      </trkpt>
      <trkpt lat="45.726" lon="6.44855">
        <ele>960</ele>
        <time>2022-07-23T11:41:53Z</time>
      </trkpt>
      <trkpt lat="45.72601" lon="6.44854">
        <ele>960</ele>
        <time>2022-07-23T11:41:54Z</time>
      </trkpt>
      <trkpt lat="45.72601" lon="6.44854">
        <ele>961</ele>
        <time>2022-07-23T11:41:55Z</time>
      </trkpt>
      <trkpt lat="45.72602" lon="6.44853">
        <ele>963</ele>
        <time>2022-07-23T11:42:11Z</time>
      </trkpt>
      <trkpt lat="45.72603" lon="6.44852">
        <ele>963</ele>
        <time>2022-07-23T11:42:12Z</time>
      </trkpt>
      <trkpt lat="45.72604" lon="6.44851">
        <ele>963</ele>
        <time>2022-07-23T11:42:13Z</time>
      </trkpt>
      <trkpt lat="45.72604" lon="6.44851">
        <ele>963</ele>
        <time>2022-07-23T11:42:14Z</time>
      </trkpt>
      <trkpt lat="45.72605" lon="6.4485">
        <ele>963</ele>
        <time>2022-07-23T11:42:15Z</time>
      </trkpt>
      <trkpt lat="45.72608" lon="6.44847">
        <ele>966</ele>
        <time>2022-07-23T11:42:35Z</time>
      </trkpt>
      <trkpt lat="45.7261" lon="6.44845">
        <ele>966</ele>
        <time>2022-07-23T11:42:36Z</time>
      </trkpt>
      <trkpt lat="45.72611" lon="6.44843">
        <ele>966</ele>
        <time>2022-07-23T11:42:37Z</time>
      </trkpt>
      <trkpt lat="45.72613" lon="6.44842">
        <ele>966</ele>
        <time>2022-07-23T11:42:38Z</time>
      </trkpt>
      <trkpt lat="45.72614" lon="6.44841">
        <ele>966</ele>
        <time>2022-07-23T11:42:39Z</time>
      </trkpt>
      <trkpt lat="45.72619" lon="6.44838">
        <ele>974</ele>
        <time>2022-07-23T11:43:18Z</time>
      </trkpt>
      <trkpt lat="45.72622" lon="6.44836">
        <ele>974</ele>
        <time>2022-07-23T11:43:19Z</time>
      </trkpt>
      <trkpt lat="45.72624" lon="6.44834">
        <ele>975</ele>
        <time>2022-07-23T11:43:20Z</time>
      </trkpt>
      <trkpt lat="45.72626" lon="6.44833">
        <ele>975</ele>
        <time>2022-07-23T11:43:21Z</time>
      </trkpt>
      <trkpt lat="45.72628" lon="6.44832">
        <ele>975</ele>
        <time>2022-07-23T11:43:22Z</time>
      </trkpt>
      <trkpt lat="45.72629" lon="6.44831">
        <ele>975</ele>
        <time>2022-07-23T11:43:23Z</time>
      </trkpt>
      <trkpt lat="45.7263" lon="6.44831">
        <ele>975</ele>
        <time>2022-07-23T11:43:24Z</time>
      </trkpt>
      <trkpt lat="45.72631" lon="6.44831">
        <ele>976</ele>
        <time>2022-07-23T11:43:25Z</time>
      </trkpt>
      <trkpt lat="45.72632" lon="6.44831">
        <ele>976</ele>
        <time>2022-07-23T11:43:26Z</time>
      </trkpt>
      <trkpt lat="45.72634" lon="6.4483">
        <ele>977</ele>
        <time>2022-07-23T11:43:36Z</time>
      </trkpt>
      <trkpt lat="45.72635" lon="6.4483">
        <ele>977</ele>
        <time>2022-07-23T11:43:37Z</time>
      </trkpt>
      <trkpt lat="45.72636" lon="6.44829">
        <ele>977</ele>
        <time>2022-07-23T11:43:38Z</time>
      </trkpt>
      <trkpt lat="45.72637" lon="6.44829">
        <ele>977</ele>
        <time>2022-07-23T11:43:39Z</time>
      </trkpt>
      <trkpt lat="45.72638" lon="6.44828">
        <ele>978</ele>
        <time>2022-07-23T11:43:40Z</time>
      </trkpt>
      <trkpt lat="45.72639" lon="6.44828">
        <ele>978</ele>
        <time>2022-07-23T11:43:41Z</time>
      </trkpt>
      <trkpt lat="45.72639" lon="6.44828">
        <ele>978</ele>
        <time>2022-07-23T11:43:42Z</time>
      </trkpt>
      <trkpt lat="45.7264" lon="6.44828">
        <ele>978</ele>
        <time>2022-07-23T11:43:43Z</time>
      </trkpt>
      <trkpt lat="45.7264" lon="6.44828">
        <ele>978</ele>
        <time>2022-07-23T11:43:44Z</time>
      </trkpt>
      <trkpt lat="45.7264" lon="6.44828">
        <ele>979</ele>
        <time>2022-07-23T11:43:45Z</time>
      </trkpt>
      <trkpt lat="45.72641" lon="6.44829">
        <ele>979</ele>
        <time>2022-07-23T11:43:46Z</time>
      </trkpt>
      <trkpt lat="45.72641" lon="6.44829">
        <ele>979</ele>
        <time>2022-07-23T11:43:47Z</time>
      </trkpt>
      <trkpt lat="45.72641" lon="6.44829">
        <ele>979</ele>
        <time>2022-07-23T11:43:48Z</time>
      </trkpt>
      <trkpt lat="45.72642" lon="6.4483">
        <ele>979</ele>
        <time>2022-07-23T11:43:49Z</time>
      </trkpt>
      <trkpt lat="45.72642" lon="6.44831">
        <ele>980</ele>
        <time>2022-07-23T11:43:50Z</time>
      </trkpt>
      <trkpt lat="45.72643" lon="6.44831">
        <ele>980</ele>
        <time>2022-07-23T11:43:51Z</time>
      </trkpt>
      <trkpt lat="45.72643" lon="6.44832">
        <ele>980</ele>
        <time>2022-07-23T11:43:52Z</time>
      </trkpt>
      <trkpt lat="45.72643" lon="6.44833">
        <ele>980</ele>
        <time>2022-07-23T11:43:53Z</time>
      </trkpt>
      <trkpt lat="45.72643" lon="6.44834">
        <ele>980</ele>
        <time>2022-07-23T11:43:54Z</time>
      </trkpt>
      <trkpt lat="45.72643" lon="6.44835">
        <ele>981</ele>
        <time>2022-07-23T11:43:55Z</time>
      </trkpt>
      <trkpt lat="45.72643" lon="6.44836">
        <ele>981</ele>
        <time>2022-07-23T11:43:56Z</time>
      </trkpt>
      <trkpt lat="45.72643" lon="6.44837">
        <ele>981</ele>
        <time>2022-07-23T11:43:57Z</time>
      </trkpt>
      <trkpt lat="45.72643" lon="6.44838">
        <ele>981</ele>
        <time>2022-07-23T11:43:58Z</time>
      </trkpt>
      <trkpt lat="45.72643" lon="6.44839">
        <ele>981</ele>
        <time>2022-07-23T11:43:59Z</time>
      </trkpt>
      <trkpt lat="45.72644" lon="6.44841">
        <ele>983</ele>
        <time>2022-07-23T11:44:14Z</time>
      </trkpt>
      <trkpt lat="45.72645" lon="6.44842">
        <ele>984</ele>
        <time>2022-07-23T11:44:15Z</time>
      </trkpt>
      <trkpt lat="45.72645" lon="6.44842">
        <ele>984</ele>
        <time>2022-07-23T11:44:16Z</time>
      </trkpt>
      <trkpt lat="45.72646" lon="6.44842">
        <ele>984</ele>
        <time>2022-07-23T11:44:17Z</time>
      </trkpt>
      <trkpt lat="45.72646" lon="6.44842">
        <ele>984</ele>
        <time>2022-07-23T11:44:18Z</time>
      </trkpt>
      <trkpt lat="45.72647" lon="6.44842">
        <ele>984</ele>
        <time>2022-07-23T11:44:19Z</time>
      </trkpt>
      <trkpt lat="45.72647" lon="6.44842">
        <ele>985</ele>
        <time>2022-07-23T11:44:20Z</time>
      </trkpt>
      <trkpt lat="45.72648" lon="6.44842">
        <ele>985</ele>
        <time>2022-07-23T11:44:21Z</time>
      </trkpt>
      <trkpt lat="45.72648" lon="6.44841">
        <ele>985</ele>
        <time>2022-07-23T11:44:22Z</time>
      </trkpt>
      <trkpt lat="45.72649" lon="6.44841">
        <ele>985</ele>
        <time>2022-07-23T11:44:23Z</time>
      </trkpt>
      <trkpt lat="45.7265" lon="6.44841">
        <ele>985</ele>
        <time>2022-07-23T11:44:24Z</time>
      </trkpt>
      <trkpt lat="45.7265" lon="6.4484">
        <ele>986</ele>
        <time>2022-07-23T11:44:25Z</time>
      </trkpt>
      <trkpt lat="45.7265" lon="6.4484">
        <ele>986</ele>
        <time>2022-07-23T11:44:26Z</time>
      </trkpt>
      <trkpt lat="45.72651" lon="6.4484">
        <ele>986</ele>
        <time>2022-07-23T11:44:27Z</time>
      </trkpt>
      <trkpt lat="45.72651" lon="6.44839">
        <ele>986</ele>
        <time>2022-07-23T11:44:28Z</time>
      </trkpt>
      <trkpt lat="45.72652" lon="6.44839">
        <ele>986</ele>
        <time>2022-07-23T11:44:29Z</time>
      </trkpt>
      <trkpt lat="45.72652" lon="6.44838">
        <ele>986</ele>
        <time>2022-07-23T11:44:30Z</time>
      </trkpt>
      <trkpt lat="45.72653" lon="6.44838">
        <ele>986</ele>
        <time>2022-07-23T11:44:31Z</time>
      </trkpt>
      <trkpt lat="45.72653" lon="6.44838">
        <ele>986</ele>
        <time>2022-07-23T11:44:32Z</time>
      </trkpt>
      <trkpt lat="45.72653" lon="6.44837">
        <ele>986</ele>
        <time>2022-07-23T11:44:33Z</time>
      </trkpt>
      <trkpt lat="45.72653" lon="6.44837">
        <ele>986</ele>
        <time>2022-07-23T11:44:34Z</time>
      </trkpt>
      <trkpt lat="45.72654" lon="6.44837">
        <ele>987</ele>
        <time>2022-07-23T11:44:35Z</time>
      </trkpt>
      <trkpt lat="45.72654" lon="6.44836">
        <ele>987</ele>
        <time>2022-07-23T11:44:36Z</time>
      </trkpt>
      <trkpt lat="45.72655" lon="6.44836">
        <ele>987</ele>
        <time>2022-07-23T11:44:37Z</time>
      </trkpt>
      <trkpt lat="45.72655" lon="6.44836">
        <ele>988</ele>
        <time>2022-07-23T11:44:38Z</time>
      </trkpt>
      <trkpt lat="45.72655" lon="6.44836">
        <ele>988</ele>
        <time>2022-07-23T11:44:39Z</time>
      </trkpt>
      <trkpt lat="45.72656" lon="6.44836">
        <ele>989</ele>
        <time>2022-07-23T11:44:40Z</time>
      </trkpt>
      <trkpt lat="45.72656" lon="6.44836">
        <ele>989</ele>
        <time>2022-07-23T11:44:41Z</time>
      </trkpt>
      <trkpt lat="45.72657" lon="6.44836">
        <ele>989</ele>
        <time>2022-07-23T11:44:42Z</time>
      </trkpt>
      <trkpt lat="45.72657" lon="6.44836">
        <ele>989</ele>
        <time>2022-07-23T11:44:43Z</time>
      </trkpt>
      <trkpt lat="45.72658" lon="6.44836">
        <ele>989</ele>
        <time>2022-07-23T11:44:44Z</time>
      </trkpt>
      <trkpt lat="45.72658" lon="6.44836">
        <ele>990</ele>
        <time>2022-07-23T11:44:45Z</time>
      </trkpt>
      <trkpt lat="45.72659" lon="6.44835">
        <ele>990</ele>
        <time>2022-07-23T11:44:46Z</time>
      </trkpt>
      <trkpt lat="45.72659" lon="6.44835">
        <ele>990</ele>
        <time>2022-07-23T11:44:47Z</time>
      </trkpt>
      <trkpt lat="45.7266" lon="6.44835">
        <ele>990</ele>
        <time>2022-07-23T11:44:48Z</time>
      </trkpt>
      <trkpt lat="45.7266" lon="6.44834">
        <ele>990</ele>
        <time>2022-07-23T11:44:49Z</time>
      </trkpt>
      <trkpt lat="45.72661" lon="6.44834">
        <ele>990</ele>
        <time>2022-07-23T11:44:50Z</time>
      </trkpt>
      <trkpt lat="45.72661" lon="6.44833">
        <ele>990</ele>
        <time>2022-07-23T11:44:51Z</time>
      </trkpt>
      <trkpt lat="45.72662" lon="6.44833">
        <ele>990</ele>
        <time>2022-07-23T11:44:52Z</time>
      </trkpt>
      <trkpt lat="45.72663" lon="6.44832">
        <ele>992</ele>
        <time>2022-07-23T11:45:11Z</time>
      </trkpt>
      <trkpt lat="45.72663" lon="6.44832">
        <ele>992</ele>
        <time>2022-07-23T11:45:12Z</time>
      </trkpt>
      <trkpt lat="45.72664" lon="6.44831">
        <ele>992</ele>
        <time>2022-07-23T11:45:13Z</time>
      </trkpt>
      <trkpt lat="45.72665" lon="6.44831">
        <ele>992</ele>
        <time>2022-07-23T11:45:14Z</time>
      </trkpt>
      <trkpt lat="45.72665" lon="6.44831">
        <ele>992</ele>
        <time>2022-07-23T11:45:15Z</time>
      </trkpt>
      <trkpt lat="45.72666" lon="6.4483">
        <ele>992</ele>
        <time>2022-07-23T11:45:16Z</time>
      </trkpt>
      <trkpt lat="45.72666" lon="6.4483">
        <ele>992</ele>
        <time>2022-07-23T11:45:17Z</time>
      </trkpt>
      <trkpt lat="45.72667" lon="6.4483">
        <ele>992</ele>
        <time>2022-07-23T11:45:18Z</time>
      </trkpt>
      <trkpt lat="45.72671" lon="6.44828">
        <ele>995</ele>
        <time>2022-07-23T11:45:42Z</time>
      </trkpt>
      <trkpt lat="45.72673" lon="6.44827">
        <ele>995</ele>
        <time>2022-07-23T11:45:43Z</time>
      </trkpt>
      <trkpt lat="45.72675" lon="6.44827">
        <ele>995</ele>
        <time>2022-07-23T11:45:44Z</time>
      </trkpt>
      <trkpt lat="45.72676" lon="6.44826">
        <ele>995</ele>
        <time>2022-07-23T11:45:45Z</time>
      </trkpt>
      <trkpt lat="45.72678" lon="6.44826">
        <ele>995</ele>
        <time>2022-07-23T11:45:46Z</time>
      </trkpt>
      <trkpt lat="45.72678" lon="6.44828">
        <ele>997</ele>
        <time>2022-07-23T11:47:52Z</time>
      </trkpt>
      <trkpt lat="45.72678" lon="6.4483">
        <ele>997</ele>
        <time>2022-07-23T11:47:53Z</time>
      </trkpt>
      <trkpt lat="45.72679" lon="6.44831">
        <ele>997</ele>
        <time>2022-07-23T11:47:54Z</time>
      </trkpt>
      <trkpt lat="45.72679" lon="6.44831">
        <ele>997</ele>
        <time>2022-07-23T11:47:55Z</time>
      </trkpt>
      <trkpt lat="45.72679" lon="6.44831">
        <ele>997</ele>
        <time>2022-07-23T11:47:56Z</time>
      </trkpt>
      <trkpt lat="45.7268" lon="6.44831">
        <ele>997</ele>
        <time>2022-07-23T11:47:57Z</time>
      </trkpt>
      <trkpt lat="45.72683" lon="6.4483">
        <ele>997</ele>
        <time>2022-07-23T11:48:44Z</time>
      </trkpt>
      <trkpt lat="45.72684" lon="6.44829">
        <ele>997</ele>
        <time>2022-07-23T11:48:45Z</time>
      </trkpt>
      <trkpt lat="45.72686" lon="6.44828">
        <ele>997</ele>
        <time>2022-07-23T11:48:46Z</time>
      </trkpt>
      <trkpt lat="45.72686" lon="6.44827">
        <ele>997</ele>
        <time>2022-07-23T11:48:47Z</time>
      </trkpt>
      <trkpt lat="45.72687" lon="6.44826">
        <ele>997</ele>
        <time>2022-07-23T11:48:48Z</time>
      </trkpt>
      <trkpt lat="45.72688" lon="6.44825">
        <ele>997</ele>
        <time>2022-07-23T11:48:49Z</time>
      </trkpt>
      <trkpt lat="45.72688" lon="6.44824">
        <ele>998</ele>
        <time>2022-07-23T11:48:50Z</time>
      </trkpt>
      <trkpt lat="45.72689" lon="6.44823">
        <ele>998</ele>
        <time>2022-07-23T11:48:51Z</time>
      </trkpt>
      <trkpt lat="45.7269" lon="6.44822">
        <ele>998</ele>
        <time>2022-07-23T11:48:52Z</time>
      </trkpt>
      <trkpt lat="45.72691" lon="6.44822">
        <ele>998</ele>
        <time>2022-07-23T11:48:53Z</time>
      </trkpt>
      <trkpt lat="45.72691" lon="6.44821">
        <ele>998</ele>
        <time>2022-07-23T11:48:54Z</time>
      </trkpt>
      <trkpt lat="45.72692" lon="6.4482">
        <ele>998</ele>
        <time>2022-07-23T11:48:55Z</time>
      </trkpt>
      <trkpt lat="45.72693" lon="6.4482">
        <ele>998</ele>
        <time>2022-07-23T11:48:56Z</time>
      </trkpt>
      <trkpt lat="45.72694" lon="6.4482">
        <ele>998</ele>
        <time>2022-07-23T11:48:57Z</time>
      </trkpt>
      <trkpt lat="45.72695" lon="6.44819">
        <ele>998</ele>
        <time>2022-07-23T11:48:58Z</time>
      </trkpt>
      <trkpt lat="45.72695" lon="6.44819">
        <ele>998</ele>
        <time>2022-07-23T11:48:59Z</time>
      </trkpt>
      <trkpt lat="45.72696" lon="6.44819">
        <ele>999</ele>
        <time>2022-07-23T11:49:00Z</time>
      </trkpt>
      <trkpt lat="45.72697" lon="6.44819">
        <ele>999</ele>
        <time>2022-07-23T11:49:01Z</time>
      </trkpt>
      <trkpt lat="45.72698" lon="6.44819">
        <ele>999</ele>
        <time>2022-07-23T11:49:02Z</time>
      </trkpt>
      <trkpt lat="45.72698" lon="6.44819">
        <ele>999</ele>
        <time>2022-07-23T11:49:03Z</time>
      </trkpt>
      <trkpt lat="45.72699" lon="6.44819">
        <ele>999</ele>
        <time>2022-07-23T11:49:04Z</time>
      </trkpt>
      <trkpt lat="45.727" lon="6.44818">
        <ele>1000</ele>
        <time>2022-07-23T11:49:05Z</time>
      </trkpt>
      <trkpt lat="45.72701" lon="6.44818">
        <ele>1000</ele>
        <time>2022-07-23T11:49:06Z</time>
      </trkpt>
      <trkpt lat="45.72701" lon="6.44818">
        <ele>1000</ele>
        <time>2022-07-23T11:49:07Z</time>
      </trkpt>
      <trkpt lat="45.72702" lon="6.44818">
        <ele>1000</ele>
        <time>2022-07-23T11:49:08Z</time>
      </trkpt>
      <trkpt lat="45.72703" lon="6.44818">
        <ele>1000</ele>
        <time>2022-07-23T11:49:09Z</time>
      </trkpt>
      <trkpt lat="45.72703" lon="6.44818">
        <ele>1001</ele>
        <time>2022-07-23T11:49:10Z</time>
      </trkpt>
      <trkpt lat="45.72704" lon="6.44818">
        <ele>1001</ele>
        <time>2022-07-23T11:49:11Z</time>
      </trkpt>
      <trkpt lat="45.72705" lon="6.44818">
        <ele>1001</ele>
        <time>2022-07-23T11:49:12Z</time>
      </trkpt>
      <trkpt lat="45.72706" lon="6.44818">
        <ele>1001</ele>
        <time>2022-07-23T11:49:13Z</time>
      </trkpt>
      <trkpt lat="45.72707" lon="6.44818">
        <ele>1001</ele>
        <time>2022-07-23T11:49:14Z</time>
      </trkpt>
      <trkpt lat="45.72708" lon="6.44818">
        <ele>1002</ele>
        <time>2022-07-23T11:49:15Z</time>
      </trkpt>
      <trkpt lat="45.72709" lon="6.44818">
        <ele>1002</ele>
        <time>2022-07-23T11:49:16Z</time>
      </trkpt>
      <trkpt lat="45.72709" lon="6.44818">
        <ele>1002</ele>
        <time>2022-07-23T11:49:17Z</time>
      </trkpt>
      <trkpt lat="45.7271" lon="6.44818">
        <ele>1002</ele>
        <time>2022-07-23T11:49:18Z</time>
      </trkpt>
      <trkpt lat="45.72711" lon="6.44818">
        <ele>1002</ele>
        <time>2022-07-23T11:49:19Z</time>
      </trkpt>
      <trkpt lat="45.72711" lon="6.44818">
        <ele>1002</ele>
        <time>2022-07-23T11:49:20Z</time>
      </trkpt>
      <trkpt lat="45.72712" lon="6.44818">
        <ele>1002</ele>
        <time>2022-07-23T11:49:21Z</time>
      </trkpt>
      <trkpt lat="45.72712" lon="6.44818">
        <ele>1002</ele>
        <time>2022-07-23T11:49:22Z</time>
      </trkpt>
      <trkpt lat="45.72713" lon="6.44818">
        <ele>1002</ele>
        <time>2022-07-23T11:49:23Z</time>
      </trkpt>
      <trkpt lat="45.72713" lon="6.44818">
        <ele>1002</ele>
        <time>2022-07-23T11:49:24Z</time>
      </trkpt>
      <trkpt lat="45.72714" lon="6.44818">
        <ele>1003</ele>
        <time>2022-07-23T11:49:25Z</time>
      </trkpt>
      <trkpt lat="45.72714" lon="6.44818">
        <ele>1003</ele>
        <time>2022-07-23T11:49:26Z</time>
      </trkpt>
      <trkpt lat="45.72715" lon="6.44818">
        <ele>1003</ele>
        <time>2022-07-23T11:49:27Z</time>
      </trkpt>
      <trkpt lat="45.72715" lon="6.44818">
        <ele>1003</ele>
        <time>2022-07-23T11:49:28Z</time>
      </trkpt>
      <trkpt lat="45.72716" lon="6.44817">
        <ele>1003</ele>
        <time>2022-07-23T11:49:29Z</time>
      </trkpt>
      <trkpt lat="45.72717" lon="6.44817">
        <ele>1004</ele>
        <time>2022-07-23T11:49:30Z</time>
      </trkpt>
      <trkpt lat="45.72717" lon="6.44817">
        <ele>1004</ele>
        <time>2022-07-23T11:49:31Z</time>
      </trkpt>
      <trkpt lat="45.72718" lon="6.44817">
        <ele>1004</ele>
        <time>2022-07-23T11:49:32Z</time>
      </trkpt>
      <trkpt lat="45.72719" lon="6.44817">
        <ele>1004</ele>
        <time>2022-07-23T11:49:33Z</time>
      </trkpt>
      <trkpt lat="45.72719" lon="6.44817">
        <ele>1004</ele>
        <time>2022-07-23T11:49:34Z</time>
      </trkpt>
      <trkpt lat="45.7272" lon="6.44816">
        <ele>1004</ele>
        <time>2022-07-23T11:49:35Z</time>
      </trkpt>
      <trkpt lat="45.72721" lon="6.44816">
        <ele>1004</ele>
        <time>2022-07-23T11:49:36Z</time>
      </trkpt>
      <trkpt lat="45.72721" lon="6.44817">
        <ele>1004</ele>
        <time>2022-07-23T11:49:37Z</time>
      </trkpt>
      <trkpt lat="45.72722" lon="6.44817">
        <ele>1004</ele>
        <time>2022-07-23T11:49:38Z</time>
      </trkpt>
      <trkpt lat="45.72722" lon="6.44817">
        <ele>1004</ele>
        <time>2022-07-23T11:49:39Z</time>
      </trkpt>
      <trkpt lat="45.72723" lon="6.44817">
        <ele>1005</ele>
        <time>2022-07-23T11:49:40Z</time>
      </trkpt>
      <trkpt lat="45.72724" lon="6.44818">
        <ele>1005</ele>
        <time>2022-07-23T11:49:41Z</time>
      </trkpt>
      <trkpt lat="45.72724" lon="6.44818">
        <ele>1005</ele>
        <time>2022-07-23T11:49:42Z</time>
      </trkpt>
      <trkpt lat="45.72725" lon="6.44819">
        <ele>1005</ele>
        <time>2022-07-23T11:49:43Z</time>
      </trkpt>
      <trkpt lat="45.72725" lon="6.44819">
        <ele>1005</ele>
        <time>2022-07-23T11:49:44Z</time>
      </trkpt>
      <trkpt lat="45.72726" lon="6.44819">
        <ele>1005</ele>
        <time>2022-07-23T11:49:45Z</time>
      </trkpt>
      <trkpt lat="45.72726" lon="6.4482">
        <ele>1005</ele>
        <time>2022-07-23T11:49:46Z</time>
      </trkpt>
      <trkpt lat="45.72728" lon="6.4482">
        <ele>1008</ele>
        <time>2022-07-23T11:50:09Z</time>
      </trkpt>
      <trkpt lat="45.72729" lon="6.44821">
        <ele>1008</ele>
        <time>2022-07-23T11:50:10Z</time>
      </trkpt>
      <trkpt lat="45.7273" lon="6.44821">
        <ele>1008</ele>
        <time>2022-07-23T11:50:11Z</time>
      </trkpt>
      <trkpt lat="45.72731" lon="6.44822">
        <ele>1008</ele>
        <time>2022-07-23T11:50:12Z</time>
      </trkpt>
      <trkpt lat="45.72732" lon="6.44822">
        <ele>1008</ele>
        <time>2022-07-23T11:50:13Z</time>
      </trkpt>
      <trkpt lat="45.72732" lon="6.44822">
        <ele>1008</ele>
        <time>2022-07-23T11:50:14Z</time>
      </trkpt>
      <trkpt lat="45.72733" lon="6.44822">
        <ele>1008</ele>
        <time>2022-07-23T11:50:15Z</time>
      </trkpt>
      <trkpt lat="45.72734" lon="6.44822">
        <ele>1008</ele>
        <time>2022-07-23T11:50:16Z</time>
      </trkpt>
      <trkpt lat="45.72734" lon="6.44822">
        <ele>1008</ele>
        <time>2022-07-23T11:50:17Z</time>
      </trkpt>
      <trkpt lat="45.72734" lon="6.44822">
        <ele>1008</ele>
        <time>2022-07-23T11:50:18Z</time>
      </trkpt>
      <trkpt lat="45.72735" lon="6.44822">
        <ele>1008</ele>
        <time>2022-07-23T11:50:19Z</time>
      </trkpt>
      <trkpt lat="45.72735" lon="6.44822">
        <ele>1008</ele>
        <time>2022-07-23T11:50:20Z</time>
      </trkpt>
      <trkpt lat="45.72736" lon="6.44823">
        <ele>1008</ele>
        <time>2022-07-23T11:50:21Z</time>
      </trkpt>
      <trkpt lat="45.72736" lon="6.44823">
        <ele>1008</ele>
        <time>2022-07-23T11:50:22Z</time>
      </trkpt>
      <trkpt lat="45.72737" lon="6.44823">
        <ele>1008</ele>
        <time>2022-07-23T11:50:23Z</time>
      </trkpt>
      <trkpt lat="45.72738" lon="6.44823">
        <ele>1008</ele>
        <time>2022-07-23T11:50:24Z</time>
      </trkpt>
      <trkpt lat="45.72739" lon="6.44822">
        <ele>1008</ele>
        <time>2022-07-23T11:50:25Z</time>
      </trkpt>
      <trkpt lat="45.72739" lon="6.44822">
        <ele>1008</ele>
        <time>2022-07-23T11:50:26Z</time>
      </trkpt>
      <trkpt lat="45.7274" lon="6.44822">
        <ele>1008</ele>
        <time>2022-07-23T11:50:27Z</time>
      </trkpt>
      <trkpt lat="45.72741" lon="6.44822">
        <ele>1008</ele>
        <time>2022-07-23T11:50:28Z</time>
      </trkpt>
      <trkpt lat="45.72741" lon="6.44821">
        <ele>1008</ele>
        <time>2022-07-23T11:50:29Z</time>
      </trkpt>
      <trkpt lat="45.72742" lon="6.44821">
        <ele>1008</ele>
        <time>2022-07-23T11:50:30Z</time>
      </trkpt>
      <trkpt lat="45.72742" lon="6.44821">
        <ele>1008</ele>
        <time>2022-07-23T11:50:31Z</time>
      </trkpt>
      <trkpt lat="45.72743" lon="6.44821">
        <ele>1008</ele>
        <time>2022-07-23T11:50:32Z</time>
      </trkpt>
      <trkpt lat="45.72743" lon="6.44821">
        <ele>1008</ele>
        <time>2022-07-23T11:50:33Z</time>
      </trkpt>
      <trkpt lat="45.72743" lon="6.44821">
        <ele>1008</ele>
        <time>2022-07-23T11:50:34Z</time>
      </trkpt>
      <trkpt lat="45.72743" lon="6.4482">
        <ele>1008</ele>
        <time>2022-07-23T11:50:35Z</time>
      </trkpt>
      <trkpt lat="45.72744" lon="6.4482">
        <ele>1008</ele>
        <time>2022-07-23T11:50:36Z</time>
      </trkpt>
      <trkpt lat="45.72745" lon="6.4482">
        <ele>1008</ele>
        <time>2022-07-23T11:50:37Z</time>
      </trkpt>
      <trkpt lat="45.72746" lon="6.44819">
        <ele>1008</ele>
        <time>2022-07-23T11:50:38Z</time>
      </trkpt>
      <trkpt lat="45.72746" lon="6.44819">
        <ele>1008</ele>
        <time>2022-07-23T11:50:39Z</time>
      </trkpt>
      <trkpt lat="45.72747" lon="6.44819">
        <ele>1008</ele>
        <time>2022-07-23T11:50:40Z</time>
      </trkpt>
      <trkpt lat="45.72748" lon="6.44818">
        <ele>1008</ele>
        <time>2022-07-23T11:50:41Z</time>
      </trkpt>
      <trkpt lat="45.72748" lon="6.44818">
        <ele>1008</ele>
        <time>2022-07-23T11:50:42Z</time>
      </trkpt>
      <trkpt lat="45.72749" lon="6.44817">
        <ele>1008</ele>
        <time>2022-07-23T11:50:43Z</time>
      </trkpt>
      <trkpt lat="45.7275" lon="6.44817">
        <ele>1008</ele>
        <time>2022-07-23T11:50:44Z</time>
      </trkpt>
      <trkpt lat="45.72751" lon="6.44816">
        <ele>1009</ele>
        <time>2022-07-23T11:50:45Z</time>
      </trkpt>
      <trkpt lat="45.72752" lon="6.44815">
        <ele>1009</ele>
        <time>2022-07-23T11:50:46Z</time>
      </trkpt>
      <trkpt lat="45.72753" lon="6.44815">
        <ele>1009</ele>
        <time>2022-07-23T11:50:47Z</time>
      </trkpt>
      <trkpt lat="45.72753" lon="6.44814">
        <ele>1009</ele>
        <time>2022-07-23T11:50:48Z</time>
      </trkpt>
      <trkpt lat="45.72754" lon="6.44814">
        <ele>1009</ele>
        <time>2022-07-23T11:50:49Z</time>
      </trkpt>
      <trkpt lat="45.72755" lon="6.44813">
        <ele>1009</ele>
        <time>2022-07-23T11:50:50Z</time>
      </trkpt>
      <trkpt lat="45.72756" lon="6.44813">
        <ele>1009</ele>
        <time>2022-07-23T11:50:51Z</time>
      </trkpt>
      <trkpt lat="45.72757" lon="6.44812">
        <ele>1010</ele>
        <time>2022-07-23T11:50:57Z</time>
      </trkpt>
      <trkpt lat="45.72758" lon="6.44812">
        <ele>1010</ele>
        <time>2022-07-23T11:50:58Z</time>
      </trkpt>
      <trkpt lat="45.72758" lon="6.44812">
        <ele>1010</ele>
        <time>2022-07-23T11:50:59Z</time>
      </trkpt>
      <trkpt lat="45.72759" lon="6.44812">
        <ele>1010</ele>
        <time>2022-07-23T11:51:00Z</time>
      </trkpt>
      <trkpt lat="45.72759" lon="6.44812">
        <ele>1010</ele>
        <time>2022-07-23T11:51:01Z</time>
      </trkpt>
      <trkpt lat="45.7276" lon="6.44812">
        <ele>1010</ele>
        <time>2022-07-23T11:51:02Z</time>
      </trkpt>
      <trkpt lat="45.7276" lon="6.44811">
        <ele>1010</ele>
        <time>2022-07-23T11:51:03Z</time>
      </trkpt>
      <trkpt lat="45.72761" lon="6.44811">
        <ele>1010</ele>
        <time>2022-07-23T11:51:04Z</time>
      </trkpt>
      <trkpt lat="45.72761" lon="6.44811">
        <ele>1011</ele>
        <time>2022-07-23T11:51:05Z</time>
      </trkpt>
      <trkpt lat="45.72762" lon="6.44811">
        <ele>1011</ele>
        <time>2022-07-23T11:51:06Z</time>
      </trkpt>
      <trkpt lat="45.72763" lon="6.4481">
        <ele>1011</ele>
        <time>2022-07-23T11:51:07Z</time>
      </trkpt>
      <trkpt lat="45.72764" lon="6.44809">
        <ele>1011</ele>
        <time>2022-07-23T11:51:08Z</time>
      </trkpt>
      <trkpt lat="45.72764" lon="6.44809">
        <ele>1011</ele>
        <time>2022-07-23T11:51:09Z</time>
      </trkpt>
      <trkpt lat="45.72765" lon="6.44808">
        <ele>1011</ele>
        <time>2022-07-23T11:51:10Z</time>
      </trkpt>
      <trkpt lat="45.72766" lon="6.44807">
        <ele>1011</ele>
        <time>2022-07-23T11:51:11Z</time>
      </trkpt>
      <trkpt lat="45.72767" lon="6.44807">
        <ele>1011</ele>
        <time>2022-07-23T11:51:12Z</time>
      </trkpt>
      <trkpt lat="45.72768" lon="6.44807">
        <ele>1011</ele>
        <time>2022-07-23T11:51:13Z</time>
      </trkpt>
      <trkpt lat="45.72768" lon="6.44807">
        <ele>1011</ele>
        <time>2022-07-23T11:51:14Z</time>
      </trkpt>
      <trkpt lat="45.72769" lon="6.44807">
        <ele>1012</ele>
        <time>2022-07-23T11:51:15Z</time>
      </trkpt>
      <trkpt lat="45.7277" lon="6.44807">
        <ele>1012</ele>
        <time>2022-07-23T11:51:16Z</time>
      </trkpt>
      <trkpt lat="45.72771" lon="6.44807">
        <ele>1012</ele>
        <time>2022-07-23T11:51:17Z</time>
      </trkpt>
      <trkpt lat="45.72772" lon="6.44807">
        <ele>1012</ele>
        <time>2022-07-23T11:51:18Z</time>
      </trkpt>
      <trkpt lat="45.72773" lon="6.44808">
        <ele>1012</ele>
        <time>2022-07-23T11:51:19Z</time>
      </trkpt>
      <trkpt lat="45.72774" lon="6.44808">
        <ele>1012</ele>
        <time>2022-07-23T11:51:20Z</time>
      </trkpt>
      <trkpt lat="45.72774" lon="6.44809">
        <ele>1012</ele>
        <time>2022-07-23T11:51:21Z</time>
      </trkpt>
      <trkpt lat="45.72775" lon="6.44809">
        <ele>1012</ele>
        <time>2022-07-23T11:51:22Z</time>
      </trkpt>
      <trkpt lat="45.72775" lon="6.4481">
        <ele>1012</ele>
        <time>2022-07-23T11:51:23Z</time>
      </trkpt>
      <trkpt lat="45.72776" lon="6.44811">
        <ele>1012</ele>
        <time>2022-07-23T11:51:24Z</time>
      </trkpt>
      <trkpt lat="45.72776" lon="6.44812">
        <ele>1013</ele>
        <time>2022-07-23T11:51:25Z</time>
      </trkpt>
      <trkpt lat="45.72776" lon="6.44812">
        <ele>1013</ele>
        <time>2022-07-23T11:51:26Z</time>
      </trkpt>
      <trkpt lat="45.72775" lon="6.44813">
        <ele>1013</ele>
        <time>2022-07-23T11:51:27Z</time>
      </trkpt>
      <trkpt lat="45.72775" lon="6.44814">
        <ele>1013</ele>
        <time>2022-07-23T11:51:28Z</time>
      </trkpt>
      <trkpt lat="45.72775" lon="6.44814">
        <ele>1013</ele>
        <time>2022-07-23T11:51:29Z</time>
      </trkpt>
      <trkpt lat="45.72775" lon="6.44815">
        <ele>1013</ele>
        <time>2022-07-23T11:51:30Z</time>
      </trkpt>
      <trkpt lat="45.72774" lon="6.44815">
        <ele>1013</ele>
        <time>2022-07-23T11:51:31Z</time>
      </trkpt>
      <trkpt lat="45.72774" lon="6.44816">
        <ele>1013</ele>
        <time>2022-07-23T11:51:32Z</time>
      </trkpt>
      <trkpt lat="45.72774" lon="6.44817">
        <ele>1013</ele>
        <time>2022-07-23T11:51:33Z</time>
      </trkpt>
      <trkpt lat="45.72773" lon="6.44818">
        <ele>1013</ele>
        <time>2022-07-23T11:51:34Z</time>
      </trkpt>
      <trkpt lat="45.72773" lon="6.44819">
        <ele>1014</ele>
        <time>2022-07-23T11:51:35Z</time>
      </trkpt>
      <trkpt lat="45.72773" lon="6.4482">
        <ele>1014</ele>
        <time>2022-07-23T11:51:36Z</time>
      </trkpt>
      <trkpt lat="45.72772" lon="6.44821">
        <ele>1014</ele>
        <time>2022-07-23T11:51:37Z</time>
      </trkpt>
      <trkpt lat="45.72772" lon="6.44821">
        <ele>1014</ele>
        <time>2022-07-23T11:51:38Z</time>
      </trkpt>
      <trkpt lat="45.72772" lon="6.44822">
        <ele>1014</ele>
        <time>2022-07-23T11:51:39Z</time>
      </trkpt>
      <trkpt lat="45.72771" lon="6.44823">
        <ele>1015</ele>
        <time>2022-07-23T11:51:40Z</time>
      </trkpt>
      <trkpt lat="45.72771" lon="6.44824">
        <ele>1015</ele>
        <time>2022-07-23T11:51:41Z</time>
      </trkpt>
      <trkpt lat="45.72771" lon="6.44825">
        <ele>1015</ele>
        <time>2022-07-23T11:51:42Z</time>
      </trkpt>
      <trkpt lat="45.72772" lon="6.44826">
        <ele>1015</ele>
        <time>2022-07-23T11:51:43Z</time>
      </trkpt>
      <trkpt lat="45.72772" lon="6.44827">
        <ele>1015</ele>
        <time>2022-07-23T11:51:44Z</time>
      </trkpt>
      <trkpt lat="45.72772" lon="6.44828">
        <ele>1016</ele>
        <time>2022-07-23T11:51:45Z</time>
      </trkpt>
      <trkpt lat="45.72772" lon="6.44829">
        <ele>1016</ele>
        <time>2022-07-23T11:51:46Z</time>
      </trkpt>
      <trkpt lat="45.72772" lon="6.4483">
        <ele>1016</ele>
        <time>2022-07-23T11:51:47Z</time>
      </trkpt>
      <trkpt lat="45.72772" lon="6.44831">
        <ele>1016</ele>
        <time>2022-07-23T11:51:48Z</time>
      </trkpt>
      <trkpt lat="45.72771" lon="6.44831">
        <ele>1016</ele>
        <time>2022-07-23T11:51:49Z</time>
      </trkpt>
      <trkpt lat="45.72771" lon="6.44832">
        <ele>1016</ele>
        <time>2022-07-23T11:51:50Z</time>
      </trkpt>
      <trkpt lat="45.7277" lon="6.44833">
        <ele>1016</ele>
        <time>2022-07-23T11:51:51Z</time>
      </trkpt>
      <trkpt lat="45.72769" lon="6.44833">
        <ele>1016</ele>
        <time>2022-07-23T11:51:52Z</time>
      </trkpt>
      <trkpt lat="45.72769" lon="6.44834">
        <ele>1016</ele>
        <time>2022-07-23T11:51:53Z</time>
      </trkpt>
      <trkpt lat="45.72769" lon="6.44834">
        <ele>1016</ele>
        <time>2022-07-23T11:51:54Z</time>
      </trkpt>
      <trkpt lat="45.72768" lon="6.44834">
        <ele>1017</ele>
        <time>2022-07-23T11:51:55Z</time>
      </trkpt>
      <trkpt lat="45.72767" lon="6.44835">
        <ele>1017</ele>
        <time>2022-07-23T11:51:56Z</time>
      </trkpt>
      <trkpt lat="45.72766" lon="6.44835">
        <ele>1017</ele>
        <time>2022-07-23T11:51:57Z</time>
      </trkpt>
      <trkpt lat="45.72766" lon="6.44835">
        <ele>1017</ele>
        <time>2022-07-23T11:51:58Z</time>
      </trkpt>
      <trkpt lat="45.72765" lon="6.44836">
        <ele>1017</ele>
        <time>2022-07-23T11:51:59Z</time>
      </trkpt>
      <trkpt lat="45.72764" lon="6.44836">
        <ele>1018</ele>
        <time>2022-07-23T11:52:00Z</time>
      </trkpt>
      <trkpt lat="45.72764" lon="6.44837">
        <ele>1018</ele>
        <time>2022-07-23T11:52:01Z</time>
      </trkpt>
      <trkpt lat="45.72763" lon="6.44838">
        <ele>1018</ele>
        <time>2022-07-23T11:52:02Z</time>
      </trkpt>
      <trkpt lat="45.72762" lon="6.44838">
        <ele>1018</ele>
        <time>2022-07-23T11:52:03Z</time>
      </trkpt>
      <trkpt lat="45.72762" lon="6.44839">
        <ele>1018</ele>
        <time>2022-07-23T11:52:04Z</time>
      </trkpt>
      <trkpt lat="45.72761" lon="6.4484">
        <ele>1018</ele>
        <time>2022-07-23T11:52:05Z</time>
      </trkpt>
      <trkpt lat="45.72761" lon="6.44841">
        <ele>1018</ele>
        <time>2022-07-23T11:52:06Z</time>
      </trkpt>
      <trkpt lat="45.72761" lon="6.44842">
        <ele>1018</ele>
        <time>2022-07-23T11:52:07Z</time>
      </trkpt>
      <trkpt lat="45.7276" lon="6.44843">
        <ele>1018</ele>
        <time>2022-07-23T11:52:08Z</time>
      </trkpt>
      <trkpt lat="45.7276" lon="6.44844">
        <ele>1018</ele>
        <time>2022-07-23T11:52:09Z</time>
      </trkpt>
      <trkpt lat="45.7276" lon="6.44845">
        <ele>1019</ele>
        <time>2022-07-23T11:52:10Z</time>
      </trkpt>
      <trkpt lat="45.72759" lon="6.44846">
        <ele>1019</ele>
        <time>2022-07-23T11:52:11Z</time>
      </trkpt>
      <trkpt lat="45.72759" lon="6.44846">
        <ele>1019</ele>
        <time>2022-07-23T11:52:12Z</time>
      </trkpt>
      <trkpt lat="45.72759" lon="6.44847">
        <ele>1019</ele>
        <time>2022-07-23T11:52:13Z</time>
      </trkpt>
      <trkpt lat="45.72759" lon="6.44847">
        <ele>1019</ele>
        <time>2022-07-23T11:52:14Z</time>
      </trkpt>
      <trkpt lat="45.72758" lon="6.44848">
        <ele>1020</ele>
        <time>2022-07-23T11:52:15Z</time>
      </trkpt>
      <trkpt lat="45.72758" lon="6.44849">
        <ele>1020</ele>
        <time>2022-07-23T11:52:16Z</time>
      </trkpt>
      <trkpt lat="45.72758" lon="6.44849">
        <ele>1020</ele>
        <time>2022-07-23T11:52:17Z</time>
      </trkpt>
      <trkpt lat="45.72757" lon="6.4485">
        <ele>1020</ele>
        <time>2022-07-23T11:52:18Z</time>
      </trkpt>
      <trkpt lat="45.72757" lon="6.44851">
        <ele>1020</ele>
        <time>2022-07-23T11:52:19Z</time>
      </trkpt>
      <trkpt lat="45.72755" lon="6.44855">
        <ele>1022</ele>
        <time>2022-07-23T11:52:48Z</time>
      </trkpt>
      <trkpt lat="45.72755" lon="6.44857">
        <ele>1022</ele>
        <time>2022-07-23T11:52:49Z</time>
      </trkpt>
      <trkpt lat="45.72754" lon="6.44859">
        <ele>1023</ele>
        <time>2022-07-23T11:52:50Z</time>
      </trkpt>
      <trkpt lat="45.72754" lon="6.4486">
        <ele>1023</ele>
        <time>2022-07-23T11:52:51Z</time>
      </trkpt>
      <trkpt lat="45.72754" lon="6.44862">
        <ele>1023</ele>
        <time>2022-07-23T11:52:52Z</time>
      </trkpt>
      <trkpt lat="45.72754" lon="6.44863">
        <ele>1023</ele>
        <time>2022-07-23T11:52:53Z</time>
      </trkpt>
      <trkpt lat="45.72753" lon="6.44864">
        <ele>1023</ele>
        <time>2022-07-23T11:52:54Z</time>
      </trkpt>
      <trkpt lat="45.72753" lon="6.44865">
        <ele>1023</ele>
        <time>2022-07-23T11:52:55Z</time>
      </trkpt>
      <trkpt lat="45.72753" lon="6.44865">
        <ele>1023</ele>
        <time>2022-07-23T11:52:56Z</time>
      </trkpt>
      <trkpt lat="45.72753" lon="6.44866">
        <ele>1023</ele>
        <time>2022-07-23T11:52:57Z</time>
      </trkpt>
      <trkpt lat="45.72753" lon="6.44867">
        <ele>1024</ele>
        <time>2022-07-23T11:52:58Z</time>
      </trkpt>
      <trkpt lat="45.72753" lon="6.44868">
        <ele>1024</ele>
        <time>2022-07-23T11:52:59Z</time>
      </trkpt>
      <trkpt lat="45.72752" lon="6.44869">
        <ele>1025</ele>
        <time>2022-07-23T11:53:00Z</time>
      </trkpt>
      <trkpt lat="45.72752" lon="6.4487">
        <ele>1025</ele>
        <time>2022-07-23T11:53:01Z</time>
      </trkpt>
      <trkpt lat="45.72752" lon="6.44871">
        <ele>1025</ele>
        <time>2022-07-23T11:53:02Z</time>
      </trkpt>
      <trkpt lat="45.72752" lon="6.44871">
        <ele>1025</ele>
        <time>2022-07-23T11:53:03Z</time>
      </trkpt>
      <trkpt lat="45.72752" lon="6.44871">
        <ele>1025</ele>
        <time>2022-07-23T11:53:04Z</time>
      </trkpt>
      <trkpt lat="45.72752" lon="6.44872">
        <ele>1026</ele>
        <time>2022-07-23T11:53:05Z</time>
      </trkpt>
      <trkpt lat="45.72751" lon="6.44872">
        <ele>1026</ele>
        <time>2022-07-23T11:53:06Z</time>
      </trkpt>
      <trkpt lat="45.72751" lon="6.44873">
        <ele>1026</ele>
        <time>2022-07-23T11:53:07Z</time>
      </trkpt>
      <trkpt lat="45.72751" lon="6.44874">
        <ele>1026</ele>
        <time>2022-07-23T11:53:08Z</time>
      </trkpt>
      <trkpt lat="45.72751" lon="6.44875">
        <ele>1026</ele>
        <time>2022-07-23T11:53:09Z</time>
      </trkpt>
      <trkpt lat="45.72749" lon="6.44878">
        <ele>1030</ele>
        <time>2022-07-23T11:53:48Z</time>
      </trkpt>
      <trkpt lat="45.72748" lon="6.44881">
        <ele>1030</ele>
        <time>2022-07-23T11:53:49Z</time>
      </trkpt>
      <trkpt lat="45.72747" lon="6.44883">
        <ele>1031</ele>
        <time>2022-07-23T11:53:50Z</time>
      </trkpt>
      <trkpt lat="45.72747" lon="6.44884">
        <ele>1031</ele>
        <time>2022-07-23T11:53:51Z</time>
      </trkpt>
      <trkpt lat="45.72746" lon="6.44885">
        <ele>1031</ele>
        <time>2022-07-23T11:53:52Z</time>
      </trkpt>
      <trkpt lat="45.72746" lon="6.44887">
        <ele>1031</ele>
        <time>2022-07-23T11:53:53Z</time>
      </trkpt>
      <trkpt lat="45.72745" lon="6.44888">
        <ele>1031</ele>
        <time>2022-07-23T11:53:54Z</time>
      </trkpt>
      <trkpt lat="45.72745" lon="6.44889">
        <ele>1032</ele>
        <time>2022-07-23T11:53:55Z</time>
      </trkpt>
      <trkpt lat="45.72745" lon="6.44889">
        <ele>1032</ele>
        <time>2022-07-23T11:53:56Z</time>
      </trkpt>
      <trkpt lat="45.72745" lon="6.4489">
        <ele>1032</ele>
        <time>2022-07-23T11:53:57Z</time>
      </trkpt>
      <trkpt lat="45.72745" lon="6.44892">
        <ele>1032</ele>
        <time>2022-07-23T11:53:58Z</time>
      </trkpt>
      <trkpt lat="45.72745" lon="6.44893">
        <ele>1032</ele>
        <time>2022-07-23T11:53:59Z</time>
      </trkpt>
      <trkpt lat="45.72745" lon="6.44893">
        <ele>1033</ele>
        <time>2022-07-23T11:54:00Z</time>
      </trkpt>
      <trkpt lat="45.72744" lon="6.44894">
        <ele>1033</ele>
        <time>2022-07-23T11:54:01Z</time>
      </trkpt>
      <trkpt lat="45.72744" lon="6.44895">
        <ele>1033</ele>
        <time>2022-07-23T11:54:02Z</time>
      </trkpt>
      <trkpt lat="45.72744" lon="6.44895">
        <ele>1033</ele>
        <time>2022-07-23T11:54:03Z</time>
      </trkpt>
      <trkpt lat="45.72743" lon="6.44896">
        <ele>1033</ele>
        <time>2022-07-23T11:54:04Z</time>
      </trkpt>
      <trkpt lat="45.72743" lon="6.44896">
        <ele>1033</ele>
        <time>2022-07-23T11:54:05Z</time>
      </trkpt>
      <trkpt lat="45.72743" lon="6.44896">
        <ele>1033</ele>
        <time>2022-07-23T11:54:06Z</time>
      </trkpt>
      <trkpt lat="45.72743" lon="6.44896">
        <ele>1033</ele>
        <time>2022-07-23T11:54:07Z</time>
      </trkpt>
      <trkpt lat="45.72743" lon="6.44896">
        <ele>1033</ele>
        <time>2022-07-23T11:54:08Z</time>
      </trkpt>
      <trkpt lat="45.72742" lon="6.44897">
        <ele>1033</ele>
        <time>2022-07-23T11:54:09Z</time>
      </trkpt>
      <trkpt lat="45.72741" lon="6.44898">
        <ele>1034</ele>
        <time>2022-07-23T11:54:10Z</time>
      </trkpt>
      <trkpt lat="45.72741" lon="6.44899">
        <ele>1034</ele>
        <time>2022-07-23T11:54:11Z</time>
      </trkpt>
      <trkpt lat="45.7274" lon="6.449">
        <ele>1034</ele>
        <time>2022-07-23T11:54:12Z</time>
      </trkpt>
      <trkpt lat="45.7274" lon="6.449">
        <ele>1034</ele>
        <time>2022-07-23T11:54:13Z</time>
      </trkpt>
      <trkpt lat="45.7274" lon="6.449">
        <ele>1034</ele>
        <time>2022-07-23T11:54:14Z</time>
      </trkpt>
      <trkpt lat="45.72739" lon="6.44901">
        <ele>1035</ele>
        <time>2022-07-23T11:54:15Z</time>
      </trkpt>
      <trkpt lat="45.72739" lon="6.44902">
        <ele>1035</ele>
        <time>2022-07-23T11:54:16Z</time>
      </trkpt>
      <trkpt lat="45.72738" lon="6.44902">
        <ele>1035</ele>
        <time>2022-07-23T11:54:17Z</time>
      </trkpt>
      <trkpt lat="45.72738" lon="6.44903">
        <ele>1035</ele>
        <time>2022-07-23T11:54:18Z</time>
      </trkpt>
      <trkpt lat="45.72737" lon="6.44904">
        <ele>1035</ele>
        <time>2022-07-23T11:54:19Z</time>
      </trkpt>
      <trkpt lat="45.72737" lon="6.44905">
        <ele>1036</ele>
        <time>2022-07-23T11:54:20Z</time>
      </trkpt>
      <trkpt lat="45.72737" lon="6.44906">
        <ele>1036</ele>
        <time>2022-07-23T11:54:21Z</time>
      </trkpt>
      <trkpt lat="45.72737" lon="6.44907">
        <ele>1036</ele>
        <time>2022-07-23T11:54:22Z</time>
      </trkpt>
      <trkpt lat="45.72737" lon="6.44908">
        <ele>1036</ele>
        <time>2022-07-23T11:54:23Z</time>
      </trkpt>
      <trkpt lat="45.72737" lon="6.4491">
        <ele>1036</ele>
        <time>2022-07-23T11:54:24Z</time>
      </trkpt>
      <trkpt lat="45.72737" lon="6.44911">
        <ele>1036</ele>
        <time>2022-07-23T11:54:25Z</time>
      </trkpt>
      <trkpt lat="45.72738" lon="6.44912">
        <ele>1036</ele>
        <time>2022-07-23T11:54:26Z</time>
      </trkpt>
      <trkpt lat="45.72738" lon="6.44913">
        <ele>1036</ele>
        <time>2022-07-23T11:54:27Z</time>
      </trkpt>
      <trkpt lat="45.72739" lon="6.44914">
        <ele>1036</ele>
        <time>2022-07-23T11:54:28Z</time>
      </trkpt>
      <trkpt lat="45.72739" lon="6.44916">
        <ele>1036</ele>
        <time>2022-07-23T11:54:29Z</time>
      </trkpt>
      <trkpt lat="45.72741" lon="6.44919">
        <ele>1039</ele>
        <time>2022-07-23T11:56:04Z</time>
      </trkpt>
      <trkpt lat="45.72741" lon="6.4492">
        <ele>1039</ele>
        <time>2022-07-23T11:56:05Z</time>
      </trkpt>
      <trkpt lat="45.72742" lon="6.44921">
        <ele>1038</ele>
        <time>2022-07-23T11:56:06Z</time>
      </trkpt>
      <trkpt lat="45.72741" lon="6.44921">
        <ele>1038</ele>
        <time>2022-07-23T11:56:07Z</time>
      </trkpt>
      <trkpt lat="45.72741" lon="6.44921">
        <ele>1038</ele>
        <time>2022-07-23T11:56:08Z</time>
      </trkpt>
      <trkpt lat="45.72742" lon="6.44921">
        <ele>1039</ele>
        <time>2022-07-23T11:56:25Z</time>
      </trkpt>
      <trkpt lat="45.72742" lon="6.44922">
        <ele>1039</ele>
        <time>2022-07-23T11:56:26Z</time>
      </trkpt>
      <trkpt lat="45.72742" lon="6.44922">
        <ele>1039</ele>
        <time>2022-07-23T11:56:27Z</time>
      </trkpt>
      <trkpt lat="45.72742" lon="6.44923">
        <ele>1039</ele>
        <time>2022-07-23T11:56:28Z</time>
      </trkpt>
      <trkpt lat="45.72743" lon="6.44923">
        <ele>1039</ele>
        <time>2022-07-23T11:56:29Z</time>
      </trkpt>
      <trkpt lat="45.72743" lon="6.44924">
        <ele>1040</ele>
        <time>2022-07-23T11:56:30Z</time>
      </trkpt>
      <trkpt lat="45.72743" lon="6.44925">
        <ele>1040</ele>
        <time>2022-07-23T11:56:31Z</time>
      </trkpt>
      <trkpt lat="45.72744" lon="6.44926">
        <ele>1040</ele>
        <time>2022-07-23T11:56:32Z</time>
      </trkpt>
      <trkpt lat="45.72744" lon="6.44927">
        <ele>1040</ele>
        <time>2022-07-23T11:56:33Z</time>
      </trkpt>
      <trkpt lat="45.72744" lon="6.44927">
        <ele>1040</ele>
        <time>2022-07-23T11:56:34Z</time>
      </trkpt>
      <trkpt lat="45.72744" lon="6.44928">
        <ele>1040</ele>
        <time>2022-07-23T11:56:35Z</time>
      </trkpt>
      <trkpt lat="45.72745" lon="6.44929">
        <ele>1040</ele>
        <time>2022-07-23T11:56:36Z</time>
      </trkpt>
      <trkpt lat="45.72745" lon="6.44929">
        <ele>1040</ele>
        <time>2022-07-23T11:56:37Z</time>
      </trkpt>
      <trkpt lat="45.72745" lon="6.4493">
        <ele>1040</ele>
        <time>2022-07-23T11:56:38Z</time>
      </trkpt>
      <trkpt lat="45.72746" lon="6.4493">
        <ele>1040</ele>
        <time>2022-07-23T11:56:39Z</time>
      </trkpt>
      <trkpt lat="45.72746" lon="6.44931">
        <ele>1041</ele>
        <time>2022-07-23T11:56:40Z</time>
      </trkpt>
      <trkpt lat="45.72747" lon="6.44931">
        <ele>1041</ele>
        <time>2022-07-23T11:56:41Z</time>
      </trkpt>
      <trkpt lat="45.72748" lon="6.44932">
        <ele>1044</ele>
        <time>2022-07-23T11:57:15Z</time>
      </trkpt>
      <trkpt lat="45.72749" lon="6.44933">
        <ele>1044</ele>
        <time>2022-07-23T11:57:16Z</time>
      </trkpt>
      <trkpt lat="45.7275" lon="6.44934">
        <ele>1044</ele>
        <time>2022-07-23T11:57:17Z</time>
      </trkpt>
      <trkpt lat="45.7275" lon="6.44934">
        <ele>1044</ele>
        <time>2022-07-23T11:57:18Z</time>
      </trkpt>
      <trkpt lat="45.72751" lon="6.44935">
        <ele>1044</ele>
        <time>2022-07-23T11:57:19Z</time>
      </trkpt>
      <trkpt lat="45.72751" lon="6.44936">
        <ele>1044</ele>
        <time>2022-07-23T11:57:20Z</time>
      </trkpt>
      <trkpt lat="45.72752" lon="6.44936">
        <ele>1044</ele>
        <time>2022-07-23T11:57:21Z</time>
      </trkpt>
      <trkpt lat="45.72752" lon="6.44937">
        <ele>1044</ele>
        <time>2022-07-23T11:57:22Z</time>
      </trkpt>
      <trkpt lat="45.72753" lon="6.44938">
        <ele>1044</ele>
        <time>2022-07-23T11:57:23Z</time>
      </trkpt>
      <trkpt lat="45.72754" lon="6.44939">
        <ele>1044</ele>
        <time>2022-07-23T11:57:24Z</time>
      </trkpt>
      <trkpt lat="45.72754" lon="6.4494">
        <ele>1044</ele>
        <time>2022-07-23T11:57:25Z</time>
      </trkpt>
      <trkpt lat="45.72755" lon="6.4494">
        <ele>1044</ele>
        <time>2022-07-23T11:57:26Z</time>
      </trkpt>
      <trkpt lat="45.72755" lon="6.44941">
        <ele>1044</ele>
        <time>2022-07-23T11:57:27Z</time>
      </trkpt>
      <trkpt lat="45.72756" lon="6.44942">
        <ele>1044</ele>
        <time>2022-07-23T11:57:28Z</time>
      </trkpt>
      <trkpt lat="45.72756" lon="6.44943">
        <ele>1044</ele>
        <time>2022-07-23T11:57:29Z</time>
      </trkpt>
      <trkpt lat="45.72757" lon="6.44944">
        <ele>1044</ele>
        <time>2022-07-23T11:57:30Z</time>
      </trkpt>
      <trkpt lat="45.72757" lon="6.44946">
        <ele>1044</ele>
        <time>2022-07-23T11:57:31Z</time>
      </trkpt>
      <trkpt lat="45.72757" lon="6.44946">
        <ele>1044</ele>
        <time>2022-07-23T11:57:32Z</time>
      </trkpt>
      <trkpt lat="45.72757" lon="6.44947">
        <ele>1044</ele>
        <time>2022-07-23T11:57:33Z</time>
      </trkpt>
      <trkpt lat="45.72758" lon="6.44948">
        <ele>1044</ele>
        <time>2022-07-23T11:57:34Z</time>
      </trkpt>
      <trkpt lat="45.72758" lon="6.44949">
        <ele>1044</ele>
        <time>2022-07-23T11:57:35Z</time>
      </trkpt>
      <trkpt lat="45.72759" lon="6.44949">
        <ele>1044</ele>
        <time>2022-07-23T11:57:36Z</time>
      </trkpt>
      <trkpt lat="45.7276" lon="6.4495">
        <ele>1044</ele>
        <time>2022-07-23T11:57:37Z</time>
      </trkpt>
      <trkpt lat="45.7276" lon="6.44951">
        <ele>1044</ele>
        <time>2022-07-23T11:57:38Z</time>
      </trkpt>
      <trkpt lat="45.72761" lon="6.44951">
        <ele>1044</ele>
        <time>2022-07-23T11:57:39Z</time>
      </trkpt>
      <trkpt lat="45.72762" lon="6.44952">
        <ele>1044</ele>
        <time>2022-07-23T11:57:40Z</time>
      </trkpt>
      <trkpt lat="45.72763" lon="6.44953">
        <ele>1044</ele>
        <time>2022-07-23T11:57:41Z</time>
      </trkpt>
      <trkpt lat="45.72763" lon="6.44953">
        <ele>1044</ele>
        <time>2022-07-23T11:57:42Z</time>
      </trkpt>
      <trkpt lat="45.72764" lon="6.44954">
        <ele>1044</ele>
        <time>2022-07-23T11:57:43Z</time>
      </trkpt>
      <trkpt lat="45.72764" lon="6.44955">
        <ele>1044</ele>
        <time>2022-07-23T11:57:44Z</time>
      </trkpt>
      <trkpt lat="45.72765" lon="6.44955">
        <ele>1045</ele>
        <time>2022-07-23T11:57:45Z</time>
      </trkpt>
      <trkpt lat="45.72765" lon="6.44956">
        <ele>1045</ele>
        <time>2022-07-23T11:57:46Z</time>
      </trkpt>
      <trkpt lat="45.72766" lon="6.44956">
        <ele>1045</ele>
        <time>2022-07-23T11:57:47Z</time>
      </trkpt>
      <trkpt lat="45.72766" lon="6.44958">
        <ele>1047</ele>
        <time>2022-07-23T11:58:08Z</time>
      </trkpt>
      <trkpt lat="45.72766" lon="6.44958">
        <ele>1047</ele>
        <time>2022-07-23T11:58:09Z</time>
      </trkpt>
      <trkpt lat="45.72766" lon="6.44959">
        <ele>1047</ele>
        <time>2022-07-23T11:58:10Z</time>
      </trkpt>
      <trkpt lat="45.72766" lon="6.4496">
        <ele>1047</ele>
        <time>2022-07-23T11:58:11Z</time>
      </trkpt>
      <trkpt lat="45.72766" lon="6.44961">
        <ele>1047</ele>
        <time>2022-07-23T11:58:12Z</time>
      </trkpt>
      <trkpt lat="45.72766" lon="6.44961">
        <ele>1047</ele>
        <time>2022-07-23T11:58:13Z</time>
      </trkpt>
      <trkpt lat="45.72767" lon="6.44962">
        <ele>1047</ele>
        <time>2022-07-23T11:58:14Z</time>
      </trkpt>
      <trkpt lat="45.72767" lon="6.44963">
        <ele>1047</ele>
        <time>2022-07-23T11:58:15Z</time>
      </trkpt>
      <trkpt lat="45.72767" lon="6.44963">
        <ele>1047</ele>
        <time>2022-07-23T11:58:16Z</time>
      </trkpt>
      <trkpt lat="45.72767" lon="6.44964">
        <ele>1047</ele>
        <time>2022-07-23T11:58:17Z</time>
      </trkpt>
      <trkpt lat="45.72767" lon="6.44964">
        <ele>1047</ele>
        <time>2022-07-23T11:58:18Z</time>
      </trkpt>
      <trkpt lat="45.72768" lon="6.44964">
        <ele>1047</ele>
        <time>2022-07-23T11:58:19Z</time>
      </trkpt>
      <trkpt lat="45.72768" lon="6.44965">
        <ele>1047</ele>
        <time>2022-07-23T11:58:20Z</time>
      </trkpt>
      <trkpt lat="45.72768" lon="6.44965">
        <ele>1047</ele>
        <time>2022-07-23T11:58:21Z</time>
      </trkpt>
      <trkpt lat="45.72769" lon="6.44966">
        <ele>1047</ele>
        <time>2022-07-23T11:58:22Z</time>
      </trkpt>
      <trkpt lat="45.7277" lon="6.44968">
        <ele>1048</ele>
        <time>2022-07-23T11:58:52Z</time>
      </trkpt>
      <trkpt lat="45.72771" lon="6.44969">
        <ele>1048</ele>
        <time>2022-07-23T11:58:53Z</time>
      </trkpt>
      <trkpt lat="45.72772" lon="6.44969">
        <ele>1048</ele>
        <time>2022-07-23T11:58:54Z</time>
      </trkpt>
      <trkpt lat="45.72772" lon="6.4497">
        <ele>1048</ele>
        <time>2022-07-23T11:58:55Z</time>
      </trkpt>
      <trkpt lat="45.72773" lon="6.44971">
        <ele>1048</ele>
        <time>2022-07-23T11:58:56Z</time>
      </trkpt>
      <trkpt lat="45.72773" lon="6.44971">
        <ele>1048</ele>
        <time>2022-07-23T11:58:57Z</time>
      </trkpt>
      <trkpt lat="45.72774" lon="6.44971">
        <ele>1048</ele>
        <time>2022-07-23T11:58:58Z</time>
      </trkpt>
      <trkpt lat="45.72774" lon="6.44972">
        <ele>1048</ele>
        <time>2022-07-23T11:58:59Z</time>
      </trkpt>
      <trkpt lat="45.72775" lon="6.44973">
        <ele>1048</ele>
        <time>2022-07-23T11:59:00Z</time>
      </trkpt>
      <trkpt lat="45.72775" lon="6.44974">
        <ele>1048</ele>
        <time>2022-07-23T11:59:01Z</time>
      </trkpt>
      <trkpt lat="45.72776" lon="6.44974">
        <ele>1048</ele>
        <time>2022-07-23T11:59:02Z</time>
      </trkpt>
      <trkpt lat="45.72777" lon="6.44975">
        <ele>1048</ele>
        <time>2022-07-23T11:59:03Z</time>
      </trkpt>
      <trkpt lat="45.72777" lon="6.44976">
        <ele>1048</ele>
        <time>2022-07-23T11:59:04Z</time>
      </trkpt>
      <trkpt lat="45.72778" lon="6.44977">
        <ele>1049</ele>
        <time>2022-07-23T11:59:05Z</time>
      </trkpt>
      <trkpt lat="45.72778" lon="6.44978">
        <ele>1049</ele>
        <time>2022-07-23T11:59:06Z</time>
      </trkpt>
      <trkpt lat="45.72779" lon="6.44979">
        <ele>1049</ele>
        <time>2022-07-23T11:59:07Z</time>
      </trkpt>
      <trkpt lat="45.72779" lon="6.4498">
        <ele>1049</ele>
        <time>2022-07-23T11:59:08Z</time>
      </trkpt>
      <trkpt lat="45.7278" lon="6.44981">
        <ele>1049</ele>
        <time>2022-07-23T11:59:09Z</time>
      </trkpt>
      <trkpt lat="45.7278" lon="6.44982">
        <ele>1049</ele>
        <time>2022-07-23T11:59:10Z</time>
      </trkpt>
      <trkpt lat="45.72781" lon="6.44983">
        <ele>1049</ele>
        <time>2022-07-23T11:59:11Z</time>
      </trkpt>
      <trkpt lat="45.72781" lon="6.44984">
        <ele>1049</ele>
        <time>2022-07-23T11:59:12Z</time>
      </trkpt>
      <trkpt lat="45.72781" lon="6.44986">
        <ele>1050</ele>
        <time>2022-07-23T11:59:18Z</time>
      </trkpt>
      <trkpt lat="45.72781" lon="6.44987">
        <ele>1050</ele>
        <time>2022-07-23T11:59:19Z</time>
      </trkpt>
      <trkpt lat="45.7278" lon="6.44989">
        <ele>1050</ele>
        <time>2022-07-23T11:59:20Z</time>
      </trkpt>
      <trkpt lat="45.7278" lon="6.44989">
        <ele>1050</ele>
        <time>2022-07-23T11:59:21Z</time>
      </trkpt>
      <trkpt lat="45.7278" lon="6.4499">
        <ele>1050</ele>
        <time>2022-07-23T11:59:22Z</time>
      </trkpt>
      <trkpt lat="45.7278" lon="6.44991">
        <ele>1050</ele>
        <time>2022-07-23T11:59:23Z</time>
      </trkpt>
      <trkpt lat="45.7278" lon="6.44992">
        <ele>1050</ele>
        <time>2022-07-23T11:59:24Z</time>
      </trkpt>
      <trkpt lat="45.72781" lon="6.44993">
        <ele>1050</ele>
        <time>2022-07-23T11:59:25Z</time>
      </trkpt>
      <trkpt lat="45.72781" lon="6.44994">
        <ele>1050</ele>
        <time>2022-07-23T11:59:26Z</time>
      </trkpt>
      <trkpt lat="45.72782" lon="6.44994">
        <ele>1050</ele>
        <time>2022-07-23T11:59:27Z</time>
      </trkpt>
      <trkpt lat="45.72782" lon="6.44995">
        <ele>1050</ele>
        <time>2022-07-23T11:59:28Z</time>
      </trkpt>
      <trkpt lat="45.72782" lon="6.44995">
        <ele>1050</ele>
        <time>2022-07-23T11:59:29Z</time>
      </trkpt>
      <trkpt lat="45.72783" lon="6.44995">
        <ele>1051</ele>
        <time>2022-07-23T11:59:30Z</time>
      </trkpt>
      <trkpt lat="45.72783" lon="6.44996">
        <ele>1051</ele>
        <time>2022-07-23T11:59:31Z</time>
      </trkpt>
      <trkpt lat="45.72784" lon="6.44996">
        <ele>1051</ele>
        <time>2022-07-23T11:59:32Z</time>
      </trkpt>
      <trkpt lat="45.72784" lon="6.44996">
        <ele>1051</ele>
        <time>2022-07-23T11:59:33Z</time>
      </trkpt>
      <trkpt lat="45.72785" lon="6.44997">
        <ele>1051</ele>
        <time>2022-07-23T11:59:34Z</time>
      </trkpt>
      <trkpt lat="45.72785" lon="6.44998">
        <ele>1051</ele>
        <time>2022-07-23T11:59:35Z</time>
      </trkpt>
      <trkpt lat="45.72786" lon="6.44998">
        <ele>1051</ele>
        <time>2022-07-23T11:59:36Z</time>
      </trkpt>
      <trkpt lat="45.72786" lon="6.44999">
        <ele>1051</ele>
        <time>2022-07-23T11:59:37Z</time>
      </trkpt>
      <trkpt lat="45.72787" lon="6.45">
        <ele>1051</ele>
        <time>2022-07-23T11:59:38Z</time>
      </trkpt>
      <trkpt lat="45.72787" lon="6.45">
        <ele>1051</ele>
        <time>2022-07-23T11:59:39Z</time>
      </trkpt>
      <trkpt lat="45.72788" lon="6.45001">
        <ele>1052</ele>
        <time>2022-07-23T11:59:40Z</time>
      </trkpt>
      <trkpt lat="45.72788" lon="6.45002">
        <ele>1052</ele>
        <time>2022-07-23T11:59:41Z</time>
      </trkpt>
      <trkpt lat="45.72789" lon="6.45002">
        <ele>1052</ele>
        <time>2022-07-23T11:59:42Z</time>
      </trkpt>
      <trkpt lat="45.7279" lon="6.45003">
        <ele>1052</ele>
        <time>2022-07-23T11:59:43Z</time>
      </trkpt>
      <trkpt lat="45.7279" lon="6.45003">
        <ele>1052</ele>
        <time>2022-07-23T11:59:44Z</time>
      </trkpt>
      <trkpt lat="45.7279" lon="6.45003">
        <ele>1053</ele>
        <time>2022-07-23T11:59:45Z</time>
      </trkpt>
      <trkpt lat="45.72791" lon="6.45004">
        <ele>1053</ele>
        <time>2022-07-23T11:59:46Z</time>
      </trkpt>
      <trkpt lat="45.72792" lon="6.45005">
        <ele>1053</ele>
        <time>2022-07-23T11:59:47Z</time>
      </trkpt>
      <trkpt lat="45.72793" lon="6.45006">
        <ele>1053</ele>
        <time>2022-07-23T11:59:48Z</time>
      </trkpt>
      <trkpt lat="45.72794" lon="6.45007">
        <ele>1053</ele>
        <time>2022-07-23T11:59:49Z</time>
      </trkpt>
      <trkpt lat="45.72794" lon="6.45008">
        <ele>1054</ele>
        <time>2022-07-23T11:59:50Z</time>
      </trkpt>
      <trkpt lat="45.72795" lon="6.45009">
        <ele>1054</ele>
        <time>2022-07-23T11:59:51Z</time>
      </trkpt>
      <trkpt lat="45.72796" lon="6.4501">
        <ele>1054</ele>
        <time>2022-07-23T11:59:52Z</time>
      </trkpt>
      <trkpt lat="45.72797" lon="6.45011">
        <ele>1054</ele>
        <time>2022-07-23T11:59:53Z</time>
      </trkpt>
      <trkpt lat="45.72797" lon="6.45012">
        <ele>1054</ele>
        <time>2022-07-23T11:59:54Z</time>
      </trkpt>
      <trkpt lat="45.72798" lon="6.45013">
        <ele>1055</ele>
        <time>2022-07-23T11:59:55Z</time>
      </trkpt>
      <trkpt lat="45.72799" lon="6.45014">
        <ele>1055</ele>
        <time>2022-07-23T11:59:56Z</time>
      </trkpt>
      <trkpt lat="45.728" lon="6.45015">
        <ele>1055</ele>
        <time>2022-07-23T11:59:57Z</time>
      </trkpt>
      <trkpt lat="45.728" lon="6.45016">
        <ele>1055</ele>
        <time>2022-07-23T11:59:58Z</time>
      </trkpt>
      <trkpt lat="45.72801" lon="6.45016">
        <ele>1055</ele>
        <time>2022-07-23T11:59:59Z</time>
      </trkpt>
      <trkpt lat="45.72802" lon="6.45017">
        <ele>1056</ele>
        <time>2022-07-23T12:00:00Z</time>
      </trkpt>
      <trkpt lat="45.72803" lon="6.45018">
        <ele>1056</ele>
        <time>2022-07-23T12:00:01Z</time>
      </trkpt>
      <trkpt lat="45.72803" lon="6.45019">
        <ele>1056</ele>
        <time>2022-07-23T12:00:02Z</time>
      </trkpt>
      <trkpt lat="45.72804" lon="6.4502">
        <ele>1056</ele>
        <time>2022-07-23T12:00:03Z</time>
      </trkpt>
      <trkpt lat="45.72805" lon="6.45021">
        <ele>1056</ele>
        <time>2022-07-23T12:00:04Z</time>
      </trkpt>
      <trkpt lat="45.72805" lon="6.45022">
        <ele>1057</ele>
        <time>2022-07-23T12:00:05Z</time>
      </trkpt>
      <trkpt lat="45.72806" lon="6.45022">
        <ele>1057</ele>
        <time>2022-07-23T12:00:06Z</time>
      </trkpt>
      <trkpt lat="45.72806" lon="6.45023">
        <ele>1057</ele>
        <time>2022-07-23T12:00:07Z</time>
      </trkpt>
      <trkpt lat="45.72807" lon="6.45024">
        <ele>1057</ele>
        <time>2022-07-23T12:00:08Z</time>
      </trkpt>
      <trkpt lat="45.72807" lon="6.45025">
        <ele>1057</ele>
        <time>2022-07-23T12:00:09Z</time>
      </trkpt>
      <trkpt lat="45.72807" lon="6.45026">
        <ele>1058</ele>
        <time>2022-07-23T12:00:10Z</time>
      </trkpt>
      <trkpt lat="45.72808" lon="6.45027">
        <ele>1058</ele>
        <time>2022-07-23T12:00:11Z</time>
      </trkpt>
      <trkpt lat="45.72808" lon="6.45028">
        <ele>1058</ele>
        <time>2022-07-23T12:00:12Z</time>
      </trkpt>
      <trkpt lat="45.72809" lon="6.45029">
        <ele>1058</ele>
        <time>2022-07-23T12:00:13Z</time>
      </trkpt>
      <trkpt lat="45.72809" lon="6.45029">
        <ele>1058</ele>
        <time>2022-07-23T12:00:14Z</time>
      </trkpt>
      <trkpt lat="45.7281" lon="6.4503">
        <ele>1059</ele>
        <time>2022-07-23T12:00:15Z</time>
      </trkpt>
      <trkpt lat="45.72811" lon="6.45031">
        <ele>1059</ele>
        <time>2022-07-23T12:00:16Z</time>
      </trkpt>
      <trkpt lat="45.72812" lon="6.45032">
        <ele>1059</ele>
        <time>2022-07-23T12:00:17Z</time>
      </trkpt>
      <trkpt lat="45.72812" lon="6.45033">
        <ele>1059</ele>
        <time>2022-07-23T12:00:18Z</time>
      </trkpt>
      <trkpt lat="45.72813" lon="6.45034">
        <ele>1059</ele>
        <time>2022-07-23T12:00:19Z</time>
      </trkpt>
      <trkpt lat="45.72814" lon="6.45035">
        <ele>1059</ele>
        <time>2022-07-23T12:00:20Z</time>
      </trkpt>
      <trkpt lat="45.72815" lon="6.45036">
        <ele>1059</ele>
        <time>2022-07-23T12:00:21Z</time>
      </trkpt>
      <trkpt lat="45.72816" lon="6.45037">
        <ele>1059</ele>
        <time>2022-07-23T12:00:22Z</time>
      </trkpt>
      <trkpt lat="45.72816" lon="6.45038">
        <ele>1060</ele>
        <time>2022-07-23T12:00:23Z</time>
      </trkpt>
      <trkpt lat="45.72817" lon="6.45038">
        <ele>1060</ele>
        <time>2022-07-23T12:00:24Z</time>
      </trkpt>
      <trkpt lat="45.72817" lon="6.45039">
        <ele>1061</ele>
        <time>2022-07-23T12:00:25Z</time>
      </trkpt>
      <trkpt lat="45.72818" lon="6.4504">
        <ele>1061</ele>
        <time>2022-07-23T12:00:26Z</time>
      </trkpt>
      <trkpt lat="45.72818" lon="6.4504">
        <ele>1062</ele>
        <time>2022-07-23T12:00:36Z</time>
      </trkpt>
      <trkpt lat="45.72819" lon="6.4504">
        <ele>1062</ele>
        <time>2022-07-23T12:00:37Z</time>
      </trkpt>
      <trkpt lat="45.7282" lon="6.45041">
        <ele>1062</ele>
        <time>2022-07-23T12:00:38Z</time>
      </trkpt>
      <trkpt lat="45.7282" lon="6.45041">
        <ele>1062</ele>
        <time>2022-07-23T12:00:39Z</time>
      </trkpt>
      <trkpt lat="45.7282" lon="6.45041">
        <ele>1062</ele>
        <time>2022-07-23T12:00:40Z</time>
      </trkpt>
      <trkpt lat="45.7282" lon="6.45041">
        <ele>1062</ele>
        <time>2022-07-23T12:00:41Z</time>
      </trkpt>
      <trkpt lat="45.72821" lon="6.45041">
        <ele>1062</ele>
        <time>2022-07-23T12:00:42Z</time>
      </trkpt>
      <trkpt lat="45.72821" lon="6.45042">
        <ele>1062</ele>
        <time>2022-07-23T12:00:43Z</time>
      </trkpt>
      <trkpt lat="45.72822" lon="6.45042">
        <ele>1062</ele>
        <time>2022-07-23T12:00:44Z</time>
      </trkpt>
      <trkpt lat="45.72823" lon="6.45042">
        <ele>1062</ele>
        <time>2022-07-23T12:00:45Z</time>
      </trkpt>
      <trkpt lat="45.72823" lon="6.45042">
        <ele>1062</ele>
        <time>2022-07-23T12:00:46Z</time>
      </trkpt>
      <trkpt lat="45.72824" lon="6.45043">
        <ele>1062</ele>
        <time>2022-07-23T12:00:47Z</time>
      </trkpt>
      <trkpt lat="45.72824" lon="6.45043">
        <ele>1062</ele>
        <time>2022-07-23T12:00:48Z</time>
      </trkpt>
      <trkpt lat="45.72825" lon="6.45044">
        <ele>1062</ele>
        <time>2022-07-23T12:00:49Z</time>
      </trkpt>
      <trkpt lat="45.72825" lon="6.45045">
        <ele>1063</ele>
        <time>2022-07-23T12:00:50Z</time>
      </trkpt>
      <trkpt lat="45.72826" lon="6.45046">
        <ele>1063</ele>
        <time>2022-07-23T12:00:51Z</time>
      </trkpt>
      <trkpt lat="45.72827" lon="6.45046">
        <ele>1063</ele>
        <time>2022-07-23T12:00:52Z</time>
      </trkpt>
      <trkpt lat="45.72828" lon="6.45047">
        <ele>1063</ele>
        <time>2022-07-23T12:00:53Z</time>
      </trkpt>
      <trkpt lat="45.72828" lon="6.45048">
        <ele>1063</ele>
        <time>2022-07-23T12:00:54Z</time>
      </trkpt>
      <trkpt lat="45.72829" lon="6.45049">
        <ele>1064</ele>
        <time>2022-07-23T12:00:55Z</time>
      </trkpt>
      <trkpt lat="45.7283" lon="6.45049">
        <ele>1064</ele>
        <time>2022-07-23T12:00:56Z</time>
      </trkpt>
      <trkpt lat="45.72831" lon="6.4505">
        <ele>1064</ele>
        <time>2022-07-23T12:00:57Z</time>
      </trkpt>
      <trkpt lat="45.72832" lon="6.4505">
        <ele>1064</ele>
        <time>2022-07-23T12:00:58Z</time>
      </trkpt>
      <trkpt lat="45.72834" lon="6.4505">
        <ele>1064</ele>
        <time>2022-07-23T12:01:05Z</time>
      </trkpt>
      <trkpt lat="45.72835" lon="6.4505">
        <ele>1064</ele>
        <time>2022-07-23T12:01:06Z</time>
      </trkpt>
      <trkpt lat="45.72835" lon="6.4505">
        <ele>1064</ele>
        <time>2022-07-23T12:01:07Z</time>
      </trkpt>
      <trkpt lat="45.72836" lon="6.45051">
        <ele>1064</ele>
        <time>2022-07-23T12:01:08Z</time>
      </trkpt>
      <trkpt lat="45.72837" lon="6.45051">
        <ele>1064</ele>
        <time>2022-07-23T12:01:09Z</time>
      </trkpt>
      <trkpt lat="45.72838" lon="6.45051">
        <ele>1064</ele>
        <time>2022-07-23T12:01:10Z</time>
      </trkpt>
      <trkpt lat="45.72838" lon="6.45051">
        <ele>1064</ele>
        <time>2022-07-23T12:01:11Z</time>
      </trkpt>
      <trkpt lat="45.72839" lon="6.4505">
        <ele>1064</ele>
        <time>2022-07-23T12:01:12Z</time>
      </trkpt>
      <trkpt lat="45.7284" lon="6.4505">
        <ele>1064</ele>
        <time>2022-07-23T12:01:13Z</time>
      </trkpt>
      <trkpt lat="45.72841" lon="6.4505">
        <ele>1064</ele>
        <time>2022-07-23T12:01:14Z</time>
      </trkpt>
      <trkpt lat="45.72842" lon="6.4505">
        <ele>1065</ele>
        <time>2022-07-23T12:01:15Z</time>
      </trkpt>
      <trkpt lat="45.72842" lon="6.4505">
        <ele>1065</ele>
        <time>2022-07-23T12:01:16Z</time>
      </trkpt>
      <trkpt lat="45.72843" lon="6.4505">
        <ele>1065</ele>
        <time>2022-07-23T12:01:17Z</time>
      </trkpt>
      <trkpt lat="45.72843" lon="6.45051">
        <ele>1065</ele>
        <time>2022-07-23T12:01:18Z</time>
      </trkpt>
      <trkpt lat="45.72844" lon="6.45051">
        <ele>1065</ele>
        <time>2022-07-23T12:01:19Z</time>
      </trkpt>
      <trkpt lat="45.72845" lon="6.45052">
        <ele>1066</ele>
        <time>2022-07-23T12:01:20Z</time>
      </trkpt>
      <trkpt lat="45.72845" lon="6.45052">
        <ele>1066</ele>
        <time>2022-07-23T12:01:21Z</time>
      </trkpt>
      <trkpt lat="45.72846" lon="6.45053">
        <ele>1066</ele>
        <time>2022-07-23T12:01:22Z</time>
      </trkpt>
      <trkpt lat="45.72847" lon="6.45053">
        <ele>1066</ele>
        <time>2022-07-23T12:01:23Z</time>
      </trkpt>
      <trkpt lat="45.72847" lon="6.45053">
        <ele>1066</ele>
        <time>2022-07-23T12:01:24Z</time>
      </trkpt>
      <trkpt lat="45.72848" lon="6.45054">
        <ele>1066</ele>
        <time>2022-07-23T12:01:25Z</time>
      </trkpt>
      <trkpt lat="45.72848" lon="6.45054">
        <ele>1066</ele>
        <time>2022-07-23T12:01:26Z</time>
      </trkpt>
      <trkpt lat="45.72849" lon="6.45054">
        <ele>1066</ele>
        <time>2022-07-23T12:01:27Z</time>
      </trkpt>
      <trkpt lat="45.7285" lon="6.45054">
        <ele>1066</ele>
        <time>2022-07-23T12:01:28Z</time>
      </trkpt>
      <trkpt lat="45.7285" lon="6.45054">
        <ele>1066</ele>
        <time>2022-07-23T12:01:29Z</time>
      </trkpt>
      <trkpt lat="45.72852" lon="6.45054">
        <ele>1067</ele>
        <time>2022-07-23T12:01:35Z</time>
      </trkpt>
      <trkpt lat="45.72853" lon="6.45054">
        <ele>1067</ele>
        <time>2022-07-23T12:01:36Z</time>
      </trkpt>
      <trkpt lat="45.72854" lon="6.45054">
        <ele>1067</ele>
        <time>2022-07-23T12:01:37Z</time>
      </trkpt>
      <trkpt lat="45.72854" lon="6.45054">
        <ele>1067</ele>
        <time>2022-07-23T12:01:38Z</time>
      </trkpt>
      <trkpt lat="45.72855" lon="6.45054">
        <ele>1067</ele>
        <time>2022-07-23T12:01:39Z</time>
      </trkpt>
      <trkpt lat="45.72856" lon="6.45054">
        <ele>1068</ele>
        <time>2022-07-23T12:01:40Z</time>
      </trkpt>
      <trkpt lat="45.72857" lon="6.45054">
        <ele>1068</ele>
        <time>2022-07-23T12:01:41Z</time>
      </trkpt>
      <trkpt lat="45.72857" lon="6.45054">
        <ele>1068</ele>
        <time>2022-07-23T12:01:42Z</time>
      </trkpt>
      <trkpt lat="45.72858" lon="6.45054">
        <ele>1068</ele>
        <time>2022-07-23T12:01:43Z</time>
      </trkpt>
      <trkpt lat="45.72859" lon="6.45054">
        <ele>1068</ele>
        <time>2022-07-23T12:01:44Z</time>
      </trkpt>
      <trkpt lat="45.7286" lon="6.45054">
        <ele>1068</ele>
        <time>2022-07-23T12:01:45Z</time>
      </trkpt>
      <trkpt lat="45.7286" lon="6.45054">
        <ele>1068</ele>
        <time>2022-07-23T12:01:46Z</time>
      </trkpt>
      <trkpt lat="45.72861" lon="6.45055">
        <ele>1068</ele>
        <time>2022-07-23T12:01:47Z</time>
      </trkpt>
      <trkpt lat="45.72862" lon="6.45055">
        <ele>1068</ele>
        <time>2022-07-23T12:01:48Z</time>
      </trkpt>
      <trkpt lat="45.72862" lon="6.45055">
        <ele>1068</ele>
        <time>2022-07-23T12:01:49Z</time>
      </trkpt>
      <trkpt lat="45.72863" lon="6.45056">
        <ele>1069</ele>
        <time>2022-07-23T12:01:50Z</time>
      </trkpt>
      <trkpt lat="45.72863" lon="6.45056">
        <ele>1069</ele>
        <time>2022-07-23T12:01:51Z</time>
      </trkpt>
      <trkpt lat="45.72864" lon="6.45056">
        <ele>1069</ele>
        <time>2022-07-23T12:01:52Z</time>
      </trkpt>
      <trkpt lat="45.72865" lon="6.45057">
        <ele>1069</ele>
        <time>2022-07-23T12:01:53Z</time>
      </trkpt>
      <trkpt lat="45.72866" lon="6.45057">
        <ele>1069</ele>
        <time>2022-07-23T12:01:54Z</time>
      </trkpt>
      <trkpt lat="45.72866" lon="6.45058">
        <ele>1069</ele>
        <time>2022-07-23T12:01:55Z</time>
      </trkpt>
      <trkpt lat="45.72867" lon="6.45059">
        <ele>1069</ele>
        <time>2022-07-23T12:01:56Z</time>
      </trkpt>
      <trkpt lat="45.72868" lon="6.4506">
        <ele>1069</ele>
        <time>2022-07-23T12:01:57Z</time>
      </trkpt>
      <trkpt lat="45.72868" lon="6.45061">
        <ele>1069</ele>
        <time>2022-07-23T12:01:58Z</time>
      </trkpt>
      <trkpt lat="45.72869" lon="6.45061">
        <ele>1069</ele>
        <time>2022-07-23T12:01:59Z</time>
      </trkpt>
      <trkpt lat="45.72869" lon="6.45062">
        <ele>1069</ele>
        <time>2022-07-23T12:02:00Z</time>
      </trkpt>
      <trkpt lat="45.7287" lon="6.45062">
        <ele>1069</ele>
        <time>2022-07-23T12:02:01Z</time>
      </trkpt>
      <trkpt lat="45.7287" lon="6.45063">
        <ele>1069</ele>
        <time>2022-07-23T12:02:02Z</time>
      </trkpt>
      <trkpt lat="45.72871" lon="6.45063">
        <ele>1069</ele>
        <time>2022-07-23T12:02:03Z</time>
      </trkpt>
      <trkpt lat="45.72872" lon="6.45064">
        <ele>1069</ele>
        <time>2022-07-23T12:02:04Z</time>
      </trkpt>
      <trkpt lat="45.72872" lon="6.45065">
        <ele>1070</ele>
        <time>2022-07-23T12:02:05Z</time>
      </trkpt>
      <trkpt lat="45.72873" lon="6.45066">
        <ele>1070</ele>
        <time>2022-07-23T12:02:06Z</time>
      </trkpt>
      <trkpt lat="45.72874" lon="6.45066">
        <ele>1070</ele>
        <time>2022-07-23T12:02:07Z</time>
      </trkpt>
      <trkpt lat="45.72874" lon="6.45066">
        <ele>1070</ele>
        <time>2022-07-23T12:02:08Z</time>
      </trkpt>
      <trkpt lat="45.72875" lon="6.45067">
        <ele>1070</ele>
        <time>2022-07-23T12:02:09Z</time>
      </trkpt>
      <trkpt lat="45.72876" lon="6.45067">
        <ele>1070</ele>
        <time>2022-07-23T12:02:10Z</time>
      </trkpt>
      <trkpt lat="45.72877" lon="6.45067">
        <ele>1070</ele>
        <time>2022-07-23T12:02:11Z</time>
      </trkpt>
      <trkpt lat="45.72878" lon="6.45067">
        <ele>1070</ele>
        <time>2022-07-23T12:02:12Z</time>
      </trkpt>
      <trkpt lat="45.72879" lon="6.45067">
        <ele>1070</ele>
        <time>2022-07-23T12:02:13Z</time>
      </trkpt>
      <trkpt lat="45.7288" lon="6.45067">
        <ele>1070</ele>
        <time>2022-07-23T12:02:14Z</time>
      </trkpt>
      <trkpt lat="45.72881" lon="6.45067">
        <ele>1071</ele>
        <time>2022-07-23T12:02:15Z</time>
      </trkpt>
      <trkpt lat="45.72881" lon="6.45067">
        <ele>1071</ele>
        <time>2022-07-23T12:02:16Z</time>
      </trkpt>
      <trkpt lat="45.72882" lon="6.45067">
        <ele>1071</ele>
        <time>2022-07-23T12:02:17Z</time>
      </trkpt>
      <trkpt lat="45.72882" lon="6.45067">
        <ele>1071</ele>
        <time>2022-07-23T12:02:18Z</time>
      </trkpt>
      <trkpt lat="45.72883" lon="6.45067">
        <ele>1071</ele>
        <time>2022-07-23T12:02:19Z</time>
      </trkpt>
      <trkpt lat="45.72884" lon="6.45067">
        <ele>1071</ele>
        <time>2022-07-23T12:02:20Z</time>
      </trkpt>
      <trkpt lat="45.72884" lon="6.45067">
        <ele>1071</ele>
        <time>2022-07-23T12:02:21Z</time>
      </trkpt>
      <trkpt lat="45.72885" lon="6.45067">
        <ele>1071</ele>
        <time>2022-07-23T12:02:22Z</time>
      </trkpt>
      <trkpt lat="45.72885" lon="6.45068">
        <ele>1071</ele>
        <time>2022-07-23T12:02:23Z</time>
      </trkpt>
      <trkpt lat="45.72886" lon="6.45068">
        <ele>1071</ele>
        <time>2022-07-23T12:02:24Z</time>
      </trkpt>
      <trkpt lat="45.72887" lon="6.45069">
        <ele>1071</ele>
        <time>2022-07-23T12:02:25Z</time>
      </trkpt>
      <trkpt lat="45.72887" lon="6.45069">
        <ele>1071</ele>
        <time>2022-07-23T12:02:26Z</time>
      </trkpt>
      <trkpt lat="45.72888" lon="6.4507">
        <ele>1071</ele>
        <time>2022-07-23T12:02:27Z</time>
      </trkpt>
      <trkpt lat="45.72889" lon="6.4507">
        <ele>1071</ele>
        <time>2022-07-23T12:02:28Z</time>
      </trkpt>
      <trkpt lat="45.72889" lon="6.45071">
        <ele>1071</ele>
        <time>2022-07-23T12:02:29Z</time>
      </trkpt>
      <trkpt lat="45.7289" lon="6.45072">
        <ele>1072</ele>
        <time>2022-07-23T12:02:30Z</time>
      </trkpt>
      <trkpt lat="45.72891" lon="6.45073">
        <ele>1072</ele>
        <time>2022-07-23T12:02:31Z</time>
      </trkpt>
      <trkpt lat="45.72891" lon="6.45074">
        <ele>1072</ele>
        <time>2022-07-23T12:02:32Z</time>
      </trkpt>
      <trkpt lat="45.72892" lon="6.45075">
        <ele>1072</ele>
        <time>2022-07-23T12:02:33Z</time>
      </trkpt>
      <trkpt lat="45.72893" lon="6.45076">
        <ele>1072</ele>
        <time>2022-07-23T12:02:34Z</time>
      </trkpt>
      <trkpt lat="45.72893" lon="6.45077">
        <ele>1072</ele>
        <time>2022-07-23T12:02:35Z</time>
      </trkpt>
      <trkpt lat="45.72894" lon="6.45079">
        <ele>1072</ele>
        <time>2022-07-23T12:02:36Z</time>
      </trkpt>
      <trkpt lat="45.72895" lon="6.4508">
        <ele>1072</ele>
        <time>2022-07-23T12:02:37Z</time>
      </trkpt>
      <trkpt lat="45.72896" lon="6.45082">
        <ele>1072</ele>
        <time>2022-07-23T12:02:38Z</time>
      </trkpt>
      <trkpt lat="45.72896" lon="6.45083">
        <ele>1072</ele>
        <time>2022-07-23T12:02:39Z</time>
      </trkpt>
      <trkpt lat="45.72897" lon="6.45085">
        <ele>1072</ele>
        <time>2022-07-23T12:02:40Z</time>
      </trkpt>
      <trkpt lat="45.72897" lon="6.45087">
        <ele>1072</ele>
        <time>2022-07-23T12:02:41Z</time>
      </trkpt>
      <trkpt lat="45.72898" lon="6.45088">
        <ele>1072</ele>
        <time>2022-07-23T12:02:42Z</time>
      </trkpt>
      <trkpt lat="45.72898" lon="6.4509">
        <ele>1072</ele>
        <time>2022-07-23T12:02:43Z</time>
      </trkpt>
      <trkpt lat="45.72899" lon="6.45091">
        <ele>1072</ele>
        <time>2022-07-23T12:02:44Z</time>
      </trkpt>
      <trkpt lat="45.729" lon="6.45092">
        <ele>1072</ele>
        <time>2022-07-23T12:02:45Z</time>
      </trkpt>
      <trkpt lat="45.729" lon="6.45093">
        <ele>1072</ele>
        <time>2022-07-23T12:02:46Z</time>
      </trkpt>
      <trkpt lat="45.72901" lon="6.45094">
        <ele>1072</ele>
        <time>2022-07-23T12:02:47Z</time>
      </trkpt>
      <trkpt lat="45.72902" lon="6.45096">
        <ele>1072</ele>
        <time>2022-07-23T12:02:48Z</time>
      </trkpt>
      <trkpt lat="45.72902" lon="6.45097">
        <ele>1072</ele>
        <time>2022-07-23T12:02:49Z</time>
      </trkpt>
      <trkpt lat="45.72903" lon="6.45098">
        <ele>1072</ele>
        <time>2022-07-23T12:02:50Z</time>
      </trkpt>
      <trkpt lat="45.72904" lon="6.451">
        <ele>1072</ele>
        <time>2022-07-23T12:02:51Z</time>
      </trkpt>
      <trkpt lat="45.72904" lon="6.45101">
        <ele>1072</ele>
        <time>2022-07-23T12:02:52Z</time>
      </trkpt>
      <trkpt lat="45.72905" lon="6.45102">
        <ele>1072</ele>
        <time>2022-07-23T12:02:53Z</time>
      </trkpt>
      <trkpt lat="45.72905" lon="6.45103">
        <ele>1072</ele>
        <time>2022-07-23T12:02:54Z</time>
      </trkpt>
      <trkpt lat="45.72906" lon="6.45104">
        <ele>1072</ele>
        <time>2022-07-23T12:02:55Z</time>
      </trkpt>
      <trkpt lat="45.72907" lon="6.45105">
        <ele>1072</ele>
        <time>2022-07-23T12:02:56Z</time>
      </trkpt>
      <trkpt lat="45.72907" lon="6.45106">
        <ele>1072</ele>
        <time>2022-07-23T12:02:57Z</time>
      </trkpt>
      <trkpt lat="45.72908" lon="6.45106">
        <ele>1072</ele>
        <time>2022-07-23T12:02:58Z</time>
      </trkpt>
      <trkpt lat="45.72909" lon="6.45107">
        <ele>1072</ele>
        <time>2022-07-23T12:02:59Z</time>
      </trkpt>
      <trkpt lat="45.72909" lon="6.45107">
        <ele>1072</ele>
        <time>2022-07-23T12:03:00Z</time>
      </trkpt>
      <trkpt lat="45.72909" lon="6.45108">
        <ele>1072</ele>
        <time>2022-07-23T12:03:01Z</time>
      </trkpt>
      <trkpt lat="45.7291" lon="6.4511">
        <ele>1073</ele>
        <time>2022-07-23T12:03:14Z</time>
      </trkpt>
      <trkpt lat="45.7291" lon="6.45111">
        <ele>1073</ele>
        <time>2022-07-23T12:03:15Z</time>
      </trkpt>
      <trkpt lat="45.7291" lon="6.45112">
        <ele>1073</ele>
        <time>2022-07-23T12:03:16Z</time>
      </trkpt>
      <trkpt lat="45.72911" lon="6.45112">
        <ele>1073</ele>
        <time>2022-07-23T12:03:17Z</time>
      </trkpt>
      <trkpt lat="45.72911" lon="6.45113">
        <ele>1073</ele>
        <time>2022-07-23T12:03:18Z</time>
      </trkpt>
      <trkpt lat="45.72912" lon="6.45114">
        <ele>1073</ele>
        <time>2022-07-23T12:03:19Z</time>
      </trkpt>
      <trkpt lat="45.72912" lon="6.45115">
        <ele>1073</ele>
        <time>2022-07-23T12:03:20Z</time>
      </trkpt>
      <trkpt lat="45.72913" lon="6.45116">
        <ele>1073</ele>
        <time>2022-07-23T12:03:21Z</time>
      </trkpt>
      <trkpt lat="45.72913" lon="6.45116">
        <ele>1073</ele>
        <time>2022-07-23T12:03:22Z</time>
      </trkpt>
      <trkpt lat="45.72914" lon="6.45117">
        <ele>1073</ele>
        <time>2022-07-23T12:03:23Z</time>
      </trkpt>
      <trkpt lat="45.72914" lon="6.45118">
        <ele>1073</ele>
        <time>2022-07-23T12:03:24Z</time>
      </trkpt>
      <trkpt lat="45.72915" lon="6.45119">
        <ele>1073</ele>
        <time>2022-07-23T12:03:25Z</time>
      </trkpt>
      <trkpt lat="45.72916" lon="6.4512">
        <ele>1073</ele>
        <time>2022-07-23T12:03:26Z</time>
      </trkpt>
      <trkpt lat="45.72917" lon="6.45121">
        <ele>1073</ele>
        <time>2022-07-23T12:03:27Z</time>
      </trkpt>
      <trkpt lat="45.72918" lon="6.45122">
        <ele>1073</ele>
        <time>2022-07-23T12:03:28Z</time>
      </trkpt>
      <trkpt lat="45.72919" lon="6.45124">
        <ele>1073</ele>
        <time>2022-07-23T12:03:29Z</time>
      </trkpt>
      <trkpt lat="45.7292" lon="6.45125">
        <ele>1073</ele>
        <time>2022-07-23T12:03:30Z</time>
      </trkpt>
      <trkpt lat="45.72921" lon="6.45126">
        <ele>1073</ele>
        <time>2022-07-23T12:03:31Z</time>
      </trkpt>
      <trkpt lat="45.72922" lon="6.45127">
        <ele>1073</ele>
        <time>2022-07-23T12:03:32Z</time>
      </trkpt>
      <trkpt lat="45.72923" lon="6.45128">
        <ele>1073</ele>
        <time>2022-07-23T12:03:33Z</time>
      </trkpt>
      <trkpt lat="45.72924" lon="6.45129">
        <ele>1073</ele>
        <time>2022-07-23T12:03:34Z</time>
      </trkpt>
      <trkpt lat="45.72925" lon="6.4513">
        <ele>1073</ele>
        <time>2022-07-23T12:03:35Z</time>
      </trkpt>
      <trkpt lat="45.72926" lon="6.45131">
        <ele>1073</ele>
        <time>2022-07-23T12:03:36Z</time>
      </trkpt>
      <trkpt lat="45.72927" lon="6.45131">
        <ele>1073</ele>
        <time>2022-07-23T12:03:37Z</time>
      </trkpt>
      <trkpt lat="45.72928" lon="6.45131">
        <ele>1073</ele>
        <time>2022-07-23T12:03:38Z</time>
      </trkpt>
      <trkpt lat="45.72928" lon="6.45132">
        <ele>1073</ele>
        <time>2022-07-23T12:03:39Z</time>
      </trkpt>
      <trkpt lat="45.72929" lon="6.45132">
        <ele>1074</ele>
        <time>2022-07-23T12:03:40Z</time>
      </trkpt>
      <trkpt lat="45.7293" lon="6.45133">
        <ele>1074</ele>
        <time>2022-07-23T12:03:41Z</time>
      </trkpt>
      <trkpt lat="45.72931" lon="6.45134">
        <ele>1074</ele>
        <time>2022-07-23T12:03:42Z</time>
      </trkpt>
      <trkpt lat="45.72932" lon="6.45134">
        <ele>1074</ele>
        <time>2022-07-23T12:03:43Z</time>
      </trkpt>
      <trkpt lat="45.72932" lon="6.45135">
        <ele>1074</ele>
        <time>2022-07-23T12:03:44Z</time>
      </trkpt>
      <trkpt lat="45.72933" lon="6.45135">
        <ele>1074</ele>
        <time>2022-07-23T12:03:45Z</time>
      </trkpt>
      <trkpt lat="45.72934" lon="6.45135">
        <ele>1074</ele>
        <time>2022-07-23T12:03:46Z</time>
      </trkpt>
      <trkpt lat="45.72935" lon="6.45135">
        <ele>1074</ele>
        <time>2022-07-23T12:03:47Z</time>
      </trkpt>
      <trkpt lat="45.72935" lon="6.45135">
        <ele>1074</ele>
        <time>2022-07-23T12:03:48Z</time>
      </trkpt>
      <trkpt lat="45.72936" lon="6.45135">
        <ele>1074</ele>
        <time>2022-07-23T12:03:49Z</time>
      </trkpt>
      <trkpt lat="45.72936" lon="6.45135">
        <ele>1074</ele>
        <time>2022-07-23T12:03:50Z</time>
      </trkpt>
      <trkpt lat="45.72937" lon="6.45135">
        <ele>1074</ele>
        <time>2022-07-23T12:03:51Z</time>
      </trkpt>
      <trkpt lat="45.72938" lon="6.45135">
        <ele>1074</ele>
        <time>2022-07-23T12:03:52Z</time>
      </trkpt>
      <trkpt lat="45.72939" lon="6.45135">
        <ele>1074</ele>
        <time>2022-07-23T12:03:53Z</time>
      </trkpt>
      <trkpt lat="45.72939" lon="6.45135">
        <ele>1074</ele>
        <time>2022-07-23T12:03:54Z</time>
      </trkpt>
      <trkpt lat="45.7294" lon="6.45135">
        <ele>1075</ele>
        <time>2022-07-23T12:03:55Z</time>
      </trkpt>
      <trkpt lat="45.72941" lon="6.45135">
        <ele>1075</ele>
        <time>2022-07-23T12:03:56Z</time>
      </trkpt>
      <trkpt lat="45.72942" lon="6.45135">
        <ele>1075</ele>
        <time>2022-07-23T12:03:57Z</time>
      </trkpt>
      <trkpt lat="45.72943" lon="6.45134">
        <ele>1075</ele>
        <time>2022-07-23T12:03:58Z</time>
      </trkpt>
      <trkpt lat="45.72943" lon="6.45134">
        <ele>1075</ele>
        <time>2022-07-23T12:03:59Z</time>
      </trkpt>
      <trkpt lat="45.72944" lon="6.45134">
        <ele>1075</ele>
        <time>2022-07-23T12:04:00Z</time>
      </trkpt>
      <trkpt lat="45.72945" lon="6.45134">
        <ele>1075</ele>
        <time>2022-07-23T12:04:01Z</time>
      </trkpt>
      <trkpt lat="45.72946" lon="6.45133">
        <ele>1075</ele>
        <time>2022-07-23T12:04:02Z</time>
      </trkpt>
      <trkpt lat="45.72947" lon="6.45133">
        <ele>1075</ele>
        <time>2022-07-23T12:04:03Z</time>
      </trkpt>
      <trkpt lat="45.72948" lon="6.45133">
        <ele>1075</ele>
        <time>2022-07-23T12:04:04Z</time>
      </trkpt>
      <trkpt lat="45.72949" lon="6.45133">
        <ele>1075</ele>
        <time>2022-07-23T12:04:05Z</time>
      </trkpt>
      <trkpt lat="45.72949" lon="6.45133">
        <ele>1075</ele>
        <time>2022-07-23T12:04:06Z</time>
      </trkpt>
      <trkpt lat="45.7295" lon="6.45133">
        <ele>1075</ele>
        <time>2022-07-23T12:04:07Z</time>
      </trkpt>
      <trkpt lat="45.72951" lon="6.45134">
        <ele>1075</ele>
        <time>2022-07-23T12:04:08Z</time>
      </trkpt>
      <trkpt lat="45.72951" lon="6.45134">
        <ele>1075</ele>
        <time>2022-07-23T12:04:09Z</time>
      </trkpt>
      <trkpt lat="45.72952" lon="6.45134">
        <ele>1076</ele>
        <time>2022-07-23T12:04:10Z</time>
      </trkpt>
      <trkpt lat="45.72953" lon="6.45134">
        <ele>1076</ele>
        <time>2022-07-23T12:04:11Z</time>
      </trkpt>
      <trkpt lat="45.72953" lon="6.45134">
        <ele>1076</ele>
        <time>2022-07-23T12:04:12Z</time>
      </trkpt>
      <trkpt lat="45.72954" lon="6.45134">
        <ele>1076</ele>
        <time>2022-07-23T12:04:13Z</time>
      </trkpt>
      <trkpt lat="45.72954" lon="6.45134">
        <ele>1076</ele>
        <time>2022-07-23T12:04:14Z</time>
      </trkpt>
      <trkpt lat="45.72956" lon="6.45133">
        <ele>1077</ele>
        <time>2022-07-23T12:04:20Z</time>
      </trkpt>
      <trkpt lat="45.72956" lon="6.45132">
        <ele>1077</ele>
        <time>2022-07-23T12:04:21Z</time>
      </trkpt>
      <trkpt lat="45.72957" lon="6.45132">
        <ele>1077</ele>
        <time>2022-07-23T12:04:22Z</time>
      </trkpt>
      <trkpt lat="45.72958" lon="6.45132">
        <ele>1078</ele>
        <time>2022-07-23T12:04:23Z</time>
      </trkpt>
      <trkpt lat="45.72958" lon="6.45132">
        <ele>1078</ele>
        <time>2022-07-23T12:04:24Z</time>
      </trkpt>
      <trkpt lat="45.72958" lon="6.45133">
        <ele>1079</ele>
        <time>2022-07-23T12:04:25Z</time>
      </trkpt>
      <trkpt lat="45.72958" lon="6.45134">
        <ele>1079</ele>
        <time>2022-07-23T12:04:26Z</time>
      </trkpt>
      <trkpt lat="45.7296" lon="6.45134">
        <ele>1082</ele>
        <time>2022-07-23T12:04:50Z</time>
      </trkpt>
      <trkpt lat="45.7296" lon="6.45134">
        <ele>1082</ele>
        <time>2022-07-23T12:04:51Z</time>
      </trkpt>
      <trkpt lat="45.72961" lon="6.45134">
        <ele>1082</ele>
        <time>2022-07-23T12:04:52Z</time>
      </trkpt>
      <trkpt lat="45.72961" lon="6.45131">
        <ele>1085</ele>
        <time>2022-07-23T12:05:47Z</time>
      </trkpt>
      <trkpt lat="45.72961" lon="6.45129">
        <ele>1085</ele>
        <time>2022-07-23T12:05:48Z</time>
      </trkpt>
      <trkpt lat="45.72961" lon="6.45128">
        <ele>1085</ele>
        <time>2022-07-23T12:05:49Z</time>
      </trkpt>
      <trkpt lat="45.72966" lon="6.45124">
        <ele>1089</ele>
        <time>2022-07-23T12:08:10Z</time>
      </trkpt>
      <trkpt lat="45.72968" lon="6.45122">
        <ele>1089</ele>
        <time>2022-07-23T12:08:11Z</time>
      </trkpt>
      <trkpt lat="45.7297" lon="6.45121">
        <ele>1089</ele>
        <time>2022-07-23T12:08:12Z</time>
      </trkpt>
      <trkpt lat="45.72971" lon="6.4512">
        <ele>1089</ele>
        <time>2022-07-23T12:08:13Z</time>
      </trkpt>
      <trkpt lat="45.72972" lon="6.4512">
        <ele>1089</ele>
        <time>2022-07-23T12:08:14Z</time>
      </trkpt>
      <trkpt lat="45.72973" lon="6.45123">
        <ele>1090</ele>
        <time>2022-07-23T12:08:51Z</time>
      </trkpt>
      <trkpt lat="45.72974" lon="6.45124">
        <ele>1090</ele>
        <time>2022-07-23T12:08:52Z</time>
      </trkpt>
      <trkpt lat="45.72975" lon="6.45125">
        <ele>1090</ele>
        <time>2022-07-23T12:08:53Z</time>
      </trkpt>
      <trkpt lat="45.72978" lon="6.45125">
        <ele>1093</ele>
        <time>2022-07-23T12:09:38Z</time>
      </trkpt>
      <trkpt lat="45.7298" lon="6.45125">
        <ele>1093</ele>
        <time>2022-07-23T12:09:39Z</time>
      </trkpt>
      <trkpt lat="45.72982" lon="6.45125">
        <ele>1093</ele>
        <time>2022-07-23T12:09:40Z</time>
      </trkpt>
      <trkpt lat="45.72983" lon="6.45126">
        <ele>1093</ele>
        <time>2022-07-23T12:09:41Z</time>
      </trkpt>
      <trkpt lat="45.72984" lon="6.45126">
        <ele>1093</ele>
        <time>2022-07-23T12:09:42Z</time>
      </trkpt>
      <trkpt lat="45.72986" lon="6.45128">
        <ele>1094</ele>
        <time>2022-07-23T12:09:53Z</time>
      </trkpt>
      <trkpt lat="45.72987" lon="6.45129">
        <ele>1094</ele>
        <time>2022-07-23T12:09:54Z</time>
      </trkpt>
      <trkpt lat="45.72988" lon="6.4513">
        <ele>1095</ele>
        <time>2022-07-23T12:09:55Z</time>
      </trkpt>
      <trkpt lat="45.72988" lon="6.4513">
        <ele>1095</ele>
        <time>2022-07-23T12:09:56Z</time>
      </trkpt>
      <trkpt lat="45.72989" lon="6.45131">
        <ele>1095</ele>
        <time>2022-07-23T12:09:57Z</time>
      </trkpt>
      <trkpt lat="45.7299" lon="6.45131">
        <ele>1096</ele>
        <time>2022-07-23T12:09:58Z</time>
      </trkpt>
      <trkpt lat="45.7299" lon="6.45131">
        <ele>1096</ele>
        <time>2022-07-23T12:09:59Z</time>
      </trkpt>
      <trkpt lat="45.72991" lon="6.45132">
        <ele>1097</ele>
        <time>2022-07-23T12:10:00Z</time>
      </trkpt>
      <trkpt lat="45.72991" lon="6.45132">
        <ele>1097</ele>
        <time>2022-07-23T12:10:01Z</time>
      </trkpt>
      <trkpt lat="45.72992" lon="6.45132">
        <ele>1097</ele>
        <time>2022-07-23T12:10:02Z</time>
      </trkpt>
      <trkpt lat="45.72992" lon="6.45132">
        <ele>1097</ele>
        <time>2022-07-23T12:10:03Z</time>
      </trkpt>
      <trkpt lat="45.72993" lon="6.45132">
        <ele>1097</ele>
        <time>2022-07-23T12:10:04Z</time>
      </trkpt>
      <trkpt lat="45.72993" lon="6.45132">
        <ele>1097</ele>
        <time>2022-07-23T12:10:05Z</time>
      </trkpt>
      <trkpt lat="45.72994" lon="6.45133">
        <ele>1097</ele>
        <time>2022-07-23T12:10:06Z</time>
      </trkpt>
      <trkpt lat="45.72994" lon="6.45133">
        <ele>1097</ele>
        <time>2022-07-23T12:10:07Z</time>
      </trkpt>
      <trkpt lat="45.72995" lon="6.45133">
        <ele>1097</ele>
        <time>2022-07-23T12:10:08Z</time>
      </trkpt>
      <trkpt lat="45.72995" lon="6.45133">
        <ele>1097</ele>
        <time>2022-07-23T12:10:09Z</time>
      </trkpt>
      <trkpt lat="45.72996" lon="6.45134">
        <ele>1098</ele>
        <time>2022-07-23T12:10:10Z</time>
      </trkpt>
      <trkpt lat="45.72997" lon="6.45135">
        <ele>1098</ele>
        <time>2022-07-23T12:10:11Z</time>
      </trkpt>
      <trkpt lat="45.72998" lon="6.45135">
        <ele>1098</ele>
        <time>2022-07-23T12:10:12Z</time>
      </trkpt>
      <trkpt lat="45.73" lon="6.45136">
        <ele>1098</ele>
        <time>2022-07-23T12:10:13Z</time>
      </trkpt>
      <trkpt lat="45.73001" lon="6.45136">
        <ele>1098</ele>
        <time>2022-07-23T12:10:14Z</time>
      </trkpt>
      <trkpt lat="45.73002" lon="6.45137">
        <ele>1098</ele>
        <time>2022-07-23T12:10:15Z</time>
      </trkpt>
      <trkpt lat="45.73003" lon="6.45137">
        <ele>1098</ele>
        <time>2022-07-23T12:10:16Z</time>
      </trkpt>
      <trkpt lat="45.73004" lon="6.45137">
        <ele>1098</ele>
        <time>2022-07-23T12:10:17Z</time>
      </trkpt>
      <trkpt lat="45.73004" lon="6.45137">
        <ele>1098</ele>
        <time>2022-07-23T12:10:18Z</time>
      </trkpt>
      <trkpt lat="45.73005" lon="6.45137">
        <ele>1098</ele>
        <time>2022-07-23T12:10:19Z</time>
      </trkpt>
      <trkpt lat="45.73006" lon="6.45137">
        <ele>1099</ele>
        <time>2022-07-23T12:10:20Z</time>
      </trkpt>
      <trkpt lat="45.73006" lon="6.45137">
        <ele>1099</ele>
        <time>2022-07-23T12:10:21Z</time>
      </trkpt>
      <trkpt lat="45.73007" lon="6.45137">
        <ele>1099</ele>
        <time>2022-07-23T12:10:22Z</time>
      </trkpt>
      <trkpt lat="45.73007" lon="6.45137">
        <ele>1099</ele>
        <time>2022-07-23T12:10:23Z</time>
      </trkpt>
      <trkpt lat="45.73007" lon="6.45137">
        <ele>1099</ele>
        <time>2022-07-23T12:10:24Z</time>
      </trkpt>
      <trkpt lat="45.73008" lon="6.45137">
        <ele>1099</ele>
        <time>2022-07-23T12:10:25Z</time>
      </trkpt>
      <trkpt lat="45.73009" lon="6.45137">
        <ele>1099</ele>
        <time>2022-07-23T12:10:26Z</time>
      </trkpt>
      <trkpt lat="45.73009" lon="6.45137">
        <ele>1099</ele>
        <time>2022-07-23T12:10:27Z</time>
      </trkpt>
      <trkpt lat="45.7301" lon="6.45137">
        <ele>1099</ele>
        <time>2022-07-23T12:10:28Z</time>
      </trkpt>
      <trkpt lat="45.7301" lon="6.45138">
        <ele>1099</ele>
        <time>2022-07-23T12:10:29Z</time>
      </trkpt>
      <trkpt lat="45.73011" lon="6.45138">
        <ele>1099</ele>
        <time>2022-07-23T12:10:30Z</time>
      </trkpt>
      <trkpt lat="45.73015" lon="6.4514">
        <ele>1101</ele>
        <time>2022-07-23T12:10:51Z</time>
      </trkpt>
      <trkpt lat="45.73017" lon="6.45141">
        <ele>1101</ele>
        <time>2022-07-23T12:10:52Z</time>
      </trkpt>
      <trkpt lat="45.73019" lon="6.45142">
        <ele>1101</ele>
        <time>2022-07-23T12:10:53Z</time>
      </trkpt>
      <trkpt lat="45.7302" lon="6.45143">
        <ele>1101</ele>
        <time>2022-07-23T12:10:54Z</time>
      </trkpt>
      <trkpt lat="45.73021" lon="6.45143">
        <ele>1102</ele>
        <time>2022-07-23T12:10:55Z</time>
      </trkpt>
      <trkpt lat="45.73022" lon="6.45143">
        <ele>1102</ele>
        <time>2022-07-23T12:10:56Z</time>
      </trkpt>
      <trkpt lat="45.73023" lon="6.45143">
        <ele>1102</ele>
        <time>2022-07-23T12:10:57Z</time>
      </trkpt>
      <trkpt lat="45.73023" lon="6.45143">
        <ele>1102</ele>
        <time>2022-07-23T12:10:58Z</time>
      </trkpt>
      <trkpt lat="45.73024" lon="6.45143">
        <ele>1102</ele>
        <time>2022-07-23T12:10:59Z</time>
      </trkpt>
      <trkpt lat="45.73024" lon="6.45143">
        <ele>1103</ele>
        <time>2022-07-23T12:11:00Z</time>
      </trkpt>
      <trkpt lat="45.73025" lon="6.45144">
        <ele>1103</ele>
        <time>2022-07-23T12:11:01Z</time>
      </trkpt>
      <trkpt lat="45.73025" lon="6.45144">
        <ele>1103</ele>
        <time>2022-07-23T12:11:02Z</time>
      </trkpt>
      <trkpt lat="45.73026" lon="6.45145">
        <ele>1103</ele>
        <time>2022-07-23T12:11:03Z</time>
      </trkpt>
      <trkpt lat="45.73027" lon="6.45145">
        <ele>1103</ele>
        <time>2022-07-23T12:11:04Z</time>
      </trkpt>
      <trkpt lat="45.73027" lon="6.45145">
        <ele>1103</ele>
        <time>2022-07-23T12:11:05Z</time>
      </trkpt>
      <trkpt lat="45.73027" lon="6.45146">
        <ele>1103</ele>
        <time>2022-07-23T12:11:06Z</time>
      </trkpt>
      <trkpt lat="45.73029" lon="6.45146">
        <ele>1104</ele>
        <time>2022-07-23T12:11:13Z</time>
      </trkpt>
      <trkpt lat="45.73029" lon="6.45147">
        <ele>1104</ele>
        <time>2022-07-23T12:11:14Z</time>
      </trkpt>
      <trkpt lat="45.7303" lon="6.45148">
        <ele>1105</ele>
        <time>2022-07-23T12:11:15Z</time>
      </trkpt>
      <trkpt lat="45.73031" lon="6.45148">
        <ele>1105</ele>
        <time>2022-07-23T12:11:16Z</time>
      </trkpt>
      <trkpt lat="45.73032" lon="6.45149">
        <ele>1105</ele>
        <time>2022-07-23T12:11:17Z</time>
      </trkpt>
      <trkpt lat="45.73032" lon="6.45149">
        <ele>1105</ele>
        <time>2022-07-23T12:11:18Z</time>
      </trkpt>
      <trkpt lat="45.73033" lon="6.45149">
        <ele>1105</ele>
        <time>2022-07-23T12:11:19Z</time>
      </trkpt>
      <trkpt lat="45.73034" lon="6.4515">
        <ele>1105</ele>
        <time>2022-07-23T12:11:20Z</time>
      </trkpt>
      <trkpt lat="45.73034" lon="6.4515">
        <ele>1105</ele>
        <time>2022-07-23T12:11:21Z</time>
      </trkpt>
      <trkpt lat="45.73035" lon="6.4515">
        <ele>1105</ele>
        <time>2022-07-23T12:11:22Z</time>
      </trkpt>
      <trkpt lat="45.73035" lon="6.4515">
        <ele>1105</ele>
        <time>2022-07-23T12:11:23Z</time>
      </trkpt>
      <trkpt lat="45.73036" lon="6.4515">
        <ele>1105</ele>
        <time>2022-07-23T12:11:24Z</time>
      </trkpt>
      <trkpt lat="45.73037" lon="6.4515">
        <ele>1106</ele>
        <time>2022-07-23T12:11:25Z</time>
      </trkpt>
      <trkpt lat="45.73037" lon="6.45151">
        <ele>1106</ele>
        <time>2022-07-23T12:11:26Z</time>
      </trkpt>
      <trkpt lat="45.73038" lon="6.45151">
        <ele>1106</ele>
        <time>2022-07-23T12:11:27Z</time>
      </trkpt>
      <trkpt lat="45.73039" lon="6.45151">
        <ele>1106</ele>
        <time>2022-07-23T12:11:28Z</time>
      </trkpt>
      <trkpt lat="45.73039" lon="6.45152">
        <ele>1106</ele>
        <time>2022-07-23T12:11:29Z</time>
      </trkpt>
      <trkpt lat="45.7304" lon="6.45152">
        <ele>1107</ele>
        <time>2022-07-23T12:11:30Z</time>
      </trkpt>
      <trkpt lat="45.73041" lon="6.45152">
        <ele>1107</ele>
        <time>2022-07-23T12:11:31Z</time>
      </trkpt>
      <trkpt lat="45.73041" lon="6.45153">
        <ele>1107</ele>
        <time>2022-07-23T12:11:32Z</time>
      </trkpt>
      <trkpt lat="45.73044" lon="6.45155">
        <ele>1108</ele>
        <time>2022-07-23T12:11:47Z</time>
      </trkpt>
      <trkpt lat="45.73045" lon="6.45156">
        <ele>1108</ele>
        <time>2022-07-23T12:11:48Z</time>
      </trkpt>
      <trkpt lat="45.73046" lon="6.45157">
        <ele>1108</ele>
        <time>2022-07-23T12:11:49Z</time>
      </trkpt>
      <trkpt lat="45.73046" lon="6.45158">
        <ele>1109</ele>
        <time>2022-07-23T12:11:50Z</time>
      </trkpt>
      <trkpt lat="45.73047" lon="6.45158">
        <ele>1109</ele>
        <time>2022-07-23T12:11:51Z</time>
      </trkpt>
      <trkpt lat="45.73047" lon="6.45159">
        <ele>1109</ele>
        <time>2022-07-23T12:11:52Z</time>
      </trkpt>
      <trkpt lat="45.73048" lon="6.4516">
        <ele>1109</ele>
        <time>2022-07-23T12:11:53Z</time>
      </trkpt>
      <trkpt lat="45.73048" lon="6.45161">
        <ele>1109</ele>
        <time>2022-07-23T12:11:54Z</time>
      </trkpt>
      <trkpt lat="45.73049" lon="6.45162">
        <ele>1109</ele>
        <time>2022-07-23T12:11:55Z</time>
      </trkpt>
      <trkpt lat="45.73049" lon="6.45162">
        <ele>1109</ele>
        <time>2022-07-23T12:11:56Z</time>
      </trkpt>
      <trkpt lat="45.73049" lon="6.45163">
        <ele>1109</ele>
        <time>2022-07-23T12:11:57Z</time>
      </trkpt>
      <trkpt lat="45.73049" lon="6.45164">
        <ele>1109</ele>
        <time>2022-07-23T12:11:58Z</time>
      </trkpt>
      <trkpt lat="45.73053" lon="6.45169">
        <ele>1114</ele>
        <time>2022-07-23T12:12:29Z</time>
      </trkpt>
      <trkpt lat="45.73055" lon="6.45171">
        <ele>1115</ele>
        <time>2022-07-23T12:12:30Z</time>
      </trkpt>
      <trkpt lat="45.73057" lon="6.45174">
        <ele>1115</ele>
        <time>2022-07-23T12:12:31Z</time>
      </trkpt>
      <trkpt lat="45.73061" lon="6.45176">
        <ele>1120</ele>
        <time>2022-07-23T12:13:59Z</time>
      </trkpt>
      <trkpt lat="45.73062" lon="6.45177">
        <ele>1120</ele>
        <time>2022-07-23T12:14:00Z</time>
      </trkpt>
      <trkpt lat="45.73064" lon="6.45177">
        <ele>1120</ele>
        <time>2022-07-23T12:14:01Z</time>
      </trkpt>
      <trkpt lat="45.73064" lon="6.45178">
        <ele>1120</ele>
        <time>2022-07-23T12:14:02Z</time>
      </trkpt>
      <trkpt lat="45.73065" lon="6.45179">
        <ele>1120</ele>
        <time>2022-07-23T12:14:03Z</time>
      </trkpt>
      <trkpt lat="45.73065" lon="6.4518">
        <ele>1120</ele>
        <time>2022-07-23T12:14:04Z</time>
      </trkpt>
      <trkpt lat="45.73065" lon="6.4518">
        <ele>1121</ele>
        <time>2022-07-23T12:14:05Z</time>
      </trkpt>
      <trkpt lat="45.73066" lon="6.45181">
        <ele>1121</ele>
        <time>2022-07-23T12:14:06Z</time>
      </trkpt>
      <trkpt lat="45.73066" lon="6.45182">
        <ele>1121</ele>
        <time>2022-07-23T12:14:07Z</time>
      </trkpt>
      <trkpt lat="45.73066" lon="6.45183">
        <ele>1121</ele>
        <time>2022-07-23T12:14:08Z</time>
      </trkpt>
      <trkpt lat="45.73066" lon="6.45183">
        <ele>1121</ele>
        <time>2022-07-23T12:14:09Z</time>
      </trkpt>
      <trkpt lat="45.73067" lon="6.45184">
        <ele>1121</ele>
        <time>2022-07-23T12:14:10Z</time>
      </trkpt>
      <trkpt lat="45.73067" lon="6.45185">
        <ele>1121</ele>
        <time>2022-07-23T12:14:11Z</time>
      </trkpt>
      <trkpt lat="45.73067" lon="6.45186">
        <ele>1121</ele>
        <time>2022-07-23T12:14:12Z</time>
      </trkpt>
      <trkpt lat="45.73068" lon="6.45186">
        <ele>1121</ele>
        <time>2022-07-23T12:14:13Z</time>
      </trkpt>
      <trkpt lat="45.73068" lon="6.45187">
        <ele>1121</ele>
        <time>2022-07-23T12:14:14Z</time>
      </trkpt>
      <trkpt lat="45.73068" lon="6.45188">
        <ele>1121</ele>
        <time>2022-07-23T12:14:15Z</time>
      </trkpt>
      <trkpt lat="45.73068" lon="6.45189">
        <ele>1121</ele>
        <time>2022-07-23T12:14:16Z</time>
      </trkpt>
      <trkpt lat="45.73069" lon="6.45191">
        <ele>1121</ele>
        <time>2022-07-23T12:14:17Z</time>
      </trkpt>
      <trkpt lat="45.73069" lon="6.45192">
        <ele>1121</ele>
        <time>2022-07-23T12:14:18Z</time>
      </trkpt>
      <trkpt lat="45.73069" lon="6.45193">
        <ele>1121</ele>
        <time>2022-07-23T12:14:19Z</time>
      </trkpt>
      <trkpt lat="45.73069" lon="6.45194">
        <ele>1122</ele>
        <time>2022-07-23T12:14:20Z</time>
      </trkpt>
      <trkpt lat="45.7307" lon="6.45195">
        <ele>1122</ele>
        <time>2022-07-23T12:14:21Z</time>
      </trkpt>
      <trkpt lat="45.7307" lon="6.45195">
        <ele>1122</ele>
        <time>2022-07-23T12:14:22Z</time>
      </trkpt>
      <trkpt lat="45.7307" lon="6.45196">
        <ele>1122</ele>
        <time>2022-07-23T12:14:23Z</time>
      </trkpt>
      <trkpt lat="45.73071" lon="6.45197">
        <ele>1122</ele>
        <time>2022-07-23T12:14:24Z</time>
      </trkpt>
      <trkpt lat="45.73071" lon="6.45198">
        <ele>1123</ele>
        <time>2022-07-23T12:14:25Z</time>
      </trkpt>
      <trkpt lat="45.73072" lon="6.45199">
        <ele>1123</ele>
        <time>2022-07-23T12:14:26Z</time>
      </trkpt>
      <trkpt lat="45.73073" lon="6.45201">
        <ele>1124</ele>
        <time>2022-07-23T12:14:36Z</time>
      </trkpt>
      <trkpt lat="45.73074" lon="6.45202">
        <ele>1124</ele>
        <time>2022-07-23T12:14:37Z</time>
      </trkpt>
      <trkpt lat="45.73075" lon="6.45203">
        <ele>1124</ele>
        <time>2022-07-23T12:14:38Z</time>
      </trkpt>
      <trkpt lat="45.73076" lon="6.45204">
        <ele>1124</ele>
        <time>2022-07-23T12:14:39Z</time>
      </trkpt>
      <trkpt lat="45.73076" lon="6.45205">
        <ele>1125</ele>
        <time>2022-07-23T12:14:40Z</time>
      </trkpt>
      <trkpt lat="45.73077" lon="6.45206">
        <ele>1125</ele>
        <time>2022-07-23T12:14:41Z</time>
      </trkpt>
      <trkpt lat="45.73077" lon="6.45206">
        <ele>1125</ele>
        <time>2022-07-23T12:14:42Z</time>
      </trkpt>
      <trkpt lat="45.73078" lon="6.45207">
        <ele>1125</ele>
        <time>2022-07-23T12:14:43Z</time>
      </trkpt>
      <trkpt lat="45.73078" lon="6.45208">
        <ele>1125</ele>
        <time>2022-07-23T12:14:44Z</time>
      </trkpt>
      <trkpt lat="45.73079" lon="6.45208">
        <ele>1125</ele>
        <time>2022-07-23T12:14:45Z</time>
      </trkpt>
      <trkpt lat="45.73079" lon="6.45209">
        <ele>1125</ele>
        <time>2022-07-23T12:14:46Z</time>
      </trkpt>
      <trkpt lat="45.7308" lon="6.4521">
        <ele>1125</ele>
        <time>2022-07-23T12:14:47Z</time>
      </trkpt>
      <trkpt lat="45.7308" lon="6.4521">
        <ele>1125</ele>
        <time>2022-07-23T12:14:48Z</time>
      </trkpt>
      <trkpt lat="45.73082" lon="6.45212">
        <ele>1128</ele>
        <time>2022-07-23T12:15:11Z</time>
      </trkpt>
      <trkpt lat="45.73082" lon="6.45212">
        <ele>1128</ele>
        <time>2022-07-23T12:15:12Z</time>
      </trkpt>
      <trkpt lat="45.73083" lon="6.45213">
        <ele>1128</ele>
        <time>2022-07-23T12:15:13Z</time>
      </trkpt>
      <trkpt lat="45.73084" lon="6.45213">
        <ele>1128</ele>
        <time>2022-07-23T12:15:14Z</time>
      </trkpt>
      <trkpt lat="45.73084" lon="6.45214">
        <ele>1128</ele>
        <time>2022-07-23T12:15:15Z</time>
      </trkpt>
      <trkpt lat="45.73085" lon="6.45214">
        <ele>1128</ele>
        <time>2022-07-23T12:15:16Z</time>
      </trkpt>
      <trkpt lat="45.73086" lon="6.45215">
        <ele>1128</ele>
        <time>2022-07-23T12:15:17Z</time>
      </trkpt>
      <trkpt lat="45.73086" lon="6.45215">
        <ele>1128</ele>
        <time>2022-07-23T12:15:18Z</time>
      </trkpt>
      <trkpt lat="45.73087" lon="6.45216">
        <ele>1128</ele>
        <time>2022-07-23T12:15:19Z</time>
      </trkpt>
      <trkpt lat="45.73088" lon="6.45216">
        <ele>1129</ele>
        <time>2022-07-23T12:15:20Z</time>
      </trkpt>
      <trkpt lat="45.73089" lon="6.45217">
        <ele>1129</ele>
        <time>2022-07-23T12:15:21Z</time>
      </trkpt>
      <trkpt lat="45.73089" lon="6.45218">
        <ele>1129</ele>
        <time>2022-07-23T12:15:22Z</time>
      </trkpt>
      <trkpt lat="45.7309" lon="6.45218">
        <ele>1129</ele>
        <time>2022-07-23T12:15:23Z</time>
      </trkpt>
      <trkpt lat="45.73092" lon="6.45221">
        <ele>1133</ele>
        <time>2022-07-23T12:15:55Z</time>
      </trkpt>
      <trkpt lat="45.73094" lon="6.45223">
        <ele>1133</ele>
        <time>2022-07-23T12:15:56Z</time>
      </trkpt>
      <trkpt lat="45.73096" lon="6.45225">
        <ele>1133</ele>
        <time>2022-07-23T12:15:57Z</time>
      </trkpt>
      <trkpt lat="45.73097" lon="6.45226">
        <ele>1133</ele>
        <time>2022-07-23T12:15:58Z</time>
      </trkpt>
      <trkpt lat="45.73097" lon="6.45228">
        <ele>1133</ele>
        <time>2022-07-23T12:15:59Z</time>
      </trkpt>
      <trkpt lat="45.73098" lon="6.45228">
        <ele>1134</ele>
        <time>2022-07-23T12:16:00Z</time>
      </trkpt>
      <trkpt lat="45.73098" lon="6.45229">
        <ele>1134</ele>
        <time>2022-07-23T12:16:01Z</time>
      </trkpt>
      <trkpt lat="45.73099" lon="6.4523">
        <ele>1134</ele>
        <time>2022-07-23T12:16:02Z</time>
      </trkpt>
      <trkpt lat="45.73099" lon="6.4523">
        <ele>1134</ele>
        <time>2022-07-23T12:16:03Z</time>
      </trkpt>
      <trkpt lat="45.73099" lon="6.45231">
        <ele>1134</ele>
        <time>2022-07-23T12:16:04Z</time>
      </trkpt>
      <trkpt lat="45.731" lon="6.45232">
        <ele>1134</ele>
        <time>2022-07-23T12:16:05Z</time>
      </trkpt>
      <trkpt lat="45.731" lon="6.45232">
        <ele>1134</ele>
        <time>2022-07-23T12:16:06Z</time>
      </trkpt>
      <trkpt lat="45.73101" lon="6.45233">
        <ele>1134</ele>
        <time>2022-07-23T12:16:07Z</time>
      </trkpt>
      <trkpt lat="45.73101" lon="6.45233">
        <ele>1134</ele>
        <time>2022-07-23T12:16:08Z</time>
      </trkpt>
      <trkpt lat="45.73101" lon="6.45234">
        <ele>1134</ele>
        <time>2022-07-23T12:16:09Z</time>
      </trkpt>
      <trkpt lat="45.73102" lon="6.45234">
        <ele>1135</ele>
        <time>2022-07-23T12:16:10Z</time>
      </trkpt>
      <trkpt lat="45.73102" lon="6.45235">
        <ele>1135</ele>
        <time>2022-07-23T12:16:11Z</time>
      </trkpt>
      <trkpt lat="45.73102" lon="6.45236">
        <ele>1135</ele>
        <time>2022-07-23T12:16:12Z</time>
      </trkpt>
      <trkpt lat="45.73102" lon="6.45237">
        <ele>1135</ele>
        <time>2022-07-23T12:16:13Z</time>
      </trkpt>
      <trkpt lat="45.73102" lon="6.45238">
        <ele>1135</ele>
        <time>2022-07-23T12:16:14Z</time>
      </trkpt>
      <trkpt lat="45.73102" lon="6.45239">
        <ele>1136</ele>
        <time>2022-07-23T12:16:15Z</time>
      </trkpt>
      <trkpt lat="45.73102" lon="6.4524">
        <ele>1136</ele>
        <time>2022-07-23T12:16:16Z</time>
      </trkpt>
      <trkpt lat="45.73102" lon="6.4524">
        <ele>1136</ele>
        <time>2022-07-23T12:16:17Z</time>
      </trkpt>
      <trkpt lat="45.73102" lon="6.45241">
        <ele>1136</ele>
        <time>2022-07-23T12:16:18Z</time>
      </trkpt>
      <trkpt lat="45.73102" lon="6.45242">
        <ele>1136</ele>
        <time>2022-07-23T12:16:19Z</time>
      </trkpt>
      <trkpt lat="45.73102" lon="6.45243">
        <ele>1137</ele>
        <time>2022-07-23T12:16:20Z</time>
      </trkpt>
      <trkpt lat="45.73102" lon="6.45244">
        <ele>1137</ele>
        <time>2022-07-23T12:16:21Z</time>
      </trkpt>
      <trkpt lat="45.73102" lon="6.45244">
        <ele>1137</ele>
        <time>2022-07-23T12:16:22Z</time>
      </trkpt>
      <trkpt lat="45.73102" lon="6.45245">
        <ele>1137</ele>
        <time>2022-07-23T12:16:23Z</time>
      </trkpt>
      <trkpt lat="45.73102" lon="6.45246">
        <ele>1137</ele>
        <time>2022-07-23T12:16:24Z</time>
      </trkpt>
      <trkpt lat="45.73102" lon="6.45247">
        <ele>1138</ele>
        <time>2022-07-23T12:16:25Z</time>
      </trkpt>
      <trkpt lat="45.73102" lon="6.45247">
        <ele>1138</ele>
        <time>2022-07-23T12:16:26Z</time>
      </trkpt>
      <trkpt lat="45.73102" lon="6.45248">
        <ele>1138</ele>
        <time>2022-07-23T12:16:27Z</time>
      </trkpt>
      <trkpt lat="45.73103" lon="6.45249">
        <ele>1138</ele>
        <time>2022-07-23T12:16:28Z</time>
      </trkpt>
      <trkpt lat="45.73103" lon="6.4525">
        <ele>1138</ele>
        <time>2022-07-23T12:16:29Z</time>
      </trkpt>
      <trkpt lat="45.73103" lon="6.45251">
        <ele>1139</ele>
        <time>2022-07-23T12:16:30Z</time>
      </trkpt>
      <trkpt lat="45.73103" lon="6.45252">
        <ele>1139</ele>
        <time>2022-07-23T12:16:31Z</time>
      </trkpt>
      <trkpt lat="45.73103" lon="6.45253">
        <ele>1139</ele>
        <time>2022-07-23T12:16:32Z</time>
      </trkpt>
      <trkpt lat="45.73103" lon="6.45254">
        <ele>1139</ele>
        <time>2022-07-23T12:16:33Z</time>
      </trkpt>
      <trkpt lat="45.73103" lon="6.45255">
        <ele>1139</ele>
        <time>2022-07-23T12:16:34Z</time>
      </trkpt>
      <trkpt lat="45.73103" lon="6.45256">
        <ele>1140</ele>
        <time>2022-07-23T12:16:35Z</time>
      </trkpt>
      <trkpt lat="45.73103" lon="6.45257">
        <ele>1140</ele>
        <time>2022-07-23T12:16:36Z</time>
      </trkpt>
      <trkpt lat="45.73103" lon="6.45257">
        <ele>1140</ele>
        <time>2022-07-23T12:16:37Z</time>
      </trkpt>
      <trkpt lat="45.73103" lon="6.45258">
        <ele>1140</ele>
        <time>2022-07-23T12:16:38Z</time>
      </trkpt>
      <trkpt lat="45.73103" lon="6.45259">
        <ele>1140</ele>
        <time>2022-07-23T12:16:39Z</time>
      </trkpt>
      <trkpt lat="45.73103" lon="6.4526">
        <ele>1140</ele>
        <time>2022-07-23T12:16:40Z</time>
      </trkpt>
      <trkpt lat="45.73104" lon="6.45261">
        <ele>1140</ele>
        <time>2022-07-23T12:16:41Z</time>
      </trkpt>
      <trkpt lat="45.73104" lon="6.45262">
        <ele>1140</ele>
        <time>2022-07-23T12:16:42Z</time>
      </trkpt>
      <trkpt lat="45.73104" lon="6.45263">
        <ele>1140</ele>
        <time>2022-07-23T12:16:43Z</time>
      </trkpt>
      <trkpt lat="45.73105" lon="6.45264">
        <ele>1140</ele>
        <time>2022-07-23T12:16:44Z</time>
      </trkpt>
      <trkpt lat="45.73105" lon="6.45266">
        <ele>1141</ele>
        <time>2022-07-23T12:16:45Z</time>
      </trkpt>
      <trkpt lat="45.73106" lon="6.45267">
        <ele>1141</ele>
        <time>2022-07-23T12:16:46Z</time>
      </trkpt>
      <trkpt lat="45.73106" lon="6.45268">
        <ele>1141</ele>
        <time>2022-07-23T12:16:47Z</time>
      </trkpt>
      <trkpt lat="45.73107" lon="6.45269">
        <ele>1141</ele>
        <time>2022-07-23T12:16:48Z</time>
      </trkpt>
      <trkpt lat="45.73107" lon="6.4527">
        <ele>1141</ele>
        <time>2022-07-23T12:16:49Z</time>
      </trkpt>
      <trkpt lat="45.73108" lon="6.45271">
        <ele>1141</ele>
        <time>2022-07-23T12:16:50Z</time>
      </trkpt>
      <trkpt lat="45.73108" lon="6.45272">
        <ele>1141</ele>
        <time>2022-07-23T12:16:51Z</time>
      </trkpt>
      <trkpt lat="45.73108" lon="6.45273">
        <ele>1141</ele>
        <time>2022-07-23T12:16:52Z</time>
      </trkpt>
      <trkpt lat="45.73109" lon="6.45274">
        <ele>1141</ele>
        <time>2022-07-23T12:16:53Z</time>
      </trkpt>
      <trkpt lat="45.73109" lon="6.45275">
        <ele>1141</ele>
        <time>2022-07-23T12:16:54Z</time>
      </trkpt>
      <trkpt lat="45.73109" lon="6.45275">
        <ele>1142</ele>
        <time>2022-07-23T12:16:55Z</time>
      </trkpt>
      <trkpt lat="45.73109" lon="6.45276">
        <ele>1142</ele>
        <time>2022-07-23T12:16:56Z</time>
      </trkpt>
      <trkpt lat="45.73109" lon="6.45277">
        <ele>1142</ele>
        <time>2022-07-23T12:16:57Z</time>
      </trkpt>
      <trkpt lat="45.73109" lon="6.45277">
        <ele>1142</ele>
        <time>2022-07-23T12:16:58Z</time>
      </trkpt>
      <trkpt lat="45.73111" lon="6.45281">
        <ele>1146</ele>
        <time>2022-07-23T12:17:21Z</time>
      </trkpt>
      <trkpt lat="45.73112" lon="6.45284">
        <ele>1146</ele>
        <time>2022-07-23T12:17:22Z</time>
      </trkpt>
      <trkpt lat="45.73114" lon="6.45286">
        <ele>1146</ele>
        <time>2022-07-23T12:17:23Z</time>
      </trkpt>
      <trkpt lat="45.73114" lon="6.45288">
        <ele>1146</ele>
        <time>2022-07-23T12:17:24Z</time>
      </trkpt>
      <trkpt lat="45.73115" lon="6.45289">
        <ele>1147</ele>
        <time>2022-07-23T12:17:25Z</time>
      </trkpt>
      <trkpt lat="45.73115" lon="6.4529">
        <ele>1147</ele>
        <time>2022-07-23T12:17:26Z</time>
      </trkpt>
      <trkpt lat="45.73116" lon="6.45291">
        <ele>1147</ele>
        <time>2022-07-23T12:17:27Z</time>
      </trkpt>
      <trkpt lat="45.73116" lon="6.45292">
        <ele>1147</ele>
        <time>2022-07-23T12:17:28Z</time>
      </trkpt>
      <trkpt lat="45.73117" lon="6.45292">
        <ele>1147</ele>
        <time>2022-07-23T12:17:29Z</time>
      </trkpt>
      <trkpt lat="45.73117" lon="6.45293">
        <ele>1148</ele>
        <time>2022-07-23T12:17:30Z</time>
      </trkpt>
      <trkpt lat="45.73118" lon="6.45294">
        <ele>1148</ele>
        <time>2022-07-23T12:17:31Z</time>
      </trkpt>
      <trkpt lat="45.73118" lon="6.45295">
        <ele>1148</ele>
        <time>2022-07-23T12:17:32Z</time>
      </trkpt>
      <trkpt lat="45.73119" lon="6.45296">
        <ele>1148</ele>
        <time>2022-07-23T12:17:33Z</time>
      </trkpt>
      <trkpt lat="45.7312" lon="6.45296">
        <ele>1148</ele>
        <time>2022-07-23T12:17:34Z</time>
      </trkpt>
      <trkpt lat="45.7312" lon="6.45297">
        <ele>1149</ele>
        <time>2022-07-23T12:17:35Z</time>
      </trkpt>
      <trkpt lat="45.73121" lon="6.45298">
        <ele>1149</ele>
        <time>2022-07-23T12:17:36Z</time>
      </trkpt>
      <trkpt lat="45.73121" lon="6.45299">
        <ele>1149</ele>
        <time>2022-07-23T12:17:37Z</time>
      </trkpt>
      <trkpt lat="45.73122" lon="6.45299">
        <ele>1149</ele>
        <time>2022-07-23T12:17:38Z</time>
      </trkpt>
      <trkpt lat="45.73123" lon="6.453">
        <ele>1149</ele>
        <time>2022-07-23T12:17:39Z</time>
      </trkpt>
      <trkpt lat="45.73123" lon="6.45301">
        <ele>1149</ele>
        <time>2022-07-23T12:17:40Z</time>
      </trkpt>
      <trkpt lat="45.73123" lon="6.45301">
        <ele>1149</ele>
        <time>2022-07-23T12:17:41Z</time>
      </trkpt>
      <trkpt lat="45.73124" lon="6.45302">
        <ele>1149</ele>
        <time>2022-07-23T12:17:42Z</time>
      </trkpt>
      <trkpt lat="45.73124" lon="6.45303">
        <ele>1150</ele>
        <time>2022-07-23T12:17:43Z</time>
      </trkpt>
      <trkpt lat="45.73124" lon="6.45303">
        <ele>1150</ele>
        <time>2022-07-23T12:17:44Z</time>
      </trkpt>
      <trkpt lat="45.73124" lon="6.45304">
        <ele>1151</ele>
        <time>2022-07-23T12:17:45Z</time>
      </trkpt>
      <trkpt lat="45.73125" lon="6.45304">
        <ele>1151</ele>
        <time>2022-07-23T12:17:46Z</time>
      </trkpt>
      <trkpt lat="45.73125" lon="6.45305">
        <ele>1151</ele>
        <time>2022-07-23T12:17:47Z</time>
      </trkpt>
      <trkpt lat="45.73125" lon="6.45306">
        <ele>1151</ele>
        <time>2022-07-23T12:17:48Z</time>
      </trkpt>
      <trkpt lat="45.73126" lon="6.45307">
        <ele>1151</ele>
        <time>2022-07-23T12:17:49Z</time>
      </trkpt>
      <trkpt lat="45.73126" lon="6.45308">
        <ele>1152</ele>
        <time>2022-07-23T12:17:50Z</time>
      </trkpt>
      <trkpt lat="45.73126" lon="6.45309">
        <ele>1152</ele>
        <time>2022-07-23T12:17:51Z</time>
      </trkpt>
      <trkpt lat="45.73127" lon="6.4531">
        <ele>1152</ele>
        <time>2022-07-23T12:17:52Z</time>
      </trkpt>
      <trkpt lat="45.73127" lon="6.45311">
        <ele>1152</ele>
        <time>2022-07-23T12:17:53Z</time>
      </trkpt>
      <trkpt lat="45.73128" lon="6.45312">
        <ele>1152</ele>
        <time>2022-07-23T12:17:54Z</time>
      </trkpt>
      <trkpt lat="45.73128" lon="6.45314">
        <ele>1153</ele>
        <time>2022-07-23T12:17:55Z</time>
      </trkpt>
      <trkpt lat="45.73129" lon="6.45315">
        <ele>1153</ele>
        <time>2022-07-23T12:17:56Z</time>
      </trkpt>
      <trkpt lat="45.7313" lon="6.45316">
        <ele>1153</ele>
        <time>2022-07-23T12:17:57Z</time>
      </trkpt>
      <trkpt lat="45.7313" lon="6.45318">
        <ele>1153</ele>
        <time>2022-07-23T12:17:58Z</time>
      </trkpt>
      <trkpt lat="45.73131" lon="6.45319">
        <ele>1153</ele>
        <time>2022-07-23T12:17:59Z</time>
      </trkpt>
      <trkpt lat="45.73131" lon="6.45321">
        <ele>1153</ele>
        <time>2022-07-23T12:18:00Z</time>
      </trkpt>
      <trkpt lat="45.73131" lon="6.45322">
        <ele>1153</ele>
        <time>2022-07-23T12:18:01Z</time>
      </trkpt>
      <trkpt lat="45.73131" lon="6.45323">
        <ele>1153</ele>
        <time>2022-07-23T12:18:02Z</time>
      </trkpt>
      <trkpt lat="45.73131" lon="6.45324">
        <ele>1153</ele>
        <time>2022-07-23T12:18:03Z</time>
      </trkpt>
      <trkpt lat="45.73132" lon="6.45325">
        <ele>1153</ele>
        <time>2022-07-23T12:18:04Z</time>
      </trkpt>
      <trkpt lat="45.73132" lon="6.45326">
        <ele>1154</ele>
        <time>2022-07-23T12:18:05Z</time>
      </trkpt>
      <trkpt lat="45.73132" lon="6.45327">
        <ele>1154</ele>
        <time>2022-07-23T12:18:06Z</time>
      </trkpt>
      <trkpt lat="45.73132" lon="6.45328">
        <ele>1154</ele>
        <time>2022-07-23T12:18:07Z</time>
      </trkpt>
      <trkpt lat="45.73132" lon="6.45329">
        <ele>1154</ele>
        <time>2022-07-23T12:18:08Z</time>
      </trkpt>
      <trkpt lat="45.73132" lon="6.45329">
        <ele>1154</ele>
        <time>2022-07-23T12:18:09Z</time>
      </trkpt>
      <trkpt lat="45.73133" lon="6.4533">
        <ele>1155</ele>
        <time>2022-07-23T12:18:10Z</time>
      </trkpt>
      <trkpt lat="45.73133" lon="6.45331">
        <ele>1155</ele>
        <time>2022-07-23T12:18:11Z</time>
      </trkpt>
      <trkpt lat="45.73134" lon="6.45332">
        <ele>1155</ele>
        <time>2022-07-23T12:18:12Z</time>
      </trkpt>
      <trkpt lat="45.73134" lon="6.45332">
        <ele>1155</ele>
        <time>2022-07-23T12:18:13Z</time>
      </trkpt>
      <trkpt lat="45.73134" lon="6.45332">
        <ele>1155</ele>
        <time>2022-07-23T12:18:14Z</time>
      </trkpt>
      <trkpt lat="45.73134" lon="6.45333">
        <ele>1155</ele>
        <time>2022-07-23T12:18:15Z</time>
      </trkpt>
      <trkpt lat="45.73134" lon="6.45333">
        <ele>1155</ele>
        <time>2022-07-23T12:18:16Z</time>
      </trkpt>
      <trkpt lat="45.73135" lon="6.45333">
        <ele>1155</ele>
        <time>2022-07-23T12:18:17Z</time>
      </trkpt>
      <trkpt lat="45.73135" lon="6.45334">
        <ele>1155</ele>
        <time>2022-07-23T12:18:18Z</time>
      </trkpt>
      <trkpt lat="45.73135" lon="6.45335">
        <ele>1155</ele>
        <time>2022-07-23T12:18:19Z</time>
      </trkpt>
      <trkpt lat="45.73136" lon="6.45336">
        <ele>1156</ele>
        <time>2022-07-23T12:18:20Z</time>
      </trkpt>
      <trkpt lat="45.73136" lon="6.45336">
        <ele>1156</ele>
        <time>2022-07-23T12:18:21Z</time>
      </trkpt>
      <trkpt lat="45.73137" lon="6.45337">
        <ele>1156</ele>
        <time>2022-07-23T12:18:22Z</time>
      </trkpt>
      <trkpt lat="45.73137" lon="6.45338">
        <ele>1156</ele>
        <time>2022-07-23T12:18:23Z</time>
      </trkpt>
      <trkpt lat="45.73138" lon="6.45339">
        <ele>1156</ele>
        <time>2022-07-23T12:18:24Z</time>
      </trkpt>
      <trkpt lat="45.73139" lon="6.4534">
        <ele>1157</ele>
        <time>2022-07-23T12:18:25Z</time>
      </trkpt>
      <trkpt lat="45.7314" lon="6.4534">
        <ele>1157</ele>
        <time>2022-07-23T12:18:26Z</time>
      </trkpt>
      <trkpt lat="45.73141" lon="6.45341">
        <ele>1157</ele>
        <time>2022-07-23T12:18:27Z</time>
      </trkpt>
      <trkpt lat="45.73142" lon="6.45342">
        <ele>1157</ele>
        <time>2022-07-23T12:18:28Z</time>
      </trkpt>
      <trkpt lat="45.73143" lon="6.45342">
        <ele>1157</ele>
        <time>2022-07-23T12:18:29Z</time>
      </trkpt>
      <trkpt lat="45.73143" lon="6.45343">
        <ele>1157</ele>
        <time>2022-07-23T12:18:30Z</time>
      </trkpt>
      <trkpt lat="45.73144" lon="6.45343">
        <ele>1157</ele>
        <time>2022-07-23T12:18:31Z</time>
      </trkpt>
      <trkpt lat="45.73144" lon="6.45344">
        <ele>1157</ele>
        <time>2022-07-23T12:18:32Z</time>
      </trkpt>
      <trkpt lat="45.73144" lon="6.45349">
        <ele>1158</ele>
        <time>2022-07-23T12:26:27Z</time>
      </trkpt>
      <trkpt lat="45.73143" lon="6.45352">
        <ele>1158</ele>
        <time>2022-07-23T12:26:28Z</time>
      </trkpt>
      <trkpt lat="45.73143" lon="6.45355">
        <ele>1158</ele>
        <time>2022-07-23T12:26:29Z</time>
      </trkpt>
      <trkpt lat="45.73142" lon="6.45355">
        <ele>1158</ele>
        <time>2022-07-23T12:26:30Z</time>
      </trkpt>
      <trkpt lat="45.73142" lon="6.45356">
        <ele>1157</ele>
        <time>2022-07-23T12:26:31Z</time>
      </trkpt>
      <trkpt lat="45.73141" lon="6.45356">
        <ele>1159</ele>
        <time>2022-07-23T12:33:29Z</time>
      </trkpt>
      <trkpt lat="45.73141" lon="6.45356">
        <ele>1159</ele>
        <time>2022-07-23T12:33:30Z</time>
      </trkpt>
      <trkpt lat="45.73141" lon="6.45356">
        <ele>1159</ele>
        <time>2022-07-23T12:33:31Z</time>
      </trkpt>
      <trkpt lat="45.73141" lon="6.45357">
        <ele>1159</ele>
        <time>2022-07-23T12:33:47Z</time>
      </trkpt>
      <trkpt lat="45.73141" lon="6.45358">
        <ele>1159</ele>
        <time>2022-07-23T12:33:48Z</time>
      </trkpt>
      <trkpt lat="45.73141" lon="6.45358">
        <ele>1159</ele>
        <time>2022-07-23T12:33:49Z</time>
      </trkpt>
      <trkpt lat="45.73141" lon="6.45359">
        <ele>1159</ele>
        <time>2022-07-23T12:33:50Z</time>
      </trkpt>
      <trkpt lat="45.73141" lon="6.45359">
        <ele>1159</ele>
        <time>2022-07-23T12:33:51Z</time>
      </trkpt>
      <trkpt lat="45.73143" lon="6.45358">
        <ele>1158</ele>
        <time>2022-07-23T12:38:49Z</time>
      </trkpt>
      <trkpt lat="45.73144" lon="6.45357">
        <ele>1158</ele>
        <time>2022-07-23T12:38:50Z</time>
      </trkpt>
      <trkpt lat="45.73145" lon="6.45357">
        <ele>1158</ele>
        <time>2022-07-23T12:38:51Z</time>
      </trkpt>
      <trkpt lat="45.73146" lon="6.45356">
        <ele>1158</ele>
        <time>2022-07-23T12:38:52Z</time>
      </trkpt>
      <trkpt lat="45.73147" lon="6.45356">
        <ele>1158</ele>
        <time>2022-07-23T12:38:53Z</time>
      </trkpt>
      <trkpt lat="45.73148" lon="6.45355">
        <ele>1158</ele>
        <time>2022-07-23T12:39:08Z</time>
      </trkpt>
      <trkpt lat="45.73149" lon="6.45356">
        <ele>1158</ele>
        <time>2022-07-23T12:39:09Z</time>
      </trkpt>
      <trkpt lat="45.7315" lon="6.45356">
        <ele>1158</ele>
        <time>2022-07-23T12:39:10Z</time>
      </trkpt>
      <trkpt lat="45.7315" lon="6.45357">
        <ele>1158</ele>
        <time>2022-07-23T12:39:11Z</time>
      </trkpt>
      <trkpt lat="45.73151" lon="6.45357">
        <ele>1158</ele>
        <time>2022-07-23T12:39:12Z</time>
      </trkpt>
      <trkpt lat="45.73151" lon="6.45358">
        <ele>1158</ele>
        <time>2022-07-23T12:39:13Z</time>
      </trkpt>
      <trkpt lat="45.73151" lon="6.45359">
        <ele>1158</ele>
        <time>2022-07-23T12:39:14Z</time>
      </trkpt>
      <trkpt lat="45.73151" lon="6.45361">
        <ele>1158</ele>
        <time>2022-07-23T12:39:15Z</time>
      </trkpt>
      <trkpt lat="45.73152" lon="6.45362">
        <ele>1158</ele>
        <time>2022-07-23T12:39:16Z</time>
      </trkpt>
      <trkpt lat="45.73152" lon="6.45364">
        <ele>1158</ele>
        <time>2022-07-23T12:39:17Z</time>
      </trkpt>
      <trkpt lat="45.73153" lon="6.45365">
        <ele>1158</ele>
        <time>2022-07-23T12:39:18Z</time>
      </trkpt>
      <trkpt lat="45.73153" lon="6.45367">
        <ele>1158</ele>
        <time>2022-07-23T12:39:19Z</time>
      </trkpt>
      <trkpt lat="45.73154" lon="6.45368">
        <ele>1158</ele>
        <time>2022-07-23T12:39:20Z</time>
      </trkpt>
      <trkpt lat="45.73154" lon="6.4537">
        <ele>1158</ele>
        <time>2022-07-23T12:39:21Z</time>
      </trkpt>
      <trkpt lat="45.73154" lon="6.45372">
        <ele>1158</ele>
        <time>2022-07-23T12:39:22Z</time>
      </trkpt>
      <trkpt lat="45.73155" lon="6.45373">
        <ele>1158</ele>
        <time>2022-07-23T12:39:23Z</time>
      </trkpt>
      <trkpt lat="45.73155" lon="6.45375">
        <ele>1158</ele>
        <time>2022-07-23T12:39:24Z</time>
      </trkpt>
      <trkpt lat="45.73155" lon="6.45377">
        <ele>1158</ele>
        <time>2022-07-23T12:39:25Z</time>
      </trkpt>
      <trkpt lat="45.73155" lon="6.45379">
        <ele>1158</ele>
        <time>2022-07-23T12:39:26Z</time>
      </trkpt>
      <trkpt lat="45.73155" lon="6.4538">
        <ele>1158</ele>
        <time>2022-07-23T12:39:27Z</time>
      </trkpt>
      <trkpt lat="45.73155" lon="6.45382">
        <ele>1158</ele>
        <time>2022-07-23T12:39:28Z</time>
      </trkpt>
      <trkpt lat="45.73155" lon="6.45383">
        <ele>1158</ele>
        <time>2022-07-23T12:39:29Z</time>
      </trkpt>
      <trkpt lat="45.73155" lon="6.45385">
        <ele>1159</ele>
        <time>2022-07-23T12:39:30Z</time>
      </trkpt>
      <trkpt lat="45.73155" lon="6.45386">
        <ele>1159</ele>
        <time>2022-07-23T12:39:31Z</time>
      </trkpt>
      <trkpt lat="45.73155" lon="6.45388">
        <ele>1159</ele>
        <time>2022-07-23T12:39:32Z</time>
      </trkpt>
      <trkpt lat="45.73155" lon="6.45389">
        <ele>1159</ele>
        <time>2022-07-23T12:39:33Z</time>
      </trkpt>
      <trkpt lat="45.73156" lon="6.45391">
        <ele>1159</ele>
        <time>2022-07-23T12:39:34Z</time>
      </trkpt>
      <trkpt lat="45.73156" lon="6.45392">
        <ele>1159</ele>
        <time>2022-07-23T12:39:35Z</time>
      </trkpt>
      <trkpt lat="45.73157" lon="6.45394">
        <ele>1159</ele>
        <time>2022-07-23T12:39:36Z</time>
      </trkpt>
      <trkpt lat="45.73157" lon="6.45395">
        <ele>1159</ele>
        <time>2022-07-23T12:39:37Z</time>
      </trkpt>
      <trkpt lat="45.73157" lon="6.45396">
        <ele>1159</ele>
        <time>2022-07-23T12:39:38Z</time>
      </trkpt>
      <trkpt lat="45.73157" lon="6.45397">
        <ele>1159</ele>
        <time>2022-07-23T12:39:39Z</time>
      </trkpt>
      <trkpt lat="45.73157" lon="6.45398">
        <ele>1159</ele>
        <time>2022-07-23T12:39:40Z</time>
      </trkpt>
      <trkpt lat="45.73157" lon="6.45399">
        <ele>1159</ele>
        <time>2022-07-23T12:39:41Z</time>
      </trkpt>
      <trkpt lat="45.73157" lon="6.454">
        <ele>1159</ele>
        <time>2022-07-23T12:39:42Z</time>
      </trkpt>
      <trkpt lat="45.73157" lon="6.45401">
        <ele>1159</ele>
        <time>2022-07-23T12:39:43Z</time>
      </trkpt>
      <trkpt lat="45.73157" lon="6.45401">
        <ele>1159</ele>
        <time>2022-07-23T12:39:44Z</time>
      </trkpt>
      <trkpt lat="45.73157" lon="6.45402">
        <ele>1159</ele>
        <time>2022-07-23T12:39:45Z</time>
      </trkpt>
      <trkpt lat="45.73157" lon="6.45403">
        <ele>1159</ele>
        <time>2022-07-23T12:39:46Z</time>
      </trkpt>
      <trkpt lat="45.73157" lon="6.45404">
        <ele>1159</ele>
        <time>2022-07-23T12:39:47Z</time>
      </trkpt>
      <trkpt lat="45.73157" lon="6.45405">
        <ele>1159</ele>
        <time>2022-07-23T12:39:48Z</time>
      </trkpt>
      <trkpt lat="45.73158" lon="6.45408">
        <ele>1161</ele>
        <time>2022-07-23T12:40:05Z</time>
      </trkpt>
      <trkpt lat="45.73158" lon="6.45409">
        <ele>1161</ele>
        <time>2022-07-23T12:40:06Z</time>
      </trkpt>
      <trkpt lat="45.73158" lon="6.45409">
        <ele>1161</ele>
        <time>2022-07-23T12:40:07Z</time>
      </trkpt>
      <trkpt lat="45.73158" lon="6.4541">
        <ele>1161</ele>
        <time>2022-07-23T12:40:08Z</time>
      </trkpt>
      <trkpt lat="45.73158" lon="6.45411">
        <ele>1161</ele>
        <time>2022-07-23T12:40:09Z</time>
      </trkpt>
      <trkpt lat="45.73159" lon="6.45412">
        <ele>1161</ele>
        <time>2022-07-23T12:40:10Z</time>
      </trkpt>
      <trkpt lat="45.73159" lon="6.45413">
        <ele>1161</ele>
        <time>2022-07-23T12:40:11Z</time>
      </trkpt>
      <trkpt lat="45.73159" lon="6.45414">
        <ele>1161</ele>
        <time>2022-07-23T12:40:12Z</time>
      </trkpt>
      <trkpt lat="45.73159" lon="6.45415">
        <ele>1161</ele>
        <time>2022-07-23T12:40:13Z</time>
      </trkpt>
      <trkpt lat="45.73159" lon="6.45416">
        <ele>1161</ele>
        <time>2022-07-23T12:40:14Z</time>
      </trkpt>
      <trkpt lat="45.7316" lon="6.45417">
        <ele>1161</ele>
        <time>2022-07-23T12:40:15Z</time>
      </trkpt>
      <trkpt lat="45.7316" lon="6.45417">
        <ele>1161</ele>
        <time>2022-07-23T12:40:16Z</time>
      </trkpt>
      <trkpt lat="45.7316" lon="6.45418">
        <ele>1161</ele>
        <time>2022-07-23T12:40:17Z</time>
      </trkpt>
      <trkpt lat="45.73161" lon="6.45419">
        <ele>1161</ele>
        <time>2022-07-23T12:40:18Z</time>
      </trkpt>
      <trkpt lat="45.73161" lon="6.45419">
        <ele>1161</ele>
        <time>2022-07-23T12:40:19Z</time>
      </trkpt>
      <trkpt lat="45.73162" lon="6.4542">
        <ele>1161</ele>
        <time>2022-07-23T12:40:20Z</time>
      </trkpt>
      <trkpt lat="45.73162" lon="6.45421">
        <ele>1161</ele>
        <time>2022-07-23T12:40:21Z</time>
      </trkpt>
      <trkpt lat="45.73163" lon="6.45422">
        <ele>1161</ele>
        <time>2022-07-23T12:40:22Z</time>
      </trkpt>
      <trkpt lat="45.73163" lon="6.45423">
        <ele>1161</ele>
        <time>2022-07-23T12:40:23Z</time>
      </trkpt>
      <trkpt lat="45.73163" lon="6.45424">
        <ele>1161</ele>
        <time>2022-07-23T12:40:24Z</time>
      </trkpt>
      <trkpt lat="45.73164" lon="6.45424">
        <ele>1162</ele>
        <time>2022-07-23T12:40:25Z</time>
      </trkpt>
      <trkpt lat="45.73164" lon="6.45425">
        <ele>1162</ele>
        <time>2022-07-23T12:40:26Z</time>
      </trkpt>
      <trkpt lat="45.73165" lon="6.45426">
        <ele>1162</ele>
        <time>2022-07-23T12:40:27Z</time>
      </trkpt>
      <trkpt lat="45.73165" lon="6.45427">
        <ele>1162</ele>
        <time>2022-07-23T12:40:28Z</time>
      </trkpt>
      <trkpt lat="45.73165" lon="6.45428">
        <ele>1162</ele>
        <time>2022-07-23T12:40:29Z</time>
      </trkpt>
      <trkpt lat="45.73165" lon="6.45429">
        <ele>1162</ele>
        <time>2022-07-23T12:40:30Z</time>
      </trkpt>
      <trkpt lat="45.73165" lon="6.4543">
        <ele>1162</ele>
        <time>2022-07-23T12:40:31Z</time>
      </trkpt>
      <trkpt lat="45.73165" lon="6.45431">
        <ele>1162</ele>
        <time>2022-07-23T12:40:32Z</time>
      </trkpt>
      <trkpt lat="45.73166" lon="6.45432">
        <ele>1162</ele>
        <time>2022-07-23T12:40:33Z</time>
      </trkpt>
      <trkpt lat="45.73166" lon="6.45433">
        <ele>1162</ele>
        <time>2022-07-23T12:40:34Z</time>
      </trkpt>
      <trkpt lat="45.73166" lon="6.45435">
        <ele>1162</ele>
        <time>2022-07-23T12:40:35Z</time>
      </trkpt>
      <trkpt lat="45.73167" lon="6.45436">
        <ele>1162</ele>
        <time>2022-07-23T12:40:36Z</time>
      </trkpt>
      <trkpt lat="45.73167" lon="6.45437">
        <ele>1162</ele>
        <time>2022-07-23T12:40:37Z</time>
      </trkpt>
      <trkpt lat="45.73168" lon="6.45438">
        <ele>1162</ele>
        <time>2022-07-23T12:40:38Z</time>
      </trkpt>
      <trkpt lat="45.73168" lon="6.4544">
        <ele>1162</ele>
        <time>2022-07-23T12:40:39Z</time>
      </trkpt>
      <trkpt lat="45.73169" lon="6.45441">
        <ele>1162</ele>
        <time>2022-07-23T12:40:40Z</time>
      </trkpt>
      <trkpt lat="45.73169" lon="6.45442">
        <ele>1162</ele>
        <time>2022-07-23T12:40:41Z</time>
      </trkpt>
      <trkpt lat="45.7317" lon="6.45443">
        <ele>1162</ele>
        <time>2022-07-23T12:40:42Z</time>
      </trkpt>
      <trkpt lat="45.7317" lon="6.45445">
        <ele>1162</ele>
        <time>2022-07-23T12:40:43Z</time>
      </trkpt>
      <trkpt lat="45.73171" lon="6.45446">
        <ele>1162</ele>
        <time>2022-07-23T12:40:44Z</time>
      </trkpt>
      <trkpt lat="45.73171" lon="6.45448">
        <ele>1162</ele>
        <time>2022-07-23T12:40:45Z</time>
      </trkpt>
      <trkpt lat="45.73172" lon="6.45449">
        <ele>1162</ele>
        <time>2022-07-23T12:40:46Z</time>
      </trkpt>
      <trkpt lat="45.73172" lon="6.45451">
        <ele>1162</ele>
        <time>2022-07-23T12:40:47Z</time>
      </trkpt>
      <trkpt lat="45.73172" lon="6.45452">
        <ele>1162</ele>
        <time>2022-07-23T12:40:48Z</time>
      </trkpt>
      <trkpt lat="45.73173" lon="6.45453">
        <ele>1162</ele>
        <time>2022-07-23T12:40:49Z</time>
      </trkpt>
      <trkpt lat="45.73173" lon="6.45454">
        <ele>1162</ele>
        <time>2022-07-23T12:40:50Z</time>
      </trkpt>
      <trkpt lat="45.73173" lon="6.45455">
        <ele>1162</ele>
        <time>2022-07-23T12:40:51Z</time>
      </trkpt>
      <trkpt lat="45.73174" lon="6.45455">
        <ele>1162</ele>
        <time>2022-07-23T12:40:52Z</time>
      </trkpt>
      <trkpt lat="45.73174" lon="6.45456">
        <ele>1162</ele>
        <time>2022-07-23T12:40:53Z</time>
      </trkpt>
      <trkpt lat="45.73174" lon="6.45457">
        <ele>1162</ele>
        <time>2022-07-23T12:40:54Z</time>
      </trkpt>
      <trkpt lat="45.73175" lon="6.45459">
        <ele>1162</ele>
        <time>2022-07-23T12:40:55Z</time>
      </trkpt>
      <trkpt lat="45.73175" lon="6.4546">
        <ele>1162</ele>
        <time>2022-07-23T12:40:56Z</time>
      </trkpt>
      <trkpt lat="45.73175" lon="6.45461">
        <ele>1162</ele>
        <time>2022-07-23T12:40:57Z</time>
      </trkpt>
      <trkpt lat="45.73176" lon="6.45462">
        <ele>1162</ele>
        <time>2022-07-23T12:40:58Z</time>
      </trkpt>
      <trkpt lat="45.73176" lon="6.45463">
        <ele>1162</ele>
        <time>2022-07-23T12:40:59Z</time>
      </trkpt>
      <trkpt lat="45.73177" lon="6.45465">
        <ele>1163</ele>
        <time>2022-07-23T12:41:00Z</time>
      </trkpt>
      <trkpt lat="45.73178" lon="6.45465">
        <ele>1163</ele>
        <time>2022-07-23T12:41:01Z</time>
      </trkpt>
      <trkpt lat="45.73179" lon="6.45466">
        <ele>1163</ele>
        <time>2022-07-23T12:41:02Z</time>
      </trkpt>
      <trkpt lat="45.73179" lon="6.45467">
        <ele>1163</ele>
        <time>2022-07-23T12:41:03Z</time>
      </trkpt>
      <trkpt lat="45.7318" lon="6.45467">
        <ele>1163</ele>
        <time>2022-07-23T12:41:04Z</time>
      </trkpt>
      <trkpt lat="45.73181" lon="6.45467">
        <ele>1163</ele>
        <time>2022-07-23T12:41:05Z</time>
      </trkpt>
      <trkpt lat="45.73182" lon="6.45468">
        <ele>1163</ele>
        <time>2022-07-23T12:41:06Z</time>
      </trkpt>
      <trkpt lat="45.73182" lon="6.45468">
        <ele>1163</ele>
        <time>2022-07-23T12:41:07Z</time>
      </trkpt>
      <trkpt lat="45.73183" lon="6.45469">
        <ele>1163</ele>
        <time>2022-07-23T12:41:08Z</time>
      </trkpt>
      <trkpt lat="45.73183" lon="6.45469">
        <ele>1163</ele>
        <time>2022-07-23T12:41:09Z</time>
      </trkpt>
      <trkpt lat="45.73184" lon="6.45469">
        <ele>1163</ele>
        <time>2022-07-23T12:41:10Z</time>
      </trkpt>
      <trkpt lat="45.73184" lon="6.45469">
        <ele>1163</ele>
        <time>2022-07-23T12:41:11Z</time>
      </trkpt>
      <trkpt lat="45.73185" lon="6.4547">
        <ele>1163</ele>
        <time>2022-07-23T12:41:12Z</time>
      </trkpt>
      <trkpt lat="45.73186" lon="6.4547">
        <ele>1163</ele>
        <time>2022-07-23T12:41:13Z</time>
      </trkpt>
      <trkpt lat="45.73186" lon="6.4547">
        <ele>1163</ele>
        <time>2022-07-23T12:41:14Z</time>
      </trkpt>
      <trkpt lat="45.73187" lon="6.4547">
        <ele>1164</ele>
        <time>2022-07-23T12:41:15Z</time>
      </trkpt>
      <trkpt lat="45.73187" lon="6.4547">
        <ele>1164</ele>
        <time>2022-07-23T12:41:16Z</time>
      </trkpt>
      <trkpt lat="45.73189" lon="6.45471">
        <ele>1165</ele>
        <time>2022-07-23T12:41:27Z</time>
      </trkpt>
      <trkpt lat="45.73189" lon="6.45472">
        <ele>1165</ele>
        <time>2022-07-23T12:41:28Z</time>
      </trkpt>
      <trkpt lat="45.7319" lon="6.45472">
        <ele>1165</ele>
        <time>2022-07-23T12:41:29Z</time>
      </trkpt>
      <trkpt lat="45.73193" lon="6.45476">
        <ele>1170</ele>
        <time>2022-07-23T12:41:52Z</time>
      </trkpt>
      <trkpt lat="45.73194" lon="6.45477">
        <ele>1170</ele>
        <time>2022-07-23T12:41:53Z</time>
      </trkpt>
      <trkpt lat="45.73195" lon="6.45479">
        <ele>1170</ele>
        <time>2022-07-23T12:41:54Z</time>
      </trkpt>
      <trkpt lat="45.73196" lon="6.45481">
        <ele>1170</ele>
        <time>2022-07-23T12:41:55Z</time>
      </trkpt>
      <trkpt lat="45.73197" lon="6.45482">
        <ele>1170</ele>
        <time>2022-07-23T12:41:56Z</time>
      </trkpt>
      <trkpt lat="45.73197" lon="6.45483">
        <ele>1170</ele>
        <time>2022-07-23T12:41:57Z</time>
      </trkpt>
      <trkpt lat="45.73198" lon="6.45485">
        <ele>1170</ele>
        <time>2022-07-23T12:41:58Z</time>
      </trkpt>
      <trkpt lat="45.73198" lon="6.45486">
        <ele>1170</ele>
        <time>2022-07-23T12:41:59Z</time>
      </trkpt>
      <trkpt lat="45.73199" lon="6.45488">
        <ele>1171</ele>
        <time>2022-07-23T12:42:00Z</time>
      </trkpt>
      <trkpt lat="45.73199" lon="6.45489">
        <ele>1171</ele>
        <time>2022-07-23T12:42:01Z</time>
      </trkpt>
      <trkpt lat="45.73199" lon="6.4549">
        <ele>1171</ele>
        <time>2022-07-23T12:42:02Z</time>
      </trkpt>
      <trkpt lat="45.73199" lon="6.45491">
        <ele>1171</ele>
        <time>2022-07-23T12:42:03Z</time>
      </trkpt>
      <trkpt lat="45.732" lon="6.45493">
        <ele>1171</ele>
        <time>2022-07-23T12:42:04Z</time>
      </trkpt>
      <trkpt lat="45.732" lon="6.45494">
        <ele>1171</ele>
        <time>2022-07-23T12:42:05Z</time>
      </trkpt>
      <trkpt lat="45.73201" lon="6.45495">
        <ele>1171</ele>
        <time>2022-07-23T12:42:06Z</time>
      </trkpt>
      <trkpt lat="45.73201" lon="6.45496">
        <ele>1171</ele>
        <time>2022-07-23T12:42:07Z</time>
      </trkpt>
      <trkpt lat="45.73202" lon="6.45497">
        <ele>1171</ele>
        <time>2022-07-23T12:42:08Z</time>
      </trkpt>
      <trkpt lat="45.73203" lon="6.45498">
        <ele>1171</ele>
        <time>2022-07-23T12:42:09Z</time>
      </trkpt>
      <trkpt lat="45.73203" lon="6.45499">
        <ele>1171</ele>
        <time>2022-07-23T12:42:10Z</time>
      </trkpt>
      <trkpt lat="45.73204" lon="6.45499">
        <ele>1171</ele>
        <time>2022-07-23T12:42:11Z</time>
      </trkpt>
      <trkpt lat="45.73205" lon="6.455">
        <ele>1171</ele>
        <time>2022-07-23T12:42:12Z</time>
      </trkpt>
      <trkpt lat="45.73205" lon="6.455">
        <ele>1171</ele>
        <time>2022-07-23T12:42:13Z</time>
      </trkpt>
      <trkpt lat="45.73206" lon="6.45501">
        <ele>1171</ele>
        <time>2022-07-23T12:42:14Z</time>
      </trkpt>
      <trkpt lat="45.73206" lon="6.45501">
        <ele>1172</ele>
        <time>2022-07-23T12:42:15Z</time>
      </trkpt>
      <trkpt lat="45.73207" lon="6.45502">
        <ele>1172</ele>
        <time>2022-07-23T12:42:16Z</time>
      </trkpt>
      <trkpt lat="45.73208" lon="6.45502">
        <ele>1172</ele>
        <time>2022-07-23T12:42:17Z</time>
      </trkpt>
      <trkpt lat="45.73208" lon="6.45502">
        <ele>1172</ele>
        <time>2022-07-23T12:42:18Z</time>
      </trkpt>
      <trkpt lat="45.73209" lon="6.45503">
        <ele>1172</ele>
        <time>2022-07-23T12:42:19Z</time>
      </trkpt>
      <trkpt lat="45.73209" lon="6.45503">
        <ele>1172</ele>
        <time>2022-07-23T12:42:20Z</time>
      </trkpt>
      <trkpt lat="45.7321" lon="6.45504">
        <ele>1172</ele>
        <time>2022-07-23T12:42:21Z</time>
      </trkpt>
      <trkpt lat="45.73211" lon="6.45504">
        <ele>1172</ele>
        <time>2022-07-23T12:42:22Z</time>
      </trkpt>
      <trkpt lat="45.73211" lon="6.45505">
        <ele>1172</ele>
        <time>2022-07-23T12:42:23Z</time>
      </trkpt>
      <trkpt lat="45.73212" lon="6.45505">
        <ele>1172</ele>
        <time>2022-07-23T12:42:24Z</time>
      </trkpt>
      <trkpt lat="45.73213" lon="6.45506">
        <ele>1173</ele>
        <time>2022-07-23T12:42:25Z</time>
      </trkpt>
      <trkpt lat="45.73213" lon="6.45506">
        <ele>1173</ele>
        <time>2022-07-23T12:42:26Z</time>
      </trkpt>
      <trkpt lat="45.73214" lon="6.45507">
        <ele>1173</ele>
        <time>2022-07-23T12:42:27Z</time>
      </trkpt>
      <trkpt lat="45.73214" lon="6.45508">
        <ele>1173</ele>
        <time>2022-07-23T12:42:28Z</time>
      </trkpt>
      <trkpt lat="45.73215" lon="6.45508">
        <ele>1173</ele>
        <time>2022-07-23T12:42:29Z</time>
      </trkpt>
      <trkpt lat="45.73216" lon="6.45509">
        <ele>1174</ele>
        <time>2022-07-23T12:42:30Z</time>
      </trkpt>
      <trkpt lat="45.73216" lon="6.45509">
        <ele>1174</ele>
        <time>2022-07-23T12:42:31Z</time>
      </trkpt>
      <trkpt lat="45.73217" lon="6.4551">
        <ele>1174</ele>
        <time>2022-07-23T12:42:32Z</time>
      </trkpt>
      <trkpt lat="45.73218" lon="6.4551">
        <ele>1174</ele>
        <time>2022-07-23T12:42:33Z</time>
      </trkpt>
      <trkpt lat="45.73219" lon="6.45511">
        <ele>1174</ele>
        <time>2022-07-23T12:42:34Z</time>
      </trkpt>
      <trkpt lat="45.7322" lon="6.45511">
        <ele>1174</ele>
        <time>2022-07-23T12:42:35Z</time>
      </trkpt>
      <trkpt lat="45.73221" lon="6.45512">
        <ele>1174</ele>
        <time>2022-07-23T12:42:36Z</time>
      </trkpt>
      <trkpt lat="45.73221" lon="6.45512">
        <ele>1174</ele>
        <time>2022-07-23T12:42:37Z</time>
      </trkpt>
      <trkpt lat="45.73222" lon="6.45513">
        <ele>1174</ele>
        <time>2022-07-23T12:42:38Z</time>
      </trkpt>
      <trkpt lat="45.73222" lon="6.45514">
        <ele>1174</ele>
        <time>2022-07-23T12:42:39Z</time>
      </trkpt>
      <trkpt lat="45.73223" lon="6.45515">
        <ele>1175</ele>
        <time>2022-07-23T12:42:40Z</time>
      </trkpt>
      <trkpt lat="45.73223" lon="6.45516">
        <ele>1175</ele>
        <time>2022-07-23T12:42:41Z</time>
      </trkpt>
      <trkpt lat="45.73224" lon="6.45517">
        <ele>1175</ele>
        <time>2022-07-23T12:42:42Z</time>
      </trkpt>
      <trkpt lat="45.73224" lon="6.45519">
        <ele>1175</ele>
        <time>2022-07-23T12:42:43Z</time>
      </trkpt>
      <trkpt lat="45.73225" lon="6.4552">
        <ele>1175</ele>
        <time>2022-07-23T12:42:44Z</time>
      </trkpt>
      <trkpt lat="45.73225" lon="6.45521">
        <ele>1176</ele>
        <time>2022-07-23T12:42:45Z</time>
      </trkpt>
      <trkpt lat="45.73226" lon="6.45523">
        <ele>1176</ele>
        <time>2022-07-23T12:42:46Z</time>
      </trkpt>
      <trkpt lat="45.73227" lon="6.45524">
        <ele>1176</ele>
        <time>2022-07-23T12:42:47Z</time>
      </trkpt>
      <trkpt lat="45.73228" lon="6.45525">
        <ele>1176</ele>
        <time>2022-07-23T12:42:48Z</time>
      </trkpt>
      <trkpt lat="45.73229" lon="6.45525">
        <ele>1176</ele>
        <time>2022-07-23T12:42:49Z</time>
      </trkpt>
      <trkpt lat="45.7323" lon="6.45525">
        <ele>1176</ele>
        <time>2022-07-23T12:42:50Z</time>
      </trkpt>
      <trkpt lat="45.73231" lon="6.45526">
        <ele>1176</ele>
        <time>2022-07-23T12:42:51Z</time>
      </trkpt>
      <trkpt lat="45.73232" lon="6.45526">
        <ele>1176</ele>
        <time>2022-07-23T12:42:52Z</time>
      </trkpt>
      <trkpt lat="45.73232" lon="6.45527">
        <ele>1176</ele>
        <time>2022-07-23T12:42:53Z</time>
      </trkpt>
      <trkpt lat="45.73233" lon="6.45527">
        <ele>1176</ele>
        <time>2022-07-23T12:42:54Z</time>
      </trkpt>
      <trkpt lat="45.73233" lon="6.45528">
        <ele>1177</ele>
        <time>2022-07-23T12:42:55Z</time>
      </trkpt>
      <trkpt lat="45.73234" lon="6.45529">
        <ele>1177</ele>
        <time>2022-07-23T12:42:56Z</time>
      </trkpt>
      <trkpt lat="45.73234" lon="6.4553">
        <ele>1177</ele>
        <time>2022-07-23T12:42:57Z</time>
      </trkpt>
      <trkpt lat="45.73234" lon="6.45531">
        <ele>1177</ele>
        <time>2022-07-23T12:42:58Z</time>
      </trkpt>
      <trkpt lat="45.73235" lon="6.45532">
        <ele>1177</ele>
        <time>2022-07-23T12:42:59Z</time>
      </trkpt>
      <trkpt lat="45.73235" lon="6.45534">
        <ele>1178</ele>
        <time>2022-07-23T12:43:00Z</time>
      </trkpt>
      <trkpt lat="45.73236" lon="6.45535">
        <ele>1178</ele>
        <time>2022-07-23T12:43:01Z</time>
      </trkpt>
      <trkpt lat="45.73236" lon="6.45537">
        <ele>1178</ele>
        <time>2022-07-23T12:43:02Z</time>
      </trkpt>
      <trkpt lat="45.73237" lon="6.45538">
        <ele>1178</ele>
        <time>2022-07-23T12:43:03Z</time>
      </trkpt>
      <trkpt lat="45.73237" lon="6.45539">
        <ele>1178</ele>
        <time>2022-07-23T12:43:04Z</time>
      </trkpt>
      <trkpt lat="45.73238" lon="6.4554">
        <ele>1178</ele>
        <time>2022-07-23T12:43:05Z</time>
      </trkpt>
      <trkpt lat="45.73239" lon="6.45542">
        <ele>1178</ele>
        <time>2022-07-23T12:43:06Z</time>
      </trkpt>
      <trkpt lat="45.73239" lon="6.45543">
        <ele>1178</ele>
        <time>2022-07-23T12:43:07Z</time>
      </trkpt>
      <trkpt lat="45.7324" lon="6.45544">
        <ele>1178</ele>
        <time>2022-07-23T12:43:08Z</time>
      </trkpt>
      <trkpt lat="45.73241" lon="6.45544">
        <ele>1178</ele>
        <time>2022-07-23T12:43:09Z</time>
      </trkpt>
      <trkpt lat="45.73242" lon="6.45545">
        <ele>1179</ele>
        <time>2022-07-23T12:43:10Z</time>
      </trkpt>
      <trkpt lat="45.73242" lon="6.45546">
        <ele>1179</ele>
        <time>2022-07-23T12:43:11Z</time>
      </trkpt>
      <trkpt lat="45.73243" lon="6.45546">
        <ele>1179</ele>
        <time>2022-07-23T12:43:12Z</time>
      </trkpt>
      <trkpt lat="45.73243" lon="6.45547">
        <ele>1179</ele>
        <time>2022-07-23T12:43:13Z</time>
      </trkpt>
      <trkpt lat="45.73244" lon="6.45548">
        <ele>1179</ele>
        <time>2022-07-23T12:43:14Z</time>
      </trkpt>
      <trkpt lat="45.73245" lon="6.45548">
        <ele>1179</ele>
        <time>2022-07-23T12:43:15Z</time>
      </trkpt>
      <trkpt lat="45.73245" lon="6.45549">
        <ele>1179</ele>
        <time>2022-07-23T12:43:16Z</time>
      </trkpt>
      <trkpt lat="45.73246" lon="6.45549">
        <ele>1179</ele>
        <time>2022-07-23T12:43:17Z</time>
      </trkpt>
      <trkpt lat="45.73246" lon="6.4555">
        <ele>1179</ele>
        <time>2022-07-23T12:43:18Z</time>
      </trkpt>
      <trkpt lat="45.73247" lon="6.45551">
        <ele>1179</ele>
        <time>2022-07-23T12:43:19Z</time>
      </trkpt>
      <trkpt lat="45.73248" lon="6.45551">
        <ele>1180</ele>
        <time>2022-07-23T12:43:20Z</time>
      </trkpt>
      <trkpt lat="45.73248" lon="6.45552">
        <ele>1180</ele>
        <time>2022-07-23T12:43:21Z</time>
      </trkpt>
      <trkpt lat="45.73249" lon="6.45553">
        <ele>1180</ele>
        <time>2022-07-23T12:43:22Z</time>
      </trkpt>
      <trkpt lat="45.73249" lon="6.45554">
        <ele>1180</ele>
        <time>2022-07-23T12:43:23Z</time>
      </trkpt>
      <trkpt lat="45.7325" lon="6.45554">
        <ele>1180</ele>
        <time>2022-07-23T12:43:24Z</time>
      </trkpt>
      <trkpt lat="45.7325" lon="6.45555">
        <ele>1180</ele>
        <time>2022-07-23T12:43:25Z</time>
      </trkpt>
      <trkpt lat="45.73251" lon="6.45555">
        <ele>1180</ele>
        <time>2022-07-23T12:43:26Z</time>
      </trkpt>
      <trkpt lat="45.73251" lon="6.45556">
        <ele>1180</ele>
        <time>2022-07-23T12:43:27Z</time>
      </trkpt>
      <trkpt lat="45.73252" lon="6.45556">
        <ele>1180</ele>
        <time>2022-07-23T12:43:28Z</time>
      </trkpt>
      <trkpt lat="45.73252" lon="6.45556">
        <ele>1180</ele>
        <time>2022-07-23T12:43:29Z</time>
      </trkpt>
      <trkpt lat="45.73253" lon="6.45556">
        <ele>1181</ele>
        <time>2022-07-23T12:43:30Z</time>
      </trkpt>
      <trkpt lat="45.73254" lon="6.45556">
        <ele>1181</ele>
        <time>2022-07-23T12:43:31Z</time>
      </trkpt>
      <trkpt lat="45.73254" lon="6.45556">
        <ele>1181</ele>
        <time>2022-07-23T12:43:32Z</time>
      </trkpt>
      <trkpt lat="45.73255" lon="6.45557">
        <ele>1181</ele>
        <time>2022-07-23T12:43:33Z</time>
      </trkpt>
      <trkpt lat="45.73256" lon="6.45557">
        <ele>1181</ele>
        <time>2022-07-23T12:43:34Z</time>
      </trkpt>
      <trkpt lat="45.73256" lon="6.45557">
        <ele>1182</ele>
        <time>2022-07-23T12:43:35Z</time>
      </trkpt>
      <trkpt lat="45.73257" lon="6.45557">
        <ele>1182</ele>
        <time>2022-07-23T12:43:36Z</time>
      </trkpt>
      <trkpt lat="45.73257" lon="6.45557">
        <ele>1182</ele>
        <time>2022-07-23T12:43:37Z</time>
      </trkpt>
      <trkpt lat="45.73258" lon="6.45557">
        <ele>1182</ele>
        <time>2022-07-23T12:43:38Z</time>
      </trkpt>
      <trkpt lat="45.73259" lon="6.45557">
        <ele>1182</ele>
        <time>2022-07-23T12:43:39Z</time>
      </trkpt>
      <trkpt lat="45.73259" lon="6.45557">
        <ele>1183</ele>
        <time>2022-07-23T12:43:40Z</time>
      </trkpt>
      <trkpt lat="45.7326" lon="6.45558">
        <ele>1183</ele>
        <time>2022-07-23T12:43:41Z</time>
      </trkpt>
      <trkpt lat="45.7326" lon="6.45558">
        <ele>1183</ele>
        <time>2022-07-23T12:43:42Z</time>
      </trkpt>
      <trkpt lat="45.73261" lon="6.45558">
        <ele>1183</ele>
        <time>2022-07-23T12:43:43Z</time>
      </trkpt>
      <trkpt lat="45.73261" lon="6.45558">
        <ele>1183</ele>
        <time>2022-07-23T12:43:44Z</time>
      </trkpt>
      <trkpt lat="45.73262" lon="6.45558">
        <ele>1183</ele>
        <time>2022-07-23T12:43:45Z</time>
      </trkpt>
      <trkpt lat="45.73262" lon="6.45558">
        <ele>1183</ele>
        <time>2022-07-23T12:43:46Z</time>
      </trkpt>
      <trkpt lat="45.73263" lon="6.45558">
        <ele>1183</ele>
        <time>2022-07-23T12:43:47Z</time>
      </trkpt>
      <trkpt lat="45.73263" lon="6.45559">
        <ele>1183</ele>
        <time>2022-07-23T12:43:48Z</time>
      </trkpt>
      <trkpt lat="45.73263" lon="6.4556">
        <ele>1183</ele>
        <time>2022-07-23T12:43:49Z</time>
      </trkpt>
      <trkpt lat="45.73264" lon="6.45561">
        <ele>1184</ele>
        <time>2022-07-23T12:43:50Z</time>
      </trkpt>
      <trkpt lat="45.73264" lon="6.45562">
        <ele>1184</ele>
        <time>2022-07-23T12:43:51Z</time>
      </trkpt>
      <trkpt lat="45.73265" lon="6.45562">
        <ele>1184</ele>
        <time>2022-07-23T12:43:52Z</time>
      </trkpt>
      <trkpt lat="45.73265" lon="6.45563">
        <ele>1184</ele>
        <time>2022-07-23T12:43:53Z</time>
      </trkpt>
      <trkpt lat="45.73266" lon="6.45564">
        <ele>1184</ele>
        <time>2022-07-23T12:43:54Z</time>
      </trkpt>
      <trkpt lat="45.73266" lon="6.45565">
        <ele>1185</ele>
        <time>2022-07-23T12:43:55Z</time>
      </trkpt>
      <trkpt lat="45.73267" lon="6.45566">
        <ele>1185</ele>
        <time>2022-07-23T12:43:56Z</time>
      </trkpt>
      <trkpt lat="45.73267" lon="6.45567">
        <ele>1185</ele>
        <time>2022-07-23T12:43:57Z</time>
      </trkpt>
      <trkpt lat="45.73268" lon="6.45567">
        <ele>1185</ele>
        <time>2022-07-23T12:43:58Z</time>
      </trkpt>
      <trkpt lat="45.73269" lon="6.45568">
        <ele>1185</ele>
        <time>2022-07-23T12:43:59Z</time>
      </trkpt>
      <trkpt lat="45.73269" lon="6.45569">
        <ele>1185</ele>
        <time>2022-07-23T12:44:00Z</time>
      </trkpt>
      <trkpt lat="45.73269" lon="6.4557">
        <ele>1185</ele>
        <time>2022-07-23T12:44:01Z</time>
      </trkpt>
      <trkpt lat="45.7327" lon="6.4557">
        <ele>1185</ele>
        <time>2022-07-23T12:44:02Z</time>
      </trkpt>
      <trkpt lat="45.73271" lon="6.45574">
        <ele>1188</ele>
        <time>2022-07-23T12:44:24Z</time>
      </trkpt>
      <trkpt lat="45.73271" lon="6.45575">
        <ele>1188</ele>
        <time>2022-07-23T12:44:25Z</time>
      </trkpt>
      <trkpt lat="45.73271" lon="6.45577">
        <ele>1188</ele>
        <time>2022-07-23T12:44:26Z</time>
      </trkpt>
      <trkpt lat="45.73271" lon="6.45578">
        <ele>1188</ele>
        <time>2022-07-23T12:44:27Z</time>
      </trkpt>
      <trkpt lat="45.73272" lon="6.45579">
        <ele>1188</ele>
        <time>2022-07-23T12:44:28Z</time>
      </trkpt>
      <trkpt lat="45.73272" lon="6.4558">
        <ele>1188</ele>
        <time>2022-07-23T12:44:29Z</time>
      </trkpt>
      <trkpt lat="45.73272" lon="6.45581">
        <ele>1189</ele>
        <time>2022-07-23T12:44:30Z</time>
      </trkpt>
      <trkpt lat="45.73272" lon="6.45582">
        <ele>1189</ele>
        <time>2022-07-23T12:44:31Z</time>
      </trkpt>
      <trkpt lat="45.73272" lon="6.45583">
        <ele>1189</ele>
        <time>2022-07-23T12:44:32Z</time>
      </trkpt>
      <trkpt lat="45.73272" lon="6.45584">
        <ele>1189</ele>
        <time>2022-07-23T12:44:33Z</time>
      </trkpt>
      <trkpt lat="45.73273" lon="6.45585">
        <ele>1189</ele>
        <time>2022-07-23T12:44:34Z</time>
      </trkpt>
      <trkpt lat="45.73275" lon="6.45585">
        <ele>1191</ele>
        <time>2022-07-23T12:44:49Z</time>
      </trkpt>
      <trkpt lat="45.73276" lon="6.45585">
        <ele>1192</ele>
        <time>2022-07-23T12:44:50Z</time>
      </trkpt>
      <trkpt lat="45.73277" lon="6.45584">
        <ele>1192</ele>
        <time>2022-07-23T12:44:51Z</time>
      </trkpt>
      <trkpt lat="45.7328" lon="6.45587">
        <ele>1195</ele>
        <time>2022-07-23T12:45:14Z</time>
      </trkpt>
      <trkpt lat="45.73282" lon="6.45589">
        <ele>1196</ele>
        <time>2022-07-23T12:45:15Z</time>
      </trkpt>
      <trkpt lat="45.73284" lon="6.45591">
        <ele>1196</ele>
        <time>2022-07-23T12:45:16Z</time>
      </trkpt>
      <trkpt lat="45.73284" lon="6.45593">
        <ele>1196</ele>
        <time>2022-07-23T12:45:17Z</time>
      </trkpt>
      <trkpt lat="45.73285" lon="6.45594">
        <ele>1196</ele>
        <time>2022-07-23T12:45:18Z</time>
      </trkpt>
      <trkpt lat="45.73286" lon="6.45596">
        <ele>1196</ele>
        <time>2022-07-23T12:45:19Z</time>
      </trkpt>
      <trkpt lat="45.73287" lon="6.45597">
        <ele>1197</ele>
        <time>2022-07-23T12:45:20Z</time>
      </trkpt>
      <trkpt lat="45.73287" lon="6.45599">
        <ele>1197</ele>
        <time>2022-07-23T12:45:21Z</time>
      </trkpt>
      <trkpt lat="45.73288" lon="6.456">
        <ele>1197</ele>
        <time>2022-07-23T12:45:22Z</time>
      </trkpt>
      <trkpt lat="45.73288" lon="6.45601">
        <ele>1197</ele>
        <time>2022-07-23T12:45:23Z</time>
      </trkpt>
      <trkpt lat="45.73289" lon="6.45603">
        <ele>1197</ele>
        <time>2022-07-23T12:45:24Z</time>
      </trkpt>
      <trkpt lat="45.73289" lon="6.45604">
        <ele>1198</ele>
        <time>2022-07-23T12:45:25Z</time>
      </trkpt>
      <trkpt lat="45.73289" lon="6.45605">
        <ele>1198</ele>
        <time>2022-07-23T12:45:26Z</time>
      </trkpt>
      <trkpt lat="45.7329" lon="6.45606">
        <ele>1198</ele>
        <time>2022-07-23T12:45:27Z</time>
      </trkpt>
      <trkpt lat="45.7329" lon="6.45608">
        <ele>1198</ele>
        <time>2022-07-23T12:45:28Z</time>
      </trkpt>
      <trkpt lat="45.73291" lon="6.45608">
        <ele>1198</ele>
        <time>2022-07-23T12:45:29Z</time>
      </trkpt>
      <trkpt lat="45.73291" lon="6.45609">
        <ele>1199</ele>
        <time>2022-07-23T12:45:30Z</time>
      </trkpt>
      <trkpt lat="45.73291" lon="6.45609">
        <ele>1199</ele>
        <time>2022-07-23T12:45:31Z</time>
      </trkpt>
      <trkpt lat="45.73291" lon="6.45609">
        <ele>1199</ele>
        <time>2022-07-23T12:45:32Z</time>
      </trkpt>
      <trkpt lat="45.73292" lon="6.4561">
        <ele>1199</ele>
        <time>2022-07-23T12:45:33Z</time>
      </trkpt>
      <trkpt lat="45.73292" lon="6.4561">
        <ele>1199</ele>
        <time>2022-07-23T12:45:34Z</time>
      </trkpt>
      <trkpt lat="45.73293" lon="6.45611">
        <ele>1199</ele>
        <time>2022-07-23T12:45:35Z</time>
      </trkpt>
      <trkpt lat="45.73293" lon="6.45611">
        <ele>1199</ele>
        <time>2022-07-23T12:45:36Z</time>
      </trkpt>
      <trkpt lat="45.73293" lon="6.45611">
        <ele>1199</ele>
        <time>2022-07-23T12:45:37Z</time>
      </trkpt>
      <trkpt lat="45.73294" lon="6.45612">
        <ele>1199</ele>
        <time>2022-07-23T12:45:38Z</time>
      </trkpt>
      <trkpt lat="45.73295" lon="6.45613">
        <ele>1201</ele>
        <time>2022-07-23T12:45:45Z</time>
      </trkpt>
      <trkpt lat="45.73296" lon="6.45613">
        <ele>1201</ele>
        <time>2022-07-23T12:45:46Z</time>
      </trkpt>
      <trkpt lat="45.73296" lon="6.45613">
        <ele>1201</ele>
        <time>2022-07-23T12:45:47Z</time>
      </trkpt>
      <trkpt lat="45.73297" lon="6.45613">
        <ele>1201</ele>
        <time>2022-07-23T12:45:48Z</time>
      </trkpt>
      <trkpt lat="45.73298" lon="6.45614">
        <ele>1201</ele>
        <time>2022-07-23T12:45:49Z</time>
      </trkpt>
      <trkpt lat="45.73298" lon="6.45614">
        <ele>1202</ele>
        <time>2022-07-23T12:45:50Z</time>
      </trkpt>
      <trkpt lat="45.73299" lon="6.45615">
        <ele>1202</ele>
        <time>2022-07-23T12:45:51Z</time>
      </trkpt>
      <trkpt lat="45.733" lon="6.45616">
        <ele>1203</ele>
        <time>2022-07-23T12:45:59Z</time>
      </trkpt>
      <trkpt lat="45.733" lon="6.45618">
        <ele>1203</ele>
        <time>2022-07-23T12:46:00Z</time>
      </trkpt>
      <trkpt lat="45.733" lon="6.45619">
        <ele>1203</ele>
        <time>2022-07-23T12:46:01Z</time>
      </trkpt>
      <trkpt lat="45.73301" lon="6.4562">
        <ele>1203</ele>
        <time>2022-07-23T12:46:02Z</time>
      </trkpt>
      <trkpt lat="45.73301" lon="6.45621">
        <ele>1204</ele>
        <time>2022-07-23T12:46:03Z</time>
      </trkpt>
      <trkpt lat="45.73301" lon="6.45622">
        <ele>1204</ele>
        <time>2022-07-23T12:46:04Z</time>
      </trkpt>
      <trkpt lat="45.733" lon="6.45623">
        <ele>1205</ele>
        <time>2022-07-23T12:46:05Z</time>
      </trkpt>
      <trkpt lat="45.733" lon="6.45624">
        <ele>1205</ele>
        <time>2022-07-23T12:46:06Z</time>
      </trkpt>
      <trkpt lat="45.733" lon="6.45626">
        <ele>1205</ele>
        <time>2022-07-23T12:46:07Z</time>
      </trkpt>
      <trkpt lat="45.733" lon="6.45627">
        <ele>1205</ele>
        <time>2022-07-23T12:46:08Z</time>
      </trkpt>
      <trkpt lat="45.73301" lon="6.45629">
        <ele>1205</ele>
        <time>2022-07-23T12:46:09Z</time>
      </trkpt>
      <trkpt lat="45.73301" lon="6.4563">
        <ele>1206</ele>
        <time>2022-07-23T12:46:10Z</time>
      </trkpt>
      <trkpt lat="45.73301" lon="6.45632">
        <ele>1206</ele>
        <time>2022-07-23T12:46:11Z</time>
      </trkpt>
      <trkpt lat="45.73301" lon="6.45634">
        <ele>1206</ele>
        <time>2022-07-23T12:46:12Z</time>
      </trkpt>
      <trkpt lat="45.73301" lon="6.45635">
        <ele>1206</ele>
        <time>2022-07-23T12:46:13Z</time>
      </trkpt>
      <trkpt lat="45.73301" lon="6.45637">
        <ele>1206</ele>
        <time>2022-07-23T12:46:14Z</time>
      </trkpt>
      <trkpt lat="45.73301" lon="6.45639">
        <ele>1206</ele>
        <time>2022-07-23T12:46:15Z</time>
      </trkpt>
      <trkpt lat="45.73301" lon="6.45641">
        <ele>1206</ele>
        <time>2022-07-23T12:46:16Z</time>
      </trkpt>
      <trkpt lat="45.73301" lon="6.45642">
        <ele>1206</ele>
        <time>2022-07-23T12:46:17Z</time>
      </trkpt>
      <trkpt lat="45.73301" lon="6.45643">
        <ele>1206</ele>
        <time>2022-07-23T12:46:18Z</time>
      </trkpt>
      <trkpt lat="45.73302" lon="6.45644">
        <ele>1206</ele>
        <time>2022-07-23T12:46:19Z</time>
      </trkpt>
      <trkpt lat="45.73302" lon="6.45645">
        <ele>1206</ele>
        <time>2022-07-23T12:46:20Z</time>
      </trkpt>
      <trkpt lat="45.73302" lon="6.45647">
        <ele>1206</ele>
        <time>2022-07-23T12:46:21Z</time>
      </trkpt>
      <trkpt lat="45.73302" lon="6.45648">
        <ele>1206</ele>
        <time>2022-07-23T12:46:22Z</time>
      </trkpt>
      <trkpt lat="45.73302" lon="6.45649">
        <ele>1206</ele>
        <time>2022-07-23T12:46:23Z</time>
      </trkpt>
      <trkpt lat="45.73302" lon="6.4565">
        <ele>1206</ele>
        <time>2022-07-23T12:46:24Z</time>
      </trkpt>
      <trkpt lat="45.73302" lon="6.45651">
        <ele>1207</ele>
        <time>2022-07-23T12:46:25Z</time>
      </trkpt>
      <trkpt lat="45.73302" lon="6.45652">
        <ele>1207</ele>
        <time>2022-07-23T12:46:26Z</time>
      </trkpt>
      <trkpt lat="45.73302" lon="6.45653">
        <ele>1207</ele>
        <time>2022-07-23T12:46:27Z</time>
      </trkpt>
      <trkpt lat="45.73302" lon="6.45655">
        <ele>1207</ele>
        <time>2022-07-23T12:46:28Z</time>
      </trkpt>
      <trkpt lat="45.73302" lon="6.45656">
        <ele>1207</ele>
        <time>2022-07-23T12:46:29Z</time>
      </trkpt>
      <trkpt lat="45.73302" lon="6.45657">
        <ele>1208</ele>
        <time>2022-07-23T12:46:30Z</time>
      </trkpt>
      <trkpt lat="45.73302" lon="6.45658">
        <ele>1208</ele>
        <time>2022-07-23T12:46:31Z</time>
      </trkpt>
      <trkpt lat="45.73302" lon="6.45659">
        <ele>1208</ele>
        <time>2022-07-23T12:46:32Z</time>
      </trkpt>
      <trkpt lat="45.73302" lon="6.4566">
        <ele>1208</ele>
        <time>2022-07-23T12:46:33Z</time>
      </trkpt>
      <trkpt lat="45.73303" lon="6.45661">
        <ele>1208</ele>
        <time>2022-07-23T12:46:34Z</time>
      </trkpt>
      <trkpt lat="45.73303" lon="6.45662">
        <ele>1208</ele>
        <time>2022-07-23T12:46:35Z</time>
      </trkpt>
      <trkpt lat="45.73303" lon="6.45662">
        <ele>1208</ele>
        <time>2022-07-23T12:46:36Z</time>
      </trkpt>
      <trkpt lat="45.73303" lon="6.45662">
        <ele>1208</ele>
        <time>2022-07-23T12:46:37Z</time>
      </trkpt>
      <trkpt lat="45.73304" lon="6.45663">
        <ele>1208</ele>
        <time>2022-07-23T12:46:38Z</time>
      </trkpt>
      <trkpt lat="45.73305" lon="6.45664">
        <ele>1208</ele>
        <time>2022-07-23T12:46:39Z</time>
      </trkpt>
      <trkpt lat="45.73305" lon="6.45664">
        <ele>1209</ele>
        <time>2022-07-23T12:46:40Z</time>
      </trkpt>
      <trkpt lat="45.73305" lon="6.45665">
        <ele>1209</ele>
        <time>2022-07-23T12:46:41Z</time>
      </trkpt>
      <trkpt lat="45.73305" lon="6.45665">
        <ele>1209</ele>
        <time>2022-07-23T12:46:42Z</time>
      </trkpt>
      <trkpt lat="45.73306" lon="6.45666">
        <ele>1209</ele>
        <time>2022-07-23T12:46:43Z</time>
      </trkpt>
      <trkpt lat="45.73306" lon="6.45666">
        <ele>1209</ele>
        <time>2022-07-23T12:46:44Z</time>
      </trkpt>
      <trkpt lat="45.73306" lon="6.45667">
        <ele>1210</ele>
        <time>2022-07-23T12:46:45Z</time>
      </trkpt>
      <trkpt lat="45.73307" lon="6.45668">
        <ele>1210</ele>
        <time>2022-07-23T12:46:46Z</time>
      </trkpt>
      <trkpt lat="45.73307" lon="6.45669">
        <ele>1210</ele>
        <time>2022-07-23T12:46:47Z</time>
      </trkpt>
      <trkpt lat="45.73307" lon="6.4567">
        <ele>1210</ele>
        <time>2022-07-23T12:46:48Z</time>
      </trkpt>
      <trkpt lat="45.73308" lon="6.45671">
        <ele>1210</ele>
        <time>2022-07-23T12:46:49Z</time>
      </trkpt>
      <trkpt lat="45.73308" lon="6.45672">
        <ele>1211</ele>
        <time>2022-07-23T12:46:50Z</time>
      </trkpt>
      <trkpt lat="45.73309" lon="6.45672">
        <ele>1211</ele>
        <time>2022-07-23T12:46:51Z</time>
      </trkpt>
      <trkpt lat="45.73309" lon="6.45673">
        <ele>1211</ele>
        <time>2022-07-23T12:46:52Z</time>
      </trkpt>
      <trkpt lat="45.7331" lon="6.45674">
        <ele>1211</ele>
        <time>2022-07-23T12:46:53Z</time>
      </trkpt>
      <trkpt lat="45.7331" lon="6.45675">
        <ele>1211</ele>
        <time>2022-07-23T12:46:54Z</time>
      </trkpt>
      <trkpt lat="45.7331" lon="6.45676">
        <ele>1211</ele>
        <time>2022-07-23T12:46:55Z</time>
      </trkpt>
      <trkpt lat="45.73311" lon="6.45677">
        <ele>1211</ele>
        <time>2022-07-23T12:46:56Z</time>
      </trkpt>
      <trkpt lat="45.73311" lon="6.45678">
        <ele>1211</ele>
        <time>2022-07-23T12:46:57Z</time>
      </trkpt>
      <trkpt lat="45.73312" lon="6.45678">
        <ele>1211</ele>
        <time>2022-07-23T12:46:58Z</time>
      </trkpt>
      <trkpt lat="45.73312" lon="6.45679">
        <ele>1211</ele>
        <time>2022-07-23T12:46:59Z</time>
      </trkpt>
      <trkpt lat="45.73312" lon="6.4568">
        <ele>1212</ele>
        <time>2022-07-23T12:47:00Z</time>
      </trkpt>
      <trkpt lat="45.73313" lon="6.45681">
        <ele>1212</ele>
        <time>2022-07-23T12:47:01Z</time>
      </trkpt>
      <trkpt lat="45.73313" lon="6.45682">
        <ele>1212</ele>
        <time>2022-07-23T12:47:02Z</time>
      </trkpt>
      <trkpt lat="45.73313" lon="6.45683">
        <ele>1212</ele>
        <time>2022-07-23T12:47:03Z</time>
      </trkpt>
      <trkpt lat="45.73313" lon="6.45684">
        <ele>1212</ele>
        <time>2022-07-23T12:47:04Z</time>
      </trkpt>
      <trkpt lat="45.73313" lon="6.45685">
        <ele>1213</ele>
        <time>2022-07-23T12:47:05Z</time>
      </trkpt>
      <trkpt lat="45.73313" lon="6.45686">
        <ele>1213</ele>
        <time>2022-07-23T12:47:06Z</time>
      </trkpt>
      <trkpt lat="45.73313" lon="6.45687">
        <ele>1213</ele>
        <time>2022-07-23T12:47:07Z</time>
      </trkpt>
      <trkpt lat="45.73313" lon="6.45688">
        <ele>1213</ele>
        <time>2022-07-23T12:47:08Z</time>
      </trkpt>
      <trkpt lat="45.73313" lon="6.4569">
        <ele>1213</ele>
        <time>2022-07-23T12:47:09Z</time>
      </trkpt>
      <trkpt lat="45.73314" lon="6.45691">
        <ele>1213</ele>
        <time>2022-07-23T12:47:10Z</time>
      </trkpt>
      <trkpt lat="45.73314" lon="6.45692">
        <ele>1213</ele>
        <time>2022-07-23T12:47:11Z</time>
      </trkpt>
      <trkpt lat="45.73314" lon="6.45693">
        <ele>1213</ele>
        <time>2022-07-23T12:47:12Z</time>
      </trkpt>
      <trkpt lat="45.73314" lon="6.45695">
        <ele>1213</ele>
        <time>2022-07-23T12:47:13Z</time>
      </trkpt>
      <trkpt lat="45.73314" lon="6.45696">
        <ele>1213</ele>
        <time>2022-07-23T12:47:14Z</time>
      </trkpt>
      <trkpt lat="45.73314" lon="6.45697">
        <ele>1214</ele>
        <time>2022-07-23T12:47:15Z</time>
      </trkpt>
      <trkpt lat="45.73315" lon="6.45698">
        <ele>1214</ele>
        <time>2022-07-23T12:47:16Z</time>
      </trkpt>
      <trkpt lat="45.73315" lon="6.45699">
        <ele>1214</ele>
        <time>2022-07-23T12:47:17Z</time>
      </trkpt>
      <trkpt lat="45.73316" lon="6.45701">
        <ele>1214</ele>
        <time>2022-07-23T12:47:18Z</time>
      </trkpt>
      <trkpt lat="45.73317" lon="6.45702">
        <ele>1214</ele>
        <time>2022-07-23T12:47:19Z</time>
      </trkpt>
      <trkpt lat="45.73317" lon="6.45704">
        <ele>1214</ele>
        <time>2022-07-23T12:47:20Z</time>
      </trkpt>
      <trkpt lat="45.73317" lon="6.45705">
        <ele>1214</ele>
        <time>2022-07-23T12:47:21Z</time>
      </trkpt>
      <trkpt lat="45.73317" lon="6.45707">
        <ele>1214</ele>
        <time>2022-07-23T12:47:22Z</time>
      </trkpt>
      <trkpt lat="45.73317" lon="6.45708">
        <ele>1214</ele>
        <time>2022-07-23T12:47:23Z</time>
      </trkpt>
      <trkpt lat="45.73318" lon="6.45712">
        <ele>1215</ele>
        <time>2022-07-23T12:47:31Z</time>
      </trkpt>
      <trkpt lat="45.73318" lon="6.45714">
        <ele>1215</ele>
        <time>2022-07-23T12:47:32Z</time>
      </trkpt>
      <trkpt lat="45.73318" lon="6.45716">
        <ele>1215</ele>
        <time>2022-07-23T12:47:33Z</time>
      </trkpt>
      <trkpt lat="45.73318" lon="6.45717">
        <ele>1215</ele>
        <time>2022-07-23T12:47:34Z</time>
      </trkpt>
      <trkpt lat="45.73318" lon="6.45719">
        <ele>1216</ele>
        <time>2022-07-23T12:47:35Z</time>
      </trkpt>
      <trkpt lat="45.73317" lon="6.4572">
        <ele>1216</ele>
        <time>2022-07-23T12:47:36Z</time>
      </trkpt>
      <trkpt lat="45.73317" lon="6.45721">
        <ele>1216</ele>
        <time>2022-07-23T12:47:37Z</time>
      </trkpt>
      <trkpt lat="45.73316" lon="6.45723">
        <ele>1216</ele>
        <time>2022-07-23T12:47:38Z</time>
      </trkpt>
      <trkpt lat="45.73316" lon="6.45725">
        <ele>1216</ele>
        <time>2022-07-23T12:47:39Z</time>
      </trkpt>
      <trkpt lat="45.73315" lon="6.45725">
        <ele>1217</ele>
        <time>2022-07-23T12:47:40Z</time>
      </trkpt>
      <trkpt lat="45.73315" lon="6.45726">
        <ele>1217</ele>
        <time>2022-07-23T12:47:41Z</time>
      </trkpt>
      <trkpt lat="45.73315" lon="6.45728">
        <ele>1217</ele>
        <time>2022-07-23T12:47:42Z</time>
      </trkpt>
      <trkpt lat="45.73314" lon="6.45729">
        <ele>1217</ele>
        <time>2022-07-23T12:47:43Z</time>
      </trkpt>
      <trkpt lat="45.73314" lon="6.4573">
        <ele>1217</ele>
        <time>2022-07-23T12:47:44Z</time>
      </trkpt>
      <trkpt lat="45.73314" lon="6.45732">
        <ele>1217</ele>
        <time>2022-07-23T12:47:45Z</time>
      </trkpt>
      <trkpt lat="45.73314" lon="6.45733">
        <ele>1217</ele>
        <time>2022-07-23T12:47:46Z</time>
      </trkpt>
      <trkpt lat="45.73314" lon="6.45734">
        <ele>1217</ele>
        <time>2022-07-23T12:47:47Z</time>
      </trkpt>
      <trkpt lat="45.73314" lon="6.45734">
        <ele>1217</ele>
        <time>2022-07-23T12:47:48Z</time>
      </trkpt>
      <trkpt lat="45.73314" lon="6.45735">
        <ele>1217</ele>
        <time>2022-07-23T12:47:49Z</time>
      </trkpt>
      <trkpt lat="45.73314" lon="6.45736">
        <ele>1218</ele>
        <time>2022-07-23T12:47:50Z</time>
      </trkpt>
      <trkpt lat="45.73314" lon="6.45737">
        <ele>1218</ele>
        <time>2022-07-23T12:47:51Z</time>
      </trkpt>
      <trkpt lat="45.73314" lon="6.45738">
        <ele>1218</ele>
        <time>2022-07-23T12:47:52Z</time>
      </trkpt>
      <trkpt lat="45.73314" lon="6.45738">
        <ele>1218</ele>
        <time>2022-07-23T12:47:53Z</time>
      </trkpt>
      <trkpt lat="45.73314" lon="6.45739">
        <ele>1218</ele>
        <time>2022-07-23T12:47:54Z</time>
      </trkpt>
      <trkpt lat="45.73314" lon="6.4574">
        <ele>1218</ele>
        <time>2022-07-23T12:47:55Z</time>
      </trkpt>
      <trkpt lat="45.73315" lon="6.45741">
        <ele>1218</ele>
        <time>2022-07-23T12:47:56Z</time>
      </trkpt>
      <trkpt lat="45.73315" lon="6.45742">
        <ele>1218</ele>
        <time>2022-07-23T12:47:57Z</time>
      </trkpt>
      <trkpt lat="45.73315" lon="6.45743">
        <ele>1218</ele>
        <time>2022-07-23T12:47:58Z</time>
      </trkpt>
      <trkpt lat="45.73315" lon="6.45744">
        <ele>1218</ele>
        <time>2022-07-23T12:47:59Z</time>
      </trkpt>
      <trkpt lat="45.73315" lon="6.45745">
        <ele>1219</ele>
        <time>2022-07-23T12:48:00Z</time>
      </trkpt>
      <trkpt lat="45.73315" lon="6.45747">
        <ele>1219</ele>
        <time>2022-07-23T12:48:01Z</time>
      </trkpt>
      <trkpt lat="45.73316" lon="6.45748">
        <ele>1219</ele>
        <time>2022-07-23T12:48:02Z</time>
      </trkpt>
      <trkpt lat="45.73316" lon="6.45749">
        <ele>1219</ele>
        <time>2022-07-23T12:48:03Z</time>
      </trkpt>
      <trkpt lat="45.73316" lon="6.4575">
        <ele>1219</ele>
        <time>2022-07-23T12:48:04Z</time>
      </trkpt>
      <trkpt lat="45.73316" lon="6.45752">
        <ele>1219</ele>
        <time>2022-07-23T12:48:05Z</time>
      </trkpt>
      <trkpt lat="45.73316" lon="6.45753">
        <ele>1219</ele>
        <time>2022-07-23T12:48:06Z</time>
      </trkpt>
      <trkpt lat="45.73316" lon="6.45754">
        <ele>1219</ele>
        <time>2022-07-23T12:48:07Z</time>
      </trkpt>
      <trkpt lat="45.73317" lon="6.45755">
        <ele>1219</ele>
        <time>2022-07-23T12:48:08Z</time>
      </trkpt>
      <trkpt lat="45.73317" lon="6.45756">
        <ele>1219</ele>
        <time>2022-07-23T12:48:09Z</time>
      </trkpt>
      <trkpt lat="45.73317" lon="6.45757">
        <ele>1220</ele>
        <time>2022-07-23T12:48:10Z</time>
      </trkpt>
      <trkpt lat="45.73317" lon="6.45758">
        <ele>1220</ele>
        <time>2022-07-23T12:48:11Z</time>
      </trkpt>
      <trkpt lat="45.73317" lon="6.45759">
        <ele>1220</ele>
        <time>2022-07-23T12:48:12Z</time>
      </trkpt>
      <trkpt lat="45.73317" lon="6.4576">
        <ele>1220</ele>
        <time>2022-07-23T12:48:13Z</time>
      </trkpt>
      <trkpt lat="45.73317" lon="6.45761">
        <ele>1220</ele>
        <time>2022-07-23T12:48:14Z</time>
      </trkpt>
      <trkpt lat="45.73317" lon="6.45762">
        <ele>1220</ele>
        <time>2022-07-23T12:48:15Z</time>
      </trkpt>
      <trkpt lat="45.73317" lon="6.45763">
        <ele>1220</ele>
        <time>2022-07-23T12:48:16Z</time>
      </trkpt>
      <trkpt lat="45.73317" lon="6.45764">
        <ele>1220</ele>
        <time>2022-07-23T12:48:17Z</time>
      </trkpt>
      <trkpt lat="45.73317" lon="6.45766">
        <ele>1220</ele>
        <time>2022-07-23T12:48:18Z</time>
      </trkpt>
      <trkpt lat="45.73317" lon="6.45767">
        <ele>1220</ele>
        <time>2022-07-23T12:48:19Z</time>
      </trkpt>
      <trkpt lat="45.73317" lon="6.45768">
        <ele>1221</ele>
        <time>2022-07-23T12:48:20Z</time>
      </trkpt>
      <trkpt lat="45.73317" lon="6.45769">
        <ele>1221</ele>
        <time>2022-07-23T12:48:21Z</time>
      </trkpt>
      <trkpt lat="45.73317" lon="6.4577">
        <ele>1221</ele>
        <time>2022-07-23T12:48:22Z</time>
      </trkpt>
      <trkpt lat="45.73317" lon="6.45772">
        <ele>1221</ele>
        <time>2022-07-23T12:48:23Z</time>
      </trkpt>
      <trkpt lat="45.73316" lon="6.45773">
        <ele>1224</ele>
        <time>2022-07-23T12:50:14Z</time>
      </trkpt>
      <trkpt lat="45.73316" lon="6.45773">
        <ele>1224</ele>
        <time>2022-07-23T12:50:15Z</time>
      </trkpt>
      <trkpt lat="45.73316" lon="6.45774">
        <ele>1224</ele>
        <time>2022-07-23T12:50:16Z</time>
      </trkpt>
      <trkpt lat="45.73316" lon="6.45775">
        <ele>1224</ele>
        <time>2022-07-23T12:50:17Z</time>
      </trkpt>
      <trkpt lat="45.73316" lon="6.45776">
        <ele>1224</ele>
        <time>2022-07-23T12:50:18Z</time>
      </trkpt>
      <trkpt lat="45.73316" lon="6.45777">
        <ele>1224</ele>
        <time>2022-07-23T12:50:19Z</time>
      </trkpt>
      <trkpt lat="45.73316" lon="6.45778">
        <ele>1224</ele>
        <time>2022-07-23T12:50:20Z</time>
      </trkpt>
      <trkpt lat="45.73316" lon="6.45779">
        <ele>1224</ele>
        <time>2022-07-23T12:50:21Z</time>
      </trkpt>
      <trkpt lat="45.73317" lon="6.4578">
        <ele>1224</ele>
        <time>2022-07-23T12:50:22Z</time>
      </trkpt>
      <trkpt lat="45.73317" lon="6.45781">
        <ele>1224</ele>
        <time>2022-07-23T12:50:23Z</time>
      </trkpt>
      <trkpt lat="45.73318" lon="6.45782">
        <ele>1224</ele>
        <time>2022-07-23T12:50:24Z</time>
      </trkpt>
      <trkpt lat="45.73318" lon="6.45784">
        <ele>1224</ele>
        <time>2022-07-23T12:50:25Z</time>
      </trkpt>
      <trkpt lat="45.73318" lon="6.45785">
        <ele>1224</ele>
        <time>2022-07-23T12:50:26Z</time>
      </trkpt>
      <trkpt lat="45.73319" lon="6.45787">
        <ele>1224</ele>
        <time>2022-07-23T12:50:27Z</time>
      </trkpt>
      <trkpt lat="45.73319" lon="6.45789">
        <ele>1224</ele>
        <time>2022-07-23T12:50:28Z</time>
      </trkpt>
      <trkpt lat="45.73319" lon="6.4579">
        <ele>1224</ele>
        <time>2022-07-23T12:50:29Z</time>
      </trkpt>
      <trkpt lat="45.73319" lon="6.45792">
        <ele>1224</ele>
        <time>2022-07-23T12:50:30Z</time>
      </trkpt>
      <trkpt lat="45.73319" lon="6.45793">
        <ele>1224</ele>
        <time>2022-07-23T12:50:31Z</time>
      </trkpt>
      <trkpt lat="45.73319" lon="6.45795">
        <ele>1224</ele>
        <time>2022-07-23T12:50:32Z</time>
      </trkpt>
      <trkpt lat="45.7332" lon="6.45796">
        <ele>1224</ele>
        <time>2022-07-23T12:50:33Z</time>
      </trkpt>
      <trkpt lat="45.7332" lon="6.45797">
        <ele>1224</ele>
        <time>2022-07-23T12:50:34Z</time>
      </trkpt>
      <trkpt lat="45.7332" lon="6.45798">
        <ele>1224</ele>
        <time>2022-07-23T12:50:35Z</time>
      </trkpt>
      <trkpt lat="45.73321" lon="6.45799">
        <ele>1224</ele>
        <time>2022-07-23T12:50:36Z</time>
      </trkpt>
      <trkpt lat="45.73321" lon="6.458">
        <ele>1224</ele>
        <time>2022-07-23T12:50:37Z</time>
      </trkpt>
      <trkpt lat="45.73322" lon="6.45801">
        <ele>1224</ele>
        <time>2022-07-23T12:50:38Z</time>
      </trkpt>
      <trkpt lat="45.73322" lon="6.45803">
        <ele>1224</ele>
        <time>2022-07-23T12:50:39Z</time>
      </trkpt>
      <trkpt lat="45.73323" lon="6.45804">
        <ele>1225</ele>
        <time>2022-07-23T12:50:40Z</time>
      </trkpt>
      <trkpt lat="45.73323" lon="6.45805">
        <ele>1225</ele>
        <time>2022-07-23T12:50:41Z</time>
      </trkpt>
      <trkpt lat="45.73323" lon="6.45807">
        <ele>1225</ele>
        <time>2022-07-23T12:50:42Z</time>
      </trkpt>
      <trkpt lat="45.73323" lon="6.45808">
        <ele>1225</ele>
        <time>2022-07-23T12:50:43Z</time>
      </trkpt>
      <trkpt lat="45.73323" lon="6.45809">
        <ele>1225</ele>
        <time>2022-07-23T12:50:44Z</time>
      </trkpt>
      <trkpt lat="45.73324" lon="6.45811">
        <ele>1226</ele>
        <time>2022-07-23T12:50:45Z</time>
      </trkpt>
      <trkpt lat="45.73324" lon="6.45812">
        <ele>1226</ele>
        <time>2022-07-23T12:50:46Z</time>
      </trkpt>
      <trkpt lat="45.73324" lon="6.45813">
        <ele>1226</ele>
        <time>2022-07-23T12:50:47Z</time>
      </trkpt>
      <trkpt lat="45.73325" lon="6.45814">
        <ele>1226</ele>
        <time>2022-07-23T12:50:48Z</time>
      </trkpt>
      <trkpt lat="45.73325" lon="6.45815">
        <ele>1226</ele>
        <time>2022-07-23T12:50:49Z</time>
      </trkpt>
      <trkpt lat="45.73325" lon="6.45816">
        <ele>1227</ele>
        <time>2022-07-23T12:50:50Z</time>
      </trkpt>
      <trkpt lat="45.73326" lon="6.45817">
        <ele>1227</ele>
        <time>2022-07-23T12:50:51Z</time>
      </trkpt>
      <trkpt lat="45.73326" lon="6.45818">
        <ele>1227</ele>
        <time>2022-07-23T12:50:52Z</time>
      </trkpt>
      <trkpt lat="45.73326" lon="6.4582">
        <ele>1227</ele>
        <time>2022-07-23T12:50:53Z</time>
      </trkpt>
      <trkpt lat="45.73327" lon="6.45821">
        <ele>1227</ele>
        <time>2022-07-23T12:50:54Z</time>
      </trkpt>
      <trkpt lat="45.73327" lon="6.45822">
        <ele>1227</ele>
        <time>2022-07-23T12:50:55Z</time>
      </trkpt>
      <trkpt lat="45.73327" lon="6.45823">
        <ele>1227</ele>
        <time>2022-07-23T12:50:56Z</time>
      </trkpt>
      <trkpt lat="45.73328" lon="6.45823">
        <ele>1227</ele>
        <time>2022-07-23T12:50:57Z</time>
      </trkpt>
      <trkpt lat="45.73328" lon="6.45824">
        <ele>1227</ele>
        <time>2022-07-23T12:50:58Z</time>
      </trkpt>
      <trkpt lat="45.73329" lon="6.45824">
        <ele>1227</ele>
        <time>2022-07-23T12:50:59Z</time>
      </trkpt>
      <trkpt lat="45.73329" lon="6.45825">
        <ele>1228</ele>
        <time>2022-07-23T12:51:00Z</time>
      </trkpt>
      <trkpt lat="45.73329" lon="6.45825">
        <ele>1228</ele>
        <time>2022-07-23T12:51:01Z</time>
      </trkpt>
      <trkpt lat="45.73329" lon="6.45826">
        <ele>1228</ele>
        <time>2022-07-23T12:51:02Z</time>
      </trkpt>
      <trkpt lat="45.7333" lon="6.45826">
        <ele>1228</ele>
        <time>2022-07-23T12:51:03Z</time>
      </trkpt>
      <trkpt lat="45.7333" lon="6.45827">
        <ele>1228</ele>
        <time>2022-07-23T12:51:04Z</time>
      </trkpt>
      <trkpt lat="45.73329" lon="6.45827">
        <ele>1229</ele>
        <time>2022-07-23T12:51:05Z</time>
      </trkpt>
      <trkpt lat="45.73329" lon="6.45828">
        <ele>1229</ele>
        <time>2022-07-23T12:51:06Z</time>
      </trkpt>
      <trkpt lat="45.73329" lon="6.45828">
        <ele>1229</ele>
        <time>2022-07-23T12:51:07Z</time>
      </trkpt>
      <trkpt lat="45.73329" lon="6.45828">
        <ele>1229</ele>
        <time>2022-07-23T12:51:08Z</time>
      </trkpt>
      <trkpt lat="45.73329" lon="6.45829">
        <ele>1229</ele>
        <time>2022-07-23T12:51:09Z</time>
      </trkpt>
      <trkpt lat="45.7333" lon="6.45829">
        <ele>1229</ele>
        <time>2022-07-23T12:51:10Z</time>
      </trkpt>
      <trkpt lat="45.7333" lon="6.4583">
        <ele>1229</ele>
        <time>2022-07-23T12:51:11Z</time>
      </trkpt>
      <trkpt lat="45.7333" lon="6.45831">
        <ele>1229</ele>
        <time>2022-07-23T12:51:12Z</time>
      </trkpt>
      <trkpt lat="45.73331" lon="6.45831">
        <ele>1229</ele>
        <time>2022-07-23T12:51:13Z</time>
      </trkpt>
      <trkpt lat="45.73332" lon="6.45832">
        <ele>1229</ele>
        <time>2022-07-23T12:51:14Z</time>
      </trkpt>
      <trkpt lat="45.73332" lon="6.45833">
        <ele>1230</ele>
        <time>2022-07-23T12:51:15Z</time>
      </trkpt>
      <trkpt lat="45.73333" lon="6.45834">
        <ele>1230</ele>
        <time>2022-07-23T12:51:16Z</time>
      </trkpt>
      <trkpt lat="45.73333" lon="6.45835">
        <ele>1230</ele>
        <time>2022-07-23T12:51:17Z</time>
      </trkpt>
      <trkpt lat="45.73334" lon="6.45836">
        <ele>1230</ele>
        <time>2022-07-23T12:51:18Z</time>
      </trkpt>
      <trkpt lat="45.73334" lon="6.45837">
        <ele>1230</ele>
        <time>2022-07-23T12:51:19Z</time>
      </trkpt>
      <trkpt lat="45.73334" lon="6.45838">
        <ele>1230</ele>
        <time>2022-07-23T12:51:20Z</time>
      </trkpt>
      <trkpt lat="45.73335" lon="6.4584">
        <ele>1230</ele>
        <time>2022-07-23T12:51:21Z</time>
      </trkpt>
      <trkpt lat="45.73335" lon="6.45841">
        <ele>1230</ele>
        <time>2022-07-23T12:51:22Z</time>
      </trkpt>
      <trkpt lat="45.73335" lon="6.45842">
        <ele>1230</ele>
        <time>2022-07-23T12:51:23Z</time>
      </trkpt>
      <trkpt lat="45.73335" lon="6.45844">
        <ele>1230</ele>
        <time>2022-07-23T12:51:24Z</time>
      </trkpt>
      <trkpt lat="45.73336" lon="6.45845">
        <ele>1231</ele>
        <time>2022-07-23T12:51:25Z</time>
      </trkpt>
      <trkpt lat="45.73336" lon="6.45846">
        <ele>1231</ele>
        <time>2022-07-23T12:51:26Z</time>
      </trkpt>
      <trkpt lat="45.73336" lon="6.45847">
        <ele>1231</ele>
        <time>2022-07-23T12:51:27Z</time>
      </trkpt>
      <trkpt lat="45.73336" lon="6.45847">
        <ele>1231</ele>
        <time>2022-07-23T12:51:28Z</time>
      </trkpt>
      <trkpt lat="45.73336" lon="6.45848">
        <ele>1231</ele>
        <time>2022-07-23T12:51:29Z</time>
      </trkpt>
      <trkpt lat="45.73337" lon="6.45849">
        <ele>1231</ele>
        <time>2022-07-23T12:51:30Z</time>
      </trkpt>
      <trkpt lat="45.73337" lon="6.4585">
        <ele>1231</ele>
        <time>2022-07-23T12:51:31Z</time>
      </trkpt>
      <trkpt lat="45.73337" lon="6.45851">
        <ele>1231</ele>
        <time>2022-07-23T12:51:32Z</time>
      </trkpt>
      <trkpt lat="45.73337" lon="6.45853">
        <ele>1231</ele>
        <time>2022-07-23T12:51:33Z</time>
      </trkpt>
      <trkpt lat="45.73337" lon="6.45854">
        <ele>1231</ele>
        <time>2022-07-23T12:51:34Z</time>
      </trkpt>
      <trkpt lat="45.73337" lon="6.45855">
        <ele>1231</ele>
        <time>2022-07-23T12:51:35Z</time>
      </trkpt>
      <trkpt lat="45.73337" lon="6.45857">
        <ele>1231</ele>
        <time>2022-07-23T12:51:36Z</time>
      </trkpt>
      <trkpt lat="45.73337" lon="6.45858">
        <ele>1231</ele>
        <time>2022-07-23T12:51:37Z</time>
      </trkpt>
      <trkpt lat="45.73337" lon="6.45859">
        <ele>1231</ele>
        <time>2022-07-23T12:51:38Z</time>
      </trkpt>
      <trkpt lat="45.73338" lon="6.45861">
        <ele>1231</ele>
        <time>2022-07-23T12:51:39Z</time>
      </trkpt>
      <trkpt lat="45.73338" lon="6.45862">
        <ele>1232</ele>
        <time>2022-07-23T12:51:40Z</time>
      </trkpt>
      <trkpt lat="45.73338" lon="6.45864">
        <ele>1232</ele>
        <time>2022-07-23T12:51:41Z</time>
      </trkpt>
      <trkpt lat="45.73339" lon="6.45865">
        <ele>1232</ele>
        <time>2022-07-23T12:51:42Z</time>
      </trkpt>
      <trkpt lat="45.73339" lon="6.45866">
        <ele>1232</ele>
        <time>2022-07-23T12:51:43Z</time>
      </trkpt>
      <trkpt lat="45.73339" lon="6.45867">
        <ele>1232</ele>
        <time>2022-07-23T12:51:44Z</time>
      </trkpt>
      <trkpt lat="45.7334" lon="6.45869">
        <ele>1233</ele>
        <time>2022-07-23T12:51:45Z</time>
      </trkpt>
      <trkpt lat="45.7334" lon="6.4587">
        <ele>1233</ele>
        <time>2022-07-23T12:51:46Z</time>
      </trkpt>
      <trkpt lat="45.7334" lon="6.45871">
        <ele>1233</ele>
        <time>2022-07-23T12:51:47Z</time>
      </trkpt>
      <trkpt lat="45.7334" lon="6.45872">
        <ele>1233</ele>
        <time>2022-07-23T12:51:48Z</time>
      </trkpt>
      <trkpt lat="45.73341" lon="6.45873">
        <ele>1233</ele>
        <time>2022-07-23T12:51:49Z</time>
      </trkpt>
      <trkpt lat="45.73341" lon="6.45874">
        <ele>1234</ele>
        <time>2022-07-23T12:51:50Z</time>
      </trkpt>
      <trkpt lat="45.73341" lon="6.45875">
        <ele>1234</ele>
        <time>2022-07-23T12:51:51Z</time>
      </trkpt>
      <trkpt lat="45.73341" lon="6.45877">
        <ele>1234</ele>
        <time>2022-07-23T12:51:52Z</time>
      </trkpt>
      <trkpt lat="45.73342" lon="6.45878">
        <ele>1234</ele>
        <time>2022-07-23T12:51:53Z</time>
      </trkpt>
      <trkpt lat="45.73342" lon="6.45879">
        <ele>1234</ele>
        <time>2022-07-23T12:51:54Z</time>
      </trkpt>
      <trkpt lat="45.73342" lon="6.4588">
        <ele>1235</ele>
        <time>2022-07-23T12:51:55Z</time>
      </trkpt>
      <trkpt lat="45.73342" lon="6.45881">
        <ele>1235</ele>
        <time>2022-07-23T12:51:56Z</time>
      </trkpt>
      <trkpt lat="45.73343" lon="6.45882">
        <ele>1235</ele>
        <time>2022-07-23T12:51:57Z</time>
      </trkpt>
      <trkpt lat="45.73343" lon="6.45883">
        <ele>1235</ele>
        <time>2022-07-23T12:51:58Z</time>
      </trkpt>
      <trkpt lat="45.73343" lon="6.45884">
        <ele>1235</ele>
        <time>2022-07-23T12:51:59Z</time>
      </trkpt>
      <trkpt lat="45.73343" lon="6.45885">
        <ele>1235</ele>
        <time>2022-07-23T12:52:00Z</time>
      </trkpt>
      <trkpt lat="45.73344" lon="6.45886">
        <ele>1235</ele>
        <time>2022-07-23T12:52:01Z</time>
      </trkpt>
      <trkpt lat="45.73344" lon="6.45887">
        <ele>1235</ele>
        <time>2022-07-23T12:52:02Z</time>
      </trkpt>
      <trkpt lat="45.73344" lon="6.45888">
        <ele>1235</ele>
        <time>2022-07-23T12:52:03Z</time>
      </trkpt>
      <trkpt lat="45.73344" lon="6.45889">
        <ele>1235</ele>
        <time>2022-07-23T12:52:04Z</time>
      </trkpt>
      <trkpt lat="45.73344" lon="6.4589">
        <ele>1236</ele>
        <time>2022-07-23T12:52:05Z</time>
      </trkpt>
      <trkpt lat="45.73345" lon="6.45891">
        <ele>1236</ele>
        <time>2022-07-23T12:52:06Z</time>
      </trkpt>
      <trkpt lat="45.73345" lon="6.45893">
        <ele>1236</ele>
        <time>2022-07-23T12:52:07Z</time>
      </trkpt>
      <trkpt lat="45.73345" lon="6.45894">
        <ele>1236</ele>
        <time>2022-07-23T12:52:08Z</time>
      </trkpt>
      <trkpt lat="45.73346" lon="6.45895">
        <ele>1236</ele>
        <time>2022-07-23T12:52:09Z</time>
      </trkpt>
      <trkpt lat="45.73346" lon="6.45896">
        <ele>1237</ele>
        <time>2022-07-23T12:52:10Z</time>
      </trkpt>
      <trkpt lat="45.73346" lon="6.45897">
        <ele>1237</ele>
        <time>2022-07-23T12:52:11Z</time>
      </trkpt>
      <trkpt lat="45.73346" lon="6.45897">
        <ele>1237</ele>
        <time>2022-07-23T12:52:12Z</time>
      </trkpt>
      <trkpt lat="45.73346" lon="6.45898">
        <ele>1237</ele>
        <time>2022-07-23T12:52:13Z</time>
      </trkpt>
      <trkpt lat="45.73346" lon="6.45898">
        <ele>1237</ele>
        <time>2022-07-23T12:52:14Z</time>
      </trkpt>
      <trkpt lat="45.73346" lon="6.45899">
        <ele>1238</ele>
        <time>2022-07-23T12:52:15Z</time>
      </trkpt>
      <trkpt lat="45.73346" lon="6.459">
        <ele>1238</ele>
        <time>2022-07-23T12:52:16Z</time>
      </trkpt>
      <trkpt lat="45.73347" lon="6.45902">
        <ele>1238</ele>
        <time>2022-07-23T12:52:17Z</time>
      </trkpt>
      <trkpt lat="45.73346" lon="6.45902">
        <ele>1238</ele>
        <time>2022-07-23T12:52:18Z</time>
      </trkpt>
      <trkpt lat="45.73346" lon="6.45903">
        <ele>1238</ele>
        <time>2022-07-23T12:52:19Z</time>
      </trkpt>
      <trkpt lat="45.73346" lon="6.45904">
        <ele>1239</ele>
        <time>2022-07-23T12:52:20Z</time>
      </trkpt>
      <trkpt lat="45.73346" lon="6.45905">
        <ele>1239</ele>
        <time>2022-07-23T12:52:21Z</time>
      </trkpt>
      <trkpt lat="45.73346" lon="6.45905">
        <ele>1239</ele>
        <time>2022-07-23T12:52:22Z</time>
      </trkpt>
      <trkpt lat="45.73346" lon="6.45906">
        <ele>1239</ele>
        <time>2022-07-23T12:52:23Z</time>
      </trkpt>
      <trkpt lat="45.73346" lon="6.45907">
        <ele>1239</ele>
        <time>2022-07-23T12:52:24Z</time>
      </trkpt>
      <trkpt lat="45.73346" lon="6.45907">
        <ele>1240</ele>
        <time>2022-07-23T12:52:25Z</time>
      </trkpt>
      <trkpt lat="45.73346" lon="6.45908">
        <ele>1240</ele>
        <time>2022-07-23T12:52:26Z</time>
      </trkpt>
      <trkpt lat="45.73346" lon="6.45909">
        <ele>1240</ele>
        <time>2022-07-23T12:52:27Z</time>
      </trkpt>
      <trkpt lat="45.73346" lon="6.45911">
        <ele>1240</ele>
        <time>2022-07-23T12:52:28Z</time>
      </trkpt>
      <trkpt lat="45.73346" lon="6.45912">
        <ele>1240</ele>
        <time>2022-07-23T12:52:29Z</time>
      </trkpt>
      <trkpt lat="45.73346" lon="6.45913">
        <ele>1240</ele>
        <time>2022-07-23T12:52:30Z</time>
      </trkpt>
      <trkpt lat="45.73346" lon="6.45914">
        <ele>1240</ele>
        <time>2022-07-23T12:52:31Z</time>
      </trkpt>
      <trkpt lat="45.73347" lon="6.45915">
        <ele>1240</ele>
        <time>2022-07-23T12:52:32Z</time>
      </trkpt>
      <trkpt lat="45.73347" lon="6.45916">
        <ele>1241</ele>
        <time>2022-07-23T12:52:33Z</time>
      </trkpt>
      <trkpt lat="45.73349" lon="6.45918">
        <ele>1244</ele>
        <time>2022-07-23T12:52:45Z</time>
      </trkpt>
      <trkpt lat="45.7335" lon="6.45919">
        <ele>1244</ele>
        <time>2022-07-23T12:52:46Z</time>
      </trkpt>
      <trkpt lat="45.73351" lon="6.45921">
        <ele>1244</ele>
        <time>2022-07-23T12:52:47Z</time>
      </trkpt>
      <trkpt lat="45.73351" lon="6.45922">
        <ele>1244</ele>
        <time>2022-07-23T12:52:48Z</time>
      </trkpt>
      <trkpt lat="45.73351" lon="6.45923">
        <ele>1244</ele>
        <time>2022-07-23T12:52:49Z</time>
      </trkpt>
      <trkpt lat="45.73352" lon="6.45924">
        <ele>1245</ele>
        <time>2022-07-23T12:52:50Z</time>
      </trkpt>
      <trkpt lat="45.73352" lon="6.45925">
        <ele>1245</ele>
        <time>2022-07-23T12:52:51Z</time>
      </trkpt>
      <trkpt lat="45.73352" lon="6.45926">
        <ele>1245</ele>
        <time>2022-07-23T12:52:52Z</time>
      </trkpt>
      <trkpt lat="45.73353" lon="6.45926">
        <ele>1245</ele>
        <time>2022-07-23T12:52:53Z</time>
      </trkpt>
      <trkpt lat="45.73354" lon="6.45929">
        <ele>1247</ele>
        <time>2022-07-23T12:53:01Z</time>
      </trkpt>
      <trkpt lat="45.73354" lon="6.4593">
        <ele>1247</ele>
        <time>2022-07-23T12:53:02Z</time>
      </trkpt>
      <trkpt lat="45.73355" lon="6.45931">
        <ele>1247</ele>
        <time>2022-07-23T12:53:03Z</time>
      </trkpt>
      <trkpt lat="45.73355" lon="6.45932">
        <ele>1247</ele>
        <time>2022-07-23T12:53:04Z</time>
      </trkpt>
      <trkpt lat="45.73355" lon="6.45933">
        <ele>1248</ele>
        <time>2022-07-23T12:53:05Z</time>
      </trkpt>
      <trkpt lat="45.73355" lon="6.45934">
        <ele>1248</ele>
        <time>2022-07-23T12:53:06Z</time>
      </trkpt>
      <trkpt lat="45.73356" lon="6.45934">
        <ele>1248</ele>
        <time>2022-07-23T12:53:07Z</time>
      </trkpt>
      <trkpt lat="45.73356" lon="6.45935">
        <ele>1248</ele>
        <time>2022-07-23T12:53:08Z</time>
      </trkpt>
      <trkpt lat="45.73356" lon="6.45936">
        <ele>1248</ele>
        <time>2022-07-23T12:53:09Z</time>
      </trkpt>
      <trkpt lat="45.73357" lon="6.45938">
        <ele>1249</ele>
        <time>2022-07-23T12:53:10Z</time>
      </trkpt>
      <trkpt lat="45.73357" lon="6.45939">
        <ele>1249</ele>
        <time>2022-07-23T12:53:11Z</time>
      </trkpt>
      <trkpt lat="45.73357" lon="6.4594">
        <ele>1249</ele>
        <time>2022-07-23T12:53:12Z</time>
      </trkpt>
      <trkpt lat="45.73358" lon="6.45941">
        <ele>1249</ele>
        <time>2022-07-23T12:53:13Z</time>
      </trkpt>
      <trkpt lat="45.73358" lon="6.45943">
        <ele>1249</ele>
        <time>2022-07-23T12:53:14Z</time>
      </trkpt>
      <trkpt lat="45.73358" lon="6.45944">
        <ele>1249</ele>
        <time>2022-07-23T12:53:15Z</time>
      </trkpt>
      <trkpt lat="45.73357" lon="6.45946">
        <ele>1249</ele>
        <time>2022-07-23T12:53:16Z</time>
      </trkpt>
      <trkpt lat="45.73357" lon="6.45947">
        <ele>1249</ele>
        <time>2022-07-23T12:53:17Z</time>
      </trkpt>
      <trkpt lat="45.73357" lon="6.45949">
        <ele>1249</ele>
        <time>2022-07-23T12:53:18Z</time>
      </trkpt>
      <trkpt lat="45.73357" lon="6.4595">
        <ele>1249</ele>
        <time>2022-07-23T12:53:19Z</time>
      </trkpt>
      <trkpt lat="45.73356" lon="6.45951">
        <ele>1250</ele>
        <time>2022-07-23T12:53:20Z</time>
      </trkpt>
      <trkpt lat="45.73356" lon="6.45952">
        <ele>1250</ele>
        <time>2022-07-23T12:53:21Z</time>
      </trkpt>
      <trkpt lat="45.73356" lon="6.45953">
        <ele>1250</ele>
        <time>2022-07-23T12:53:22Z</time>
      </trkpt>
      <trkpt lat="45.73356" lon="6.45954">
        <ele>1250</ele>
        <time>2022-07-23T12:53:23Z</time>
      </trkpt>
      <trkpt lat="45.73356" lon="6.45955">
        <ele>1250</ele>
        <time>2022-07-23T12:53:24Z</time>
      </trkpt>
      <trkpt lat="45.73356" lon="6.45956">
        <ele>1251</ele>
        <time>2022-07-23T12:53:25Z</time>
      </trkpt>
      <trkpt lat="45.73356" lon="6.45957">
        <ele>1251</ele>
        <time>2022-07-23T12:53:26Z</time>
      </trkpt>
      <trkpt lat="45.73356" lon="6.45958">
        <ele>1251</ele>
        <time>2022-07-23T12:53:27Z</time>
      </trkpt>
      <trkpt lat="45.73356" lon="6.45959">
        <ele>1251</ele>
        <time>2022-07-23T12:53:28Z</time>
      </trkpt>
      <trkpt lat="45.73356" lon="6.45961">
        <ele>1251</ele>
        <time>2022-07-23T12:53:29Z</time>
      </trkpt>
      <trkpt lat="45.73357" lon="6.45962">
        <ele>1252</ele>
        <time>2022-07-23T12:53:30Z</time>
      </trkpt>
      <trkpt lat="45.73357" lon="6.45963">
        <ele>1252</ele>
        <time>2022-07-23T12:53:31Z</time>
      </trkpt>
      <trkpt lat="45.73357" lon="6.45964">
        <ele>1252</ele>
        <time>2022-07-23T12:53:32Z</time>
      </trkpt>
      <trkpt lat="45.73358" lon="6.45965">
        <ele>1252</ele>
        <time>2022-07-23T12:53:33Z</time>
      </trkpt>
      <trkpt lat="45.73358" lon="6.45966">
        <ele>1252</ele>
        <time>2022-07-23T12:53:34Z</time>
      </trkpt>
      <trkpt lat="45.73358" lon="6.45967">
        <ele>1253</ele>
        <time>2022-07-23T12:53:35Z</time>
      </trkpt>
      <trkpt lat="45.73358" lon="6.45968">
        <ele>1253</ele>
        <time>2022-07-23T12:53:36Z</time>
      </trkpt>
      <trkpt lat="45.73359" lon="6.45969">
        <ele>1253</ele>
        <time>2022-07-23T12:53:37Z</time>
      </trkpt>
      <trkpt lat="45.73359" lon="6.4597">
        <ele>1253</ele>
        <time>2022-07-23T12:53:38Z</time>
      </trkpt>
      <trkpt lat="45.73359" lon="6.4597">
        <ele>1253</ele>
        <time>2022-07-23T12:53:39Z</time>
      </trkpt>
      <trkpt lat="45.73359" lon="6.45971">
        <ele>1253</ele>
        <time>2022-07-23T12:53:40Z</time>
      </trkpt>
      <trkpt lat="45.7336" lon="6.45971">
        <ele>1253</ele>
        <time>2022-07-23T12:53:41Z</time>
      </trkpt>
      <trkpt lat="45.7336" lon="6.45972">
        <ele>1253</ele>
        <time>2022-07-23T12:53:42Z</time>
      </trkpt>
      <trkpt lat="45.7336" lon="6.45973">
        <ele>1253</ele>
        <time>2022-07-23T12:53:43Z</time>
      </trkpt>
      <trkpt lat="45.7336" lon="6.45974">
        <ele>1253</ele>
        <time>2022-07-23T12:53:44Z</time>
      </trkpt>
      <trkpt lat="45.73361" lon="6.45975">
        <ele>1254</ele>
        <time>2022-07-23T12:53:45Z</time>
      </trkpt>
      <trkpt lat="45.73361" lon="6.45976">
        <ele>1254</ele>
        <time>2022-07-23T12:53:46Z</time>
      </trkpt>
      <trkpt lat="45.73361" lon="6.45978">
        <ele>1254</ele>
        <time>2022-07-23T12:53:47Z</time>
      </trkpt>
      <trkpt lat="45.73361" lon="6.45979">
        <ele>1254</ele>
        <time>2022-07-23T12:53:48Z</time>
      </trkpt>
      <trkpt lat="45.73362" lon="6.4598">
        <ele>1254</ele>
        <time>2022-07-23T12:53:49Z</time>
      </trkpt>
      <trkpt lat="45.73362" lon="6.45981">
        <ele>1255</ele>
        <time>2022-07-23T12:53:50Z</time>
      </trkpt>
      <trkpt lat="45.73362" lon="6.45983">
        <ele>1255</ele>
        <time>2022-07-23T12:53:51Z</time>
      </trkpt>
      <trkpt lat="45.73363" lon="6.45987">
        <ele>1257</ele>
        <time>2022-07-23T12:55:32Z</time>
      </trkpt>
      <trkpt lat="45.73363" lon="6.45988">
        <ele>1257</ele>
        <time>2022-07-23T12:55:33Z</time>
      </trkpt>
      <trkpt lat="45.73364" lon="6.4599">
        <ele>1257</ele>
        <time>2022-07-23T12:55:34Z</time>
      </trkpt>
      <trkpt lat="45.73364" lon="6.45991">
        <ele>1257</ele>
        <time>2022-07-23T12:55:35Z</time>
      </trkpt>
      <trkpt lat="45.73364" lon="6.45992">
        <ele>1257</ele>
        <time>2022-07-23T12:55:36Z</time>
      </trkpt>
      <trkpt lat="45.73364" lon="6.45993">
        <ele>1257</ele>
        <time>2022-07-23T12:55:37Z</time>
      </trkpt>
      <trkpt lat="45.73364" lon="6.45994">
        <ele>1257</ele>
        <time>2022-07-23T12:55:38Z</time>
      </trkpt>
      <trkpt lat="45.73364" lon="6.45995">
        <ele>1257</ele>
        <time>2022-07-23T12:55:39Z</time>
      </trkpt>
      <trkpt lat="45.73364" lon="6.45996">
        <ele>1257</ele>
        <time>2022-07-23T12:55:40Z</time>
      </trkpt>
      <trkpt lat="45.73364" lon="6.45997">
        <ele>1257</ele>
        <time>2022-07-23T12:55:41Z</time>
      </trkpt>
      <trkpt lat="45.73364" lon="6.45998">
        <ele>1257</ele>
        <time>2022-07-23T12:55:42Z</time>
      </trkpt>
      <trkpt lat="45.73364" lon="6.45998">
        <ele>1257</ele>
        <time>2022-07-23T12:55:43Z</time>
      </trkpt>
      <trkpt lat="45.73364" lon="6.45999">
        <ele>1257</ele>
        <time>2022-07-23T12:55:44Z</time>
      </trkpt>
      <trkpt lat="45.73364" lon="6.46">
        <ele>1257</ele>
        <time>2022-07-23T12:55:45Z</time>
      </trkpt>
      <trkpt lat="45.73364" lon="6.46001">
        <ele>1257</ele>
        <time>2022-07-23T12:55:46Z</time>
      </trkpt>
      <trkpt lat="45.73365" lon="6.46002">
        <ele>1257</ele>
        <time>2022-07-23T12:55:47Z</time>
      </trkpt>
      <trkpt lat="45.73365" lon="6.46002">
        <ele>1257</ele>
        <time>2022-07-23T12:55:48Z</time>
      </trkpt>
      <trkpt lat="45.73365" lon="6.46003">
        <ele>1257</ele>
        <time>2022-07-23T12:55:49Z</time>
      </trkpt>
      <trkpt lat="45.73366" lon="6.46004">
        <ele>1258</ele>
        <time>2022-07-23T12:55:50Z</time>
      </trkpt>
      <trkpt lat="45.73366" lon="6.46005">
        <ele>1258</ele>
        <time>2022-07-23T12:55:51Z</time>
      </trkpt>
      <trkpt lat="45.73367" lon="6.46006">
        <ele>1258</ele>
        <time>2022-07-23T12:55:52Z</time>
      </trkpt>
      <trkpt lat="45.73367" lon="6.46006">
        <ele>1259</ele>
        <time>2022-07-23T12:55:53Z</time>
      </trkpt>
      <trkpt lat="45.73368" lon="6.46007">
        <ele>1259</ele>
        <time>2022-07-23T12:55:54Z</time>
      </trkpt>
      <trkpt lat="45.73368" lon="6.46008">
        <ele>1260</ele>
        <time>2022-07-23T12:55:55Z</time>
      </trkpt>
      <trkpt lat="45.73369" lon="6.46008">
        <ele>1260</ele>
        <time>2022-07-23T12:55:56Z</time>
      </trkpt>
      <trkpt lat="45.73369" lon="6.46009">
        <ele>1260</ele>
        <time>2022-07-23T12:55:57Z</time>
      </trkpt>
      <trkpt lat="45.73369" lon="6.46009">
        <ele>1260</ele>
        <time>2022-07-23T12:55:58Z</time>
      </trkpt>
      <trkpt lat="45.7337" lon="6.46009">
        <ele>1260</ele>
        <time>2022-07-23T12:55:59Z</time>
      </trkpt>
      <trkpt lat="45.7337" lon="6.46009">
        <ele>1260</ele>
        <time>2022-07-23T12:56:00Z</time>
      </trkpt>
      <trkpt lat="45.7337" lon="6.46009">
        <ele>1260</ele>
        <time>2022-07-23T12:56:01Z</time>
      </trkpt>
      <trkpt lat="45.73371" lon="6.4601">
        <ele>1260</ele>
        <time>2022-07-23T12:56:02Z</time>
      </trkpt>
      <trkpt lat="45.73371" lon="6.4601">
        <ele>1260</ele>
        <time>2022-07-23T12:56:03Z</time>
      </trkpt>
      <trkpt lat="45.73372" lon="6.46011">
        <ele>1260</ele>
        <time>2022-07-23T12:56:04Z</time>
      </trkpt>
      <trkpt lat="45.73372" lon="6.46012">
        <ele>1261</ele>
        <time>2022-07-23T12:56:05Z</time>
      </trkpt>
      <trkpt lat="45.73373" lon="6.46012">
        <ele>1261</ele>
        <time>2022-07-23T12:56:06Z</time>
      </trkpt>
      <trkpt lat="45.73374" lon="6.46013">
        <ele>1261</ele>
        <time>2022-07-23T12:56:07Z</time>
      </trkpt>
      <trkpt lat="45.73375" lon="6.46013">
        <ele>1264</ele>
        <time>2022-07-23T12:56:32Z</time>
      </trkpt>
      <trkpt lat="45.73375" lon="6.46013">
        <ele>1264</ele>
        <time>2022-07-23T12:56:33Z</time>
      </trkpt>
      <trkpt lat="45.73376" lon="6.46013">
        <ele>1264</ele>
        <time>2022-07-23T12:56:34Z</time>
      </trkpt>
      <trkpt lat="45.73376" lon="6.46013">
        <ele>1265</ele>
        <time>2022-07-23T12:56:35Z</time>
      </trkpt>
      <trkpt lat="45.73377" lon="6.46012">
        <ele>1265</ele>
        <time>2022-07-23T12:56:36Z</time>
      </trkpt>
      <trkpt lat="45.73377" lon="6.46012">
        <ele>1265</ele>
        <time>2022-07-23T12:56:37Z</time>
      </trkpt>
      <trkpt lat="45.73378" lon="6.46011">
        <ele>1265</ele>
        <time>2022-07-23T12:56:38Z</time>
      </trkpt>
      <trkpt lat="45.73378" lon="6.46011">
        <ele>1265</ele>
        <time>2022-07-23T12:56:39Z</time>
      </trkpt>
      <trkpt lat="45.73378" lon="6.46011">
        <ele>1266</ele>
        <time>2022-07-23T12:56:40Z</time>
      </trkpt>
      <trkpt lat="45.73379" lon="6.4601">
        <ele>1266</ele>
        <time>2022-07-23T12:56:41Z</time>
      </trkpt>
      <trkpt lat="45.73379" lon="6.46009">
        <ele>1266</ele>
        <time>2022-07-23T12:56:42Z</time>
      </trkpt>
      <trkpt lat="45.7338" lon="6.46008">
        <ele>1266</ele>
        <time>2022-07-23T12:56:43Z</time>
      </trkpt>
      <trkpt lat="45.7338" lon="6.46008">
        <ele>1266</ele>
        <time>2022-07-23T12:56:44Z</time>
      </trkpt>
      <trkpt lat="45.73382" lon="6.46004">
        <ele>1268</ele>
        <time>2022-07-23T12:56:58Z</time>
      </trkpt>
      <trkpt lat="45.73383" lon="6.46002">
        <ele>1268</ele>
        <time>2022-07-23T12:56:59Z</time>
      </trkpt>
      <trkpt lat="45.73384" lon="6.46001">
        <ele>1269</ele>
        <time>2022-07-23T12:57:00Z</time>
      </trkpt>
      <trkpt lat="45.73385" lon="6.46">
        <ele>1269</ele>
        <time>2022-07-23T12:57:01Z</time>
      </trkpt>
      <trkpt lat="45.73385" lon="6.46">
        <ele>1269</ele>
        <time>2022-07-23T12:57:02Z</time>
      </trkpt>
      <trkpt lat="45.73386" lon="6.45999">
        <ele>1269</ele>
        <time>2022-07-23T12:57:03Z</time>
      </trkpt>
      <trkpt lat="45.73388" lon="6.46">
        <ele>1271</ele>
        <time>2022-07-23T12:57:11Z</time>
      </trkpt>
      <trkpt lat="45.73389" lon="6.46001">
        <ele>1271</ele>
        <time>2022-07-23T12:57:12Z</time>
      </trkpt>
      <trkpt lat="45.7339" lon="6.46002">
        <ele>1271</ele>
        <time>2022-07-23T12:57:13Z</time>
      </trkpt>
      <trkpt lat="45.73391" lon="6.46003">
        <ele>1271</ele>
        <time>2022-07-23T12:57:14Z</time>
      </trkpt>
      <trkpt lat="45.73392" lon="6.46003">
        <ele>1272</ele>
        <time>2022-07-23T12:57:15Z</time>
      </trkpt>
      <trkpt lat="45.73392" lon="6.46004">
        <ele>1272</ele>
        <time>2022-07-23T12:57:16Z</time>
      </trkpt>
      <trkpt lat="45.73393" lon="6.46004">
        <ele>1272</ele>
        <time>2022-07-23T12:57:17Z</time>
      </trkpt>
      <trkpt lat="45.73394" lon="6.46005">
        <ele>1272</ele>
        <time>2022-07-23T12:57:18Z</time>
      </trkpt>
      <trkpt lat="45.73394" lon="6.46006">
        <ele>1272</ele>
        <time>2022-07-23T12:57:19Z</time>
      </trkpt>
      <trkpt lat="45.73395" lon="6.46006">
        <ele>1273</ele>
        <time>2022-07-23T12:57:20Z</time>
      </trkpt>
      <trkpt lat="45.73395" lon="6.46007">
        <ele>1273</ele>
        <time>2022-07-23T12:57:21Z</time>
      </trkpt>
      <trkpt lat="45.73396" lon="6.46007">
        <ele>1273</ele>
        <time>2022-07-23T12:57:22Z</time>
      </trkpt>
      <trkpt lat="45.73396" lon="6.46008">
        <ele>1273</ele>
        <time>2022-07-23T12:57:23Z</time>
      </trkpt>
      <trkpt lat="45.73397" lon="6.46009">
        <ele>1273</ele>
        <time>2022-07-23T12:57:24Z</time>
      </trkpt>
      <trkpt lat="45.73397" lon="6.46009">
        <ele>1274</ele>
        <time>2022-07-23T12:57:25Z</time>
      </trkpt>
      <trkpt lat="45.73398" lon="6.4601">
        <ele>1274</ele>
        <time>2022-07-23T12:57:26Z</time>
      </trkpt>
      <trkpt lat="45.73398" lon="6.4601">
        <ele>1274</ele>
        <time>2022-07-23T12:57:27Z</time>
      </trkpt>
      <trkpt lat="45.73399" lon="6.46011">
        <ele>1274</ele>
        <time>2022-07-23T12:57:28Z</time>
      </trkpt>
      <trkpt lat="45.73399" lon="6.46011">
        <ele>1274</ele>
        <time>2022-07-23T12:57:29Z</time>
      </trkpt>
      <trkpt lat="45.73399" lon="6.46011">
        <ele>1274</ele>
        <time>2022-07-23T12:57:30Z</time>
      </trkpt>
      <trkpt lat="45.73399" lon="6.46012">
        <ele>1274</ele>
        <time>2022-07-23T12:57:31Z</time>
      </trkpt>
      <trkpt lat="45.73399" lon="6.46012">
        <ele>1274</ele>
        <time>2022-07-23T12:57:32Z</time>
      </trkpt>
      <trkpt lat="45.734" lon="6.46012">
        <ele>1274</ele>
        <time>2022-07-23T12:57:33Z</time>
      </trkpt>
      <trkpt lat="45.734" lon="6.46014">
        <ele>1274</ele>
        <time>2022-07-23T12:57:34Z</time>
      </trkpt>
      <trkpt lat="45.73401" lon="6.46015">
        <ele>1275</ele>
        <time>2022-07-23T12:57:35Z</time>
      </trkpt>
      <trkpt lat="45.73401" lon="6.46016">
        <ele>1275</ele>
        <time>2022-07-23T12:57:36Z</time>
      </trkpt>
      <trkpt lat="45.73401" lon="6.46017">
        <ele>1275</ele>
        <time>2022-07-23T12:57:37Z</time>
      </trkpt>
      <trkpt lat="45.73402" lon="6.46018">
        <ele>1275</ele>
        <time>2022-07-23T12:57:38Z</time>
      </trkpt>
      <trkpt lat="45.73402" lon="6.46019">
        <ele>1275</ele>
        <time>2022-07-23T12:57:39Z</time>
      </trkpt>
      <trkpt lat="45.73403" lon="6.46019">
        <ele>1276</ele>
        <time>2022-07-23T12:57:40Z</time>
      </trkpt>
      <trkpt lat="45.73403" lon="6.4602">
        <ele>1276</ele>
        <time>2022-07-23T12:57:41Z</time>
      </trkpt>
      <trkpt lat="45.73404" lon="6.46021">
        <ele>1276</ele>
        <time>2022-07-23T12:57:42Z</time>
      </trkpt>
      <trkpt lat="45.73404" lon="6.46022">
        <ele>1277</ele>
        <time>2022-07-23T12:57:43Z</time>
      </trkpt>
      <trkpt lat="45.73404" lon="6.46023">
        <ele>1277</ele>
        <time>2022-07-23T12:57:44Z</time>
      </trkpt>
      <trkpt lat="45.73404" lon="6.46024">
        <ele>1278</ele>
        <time>2022-07-23T12:57:45Z</time>
      </trkpt>
      <trkpt lat="45.73405" lon="6.46025">
        <ele>1278</ele>
        <time>2022-07-23T12:57:46Z</time>
      </trkpt>
      <trkpt lat="45.73405" lon="6.46028">
        <ele>1279</ele>
        <time>2022-07-23T12:57:52Z</time>
      </trkpt>
      <trkpt lat="45.73406" lon="6.46029">
        <ele>1279</ele>
        <time>2022-07-23T12:57:53Z</time>
      </trkpt>
      <trkpt lat="45.73407" lon="6.4603">
        <ele>1279</ele>
        <time>2022-07-23T12:57:54Z</time>
      </trkpt>
      <trkpt lat="45.7341" lon="6.46031">
        <ele>1284</ele>
        <time>2022-07-23T12:58:28Z</time>
      </trkpt>
      <trkpt lat="45.73412" lon="6.46031">
        <ele>1284</ele>
        <time>2022-07-23T12:58:29Z</time>
      </trkpt>
      <trkpt lat="45.73414" lon="6.46031">
        <ele>1285</ele>
        <time>2022-07-23T12:58:30Z</time>
      </trkpt>
      <trkpt lat="45.73417" lon="6.46029">
        <ele>1285</ele>
        <time>2022-07-23T12:58:39Z</time>
      </trkpt>
      <trkpt lat="45.73418" lon="6.46028">
        <ele>1286</ele>
        <time>2022-07-23T12:58:40Z</time>
      </trkpt>
      <trkpt lat="45.7342" lon="6.46027">
        <ele>1286</ele>
        <time>2022-07-23T12:58:41Z</time>
      </trkpt>
      <trkpt lat="45.7342" lon="6.46026">
        <ele>1286</ele>
        <time>2022-07-23T12:58:42Z</time>
      </trkpt>
      <trkpt lat="45.73421" lon="6.46025">
        <ele>1286</ele>
        <time>2022-07-23T12:58:43Z</time>
      </trkpt>
      <trkpt lat="45.73421" lon="6.46024">
        <ele>1286</ele>
        <time>2022-07-23T12:58:44Z</time>
      </trkpt>
      <trkpt lat="45.73422" lon="6.46024">
        <ele>1287</ele>
        <time>2022-07-23T12:58:45Z</time>
      </trkpt>
      <trkpt lat="45.73423" lon="6.46023">
        <ele>1287</ele>
        <time>2022-07-23T12:58:46Z</time>
      </trkpt>
      <trkpt lat="45.73423" lon="6.46022">
        <ele>1287</ele>
        <time>2022-07-23T12:58:47Z</time>
      </trkpt>
      <trkpt lat="45.73424" lon="6.46021">
        <ele>1287</ele>
        <time>2022-07-23T12:58:48Z</time>
      </trkpt>
      <trkpt lat="45.73425" lon="6.46021">
        <ele>1287</ele>
        <time>2022-07-23T12:58:49Z</time>
      </trkpt>
      <trkpt lat="45.73425" lon="6.4602">
        <ele>1288</ele>
        <time>2022-07-23T12:58:50Z</time>
      </trkpt>
      <trkpt lat="45.73426" lon="6.4602">
        <ele>1288</ele>
        <time>2022-07-23T12:58:51Z</time>
      </trkpt>
      <trkpt lat="45.73427" lon="6.46019">
        <ele>1288</ele>
        <time>2022-07-23T12:58:52Z</time>
      </trkpt>
      <trkpt lat="45.73427" lon="6.46019">
        <ele>1288</ele>
        <time>2022-07-23T12:58:53Z</time>
      </trkpt>
      <trkpt lat="45.73429" lon="6.4602">
        <ele>1290</ele>
        <time>2022-07-23T12:59:07Z</time>
      </trkpt>
      <trkpt lat="45.7343" lon="6.46021">
        <ele>1290</ele>
        <time>2022-07-23T12:59:08Z</time>
      </trkpt>
      <trkpt lat="45.7343" lon="6.46023">
        <ele>1290</ele>
        <time>2022-07-23T12:59:09Z</time>
      </trkpt>
      <trkpt lat="45.73431" lon="6.46024">
        <ele>1291</ele>
        <time>2022-07-23T12:59:10Z</time>
      </trkpt>
      <trkpt lat="45.73431" lon="6.46025">
        <ele>1291</ele>
        <time>2022-07-23T12:59:11Z</time>
      </trkpt>
      <trkpt lat="45.73432" lon="6.46026">
        <ele>1291</ele>
        <time>2022-07-23T12:59:12Z</time>
      </trkpt>
      <trkpt lat="45.73432" lon="6.46027">
        <ele>1291</ele>
        <time>2022-07-23T12:59:13Z</time>
      </trkpt>
      <trkpt lat="45.73432" lon="6.46028">
        <ele>1291</ele>
        <time>2022-07-23T12:59:14Z</time>
      </trkpt>
      <trkpt lat="45.73433" lon="6.46029">
        <ele>1292</ele>
        <time>2022-07-23T12:59:15Z</time>
      </trkpt>
      <trkpt lat="45.73433" lon="6.4603">
        <ele>1292</ele>
        <time>2022-07-23T12:59:16Z</time>
      </trkpt>
      <trkpt lat="45.73434" lon="6.46031">
        <ele>1292</ele>
        <time>2022-07-23T12:59:17Z</time>
      </trkpt>
      <trkpt lat="45.73434" lon="6.46032">
        <ele>1292</ele>
        <time>2022-07-23T12:59:18Z</time>
      </trkpt>
      <trkpt lat="45.73435" lon="6.46033">
        <ele>1292</ele>
        <time>2022-07-23T12:59:19Z</time>
      </trkpt>
      <trkpt lat="45.73436" lon="6.46034">
        <ele>1293</ele>
        <time>2022-07-23T12:59:20Z</time>
      </trkpt>
      <trkpt lat="45.73436" lon="6.46035">
        <ele>1293</ele>
        <time>2022-07-23T12:59:21Z</time>
      </trkpt>
      <trkpt lat="45.73437" lon="6.46036">
        <ele>1293</ele>
        <time>2022-07-23T12:59:22Z</time>
      </trkpt>
      <trkpt lat="45.73437" lon="6.46037">
        <ele>1293</ele>
        <time>2022-07-23T12:59:23Z</time>
      </trkpt>
      <trkpt lat="45.73437" lon="6.46037">
        <ele>1293</ele>
        <time>2022-07-23T12:59:24Z</time>
      </trkpt>
      <trkpt lat="45.73437" lon="6.46038">
        <ele>1294</ele>
        <time>2022-07-23T12:59:25Z</time>
      </trkpt>
      <trkpt lat="45.73437" lon="6.46039">
        <ele>1294</ele>
        <time>2022-07-23T12:59:26Z</time>
      </trkpt>
      <trkpt lat="45.73437" lon="6.4604">
        <ele>1294</ele>
        <time>2022-07-23T12:59:27Z</time>
      </trkpt>
      <trkpt lat="45.73437" lon="6.46041">
        <ele>1294</ele>
        <time>2022-07-23T12:59:28Z</time>
      </trkpt>
      <trkpt lat="45.73437" lon="6.46042">
        <ele>1294</ele>
        <time>2022-07-23T12:59:29Z</time>
      </trkpt>
      <trkpt lat="45.73437" lon="6.46043">
        <ele>1294</ele>
        <time>2022-07-23T12:59:30Z</time>
      </trkpt>
      <trkpt lat="45.73437" lon="6.46044">
        <ele>1294</ele>
        <time>2022-07-23T12:59:31Z</time>
      </trkpt>
      <trkpt lat="45.73437" lon="6.46044">
        <ele>1294</ele>
        <time>2022-07-23T12:59:32Z</time>
      </trkpt>
      <trkpt lat="45.73437" lon="6.46045">
        <ele>1295</ele>
        <time>2022-07-23T12:59:33Z</time>
      </trkpt>
      <trkpt lat="45.73437" lon="6.46046">
        <ele>1295</ele>
        <time>2022-07-23T12:59:34Z</time>
      </trkpt>
      <trkpt lat="45.73437" lon="6.46046">
        <ele>1296</ele>
        <time>2022-07-23T12:59:35Z</time>
      </trkpt>
      <trkpt lat="45.73438" lon="6.46047">
        <ele>1296</ele>
        <time>2022-07-23T12:59:36Z</time>
      </trkpt>
      <trkpt lat="45.73438" lon="6.46048">
        <ele>1296</ele>
        <time>2022-07-23T12:59:37Z</time>
      </trkpt>
      <trkpt lat="45.73437" lon="6.46048">
        <ele>1299</ele>
        <time>2022-07-23T13:00:24Z</time>
      </trkpt>
      <trkpt lat="45.73437" lon="6.46048">
        <ele>1299</ele>
        <time>2022-07-23T13:00:25Z</time>
      </trkpt>
      <trkpt lat="45.73437" lon="6.46048">
        <ele>1299</ele>
        <time>2022-07-23T13:00:26Z</time>
      </trkpt>
      <trkpt lat="45.73437" lon="6.46047">
        <ele>1299</ele>
        <time>2022-07-23T13:00:27Z</time>
      </trkpt>
      <trkpt lat="45.73438" lon="6.46047">
        <ele>1299</ele>
        <time>2022-07-23T13:00:28Z</time>
      </trkpt>
      <trkpt lat="45.73438" lon="6.46046">
        <ele>1299</ele>
        <time>2022-07-23T13:00:29Z</time>
      </trkpt>
      <trkpt lat="45.73439" lon="6.46046">
        <ele>1299</ele>
        <time>2022-07-23T13:00:30Z</time>
      </trkpt>
      <trkpt lat="45.73439" lon="6.46045">
        <ele>1299</ele>
        <time>2022-07-23T13:00:31Z</time>
      </trkpt>
      <trkpt lat="45.7344" lon="6.46044">
        <ele>1299</ele>
        <time>2022-07-23T13:00:32Z</time>
      </trkpt>
      <trkpt lat="45.7344" lon="6.46044">
        <ele>1299</ele>
        <time>2022-07-23T13:00:33Z</time>
      </trkpt>
      <trkpt lat="45.73441" lon="6.46043">
        <ele>1299</ele>
        <time>2022-07-23T13:00:34Z</time>
      </trkpt>
      <trkpt lat="45.73441" lon="6.46043">
        <ele>1300</ele>
        <time>2022-07-23T13:00:35Z</time>
      </trkpt>
      <trkpt lat="45.73442" lon="6.46042">
        <ele>1300</ele>
        <time>2022-07-23T13:00:36Z</time>
      </trkpt>
      <trkpt lat="45.73442" lon="6.46042">
        <ele>1300</ele>
        <time>2022-07-23T13:00:37Z</time>
      </trkpt>
      <trkpt lat="45.73442" lon="6.46041">
        <ele>1300</ele>
        <time>2022-07-23T13:00:38Z</time>
      </trkpt>
      <trkpt lat="45.73443" lon="6.46041">
        <ele>1300</ele>
        <time>2022-07-23T13:00:39Z</time>
      </trkpt>
      <trkpt lat="45.73443" lon="6.46041">
        <ele>1301</ele>
        <time>2022-07-23T13:00:40Z</time>
      </trkpt>
      <trkpt lat="45.73444" lon="6.46041">
        <ele>1301</ele>
        <time>2022-07-23T13:00:41Z</time>
      </trkpt>
      <trkpt lat="45.73445" lon="6.46041">
        <ele>1301</ele>
        <time>2022-07-23T13:00:42Z</time>
      </trkpt>
      <trkpt lat="45.73445" lon="6.46042">
        <ele>1301</ele>
        <time>2022-07-23T13:00:43Z</time>
      </trkpt>
      <trkpt lat="45.73446" lon="6.46043">
        <ele>1304</ele>
        <time>2022-07-23T13:02:16Z</time>
      </trkpt>
      <trkpt lat="45.73446" lon="6.46044">
        <ele>1304</ele>
        <time>2022-07-23T13:02:17Z</time>
      </trkpt>
      <trkpt lat="45.73446" lon="6.46044">
        <ele>1304</ele>
        <time>2022-07-23T13:02:18Z</time>
      </trkpt>
      <trkpt lat="45.73446" lon="6.46043">
        <ele>1304</ele>
        <time>2022-07-23T13:02:19Z</time>
      </trkpt>
      <trkpt lat="45.73446" lon="6.46043">
        <ele>1304</ele>
        <time>2022-07-23T13:02:20Z</time>
      </trkpt>
      <trkpt lat="45.73446" lon="6.46042">
        <ele>1304</ele>
        <time>2022-07-23T13:02:21Z</time>
      </trkpt>
      <trkpt lat="45.73446" lon="6.46041">
        <ele>1304</ele>
        <time>2022-07-23T13:02:22Z</time>
      </trkpt>
      <trkpt lat="45.73446" lon="6.46039">
        <ele>1304</ele>
        <time>2022-07-23T13:02:23Z</time>
      </trkpt>
      <trkpt lat="45.73446" lon="6.46038">
        <ele>1304</ele>
        <time>2022-07-23T13:02:24Z</time>
      </trkpt>
      <trkpt lat="45.73446" lon="6.46036">
        <ele>1304</ele>
        <time>2022-07-23T13:02:25Z</time>
      </trkpt>
      <trkpt lat="45.73446" lon="6.46034">
        <ele>1303</ele>
        <time>2022-07-23T13:02:26Z</time>
      </trkpt>
      <trkpt lat="45.73446" lon="6.46033">
        <ele>1303</ele>
        <time>2022-07-23T13:02:27Z</time>
      </trkpt>
      <trkpt lat="45.73445" lon="6.46031">
        <ele>1303</ele>
        <time>2022-07-23T13:02:28Z</time>
      </trkpt>
      <trkpt lat="45.73445" lon="6.46029">
        <ele>1303</ele>
        <time>2022-07-23T13:02:29Z</time>
      </trkpt>
      <trkpt lat="45.73445" lon="6.46027">
        <ele>1303</ele>
        <time>2022-07-23T13:02:30Z</time>
      </trkpt>
      <trkpt lat="45.73444" lon="6.46026">
        <ele>1303</ele>
        <time>2022-07-23T13:02:31Z</time>
      </trkpt>
      <trkpt lat="45.73444" lon="6.46024">
        <ele>1303</ele>
        <time>2022-07-23T13:02:32Z</time>
      </trkpt>
      <trkpt lat="45.73444" lon="6.46022">
        <ele>1303</ele>
        <time>2022-07-23T13:02:33Z</time>
      </trkpt>
      <trkpt lat="45.73444" lon="6.4602">
        <ele>1303</ele>
        <time>2022-07-23T13:02:34Z</time>
      </trkpt>
      <trkpt lat="45.73444" lon="6.46018">
        <ele>1303</ele>
        <time>2022-07-23T13:02:35Z</time>
      </trkpt>
      <trkpt lat="45.73444" lon="6.46016">
        <ele>1302</ele>
        <time>2022-07-23T13:02:36Z</time>
      </trkpt>
      <trkpt lat="45.73443" lon="6.46014">
        <ele>1302</ele>
        <time>2022-07-23T13:02:37Z</time>
      </trkpt>
      <trkpt lat="45.73443" lon="6.46012">
        <ele>1302</ele>
        <time>2022-07-23T13:02:38Z</time>
      </trkpt>
      <trkpt lat="45.73443" lon="6.46011">
        <ele>1302</ele>
        <time>2022-07-23T13:02:39Z</time>
      </trkpt>
      <trkpt lat="45.73443" lon="6.46009">
        <ele>1302</ele>
        <time>2022-07-23T13:02:40Z</time>
      </trkpt>
      <trkpt lat="45.73443" lon="6.46007">
        <ele>1301</ele>
        <time>2022-07-23T13:02:41Z</time>
      </trkpt>
      <trkpt lat="45.73442" lon="6.46006">
        <ele>1301</ele>
        <time>2022-07-23T13:02:42Z</time>
      </trkpt>
      <trkpt lat="45.73442" lon="6.46004">
        <ele>1301</ele>
        <time>2022-07-23T13:02:43Z</time>
      </trkpt>
      <trkpt lat="45.73442" lon="6.46003">
        <ele>1301</ele>
        <time>2022-07-23T13:02:44Z</time>
      </trkpt>
      <trkpt lat="45.73442" lon="6.46001">
        <ele>1301</ele>
        <time>2022-07-23T13:02:45Z</time>
      </trkpt>
      <trkpt lat="45.73442" lon="6.46">
        <ele>1301</ele>
        <time>2022-07-23T13:02:46Z</time>
      </trkpt>
      <trkpt lat="45.73442" lon="6.45998">
        <ele>1301</ele>
        <time>2022-07-23T13:02:47Z</time>
      </trkpt>
      <trkpt lat="45.73442" lon="6.45997">
        <ele>1301</ele>
        <time>2022-07-23T13:02:48Z</time>
      </trkpt>
      <trkpt lat="45.73442" lon="6.45995">
        <ele>1301</ele>
        <time>2022-07-23T13:02:49Z</time>
      </trkpt>
      <trkpt lat="45.73442" lon="6.45994">
        <ele>1301</ele>
        <time>2022-07-23T13:02:50Z</time>
      </trkpt>
      <trkpt lat="45.73442" lon="6.45992">
        <ele>1300</ele>
        <time>2022-07-23T13:02:51Z</time>
      </trkpt>
      <trkpt lat="45.73442" lon="6.45991">
        <ele>1300</ele>
        <time>2022-07-23T13:02:52Z</time>
      </trkpt>
      <trkpt lat="45.73442" lon="6.45989">
        <ele>1300</ele>
        <time>2022-07-23T13:02:53Z</time>
      </trkpt>
      <trkpt lat="45.73442" lon="6.45988">
        <ele>1300</ele>
        <time>2022-07-23T13:02:54Z</time>
      </trkpt>
      <trkpt lat="45.73442" lon="6.45986">
        <ele>1300</ele>
        <time>2022-07-23T13:02:55Z</time>
      </trkpt>
      <trkpt lat="45.73442" lon="6.45985">
        <ele>1300</ele>
        <time>2022-07-23T13:02:56Z</time>
      </trkpt>
      <trkpt lat="45.73441" lon="6.45983">
        <ele>1300</ele>
        <time>2022-07-23T13:02:57Z</time>
      </trkpt>
      <trkpt lat="45.73441" lon="6.45982">
        <ele>1300</ele>
        <time>2022-07-23T13:02:58Z</time>
      </trkpt>
      <trkpt lat="45.73441" lon="6.45981">
        <ele>1300</ele>
        <time>2022-07-23T13:02:59Z</time>
      </trkpt>
      <trkpt lat="45.7344" lon="6.45979">
        <ele>1300</ele>
        <time>2022-07-23T13:03:00Z</time>
      </trkpt>
      <trkpt lat="45.7344" lon="6.45978">
        <ele>1300</ele>
        <time>2022-07-23T13:03:01Z</time>
      </trkpt>
      <trkpt lat="45.7344" lon="6.45976">
        <ele>1300</ele>
        <time>2022-07-23T13:03:02Z</time>
      </trkpt>
      <trkpt lat="45.73439" lon="6.45975">
        <ele>1300</ele>
        <time>2022-07-23T13:03:03Z</time>
      </trkpt>
      <trkpt lat="45.73439" lon="6.45973">
        <ele>1300</ele>
        <time>2022-07-23T13:03:04Z</time>
      </trkpt>
      <trkpt lat="45.73439" lon="6.45972">
        <ele>1300</ele>
        <time>2022-07-23T13:03:05Z</time>
      </trkpt>
      <trkpt lat="45.73439" lon="6.4597">
        <ele>1299</ele>
        <time>2022-07-23T13:03:06Z</time>
      </trkpt>
      <trkpt lat="45.73439" lon="6.45968">
        <ele>1299</ele>
        <time>2022-07-23T13:03:07Z</time>
      </trkpt>
      <trkpt lat="45.73439" lon="6.45967">
        <ele>1299</ele>
        <time>2022-07-23T13:03:08Z</time>
      </trkpt>
      <trkpt lat="45.73439" lon="6.45965">
        <ele>1299</ele>
        <time>2022-07-23T13:03:09Z</time>
      </trkpt>
      <trkpt lat="45.73439" lon="6.45963">
        <ele>1299</ele>
        <time>2022-07-23T13:03:10Z</time>
      </trkpt>
      <trkpt lat="45.73439" lon="6.45962">
        <ele>1299</ele>
        <time>2022-07-23T13:03:11Z</time>
      </trkpt>
      <trkpt lat="45.73439" lon="6.4596">
        <ele>1299</ele>
        <time>2022-07-23T13:03:12Z</time>
      </trkpt>
      <trkpt lat="45.73439" lon="6.45959">
        <ele>1299</ele>
        <time>2022-07-23T13:03:13Z</time>
      </trkpt>
      <trkpt lat="45.73439" lon="6.45957">
        <ele>1299</ele>
        <time>2022-07-23T13:03:14Z</time>
      </trkpt>
      <trkpt lat="45.7344" lon="6.45956">
        <ele>1299</ele>
        <time>2022-07-23T13:03:15Z</time>
      </trkpt>
      <trkpt lat="45.7344" lon="6.45954">
        <ele>1299</ele>
        <time>2022-07-23T13:03:16Z</time>
      </trkpt>
      <trkpt lat="45.7344" lon="6.45953">
        <ele>1299</ele>
        <time>2022-07-23T13:03:17Z</time>
      </trkpt>
      <trkpt lat="45.7344" lon="6.45951">
        <ele>1299</ele>
        <time>2022-07-23T13:03:18Z</time>
      </trkpt>
      <trkpt lat="45.73441" lon="6.4595">
        <ele>1299</ele>
        <time>2022-07-23T13:03:19Z</time>
      </trkpt>
      <trkpt lat="45.73441" lon="6.45949">
        <ele>1299</ele>
        <time>2022-07-23T13:03:20Z</time>
      </trkpt>
      <trkpt lat="45.73441" lon="6.45947">
        <ele>1299</ele>
        <time>2022-07-23T13:03:21Z</time>
      </trkpt>
      <trkpt lat="45.73441" lon="6.45946">
        <ele>1299</ele>
        <time>2022-07-23T13:03:22Z</time>
      </trkpt>
      <trkpt lat="45.73441" lon="6.45944">
        <ele>1299</ele>
        <time>2022-07-23T13:03:23Z</time>
      </trkpt>
      <trkpt lat="45.73441" lon="6.45943">
        <ele>1299</ele>
        <time>2022-07-23T13:03:24Z</time>
      </trkpt>
      <trkpt lat="45.73441" lon="6.45941">
        <ele>1299</ele>
        <time>2022-07-23T13:03:25Z</time>
      </trkpt>
      <trkpt lat="45.73441" lon="6.4594">
        <ele>1298</ele>
        <time>2022-07-23T13:03:26Z</time>
      </trkpt>
      <trkpt lat="45.73441" lon="6.45938">
        <ele>1298</ele>
        <time>2022-07-23T13:03:27Z</time>
      </trkpt>
      <trkpt lat="45.73441" lon="6.45937">
        <ele>1298</ele>
        <time>2022-07-23T13:03:28Z</time>
      </trkpt>
      <trkpt lat="45.73441" lon="6.45935">
        <ele>1298</ele>
        <time>2022-07-23T13:03:29Z</time>
      </trkpt>
      <trkpt lat="45.73442" lon="6.45934">
        <ele>1298</ele>
        <time>2022-07-23T13:03:30Z</time>
      </trkpt>
      <trkpt lat="45.73442" lon="6.45932">
        <ele>1298</ele>
        <time>2022-07-23T13:03:31Z</time>
      </trkpt>
      <trkpt lat="45.73442" lon="6.45931">
        <ele>1298</ele>
        <time>2022-07-23T13:03:32Z</time>
      </trkpt>
      <trkpt lat="45.73442" lon="6.45929">
        <ele>1298</ele>
        <time>2022-07-23T13:03:33Z</time>
      </trkpt>
      <trkpt lat="45.73443" lon="6.45927">
        <ele>1298</ele>
        <time>2022-07-23T13:03:34Z</time>
      </trkpt>
      <trkpt lat="45.73443" lon="6.45925">
        <ele>1298</ele>
        <time>2022-07-23T13:03:35Z</time>
      </trkpt>
      <trkpt lat="45.73443" lon="6.45924">
        <ele>1297</ele>
        <time>2022-07-23T13:03:36Z</time>
      </trkpt>
      <trkpt lat="45.73443" lon="6.45922">
        <ele>1297</ele>
        <time>2022-07-23T13:03:37Z</time>
      </trkpt>
      <trkpt lat="45.73443" lon="6.4592">
        <ele>1297</ele>
        <time>2022-07-23T13:03:38Z</time>
      </trkpt>
      <trkpt lat="45.73442" lon="6.45919">
        <ele>1297</ele>
        <time>2022-07-23T13:03:39Z</time>
      </trkpt>
      <trkpt lat="45.73442" lon="6.45917">
        <ele>1297</ele>
        <time>2022-07-23T13:03:40Z</time>
      </trkpt>
      <trkpt lat="45.73442" lon="6.45916">
        <ele>1297</ele>
        <time>2022-07-23T13:03:41Z</time>
      </trkpt>
      <trkpt lat="45.73441" lon="6.45914">
        <ele>1297</ele>
        <time>2022-07-23T13:03:42Z</time>
      </trkpt>
      <trkpt lat="45.73441" lon="6.45913">
        <ele>1297</ele>
        <time>2022-07-23T13:03:43Z</time>
      </trkpt>
      <trkpt lat="45.73441" lon="6.45912">
        <ele>1297</ele>
        <time>2022-07-23T13:03:44Z</time>
      </trkpt>
      <trkpt lat="45.7344" lon="6.4591">
        <ele>1297</ele>
        <time>2022-07-23T13:03:45Z</time>
      </trkpt>
      <trkpt lat="45.7344" lon="6.45909">
        <ele>1297</ele>
        <time>2022-07-23T13:03:46Z</time>
      </trkpt>
      <trkpt lat="45.7344" lon="6.45907">
        <ele>1297</ele>
        <time>2022-07-23T13:03:47Z</time>
      </trkpt>
      <trkpt lat="45.73439" lon="6.45906">
        <ele>1297</ele>
        <time>2022-07-23T13:03:48Z</time>
      </trkpt>
      <trkpt lat="45.73439" lon="6.45904">
        <ele>1297</ele>
        <time>2022-07-23T13:03:49Z</time>
      </trkpt>
      <trkpt lat="45.73439" lon="6.45903">
        <ele>1297</ele>
        <time>2022-07-23T13:03:50Z</time>
      </trkpt>
      <trkpt lat="45.73439" lon="6.45901">
        <ele>1297</ele>
        <time>2022-07-23T13:03:51Z</time>
      </trkpt>
      <trkpt lat="45.73438" lon="6.459">
        <ele>1297</ele>
        <time>2022-07-23T13:03:52Z</time>
      </trkpt>
      <trkpt lat="45.73438" lon="6.45898">
        <ele>1297</ele>
        <time>2022-07-23T13:03:53Z</time>
      </trkpt>
      <trkpt lat="45.73437" lon="6.45897">
        <ele>1297</ele>
        <time>2022-07-23T13:03:54Z</time>
      </trkpt>
      <trkpt lat="45.73437" lon="6.45895">
        <ele>1297</ele>
        <time>2022-07-23T13:03:55Z</time>
      </trkpt>
      <trkpt lat="45.73436" lon="6.45894">
        <ele>1296</ele>
        <time>2022-07-23T13:03:56Z</time>
      </trkpt>
      <trkpt lat="45.73436" lon="6.45893">
        <ele>1296</ele>
        <time>2022-07-23T13:03:57Z</time>
      </trkpt>
      <trkpt lat="45.73435" lon="6.45891">
        <ele>1296</ele>
        <time>2022-07-23T13:03:58Z</time>
      </trkpt>
      <trkpt lat="45.73435" lon="6.4589">
        <ele>1296</ele>
        <time>2022-07-23T13:03:59Z</time>
      </trkpt>
      <trkpt lat="45.73435" lon="6.45888">
        <ele>1296</ele>
        <time>2022-07-23T13:04:00Z</time>
      </trkpt>
      <trkpt lat="45.73434" lon="6.45887">
        <ele>1296</ele>
        <time>2022-07-23T13:04:01Z</time>
      </trkpt>
      <trkpt lat="45.73434" lon="6.45886">
        <ele>1296</ele>
        <time>2022-07-23T13:04:02Z</time>
      </trkpt>
      <trkpt lat="45.73434" lon="6.45884">
        <ele>1296</ele>
        <time>2022-07-23T13:04:03Z</time>
      </trkpt>
      <trkpt lat="45.73433" lon="6.45883">
        <ele>1296</ele>
        <time>2022-07-23T13:04:04Z</time>
      </trkpt>
      <trkpt lat="45.73433" lon="6.45882">
        <ele>1296</ele>
        <time>2022-07-23T13:04:05Z</time>
      </trkpt>
      <trkpt lat="45.73433" lon="6.4588">
        <ele>1296</ele>
        <time>2022-07-23T13:04:06Z</time>
      </trkpt>
      <trkpt lat="45.73432" lon="6.45879">
        <ele>1296</ele>
        <time>2022-07-23T13:04:07Z</time>
      </trkpt>
      <trkpt lat="45.73432" lon="6.45877">
        <ele>1296</ele>
        <time>2022-07-23T13:04:08Z</time>
      </trkpt>
      <trkpt lat="45.73432" lon="6.45876">
        <ele>1296</ele>
        <time>2022-07-23T13:04:09Z</time>
      </trkpt>
      <trkpt lat="45.73431" lon="6.45875">
        <ele>1296</ele>
        <time>2022-07-23T13:04:10Z</time>
      </trkpt>
      <trkpt lat="45.73431" lon="6.45873">
        <ele>1296</ele>
        <time>2022-07-23T13:04:11Z</time>
      </trkpt>
      <trkpt lat="45.73431" lon="6.45872">
        <ele>1296</ele>
        <time>2022-07-23T13:04:12Z</time>
      </trkpt>
      <trkpt lat="45.73431" lon="6.4587">
        <ele>1296</ele>
        <time>2022-07-23T13:04:13Z</time>
      </trkpt>
      <trkpt lat="45.73431" lon="6.45869">
        <ele>1296</ele>
        <time>2022-07-23T13:04:14Z</time>
      </trkpt>
      <trkpt lat="45.7343" lon="6.45867">
        <ele>1296</ele>
        <time>2022-07-23T13:04:15Z</time>
      </trkpt>
      <trkpt lat="45.7343" lon="6.45866">
        <ele>1295</ele>
        <time>2022-07-23T13:04:16Z</time>
      </trkpt>
      <trkpt lat="45.7343" lon="6.45864">
        <ele>1295</ele>
        <time>2022-07-23T13:04:17Z</time>
      </trkpt>
      <trkpt lat="45.7343" lon="6.45863">
        <ele>1294</ele>
        <time>2022-07-23T13:04:18Z</time>
      </trkpt>
      <trkpt lat="45.7343" lon="6.45861">
        <ele>1294</ele>
        <time>2022-07-23T13:04:19Z</time>
      </trkpt>
      <trkpt lat="45.7343" lon="6.4586">
        <ele>1294</ele>
        <time>2022-07-23T13:04:20Z</time>
      </trkpt>
      <trkpt lat="45.73431" lon="6.45858">
        <ele>1294</ele>
        <time>2022-07-23T13:04:21Z</time>
      </trkpt>
      <trkpt lat="45.73431" lon="6.45856">
        <ele>1294</ele>
        <time>2022-07-23T13:04:22Z</time>
      </trkpt>
      <trkpt lat="45.73431" lon="6.45855">
        <ele>1294</ele>
        <time>2022-07-23T13:04:23Z</time>
      </trkpt>
      <trkpt lat="45.73431" lon="6.45853">
        <ele>1294</ele>
        <time>2022-07-23T13:04:24Z</time>
      </trkpt>
      <trkpt lat="45.73432" lon="6.45852">
        <ele>1294</ele>
        <time>2022-07-23T13:04:25Z</time>
      </trkpt>
      <trkpt lat="45.73432" lon="6.4585">
        <ele>1293</ele>
        <time>2022-07-23T13:04:26Z</time>
      </trkpt>
      <trkpt lat="45.73433" lon="6.45849">
        <ele>1293</ele>
        <time>2022-07-23T13:04:27Z</time>
      </trkpt>
      <trkpt lat="45.73433" lon="6.45847">
        <ele>1293</ele>
        <time>2022-07-23T13:04:28Z</time>
      </trkpt>
      <trkpt lat="45.73433" lon="6.45846">
        <ele>1293</ele>
        <time>2022-07-23T13:04:29Z</time>
      </trkpt>
      <trkpt lat="45.73434" lon="6.45844">
        <ele>1293</ele>
        <time>2022-07-23T13:04:30Z</time>
      </trkpt>
      <trkpt lat="45.73434" lon="6.45843">
        <ele>1293</ele>
        <time>2022-07-23T13:04:31Z</time>
      </trkpt>
      <trkpt lat="45.73434" lon="6.45841">
        <ele>1293</ele>
        <time>2022-07-23T13:04:32Z</time>
      </trkpt>
      <trkpt lat="45.73435" lon="6.4584">
        <ele>1293</ele>
        <time>2022-07-23T13:04:33Z</time>
      </trkpt>
      <trkpt lat="45.73435" lon="6.45839">
        <ele>1293</ele>
        <time>2022-07-23T13:04:34Z</time>
      </trkpt>
      <trkpt lat="45.73435" lon="6.45837">
        <ele>1293</ele>
        <time>2022-07-23T13:04:35Z</time>
      </trkpt>
      <trkpt lat="45.73436" lon="6.45836">
        <ele>1293</ele>
        <time>2022-07-23T13:04:36Z</time>
      </trkpt>
      <trkpt lat="45.73436" lon="6.45834">
        <ele>1293</ele>
        <time>2022-07-23T13:04:37Z</time>
      </trkpt>
      <trkpt lat="45.73436" lon="6.45832">
        <ele>1293</ele>
        <time>2022-07-23T13:04:38Z</time>
      </trkpt>
      <trkpt lat="45.73436" lon="6.45831">
        <ele>1293</ele>
        <time>2022-07-23T13:04:39Z</time>
      </trkpt>
      <trkpt lat="45.73437" lon="6.4583">
        <ele>1293</ele>
        <time>2022-07-23T13:04:40Z</time>
      </trkpt>
      <trkpt lat="45.73437" lon="6.45828">
        <ele>1292</ele>
        <time>2022-07-23T13:04:41Z</time>
      </trkpt>
      <trkpt lat="45.73437" lon="6.45827">
        <ele>1292</ele>
        <time>2022-07-23T13:04:42Z</time>
      </trkpt>
      <trkpt lat="45.73437" lon="6.45825">
        <ele>1292</ele>
        <time>2022-07-23T13:04:43Z</time>
      </trkpt>
      <trkpt lat="45.73437" lon="6.45824">
        <ele>1292</ele>
        <time>2022-07-23T13:04:44Z</time>
      </trkpt>
      <trkpt lat="45.73438" lon="6.45822">
        <ele>1292</ele>
        <time>2022-07-23T13:04:45Z</time>
      </trkpt>
      <trkpt lat="45.73438" lon="6.45821">
        <ele>1292</ele>
        <time>2022-07-23T13:04:46Z</time>
      </trkpt>
      <trkpt lat="45.73438" lon="6.45819">
        <ele>1292</ele>
        <time>2022-07-23T13:04:47Z</time>
      </trkpt>
      <trkpt lat="45.73438" lon="6.45818">
        <ele>1292</ele>
        <time>2022-07-23T13:04:48Z</time>
      </trkpt>
      <trkpt lat="45.73439" lon="6.45817">
        <ele>1292</ele>
        <time>2022-07-23T13:04:49Z</time>
      </trkpt>
      <trkpt lat="45.73439" lon="6.45816">
        <ele>1292</ele>
        <time>2022-07-23T13:04:50Z</time>
      </trkpt>
      <trkpt lat="45.73439" lon="6.45814">
        <ele>1292</ele>
        <time>2022-07-23T13:04:51Z</time>
      </trkpt>
      <trkpt lat="45.73439" lon="6.45813">
        <ele>1292</ele>
        <time>2022-07-23T13:04:52Z</time>
      </trkpt>
      <trkpt lat="45.7344" lon="6.45812">
        <ele>1292</ele>
        <time>2022-07-23T13:04:53Z</time>
      </trkpt>
      <trkpt lat="45.7344" lon="6.45811">
        <ele>1292</ele>
        <time>2022-07-23T13:04:54Z</time>
      </trkpt>
      <trkpt lat="45.73441" lon="6.45809">
        <ele>1292</ele>
        <time>2022-07-23T13:04:55Z</time>
      </trkpt>
      <trkpt lat="45.73442" lon="6.45808">
        <ele>1292</ele>
        <time>2022-07-23T13:04:56Z</time>
      </trkpt>
      <trkpt lat="45.73443" lon="6.45806">
        <ele>1292</ele>
        <time>2022-07-23T13:04:57Z</time>
      </trkpt>
      <trkpt lat="45.73443" lon="6.45804">
        <ele>1292</ele>
        <time>2022-07-23T13:04:58Z</time>
      </trkpt>
      <trkpt lat="45.73444" lon="6.45803">
        <ele>1292</ele>
        <time>2022-07-23T13:04:59Z</time>
      </trkpt>
      <trkpt lat="45.73444" lon="6.45801">
        <ele>1292</ele>
        <time>2022-07-23T13:05:00Z</time>
      </trkpt>
      <trkpt lat="45.73445" lon="6.45799">
        <ele>1291</ele>
        <time>2022-07-23T13:05:01Z</time>
      </trkpt>
      <trkpt lat="45.73445" lon="6.45798">
        <ele>1291</ele>
        <time>2022-07-23T13:05:02Z</time>
      </trkpt>
      <trkpt lat="45.73445" lon="6.45796">
        <ele>1291</ele>
        <time>2022-07-23T13:05:03Z</time>
      </trkpt>
      <trkpt lat="45.73446" lon="6.45795">
        <ele>1291</ele>
        <time>2022-07-23T13:05:04Z</time>
      </trkpt>
      <trkpt lat="45.73446" lon="6.45793">
        <ele>1291</ele>
        <time>2022-07-23T13:05:05Z</time>
      </trkpt>
      <trkpt lat="45.73446" lon="6.45792">
        <ele>1291</ele>
        <time>2022-07-23T13:05:06Z</time>
      </trkpt>
      <trkpt lat="45.73446" lon="6.4579">
        <ele>1291</ele>
        <time>2022-07-23T13:05:07Z</time>
      </trkpt>
      <trkpt lat="45.73446" lon="6.45789">
        <ele>1291</ele>
        <time>2022-07-23T13:05:08Z</time>
      </trkpt>
      <trkpt lat="45.73446" lon="6.45788">
        <ele>1291</ele>
        <time>2022-07-23T13:05:09Z</time>
      </trkpt>
      <trkpt lat="45.73447" lon="6.45786">
        <ele>1291</ele>
        <time>2022-07-23T13:05:10Z</time>
      </trkpt>
      <trkpt lat="45.73447" lon="6.45785">
        <ele>1290</ele>
        <time>2022-07-23T13:05:11Z</time>
      </trkpt>
      <trkpt lat="45.73447" lon="6.45783">
        <ele>1290</ele>
        <time>2022-07-23T13:05:12Z</time>
      </trkpt>
      <trkpt lat="45.73448" lon="6.45781">
        <ele>1290</ele>
        <time>2022-07-23T13:05:13Z</time>
      </trkpt>
      <trkpt lat="45.73448" lon="6.45779">
        <ele>1290</ele>
        <time>2022-07-23T13:05:14Z</time>
      </trkpt>
      <trkpt lat="45.73449" lon="6.45777">
        <ele>1290</ele>
        <time>2022-07-23T13:05:15Z</time>
      </trkpt>
      <trkpt lat="45.73449" lon="6.45775">
        <ele>1290</ele>
        <time>2022-07-23T13:05:16Z</time>
      </trkpt>
      <trkpt lat="45.73449" lon="6.45774">
        <ele>1290</ele>
        <time>2022-07-23T13:05:17Z</time>
      </trkpt>
      <trkpt lat="45.7345" lon="6.45772">
        <ele>1290</ele>
        <time>2022-07-23T13:05:18Z</time>
      </trkpt>
      <trkpt lat="45.7345" lon="6.4577">
        <ele>1290</ele>
        <time>2022-07-23T13:05:19Z</time>
      </trkpt>
      <trkpt lat="45.7345" lon="6.45769">
        <ele>1290</ele>
        <time>2022-07-23T13:05:20Z</time>
      </trkpt>
      <trkpt lat="45.7345" lon="6.45767">
        <ele>1289</ele>
        <time>2022-07-23T13:05:21Z</time>
      </trkpt>
      <trkpt lat="45.73451" lon="6.45765">
        <ele>1289</ele>
        <time>2022-07-23T13:05:22Z</time>
      </trkpt>
      <trkpt lat="45.73451" lon="6.45764">
        <ele>1289</ele>
        <time>2022-07-23T13:05:23Z</time>
      </trkpt>
      <trkpt lat="45.73451" lon="6.45762">
        <ele>1289</ele>
        <time>2022-07-23T13:05:24Z</time>
      </trkpt>
      <trkpt lat="45.73451" lon="6.45761">
        <ele>1289</ele>
        <time>2022-07-23T13:05:25Z</time>
      </trkpt>
      <trkpt lat="45.73451" lon="6.45759">
        <ele>1289</ele>
        <time>2022-07-23T13:05:26Z</time>
      </trkpt>
      <trkpt lat="45.73452" lon="6.45758">
        <ele>1289</ele>
        <time>2022-07-23T13:05:27Z</time>
      </trkpt>
      <trkpt lat="45.73452" lon="6.45756">
        <ele>1289</ele>
        <time>2022-07-23T13:05:28Z</time>
      </trkpt>
      <trkpt lat="45.73452" lon="6.45755">
        <ele>1289</ele>
        <time>2022-07-23T13:05:29Z</time>
      </trkpt>
      <trkpt lat="45.73452" lon="6.45753">
        <ele>1289</ele>
        <time>2022-07-23T13:05:30Z</time>
      </trkpt>
      <trkpt lat="45.73452" lon="6.45752">
        <ele>1289</ele>
        <time>2022-07-23T13:05:31Z</time>
      </trkpt>
      <trkpt lat="45.73452" lon="6.45751">
        <ele>1289</ele>
        <time>2022-07-23T13:05:32Z</time>
      </trkpt>
      <trkpt lat="45.73452" lon="6.45749">
        <ele>1289</ele>
        <time>2022-07-23T13:05:33Z</time>
      </trkpt>
      <trkpt lat="45.73452" lon="6.45748">
        <ele>1289</ele>
        <time>2022-07-23T13:05:34Z</time>
      </trkpt>
      <trkpt lat="45.73452" lon="6.45746">
        <ele>1290</ele>
        <time>2022-07-23T13:05:35Z</time>
      </trkpt>
      <trkpt lat="45.73452" lon="6.45745">
        <ele>1290</ele>
        <time>2022-07-23T13:05:36Z</time>
      </trkpt>
      <trkpt lat="45.73451" lon="6.45743">
        <ele>1290</ele>
        <time>2022-07-23T13:05:37Z</time>
      </trkpt>
      <trkpt lat="45.73451" lon="6.45742">
        <ele>1290</ele>
        <time>2022-07-23T13:05:38Z</time>
      </trkpt>
      <trkpt lat="45.73452" lon="6.4574">
        <ele>1290</ele>
        <time>2022-07-23T13:05:39Z</time>
      </trkpt>
      <trkpt lat="45.73452" lon="6.45739">
        <ele>1290</ele>
        <time>2022-07-23T13:05:40Z</time>
      </trkpt>
      <trkpt lat="45.73452" lon="6.45737">
        <ele>1289</ele>
        <time>2022-07-23T13:05:41Z</time>
      </trkpt>
      <trkpt lat="45.73452" lon="6.45736">
        <ele>1289</ele>
        <time>2022-07-23T13:05:42Z</time>
      </trkpt>
      <trkpt lat="45.73452" lon="6.45734">
        <ele>1289</ele>
        <time>2022-07-23T13:05:43Z</time>
      </trkpt>
      <trkpt lat="45.73452" lon="6.45733">
        <ele>1289</ele>
        <time>2022-07-23T13:05:44Z</time>
      </trkpt>
      <trkpt lat="45.73452" lon="6.45732">
        <ele>1289</ele>
        <time>2022-07-23T13:05:45Z</time>
      </trkpt>
      <trkpt lat="45.73452" lon="6.4573">
        <ele>1289</ele>
        <time>2022-07-23T13:05:46Z</time>
      </trkpt>
      <trkpt lat="45.73452" lon="6.45729">
        <ele>1289</ele>
        <time>2022-07-23T13:05:47Z</time>
      </trkpt>
      <trkpt lat="45.73452" lon="6.45728">
        <ele>1289</ele>
        <time>2022-07-23T13:05:48Z</time>
      </trkpt>
      <trkpt lat="45.73452" lon="6.45726">
        <ele>1289</ele>
        <time>2022-07-23T13:05:49Z</time>
      </trkpt>
      <trkpt lat="45.73452" lon="6.45725">
        <ele>1289</ele>
        <time>2022-07-23T13:05:50Z</time>
      </trkpt>
      <trkpt lat="45.73453" lon="6.45723">
        <ele>1289</ele>
        <time>2022-07-23T13:05:51Z</time>
      </trkpt>
      <trkpt lat="45.73453" lon="6.45722">
        <ele>1289</ele>
        <time>2022-07-23T13:05:52Z</time>
      </trkpt>
      <trkpt lat="45.73453" lon="6.4572">
        <ele>1289</ele>
        <time>2022-07-23T13:05:53Z</time>
      </trkpt>
      <trkpt lat="45.73453" lon="6.45718">
        <ele>1289</ele>
        <time>2022-07-23T13:05:54Z</time>
      </trkpt>
      <trkpt lat="45.73453" lon="6.45717">
        <ele>1289</ele>
        <time>2022-07-23T13:05:55Z</time>
      </trkpt>
      <trkpt lat="45.73454" lon="6.45715">
        <ele>1288</ele>
        <time>2022-07-23T13:05:56Z</time>
      </trkpt>
      <trkpt lat="45.73454" lon="6.45714">
        <ele>1288</ele>
        <time>2022-07-23T13:05:57Z</time>
      </trkpt>
      <trkpt lat="45.73454" lon="6.45712">
        <ele>1288</ele>
        <time>2022-07-23T13:05:58Z</time>
      </trkpt>
      <trkpt lat="45.73454" lon="6.45711">
        <ele>1288</ele>
        <time>2022-07-23T13:05:59Z</time>
      </trkpt>
      <trkpt lat="45.73454" lon="6.45709">
        <ele>1288</ele>
        <time>2022-07-23T13:06:00Z</time>
      </trkpt>
      <trkpt lat="45.73454" lon="6.45708">
        <ele>1288</ele>
        <time>2022-07-23T13:06:01Z</time>
      </trkpt>
      <trkpt lat="45.73454" lon="6.45707">
        <ele>1288</ele>
        <time>2022-07-23T13:06:02Z</time>
      </trkpt>
      <trkpt lat="45.73454" lon="6.45706">
        <ele>1288</ele>
        <time>2022-07-23T13:06:03Z</time>
      </trkpt>
      <trkpt lat="45.73455" lon="6.45705">
        <ele>1288</ele>
        <time>2022-07-23T13:06:04Z</time>
      </trkpt>
      <trkpt lat="45.73455" lon="6.45703">
        <ele>1288</ele>
        <time>2022-07-23T13:06:05Z</time>
      </trkpt>
      <trkpt lat="45.73455" lon="6.45702">
        <ele>1287</ele>
        <time>2022-07-23T13:06:06Z</time>
      </trkpt>
      <trkpt lat="45.73455" lon="6.457">
        <ele>1287</ele>
        <time>2022-07-23T13:06:07Z</time>
      </trkpt>
      <trkpt lat="45.73456" lon="6.45699">
        <ele>1287</ele>
        <time>2022-07-23T13:06:08Z</time>
      </trkpt>
      <trkpt lat="45.73456" lon="6.45697">
        <ele>1287</ele>
        <time>2022-07-23T13:06:09Z</time>
      </trkpt>
      <trkpt lat="45.73456" lon="6.45695">
        <ele>1287</ele>
        <time>2022-07-23T13:06:10Z</time>
      </trkpt>
      <trkpt lat="45.73456" lon="6.45693">
        <ele>1287</ele>
        <time>2022-07-23T13:06:11Z</time>
      </trkpt>
      <trkpt lat="45.73456" lon="6.45691">
        <ele>1287</ele>
        <time>2022-07-23T13:06:12Z</time>
      </trkpt>
      <trkpt lat="45.73456" lon="6.45689">
        <ele>1287</ele>
        <time>2022-07-23T13:06:13Z</time>
      </trkpt>
      <trkpt lat="45.73456" lon="6.45687">
        <ele>1287</ele>
        <time>2022-07-23T13:06:14Z</time>
      </trkpt>
      <trkpt lat="45.73456" lon="6.45685">
        <ele>1287</ele>
        <time>2022-07-23T13:06:15Z</time>
      </trkpt>
      <trkpt lat="45.73456" lon="6.45683">
        <ele>1287</ele>
        <time>2022-07-23T13:06:16Z</time>
      </trkpt>
      <trkpt lat="45.73455" lon="6.45681">
        <ele>1287</ele>
        <time>2022-07-23T13:06:17Z</time>
      </trkpt>
      <trkpt lat="45.73455" lon="6.45679">
        <ele>1287</ele>
        <time>2022-07-23T13:06:18Z</time>
      </trkpt>
      <trkpt lat="45.73455" lon="6.45678">
        <ele>1287</ele>
        <time>2022-07-23T13:06:19Z</time>
      </trkpt>
      <trkpt lat="45.73454" lon="6.45676">
        <ele>1287</ele>
        <time>2022-07-23T13:06:20Z</time>
      </trkpt>
      <trkpt lat="45.73454" lon="6.45673">
        <ele>1287</ele>
        <time>2022-07-23T13:06:44Z</time>
      </trkpt>
      <trkpt lat="45.73454" lon="6.45672">
        <ele>1287</ele>
        <time>2022-07-23T13:06:45Z</time>
      </trkpt>
      <trkpt lat="45.73454" lon="6.45671">
        <ele>1287</ele>
        <time>2022-07-23T13:06:46Z</time>
      </trkpt>
      <trkpt lat="45.73453" lon="6.4567">
        <ele>1287</ele>
        <time>2022-07-23T13:06:47Z</time>
      </trkpt>
      <trkpt lat="45.73453" lon="6.45669">
        <ele>1287</ele>
        <time>2022-07-23T13:06:48Z</time>
      </trkpt>
      <trkpt lat="45.73452" lon="6.45668">
        <ele>1287</ele>
        <time>2022-07-23T13:06:49Z</time>
      </trkpt>
      <trkpt lat="45.73452" lon="6.45667">
        <ele>1287</ele>
        <time>2022-07-23T13:06:50Z</time>
      </trkpt>
      <trkpt lat="45.73451" lon="6.45666">
        <ele>1287</ele>
        <time>2022-07-23T13:06:51Z</time>
      </trkpt>
      <trkpt lat="45.7345" lon="6.45665">
        <ele>1287</ele>
        <time>2022-07-23T13:06:52Z</time>
      </trkpt>
      <trkpt lat="45.73449" lon="6.45664">
        <ele>1287</ele>
        <time>2022-07-23T13:06:53Z</time>
      </trkpt>
      <trkpt lat="45.73448" lon="6.45662">
        <ele>1287</ele>
        <time>2022-07-23T13:06:54Z</time>
      </trkpt>
      <trkpt lat="45.73448" lon="6.45661">
        <ele>1287</ele>
        <time>2022-07-23T13:06:55Z</time>
      </trkpt>
      <trkpt lat="45.73447" lon="6.4566">
        <ele>1287</ele>
        <time>2022-07-23T13:06:56Z</time>
      </trkpt>
      <trkpt lat="45.73446" lon="6.45658">
        <ele>1287</ele>
        <time>2022-07-23T13:06:57Z</time>
      </trkpt>
      <trkpt lat="45.73446" lon="6.45657">
        <ele>1287</ele>
        <time>2022-07-23T13:06:58Z</time>
      </trkpt>
      <trkpt lat="45.73446" lon="6.45655">
        <ele>1287</ele>
        <time>2022-07-23T13:06:59Z</time>
      </trkpt>
      <trkpt lat="45.73445" lon="6.45654">
        <ele>1287</ele>
        <time>2022-07-23T13:07:00Z</time>
      </trkpt>
      <trkpt lat="45.73445" lon="6.45652">
        <ele>1286</ele>
        <time>2022-07-23T13:07:01Z</time>
      </trkpt>
      <trkpt lat="45.73444" lon="6.45651">
        <ele>1286</ele>
        <time>2022-07-23T13:07:02Z</time>
      </trkpt>
      <trkpt lat="45.73444" lon="6.45649">
        <ele>1286</ele>
        <time>2022-07-23T13:07:03Z</time>
      </trkpt>
      <trkpt lat="45.73444" lon="6.45648">
        <ele>1286</ele>
        <time>2022-07-23T13:07:04Z</time>
      </trkpt>
      <trkpt lat="45.73443" lon="6.45646">
        <ele>1286</ele>
        <time>2022-07-23T13:07:05Z</time>
      </trkpt>
      <trkpt lat="45.73443" lon="6.45645">
        <ele>1286</ele>
        <time>2022-07-23T13:07:06Z</time>
      </trkpt>
      <trkpt lat="45.73443" lon="6.45643">
        <ele>1286</ele>
        <time>2022-07-23T13:07:07Z</time>
      </trkpt>
      <trkpt lat="45.73443" lon="6.45642">
        <ele>1286</ele>
        <time>2022-07-23T13:07:08Z</time>
      </trkpt>
      <trkpt lat="45.73443" lon="6.4564">
        <ele>1286</ele>
        <time>2022-07-23T13:07:09Z</time>
      </trkpt>
      <trkpt lat="45.73443" lon="6.45639">
        <ele>1286</ele>
        <time>2022-07-23T13:07:10Z</time>
      </trkpt>
      <trkpt lat="45.73443" lon="6.45637">
        <ele>1286</ele>
        <time>2022-07-23T13:07:11Z</time>
      </trkpt>
      <trkpt lat="45.73443" lon="6.45635">
        <ele>1286</ele>
        <time>2022-07-23T13:07:12Z</time>
      </trkpt>
      <trkpt lat="45.73442" lon="6.45634">
        <ele>1286</ele>
        <time>2022-07-23T13:07:13Z</time>
      </trkpt>
      <trkpt lat="45.73442" lon="6.45632">
        <ele>1286</ele>
        <time>2022-07-23T13:07:14Z</time>
      </trkpt>
      <trkpt lat="45.73442" lon="6.45631">
        <ele>1286</ele>
        <time>2022-07-23T13:07:15Z</time>
      </trkpt>
      <trkpt lat="45.73442" lon="6.45629">
        <ele>1286</ele>
        <time>2022-07-23T13:07:16Z</time>
      </trkpt>
      <trkpt lat="45.73442" lon="6.45628">
        <ele>1286</ele>
        <time>2022-07-23T13:07:17Z</time>
      </trkpt>
      <trkpt lat="45.73441" lon="6.45626">
        <ele>1286</ele>
        <time>2022-07-23T13:07:18Z</time>
      </trkpt>
      <trkpt lat="45.73441" lon="6.45625">
        <ele>1286</ele>
        <time>2022-07-23T13:07:19Z</time>
      </trkpt>
      <trkpt lat="45.73441" lon="6.45623">
        <ele>1286</ele>
        <time>2022-07-23T13:07:20Z</time>
      </trkpt>
      <trkpt lat="45.73442" lon="6.45622">
        <ele>1286</ele>
        <time>2022-07-23T13:07:21Z</time>
      </trkpt>
      <trkpt lat="45.73442" lon="6.4562">
        <ele>1286</ele>
        <time>2022-07-23T13:07:22Z</time>
      </trkpt>
      <trkpt lat="45.73442" lon="6.45619">
        <ele>1286</ele>
        <time>2022-07-23T13:07:23Z</time>
      </trkpt>
      <trkpt lat="45.73443" lon="6.45617">
        <ele>1286</ele>
        <time>2022-07-23T13:07:24Z</time>
      </trkpt>
      <trkpt lat="45.73443" lon="6.45616">
        <ele>1286</ele>
        <time>2022-07-23T13:07:25Z</time>
      </trkpt>
      <trkpt lat="45.73444" lon="6.45614">
        <ele>1286</ele>
        <time>2022-07-23T13:07:26Z</time>
      </trkpt>
      <trkpt lat="45.73445" lon="6.45612">
        <ele>1286</ele>
        <time>2022-07-23T13:07:27Z</time>
      </trkpt>
      <trkpt lat="45.73445" lon="6.45611">
        <ele>1286</ele>
        <time>2022-07-23T13:07:28Z</time>
      </trkpt>
      <trkpt lat="45.73446" lon="6.45609">
        <ele>1286</ele>
        <time>2022-07-23T13:07:29Z</time>
      </trkpt>
      <trkpt lat="45.73447" lon="6.45608">
        <ele>1286</ele>
        <time>2022-07-23T13:07:30Z</time>
      </trkpt>
      <trkpt lat="45.73447" lon="6.45607">
        <ele>1286</ele>
        <time>2022-07-23T13:07:31Z</time>
      </trkpt>
      <trkpt lat="45.73448" lon="6.45606">
        <ele>1286</ele>
        <time>2022-07-23T13:07:32Z</time>
      </trkpt>
      <trkpt lat="45.73448" lon="6.45605">
        <ele>1286</ele>
        <time>2022-07-23T13:07:33Z</time>
      </trkpt>
      <trkpt lat="45.73449" lon="6.45604">
        <ele>1286</ele>
        <time>2022-07-23T13:07:34Z</time>
      </trkpt>
      <trkpt lat="45.73449" lon="6.45604">
        <ele>1286</ele>
        <time>2022-07-23T13:07:35Z</time>
      </trkpt>
      <trkpt lat="45.7345" lon="6.45603">
        <ele>1286</ele>
        <time>2022-07-23T13:07:36Z</time>
      </trkpt>
      <trkpt lat="45.73451" lon="6.45602">
        <ele>1286</ele>
        <time>2022-07-23T13:07:37Z</time>
      </trkpt>
      <trkpt lat="45.73452" lon="6.45602">
        <ele>1286</ele>
        <time>2022-07-23T13:07:38Z</time>
      </trkpt>
      <trkpt lat="45.73453" lon="6.45601">
        <ele>1286</ele>
        <time>2022-07-23T13:07:50Z</time>
      </trkpt>
      <trkpt lat="45.73454" lon="6.456">
        <ele>1286</ele>
        <time>2022-07-23T13:07:51Z</time>
      </trkpt>
      <trkpt lat="45.73454" lon="6.456">
        <ele>1286</ele>
        <time>2022-07-23T13:07:52Z</time>
      </trkpt>
      <trkpt lat="45.73455" lon="6.45599">
        <ele>1286</ele>
        <time>2022-07-23T13:07:53Z</time>
      </trkpt>
      <trkpt lat="45.73455" lon="6.45599">
        <ele>1286</ele>
        <time>2022-07-23T13:07:54Z</time>
      </trkpt>
      <trkpt lat="45.73456" lon="6.45598">
        <ele>1286</ele>
        <time>2022-07-23T13:07:55Z</time>
      </trkpt>
      <trkpt lat="45.73456" lon="6.45597">
        <ele>1286</ele>
        <time>2022-07-23T13:07:56Z</time>
      </trkpt>
      <trkpt lat="45.73457" lon="6.45596">
        <ele>1286</ele>
        <time>2022-07-23T13:07:57Z</time>
      </trkpt>
      <trkpt lat="45.73457" lon="6.45595">
        <ele>1286</ele>
        <time>2022-07-23T13:07:58Z</time>
      </trkpt>
      <trkpt lat="45.73457" lon="6.45593">
        <ele>1286</ele>
        <time>2022-07-23T13:07:59Z</time>
      </trkpt>
      <trkpt lat="45.73458" lon="6.45592">
        <ele>1286</ele>
        <time>2022-07-23T13:08:00Z</time>
      </trkpt>
      <trkpt lat="45.73458" lon="6.45591">
        <ele>1286</ele>
        <time>2022-07-23T13:08:01Z</time>
      </trkpt>
      <trkpt lat="45.73458" lon="6.4559">
        <ele>1286</ele>
        <time>2022-07-23T13:08:02Z</time>
      </trkpt>
      <trkpt lat="45.73458" lon="6.45589">
        <ele>1286</ele>
        <time>2022-07-23T13:08:03Z</time>
      </trkpt>
      <trkpt lat="45.73459" lon="6.45588">
        <ele>1286</ele>
        <time>2022-07-23T13:08:04Z</time>
      </trkpt>
      <trkpt lat="45.73459" lon="6.45587">
        <ele>1286</ele>
        <time>2022-07-23T13:08:05Z</time>
      </trkpt>
      <trkpt lat="45.73459" lon="6.45586">
        <ele>1286</ele>
        <time>2022-07-23T13:08:06Z</time>
      </trkpt>
      <trkpt lat="45.73459" lon="6.45585">
        <ele>1286</ele>
        <time>2022-07-23T13:08:07Z</time>
      </trkpt>
      <trkpt lat="45.7346" lon="6.45584">
        <ele>1286</ele>
        <time>2022-07-23T13:08:08Z</time>
      </trkpt>
      <trkpt lat="45.7346" lon="6.45583">
        <ele>1286</ele>
        <time>2022-07-23T13:08:09Z</time>
      </trkpt>
      <trkpt lat="45.7346" lon="6.45582">
        <ele>1286</ele>
        <time>2022-07-23T13:08:10Z</time>
      </trkpt>
      <trkpt lat="45.7346" lon="6.45581">
        <ele>1286</ele>
        <time>2022-07-23T13:08:11Z</time>
      </trkpt>
      <trkpt lat="45.7346" lon="6.4558">
        <ele>1286</ele>
        <time>2022-07-23T13:08:12Z</time>
      </trkpt>
      <trkpt lat="45.73461" lon="6.45579">
        <ele>1286</ele>
        <time>2022-07-23T13:08:13Z</time>
      </trkpt>
      <trkpt lat="45.73461" lon="6.45579">
        <ele>1286</ele>
        <time>2022-07-23T13:08:14Z</time>
      </trkpt>
      <trkpt lat="45.73461" lon="6.45578">
        <ele>1287</ele>
        <time>2022-07-23T13:08:15Z</time>
      </trkpt>
      <trkpt lat="45.73461" lon="6.45577">
        <ele>1287</ele>
        <time>2022-07-23T13:08:16Z</time>
      </trkpt>
      <trkpt lat="45.73461" lon="6.45576">
        <ele>1287</ele>
        <time>2022-07-23T13:08:17Z</time>
      </trkpt>
      <trkpt lat="45.73461" lon="6.45575">
        <ele>1287</ele>
        <time>2022-07-23T13:08:18Z</time>
      </trkpt>
      <trkpt lat="45.73461" lon="6.45574">
        <ele>1287</ele>
        <time>2022-07-23T13:08:19Z</time>
      </trkpt>
      <trkpt lat="45.73462" lon="6.45573">
        <ele>1287</ele>
        <time>2022-07-23T13:08:20Z</time>
      </trkpt>
      <trkpt lat="45.73462" lon="6.45572">
        <ele>1287</ele>
        <time>2022-07-23T13:08:21Z</time>
      </trkpt>
      <trkpt lat="45.73462" lon="6.45571">
        <ele>1287</ele>
        <time>2022-07-23T13:08:22Z</time>
      </trkpt>
      <trkpt lat="45.73462" lon="6.45569">
        <ele>1287</ele>
        <time>2022-07-23T13:08:23Z</time>
      </trkpt>
      <trkpt lat="45.73463" lon="6.45568">
        <ele>1287</ele>
        <time>2022-07-23T13:08:24Z</time>
      </trkpt>
      <trkpt lat="45.73463" lon="6.45567">
        <ele>1287</ele>
        <time>2022-07-23T13:08:25Z</time>
      </trkpt>
      <trkpt lat="45.73463" lon="6.45566">
        <ele>1287</ele>
        <time>2022-07-23T13:08:26Z</time>
      </trkpt>
      <trkpt lat="45.73464" lon="6.45565">
        <ele>1287</ele>
        <time>2022-07-23T13:08:27Z</time>
      </trkpt>
      <trkpt lat="45.73464" lon="6.45564">
        <ele>1287</ele>
        <time>2022-07-23T13:08:28Z</time>
      </trkpt>
      <trkpt lat="45.73464" lon="6.45563">
        <ele>1287</ele>
        <time>2022-07-23T13:08:29Z</time>
      </trkpt>
      <trkpt lat="45.73464" lon="6.45562">
        <ele>1288</ele>
        <time>2022-07-23T13:08:30Z</time>
      </trkpt>
      <trkpt lat="45.73464" lon="6.45562">
        <ele>1288</ele>
        <time>2022-07-23T13:08:31Z</time>
      </trkpt>
      <trkpt lat="45.73464" lon="6.45561">
        <ele>1288</ele>
        <time>2022-07-23T13:08:32Z</time>
      </trkpt>
      <trkpt lat="45.73464" lon="6.4556">
        <ele>1288</ele>
        <time>2022-07-23T13:08:33Z</time>
      </trkpt>
      <trkpt lat="45.73464" lon="6.4556">
        <ele>1288</ele>
        <time>2022-07-23T13:08:34Z</time>
      </trkpt>
      <trkpt lat="45.73465" lon="6.45559">
        <ele>1288</ele>
        <time>2022-07-23T13:08:35Z</time>
      </trkpt>
      <trkpt lat="45.73465" lon="6.45558">
        <ele>1288</ele>
        <time>2022-07-23T13:08:36Z</time>
      </trkpt>
      <trkpt lat="45.73465" lon="6.45556">
        <ele>1288</ele>
        <time>2022-07-23T13:08:37Z</time>
      </trkpt>
      <trkpt lat="45.73465" lon="6.45555">
        <ele>1288</ele>
        <time>2022-07-23T13:08:38Z</time>
      </trkpt>
      <trkpt lat="45.73465" lon="6.45554">
        <ele>1288</ele>
        <time>2022-07-23T13:08:39Z</time>
      </trkpt>
      <trkpt lat="45.73466" lon="6.45552">
        <ele>1289</ele>
        <time>2022-07-23T13:08:40Z</time>
      </trkpt>
      <trkpt lat="45.73466" lon="6.45551">
        <ele>1289</ele>
        <time>2022-07-23T13:08:41Z</time>
      </trkpt>
      <trkpt lat="45.73466" lon="6.4555">
        <ele>1289</ele>
        <time>2022-07-23T13:08:42Z</time>
      </trkpt>
      <trkpt lat="45.73467" lon="6.45549">
        <ele>1289</ele>
        <time>2022-07-23T13:08:43Z</time>
      </trkpt>
      <trkpt lat="45.73467" lon="6.45547">
        <ele>1289</ele>
        <time>2022-07-23T13:08:44Z</time>
      </trkpt>
      <trkpt lat="45.73468" lon="6.45546">
        <ele>1289</ele>
        <time>2022-07-23T13:08:45Z</time>
      </trkpt>
      <trkpt lat="45.73468" lon="6.45545">
        <ele>1289</ele>
        <time>2022-07-23T13:08:46Z</time>
      </trkpt>
      <trkpt lat="45.73468" lon="6.45544">
        <ele>1289</ele>
        <time>2022-07-23T13:08:47Z</time>
      </trkpt>
      <trkpt lat="45.73469" lon="6.45542">
        <ele>1289</ele>
        <time>2022-07-23T13:08:48Z</time>
      </trkpt>
      <trkpt lat="45.73469" lon="6.45541">
        <ele>1289</ele>
        <time>2022-07-23T13:08:49Z</time>
      </trkpt>
      <trkpt lat="45.7347" lon="6.4554">
        <ele>1290</ele>
        <time>2022-07-23T13:08:50Z</time>
      </trkpt>
      <trkpt lat="45.7347" lon="6.45539">
        <ele>1290</ele>
        <time>2022-07-23T13:08:51Z</time>
      </trkpt>
      <trkpt lat="45.73471" lon="6.45538">
        <ele>1290</ele>
        <time>2022-07-23T13:08:52Z</time>
      </trkpt>
      <trkpt lat="45.73471" lon="6.45537">
        <ele>1290</ele>
        <time>2022-07-23T13:08:53Z</time>
      </trkpt>
      <trkpt lat="45.73472" lon="6.45535">
        <ele>1290</ele>
        <time>2022-07-23T13:08:54Z</time>
      </trkpt>
      <trkpt lat="45.73472" lon="6.45534">
        <ele>1291</ele>
        <time>2022-07-23T13:08:55Z</time>
      </trkpt>
      <trkpt lat="45.73472" lon="6.45533">
        <ele>1291</ele>
        <time>2022-07-23T13:08:56Z</time>
      </trkpt>
      <trkpt lat="45.73473" lon="6.45532">
        <ele>1291</ele>
        <time>2022-07-23T13:08:57Z</time>
      </trkpt>
      <trkpt lat="45.73473" lon="6.45531">
        <ele>1291</ele>
        <time>2022-07-23T13:08:58Z</time>
      </trkpt>
      <trkpt lat="45.73473" lon="6.4553">
        <ele>1291</ele>
        <time>2022-07-23T13:08:59Z</time>
      </trkpt>
      <trkpt lat="45.73474" lon="6.45529">
        <ele>1291</ele>
        <time>2022-07-23T13:09:00Z</time>
      </trkpt>
      <trkpt lat="45.73474" lon="6.45528">
        <ele>1291</ele>
        <time>2022-07-23T13:09:01Z</time>
      </trkpt>
      <trkpt lat="45.73474" lon="6.45527">
        <ele>1291</ele>
        <time>2022-07-23T13:09:02Z</time>
      </trkpt>
      <trkpt lat="45.73474" lon="6.45526">
        <ele>1291</ele>
        <time>2022-07-23T13:09:03Z</time>
      </trkpt>
      <trkpt lat="45.73475" lon="6.45525">
        <ele>1291</ele>
        <time>2022-07-23T13:09:04Z</time>
      </trkpt>
      <trkpt lat="45.73475" lon="6.45523">
        <ele>1291</ele>
        <time>2022-07-23T13:09:05Z</time>
      </trkpt>
      <trkpt lat="45.73475" lon="6.45522">
        <ele>1291</ele>
        <time>2022-07-23T13:09:06Z</time>
      </trkpt>
      <trkpt lat="45.73475" lon="6.45521">
        <ele>1291</ele>
        <time>2022-07-23T13:09:07Z</time>
      </trkpt>
      <trkpt lat="45.73476" lon="6.4552">
        <ele>1291</ele>
        <time>2022-07-23T13:09:08Z</time>
      </trkpt>
      <trkpt lat="45.73476" lon="6.45519">
        <ele>1291</ele>
        <time>2022-07-23T13:09:09Z</time>
      </trkpt>
      <trkpt lat="45.73477" lon="6.45518">
        <ele>1292</ele>
        <time>2022-07-23T13:09:10Z</time>
      </trkpt>
      <trkpt lat="45.73477" lon="6.45517">
        <ele>1292</ele>
        <time>2022-07-23T13:09:11Z</time>
      </trkpt>
      <trkpt lat="45.73477" lon="6.45516">
        <ele>1292</ele>
        <time>2022-07-23T13:09:12Z</time>
      </trkpt>
      <trkpt lat="45.73478" lon="6.45515">
        <ele>1292</ele>
        <time>2022-07-23T13:09:13Z</time>
      </trkpt>
      <trkpt lat="45.73478" lon="6.45514">
        <ele>1292</ele>
        <time>2022-07-23T13:09:14Z</time>
      </trkpt>
      <trkpt lat="45.73478" lon="6.45513">
        <ele>1292</ele>
        <time>2022-07-23T13:09:15Z</time>
      </trkpt>
      <trkpt lat="45.73478" lon="6.45512">
        <ele>1292</ele>
        <time>2022-07-23T13:09:16Z</time>
      </trkpt>
      <trkpt lat="45.73479" lon="6.4551">
        <ele>1292</ele>
        <time>2022-07-23T13:09:17Z</time>
      </trkpt>
      <trkpt lat="45.73479" lon="6.45509">
        <ele>1292</ele>
        <time>2022-07-23T13:09:18Z</time>
      </trkpt>
      <trkpt lat="45.73479" lon="6.45508">
        <ele>1292</ele>
        <time>2022-07-23T13:09:19Z</time>
      </trkpt>
      <trkpt lat="45.73479" lon="6.45507">
        <ele>1293</ele>
        <time>2022-07-23T13:09:20Z</time>
      </trkpt>
      <trkpt lat="45.7348" lon="6.45506">
        <ele>1293</ele>
        <time>2022-07-23T13:09:21Z</time>
      </trkpt>
      <trkpt lat="45.7348" lon="6.45505">
        <ele>1293</ele>
        <time>2022-07-23T13:09:22Z</time>
      </trkpt>
      <trkpt lat="45.7348" lon="6.45504">
        <ele>1293</ele>
        <time>2022-07-23T13:09:23Z</time>
      </trkpt>
      <trkpt lat="45.7348" lon="6.45502">
        <ele>1293</ele>
        <time>2022-07-23T13:09:24Z</time>
      </trkpt>
      <trkpt lat="45.7348" lon="6.45501">
        <ele>1293</ele>
        <time>2022-07-23T13:09:25Z</time>
      </trkpt>
      <trkpt lat="45.7348" lon="6.455">
        <ele>1293</ele>
        <time>2022-07-23T13:09:26Z</time>
      </trkpt>
      <trkpt lat="45.73481" lon="6.45499">
        <ele>1293</ele>
        <time>2022-07-23T13:09:27Z</time>
      </trkpt>
      <trkpt lat="45.73481" lon="6.45498">
        <ele>1293</ele>
        <time>2022-07-23T13:09:28Z</time>
      </trkpt>
      <trkpt lat="45.73481" lon="6.45497">
        <ele>1293</ele>
        <time>2022-07-23T13:09:29Z</time>
      </trkpt>
      <trkpt lat="45.73481" lon="6.45496">
        <ele>1294</ele>
        <time>2022-07-23T13:09:30Z</time>
      </trkpt>
      <trkpt lat="45.73481" lon="6.45495">
        <ele>1294</ele>
        <time>2022-07-23T13:09:31Z</time>
      </trkpt>
      <trkpt lat="45.73481" lon="6.45494">
        <ele>1294</ele>
        <time>2022-07-23T13:09:32Z</time>
      </trkpt>
      <trkpt lat="45.73481" lon="6.45493">
        <ele>1294</ele>
        <time>2022-07-23T13:09:33Z</time>
      </trkpt>
      <trkpt lat="45.73481" lon="6.45492">
        <ele>1294</ele>
        <time>2022-07-23T13:09:34Z</time>
      </trkpt>
      <trkpt lat="45.73481" lon="6.45491">
        <ele>1294</ele>
        <time>2022-07-23T13:09:35Z</time>
      </trkpt>
      <trkpt lat="45.73481" lon="6.4549">
        <ele>1294</ele>
        <time>2022-07-23T13:09:36Z</time>
      </trkpt>
      <trkpt lat="45.73481" lon="6.45488">
        <ele>1294</ele>
        <time>2022-07-23T13:09:37Z</time>
      </trkpt>
      <trkpt lat="45.73481" lon="6.45487">
        <ele>1294</ele>
        <time>2022-07-23T13:09:38Z</time>
      </trkpt>
      <trkpt lat="45.73481" lon="6.45486">
        <ele>1294</ele>
        <time>2022-07-23T13:09:39Z</time>
      </trkpt>
      <trkpt lat="45.73482" lon="6.45485">
        <ele>1294</ele>
        <time>2022-07-23T13:09:40Z</time>
      </trkpt>
      <trkpt lat="45.73482" lon="6.45484">
        <ele>1294</ele>
        <time>2022-07-23T13:09:41Z</time>
      </trkpt>
      <trkpt lat="45.73482" lon="6.45482">
        <ele>1294</ele>
        <time>2022-07-23T13:09:42Z</time>
      </trkpt>
      <trkpt lat="45.73482" lon="6.45481">
        <ele>1295</ele>
        <time>2022-07-23T13:09:43Z</time>
      </trkpt>
      <trkpt lat="45.73482" lon="6.4548">
        <ele>1295</ele>
        <time>2022-07-23T13:09:44Z</time>
      </trkpt>
      <trkpt lat="45.73483" lon="6.45479">
        <ele>1296</ele>
        <time>2022-07-23T13:09:45Z</time>
      </trkpt>
      <trkpt lat="45.73483" lon="6.45478">
        <ele>1296</ele>
        <time>2022-07-23T13:09:46Z</time>
      </trkpt>
      <trkpt lat="45.73483" lon="6.45477">
        <ele>1296</ele>
        <time>2022-07-23T13:09:47Z</time>
      </trkpt>
      <trkpt lat="45.73483" lon="6.45476">
        <ele>1296</ele>
        <time>2022-07-23T13:09:48Z</time>
      </trkpt>
      <trkpt lat="45.73484" lon="6.45475">
        <ele>1296</ele>
        <time>2022-07-23T13:09:49Z</time>
      </trkpt>
      <trkpt lat="45.73484" lon="6.45474">
        <ele>1297</ele>
        <time>2022-07-23T13:09:50Z</time>
      </trkpt>
      <trkpt lat="45.73485" lon="6.45473">
        <ele>1297</ele>
        <time>2022-07-23T13:09:51Z</time>
      </trkpt>
      <trkpt lat="45.73486" lon="6.45472">
        <ele>1297</ele>
        <time>2022-07-23T13:09:52Z</time>
      </trkpt>
      <trkpt lat="45.73486" lon="6.45471">
        <ele>1297</ele>
        <time>2022-07-23T13:09:53Z</time>
      </trkpt>
      <trkpt lat="45.73487" lon="6.4547">
        <ele>1297</ele>
        <time>2022-07-23T13:09:54Z</time>
      </trkpt>
      <trkpt lat="45.73487" lon="6.4547">
        <ele>1297</ele>
        <time>2022-07-23T13:09:55Z</time>
      </trkpt>
      <trkpt lat="45.73488" lon="6.45469">
        <ele>1297</ele>
        <time>2022-07-23T13:09:56Z</time>
      </trkpt>
      <trkpt lat="45.73489" lon="6.45469">
        <ele>1297</ele>
        <time>2022-07-23T13:09:57Z</time>
      </trkpt>
      <trkpt lat="45.7349" lon="6.45468">
        <ele>1297</ele>
        <time>2022-07-23T13:09:58Z</time>
      </trkpt>
      <trkpt lat="45.7349" lon="6.45468">
        <ele>1297</ele>
        <time>2022-07-23T13:09:59Z</time>
      </trkpt>
      <trkpt lat="45.73491" lon="6.45467">
        <ele>1297</ele>
        <time>2022-07-23T13:10:00Z</time>
      </trkpt>
      <trkpt lat="45.73492" lon="6.45467">
        <ele>1297</ele>
        <time>2022-07-23T13:10:01Z</time>
      </trkpt>
      <trkpt lat="45.73493" lon="6.45466">
        <ele>1297</ele>
        <time>2022-07-23T13:10:02Z</time>
      </trkpt>
      <trkpt lat="45.73494" lon="6.45466">
        <ele>1297</ele>
        <time>2022-07-23T13:10:03Z</time>
      </trkpt>
      <trkpt lat="45.73494" lon="6.45465">
        <ele>1297</ele>
        <time>2022-07-23T13:10:04Z</time>
      </trkpt>
      <trkpt lat="45.73495" lon="6.45465">
        <ele>1298</ele>
        <time>2022-07-23T13:10:05Z</time>
      </trkpt>
      <trkpt lat="45.73496" lon="6.45465">
        <ele>1298</ele>
        <time>2022-07-23T13:10:06Z</time>
      </trkpt>
      <trkpt lat="45.73497" lon="6.45465">
        <ele>1298</ele>
        <time>2022-07-23T13:10:07Z</time>
      </trkpt>
      <trkpt lat="45.73497" lon="6.45465">
        <ele>1298</ele>
        <time>2022-07-23T13:10:08Z</time>
      </trkpt>
      <trkpt lat="45.73498" lon="6.45465">
        <ele>1298</ele>
        <time>2022-07-23T13:10:09Z</time>
      </trkpt>
      <trkpt lat="45.73499" lon="6.45465">
        <ele>1298</ele>
        <time>2022-07-23T13:10:10Z</time>
      </trkpt>
      <trkpt lat="45.73499" lon="6.45465">
        <ele>1298</ele>
        <time>2022-07-23T13:10:11Z</time>
      </trkpt>
      <trkpt lat="45.735" lon="6.45465">
        <ele>1298</ele>
        <time>2022-07-23T13:10:12Z</time>
      </trkpt>
      <trkpt lat="45.73501" lon="6.45465">
        <ele>1298</ele>
        <time>2022-07-23T13:10:13Z</time>
      </trkpt>
      <trkpt lat="45.73502" lon="6.45465">
        <ele>1298</ele>
        <time>2022-07-23T13:10:14Z</time>
      </trkpt>
      <trkpt lat="45.73502" lon="6.45465">
        <ele>1299</ele>
        <time>2022-07-23T13:10:15Z</time>
      </trkpt>
      <trkpt lat="45.73503" lon="6.45465">
        <ele>1299</ele>
        <time>2022-07-23T13:10:16Z</time>
      </trkpt>
      <trkpt lat="45.73504" lon="6.45465">
        <ele>1299</ele>
        <time>2022-07-23T13:10:17Z</time>
      </trkpt>
      <trkpt lat="45.73505" lon="6.45465">
        <ele>1299</ele>
        <time>2022-07-23T13:10:18Z</time>
      </trkpt>
      <trkpt lat="45.73506" lon="6.45465">
        <ele>1299</ele>
        <time>2022-07-23T13:10:19Z</time>
      </trkpt>
      <trkpt lat="45.73507" lon="6.45465">
        <ele>1299</ele>
        <time>2022-07-23T13:10:20Z</time>
      </trkpt>
      <trkpt lat="45.73507" lon="6.45465">
        <ele>1299</ele>
        <time>2022-07-23T13:10:21Z</time>
      </trkpt>
      <trkpt lat="45.73508" lon="6.45465">
        <ele>1299</ele>
        <time>2022-07-23T13:10:22Z</time>
      </trkpt>
      <trkpt lat="45.73508" lon="6.45465">
        <ele>1299</ele>
        <time>2022-07-23T13:10:23Z</time>
      </trkpt>
      <trkpt lat="45.73509" lon="6.45464">
        <ele>1299</ele>
        <time>2022-07-23T13:10:24Z</time>
      </trkpt>
      <trkpt lat="45.7351" lon="6.45464">
        <ele>1300</ele>
        <time>2022-07-23T13:10:25Z</time>
      </trkpt>
      <trkpt lat="45.73511" lon="6.45463">
        <ele>1300</ele>
        <time>2022-07-23T13:10:26Z</time>
      </trkpt>
      <trkpt lat="45.73511" lon="6.45463">
        <ele>1300</ele>
        <time>2022-07-23T13:10:27Z</time>
      </trkpt>
      <trkpt lat="45.73512" lon="6.45462">
        <ele>1300</ele>
        <time>2022-07-23T13:10:28Z</time>
      </trkpt>
      <trkpt lat="45.73512" lon="6.45461">
        <ele>1300</ele>
        <time>2022-07-23T13:10:29Z</time>
      </trkpt>
      <trkpt lat="45.73513" lon="6.4546">
        <ele>1300</ele>
        <time>2022-07-23T13:10:30Z</time>
      </trkpt>
      <trkpt lat="45.73513" lon="6.45459">
        <ele>1300</ele>
        <time>2022-07-23T13:10:31Z</time>
      </trkpt>
      <trkpt lat="45.73513" lon="6.45459">
        <ele>1300</ele>
        <time>2022-07-23T13:10:32Z</time>
      </trkpt>
      <trkpt lat="45.73514" lon="6.45458">
        <ele>1300</ele>
        <time>2022-07-23T13:10:33Z</time>
      </trkpt>
      <trkpt lat="45.73514" lon="6.45457">
        <ele>1300</ele>
        <time>2022-07-23T13:10:34Z</time>
      </trkpt>
      <trkpt lat="45.73515" lon="6.45456">
        <ele>1301</ele>
        <time>2022-07-23T13:10:35Z</time>
      </trkpt>
      <trkpt lat="45.73515" lon="6.45455">
        <ele>1301</ele>
        <time>2022-07-23T13:10:36Z</time>
      </trkpt>
      <trkpt lat="45.73516" lon="6.45454">
        <ele>1301</ele>
        <time>2022-07-23T13:10:37Z</time>
      </trkpt>
      <trkpt lat="45.73516" lon="6.45452">
        <ele>1301</ele>
        <time>2022-07-23T13:10:38Z</time>
      </trkpt>
      <trkpt lat="45.73517" lon="6.45451">
        <ele>1301</ele>
        <time>2022-07-23T13:10:39Z</time>
      </trkpt>
      <trkpt lat="45.73517" lon="6.4545">
        <ele>1301</ele>
        <time>2022-07-23T13:10:40Z</time>
      </trkpt>
      <trkpt lat="45.73517" lon="6.45449">
        <ele>1301</ele>
        <time>2022-07-23T13:10:41Z</time>
      </trkpt>
      <trkpt lat="45.73518" lon="6.45448">
        <ele>1302</ele>
        <time>2022-07-23T13:10:49Z</time>
      </trkpt>
      <trkpt lat="45.73518" lon="6.45447">
        <ele>1302</ele>
        <time>2022-07-23T13:10:50Z</time>
      </trkpt>
      <trkpt lat="45.73519" lon="6.45446">
        <ele>1302</ele>
        <time>2022-07-23T13:10:51Z</time>
      </trkpt>
      <trkpt lat="45.73519" lon="6.45446">
        <ele>1302</ele>
        <time>2022-07-23T13:10:52Z</time>
      </trkpt>
      <trkpt lat="45.73519" lon="6.45445">
        <ele>1302</ele>
        <time>2022-07-23T13:10:53Z</time>
      </trkpt>
      <trkpt lat="45.73519" lon="6.45444">
        <ele>1302</ele>
        <time>2022-07-23T13:10:54Z</time>
      </trkpt>
      <trkpt lat="45.7352" lon="6.45443">
        <ele>1302</ele>
        <time>2022-07-23T13:10:55Z</time>
      </trkpt>
      <trkpt lat="45.7352" lon="6.45442">
        <ele>1302</ele>
        <time>2022-07-23T13:10:56Z</time>
      </trkpt>
      <trkpt lat="45.7352" lon="6.4544">
        <ele>1302</ele>
        <time>2022-07-23T13:10:57Z</time>
      </trkpt>
      <trkpt lat="45.7352" lon="6.45439">
        <ele>1302</ele>
        <time>2022-07-23T13:10:58Z</time>
      </trkpt>
      <trkpt lat="45.73521" lon="6.45438">
        <ele>1302</ele>
        <time>2022-07-23T13:10:59Z</time>
      </trkpt>
      <trkpt lat="45.73521" lon="6.45437">
        <ele>1302</ele>
        <time>2022-07-23T13:11:00Z</time>
      </trkpt>
      <trkpt lat="45.73521" lon="6.45436">
        <ele>1302</ele>
        <time>2022-07-23T13:11:01Z</time>
      </trkpt>
      <trkpt lat="45.73521" lon="6.45435">
        <ele>1302</ele>
        <time>2022-07-23T13:11:02Z</time>
      </trkpt>
      <trkpt lat="45.73521" lon="6.45435">
        <ele>1302</ele>
        <time>2022-07-23T13:11:03Z</time>
      </trkpt>
      <trkpt lat="45.73521" lon="6.45434">
        <ele>1302</ele>
        <time>2022-07-23T13:11:04Z</time>
      </trkpt>
      <trkpt lat="45.73521" lon="6.45433">
        <ele>1303</ele>
        <time>2022-07-23T13:11:05Z</time>
      </trkpt>
      <trkpt lat="45.73521" lon="6.45432">
        <ele>1302</ele>
        <time>2022-07-23T13:11:06Z</time>
      </trkpt>
      <trkpt lat="45.73521" lon="6.45431">
        <ele>1302</ele>
        <time>2022-07-23T13:11:07Z</time>
      </trkpt>
      <trkpt lat="45.73521" lon="6.45429">
        <ele>1302</ele>
        <time>2022-07-23T13:11:08Z</time>
      </trkpt>
      <trkpt lat="45.73521" lon="6.45428">
        <ele>1302</ele>
        <time>2022-07-23T13:11:09Z</time>
      </trkpt>
      <trkpt lat="45.73521" lon="6.45427">
        <ele>1302</ele>
        <time>2022-07-23T13:11:10Z</time>
      </trkpt>
      <trkpt lat="45.73522" lon="6.45426">
        <ele>1302</ele>
        <time>2022-07-23T13:11:11Z</time>
      </trkpt>
      <trkpt lat="45.73522" lon="6.45425">
        <ele>1302</ele>
        <time>2022-07-23T13:11:12Z</time>
      </trkpt>
      <trkpt lat="45.73522" lon="6.45424">
        <ele>1302</ele>
        <time>2022-07-23T13:11:13Z</time>
      </trkpt>
      <trkpt lat="45.73522" lon="6.45424">
        <ele>1302</ele>
        <time>2022-07-23T13:11:14Z</time>
      </trkpt>
      <trkpt lat="45.73523" lon="6.45423">
        <ele>1302</ele>
        <time>2022-07-23T13:11:15Z</time>
      </trkpt>
      <trkpt lat="45.73523" lon="6.45422">
        <ele>1302</ele>
        <time>2022-07-23T13:11:16Z</time>
      </trkpt>
      <trkpt lat="45.73523" lon="6.4542">
        <ele>1302</ele>
        <time>2022-07-23T13:11:17Z</time>
      </trkpt>
      <trkpt lat="45.73524" lon="6.45419">
        <ele>1302</ele>
        <time>2022-07-23T13:11:18Z</time>
      </trkpt>
      <trkpt lat="45.73524" lon="6.45418">
        <ele>1302</ele>
        <time>2022-07-23T13:11:19Z</time>
      </trkpt>
      <trkpt lat="45.73525" lon="6.45417">
        <ele>1302</ele>
        <time>2022-07-23T13:11:20Z</time>
      </trkpt>
      <trkpt lat="45.73525" lon="6.45416">
        <ele>1302</ele>
        <time>2022-07-23T13:11:21Z</time>
      </trkpt>
      <trkpt lat="45.73525" lon="6.45415">
        <ele>1302</ele>
        <time>2022-07-23T13:11:22Z</time>
      </trkpt>
      <trkpt lat="45.73526" lon="6.45414">
        <ele>1302</ele>
        <time>2022-07-23T13:11:23Z</time>
      </trkpt>
      <trkpt lat="45.73526" lon="6.45413">
        <ele>1302</ele>
        <time>2022-07-23T13:11:24Z</time>
      </trkpt>
      <trkpt lat="45.73526" lon="6.45412">
        <ele>1302</ele>
        <time>2022-07-23T13:11:25Z</time>
      </trkpt>
      <trkpt lat="45.73526" lon="6.45411">
        <ele>1302</ele>
        <time>2022-07-23T13:11:26Z</time>
      </trkpt>
      <trkpt lat="45.73527" lon="6.4541">
        <ele>1302</ele>
        <time>2022-07-23T13:11:27Z</time>
      </trkpt>
      <trkpt lat="45.73527" lon="6.45409">
        <ele>1302</ele>
        <time>2022-07-23T13:11:28Z</time>
      </trkpt>
      <trkpt lat="45.73527" lon="6.45408">
        <ele>1302</ele>
        <time>2022-07-23T13:11:29Z</time>
      </trkpt>
      <trkpt lat="45.73527" lon="6.45407">
        <ele>1303</ele>
        <time>2022-07-23T13:11:30Z</time>
      </trkpt>
      <trkpt lat="45.73527" lon="6.45406">
        <ele>1303</ele>
        <time>2022-07-23T13:11:31Z</time>
      </trkpt>
      <trkpt lat="45.73527" lon="6.45405">
        <ele>1303</ele>
        <time>2022-07-23T13:11:32Z</time>
      </trkpt>
      <trkpt lat="45.73527" lon="6.45404">
        <ele>1303</ele>
        <time>2022-07-23T13:11:33Z</time>
      </trkpt>
      <trkpt lat="45.73527" lon="6.45401">
        <ele>1303</ele>
        <time>2022-07-23T13:11:50Z</time>
      </trkpt>
      <trkpt lat="45.73527" lon="6.454">
        <ele>1303</ele>
        <time>2022-07-23T13:11:51Z</time>
      </trkpt>
      <trkpt lat="45.73527" lon="6.45398">
        <ele>1303</ele>
        <time>2022-07-23T13:11:52Z</time>
      </trkpt>
      <trkpt lat="45.73527" lon="6.45397">
        <ele>1303</ele>
        <time>2022-07-23T13:11:53Z</time>
      </trkpt>
      <trkpt lat="45.73527" lon="6.45396">
        <ele>1303</ele>
        <time>2022-07-23T13:11:54Z</time>
      </trkpt>
      <trkpt lat="45.73527" lon="6.45395">
        <ele>1303</ele>
        <time>2022-07-23T13:11:55Z</time>
      </trkpt>
      <trkpt lat="45.73527" lon="6.45394">
        <ele>1303</ele>
        <time>2022-07-23T13:11:56Z</time>
      </trkpt>
      <trkpt lat="45.73527" lon="6.45393">
        <ele>1303</ele>
        <time>2022-07-23T13:11:57Z</time>
      </trkpt>
      <trkpt lat="45.73527" lon="6.45392">
        <ele>1303</ele>
        <time>2022-07-23T13:11:58Z</time>
      </trkpt>
      <trkpt lat="45.73527" lon="6.45391">
        <ele>1303</ele>
        <time>2022-07-23T13:11:59Z</time>
      </trkpt>
      <trkpt lat="45.73528" lon="6.45389">
        <ele>1303</ele>
        <time>2022-07-23T13:12:00Z</time>
      </trkpt>
      <trkpt lat="45.73527" lon="6.45388">
        <ele>1303</ele>
        <time>2022-07-23T13:12:01Z</time>
      </trkpt>
      <trkpt lat="45.73527" lon="6.45387">
        <ele>1303</ele>
        <time>2022-07-23T13:12:02Z</time>
      </trkpt>
      <trkpt lat="45.73527" lon="6.45386">
        <ele>1303</ele>
        <time>2022-07-23T13:12:03Z</time>
      </trkpt>
      <trkpt lat="45.73527" lon="6.45385">
        <ele>1303</ele>
        <time>2022-07-23T13:12:04Z</time>
      </trkpt>
      <trkpt lat="45.73527" lon="6.45384">
        <ele>1304</ele>
        <time>2022-07-23T13:12:05Z</time>
      </trkpt>
      <trkpt lat="45.73527" lon="6.45384">
        <ele>1304</ele>
        <time>2022-07-23T13:12:06Z</time>
      </trkpt>
      <trkpt lat="45.73527" lon="6.45383">
        <ele>1304</ele>
        <time>2022-07-23T13:12:07Z</time>
      </trkpt>
      <trkpt lat="45.73527" lon="6.45383">
        <ele>1304</ele>
        <time>2022-07-23T13:12:08Z</time>
      </trkpt>
      <trkpt lat="45.73526" lon="6.45382">
        <ele>1304</ele>
        <time>2022-07-23T13:12:09Z</time>
      </trkpt>
      <trkpt lat="45.73526" lon="6.45381">
        <ele>1304</ele>
        <time>2022-07-23T13:12:10Z</time>
      </trkpt>
      <trkpt lat="45.73526" lon="6.4538">
        <ele>1304</ele>
        <time>2022-07-23T13:12:11Z</time>
      </trkpt>
      <trkpt lat="45.73526" lon="6.45379">
        <ele>1304</ele>
        <time>2022-07-23T13:12:12Z</time>
      </trkpt>
      <trkpt lat="45.73526" lon="6.45377">
        <ele>1304</ele>
        <time>2022-07-23T13:12:13Z</time>
      </trkpt>
      <trkpt lat="45.73525" lon="6.45376">
        <ele>1304</ele>
        <time>2022-07-23T13:12:14Z</time>
      </trkpt>
      <trkpt lat="45.73525" lon="6.45375">
        <ele>1305</ele>
        <time>2022-07-23T13:12:15Z</time>
      </trkpt>
      <trkpt lat="45.73525" lon="6.45374">
        <ele>1305</ele>
        <time>2022-07-23T13:12:16Z</time>
      </trkpt>
      <trkpt lat="45.73525" lon="6.45373">
        <ele>1305</ele>
        <time>2022-07-23T13:12:17Z</time>
      </trkpt>
      <trkpt lat="45.73525" lon="6.45372">
        <ele>1305</ele>
        <time>2022-07-23T13:12:18Z</time>
      </trkpt>
      <trkpt lat="45.73525" lon="6.45372">
        <ele>1305</ele>
        <time>2022-07-23T13:12:19Z</time>
      </trkpt>
      <trkpt lat="45.73525" lon="6.45371">
        <ele>1305</ele>
        <time>2022-07-23T13:12:20Z</time>
      </trkpt>
      <trkpt lat="45.73525" lon="6.4537">
        <ele>1305</ele>
        <time>2022-07-23T13:12:21Z</time>
      </trkpt>
      <trkpt lat="45.73525" lon="6.45369">
        <ele>1305</ele>
        <time>2022-07-23T13:12:22Z</time>
      </trkpt>
      <trkpt lat="45.73525" lon="6.45368">
        <ele>1305</ele>
        <time>2022-07-23T13:12:23Z</time>
      </trkpt>
      <trkpt lat="45.73525" lon="6.45367">
        <ele>1305</ele>
        <time>2022-07-23T13:12:24Z</time>
      </trkpt>
      <trkpt lat="45.73525" lon="6.45366">
        <ele>1306</ele>
        <time>2022-07-23T13:12:25Z</time>
      </trkpt>
      <trkpt lat="45.73525" lon="6.45365">
        <ele>1306</ele>
        <time>2022-07-23T13:12:26Z</time>
      </trkpt>
      <trkpt lat="45.73526" lon="6.45364">
        <ele>1306</ele>
        <time>2022-07-23T13:12:27Z</time>
      </trkpt>
      <trkpt lat="45.73526" lon="6.45363">
        <ele>1306</ele>
        <time>2022-07-23T13:12:28Z</time>
      </trkpt>
      <trkpt lat="45.73526" lon="6.45361">
        <ele>1306</ele>
        <time>2022-07-23T13:12:29Z</time>
      </trkpt>
      <trkpt lat="45.73526" lon="6.4536">
        <ele>1307</ele>
        <time>2022-07-23T13:12:30Z</time>
      </trkpt>
      <trkpt lat="45.73526" lon="6.45359">
        <ele>1307</ele>
        <time>2022-07-23T13:12:31Z</time>
      </trkpt>
      <trkpt lat="45.73527" lon="6.45358">
        <ele>1307</ele>
        <time>2022-07-23T13:12:32Z</time>
      </trkpt>
      <trkpt lat="45.73527" lon="6.45357">
        <ele>1307</ele>
        <time>2022-07-23T13:12:33Z</time>
      </trkpt>
      <trkpt lat="45.73527" lon="6.45356">
        <ele>1307</ele>
        <time>2022-07-23T13:12:34Z</time>
      </trkpt>
      <trkpt lat="45.73527" lon="6.45355">
        <ele>1307</ele>
        <time>2022-07-23T13:12:35Z</time>
      </trkpt>
      <trkpt lat="45.73527" lon="6.45354">
        <ele>1307</ele>
        <time>2022-07-23T13:12:36Z</time>
      </trkpt>
      <trkpt lat="45.73527" lon="6.45353">
        <ele>1307</ele>
        <time>2022-07-23T13:12:37Z</time>
      </trkpt>
      <trkpt lat="45.73527" lon="6.45352">
        <ele>1307</ele>
        <time>2022-07-23T13:12:38Z</time>
      </trkpt>
      <trkpt lat="45.73527" lon="6.45351">
        <ele>1307</ele>
        <time>2022-07-23T13:12:39Z</time>
      </trkpt>
      <trkpt lat="45.73527" lon="6.4535">
        <ele>1308</ele>
        <time>2022-07-23T13:12:40Z</time>
      </trkpt>
      <trkpt lat="45.73527" lon="6.4535">
        <ele>1308</ele>
        <time>2022-07-23T13:12:41Z</time>
      </trkpt>
      <trkpt lat="45.73527" lon="6.45349">
        <ele>1308</ele>
        <time>2022-07-23T13:12:42Z</time>
      </trkpt>
      <trkpt lat="45.73527" lon="6.45348">
        <ele>1308</ele>
        <time>2022-07-23T13:12:43Z</time>
      </trkpt>
      <trkpt lat="45.73527" lon="6.45347">
        <ele>1308</ele>
        <time>2022-07-23T13:12:44Z</time>
      </trkpt>
      <trkpt lat="45.73527" lon="6.45346">
        <ele>1309</ele>
        <time>2022-07-23T13:12:45Z</time>
      </trkpt>
      <trkpt lat="45.73527" lon="6.45345">
        <ele>1309</ele>
        <time>2022-07-23T13:12:46Z</time>
      </trkpt>
      <trkpt lat="45.73527" lon="6.45343">
        <ele>1309</ele>
        <time>2022-07-23T13:12:47Z</time>
      </trkpt>
      <trkpt lat="45.73527" lon="6.45342">
        <ele>1309</ele>
        <time>2022-07-23T13:12:48Z</time>
      </trkpt>
      <trkpt lat="45.73526" lon="6.45341">
        <ele>1309</ele>
        <time>2022-07-23T13:12:49Z</time>
      </trkpt>
      <trkpt lat="45.73526" lon="6.4534">
        <ele>1309</ele>
        <time>2022-07-23T13:12:50Z</time>
      </trkpt>
      <trkpt lat="45.73526" lon="6.45339">
        <ele>1309</ele>
        <time>2022-07-23T13:12:51Z</time>
      </trkpt>
      <trkpt lat="45.73526" lon="6.45338">
        <ele>1309</ele>
        <time>2022-07-23T13:12:52Z</time>
      </trkpt>
      <trkpt lat="45.73526" lon="6.45337">
        <ele>1309</ele>
        <time>2022-07-23T13:12:53Z</time>
      </trkpt>
      <trkpt lat="45.73526" lon="6.45336">
        <ele>1309</ele>
        <time>2022-07-23T13:12:54Z</time>
      </trkpt>
      <trkpt lat="45.73526" lon="6.45335">
        <ele>1310</ele>
        <time>2022-07-23T13:12:55Z</time>
      </trkpt>
      <trkpt lat="45.73526" lon="6.45334">
        <ele>1310</ele>
        <time>2022-07-23T13:12:56Z</time>
      </trkpt>
      <trkpt lat="45.73527" lon="6.45334">
        <ele>1310</ele>
        <time>2022-07-23T13:12:57Z</time>
      </trkpt>
      <trkpt lat="45.73527" lon="6.45332">
        <ele>1310</ele>
        <time>2022-07-23T13:12:58Z</time>
      </trkpt>
      <trkpt lat="45.73527" lon="6.45331">
        <ele>1310</ele>
        <time>2022-07-23T13:12:59Z</time>
      </trkpt>
      <trkpt lat="45.73527" lon="6.4533">
        <ele>1311</ele>
        <time>2022-07-23T13:13:00Z</time>
      </trkpt>
      <trkpt lat="45.73527" lon="6.4533">
        <ele>1311</ele>
        <time>2022-07-23T13:13:01Z</time>
      </trkpt>
      <trkpt lat="45.73527" lon="6.45328">
        <ele>1311</ele>
        <time>2022-07-23T13:13:02Z</time>
      </trkpt>
      <trkpt lat="45.73527" lon="6.45327">
        <ele>1311</ele>
        <time>2022-07-23T13:13:03Z</time>
      </trkpt>
      <trkpt lat="45.73527" lon="6.45326">
        <ele>1311</ele>
        <time>2022-07-23T13:13:04Z</time>
      </trkpt>
      <trkpt lat="45.73527" lon="6.45325">
        <ele>1312</ele>
        <time>2022-07-23T13:13:05Z</time>
      </trkpt>
      <trkpt lat="45.73527" lon="6.45325">
        <ele>1312</ele>
        <time>2022-07-23T13:13:06Z</time>
      </trkpt>
      <trkpt lat="45.73527" lon="6.45324">
        <ele>1312</ele>
        <time>2022-07-23T13:13:07Z</time>
      </trkpt>
      <trkpt lat="45.73527" lon="6.45324">
        <ele>1312</ele>
        <time>2022-07-23T13:13:08Z</time>
      </trkpt>
      <trkpt lat="45.73527" lon="6.45323">
        <ele>1312</ele>
        <time>2022-07-23T13:13:09Z</time>
      </trkpt>
      <trkpt lat="45.73527" lon="6.45322">
        <ele>1312</ele>
        <time>2022-07-23T13:13:10Z</time>
      </trkpt>
      <trkpt lat="45.73527" lon="6.45322">
        <ele>1312</ele>
        <time>2022-07-23T13:13:11Z</time>
      </trkpt>
      <trkpt lat="45.73527" lon="6.45321">
        <ele>1312</ele>
        <time>2022-07-23T13:13:12Z</time>
      </trkpt>
      <trkpt lat="45.73527" lon="6.4532">
        <ele>1313</ele>
        <time>2022-07-23T13:13:13Z</time>
      </trkpt>
      <trkpt lat="45.73527" lon="6.45318">
        <ele>1313</ele>
        <time>2022-07-23T13:13:14Z</time>
      </trkpt>
      <trkpt lat="45.73527" lon="6.45317">
        <ele>1314</ele>
        <time>2022-07-23T13:13:15Z</time>
      </trkpt>
      <trkpt lat="45.73528" lon="6.45316">
        <ele>1314</ele>
        <time>2022-07-23T13:13:16Z</time>
      </trkpt>
      <trkpt lat="45.73528" lon="6.45314">
        <ele>1314</ele>
        <time>2022-07-23T13:13:17Z</time>
      </trkpt>
      <trkpt lat="45.73528" lon="6.45313">
        <ele>1314</ele>
        <time>2022-07-23T13:13:18Z</time>
      </trkpt>
      <trkpt lat="45.73528" lon="6.45311">
        <ele>1314</ele>
        <time>2022-07-23T13:13:19Z</time>
      </trkpt>
      <trkpt lat="45.73529" lon="6.45309">
        <ele>1315</ele>
        <time>2022-07-23T13:13:20Z</time>
      </trkpt>
      <trkpt lat="45.73529" lon="6.45308">
        <ele>1315</ele>
        <time>2022-07-23T13:13:21Z</time>
      </trkpt>
      <trkpt lat="45.7353" lon="6.45306">
        <ele>1315</ele>
        <time>2022-07-23T13:13:22Z</time>
      </trkpt>
      <trkpt lat="45.7353" lon="6.45304">
        <ele>1315</ele>
        <time>2022-07-23T13:13:23Z</time>
      </trkpt>
      <trkpt lat="45.73531" lon="6.45303">
        <ele>1315</ele>
        <time>2022-07-23T13:13:24Z</time>
      </trkpt>
      <trkpt lat="45.73531" lon="6.45302">
        <ele>1316</ele>
        <time>2022-07-23T13:13:25Z</time>
      </trkpt>
      <trkpt lat="45.73532" lon="6.45301">
        <ele>1316</ele>
        <time>2022-07-23T13:13:26Z</time>
      </trkpt>
      <trkpt lat="45.73533" lon="6.453">
        <ele>1316</ele>
        <time>2022-07-23T13:13:27Z</time>
      </trkpt>
      <trkpt lat="45.73533" lon="6.453">
        <ele>1316</ele>
        <time>2022-07-23T13:13:28Z</time>
      </trkpt>
      <trkpt lat="45.73534" lon="6.45299">
        <ele>1316</ele>
        <time>2022-07-23T13:13:29Z</time>
      </trkpt>
      <trkpt lat="45.73534" lon="6.45299">
        <ele>1316</ele>
        <time>2022-07-23T13:13:30Z</time>
      </trkpt>
      <trkpt lat="45.73535" lon="6.45298">
        <ele>1316</ele>
        <time>2022-07-23T13:13:31Z</time>
      </trkpt>
      <trkpt lat="45.73536" lon="6.45298">
        <ele>1316</ele>
        <time>2022-07-23T13:13:32Z</time>
      </trkpt>
      <trkpt lat="45.73536" lon="6.45298">
        <ele>1316</ele>
        <time>2022-07-23T13:13:33Z</time>
      </trkpt>
      <trkpt lat="45.73537" lon="6.45298">
        <ele>1316</ele>
        <time>2022-07-23T13:13:34Z</time>
      </trkpt>
      <trkpt lat="45.73538" lon="6.45298">
        <ele>1316</ele>
        <time>2022-07-23T13:13:35Z</time>
      </trkpt>
      <trkpt lat="45.73538" lon="6.45298">
        <ele>1316</ele>
        <time>2022-07-23T13:13:36Z</time>
      </trkpt>
      <trkpt lat="45.73539" lon="6.45298">
        <ele>1316</ele>
        <time>2022-07-23T13:13:37Z</time>
      </trkpt>
      <trkpt lat="45.7354" lon="6.45298">
        <ele>1316</ele>
        <time>2022-07-23T13:13:38Z</time>
      </trkpt>
      <trkpt lat="45.73541" lon="6.45298">
        <ele>1316</ele>
        <time>2022-07-23T13:13:39Z</time>
      </trkpt>
      <trkpt lat="45.73541" lon="6.45299">
        <ele>1317</ele>
        <time>2022-07-23T13:13:40Z</time>
      </trkpt>
      <trkpt lat="45.73542" lon="6.45299">
        <ele>1317</ele>
        <time>2022-07-23T13:13:41Z</time>
      </trkpt>
      <trkpt lat="45.73543" lon="6.45299">
        <ele>1317</ele>
        <time>2022-07-23T13:13:42Z</time>
      </trkpt>
      <trkpt lat="45.73544" lon="6.453">
        <ele>1317</ele>
        <time>2022-07-23T13:13:43Z</time>
      </trkpt>
      <trkpt lat="45.73544" lon="6.453">
        <ele>1317</ele>
        <time>2022-07-23T13:13:44Z</time>
      </trkpt>
      <trkpt lat="45.73544" lon="6.453">
        <ele>1317</ele>
        <time>2022-07-23T13:13:45Z</time>
      </trkpt>
      <trkpt lat="45.73544" lon="6.453">
        <ele>1317</ele>
        <time>2022-07-23T13:13:46Z</time>
      </trkpt>
      <trkpt lat="45.73545" lon="6.45301">
        <ele>1317</ele>
        <time>2022-07-23T13:13:47Z</time>
      </trkpt>
      <trkpt lat="45.73546" lon="6.45301">
        <ele>1317</ele>
        <time>2022-07-23T13:13:48Z</time>
      </trkpt>
      <trkpt lat="45.73547" lon="6.45302">
        <ele>1317</ele>
        <time>2022-07-23T13:13:49Z</time>
      </trkpt>
      <trkpt lat="45.73547" lon="6.45302">
        <ele>1317</ele>
        <time>2022-07-23T13:13:50Z</time>
      </trkpt>
      <trkpt lat="45.73548" lon="6.45302">
        <ele>1317</ele>
        <time>2022-07-23T13:13:51Z</time>
      </trkpt>
      <trkpt lat="45.73548" lon="6.45302">
        <ele>1317</ele>
        <time>2022-07-23T13:13:52Z</time>
      </trkpt>
      <trkpt lat="45.73549" lon="6.45303">
        <ele>1317</ele>
        <time>2022-07-23T13:13:53Z</time>
      </trkpt>
      <trkpt lat="45.7355" lon="6.45303">
        <ele>1317</ele>
        <time>2022-07-23T13:13:54Z</time>
      </trkpt>
      <trkpt lat="45.7355" lon="6.45304">
        <ele>1318</ele>
        <time>2022-07-23T13:13:55Z</time>
      </trkpt>
      <trkpt lat="45.73551" lon="6.45304">
        <ele>1318</ele>
        <time>2022-07-23T13:13:56Z</time>
      </trkpt>
      <trkpt lat="45.73552" lon="6.45305">
        <ele>1318</ele>
        <time>2022-07-23T13:13:57Z</time>
      </trkpt>
      <trkpt lat="45.73553" lon="6.45305">
        <ele>1318</ele>
        <time>2022-07-23T13:13:58Z</time>
      </trkpt>
      <trkpt lat="45.73554" lon="6.45306">
        <ele>1318</ele>
        <time>2022-07-23T13:13:59Z</time>
      </trkpt>
      <trkpt lat="45.73555" lon="6.45307">
        <ele>1318</ele>
        <time>2022-07-23T13:14:00Z</time>
      </trkpt>
      <trkpt lat="45.73555" lon="6.45308">
        <ele>1318</ele>
        <time>2022-07-23T13:14:01Z</time>
      </trkpt>
      <trkpt lat="45.73556" lon="6.45308">
        <ele>1318</ele>
        <time>2022-07-23T13:14:02Z</time>
      </trkpt>
      <trkpt lat="45.73557" lon="6.45309">
        <ele>1318</ele>
        <time>2022-07-23T13:14:03Z</time>
      </trkpt>
      <trkpt lat="45.73558" lon="6.4531">
        <ele>1318</ele>
        <time>2022-07-23T13:14:04Z</time>
      </trkpt>
      <trkpt lat="45.73559" lon="6.45312">
        <ele>1319</ele>
        <time>2022-07-23T13:14:05Z</time>
      </trkpt>
      <trkpt lat="45.7356" lon="6.45313">
        <ele>1319</ele>
        <time>2022-07-23T13:14:06Z</time>
      </trkpt>
      <trkpt lat="45.73561" lon="6.45314">
        <ele>1319</ele>
        <time>2022-07-23T13:14:07Z</time>
      </trkpt>
      <trkpt lat="45.73562" lon="6.45315">
        <ele>1319</ele>
        <time>2022-07-23T13:14:08Z</time>
      </trkpt>
      <trkpt lat="45.73563" lon="6.45316">
        <ele>1319</ele>
        <time>2022-07-23T13:14:09Z</time>
      </trkpt>
      <trkpt lat="45.73564" lon="6.45317">
        <ele>1319</ele>
        <time>2022-07-23T13:14:10Z</time>
      </trkpt>
      <trkpt lat="45.73565" lon="6.45318">
        <ele>1319</ele>
        <time>2022-07-23T13:14:11Z</time>
      </trkpt>
      <trkpt lat="45.73566" lon="6.45319">
        <ele>1319</ele>
        <time>2022-07-23T13:14:12Z</time>
      </trkpt>
      <trkpt lat="45.73567" lon="6.4532">
        <ele>1319</ele>
        <time>2022-07-23T13:14:13Z</time>
      </trkpt>
      <trkpt lat="45.73567" lon="6.45321">
        <ele>1319</ele>
        <time>2022-07-23T13:14:14Z</time>
      </trkpt>
      <trkpt lat="45.73568" lon="6.45322">
        <ele>1320</ele>
        <time>2022-07-23T13:14:15Z</time>
      </trkpt>
      <trkpt lat="45.73569" lon="6.45323">
        <ele>1320</ele>
        <time>2022-07-23T13:14:16Z</time>
      </trkpt>
      <trkpt lat="45.7357" lon="6.45324">
        <ele>1320</ele>
        <time>2022-07-23T13:14:17Z</time>
      </trkpt>
      <trkpt lat="45.73571" lon="6.45325">
        <ele>1320</ele>
        <time>2022-07-23T13:14:18Z</time>
      </trkpt>
      <trkpt lat="45.73571" lon="6.45326">
        <ele>1320</ele>
        <time>2022-07-23T13:14:19Z</time>
      </trkpt>
      <trkpt lat="45.73572" lon="6.45328">
        <ele>1321</ele>
        <time>2022-07-23T13:14:20Z</time>
      </trkpt>
      <trkpt lat="45.73573" lon="6.45329">
        <ele>1321</ele>
        <time>2022-07-23T13:14:21Z</time>
      </trkpt>
      <trkpt lat="45.73573" lon="6.4533">
        <ele>1321</ele>
        <time>2022-07-23T13:14:22Z</time>
      </trkpt>
      <trkpt lat="45.73574" lon="6.45331">
        <ele>1321</ele>
        <time>2022-07-23T13:14:23Z</time>
      </trkpt>
      <trkpt lat="45.73574" lon="6.45332">
        <ele>1321</ele>
        <time>2022-07-23T13:14:24Z</time>
      </trkpt>
      <trkpt lat="45.73575" lon="6.45333">
        <ele>1321</ele>
        <time>2022-07-23T13:14:25Z</time>
      </trkpt>
      <trkpt lat="45.73575" lon="6.45334">
        <ele>1321</ele>
        <time>2022-07-23T13:14:26Z</time>
      </trkpt>
      <trkpt lat="45.73576" lon="6.45335">
        <ele>1321</ele>
        <time>2022-07-23T13:14:27Z</time>
      </trkpt>
      <trkpt lat="45.73577" lon="6.45336">
        <ele>1321</ele>
        <time>2022-07-23T13:14:28Z</time>
      </trkpt>
      <trkpt lat="45.73577" lon="6.45337">
        <ele>1321</ele>
        <time>2022-07-23T13:14:29Z</time>
      </trkpt>
      <trkpt lat="45.73578" lon="6.45338">
        <ele>1322</ele>
        <time>2022-07-23T13:14:30Z</time>
      </trkpt>
      <trkpt lat="45.73578" lon="6.45339">
        <ele>1322</ele>
        <time>2022-07-23T13:14:31Z</time>
      </trkpt>
      <trkpt lat="45.73578" lon="6.45339">
        <ele>1322</ele>
        <time>2022-07-23T13:14:32Z</time>
      </trkpt>
      <trkpt lat="45.73579" lon="6.4534">
        <ele>1322</ele>
        <time>2022-07-23T13:14:33Z</time>
      </trkpt>
      <trkpt lat="45.73579" lon="6.45341">
        <ele>1322</ele>
        <time>2022-07-23T13:14:34Z</time>
      </trkpt>
      <trkpt lat="45.7358" lon="6.45342">
        <ele>1323</ele>
        <time>2022-07-23T13:14:35Z</time>
      </trkpt>
      <trkpt lat="45.7358" lon="6.45343">
        <ele>1323</ele>
        <time>2022-07-23T13:14:36Z</time>
      </trkpt>
      <trkpt lat="45.7358" lon="6.45343">
        <ele>1323</ele>
        <time>2022-07-23T13:14:37Z</time>
      </trkpt>
      <trkpt lat="45.73581" lon="6.45344">
        <ele>1323</ele>
        <time>2022-07-23T13:14:38Z</time>
      </trkpt>
      <trkpt lat="45.73581" lon="6.45345">
        <ele>1323</ele>
        <time>2022-07-23T13:14:39Z</time>
      </trkpt>
      <trkpt lat="45.73581" lon="6.45346">
        <ele>1324</ele>
        <time>2022-07-23T13:14:40Z</time>
      </trkpt>
      <trkpt lat="45.73582" lon="6.45347">
        <ele>1324</ele>
        <time>2022-07-23T13:14:41Z</time>
      </trkpt>
      <trkpt lat="45.73582" lon="6.45348">
        <ele>1324</ele>
        <time>2022-07-23T13:14:42Z</time>
      </trkpt>
      <trkpt lat="45.73583" lon="6.45349">
        <ele>1324</ele>
        <time>2022-07-23T13:14:43Z</time>
      </trkpt>
      <trkpt lat="45.73583" lon="6.4535">
        <ele>1324</ele>
        <time>2022-07-23T13:14:44Z</time>
      </trkpt>
      <trkpt lat="45.73584" lon="6.45351">
        <ele>1324</ele>
        <time>2022-07-23T13:14:45Z</time>
      </trkpt>
      <trkpt lat="45.73584" lon="6.45352">
        <ele>1324</ele>
        <time>2022-07-23T13:14:46Z</time>
      </trkpt>
      <trkpt lat="45.73584" lon="6.45353">
        <ele>1324</ele>
        <time>2022-07-23T13:14:47Z</time>
      </trkpt>
      <trkpt lat="45.73585" lon="6.45354">
        <ele>1324</ele>
        <time>2022-07-23T13:14:48Z</time>
      </trkpt>
      <trkpt lat="45.73585" lon="6.45355">
        <ele>1324</ele>
        <time>2022-07-23T13:14:49Z</time>
      </trkpt>
      <trkpt lat="45.73585" lon="6.45356">
        <ele>1325</ele>
        <time>2022-07-23T13:14:50Z</time>
      </trkpt>
      <trkpt lat="45.73585" lon="6.45357">
        <ele>1325</ele>
        <time>2022-07-23T13:14:51Z</time>
      </trkpt>
      <trkpt lat="45.73586" lon="6.45358">
        <ele>1325</ele>
        <time>2022-07-23T13:14:52Z</time>
      </trkpt>
      <trkpt lat="45.73586" lon="6.45359">
        <ele>1325</ele>
        <time>2022-07-23T13:14:53Z</time>
      </trkpt>
      <trkpt lat="45.73587" lon="6.4536">
        <ele>1325</ele>
        <time>2022-07-23T13:14:54Z</time>
      </trkpt>
      <trkpt lat="45.73587" lon="6.45362">
        <ele>1325</ele>
        <time>2022-07-23T13:14:55Z</time>
      </trkpt>
      <trkpt lat="45.73587" lon="6.45362">
        <ele>1325</ele>
        <time>2022-07-23T13:14:56Z</time>
      </trkpt>
      <trkpt lat="45.73588" lon="6.45363">
        <ele>1325</ele>
        <time>2022-07-23T13:14:57Z</time>
      </trkpt>
      <trkpt lat="45.73588" lon="6.45364">
        <ele>1325</ele>
        <time>2022-07-23T13:14:58Z</time>
      </trkpt>
      <trkpt lat="45.73589" lon="6.45365">
        <ele>1325</ele>
        <time>2022-07-23T13:14:59Z</time>
      </trkpt>
      <trkpt lat="45.73589" lon="6.45366">
        <ele>1326</ele>
        <time>2022-07-23T13:15:00Z</time>
      </trkpt>
      <trkpt lat="45.73589" lon="6.45367">
        <ele>1326</ele>
        <time>2022-07-23T13:15:01Z</time>
      </trkpt>
      <trkpt lat="45.7359" lon="6.45367">
        <ele>1326</ele>
        <time>2022-07-23T13:15:02Z</time>
      </trkpt>
      <trkpt lat="45.7359" lon="6.45368">
        <ele>1326</ele>
        <time>2022-07-23T13:15:03Z</time>
      </trkpt>
      <trkpt lat="45.73591" lon="6.45369">
        <ele>1326</ele>
        <time>2022-07-23T13:15:04Z</time>
      </trkpt>
      <trkpt lat="45.73591" lon="6.4537">
        <ele>1326</ele>
        <time>2022-07-23T13:15:05Z</time>
      </trkpt>
      <trkpt lat="45.73591" lon="6.45371">
        <ele>1326</ele>
        <time>2022-07-23T13:15:06Z</time>
      </trkpt>
      <trkpt lat="45.73592" lon="6.45372">
        <ele>1326</ele>
        <time>2022-07-23T13:15:07Z</time>
      </trkpt>
      <trkpt lat="45.73592" lon="6.45373">
        <ele>1326</ele>
        <time>2022-07-23T13:15:08Z</time>
      </trkpt>
      <trkpt lat="45.73592" lon="6.45374">
        <ele>1326</ele>
        <time>2022-07-23T13:15:09Z</time>
      </trkpt>
      <trkpt lat="45.73592" lon="6.45375">
        <ele>1327</ele>
        <time>2022-07-23T13:15:10Z</time>
      </trkpt>
      <trkpt lat="45.73592" lon="6.45376">
        <ele>1327</ele>
        <time>2022-07-23T13:15:11Z</time>
      </trkpt>
      <trkpt lat="45.73592" lon="6.45377">
        <ele>1327</ele>
        <time>2022-07-23T13:15:12Z</time>
      </trkpt>
      <trkpt lat="45.73592" lon="6.45378">
        <ele>1327</ele>
        <time>2022-07-23T13:15:13Z</time>
      </trkpt>
      <trkpt lat="45.73593" lon="6.45379">
        <ele>1327</ele>
        <time>2022-07-23T13:15:14Z</time>
      </trkpt>
      <trkpt lat="45.73593" lon="6.45381">
        <ele>1328</ele>
        <time>2022-07-23T13:15:15Z</time>
      </trkpt>
      <trkpt lat="45.73593" lon="6.45381">
        <ele>1328</ele>
        <time>2022-07-23T13:15:16Z</time>
      </trkpt>
      <trkpt lat="45.73593" lon="6.45382">
        <ele>1328</ele>
        <time>2022-07-23T13:15:17Z</time>
      </trkpt>
      <trkpt lat="45.73593" lon="6.45383">
        <ele>1328</ele>
        <time>2022-07-23T13:15:18Z</time>
      </trkpt>
      <trkpt lat="45.73593" lon="6.45384">
        <ele>1328</ele>
        <time>2022-07-23T13:15:19Z</time>
      </trkpt>
      <trkpt lat="45.73593" lon="6.45385">
        <ele>1328</ele>
        <time>2022-07-23T13:15:20Z</time>
      </trkpt>
      <trkpt lat="45.73594" lon="6.45386">
        <ele>1328</ele>
        <time>2022-07-23T13:15:21Z</time>
      </trkpt>
      <trkpt lat="45.73594" lon="6.45387">
        <ele>1328</ele>
        <time>2022-07-23T13:15:22Z</time>
      </trkpt>
      <trkpt lat="45.73594" lon="6.45388">
        <ele>1328</ele>
        <time>2022-07-23T13:15:23Z</time>
      </trkpt>
      <trkpt lat="45.73595" lon="6.45389">
        <ele>1328</ele>
        <time>2022-07-23T13:15:24Z</time>
      </trkpt>
      <trkpt lat="45.73595" lon="6.4539">
        <ele>1329</ele>
        <time>2022-07-23T13:15:25Z</time>
      </trkpt>
      <trkpt lat="45.73595" lon="6.45391">
        <ele>1329</ele>
        <time>2022-07-23T13:15:26Z</time>
      </trkpt>
      <trkpt lat="45.73595" lon="6.45392">
        <ele>1329</ele>
        <time>2022-07-23T13:15:27Z</time>
      </trkpt>
      <trkpt lat="45.73596" lon="6.45392">
        <ele>1329</ele>
        <time>2022-07-23T13:15:28Z</time>
      </trkpt>
      <trkpt lat="45.73596" lon="6.45393">
        <ele>1329</ele>
        <time>2022-07-23T13:15:29Z</time>
      </trkpt>
      <trkpt lat="45.73596" lon="6.45394">
        <ele>1330</ele>
        <time>2022-07-23T13:15:30Z</time>
      </trkpt>
      <trkpt lat="45.73597" lon="6.45395">
        <ele>1330</ele>
        <time>2022-07-23T13:15:31Z</time>
      </trkpt>
      <trkpt lat="45.73597" lon="6.45396">
        <ele>1330</ele>
        <time>2022-07-23T13:15:32Z</time>
      </trkpt>
      <trkpt lat="45.73598" lon="6.45396">
        <ele>1330</ele>
        <time>2022-07-23T13:15:33Z</time>
      </trkpt>
      <trkpt lat="45.73598" lon="6.45397">
        <ele>1330</ele>
        <time>2022-07-23T13:15:34Z</time>
      </trkpt>
      <trkpt lat="45.73598" lon="6.45397">
        <ele>1330</ele>
        <time>2022-07-23T13:15:35Z</time>
      </trkpt>
      <trkpt lat="45.73598" lon="6.45398">
        <ele>1330</ele>
        <time>2022-07-23T13:15:36Z</time>
      </trkpt>
      <trkpt lat="45.73599" lon="6.45398">
        <ele>1330</ele>
        <time>2022-07-23T13:15:37Z</time>
      </trkpt>
      <trkpt lat="45.73599" lon="6.45399">
        <ele>1331</ele>
        <time>2022-07-23T13:15:38Z</time>
      </trkpt>
      <trkpt lat="45.73599" lon="6.45399">
        <ele>1331</ele>
        <time>2022-07-23T13:15:39Z</time>
      </trkpt>
      <trkpt lat="45.736" lon="6.454">
        <ele>1332</ele>
        <time>2022-07-23T13:15:40Z</time>
      </trkpt>
      <trkpt lat="45.736" lon="6.45401">
        <ele>1332</ele>
        <time>2022-07-23T13:15:41Z</time>
      </trkpt>
      <trkpt lat="45.73601" lon="6.45402">
        <ele>1332</ele>
        <time>2022-07-23T13:15:42Z</time>
      </trkpt>
      <trkpt lat="45.73601" lon="6.45403">
        <ele>1332</ele>
        <time>2022-07-23T13:15:43Z</time>
      </trkpt>
      <trkpt lat="45.73601" lon="6.45404">
        <ele>1332</ele>
        <time>2022-07-23T13:15:44Z</time>
      </trkpt>
      <trkpt lat="45.73602" lon="6.45405">
        <ele>1333</ele>
        <time>2022-07-23T13:15:45Z</time>
      </trkpt>
      <trkpt lat="45.73602" lon="6.45406">
        <ele>1333</ele>
        <time>2022-07-23T13:15:46Z</time>
      </trkpt>
      <trkpt lat="45.73603" lon="6.45407">
        <ele>1333</ele>
        <time>2022-07-23T13:15:47Z</time>
      </trkpt>
      <trkpt lat="45.73603" lon="6.45408">
        <ele>1333</ele>
        <time>2022-07-23T13:15:48Z</time>
      </trkpt>
      <trkpt lat="45.73604" lon="6.45409">
        <ele>1333</ele>
        <time>2022-07-23T13:15:49Z</time>
      </trkpt>
      <trkpt lat="45.73604" lon="6.4541">
        <ele>1334</ele>
        <time>2022-07-23T13:15:50Z</time>
      </trkpt>
      <trkpt lat="45.73604" lon="6.45411">
        <ele>1334</ele>
        <time>2022-07-23T13:15:51Z</time>
      </trkpt>
      <trkpt lat="45.73604" lon="6.45412">
        <ele>1334</ele>
        <time>2022-07-23T13:15:52Z</time>
      </trkpt>
      <trkpt lat="45.73605" lon="6.45414">
        <ele>1334</ele>
        <time>2022-07-23T13:15:53Z</time>
      </trkpt>
      <trkpt lat="45.73605" lon="6.45415">
        <ele>1334</ele>
        <time>2022-07-23T13:15:54Z</time>
      </trkpt>
      <trkpt lat="45.73605" lon="6.45416">
        <ele>1335</ele>
        <time>2022-07-23T13:15:55Z</time>
      </trkpt>
      <trkpt lat="45.73605" lon="6.45417">
        <ele>1335</ele>
        <time>2022-07-23T13:15:56Z</time>
      </trkpt>
      <trkpt lat="45.73605" lon="6.45417">
        <ele>1335</ele>
        <time>2022-07-23T13:15:57Z</time>
      </trkpt>
      <trkpt lat="45.73605" lon="6.45418">
        <ele>1335</ele>
        <time>2022-07-23T13:15:58Z</time>
      </trkpt>
      <trkpt lat="45.73606" lon="6.45419">
        <ele>1335</ele>
        <time>2022-07-23T13:15:59Z</time>
      </trkpt>
      <trkpt lat="45.73606" lon="6.4542">
        <ele>1336</ele>
        <time>2022-07-23T13:16:00Z</time>
      </trkpt>
      <trkpt lat="45.73606" lon="6.45421">
        <ele>1336</ele>
        <time>2022-07-23T13:16:01Z</time>
      </trkpt>
      <trkpt lat="45.73607" lon="6.45422">
        <ele>1336</ele>
        <time>2022-07-23T13:16:02Z</time>
      </trkpt>
      <trkpt lat="45.73607" lon="6.45423">
        <ele>1336</ele>
        <time>2022-07-23T13:16:03Z</time>
      </trkpt>
      <trkpt lat="45.73607" lon="6.45424">
        <ele>1336</ele>
        <time>2022-07-23T13:16:04Z</time>
      </trkpt>
      <trkpt lat="45.73607" lon="6.45425">
        <ele>1336</ele>
        <time>2022-07-23T13:16:05Z</time>
      </trkpt>
      <trkpt lat="45.73607" lon="6.45426">
        <ele>1336</ele>
        <time>2022-07-23T13:16:06Z</time>
      </trkpt>
      <trkpt lat="45.73607" lon="6.45427">
        <ele>1336</ele>
        <time>2022-07-23T13:16:07Z</time>
      </trkpt>
      <trkpt lat="45.73608" lon="6.45429">
        <ele>1336</ele>
        <time>2022-07-23T13:16:08Z</time>
      </trkpt>
      <trkpt lat="45.73608" lon="6.4543">
        <ele>1336</ele>
        <time>2022-07-23T13:16:09Z</time>
      </trkpt>
      <trkpt lat="45.73608" lon="6.45431">
        <ele>1337</ele>
        <time>2022-07-23T13:16:10Z</time>
      </trkpt>
      <trkpt lat="45.73608" lon="6.45432">
        <ele>1337</ele>
        <time>2022-07-23T13:16:11Z</time>
      </trkpt>
      <trkpt lat="45.73608" lon="6.45433">
        <ele>1337</ele>
        <time>2022-07-23T13:16:12Z</time>
      </trkpt>
      <trkpt lat="45.73608" lon="6.45435">
        <ele>1337</ele>
        <time>2022-07-23T13:16:13Z</time>
      </trkpt>
      <trkpt lat="45.73608" lon="6.45436">
        <ele>1337</ele>
        <time>2022-07-23T13:16:14Z</time>
      </trkpt>
      <trkpt lat="45.73608" lon="6.45437">
        <ele>1338</ele>
        <time>2022-07-23T13:16:15Z</time>
      </trkpt>
      <trkpt lat="45.73609" lon="6.45438">
        <ele>1338</ele>
        <time>2022-07-23T13:16:16Z</time>
      </trkpt>
      <trkpt lat="45.73609" lon="6.45439">
        <ele>1338</ele>
        <time>2022-07-23T13:16:17Z</time>
      </trkpt>
      <trkpt lat="45.73609" lon="6.4544">
        <ele>1338</ele>
        <time>2022-07-23T13:16:18Z</time>
      </trkpt>
      <trkpt lat="45.73609" lon="6.45442">
        <ele>1338</ele>
        <time>2022-07-23T13:16:19Z</time>
      </trkpt>
      <trkpt lat="45.73609" lon="6.45443">
        <ele>1339</ele>
        <time>2022-07-23T13:16:20Z</time>
      </trkpt>
      <trkpt lat="45.73609" lon="6.45444">
        <ele>1339</ele>
        <time>2022-07-23T13:16:21Z</time>
      </trkpt>
      <trkpt lat="45.73609" lon="6.45445">
        <ele>1339</ele>
        <time>2022-07-23T13:16:22Z</time>
      </trkpt>
      <trkpt lat="45.73609" lon="6.45446">
        <ele>1339</ele>
        <time>2022-07-23T13:16:23Z</time>
      </trkpt>
      <trkpt lat="45.73609" lon="6.45448">
        <ele>1339</ele>
        <time>2022-07-23T13:16:24Z</time>
      </trkpt>
      <trkpt lat="45.73609" lon="6.45449">
        <ele>1339</ele>
        <time>2022-07-23T13:16:25Z</time>
      </trkpt>
      <trkpt lat="45.73609" lon="6.4545">
        <ele>1339</ele>
        <time>2022-07-23T13:16:26Z</time>
      </trkpt>
      <trkpt lat="45.73609" lon="6.45451">
        <ele>1339</ele>
        <time>2022-07-23T13:16:27Z</time>
      </trkpt>
      <trkpt lat="45.7361" lon="6.45453">
        <ele>1339</ele>
        <time>2022-07-23T13:16:28Z</time>
      </trkpt>
      <trkpt lat="45.7361" lon="6.45454">
        <ele>1339</ele>
        <time>2022-07-23T13:16:29Z</time>
      </trkpt>
      <trkpt lat="45.7361" lon="6.45455">
        <ele>1340</ele>
        <time>2022-07-23T13:16:30Z</time>
      </trkpt>
      <trkpt lat="45.7361" lon="6.45455">
        <ele>1340</ele>
        <time>2022-07-23T13:16:31Z</time>
      </trkpt>
      <trkpt lat="45.73611" lon="6.45456">
        <ele>1340</ele>
        <time>2022-07-23T13:16:32Z</time>
      </trkpt>
      <trkpt lat="45.73611" lon="6.45457">
        <ele>1340</ele>
        <time>2022-07-23T13:16:33Z</time>
      </trkpt>
      <trkpt lat="45.73612" lon="6.45458">
        <ele>1340</ele>
        <time>2022-07-23T13:16:34Z</time>
      </trkpt>
      <trkpt lat="45.73612" lon="6.45458">
        <ele>1341</ele>
        <time>2022-07-23T13:16:35Z</time>
      </trkpt>
      <trkpt lat="45.73613" lon="6.45459">
        <ele>1341</ele>
        <time>2022-07-23T13:16:36Z</time>
      </trkpt>
      <trkpt lat="45.73613" lon="6.4546">
        <ele>1341</ele>
        <time>2022-07-23T13:16:37Z</time>
      </trkpt>
      <trkpt lat="45.73614" lon="6.45461">
        <ele>1341</ele>
        <time>2022-07-23T13:16:38Z</time>
      </trkpt>
      <trkpt lat="45.73614" lon="6.45461">
        <ele>1341</ele>
        <time>2022-07-23T13:16:39Z</time>
      </trkpt>
      <trkpt lat="45.73614" lon="6.45462">
        <ele>1341</ele>
        <time>2022-07-23T13:16:40Z</time>
      </trkpt>
      <trkpt lat="45.73615" lon="6.45463">
        <ele>1341</ele>
        <time>2022-07-23T13:16:41Z</time>
      </trkpt>
      <trkpt lat="45.73615" lon="6.45464">
        <ele>1341</ele>
        <time>2022-07-23T13:16:42Z</time>
      </trkpt>
      <trkpt lat="45.73615" lon="6.45464">
        <ele>1341</ele>
        <time>2022-07-23T13:16:43Z</time>
      </trkpt>
      <trkpt lat="45.73615" lon="6.45466">
        <ele>1341</ele>
        <time>2022-07-23T13:16:44Z</time>
      </trkpt>
      <trkpt lat="45.73615" lon="6.45467">
        <ele>1342</ele>
        <time>2022-07-23T13:16:45Z</time>
      </trkpt>
      <trkpt lat="45.73615" lon="6.45468">
        <ele>1342</ele>
        <time>2022-07-23T13:16:46Z</time>
      </trkpt>
      <trkpt lat="45.73615" lon="6.45469">
        <ele>1342</ele>
        <time>2022-07-23T13:16:47Z</time>
      </trkpt>
      <trkpt lat="45.73615" lon="6.45471">
        <ele>1342</ele>
        <time>2022-07-23T13:16:48Z</time>
      </trkpt>
      <trkpt lat="45.73615" lon="6.45472">
        <ele>1342</ele>
        <time>2022-07-23T13:16:49Z</time>
      </trkpt>
      <trkpt lat="45.73615" lon="6.45474">
        <ele>1343</ele>
        <time>2022-07-23T13:16:50Z</time>
      </trkpt>
      <trkpt lat="45.73616" lon="6.45475">
        <ele>1343</ele>
        <time>2022-07-23T13:16:51Z</time>
      </trkpt>
      <trkpt lat="45.73616" lon="6.45477">
        <ele>1343</ele>
        <time>2022-07-23T13:16:52Z</time>
      </trkpt>
      <trkpt lat="45.73616" lon="6.45478">
        <ele>1343</ele>
        <time>2022-07-23T13:16:53Z</time>
      </trkpt>
      <trkpt lat="45.73616" lon="6.4548">
        <ele>1343</ele>
        <time>2022-07-23T13:16:54Z</time>
      </trkpt>
      <trkpt lat="45.73616" lon="6.45481">
        <ele>1343</ele>
        <time>2022-07-23T13:16:55Z</time>
      </trkpt>
      <trkpt lat="45.73616" lon="6.45482">
        <ele>1343</ele>
        <time>2022-07-23T13:16:56Z</time>
      </trkpt>
      <trkpt lat="45.73617" lon="6.45484">
        <ele>1343</ele>
        <time>2022-07-23T13:16:57Z</time>
      </trkpt>
      <trkpt lat="45.73617" lon="6.45485">
        <ele>1343</ele>
        <time>2022-07-23T13:16:58Z</time>
      </trkpt>
      <trkpt lat="45.73617" lon="6.45487">
        <ele>1343</ele>
        <time>2022-07-23T13:16:59Z</time>
      </trkpt>
      <trkpt lat="45.73618" lon="6.45489">
        <ele>1344</ele>
        <time>2022-07-23T13:17:00Z</time>
      </trkpt>
      <trkpt lat="45.73618" lon="6.4549">
        <ele>1344</ele>
        <time>2022-07-23T13:17:01Z</time>
      </trkpt>
      <trkpt lat="45.73619" lon="6.45492">
        <ele>1344</ele>
        <time>2022-07-23T13:17:02Z</time>
      </trkpt>
      <trkpt lat="45.73619" lon="6.45494">
        <ele>1344</ele>
        <time>2022-07-23T13:17:03Z</time>
      </trkpt>
      <trkpt lat="45.73619" lon="6.45496">
        <ele>1344</ele>
        <time>2022-07-23T13:17:04Z</time>
      </trkpt>
      <trkpt lat="45.73619" lon="6.45498">
        <ele>1344</ele>
        <time>2022-07-23T13:17:05Z</time>
      </trkpt>
      <trkpt lat="45.73619" lon="6.45499">
        <ele>1343</ele>
        <time>2022-07-23T13:17:06Z</time>
      </trkpt>
      <trkpt lat="45.7362" lon="6.45501">
        <ele>1343</ele>
        <time>2022-07-23T13:17:07Z</time>
      </trkpt>
      <trkpt lat="45.73619" lon="6.45503">
        <ele>1343</ele>
        <time>2022-07-23T13:17:08Z</time>
      </trkpt>
      <trkpt lat="45.73619" lon="6.45504">
        <ele>1343</ele>
        <time>2022-07-23T13:17:09Z</time>
      </trkpt>
      <trkpt lat="45.73619" lon="6.45506">
        <ele>1343</ele>
        <time>2022-07-23T13:17:10Z</time>
      </trkpt>
      <trkpt lat="45.73619" lon="6.45507">
        <ele>1343</ele>
        <time>2022-07-23T13:17:11Z</time>
      </trkpt>
      <trkpt lat="45.73619" lon="6.45509">
        <ele>1343</ele>
        <time>2022-07-23T13:17:12Z</time>
      </trkpt>
      <trkpt lat="45.73618" lon="6.4551">
        <ele>1343</ele>
        <time>2022-07-23T13:17:13Z</time>
      </trkpt>
      <trkpt lat="45.73618" lon="6.45512">
        <ele>1343</ele>
        <time>2022-07-23T13:17:14Z</time>
      </trkpt>
      <trkpt lat="45.73617" lon="6.45513">
        <ele>1343</ele>
        <time>2022-07-23T13:17:15Z</time>
      </trkpt>
      <trkpt lat="45.73617" lon="6.45514">
        <ele>1343</ele>
        <time>2022-07-23T13:17:16Z</time>
      </trkpt>
      <trkpt lat="45.73616" lon="6.45516">
        <ele>1343</ele>
        <time>2022-07-23T13:17:17Z</time>
      </trkpt>
      <trkpt lat="45.73616" lon="6.45517">
        <ele>1343</ele>
        <time>2022-07-23T13:17:18Z</time>
      </trkpt>
      <trkpt lat="45.73616" lon="6.45519">
        <ele>1343</ele>
        <time>2022-07-23T13:17:19Z</time>
      </trkpt>
      <trkpt lat="45.73616" lon="6.4552">
        <ele>1343</ele>
        <time>2022-07-23T13:17:20Z</time>
      </trkpt>
      <trkpt lat="45.73616" lon="6.45522">
        <ele>1343</ele>
        <time>2022-07-23T13:17:21Z</time>
      </trkpt>
      <trkpt lat="45.73616" lon="6.45523">
        <ele>1343</ele>
        <time>2022-07-23T13:17:22Z</time>
      </trkpt>
      <trkpt lat="45.73616" lon="6.45525">
        <ele>1343</ele>
        <time>2022-07-23T13:17:23Z</time>
      </trkpt>
      <trkpt lat="45.73616" lon="6.45526">
        <ele>1343</ele>
        <time>2022-07-23T13:17:24Z</time>
      </trkpt>
      <trkpt lat="45.73616" lon="6.45528">
        <ele>1343</ele>
        <time>2022-07-23T13:17:25Z</time>
      </trkpt>
      <trkpt lat="45.73616" lon="6.45529">
        <ele>1343</ele>
        <time>2022-07-23T13:17:26Z</time>
      </trkpt>
      <trkpt lat="45.73616" lon="6.4553">
        <ele>1343</ele>
        <time>2022-07-23T13:17:27Z</time>
      </trkpt>
      <trkpt lat="45.73616" lon="6.45531">
        <ele>1343</ele>
        <time>2022-07-23T13:17:28Z</time>
      </trkpt>
      <trkpt lat="45.73616" lon="6.45532">
        <ele>1343</ele>
        <time>2022-07-23T13:17:29Z</time>
      </trkpt>
      <trkpt lat="45.73616" lon="6.45533">
        <ele>1343</ele>
        <time>2022-07-23T13:17:30Z</time>
      </trkpt>
      <trkpt lat="45.73615" lon="6.45534">
        <ele>1343</ele>
        <time>2022-07-23T13:17:31Z</time>
      </trkpt>
      <trkpt lat="45.73615" lon="6.45535">
        <ele>1343</ele>
        <time>2022-07-23T13:17:32Z</time>
      </trkpt>
      <trkpt lat="45.73615" lon="6.45536">
        <ele>1343</ele>
        <time>2022-07-23T13:17:33Z</time>
      </trkpt>
      <trkpt lat="45.73615" lon="6.45538">
        <ele>1343</ele>
        <time>2022-07-23T13:17:34Z</time>
      </trkpt>
      <trkpt lat="45.73615" lon="6.45539">
        <ele>1343</ele>
        <time>2022-07-23T13:17:35Z</time>
      </trkpt>
      <trkpt lat="45.73614" lon="6.4554">
        <ele>1343</ele>
        <time>2022-07-23T13:17:36Z</time>
      </trkpt>
      <trkpt lat="45.73614" lon="6.45542">
        <ele>1343</ele>
        <time>2022-07-23T13:17:37Z</time>
      </trkpt>
      <trkpt lat="45.73614" lon="6.45543">
        <ele>1343</ele>
        <time>2022-07-23T13:17:38Z</time>
      </trkpt>
      <trkpt lat="45.73614" lon="6.45545">
        <ele>1343</ele>
        <time>2022-07-23T13:17:39Z</time>
      </trkpt>
      <trkpt lat="45.73613" lon="6.45547">
        <ele>1344</ele>
        <time>2022-07-23T13:17:40Z</time>
      </trkpt>
      <trkpt lat="45.73613" lon="6.45548">
        <ele>1344</ele>
        <time>2022-07-23T13:17:41Z</time>
      </trkpt>
      <trkpt lat="45.73613" lon="6.4555">
        <ele>1344</ele>
        <time>2022-07-23T13:17:42Z</time>
      </trkpt>
      <trkpt lat="45.73613" lon="6.45551">
        <ele>1344</ele>
        <time>2022-07-23T13:17:43Z</time>
      </trkpt>
      <trkpt lat="45.73613" lon="6.45553">
        <ele>1344</ele>
        <time>2022-07-23T13:17:44Z</time>
      </trkpt>
      <trkpt lat="45.73613" lon="6.45554">
        <ele>1344</ele>
        <time>2022-07-23T13:17:45Z</time>
      </trkpt>
      <trkpt lat="45.73613" lon="6.45555">
        <ele>1344</ele>
        <time>2022-07-23T13:17:46Z</time>
      </trkpt>
      <trkpt lat="45.73613" lon="6.45557">
        <ele>1344</ele>
        <time>2022-07-23T13:17:47Z</time>
      </trkpt>
      <trkpt lat="45.73614" lon="6.45558">
        <ele>1344</ele>
        <time>2022-07-23T13:17:48Z</time>
      </trkpt>
      <trkpt lat="45.73614" lon="6.45559">
        <ele>1344</ele>
        <time>2022-07-23T13:17:49Z</time>
      </trkpt>
      <trkpt lat="45.73615" lon="6.45561">
        <ele>1344</ele>
        <time>2022-07-23T13:17:50Z</time>
      </trkpt>
      <trkpt lat="45.73615" lon="6.45562">
        <ele>1344</ele>
        <time>2022-07-23T13:17:51Z</time>
      </trkpt>
      <trkpt lat="45.73615" lon="6.45564">
        <ele>1344</ele>
        <time>2022-07-23T13:17:52Z</time>
      </trkpt>
      <trkpt lat="45.73616" lon="6.45565">
        <ele>1344</ele>
        <time>2022-07-23T13:17:53Z</time>
      </trkpt>
      <trkpt lat="45.73616" lon="6.45567">
        <ele>1344</ele>
        <time>2022-07-23T13:17:54Z</time>
      </trkpt>
      <trkpt lat="45.73616" lon="6.45568">
        <ele>1345</ele>
        <time>2022-07-23T13:17:55Z</time>
      </trkpt>
      <trkpt lat="45.73616" lon="6.4557">
        <ele>1345</ele>
        <time>2022-07-23T13:17:56Z</time>
      </trkpt>
      <trkpt lat="45.73616" lon="6.45571">
        <ele>1345</ele>
        <time>2022-07-23T13:17:57Z</time>
      </trkpt>
      <trkpt lat="45.73616" lon="6.45572">
        <ele>1345</ele>
        <time>2022-07-23T13:17:58Z</time>
      </trkpt>
      <trkpt lat="45.73616" lon="6.45573">
        <ele>1345</ele>
        <time>2022-07-23T13:17:59Z</time>
      </trkpt>
      <trkpt lat="45.73616" lon="6.45574">
        <ele>1345</ele>
        <time>2022-07-23T13:18:00Z</time>
      </trkpt>
      <trkpt lat="45.73616" lon="6.45575">
        <ele>1345</ele>
        <time>2022-07-23T13:18:01Z</time>
      </trkpt>
      <trkpt lat="45.73616" lon="6.45576">
        <ele>1345</ele>
        <time>2022-07-23T13:18:02Z</time>
      </trkpt>
      <trkpt lat="45.73616" lon="6.45577">
        <ele>1345</ele>
        <time>2022-07-23T13:18:03Z</time>
      </trkpt>
      <trkpt lat="45.73617" lon="6.45578">
        <ele>1345</ele>
        <time>2022-07-23T13:18:04Z</time>
      </trkpt>
      <trkpt lat="45.73617" lon="6.45579">
        <ele>1346</ele>
        <time>2022-07-23T13:18:05Z</time>
      </trkpt>
      <trkpt lat="45.73616" lon="6.4558">
        <ele>1346</ele>
        <time>2022-07-23T13:18:06Z</time>
      </trkpt>
      <trkpt lat="45.73616" lon="6.45581">
        <ele>1346</ele>
        <time>2022-07-23T13:18:07Z</time>
      </trkpt>
      <trkpt lat="45.73616" lon="6.45582">
        <ele>1346</ele>
        <time>2022-07-23T13:18:08Z</time>
      </trkpt>
      <trkpt lat="45.73616" lon="6.45584">
        <ele>1346</ele>
        <time>2022-07-23T13:18:09Z</time>
      </trkpt>
      <trkpt lat="45.73616" lon="6.45585">
        <ele>1346</ele>
        <time>2022-07-23T13:18:10Z</time>
      </trkpt>
      <trkpt lat="45.73616" lon="6.45587">
        <ele>1346</ele>
        <time>2022-07-23T13:18:11Z</time>
      </trkpt>
      <trkpt lat="45.73616" lon="6.45588">
        <ele>1346</ele>
        <time>2022-07-23T13:18:12Z</time>
      </trkpt>
      <trkpt lat="45.73615" lon="6.4559">
        <ele>1346</ele>
        <time>2022-07-23T13:18:13Z</time>
      </trkpt>
      <trkpt lat="45.73615" lon="6.45591">
        <ele>1346</ele>
        <time>2022-07-23T13:18:14Z</time>
      </trkpt>
      <trkpt lat="45.73615" lon="6.45593">
        <ele>1346</ele>
        <time>2022-07-23T13:18:15Z</time>
      </trkpt>
      <trkpt lat="45.73614" lon="6.45594">
        <ele>1346</ele>
        <time>2022-07-23T13:18:16Z</time>
      </trkpt>
      <trkpt lat="45.73614" lon="6.45596">
        <ele>1346</ele>
        <time>2022-07-23T13:18:17Z</time>
      </trkpt>
      <trkpt lat="45.73614" lon="6.45597">
        <ele>1346</ele>
        <time>2022-07-23T13:18:18Z</time>
      </trkpt>
      <trkpt lat="45.73613" lon="6.45599">
        <ele>1346</ele>
        <time>2022-07-23T13:18:19Z</time>
      </trkpt>
      <trkpt lat="45.73612" lon="6.456">
        <ele>1347</ele>
        <time>2022-07-23T13:18:20Z</time>
      </trkpt>
      <trkpt lat="45.73612" lon="6.45601">
        <ele>1347</ele>
        <time>2022-07-23T13:18:21Z</time>
      </trkpt>
      <trkpt lat="45.73611" lon="6.45602">
        <ele>1347</ele>
        <time>2022-07-23T13:18:22Z</time>
      </trkpt>
      <trkpt lat="45.7361" lon="6.45604">
        <ele>1347</ele>
        <time>2022-07-23T13:18:23Z</time>
      </trkpt>
      <trkpt lat="45.7361" lon="6.45605">
        <ele>1347</ele>
        <time>2022-07-23T13:18:24Z</time>
      </trkpt>
      <trkpt lat="45.73609" lon="6.45606">
        <ele>1347</ele>
        <time>2022-07-23T13:18:25Z</time>
      </trkpt>
      <trkpt lat="45.73609" lon="6.45607">
        <ele>1347</ele>
        <time>2022-07-23T13:18:26Z</time>
      </trkpt>
      <trkpt lat="45.73608" lon="6.45608">
        <ele>1347</ele>
        <time>2022-07-23T13:18:27Z</time>
      </trkpt>
      <trkpt lat="45.73608" lon="6.45609">
        <ele>1347</ele>
        <time>2022-07-23T13:18:28Z</time>
      </trkpt>
      <trkpt lat="45.73608" lon="6.4561">
        <ele>1347</ele>
        <time>2022-07-23T13:18:29Z</time>
      </trkpt>
      <trkpt lat="45.73608" lon="6.45611">
        <ele>1347</ele>
        <time>2022-07-23T13:18:30Z</time>
      </trkpt>
      <trkpt lat="45.73608" lon="6.45613">
        <ele>1347</ele>
        <time>2022-07-23T13:18:31Z</time>
      </trkpt>
      <trkpt lat="45.73607" lon="6.45614">
        <ele>1347</ele>
        <time>2022-07-23T13:18:32Z</time>
      </trkpt>
      <trkpt lat="45.73607" lon="6.45615">
        <ele>1347</ele>
        <time>2022-07-23T13:18:33Z</time>
      </trkpt>
      <trkpt lat="45.73607" lon="6.45616">
        <ele>1347</ele>
        <time>2022-07-23T13:18:34Z</time>
      </trkpt>
      <trkpt lat="45.73608" lon="6.45618">
        <ele>1348</ele>
        <time>2022-07-23T13:18:35Z</time>
      </trkpt>
      <trkpt lat="45.73608" lon="6.45619">
        <ele>1348</ele>
        <time>2022-07-23T13:18:36Z</time>
      </trkpt>
      <trkpt lat="45.73608" lon="6.4562">
        <ele>1348</ele>
        <time>2022-07-23T13:18:37Z</time>
      </trkpt>
      <trkpt lat="45.73608" lon="6.45621">
        <ele>1348</ele>
        <time>2022-07-23T13:18:38Z</time>
      </trkpt>
      <trkpt lat="45.73607" lon="6.45623">
        <ele>1348</ele>
        <time>2022-07-23T13:18:39Z</time>
      </trkpt>
      <trkpt lat="45.73607" lon="6.45624">
        <ele>1348</ele>
        <time>2022-07-23T13:18:40Z</time>
      </trkpt>
      <trkpt lat="45.73607" lon="6.45625">
        <ele>1348</ele>
        <time>2022-07-23T13:18:41Z</time>
      </trkpt>
      <trkpt lat="45.73608" lon="6.45627">
        <ele>1348</ele>
        <time>2022-07-23T13:18:42Z</time>
      </trkpt>
      <trkpt lat="45.73608" lon="6.45628">
        <ele>1349</ele>
        <time>2022-07-23T13:18:43Z</time>
      </trkpt>
      <trkpt lat="45.73608" lon="6.45629">
        <ele>1349</ele>
        <time>2022-07-23T13:18:44Z</time>
      </trkpt>
      <trkpt lat="45.73608" lon="6.4563">
        <ele>1350</ele>
        <time>2022-07-23T13:18:45Z</time>
      </trkpt>
      <trkpt lat="45.73608" lon="6.45632">
        <ele>1350</ele>
        <time>2022-07-23T13:18:46Z</time>
      </trkpt>
      <trkpt lat="45.73609" lon="6.45633">
        <ele>1350</ele>
        <time>2022-07-23T13:18:47Z</time>
      </trkpt>
      <trkpt lat="45.73609" lon="6.45635">
        <ele>1350</ele>
        <time>2022-07-23T13:18:48Z</time>
      </trkpt>
      <trkpt lat="45.73609" lon="6.45636">
        <ele>1350</ele>
        <time>2022-07-23T13:18:49Z</time>
      </trkpt>
      <trkpt lat="45.73609" lon="6.45638">
        <ele>1350</ele>
        <time>2022-07-23T13:18:50Z</time>
      </trkpt>
      <trkpt lat="45.7361" lon="6.45639">
        <ele>1350</ele>
        <time>2022-07-23T13:18:51Z</time>
      </trkpt>
      <trkpt lat="45.7361" lon="6.45641">
        <ele>1350</ele>
        <time>2022-07-23T13:18:52Z</time>
      </trkpt>
      <trkpt lat="45.7361" lon="6.45642">
        <ele>1350</ele>
        <time>2022-07-23T13:18:53Z</time>
      </trkpt>
      <trkpt lat="45.73611" lon="6.45643">
        <ele>1350</ele>
        <time>2022-07-23T13:18:54Z</time>
      </trkpt>
      <trkpt lat="45.73611" lon="6.45644">
        <ele>1351</ele>
        <time>2022-07-23T13:18:55Z</time>
      </trkpt>
      <trkpt lat="45.73611" lon="6.45646">
        <ele>1351</ele>
        <time>2022-07-23T13:18:56Z</time>
      </trkpt>
      <trkpt lat="45.73612" lon="6.45647">
        <ele>1351</ele>
        <time>2022-07-23T13:18:57Z</time>
      </trkpt>
      <trkpt lat="45.73612" lon="6.45648">
        <ele>1351</ele>
        <time>2022-07-23T13:18:58Z</time>
      </trkpt>
      <trkpt lat="45.73612" lon="6.45649">
        <ele>1351</ele>
        <time>2022-07-23T13:18:59Z</time>
      </trkpt>
      <trkpt lat="45.73612" lon="6.45651">
        <ele>1351</ele>
        <time>2022-07-23T13:19:00Z</time>
      </trkpt>
      <trkpt lat="45.73612" lon="6.45652">
        <ele>1351</ele>
        <time>2022-07-23T13:19:01Z</time>
      </trkpt>
      <trkpt lat="45.73613" lon="6.45653">
        <ele>1351</ele>
        <time>2022-07-23T13:19:02Z</time>
      </trkpt>
      <trkpt lat="45.73613" lon="6.45654">
        <ele>1351</ele>
        <time>2022-07-23T13:19:03Z</time>
      </trkpt>
      <trkpt lat="45.73613" lon="6.45655">
        <ele>1351</ele>
        <time>2022-07-23T13:19:04Z</time>
      </trkpt>
      <trkpt lat="45.73613" lon="6.45656">
        <ele>1352</ele>
        <time>2022-07-23T13:19:05Z</time>
      </trkpt>
      <trkpt lat="45.73613" lon="6.45658">
        <ele>1352</ele>
        <time>2022-07-23T13:19:06Z</time>
      </trkpt>
      <trkpt lat="45.73613" lon="6.45659">
        <ele>1352</ele>
        <time>2022-07-23T13:19:07Z</time>
      </trkpt>
      <trkpt lat="45.73613" lon="6.4566">
        <ele>1352</ele>
        <time>2022-07-23T13:19:08Z</time>
      </trkpt>
      <trkpt lat="45.73613" lon="6.45661">
        <ele>1352</ele>
        <time>2022-07-23T13:19:09Z</time>
      </trkpt>
      <trkpt lat="45.73613" lon="6.45663">
        <ele>1352</ele>
        <time>2022-07-23T13:19:10Z</time>
      </trkpt>
      <trkpt lat="45.73613" lon="6.45664">
        <ele>1352</ele>
        <time>2022-07-23T13:19:11Z</time>
      </trkpt>
      <trkpt lat="45.73613" lon="6.45666">
        <ele>1352</ele>
        <time>2022-07-23T13:19:12Z</time>
      </trkpt>
      <trkpt lat="45.73613" lon="6.45667">
        <ele>1352</ele>
        <time>2022-07-23T13:19:13Z</time>
      </trkpt>
      <trkpt lat="45.73613" lon="6.45669">
        <ele>1352</ele>
        <time>2022-07-23T13:19:14Z</time>
      </trkpt>
      <trkpt lat="45.73613" lon="6.45671">
        <ele>1353</ele>
        <time>2022-07-23T13:19:15Z</time>
      </trkpt>
      <trkpt lat="45.73613" lon="6.45672">
        <ele>1353</ele>
        <time>2022-07-23T13:19:16Z</time>
      </trkpt>
      <trkpt lat="45.73613" lon="6.45674">
        <ele>1353</ele>
        <time>2022-07-23T13:19:17Z</time>
      </trkpt>
      <trkpt lat="45.73613" lon="6.45675">
        <ele>1353</ele>
        <time>2022-07-23T13:19:18Z</time>
      </trkpt>
      <trkpt lat="45.73613" lon="6.45677">
        <ele>1353</ele>
        <time>2022-07-23T13:19:19Z</time>
      </trkpt>
      <trkpt lat="45.73613" lon="6.45679">
        <ele>1353</ele>
        <time>2022-07-23T13:19:20Z</time>
      </trkpt>
      <trkpt lat="45.73613" lon="6.4568">
        <ele>1353</ele>
        <time>2022-07-23T13:19:21Z</time>
      </trkpt>
      <trkpt lat="45.73613" lon="6.45682">
        <ele>1353</ele>
        <time>2022-07-23T13:19:22Z</time>
      </trkpt>
      <trkpt lat="45.73612" lon="6.45683">
        <ele>1353</ele>
        <time>2022-07-23T13:19:23Z</time>
      </trkpt>
      <trkpt lat="45.73612" lon="6.45684">
        <ele>1353</ele>
        <time>2022-07-23T13:19:24Z</time>
      </trkpt>
      <trkpt lat="45.73612" lon="6.45685">
        <ele>1354</ele>
        <time>2022-07-23T13:19:25Z</time>
      </trkpt>
      <trkpt lat="45.73612" lon="6.45686">
        <ele>1354</ele>
        <time>2022-07-23T13:19:26Z</time>
      </trkpt>
      <trkpt lat="45.73612" lon="6.45687">
        <ele>1354</ele>
        <time>2022-07-23T13:19:27Z</time>
      </trkpt>
      <trkpt lat="45.73612" lon="6.45688">
        <ele>1354</ele>
        <time>2022-07-23T13:19:28Z</time>
      </trkpt>
      <trkpt lat="45.73612" lon="6.45688">
        <ele>1354</ele>
        <time>2022-07-23T13:19:29Z</time>
      </trkpt>
      <trkpt lat="45.73612" lon="6.4569">
        <ele>1354</ele>
        <time>2022-07-23T13:19:30Z</time>
      </trkpt>
      <trkpt lat="45.73612" lon="6.45691">
        <ele>1354</ele>
        <time>2022-07-23T13:19:31Z</time>
      </trkpt>
      <trkpt lat="45.73612" lon="6.45692">
        <ele>1354</ele>
        <time>2022-07-23T13:19:32Z</time>
      </trkpt>
      <trkpt lat="45.73612" lon="6.45694">
        <ele>1354</ele>
        <time>2022-07-23T13:19:33Z</time>
      </trkpt>
      <trkpt lat="45.73612" lon="6.45695">
        <ele>1354</ele>
        <time>2022-07-23T13:19:34Z</time>
      </trkpt>
      <trkpt lat="45.73612" lon="6.45697">
        <ele>1355</ele>
        <time>2022-07-23T13:19:35Z</time>
      </trkpt>
      <trkpt lat="45.73613" lon="6.45698">
        <ele>1355</ele>
        <time>2022-07-23T13:19:36Z</time>
      </trkpt>
      <trkpt lat="45.73613" lon="6.45699">
        <ele>1355</ele>
        <time>2022-07-23T13:19:37Z</time>
      </trkpt>
      <trkpt lat="45.73613" lon="6.45701">
        <ele>1355</ele>
        <time>2022-07-23T13:19:38Z</time>
      </trkpt>
      <trkpt lat="45.73613" lon="6.45702">
        <ele>1355</ele>
        <time>2022-07-23T13:19:39Z</time>
      </trkpt>
      <trkpt lat="45.73613" lon="6.45703">
        <ele>1355</ele>
        <time>2022-07-23T13:19:40Z</time>
      </trkpt>
      <trkpt lat="45.73613" lon="6.45704">
        <ele>1355</ele>
        <time>2022-07-23T13:19:41Z</time>
      </trkpt>
      <trkpt lat="45.73614" lon="6.45706">
        <ele>1355</ele>
        <time>2022-07-23T13:19:42Z</time>
      </trkpt>
      <trkpt lat="45.73614" lon="6.45707">
        <ele>1355</ele>
        <time>2022-07-23T13:19:43Z</time>
      </trkpt>
      <trkpt lat="45.73614" lon="6.45708">
        <ele>1355</ele>
        <time>2022-07-23T13:19:44Z</time>
      </trkpt>
      <trkpt lat="45.73614" lon="6.4571">
        <ele>1356</ele>
        <time>2022-07-23T13:19:45Z</time>
      </trkpt>
      <trkpt lat="45.73614" lon="6.45711">
        <ele>1356</ele>
        <time>2022-07-23T13:19:46Z</time>
      </trkpt>
      <trkpt lat="45.73614" lon="6.45713">
        <ele>1356</ele>
        <time>2022-07-23T13:19:47Z</time>
      </trkpt>
      <trkpt lat="45.73615" lon="6.45714">
        <ele>1356</ele>
        <time>2022-07-23T13:19:48Z</time>
      </trkpt>
      <trkpt lat="45.73615" lon="6.45715">
        <ele>1356</ele>
        <time>2022-07-23T13:19:49Z</time>
      </trkpt>
      <trkpt lat="45.73615" lon="6.45716">
        <ele>1356</ele>
        <time>2022-07-23T13:19:50Z</time>
      </trkpt>
      <trkpt lat="45.73615" lon="6.45717">
        <ele>1356</ele>
        <time>2022-07-23T13:19:51Z</time>
      </trkpt>
      <trkpt lat="45.73615" lon="6.45718">
        <ele>1356</ele>
        <time>2022-07-23T13:19:52Z</time>
      </trkpt>
      <trkpt lat="45.73615" lon="6.45719">
        <ele>1356</ele>
        <time>2022-07-23T13:19:53Z</time>
      </trkpt>
      <trkpt lat="45.73616" lon="6.45719">
        <ele>1356</ele>
        <time>2022-07-23T13:19:54Z</time>
      </trkpt>
      <trkpt lat="45.73616" lon="6.4572">
        <ele>1357</ele>
        <time>2022-07-23T13:19:55Z</time>
      </trkpt>
      <trkpt lat="45.73616" lon="6.45721">
        <ele>1357</ele>
        <time>2022-07-23T13:19:56Z</time>
      </trkpt>
      <trkpt lat="45.73617" lon="6.45722">
        <ele>1357</ele>
        <time>2022-07-23T13:19:57Z</time>
      </trkpt>
      <trkpt lat="45.73617" lon="6.45723">
        <ele>1357</ele>
        <time>2022-07-23T13:19:58Z</time>
      </trkpt>
      <trkpt lat="45.73617" lon="6.45723">
        <ele>1357</ele>
        <time>2022-07-23T13:19:59Z</time>
      </trkpt>
      <trkpt lat="45.73618" lon="6.45724">
        <ele>1358</ele>
        <time>2022-07-23T13:20:00Z</time>
      </trkpt>
      <trkpt lat="45.73618" lon="6.45725">
        <ele>1358</ele>
        <time>2022-07-23T13:20:01Z</time>
      </trkpt>
      <trkpt lat="45.73618" lon="6.45726">
        <ele>1358</ele>
        <time>2022-07-23T13:20:02Z</time>
      </trkpt>
      <trkpt lat="45.73618" lon="6.45727">
        <ele>1358</ele>
        <time>2022-07-23T13:20:03Z</time>
      </trkpt>
      <trkpt lat="45.73618" lon="6.45728">
        <ele>1358</ele>
        <time>2022-07-23T13:20:04Z</time>
      </trkpt>
      <trkpt lat="45.73618" lon="6.45728">
        <ele>1358</ele>
        <time>2022-07-23T13:20:05Z</time>
      </trkpt>
      <trkpt lat="45.73618" lon="6.45729">
        <ele>1358</ele>
        <time>2022-07-23T13:20:06Z</time>
      </trkpt>
      <trkpt lat="45.73619" lon="6.4573">
        <ele>1358</ele>
        <time>2022-07-23T13:20:07Z</time>
      </trkpt>
      <trkpt lat="45.73619" lon="6.45732">
        <ele>1358</ele>
        <time>2022-07-23T13:20:08Z</time>
      </trkpt>
      <trkpt lat="45.73619" lon="6.45733">
        <ele>1358</ele>
        <time>2022-07-23T13:20:09Z</time>
      </trkpt>
      <trkpt lat="45.7362" lon="6.45734">
        <ele>1359</ele>
        <time>2022-07-23T13:20:10Z</time>
      </trkpt>
      <trkpt lat="45.7362" lon="6.45735">
        <ele>1359</ele>
        <time>2022-07-23T13:20:11Z</time>
      </trkpt>
      <trkpt lat="45.73622" lon="6.45738">
        <ele>1361</ele>
        <time>2022-07-23T13:21:48Z</time>
      </trkpt>
      <trkpt lat="45.73622" lon="6.45739">
        <ele>1361</ele>
        <time>2022-07-23T13:21:49Z</time>
      </trkpt>
      <trkpt lat="45.73622" lon="6.45741">
        <ele>1361</ele>
        <time>2022-07-23T13:21:50Z</time>
      </trkpt>
      <trkpt lat="45.73622" lon="6.45741">
        <ele>1361</ele>
        <time>2022-07-23T13:21:51Z</time>
      </trkpt>
      <trkpt lat="45.73622" lon="6.45742">
        <ele>1361</ele>
        <time>2022-07-23T13:21:52Z</time>
      </trkpt>
      <trkpt lat="45.73621" lon="6.45742">
        <ele>1361</ele>
        <time>2022-07-23T13:21:53Z</time>
      </trkpt>
      <trkpt lat="45.73621" lon="6.45743">
        <ele>1361</ele>
        <time>2022-07-23T13:21:54Z</time>
      </trkpt>
      <trkpt lat="45.73621" lon="6.45743">
        <ele>1361</ele>
        <time>2022-07-23T13:21:55Z</time>
      </trkpt>
      <trkpt lat="45.7362" lon="6.45743">
        <ele>1361</ele>
        <time>2022-07-23T13:21:56Z</time>
      </trkpt>
      <trkpt lat="45.73619" lon="6.45744">
        <ele>1361</ele>
        <time>2022-07-23T13:21:57Z</time>
      </trkpt>
      <trkpt lat="45.73619" lon="6.45744">
        <ele>1361</ele>
        <time>2022-07-23T13:21:58Z</time>
      </trkpt>
      <trkpt lat="45.73618" lon="6.45745">
        <ele>1361</ele>
        <time>2022-07-23T13:21:59Z</time>
      </trkpt>
      <trkpt lat="45.73617" lon="6.45745">
        <ele>1361</ele>
        <time>2022-07-23T13:22:00Z</time>
      </trkpt>
      <trkpt lat="45.73617" lon="6.45746">
        <ele>1361</ele>
        <time>2022-07-23T13:22:01Z</time>
      </trkpt>
      <trkpt lat="45.73615" lon="6.45748">
        <ele>1361</ele>
        <time>2022-07-23T13:23:07Z</time>
      </trkpt>
      <trkpt lat="45.73615" lon="6.45749">
        <ele>1361</ele>
        <time>2022-07-23T13:23:08Z</time>
      </trkpt>
      <trkpt lat="45.73614" lon="6.4575">
        <ele>1361</ele>
        <time>2022-07-23T13:23:09Z</time>
      </trkpt>
      <trkpt lat="45.73614" lon="6.45751">
        <ele>1361</ele>
        <time>2022-07-23T13:23:10Z</time>
      </trkpt>
      <trkpt lat="45.73613" lon="6.45752">
        <ele>1361</ele>
        <time>2022-07-23T13:23:11Z</time>
      </trkpt>
      <trkpt lat="45.73613" lon="6.45753">
        <ele>1361</ele>
        <time>2022-07-23T13:23:12Z</time>
      </trkpt>
      <trkpt lat="45.73613" lon="6.45755">
        <ele>1361</ele>
        <time>2022-07-23T13:23:13Z</time>
      </trkpt>
      <trkpt lat="45.73613" lon="6.45756">
        <ele>1361</ele>
        <time>2022-07-23T13:23:14Z</time>
      </trkpt>
      <trkpt lat="45.73612" lon="6.45757">
        <ele>1361</ele>
        <time>2022-07-23T13:23:15Z</time>
      </trkpt>
      <trkpt lat="45.73612" lon="6.45758">
        <ele>1361</ele>
        <time>2022-07-23T13:23:16Z</time>
      </trkpt>
      <trkpt lat="45.73612" lon="6.45759">
        <ele>1361</ele>
        <time>2022-07-23T13:23:17Z</time>
      </trkpt>
      <trkpt lat="45.73612" lon="6.4576">
        <ele>1361</ele>
        <time>2022-07-23T13:23:18Z</time>
      </trkpt>
      <trkpt lat="45.73612" lon="6.45762">
        <ele>1361</ele>
        <time>2022-07-23T13:23:19Z</time>
      </trkpt>
      <trkpt lat="45.73612" lon="6.45763">
        <ele>1361</ele>
        <time>2022-07-23T13:23:20Z</time>
      </trkpt>
      <trkpt lat="45.73612" lon="6.45764">
        <ele>1361</ele>
        <time>2022-07-23T13:23:21Z</time>
      </trkpt>
      <trkpt lat="45.73612" lon="6.45765">
        <ele>1361</ele>
        <time>2022-07-23T13:23:22Z</time>
      </trkpt>
      <trkpt lat="45.73612" lon="6.45766">
        <ele>1361</ele>
        <time>2022-07-23T13:23:23Z</time>
      </trkpt>
      <trkpt lat="45.73612" lon="6.45767">
        <ele>1361</ele>
        <time>2022-07-23T13:23:24Z</time>
      </trkpt>
      <trkpt lat="45.73612" lon="6.45768">
        <ele>1361</ele>
        <time>2022-07-23T13:23:25Z</time>
      </trkpt>
      <trkpt lat="45.73612" lon="6.4577">
        <ele>1361</ele>
        <time>2022-07-23T13:23:26Z</time>
      </trkpt>
      <trkpt lat="45.73612" lon="6.45771">
        <ele>1361</ele>
        <time>2022-07-23T13:23:27Z</time>
      </trkpt>
      <trkpt lat="45.73612" lon="6.45772">
        <ele>1361</ele>
        <time>2022-07-23T13:23:28Z</time>
      </trkpt>
      <trkpt lat="45.73612" lon="6.45773">
        <ele>1361</ele>
        <time>2022-07-23T13:23:29Z</time>
      </trkpt>
      <trkpt lat="45.73612" lon="6.45774">
        <ele>1361</ele>
        <time>2022-07-23T13:23:30Z</time>
      </trkpt>
      <trkpt lat="45.73612" lon="6.45775">
        <ele>1361</ele>
        <time>2022-07-23T13:23:31Z</time>
      </trkpt>
      <trkpt lat="45.73612" lon="6.45776">
        <ele>1361</ele>
        <time>2022-07-23T13:23:32Z</time>
      </trkpt>
      <trkpt lat="45.73612" lon="6.45777">
        <ele>1361</ele>
        <time>2022-07-23T13:23:33Z</time>
      </trkpt>
      <trkpt lat="45.73612" lon="6.45778">
        <ele>1361</ele>
        <time>2022-07-23T13:23:34Z</time>
      </trkpt>
      <trkpt lat="45.73612" lon="6.45779">
        <ele>1361</ele>
        <time>2022-07-23T13:23:35Z</time>
      </trkpt>
      <trkpt lat="45.73612" lon="6.4578">
        <ele>1361</ele>
        <time>2022-07-23T13:23:36Z</time>
      </trkpt>
      <trkpt lat="45.73612" lon="6.45782">
        <ele>1361</ele>
        <time>2022-07-23T13:23:37Z</time>
      </trkpt>
      <trkpt lat="45.73612" lon="6.45783">
        <ele>1361</ele>
        <time>2022-07-23T13:23:38Z</time>
      </trkpt>
      <trkpt lat="45.73612" lon="6.45785">
        <ele>1361</ele>
        <time>2022-07-23T13:23:39Z</time>
      </trkpt>
      <trkpt lat="45.73612" lon="6.45786">
        <ele>1362</ele>
        <time>2022-07-23T13:23:40Z</time>
      </trkpt>
      <trkpt lat="45.73612" lon="6.45788">
        <ele>1362</ele>
        <time>2022-07-23T13:23:41Z</time>
      </trkpt>
      <trkpt lat="45.73612" lon="6.45789">
        <ele>1362</ele>
        <time>2022-07-23T13:23:42Z</time>
      </trkpt>
      <trkpt lat="45.73612" lon="6.4579">
        <ele>1362</ele>
        <time>2022-07-23T13:23:43Z</time>
      </trkpt>
      <trkpt lat="45.73612" lon="6.45792">
        <ele>1362</ele>
        <time>2022-07-23T13:23:44Z</time>
      </trkpt>
      <trkpt lat="45.73612" lon="6.45793">
        <ele>1362</ele>
        <time>2022-07-23T13:23:45Z</time>
      </trkpt>
      <trkpt lat="45.73612" lon="6.45794">
        <ele>1362</ele>
        <time>2022-07-23T13:23:46Z</time>
      </trkpt>
      <trkpt lat="45.73612" lon="6.45796">
        <ele>1362</ele>
        <time>2022-07-23T13:23:47Z</time>
      </trkpt>
      <trkpt lat="45.73611" lon="6.45797">
        <ele>1362</ele>
        <time>2022-07-23T13:23:48Z</time>
      </trkpt>
      <trkpt lat="45.73611" lon="6.45799">
        <ele>1362</ele>
        <time>2022-07-23T13:23:49Z</time>
      </trkpt>
      <trkpt lat="45.73611" lon="6.458">
        <ele>1363</ele>
        <time>2022-07-23T13:23:50Z</time>
      </trkpt>
      <trkpt lat="45.73611" lon="6.45801">
        <ele>1363</ele>
        <time>2022-07-23T13:23:51Z</time>
      </trkpt>
      <trkpt lat="45.73611" lon="6.45802">
        <ele>1363</ele>
        <time>2022-07-23T13:23:52Z</time>
      </trkpt>
      <trkpt lat="45.73612" lon="6.45804">
        <ele>1363</ele>
        <time>2022-07-23T13:23:53Z</time>
      </trkpt>
      <trkpt lat="45.73612" lon="6.45805">
        <ele>1363</ele>
        <time>2022-07-23T13:23:54Z</time>
      </trkpt>
      <trkpt lat="45.73612" lon="6.45806">
        <ele>1363</ele>
        <time>2022-07-23T13:23:55Z</time>
      </trkpt>
      <trkpt lat="45.73612" lon="6.45807">
        <ele>1363</ele>
        <time>2022-07-23T13:23:56Z</time>
      </trkpt>
      <trkpt lat="45.73612" lon="6.45808">
        <ele>1363</ele>
        <time>2022-07-23T13:23:57Z</time>
      </trkpt>
      <trkpt lat="45.73612" lon="6.45809">
        <ele>1363</ele>
        <time>2022-07-23T13:23:58Z</time>
      </trkpt>
      <trkpt lat="45.73612" lon="6.45811">
        <ele>1363</ele>
        <time>2022-07-23T13:23:59Z</time>
      </trkpt>
      <trkpt lat="45.73612" lon="6.45812">
        <ele>1364</ele>
        <time>2022-07-23T13:24:00Z</time>
      </trkpt>
      <trkpt lat="45.73612" lon="6.45814">
        <ele>1364</ele>
        <time>2022-07-23T13:24:01Z</time>
      </trkpt>
      <trkpt lat="45.73612" lon="6.45815">
        <ele>1364</ele>
        <time>2022-07-23T13:24:02Z</time>
      </trkpt>
      <trkpt lat="45.73612" lon="6.45817">
        <ele>1364</ele>
        <time>2022-07-23T13:24:03Z</time>
      </trkpt>
      <trkpt lat="45.73612" lon="6.45818">
        <ele>1364</ele>
        <time>2022-07-23T13:24:04Z</time>
      </trkpt>
      <trkpt lat="45.73612" lon="6.4582">
        <ele>1364</ele>
        <time>2022-07-23T13:24:05Z</time>
      </trkpt>
      <trkpt lat="45.73612" lon="6.45821">
        <ele>1364</ele>
        <time>2022-07-23T13:24:06Z</time>
      </trkpt>
      <trkpt lat="45.73612" lon="6.45823">
        <ele>1364</ele>
        <time>2022-07-23T13:24:07Z</time>
      </trkpt>
      <trkpt lat="45.73612" lon="6.45824">
        <ele>1364</ele>
        <time>2022-07-23T13:24:08Z</time>
      </trkpt>
      <trkpt lat="45.73611" lon="6.45825">
        <ele>1364</ele>
        <time>2022-07-23T13:24:09Z</time>
      </trkpt>
      <trkpt lat="45.73611" lon="6.45827">
        <ele>1364</ele>
        <time>2022-07-23T13:24:10Z</time>
      </trkpt>
      <trkpt lat="45.73611" lon="6.45828">
        <ele>1364</ele>
        <time>2022-07-23T13:24:11Z</time>
      </trkpt>
      <trkpt lat="45.73611" lon="6.45829">
        <ele>1364</ele>
        <time>2022-07-23T13:24:12Z</time>
      </trkpt>
      <trkpt lat="45.73611" lon="6.4583">
        <ele>1364</ele>
        <time>2022-07-23T13:24:13Z</time>
      </trkpt>
      <trkpt lat="45.73611" lon="6.45832">
        <ele>1364</ele>
        <time>2022-07-23T13:24:14Z</time>
      </trkpt>
      <trkpt lat="45.73612" lon="6.45833">
        <ele>1365</ele>
        <time>2022-07-23T13:24:15Z</time>
      </trkpt>
      <trkpt lat="45.73612" lon="6.45834">
        <ele>1365</ele>
        <time>2022-07-23T13:24:16Z</time>
      </trkpt>
      <trkpt lat="45.73611" lon="6.45835">
        <ele>1365</ele>
        <time>2022-07-23T13:24:17Z</time>
      </trkpt>
      <trkpt lat="45.73611" lon="6.45837">
        <ele>1365</ele>
        <time>2022-07-23T13:24:18Z</time>
      </trkpt>
      <trkpt lat="45.73611" lon="6.45838">
        <ele>1365</ele>
        <time>2022-07-23T13:24:19Z</time>
      </trkpt>
      <trkpt lat="45.73611" lon="6.45839">
        <ele>1366</ele>
        <time>2022-07-23T13:24:20Z</time>
      </trkpt>
      <trkpt lat="45.73611" lon="6.45841">
        <ele>1366</ele>
        <time>2022-07-23T13:24:21Z</time>
      </trkpt>
      <trkpt lat="45.73611" lon="6.45842">
        <ele>1366</ele>
        <time>2022-07-23T13:24:22Z</time>
      </trkpt>
      <trkpt lat="45.73611" lon="6.45843">
        <ele>1366</ele>
        <time>2022-07-23T13:24:23Z</time>
      </trkpt>
      <trkpt lat="45.73611" lon="6.45845">
        <ele>1366</ele>
        <time>2022-07-23T13:24:24Z</time>
      </trkpt>
      <trkpt lat="45.73611" lon="6.45846">
        <ele>1366</ele>
        <time>2022-07-23T13:24:25Z</time>
      </trkpt>
      <trkpt lat="45.7361" lon="6.45847">
        <ele>1366</ele>
        <time>2022-07-23T13:24:26Z</time>
      </trkpt>
      <trkpt lat="45.7361" lon="6.45848">
        <ele>1366</ele>
        <time>2022-07-23T13:24:27Z</time>
      </trkpt>
      <trkpt lat="45.7361" lon="6.4585">
        <ele>1367</ele>
        <time>2022-07-23T13:24:28Z</time>
      </trkpt>
      <trkpt lat="45.7361" lon="6.45851">
        <ele>1367</ele>
        <time>2022-07-23T13:24:29Z</time>
      </trkpt>
      <trkpt lat="45.7361" lon="6.45852">
        <ele>1368</ele>
        <time>2022-07-23T13:24:30Z</time>
      </trkpt>
      <trkpt lat="45.7361" lon="6.45853">
        <ele>1368</ele>
        <time>2022-07-23T13:24:31Z</time>
      </trkpt>
      <trkpt lat="45.7361" lon="6.45854">
        <ele>1368</ele>
        <time>2022-07-23T13:24:32Z</time>
      </trkpt>
      <trkpt lat="45.7361" lon="6.45855">
        <ele>1368</ele>
        <time>2022-07-23T13:24:33Z</time>
      </trkpt>
      <trkpt lat="45.7361" lon="6.45856">
        <ele>1368</ele>
        <time>2022-07-23T13:24:34Z</time>
      </trkpt>
      <trkpt lat="45.7361" lon="6.45858">
        <ele>1368</ele>
        <time>2022-07-23T13:24:35Z</time>
      </trkpt>
      <trkpt lat="45.7361" lon="6.45859">
        <ele>1368</ele>
        <time>2022-07-23T13:24:36Z</time>
      </trkpt>
      <trkpt lat="45.7361" lon="6.4586">
        <ele>1368</ele>
        <time>2022-07-23T13:24:37Z</time>
      </trkpt>
      <trkpt lat="45.7361" lon="6.45862">
        <ele>1368</ele>
        <time>2022-07-23T13:24:38Z</time>
      </trkpt>
      <trkpt lat="45.7361" lon="6.45863">
        <ele>1368</ele>
        <time>2022-07-23T13:24:39Z</time>
      </trkpt>
      <trkpt lat="45.7361" lon="6.45865">
        <ele>1369</ele>
        <time>2022-07-23T13:24:40Z</time>
      </trkpt>
      <trkpt lat="45.7361" lon="6.45866">
        <ele>1369</ele>
        <time>2022-07-23T13:24:41Z</time>
      </trkpt>
      <trkpt lat="45.7361" lon="6.45868">
        <ele>1369</ele>
        <time>2022-07-23T13:24:42Z</time>
      </trkpt>
      <trkpt lat="45.73611" lon="6.45869">
        <ele>1369</ele>
        <time>2022-07-23T13:24:43Z</time>
      </trkpt>
      <trkpt lat="45.73611" lon="6.4587">
        <ele>1369</ele>
        <time>2022-07-23T13:24:44Z</time>
      </trkpt>
      <trkpt lat="45.73611" lon="6.45871">
        <ele>1369</ele>
        <time>2022-07-23T13:24:45Z</time>
      </trkpt>
      <trkpt lat="45.73611" lon="6.45872">
        <ele>1369</ele>
        <time>2022-07-23T13:24:46Z</time>
      </trkpt>
      <trkpt lat="45.73611" lon="6.45874">
        <ele>1369</ele>
        <time>2022-07-23T13:24:47Z</time>
      </trkpt>
      <trkpt lat="45.73611" lon="6.45875">
        <ele>1369</ele>
        <time>2022-07-23T13:24:48Z</time>
      </trkpt>
      <trkpt lat="45.73612" lon="6.45876">
        <ele>1369</ele>
        <time>2022-07-23T13:24:49Z</time>
      </trkpt>
      <trkpt lat="45.73612" lon="6.45877">
        <ele>1370</ele>
        <time>2022-07-23T13:24:50Z</time>
      </trkpt>
      <trkpt lat="45.73612" lon="6.45878">
        <ele>1370</ele>
        <time>2022-07-23T13:24:51Z</time>
      </trkpt>
      <trkpt lat="45.73613" lon="6.45879">
        <ele>1370</ele>
        <time>2022-07-23T13:24:52Z</time>
      </trkpt>
      <trkpt lat="45.73613" lon="6.45881">
        <ele>1370</ele>
        <time>2022-07-23T13:24:53Z</time>
      </trkpt>
      <trkpt lat="45.73613" lon="6.45882">
        <ele>1370</ele>
        <time>2022-07-23T13:24:54Z</time>
      </trkpt>
      <trkpt lat="45.73613" lon="6.45883">
        <ele>1370</ele>
        <time>2022-07-23T13:24:55Z</time>
      </trkpt>
      <trkpt lat="45.73613" lon="6.45884">
        <ele>1370</ele>
        <time>2022-07-23T13:24:56Z</time>
      </trkpt>
      <trkpt lat="45.73613" lon="6.45886">
        <ele>1370</ele>
        <time>2022-07-23T13:24:57Z</time>
      </trkpt>
      <trkpt lat="45.73613" lon="6.45887">
        <ele>1370</ele>
        <time>2022-07-23T13:24:58Z</time>
      </trkpt>
      <trkpt lat="45.73613" lon="6.45888">
        <ele>1370</ele>
        <time>2022-07-23T13:24:59Z</time>
      </trkpt>
      <trkpt lat="45.73613" lon="6.45889">
        <ele>1371</ele>
        <time>2022-07-23T13:25:00Z</time>
      </trkpt>
      <trkpt lat="45.73614" lon="6.4589">
        <ele>1371</ele>
        <time>2022-07-23T13:25:01Z</time>
      </trkpt>
      <trkpt lat="45.73614" lon="6.45891">
        <ele>1371</ele>
        <time>2022-07-23T13:25:02Z</time>
      </trkpt>
      <trkpt lat="45.73614" lon="6.45891">
        <ele>1371</ele>
        <time>2022-07-23T13:25:03Z</time>
      </trkpt>
      <trkpt lat="45.73614" lon="6.45892">
        <ele>1371</ele>
        <time>2022-07-23T13:25:04Z</time>
      </trkpt>
      <trkpt lat="45.73614" lon="6.45893">
        <ele>1372</ele>
        <time>2022-07-23T13:25:05Z</time>
      </trkpt>
      <trkpt lat="45.73615" lon="6.45894">
        <ele>1372</ele>
        <time>2022-07-23T13:25:06Z</time>
      </trkpt>
      <trkpt lat="45.73615" lon="6.45895">
        <ele>1372</ele>
        <time>2022-07-23T13:25:07Z</time>
      </trkpt>
      <trkpt lat="45.73615" lon="6.45896">
        <ele>1372</ele>
        <time>2022-07-23T13:25:08Z</time>
      </trkpt>
      <trkpt lat="45.73616" lon="6.45896">
        <ele>1372</ele>
        <time>2022-07-23T13:25:09Z</time>
      </trkpt>
      <trkpt lat="45.73616" lon="6.45897">
        <ele>1372</ele>
        <time>2022-07-23T13:25:10Z</time>
      </trkpt>
      <trkpt lat="45.73617" lon="6.45898">
        <ele>1372</ele>
        <time>2022-07-23T13:25:11Z</time>
      </trkpt>
      <trkpt lat="45.73617" lon="6.45899">
        <ele>1372</ele>
        <time>2022-07-23T13:25:12Z</time>
      </trkpt>
      <trkpt lat="45.73618" lon="6.459">
        <ele>1372</ele>
        <time>2022-07-23T13:25:13Z</time>
      </trkpt>
      <trkpt lat="45.73618" lon="6.45901">
        <ele>1372</ele>
        <time>2022-07-23T13:25:14Z</time>
      </trkpt>
      <trkpt lat="45.73619" lon="6.45902">
        <ele>1373</ele>
        <time>2022-07-23T13:25:15Z</time>
      </trkpt>
      <trkpt lat="45.73619" lon="6.45903">
        <ele>1373</ele>
        <time>2022-07-23T13:25:16Z</time>
      </trkpt>
      <trkpt lat="45.7362" lon="6.45904">
        <ele>1373</ele>
        <time>2022-07-23T13:25:17Z</time>
      </trkpt>
      <trkpt lat="45.7362" lon="6.45905">
        <ele>1373</ele>
        <time>2022-07-23T13:25:18Z</time>
      </trkpt>
      <trkpt lat="45.73621" lon="6.45907">
        <ele>1373</ele>
        <time>2022-07-23T13:25:19Z</time>
      </trkpt>
      <trkpt lat="45.73621" lon="6.45908">
        <ele>1373</ele>
        <time>2022-07-23T13:25:20Z</time>
      </trkpt>
      <trkpt lat="45.73622" lon="6.45909">
        <ele>1373</ele>
        <time>2022-07-23T13:25:21Z</time>
      </trkpt>
      <trkpt lat="45.73622" lon="6.4591">
        <ele>1373</ele>
        <time>2022-07-23T13:25:22Z</time>
      </trkpt>
      <trkpt lat="45.73622" lon="6.45911">
        <ele>1373</ele>
        <time>2022-07-23T13:25:23Z</time>
      </trkpt>
      <trkpt lat="45.73622" lon="6.45912">
        <ele>1373</ele>
        <time>2022-07-23T13:25:24Z</time>
      </trkpt>
      <trkpt lat="45.73623" lon="6.45913">
        <ele>1374</ele>
        <time>2022-07-23T13:25:25Z</time>
      </trkpt>
      <trkpt lat="45.73623" lon="6.45914">
        <ele>1374</ele>
        <time>2022-07-23T13:25:26Z</time>
      </trkpt>
      <trkpt lat="45.73623" lon="6.45916">
        <ele>1374</ele>
        <time>2022-07-23T13:25:27Z</time>
      </trkpt>
      <trkpt lat="45.73623" lon="6.45917">
        <ele>1374</ele>
        <time>2022-07-23T13:25:28Z</time>
      </trkpt>
      <trkpt lat="45.73623" lon="6.45918">
        <ele>1374</ele>
        <time>2022-07-23T13:25:29Z</time>
      </trkpt>
      <trkpt lat="45.73623" lon="6.4592">
        <ele>1375</ele>
        <time>2022-07-23T13:25:30Z</time>
      </trkpt>
      <trkpt lat="45.73623" lon="6.45921">
        <ele>1375</ele>
        <time>2022-07-23T13:25:31Z</time>
      </trkpt>
      <trkpt lat="45.73623" lon="6.45922">
        <ele>1375</ele>
        <time>2022-07-23T13:25:32Z</time>
      </trkpt>
      <trkpt lat="45.73623" lon="6.45924">
        <ele>1375</ele>
        <time>2022-07-23T13:25:33Z</time>
      </trkpt>
      <trkpt lat="45.73623" lon="6.45925">
        <ele>1375</ele>
        <time>2022-07-23T13:25:34Z</time>
      </trkpt>
      <trkpt lat="45.73623" lon="6.45926">
        <ele>1375</ele>
        <time>2022-07-23T13:25:35Z</time>
      </trkpt>
      <trkpt lat="45.73623" lon="6.45927">
        <ele>1375</ele>
        <time>2022-07-23T13:25:36Z</time>
      </trkpt>
      <trkpt lat="45.73623" lon="6.45928">
        <ele>1375</ele>
        <time>2022-07-23T13:25:37Z</time>
      </trkpt>
      <trkpt lat="45.73623" lon="6.45929">
        <ele>1375</ele>
        <time>2022-07-23T13:25:38Z</time>
      </trkpt>
      <trkpt lat="45.73624" lon="6.45931">
        <ele>1376</ele>
        <time>2022-07-23T13:25:47Z</time>
      </trkpt>
      <trkpt lat="45.73625" lon="6.45932">
        <ele>1376</ele>
        <time>2022-07-23T13:25:48Z</time>
      </trkpt>
      <trkpt lat="45.73625" lon="6.45932">
        <ele>1376</ele>
        <time>2022-07-23T13:25:49Z</time>
      </trkpt>
      <trkpt lat="45.73626" lon="6.45933">
        <ele>1377</ele>
        <time>2022-07-23T13:25:50Z</time>
      </trkpt>
      <trkpt lat="45.73626" lon="6.45933">
        <ele>1377</ele>
        <time>2022-07-23T13:25:51Z</time>
      </trkpt>
      <trkpt lat="45.73627" lon="6.45934">
        <ele>1377</ele>
        <time>2022-07-23T13:25:52Z</time>
      </trkpt>
      <trkpt lat="45.73627" lon="6.45935">
        <ele>1377</ele>
        <time>2022-07-23T13:25:53Z</time>
      </trkpt>
      <trkpt lat="45.73628" lon="6.45936">
        <ele>1377</ele>
        <time>2022-07-23T13:25:54Z</time>
      </trkpt>
      <trkpt lat="45.73628" lon="6.45937">
        <ele>1377</ele>
        <time>2022-07-23T13:25:55Z</time>
      </trkpt>
      <trkpt lat="45.73628" lon="6.45938">
        <ele>1377</ele>
        <time>2022-07-23T13:25:56Z</time>
      </trkpt>
      <trkpt lat="45.73629" lon="6.45939">
        <ele>1377</ele>
        <time>2022-07-23T13:25:57Z</time>
      </trkpt>
      <trkpt lat="45.73629" lon="6.4594">
        <ele>1377</ele>
        <time>2022-07-23T13:25:58Z</time>
      </trkpt>
      <trkpt lat="45.73629" lon="6.45941">
        <ele>1377</ele>
        <time>2022-07-23T13:25:59Z</time>
      </trkpt>
      <trkpt lat="45.7363" lon="6.45942">
        <ele>1378</ele>
        <time>2022-07-23T13:26:00Z</time>
      </trkpt>
      <trkpt lat="45.7363" lon="6.45943">
        <ele>1378</ele>
        <time>2022-07-23T13:26:01Z</time>
      </trkpt>
      <trkpt lat="45.7363" lon="6.45944">
        <ele>1378</ele>
        <time>2022-07-23T13:26:02Z</time>
      </trkpt>
      <trkpt lat="45.73631" lon="6.45945">
        <ele>1378</ele>
        <time>2022-07-23T13:26:03Z</time>
      </trkpt>
      <trkpt lat="45.73631" lon="6.45946">
        <ele>1378</ele>
        <time>2022-07-23T13:26:04Z</time>
      </trkpt>
      <trkpt lat="45.73631" lon="6.45947">
        <ele>1378</ele>
        <time>2022-07-23T13:26:05Z</time>
      </trkpt>
      <trkpt lat="45.73632" lon="6.45948">
        <ele>1378</ele>
        <time>2022-07-23T13:26:06Z</time>
      </trkpt>
      <trkpt lat="45.73632" lon="6.45949">
        <ele>1378</ele>
        <time>2022-07-23T13:26:07Z</time>
      </trkpt>
      <trkpt lat="45.73632" lon="6.45951">
        <ele>1378</ele>
        <time>2022-07-23T13:26:08Z</time>
      </trkpt>
      <trkpt lat="45.73632" lon="6.45952">
        <ele>1378</ele>
        <time>2022-07-23T13:26:09Z</time>
      </trkpt>
      <trkpt lat="45.73632" lon="6.45953">
        <ele>1379</ele>
        <time>2022-07-23T13:26:10Z</time>
      </trkpt>
      <trkpt lat="45.73633" lon="6.45954">
        <ele>1379</ele>
        <time>2022-07-23T13:26:11Z</time>
      </trkpt>
      <trkpt lat="45.73633" lon="6.45955">
        <ele>1379</ele>
        <time>2022-07-23T13:26:12Z</time>
      </trkpt>
      <trkpt lat="45.73634" lon="6.45957">
        <ele>1379</ele>
        <time>2022-07-23T13:26:13Z</time>
      </trkpt>
      <trkpt lat="45.73634" lon="6.45958">
        <ele>1379</ele>
        <time>2022-07-23T13:26:14Z</time>
      </trkpt>
      <trkpt lat="45.73635" lon="6.45959">
        <ele>1379</ele>
        <time>2022-07-23T13:26:15Z</time>
      </trkpt>
      <trkpt lat="45.73635" lon="6.4596">
        <ele>1379</ele>
        <time>2022-07-23T13:26:16Z</time>
      </trkpt>
      <trkpt lat="45.73636" lon="6.45961">
        <ele>1379</ele>
        <time>2022-07-23T13:26:17Z</time>
      </trkpt>
      <trkpt lat="45.73636" lon="6.45962">
        <ele>1379</ele>
        <time>2022-07-23T13:26:18Z</time>
      </trkpt>
      <trkpt lat="45.73636" lon="6.45963">
        <ele>1379</ele>
        <time>2022-07-23T13:26:19Z</time>
      </trkpt>
      <trkpt lat="45.73637" lon="6.45964">
        <ele>1380</ele>
        <time>2022-07-23T13:26:20Z</time>
      </trkpt>
      <trkpt lat="45.73637" lon="6.45965">
        <ele>1380</ele>
        <time>2022-07-23T13:26:21Z</time>
      </trkpt>
      <trkpt lat="45.73637" lon="6.45966">
        <ele>1380</ele>
        <time>2022-07-23T13:26:22Z</time>
      </trkpt>
      <trkpt lat="45.73637" lon="6.45967">
        <ele>1380</ele>
        <time>2022-07-23T13:26:23Z</time>
      </trkpt>
      <trkpt lat="45.73638" lon="6.45968">
        <ele>1380</ele>
        <time>2022-07-23T13:26:24Z</time>
      </trkpt>
      <trkpt lat="45.73638" lon="6.45968">
        <ele>1381</ele>
        <time>2022-07-23T13:26:25Z</time>
      </trkpt>
      <trkpt lat="45.73638" lon="6.45969">
        <ele>1381</ele>
        <time>2022-07-23T13:26:26Z</time>
      </trkpt>
      <trkpt lat="45.73638" lon="6.4597">
        <ele>1381</ele>
        <time>2022-07-23T13:26:27Z</time>
      </trkpt>
      <trkpt lat="45.73638" lon="6.45971">
        <ele>1381</ele>
        <time>2022-07-23T13:26:28Z</time>
      </trkpt>
      <trkpt lat="45.73639" lon="6.45972">
        <ele>1381</ele>
        <time>2022-07-23T13:26:29Z</time>
      </trkpt>
      <trkpt lat="45.73639" lon="6.45973">
        <ele>1381</ele>
        <time>2022-07-23T13:26:30Z</time>
      </trkpt>
      <trkpt lat="45.73639" lon="6.45974">
        <ele>1381</ele>
        <time>2022-07-23T13:26:31Z</time>
      </trkpt>
      <trkpt lat="45.73639" lon="6.45975">
        <ele>1381</ele>
        <time>2022-07-23T13:26:32Z</time>
      </trkpt>
      <trkpt lat="45.7364" lon="6.45976">
        <ele>1381</ele>
        <time>2022-07-23T13:26:33Z</time>
      </trkpt>
      <trkpt lat="45.7364" lon="6.45977">
        <ele>1381</ele>
        <time>2022-07-23T13:26:34Z</time>
      </trkpt>
      <trkpt lat="45.7364" lon="6.45978">
        <ele>1382</ele>
        <time>2022-07-23T13:26:35Z</time>
      </trkpt>
      <trkpt lat="45.73641" lon="6.45979">
        <ele>1382</ele>
        <time>2022-07-23T13:26:36Z</time>
      </trkpt>
      <trkpt lat="45.73641" lon="6.4598">
        <ele>1382</ele>
        <time>2022-07-23T13:26:37Z</time>
      </trkpt>
      <trkpt lat="45.73642" lon="6.45981">
        <ele>1382</ele>
        <time>2022-07-23T13:26:38Z</time>
      </trkpt>
      <trkpt lat="45.73642" lon="6.45982">
        <ele>1382</ele>
        <time>2022-07-23T13:26:39Z</time>
      </trkpt>
      <trkpt lat="45.73643" lon="6.45983">
        <ele>1382</ele>
        <time>2022-07-23T13:26:40Z</time>
      </trkpt>
      <trkpt lat="45.73643" lon="6.45984">
        <ele>1382</ele>
        <time>2022-07-23T13:26:41Z</time>
      </trkpt>
      <trkpt lat="45.73644" lon="6.45985">
        <ele>1382</ele>
        <time>2022-07-23T13:26:42Z</time>
      </trkpt>
      <trkpt lat="45.73644" lon="6.45986">
        <ele>1382</ele>
        <time>2022-07-23T13:26:43Z</time>
      </trkpt>
      <trkpt lat="45.73645" lon="6.45988">
        <ele>1382</ele>
        <time>2022-07-23T13:26:44Z</time>
      </trkpt>
      <trkpt lat="45.73645" lon="6.45989">
        <ele>1383</ele>
        <time>2022-07-23T13:26:45Z</time>
      </trkpt>
      <trkpt lat="45.73646" lon="6.4599">
        <ele>1383</ele>
        <time>2022-07-23T13:26:46Z</time>
      </trkpt>
      <trkpt lat="45.73646" lon="6.45991">
        <ele>1383</ele>
        <time>2022-07-23T13:26:47Z</time>
      </trkpt>
      <trkpt lat="45.73647" lon="6.45992">
        <ele>1383</ele>
        <time>2022-07-23T13:26:48Z</time>
      </trkpt>
      <trkpt lat="45.73647" lon="6.45993">
        <ele>1383</ele>
        <time>2022-07-23T13:26:49Z</time>
      </trkpt>
      <trkpt lat="45.73648" lon="6.45995">
        <ele>1383</ele>
        <time>2022-07-23T13:26:50Z</time>
      </trkpt>
      <trkpt lat="45.73648" lon="6.45996">
        <ele>1383</ele>
        <time>2022-07-23T13:26:51Z</time>
      </trkpt>
      <trkpt lat="45.73649" lon="6.45997">
        <ele>1383</ele>
        <time>2022-07-23T13:26:52Z</time>
      </trkpt>
      <trkpt lat="45.73649" lon="6.45998">
        <ele>1383</ele>
        <time>2022-07-23T13:26:53Z</time>
      </trkpt>
      <trkpt lat="45.73649" lon="6.45999">
        <ele>1383</ele>
        <time>2022-07-23T13:26:54Z</time>
      </trkpt>
      <trkpt lat="45.7365" lon="6.46001">
        <ele>1383</ele>
        <time>2022-07-23T13:26:55Z</time>
      </trkpt>
      <trkpt lat="45.7365" lon="6.46002">
        <ele>1383</ele>
        <time>2022-07-23T13:26:56Z</time>
      </trkpt>
      <trkpt lat="45.73651" lon="6.46003">
        <ele>1383</ele>
        <time>2022-07-23T13:26:57Z</time>
      </trkpt>
      <trkpt lat="45.73651" lon="6.46004">
        <ele>1383</ele>
        <time>2022-07-23T13:26:58Z</time>
      </trkpt>
      <trkpt lat="45.73652" lon="6.46005">
        <ele>1383</ele>
        <time>2022-07-23T13:26:59Z</time>
      </trkpt>
      <trkpt lat="45.73652" lon="6.46006">
        <ele>1384</ele>
        <time>2022-07-23T13:27:00Z</time>
      </trkpt>
      <trkpt lat="45.73653" lon="6.46007">
        <ele>1384</ele>
        <time>2022-07-23T13:27:01Z</time>
      </trkpt>
      <trkpt lat="45.73653" lon="6.46008">
        <ele>1384</ele>
        <time>2022-07-23T13:27:02Z</time>
      </trkpt>
      <trkpt lat="45.73654" lon="6.46009">
        <ele>1385</ele>
        <time>2022-07-23T13:27:03Z</time>
      </trkpt>
      <trkpt lat="45.73654" lon="6.4601">
        <ele>1385</ele>
        <time>2022-07-23T13:27:04Z</time>
      </trkpt>
      <trkpt lat="45.73655" lon="6.46011">
        <ele>1386</ele>
        <time>2022-07-23T13:27:05Z</time>
      </trkpt>
      <trkpt lat="45.73655" lon="6.46012">
        <ele>1386</ele>
        <time>2022-07-23T13:27:06Z</time>
      </trkpt>
      <trkpt lat="45.73656" lon="6.46013">
        <ele>1386</ele>
        <time>2022-07-23T13:27:07Z</time>
      </trkpt>
      <trkpt lat="45.73656" lon="6.46014">
        <ele>1386</ele>
        <time>2022-07-23T13:27:08Z</time>
      </trkpt>
      <trkpt lat="45.73657" lon="6.46015">
        <ele>1386</ele>
        <time>2022-07-23T13:27:09Z</time>
      </trkpt>
      <trkpt lat="45.73657" lon="6.46016">
        <ele>1386</ele>
        <time>2022-07-23T13:27:10Z</time>
      </trkpt>
      <trkpt lat="45.73658" lon="6.46017">
        <ele>1386</ele>
        <time>2022-07-23T13:27:11Z</time>
      </trkpt>
      <trkpt lat="45.73658" lon="6.46018">
        <ele>1386</ele>
        <time>2022-07-23T13:27:12Z</time>
      </trkpt>
      <trkpt lat="45.73658" lon="6.46019">
        <ele>1386</ele>
        <time>2022-07-23T13:27:13Z</time>
      </trkpt>
      <trkpt lat="45.73659" lon="6.4602">
        <ele>1386</ele>
        <time>2022-07-23T13:27:14Z</time>
      </trkpt>
      <trkpt lat="45.73659" lon="6.46021">
        <ele>1387</ele>
        <time>2022-07-23T13:27:15Z</time>
      </trkpt>
      <trkpt lat="45.73659" lon="6.46022">
        <ele>1387</ele>
        <time>2022-07-23T13:27:16Z</time>
      </trkpt>
      <trkpt lat="45.7366" lon="6.46023">
        <ele>1387</ele>
        <time>2022-07-23T13:27:17Z</time>
      </trkpt>
      <trkpt lat="45.7366" lon="6.46024">
        <ele>1387</ele>
        <time>2022-07-23T13:27:18Z</time>
      </trkpt>
      <trkpt lat="45.73661" lon="6.46025">
        <ele>1387</ele>
        <time>2022-07-23T13:27:19Z</time>
      </trkpt>
      <trkpt lat="45.73661" lon="6.46026">
        <ele>1387</ele>
        <time>2022-07-23T13:27:20Z</time>
      </trkpt>
      <trkpt lat="45.73661" lon="6.46027">
        <ele>1387</ele>
        <time>2022-07-23T13:27:21Z</time>
      </trkpt>
      <trkpt lat="45.73662" lon="6.46028">
        <ele>1387</ele>
        <time>2022-07-23T13:27:22Z</time>
      </trkpt>
      <trkpt lat="45.73662" lon="6.46029">
        <ele>1387</ele>
        <time>2022-07-23T13:27:23Z</time>
      </trkpt>
      <trkpt lat="45.73663" lon="6.4603">
        <ele>1387</ele>
        <time>2022-07-23T13:27:24Z</time>
      </trkpt>
      <trkpt lat="45.73663" lon="6.46031">
        <ele>1388</ele>
        <time>2022-07-23T13:27:25Z</time>
      </trkpt>
      <trkpt lat="45.73664" lon="6.46032">
        <ele>1388</ele>
        <time>2022-07-23T13:27:26Z</time>
      </trkpt>
      <trkpt lat="45.73664" lon="6.46033">
        <ele>1388</ele>
        <time>2022-07-23T13:27:27Z</time>
      </trkpt>
      <trkpt lat="45.73665" lon="6.46034">
        <ele>1388</ele>
        <time>2022-07-23T13:27:28Z</time>
      </trkpt>
      <trkpt lat="45.73665" lon="6.46035">
        <ele>1388</ele>
        <time>2022-07-23T13:27:29Z</time>
      </trkpt>
      <trkpt lat="45.73665" lon="6.46036">
        <ele>1388</ele>
        <time>2022-07-23T13:27:30Z</time>
      </trkpt>
      <trkpt lat="45.73665" lon="6.46037">
        <ele>1388</ele>
        <time>2022-07-23T13:27:31Z</time>
      </trkpt>
      <trkpt lat="45.73665" lon="6.46038">
        <ele>1388</ele>
        <time>2022-07-23T13:27:32Z</time>
      </trkpt>
      <trkpt lat="45.73666" lon="6.46039">
        <ele>1388</ele>
        <time>2022-07-23T13:27:33Z</time>
      </trkpt>
      <trkpt lat="45.73666" lon="6.4604">
        <ele>1388</ele>
        <time>2022-07-23T13:27:34Z</time>
      </trkpt>
      <trkpt lat="45.73666" lon="6.46041">
        <ele>1389</ele>
        <time>2022-07-23T13:27:35Z</time>
      </trkpt>
      <trkpt lat="45.73667" lon="6.46043">
        <ele>1389</ele>
        <time>2022-07-23T13:27:36Z</time>
      </trkpt>
      <trkpt lat="45.73667" lon="6.46044">
        <ele>1389</ele>
        <time>2022-07-23T13:27:37Z</time>
      </trkpt>
      <trkpt lat="45.73667" lon="6.46045">
        <ele>1389</ele>
        <time>2022-07-23T13:27:38Z</time>
      </trkpt>
      <trkpt lat="45.73668" lon="6.46046">
        <ele>1389</ele>
        <time>2022-07-23T13:27:39Z</time>
      </trkpt>
      <trkpt lat="45.73668" lon="6.46047">
        <ele>1389</ele>
        <time>2022-07-23T13:27:40Z</time>
      </trkpt>
      <trkpt lat="45.73669" lon="6.46048">
        <ele>1389</ele>
        <time>2022-07-23T13:27:41Z</time>
      </trkpt>
      <trkpt lat="45.7367" lon="6.46049">
        <ele>1389</ele>
        <time>2022-07-23T13:27:42Z</time>
      </trkpt>
      <trkpt lat="45.7367" lon="6.4605">
        <ele>1389</ele>
        <time>2022-07-23T13:27:43Z</time>
      </trkpt>
      <trkpt lat="45.7367" lon="6.46051">
        <ele>1389</ele>
        <time>2022-07-23T13:27:44Z</time>
      </trkpt>
      <trkpt lat="45.73671" lon="6.46052">
        <ele>1390</ele>
        <time>2022-07-23T13:27:45Z</time>
      </trkpt>
      <trkpt lat="45.73671" lon="6.46053">
        <ele>1390</ele>
        <time>2022-07-23T13:27:46Z</time>
      </trkpt>
      <trkpt lat="45.73672" lon="6.46054">
        <ele>1390</ele>
        <time>2022-07-23T13:27:47Z</time>
      </trkpt>
      <trkpt lat="45.73673" lon="6.46055">
        <ele>1390</ele>
        <time>2022-07-23T13:27:48Z</time>
      </trkpt>
      <trkpt lat="45.73673" lon="6.46056">
        <ele>1390</ele>
        <time>2022-07-23T13:27:49Z</time>
      </trkpt>
      <trkpt lat="45.73674" lon="6.46057">
        <ele>1391</ele>
        <time>2022-07-23T13:27:50Z</time>
      </trkpt>
      <trkpt lat="45.73674" lon="6.46058">
        <ele>1391</ele>
        <time>2022-07-23T13:27:51Z</time>
      </trkpt>
      <trkpt lat="45.73675" lon="6.46059">
        <ele>1391</ele>
        <time>2022-07-23T13:27:52Z</time>
      </trkpt>
      <trkpt lat="45.73675" lon="6.4606">
        <ele>1391</ele>
        <time>2022-07-23T13:27:53Z</time>
      </trkpt>
      <trkpt lat="45.73676" lon="6.46061">
        <ele>1391</ele>
        <time>2022-07-23T13:27:54Z</time>
      </trkpt>
      <trkpt lat="45.73676" lon="6.46062">
        <ele>1391</ele>
        <time>2022-07-23T13:27:55Z</time>
      </trkpt>
      <trkpt lat="45.73676" lon="6.46064">
        <ele>1391</ele>
        <time>2022-07-23T13:27:56Z</time>
      </trkpt>
      <trkpt lat="45.73677" lon="6.46065">
        <ele>1391</ele>
        <time>2022-07-23T13:27:57Z</time>
      </trkpt>
      <trkpt lat="45.73677" lon="6.46066">
        <ele>1391</ele>
        <time>2022-07-23T13:27:58Z</time>
      </trkpt>
      <trkpt lat="45.73677" lon="6.46067">
        <ele>1391</ele>
        <time>2022-07-23T13:27:59Z</time>
      </trkpt>
      <trkpt lat="45.73677" lon="6.46068">
        <ele>1392</ele>
        <time>2022-07-23T13:28:00Z</time>
      </trkpt>
      <trkpt lat="45.73678" lon="6.46069">
        <ele>1392</ele>
        <time>2022-07-23T13:28:01Z</time>
      </trkpt>
      <trkpt lat="45.73678" lon="6.4607">
        <ele>1392</ele>
        <time>2022-07-23T13:28:02Z</time>
      </trkpt>
      <trkpt lat="45.73678" lon="6.46071">
        <ele>1392</ele>
        <time>2022-07-23T13:28:03Z</time>
      </trkpt>
      <trkpt lat="45.73678" lon="6.46072">
        <ele>1392</ele>
        <time>2022-07-23T13:28:04Z</time>
      </trkpt>
      <trkpt lat="45.73678" lon="6.46073">
        <ele>1392</ele>
        <time>2022-07-23T13:28:05Z</time>
      </trkpt>
      <trkpt lat="45.73678" lon="6.46074">
        <ele>1392</ele>
        <time>2022-07-23T13:28:06Z</time>
      </trkpt>
      <trkpt lat="45.73678" lon="6.46075">
        <ele>1392</ele>
        <time>2022-07-23T13:28:07Z</time>
      </trkpt>
      <trkpt lat="45.73678" lon="6.46078">
        <ele>1394</ele>
        <time>2022-07-23T13:30:27Z</time>
      </trkpt>
      <trkpt lat="45.73678" lon="6.4608">
        <ele>1394</ele>
        <time>2022-07-23T13:30:28Z</time>
      </trkpt>
      <trkpt lat="45.73679" lon="6.46082">
        <ele>1394</ele>
        <time>2022-07-23T13:30:29Z</time>
      </trkpt>
      <trkpt lat="45.73679" lon="6.46083">
        <ele>1394</ele>
        <time>2022-07-23T13:30:30Z</time>
      </trkpt>
      <trkpt lat="45.73679" lon="6.46084">
        <ele>1394</ele>
        <time>2022-07-23T13:30:31Z</time>
      </trkpt>
      <trkpt lat="45.73679" lon="6.46085">
        <ele>1394</ele>
        <time>2022-07-23T13:30:32Z</time>
      </trkpt>
      <trkpt lat="45.7368" lon="6.46086">
        <ele>1394</ele>
        <time>2022-07-23T13:30:33Z</time>
      </trkpt>
      <trkpt lat="45.7368" lon="6.46087">
        <ele>1394</ele>
        <time>2022-07-23T13:30:34Z</time>
      </trkpt>
      <trkpt lat="45.7368" lon="6.46088">
        <ele>1395</ele>
        <time>2022-07-23T13:30:35Z</time>
      </trkpt>
      <trkpt lat="45.7368" lon="6.46089">
        <ele>1395</ele>
        <time>2022-07-23T13:30:36Z</time>
      </trkpt>
      <trkpt lat="45.7368" lon="6.4609">
        <ele>1395</ele>
        <time>2022-07-23T13:30:37Z</time>
      </trkpt>
      <trkpt lat="45.7368" lon="6.46091">
        <ele>1395</ele>
        <time>2022-07-23T13:30:38Z</time>
      </trkpt>
      <trkpt lat="45.7368" lon="6.46092">
        <ele>1395</ele>
        <time>2022-07-23T13:30:39Z</time>
      </trkpt>
      <trkpt lat="45.73681" lon="6.46094">
        <ele>1395</ele>
        <time>2022-07-23T13:30:40Z</time>
      </trkpt>
      <trkpt lat="45.73681" lon="6.46095">
        <ele>1395</ele>
        <time>2022-07-23T13:30:41Z</time>
      </trkpt>
      <trkpt lat="45.73681" lon="6.46096">
        <ele>1395</ele>
        <time>2022-07-23T13:30:42Z</time>
      </trkpt>
      <trkpt lat="45.73681" lon="6.46097">
        <ele>1395</ele>
        <time>2022-07-23T13:30:43Z</time>
      </trkpt>
      <trkpt lat="45.73682" lon="6.46098">
        <ele>1395</ele>
        <time>2022-07-23T13:30:44Z</time>
      </trkpt>
      <trkpt lat="45.73682" lon="6.46099">
        <ele>1395</ele>
        <time>2022-07-23T13:30:45Z</time>
      </trkpt>
      <trkpt lat="45.73682" lon="6.46101">
        <ele>1395</ele>
        <time>2022-07-23T13:30:46Z</time>
      </trkpt>
      <trkpt lat="45.73683" lon="6.46102">
        <ele>1395</ele>
        <time>2022-07-23T13:30:47Z</time>
      </trkpt>
      <trkpt lat="45.73683" lon="6.46103">
        <ele>1395</ele>
        <time>2022-07-23T13:30:48Z</time>
      </trkpt>
      <trkpt lat="45.73683" lon="6.46105">
        <ele>1395</ele>
        <time>2022-07-23T13:30:49Z</time>
      </trkpt>
      <trkpt lat="45.73683" lon="6.46106">
        <ele>1396</ele>
        <time>2022-07-23T13:30:50Z</time>
      </trkpt>
      <trkpt lat="45.73683" lon="6.46107">
        <ele>1396</ele>
        <time>2022-07-23T13:30:51Z</time>
      </trkpt>
      <trkpt lat="45.73684" lon="6.46109">
        <ele>1396</ele>
        <time>2022-07-23T13:30:52Z</time>
      </trkpt>
      <trkpt lat="45.73684" lon="6.4611">
        <ele>1396</ele>
        <time>2022-07-23T13:30:53Z</time>
      </trkpt>
      <trkpt lat="45.73684" lon="6.46111">
        <ele>1396</ele>
        <time>2022-07-23T13:30:54Z</time>
      </trkpt>
      <trkpt lat="45.73684" lon="6.46112">
        <ele>1397</ele>
        <time>2022-07-23T13:30:55Z</time>
      </trkpt>
      <trkpt lat="45.73684" lon="6.46113">
        <ele>1397</ele>
        <time>2022-07-23T13:30:56Z</time>
      </trkpt>
      <trkpt lat="45.73684" lon="6.46114">
        <ele>1397</ele>
        <time>2022-07-23T13:30:57Z</time>
      </trkpt>
      <trkpt lat="45.73684" lon="6.46115">
        <ele>1397</ele>
        <time>2022-07-23T13:30:58Z</time>
      </trkpt>
      <trkpt lat="45.73684" lon="6.46116">
        <ele>1397</ele>
        <time>2022-07-23T13:30:59Z</time>
      </trkpt>
      <trkpt lat="45.73684" lon="6.46117">
        <ele>1397</ele>
        <time>2022-07-23T13:31:00Z</time>
      </trkpt>
      <trkpt lat="45.73684" lon="6.46118">
        <ele>1397</ele>
        <time>2022-07-23T13:31:01Z</time>
      </trkpt>
      <trkpt lat="45.73684" lon="6.46119">
        <ele>1397</ele>
        <time>2022-07-23T13:31:02Z</time>
      </trkpt>
      <trkpt lat="45.73684" lon="6.4612">
        <ele>1397</ele>
        <time>2022-07-23T13:31:03Z</time>
      </trkpt>
      <trkpt lat="45.73684" lon="6.46121">
        <ele>1397</ele>
        <time>2022-07-23T13:31:04Z</time>
      </trkpt>
      <trkpt lat="45.73684" lon="6.46122">
        <ele>1398</ele>
        <time>2022-07-23T13:31:05Z</time>
      </trkpt>
      <trkpt lat="45.73684" lon="6.46124">
        <ele>1398</ele>
        <time>2022-07-23T13:31:06Z</time>
      </trkpt>
      <trkpt lat="45.73684" lon="6.46125">
        <ele>1398</ele>
        <time>2022-07-23T13:31:07Z</time>
      </trkpt>
      <trkpt lat="45.73684" lon="6.46126">
        <ele>1398</ele>
        <time>2022-07-23T13:31:08Z</time>
      </trkpt>
      <trkpt lat="45.73684" lon="6.46127">
        <ele>1398</ele>
        <time>2022-07-23T13:31:09Z</time>
      </trkpt>
      <trkpt lat="45.73684" lon="6.46128">
        <ele>1398</ele>
        <time>2022-07-23T13:31:10Z</time>
      </trkpt>
      <trkpt lat="45.73685" lon="6.46129">
        <ele>1398</ele>
        <time>2022-07-23T13:31:11Z</time>
      </trkpt>
      <trkpt lat="45.73685" lon="6.4613">
        <ele>1398</ele>
        <time>2022-07-23T13:31:12Z</time>
      </trkpt>
      <trkpt lat="45.73685" lon="6.46131">
        <ele>1398</ele>
        <time>2022-07-23T13:31:13Z</time>
      </trkpt>
      <trkpt lat="45.73685" lon="6.46132">
        <ele>1398</ele>
        <time>2022-07-23T13:31:14Z</time>
      </trkpt>
      <trkpt lat="45.73685" lon="6.46134">
        <ele>1399</ele>
        <time>2022-07-23T13:31:15Z</time>
      </trkpt>
      <trkpt lat="45.73685" lon="6.46135">
        <ele>1399</ele>
        <time>2022-07-23T13:31:16Z</time>
      </trkpt>
      <trkpt lat="45.73685" lon="6.46136">
        <ele>1399</ele>
        <time>2022-07-23T13:31:17Z</time>
      </trkpt>
      <trkpt lat="45.73685" lon="6.46137">
        <ele>1399</ele>
        <time>2022-07-23T13:31:18Z</time>
      </trkpt>
      <trkpt lat="45.73685" lon="6.46137">
        <ele>1399</ele>
        <time>2022-07-23T13:31:19Z</time>
      </trkpt>
      <trkpt lat="45.73685" lon="6.46138">
        <ele>1400</ele>
        <time>2022-07-23T13:31:20Z</time>
      </trkpt>
      <trkpt lat="45.73685" lon="6.46139">
        <ele>1400</ele>
        <time>2022-07-23T13:31:21Z</time>
      </trkpt>
      <trkpt lat="45.73685" lon="6.46139">
        <ele>1400</ele>
        <time>2022-07-23T13:31:22Z</time>
      </trkpt>
      <trkpt lat="45.73686" lon="6.4614">
        <ele>1400</ele>
        <time>2022-07-23T13:31:23Z</time>
      </trkpt>
      <trkpt lat="45.73686" lon="6.4614">
        <ele>1400</ele>
        <time>2022-07-23T13:31:24Z</time>
      </trkpt>
      <trkpt lat="45.73686" lon="6.46141">
        <ele>1401</ele>
        <time>2022-07-23T13:31:25Z</time>
      </trkpt>
      <trkpt lat="45.73687" lon="6.46142">
        <ele>1401</ele>
        <time>2022-07-23T13:31:26Z</time>
      </trkpt>
      <trkpt lat="45.73687" lon="6.46143">
        <ele>1401</ele>
        <time>2022-07-23T13:31:27Z</time>
      </trkpt>
      <trkpt lat="45.73688" lon="6.46144">
        <ele>1401</ele>
        <time>2022-07-23T13:31:28Z</time>
      </trkpt>
      <trkpt lat="45.73688" lon="6.46145">
        <ele>1401</ele>
        <time>2022-07-23T13:31:29Z</time>
      </trkpt>
      <trkpt lat="45.73688" lon="6.46146">
        <ele>1401</ele>
        <time>2022-07-23T13:31:30Z</time>
      </trkpt>
      <trkpt lat="45.73688" lon="6.46147">
        <ele>1401</ele>
        <time>2022-07-23T13:31:31Z</time>
      </trkpt>
      <trkpt lat="45.73689" lon="6.46149">
        <ele>1401</ele>
        <time>2022-07-23T13:31:32Z</time>
      </trkpt>
      <trkpt lat="45.73689" lon="6.4615">
        <ele>1401</ele>
        <time>2022-07-23T13:31:33Z</time>
      </trkpt>
      <trkpt lat="45.73689" lon="6.46151">
        <ele>1401</ele>
        <time>2022-07-23T13:31:34Z</time>
      </trkpt>
      <trkpt lat="45.73689" lon="6.46152">
        <ele>1401</ele>
        <time>2022-07-23T13:31:35Z</time>
      </trkpt>
      <trkpt lat="45.73689" lon="6.46154">
        <ele>1401</ele>
        <time>2022-07-23T13:31:36Z</time>
      </trkpt>
      <trkpt lat="45.73689" lon="6.46155">
        <ele>1401</ele>
        <time>2022-07-23T13:31:37Z</time>
      </trkpt>
      <trkpt lat="45.73689" lon="6.46156">
        <ele>1401</ele>
        <time>2022-07-23T13:31:38Z</time>
      </trkpt>
      <trkpt lat="45.73689" lon="6.46157">
        <ele>1401</ele>
        <time>2022-07-23T13:31:39Z</time>
      </trkpt>
      <trkpt lat="45.7369" lon="6.46158">
        <ele>1402</ele>
        <time>2022-07-23T13:31:40Z</time>
      </trkpt>
      <trkpt lat="45.7369" lon="6.46159">
        <ele>1402</ele>
        <time>2022-07-23T13:31:41Z</time>
      </trkpt>
      <trkpt lat="45.7369" lon="6.4616">
        <ele>1402</ele>
        <time>2022-07-23T13:31:42Z</time>
      </trkpt>
      <trkpt lat="45.7369" lon="6.46161">
        <ele>1402</ele>
        <time>2022-07-23T13:31:43Z</time>
      </trkpt>
      <trkpt lat="45.7369" lon="6.46162">
        <ele>1402</ele>
        <time>2022-07-23T13:31:44Z</time>
      </trkpt>
      <trkpt lat="45.7369" lon="6.46163">
        <ele>1402</ele>
        <time>2022-07-23T13:31:45Z</time>
      </trkpt>
      <trkpt lat="45.7369" lon="6.46164">
        <ele>1402</ele>
        <time>2022-07-23T13:31:46Z</time>
      </trkpt>
      <trkpt lat="45.7369" lon="6.46165">
        <ele>1402</ele>
        <time>2022-07-23T13:31:47Z</time>
      </trkpt>
      <trkpt lat="45.7369" lon="6.46166">
        <ele>1403</ele>
        <time>2022-07-23T13:31:48Z</time>
      </trkpt>
      <trkpt lat="45.7369" lon="6.46167">
        <ele>1403</ele>
        <time>2022-07-23T13:31:49Z</time>
      </trkpt>
      <trkpt lat="45.7369" lon="6.46168">
        <ele>1404</ele>
        <time>2022-07-23T13:31:50Z</time>
      </trkpt>
      <trkpt lat="45.7369" lon="6.46169">
        <ele>1404</ele>
        <time>2022-07-23T13:31:51Z</time>
      </trkpt>
      <trkpt lat="45.7369" lon="6.4617">
        <ele>1404</ele>
        <time>2022-07-23T13:31:52Z</time>
      </trkpt>
      <trkpt lat="45.7369" lon="6.4617">
        <ele>1404</ele>
        <time>2022-07-23T13:31:53Z</time>
      </trkpt>
      <trkpt lat="45.7369" lon="6.46171">
        <ele>1404</ele>
        <time>2022-07-23T13:31:54Z</time>
      </trkpt>
      <trkpt lat="45.7369" lon="6.46172">
        <ele>1404</ele>
        <time>2022-07-23T13:31:55Z</time>
      </trkpt>
      <trkpt lat="45.7369" lon="6.46173">
        <ele>1404</ele>
        <time>2022-07-23T13:31:56Z</time>
      </trkpt>
      <trkpt lat="45.7369" lon="6.46174">
        <ele>1404</ele>
        <time>2022-07-23T13:31:57Z</time>
      </trkpt>
      <trkpt lat="45.7369" lon="6.46175">
        <ele>1404</ele>
        <time>2022-07-23T13:31:58Z</time>
      </trkpt>
      <trkpt lat="45.7369" lon="6.46176">
        <ele>1404</ele>
        <time>2022-07-23T13:31:59Z</time>
      </trkpt>
      <trkpt lat="45.7369" lon="6.46176">
        <ele>1405</ele>
        <time>2022-07-23T13:32:00Z</time>
      </trkpt>
      <trkpt lat="45.7369" lon="6.46177">
        <ele>1405</ele>
        <time>2022-07-23T13:32:01Z</time>
      </trkpt>
      <trkpt lat="45.7369" lon="6.46178">
        <ele>1405</ele>
        <time>2022-07-23T13:32:02Z</time>
      </trkpt>
      <trkpt lat="45.7369" lon="6.46179">
        <ele>1405</ele>
        <time>2022-07-23T13:32:03Z</time>
      </trkpt>
      <trkpt lat="45.73689" lon="6.46182">
        <ele>1407</ele>
        <time>2022-07-23T13:32:13Z</time>
      </trkpt>
      <trkpt lat="45.73689" lon="6.46183">
        <ele>1407</ele>
        <time>2022-07-23T13:32:14Z</time>
      </trkpt>
      <trkpt lat="45.73688" lon="6.46184">
        <ele>1407</ele>
        <time>2022-07-23T13:32:15Z</time>
      </trkpt>
      <trkpt lat="45.73688" lon="6.46185">
        <ele>1407</ele>
        <time>2022-07-23T13:32:16Z</time>
      </trkpt>
      <trkpt lat="45.73688" lon="6.46186">
        <ele>1407</ele>
        <time>2022-07-23T13:32:17Z</time>
      </trkpt>
      <trkpt lat="45.73688" lon="6.46187">
        <ele>1407</ele>
        <time>2022-07-23T13:32:18Z</time>
      </trkpt>
      <trkpt lat="45.73688" lon="6.46188">
        <ele>1407</ele>
        <time>2022-07-23T13:32:19Z</time>
      </trkpt>
      <trkpt lat="45.73687" lon="6.46189">
        <ele>1408</ele>
        <time>2022-07-23T13:32:20Z</time>
      </trkpt>
      <trkpt lat="45.73687" lon="6.4619">
        <ele>1408</ele>
        <time>2022-07-23T13:32:21Z</time>
      </trkpt>
      <trkpt lat="45.73687" lon="6.46191">
        <ele>1408</ele>
        <time>2022-07-23T13:32:22Z</time>
      </trkpt>
      <trkpt lat="45.73687" lon="6.46192">
        <ele>1408</ele>
        <time>2022-07-23T13:32:23Z</time>
      </trkpt>
      <trkpt lat="45.73687" lon="6.46193">
        <ele>1408</ele>
        <time>2022-07-23T13:32:24Z</time>
      </trkpt>
      <trkpt lat="45.73687" lon="6.46194">
        <ele>1408</ele>
        <time>2022-07-23T13:32:25Z</time>
      </trkpt>
      <trkpt lat="45.73686" lon="6.46195">
        <ele>1408</ele>
        <time>2022-07-23T13:32:26Z</time>
      </trkpt>
      <trkpt lat="45.73686" lon="6.46196">
        <ele>1408</ele>
        <time>2022-07-23T13:32:27Z</time>
      </trkpt>
      <trkpt lat="45.73686" lon="6.46197">
        <ele>1408</ele>
        <time>2022-07-23T13:32:28Z</time>
      </trkpt>
      <trkpt lat="45.73686" lon="6.46198">
        <ele>1408</ele>
        <time>2022-07-23T13:32:29Z</time>
      </trkpt>
      <trkpt lat="45.73685" lon="6.46199">
        <ele>1409</ele>
        <time>2022-07-23T13:32:30Z</time>
      </trkpt>
      <trkpt lat="45.73685" lon="6.462">
        <ele>1409</ele>
        <time>2022-07-23T13:32:31Z</time>
      </trkpt>
      <trkpt lat="45.73685" lon="6.46201">
        <ele>1409</ele>
        <time>2022-07-23T13:32:32Z</time>
      </trkpt>
      <trkpt lat="45.73685" lon="6.46202">
        <ele>1409</ele>
        <time>2022-07-23T13:32:33Z</time>
      </trkpt>
      <trkpt lat="45.73685" lon="6.46203">
        <ele>1409</ele>
        <time>2022-07-23T13:32:34Z</time>
      </trkpt>
      <trkpt lat="45.73685" lon="6.46203">
        <ele>1410</ele>
        <time>2022-07-23T13:32:35Z</time>
      </trkpt>
      <trkpt lat="45.73685" lon="6.46204">
        <ele>1410</ele>
        <time>2022-07-23T13:32:36Z</time>
      </trkpt>
      <trkpt lat="45.73685" lon="6.46204">
        <ele>1410</ele>
        <time>2022-07-23T13:32:37Z</time>
      </trkpt>
      <trkpt lat="45.73685" lon="6.46205">
        <ele>1410</ele>
        <time>2022-07-23T13:32:38Z</time>
      </trkpt>
      <trkpt lat="45.73685" lon="6.46205">
        <ele>1410</ele>
        <time>2022-07-23T13:32:39Z</time>
      </trkpt>
      <trkpt lat="45.73685" lon="6.46206">
        <ele>1410</ele>
        <time>2022-07-23T13:32:40Z</time>
      </trkpt>
      <trkpt lat="45.73685" lon="6.46207">
        <ele>1410</ele>
        <time>2022-07-23T13:32:41Z</time>
      </trkpt>
      <trkpt lat="45.73685" lon="6.46208">
        <ele>1410</ele>
        <time>2022-07-23T13:32:42Z</time>
      </trkpt>
      <trkpt lat="45.73685" lon="6.46209">
        <ele>1410</ele>
        <time>2022-07-23T13:32:43Z</time>
      </trkpt>
      <trkpt lat="45.73685" lon="6.4621">
        <ele>1410</ele>
        <time>2022-07-23T13:32:44Z</time>
      </trkpt>
      <trkpt lat="45.73685" lon="6.46211">
        <ele>1411</ele>
        <time>2022-07-23T13:32:45Z</time>
      </trkpt>
      <trkpt lat="45.73684" lon="6.46215">
        <ele>1413</ele>
        <time>2022-07-23T13:32:58Z</time>
      </trkpt>
      <trkpt lat="45.73683" lon="6.46217">
        <ele>1413</ele>
        <time>2022-07-23T13:32:59Z</time>
      </trkpt>
      <trkpt lat="45.73682" lon="6.46219">
        <ele>1414</ele>
        <time>2022-07-23T13:33:00Z</time>
      </trkpt>
      <trkpt lat="45.73682" lon="6.46221">
        <ele>1414</ele>
        <time>2022-07-23T13:33:01Z</time>
      </trkpt>
      <trkpt lat="45.73681" lon="6.46222">
        <ele>1414</ele>
        <time>2022-07-23T13:33:02Z</time>
      </trkpt>
      <trkpt lat="45.73681" lon="6.46224">
        <ele>1414</ele>
        <time>2022-07-23T13:33:03Z</time>
      </trkpt>
      <trkpt lat="45.7368" lon="6.46225">
        <ele>1414</ele>
        <time>2022-07-23T13:33:04Z</time>
      </trkpt>
      <trkpt lat="45.7368" lon="6.46226">
        <ele>1414</ele>
        <time>2022-07-23T13:33:05Z</time>
      </trkpt>
      <trkpt lat="45.73679" lon="6.46227">
        <ele>1414</ele>
        <time>2022-07-23T13:33:06Z</time>
      </trkpt>
      <trkpt lat="45.73679" lon="6.46228">
        <ele>1414</ele>
        <time>2022-07-23T13:33:07Z</time>
      </trkpt>
      <trkpt lat="45.73679" lon="6.46229">
        <ele>1414</ele>
        <time>2022-07-23T13:33:08Z</time>
      </trkpt>
      <trkpt lat="45.73678" lon="6.46229">
        <ele>1414</ele>
        <time>2022-07-23T13:33:09Z</time>
      </trkpt>
      <trkpt lat="45.73678" lon="6.4623">
        <ele>1415</ele>
        <time>2022-07-23T13:33:10Z</time>
      </trkpt>
      <trkpt lat="45.73677" lon="6.46231">
        <ele>1415</ele>
        <time>2022-07-23T13:33:11Z</time>
      </trkpt>
      <trkpt lat="45.73677" lon="6.46232">
        <ele>1415</ele>
        <time>2022-07-23T13:33:12Z</time>
      </trkpt>
      <trkpt lat="45.73676" lon="6.46232">
        <ele>1415</ele>
        <time>2022-07-23T13:33:13Z</time>
      </trkpt>
      <trkpt lat="45.73676" lon="6.46233">
        <ele>1415</ele>
        <time>2022-07-23T13:33:14Z</time>
      </trkpt>
      <trkpt lat="45.73675" lon="6.46234">
        <ele>1416</ele>
        <time>2022-07-23T13:33:15Z</time>
      </trkpt>
      <trkpt lat="45.73675" lon="6.46234">
        <ele>1416</ele>
        <time>2022-07-23T13:33:16Z</time>
      </trkpt>
      <trkpt lat="45.73675" lon="6.46235">
        <ele>1416</ele>
        <time>2022-07-23T13:33:17Z</time>
      </trkpt>
      <trkpt lat="45.73675" lon="6.46235">
        <ele>1416</ele>
        <time>2022-07-23T13:33:18Z</time>
      </trkpt>
      <trkpt lat="45.73674" lon="6.46235">
        <ele>1416</ele>
        <time>2022-07-23T13:33:19Z</time>
      </trkpt>
      <trkpt lat="45.73674" lon="6.46235">
        <ele>1417</ele>
        <time>2022-07-23T13:33:20Z</time>
      </trkpt>
      <trkpt lat="45.73674" lon="6.46236">
        <ele>1417</ele>
        <time>2022-07-23T13:33:21Z</time>
      </trkpt>
      <trkpt lat="45.73673" lon="6.46237">
        <ele>1417</ele>
        <time>2022-07-23T13:33:22Z</time>
      </trkpt>
      <trkpt lat="45.73672" lon="6.46238">
        <ele>1417</ele>
        <time>2022-07-23T13:33:23Z</time>
      </trkpt>
      <trkpt lat="45.73672" lon="6.46238">
        <ele>1417</ele>
        <time>2022-07-23T13:33:24Z</time>
      </trkpt>
      <trkpt lat="45.73671" lon="6.46239">
        <ele>1417</ele>
        <time>2022-07-23T13:33:25Z</time>
      </trkpt>
      <trkpt lat="45.73671" lon="6.4624">
        <ele>1417</ele>
        <time>2022-07-23T13:33:26Z</time>
      </trkpt>
      <trkpt lat="45.7367" lon="6.46241">
        <ele>1418</ele>
        <time>2022-07-23T13:33:35Z</time>
      </trkpt>
      <trkpt lat="45.73669" lon="6.46242">
        <ele>1418</ele>
        <time>2022-07-23T13:33:36Z</time>
      </trkpt>
      <trkpt lat="45.73669" lon="6.46242">
        <ele>1418</ele>
        <time>2022-07-23T13:33:37Z</time>
      </trkpt>
      <trkpt lat="45.73668" lon="6.46243">
        <ele>1418</ele>
        <time>2022-07-23T13:33:38Z</time>
      </trkpt>
      <trkpt lat="45.73667" lon="6.46244">
        <ele>1418</ele>
        <time>2022-07-23T13:33:39Z</time>
      </trkpt>
      <trkpt lat="45.73667" lon="6.46244">
        <ele>1419</ele>
        <time>2022-07-23T13:33:40Z</time>
      </trkpt>
      <trkpt lat="45.73666" lon="6.46245">
        <ele>1419</ele>
        <time>2022-07-23T13:33:41Z</time>
      </trkpt>
      <trkpt lat="45.73666" lon="6.46246">
        <ele>1419</ele>
        <time>2022-07-23T13:33:42Z</time>
      </trkpt>
      <trkpt lat="45.73665" lon="6.46247">
        <ele>1419</ele>
        <time>2022-07-23T13:33:43Z</time>
      </trkpt>
      <trkpt lat="45.73665" lon="6.46248">
        <ele>1419</ele>
        <time>2022-07-23T13:33:44Z</time>
      </trkpt>
      <trkpt lat="45.73665" lon="6.46249">
        <ele>1420</ele>
        <time>2022-07-23T13:33:45Z</time>
      </trkpt>
      <trkpt lat="45.73665" lon="6.4625">
        <ele>1420</ele>
        <time>2022-07-23T13:33:46Z</time>
      </trkpt>
      <trkpt lat="45.73664" lon="6.46251">
        <ele>1420</ele>
        <time>2022-07-23T13:33:47Z</time>
      </trkpt>
      <trkpt lat="45.73664" lon="6.46251">
        <ele>1420</ele>
        <time>2022-07-23T13:33:48Z</time>
      </trkpt>
      <trkpt lat="45.73664" lon="6.46252">
        <ele>1420</ele>
        <time>2022-07-23T13:33:49Z</time>
      </trkpt>
      <trkpt lat="45.73664" lon="6.46253">
        <ele>1420</ele>
        <time>2022-07-23T13:33:50Z</time>
      </trkpt>
      <trkpt lat="45.73664" lon="6.46253">
        <ele>1420</ele>
        <time>2022-07-23T13:33:51Z</time>
      </trkpt>
      <trkpt lat="45.73664" lon="6.46254">
        <ele>1420</ele>
        <time>2022-07-23T13:33:52Z</time>
      </trkpt>
      <trkpt lat="45.73664" lon="6.46254">
        <ele>1421</ele>
        <time>2022-07-23T13:33:53Z</time>
      </trkpt>
      <trkpt lat="45.73664" lon="6.46255">
        <ele>1421</ele>
        <time>2022-07-23T13:33:54Z</time>
      </trkpt>
      <trkpt lat="45.73664" lon="6.46255">
        <ele>1422</ele>
        <time>2022-07-23T13:33:55Z</time>
      </trkpt>
      <trkpt lat="45.73663" lon="6.46257">
        <ele>1422</ele>
        <time>2022-07-23T13:33:56Z</time>
      </trkpt>
      <trkpt lat="45.73663" lon="6.46258">
        <ele>1422</ele>
        <time>2022-07-23T13:33:57Z</time>
      </trkpt>
      <trkpt lat="45.73663" lon="6.46259">
        <ele>1422</ele>
        <time>2022-07-23T13:33:58Z</time>
      </trkpt>
      <trkpt lat="45.73662" lon="6.4626">
        <ele>1422</ele>
        <time>2022-07-23T13:33:59Z</time>
      </trkpt>
      <trkpt lat="45.73662" lon="6.4626">
        <ele>1423</ele>
        <time>2022-07-23T13:34:00Z</time>
      </trkpt>
      <trkpt lat="45.73662" lon="6.46261">
        <ele>1423</ele>
        <time>2022-07-23T13:34:01Z</time>
      </trkpt>
      <trkpt lat="45.73662" lon="6.46262">
        <ele>1423</ele>
        <time>2022-07-23T13:34:02Z</time>
      </trkpt>
      <trkpt lat="45.73662" lon="6.46263">
        <ele>1423</ele>
        <time>2022-07-23T13:34:03Z</time>
      </trkpt>
      <trkpt lat="45.73662" lon="6.46264">
        <ele>1423</ele>
        <time>2022-07-23T13:34:04Z</time>
      </trkpt>
      <trkpt lat="45.73661" lon="6.46265">
        <ele>1424</ele>
        <time>2022-07-23T13:34:05Z</time>
      </trkpt>
      <trkpt lat="45.73661" lon="6.46265">
        <ele>1424</ele>
        <time>2022-07-23T13:34:06Z</time>
      </trkpt>
      <trkpt lat="45.73661" lon="6.46266">
        <ele>1424</ele>
        <time>2022-07-23T13:34:07Z</time>
      </trkpt>
      <trkpt lat="45.7366" lon="6.46267">
        <ele>1424</ele>
        <time>2022-07-23T13:34:08Z</time>
      </trkpt>
      <trkpt lat="45.7366" lon="6.46268">
        <ele>1424</ele>
        <time>2022-07-23T13:34:09Z</time>
      </trkpt>
      <trkpt lat="45.73659" lon="6.46268">
        <ele>1425</ele>
        <time>2022-07-23T13:34:10Z</time>
      </trkpt>
      <trkpt lat="45.73659" lon="6.46269">
        <ele>1425</ele>
        <time>2022-07-23T13:34:11Z</time>
      </trkpt>
      <trkpt lat="45.73658" lon="6.46269">
        <ele>1425</ele>
        <time>2022-07-23T13:34:12Z</time>
      </trkpt>
      <trkpt lat="45.73658" lon="6.4627">
        <ele>1425</ele>
        <time>2022-07-23T13:34:13Z</time>
      </trkpt>
      <trkpt lat="45.73657" lon="6.4627">
        <ele>1425</ele>
        <time>2022-07-23T13:34:14Z</time>
      </trkpt>
      <trkpt lat="45.73656" lon="6.46271">
        <ele>1425</ele>
        <time>2022-07-23T13:34:15Z</time>
      </trkpt>
      <trkpt lat="45.73656" lon="6.46271">
        <ele>1425</ele>
        <time>2022-07-23T13:34:16Z</time>
      </trkpt>
      <trkpt lat="45.73656" lon="6.46272">
        <ele>1425</ele>
        <time>2022-07-23T13:34:17Z</time>
      </trkpt>
      <trkpt lat="45.73656" lon="6.46272">
        <ele>1425</ele>
        <time>2022-07-23T13:34:18Z</time>
      </trkpt>
      <trkpt lat="45.73655" lon="6.46272">
        <ele>1425</ele>
        <time>2022-07-23T13:34:19Z</time>
      </trkpt>
      <trkpt lat="45.73655" lon="6.46272">
        <ele>1426</ele>
        <time>2022-07-23T13:34:20Z</time>
      </trkpt>
      <trkpt lat="45.73654" lon="6.46273">
        <ele>1426</ele>
        <time>2022-07-23T13:34:21Z</time>
      </trkpt>
      <trkpt lat="45.73654" lon="6.46274">
        <ele>1426</ele>
        <time>2022-07-23T13:34:22Z</time>
      </trkpt>
      <trkpt lat="45.73653" lon="6.46274">
        <ele>1426</ele>
        <time>2022-07-23T13:34:23Z</time>
      </trkpt>
      <trkpt lat="45.73653" lon="6.46275">
        <ele>1426</ele>
        <time>2022-07-23T13:34:24Z</time>
      </trkpt>
      <trkpt lat="45.73652" lon="6.46277">
        <ele>1428</ele>
        <time>2022-07-23T13:34:30Z</time>
      </trkpt>
      <trkpt lat="45.73652" lon="6.46278">
        <ele>1428</ele>
        <time>2022-07-23T13:34:31Z</time>
      </trkpt>
      <trkpt lat="45.73652" lon="6.46279">
        <ele>1428</ele>
        <time>2022-07-23T13:34:32Z</time>
      </trkpt>
      <trkpt lat="45.73653" lon="6.4628">
        <ele>1428</ele>
        <time>2022-07-23T13:34:33Z</time>
      </trkpt>
      <trkpt lat="45.73653" lon="6.46281">
        <ele>1428</ele>
        <time>2022-07-23T13:34:34Z</time>
      </trkpt>
      <trkpt lat="45.73653" lon="6.46282">
        <ele>1428</ele>
        <time>2022-07-23T13:34:35Z</time>
      </trkpt>
      <trkpt lat="45.73654" lon="6.46283">
        <ele>1428</ele>
        <time>2022-07-23T13:34:36Z</time>
      </trkpt>
      <trkpt lat="45.73654" lon="6.46283">
        <ele>1428</ele>
        <time>2022-07-23T13:34:37Z</time>
      </trkpt>
      <trkpt lat="45.73654" lon="6.46284">
        <ele>1428</ele>
        <time>2022-07-23T13:34:38Z</time>
      </trkpt>
      <trkpt lat="45.73654" lon="6.46284">
        <ele>1428</ele>
        <time>2022-07-23T13:34:39Z</time>
      </trkpt>
      <trkpt lat="45.73655" lon="6.46285">
        <ele>1429</ele>
        <time>2022-07-23T13:34:40Z</time>
      </trkpt>
      <trkpt lat="45.73655" lon="6.46286">
        <ele>1429</ele>
        <time>2022-07-23T13:34:41Z</time>
      </trkpt>
      <trkpt lat="45.73655" lon="6.46286">
        <ele>1429</ele>
        <time>2022-07-23T13:34:42Z</time>
      </trkpt>
      <trkpt lat="45.73656" lon="6.46287">
        <ele>1429</ele>
        <time>2022-07-23T13:34:43Z</time>
      </trkpt>
      <trkpt lat="45.73656" lon="6.46288">
        <ele>1429</ele>
        <time>2022-07-23T13:34:44Z</time>
      </trkpt>
      <trkpt lat="45.73657" lon="6.46288">
        <ele>1430</ele>
        <time>2022-07-23T13:34:45Z</time>
      </trkpt>
      <trkpt lat="45.73657" lon="6.46289">
        <ele>1430</ele>
        <time>2022-07-23T13:34:46Z</time>
      </trkpt>
      <trkpt lat="45.73658" lon="6.46291">
        <ele>1433</ele>
        <time>2022-07-23T13:35:03Z</time>
      </trkpt>
      <trkpt lat="45.73659" lon="6.46292">
        <ele>1433</ele>
        <time>2022-07-23T13:35:04Z</time>
      </trkpt>
      <trkpt lat="45.7366" lon="6.46293">
        <ele>1433</ele>
        <time>2022-07-23T13:35:05Z</time>
      </trkpt>
      <trkpt lat="45.73661" lon="6.46293">
        <ele>1433</ele>
        <time>2022-07-23T13:35:06Z</time>
      </trkpt>
      <trkpt lat="45.73661" lon="6.46294">
        <ele>1433</ele>
        <time>2022-07-23T13:35:07Z</time>
      </trkpt>
      <trkpt lat="45.73662" lon="6.46294">
        <ele>1433</ele>
        <time>2022-07-23T13:35:08Z</time>
      </trkpt>
      <trkpt lat="45.73663" lon="6.46295">
        <ele>1433</ele>
        <time>2022-07-23T13:35:09Z</time>
      </trkpt>
      <trkpt lat="45.73664" lon="6.46295">
        <ele>1434</ele>
        <time>2022-07-23T13:35:10Z</time>
      </trkpt>
      <trkpt lat="45.73665" lon="6.46296">
        <ele>1434</ele>
        <time>2022-07-23T13:35:11Z</time>
      </trkpt>
      <trkpt lat="45.73665" lon="6.46296">
        <ele>1434</ele>
        <time>2022-07-23T13:35:12Z</time>
      </trkpt>
      <trkpt lat="45.73666" lon="6.46297">
        <ele>1434</ele>
        <time>2022-07-23T13:35:13Z</time>
      </trkpt>
      <trkpt lat="45.73667" lon="6.46298">
        <ele>1434</ele>
        <time>2022-07-23T13:35:14Z</time>
      </trkpt>
      <trkpt lat="45.73668" lon="6.46298">
        <ele>1434</ele>
        <time>2022-07-23T13:35:15Z</time>
      </trkpt>
      <trkpt lat="45.73669" lon="6.46299">
        <ele>1434</ele>
        <time>2022-07-23T13:35:16Z</time>
      </trkpt>
      <trkpt lat="45.7367" lon="6.46299">
        <ele>1434</ele>
        <time>2022-07-23T13:35:17Z</time>
      </trkpt>
      <trkpt lat="45.7367" lon="6.463">
        <ele>1434</ele>
        <time>2022-07-23T13:35:18Z</time>
      </trkpt>
      <trkpt lat="45.73671" lon="6.463">
        <ele>1434</ele>
        <time>2022-07-23T13:35:19Z</time>
      </trkpt>
      <trkpt lat="45.73671" lon="6.46301">
        <ele>1435</ele>
        <time>2022-07-23T13:35:20Z</time>
      </trkpt>
      <trkpt lat="45.73673" lon="6.46303">
        <ele>1437</ele>
        <time>2022-07-23T13:37:21Z</time>
      </trkpt>
      <trkpt lat="45.73673" lon="6.46303">
        <ele>1437</ele>
        <time>2022-07-23T13:37:22Z</time>
      </trkpt>
      <trkpt lat="45.73674" lon="6.46304">
        <ele>1437</ele>
        <time>2022-07-23T13:37:23Z</time>
      </trkpt>
      <trkpt lat="45.73674" lon="6.46305">
        <ele>1437</ele>
        <time>2022-07-23T13:37:24Z</time>
      </trkpt>
      <trkpt lat="45.73674" lon="6.46305">
        <ele>1437</ele>
        <time>2022-07-23T13:37:25Z</time>
      </trkpt>
      <trkpt lat="45.73674" lon="6.46306">
        <ele>1437</ele>
        <time>2022-07-23T13:37:26Z</time>
      </trkpt>
      <trkpt lat="45.73674" lon="6.46307">
        <ele>1437</ele>
        <time>2022-07-23T13:37:27Z</time>
      </trkpt>
      <trkpt lat="45.73674" lon="6.46308">
        <ele>1437</ele>
        <time>2022-07-23T13:37:28Z</time>
      </trkpt>
      <trkpt lat="45.73674" lon="6.46309">
        <ele>1437</ele>
        <time>2022-07-23T13:37:29Z</time>
      </trkpt>
      <trkpt lat="45.73674" lon="6.4631">
        <ele>1437</ele>
        <time>2022-07-23T13:37:30Z</time>
      </trkpt>
      <trkpt lat="45.73674" lon="6.46311">
        <ele>1437</ele>
        <time>2022-07-23T13:37:31Z</time>
      </trkpt>
      <trkpt lat="45.73674" lon="6.46312">
        <ele>1437</ele>
        <time>2022-07-23T13:37:32Z</time>
      </trkpt>
      <trkpt lat="45.73673" lon="6.46313">
        <ele>1437</ele>
        <time>2022-07-23T13:37:33Z</time>
      </trkpt>
      <trkpt lat="45.73674" lon="6.46314">
        <ele>1437</ele>
        <time>2022-07-23T13:37:34Z</time>
      </trkpt>
      <trkpt lat="45.73674" lon="6.46315">
        <ele>1437</ele>
        <time>2022-07-23T13:37:35Z</time>
      </trkpt>
      <trkpt lat="45.73674" lon="6.46316">
        <ele>1437</ele>
        <time>2022-07-23T13:37:36Z</time>
      </trkpt>
      <trkpt lat="45.73674" lon="6.46317">
        <ele>1437</ele>
        <time>2022-07-23T13:37:37Z</time>
      </trkpt>
      <trkpt lat="45.73674" lon="6.46318">
        <ele>1437</ele>
        <time>2022-07-23T13:37:38Z</time>
      </trkpt>
      <trkpt lat="45.73674" lon="6.46319">
        <ele>1437</ele>
        <time>2022-07-23T13:37:39Z</time>
      </trkpt>
      <trkpt lat="45.73674" lon="6.4632">
        <ele>1438</ele>
        <time>2022-07-23T13:37:40Z</time>
      </trkpt>
      <trkpt lat="45.73674" lon="6.46321">
        <ele>1438</ele>
        <time>2022-07-23T13:37:41Z</time>
      </trkpt>
      <trkpt lat="45.73674" lon="6.46322">
        <ele>1438</ele>
        <time>2022-07-23T13:37:42Z</time>
      </trkpt>
      <trkpt lat="45.73674" lon="6.46322">
        <ele>1438</ele>
        <time>2022-07-23T13:37:43Z</time>
      </trkpt>
      <trkpt lat="45.73674" lon="6.46326">
        <ele>1440</ele>
        <time>2022-07-23T13:37:59Z</time>
      </trkpt>
      <trkpt lat="45.73674" lon="6.46328">
        <ele>1441</ele>
        <time>2022-07-23T13:38:00Z</time>
      </trkpt>
      <trkpt lat="45.73675" lon="6.4633">
        <ele>1441</ele>
        <time>2022-07-23T13:38:01Z</time>
      </trkpt>
      <trkpt lat="45.73675" lon="6.46331">
        <ele>1441</ele>
        <time>2022-07-23T13:38:02Z</time>
      </trkpt>
      <trkpt lat="45.73675" lon="6.46333">
        <ele>1441</ele>
        <time>2022-07-23T13:38:03Z</time>
      </trkpt>
      <trkpt lat="45.73675" lon="6.46334">
        <ele>1441</ele>
        <time>2022-07-23T13:38:04Z</time>
      </trkpt>
      <trkpt lat="45.73675" lon="6.46335">
        <ele>1441</ele>
        <time>2022-07-23T13:38:05Z</time>
      </trkpt>
      <trkpt lat="45.73676" lon="6.46336">
        <ele>1441</ele>
        <time>2022-07-23T13:38:06Z</time>
      </trkpt>
      <trkpt lat="45.73676" lon="6.46337">
        <ele>1441</ele>
        <time>2022-07-23T13:38:07Z</time>
      </trkpt>
      <trkpt lat="45.73676" lon="6.46338">
        <ele>1441</ele>
        <time>2022-07-23T13:38:08Z</time>
      </trkpt>
      <trkpt lat="45.73676" lon="6.46339">
        <ele>1441</ele>
        <time>2022-07-23T13:38:09Z</time>
      </trkpt>
      <trkpt lat="45.73677" lon="6.4634">
        <ele>1442</ele>
        <time>2022-07-23T13:38:10Z</time>
      </trkpt>
      <trkpt lat="45.73677" lon="6.46341">
        <ele>1442</ele>
        <time>2022-07-23T13:38:11Z</time>
      </trkpt>
      <trkpt lat="45.73677" lon="6.46342">
        <ele>1442</ele>
        <time>2022-07-23T13:38:12Z</time>
      </trkpt>
      <trkpt lat="45.73677" lon="6.46343">
        <ele>1442</ele>
        <time>2022-07-23T13:38:13Z</time>
      </trkpt>
      <trkpt lat="45.73677" lon="6.46344">
        <ele>1442</ele>
        <time>2022-07-23T13:38:14Z</time>
      </trkpt>
      <trkpt lat="45.73677" lon="6.46345">
        <ele>1442</ele>
        <time>2022-07-23T13:38:15Z</time>
      </trkpt>
      <trkpt lat="45.73677" lon="6.46345">
        <ele>1442</ele>
        <time>2022-07-23T13:38:16Z</time>
      </trkpt>
      <trkpt lat="45.73676" lon="6.46346">
        <ele>1442</ele>
        <time>2022-07-23T13:38:17Z</time>
      </trkpt>
      <trkpt lat="45.73676" lon="6.4635">
        <ele>1444</ele>
        <time>2022-07-23T13:38:30Z</time>
      </trkpt>
      <trkpt lat="45.73676" lon="6.46352">
        <ele>1444</ele>
        <time>2022-07-23T13:38:31Z</time>
      </trkpt>
      <trkpt lat="45.73677" lon="6.46354">
        <ele>1444</ele>
        <time>2022-07-23T13:38:32Z</time>
      </trkpt>
      <trkpt lat="45.73677" lon="6.46355">
        <ele>1444</ele>
        <time>2022-07-23T13:38:33Z</time>
      </trkpt>
      <trkpt lat="45.73677" lon="6.46355">
        <ele>1444</ele>
        <time>2022-07-23T13:38:34Z</time>
      </trkpt>
      <trkpt lat="45.73677" lon="6.46356">
        <ele>1445</ele>
        <time>2022-07-23T13:38:35Z</time>
      </trkpt>
      <trkpt lat="45.73677" lon="6.46357">
        <ele>1445</ele>
        <time>2022-07-23T13:38:36Z</time>
      </trkpt>
      <trkpt lat="45.73676" lon="6.46358">
        <ele>1445</ele>
        <time>2022-07-23T13:38:37Z</time>
      </trkpt>
      <trkpt lat="45.73676" lon="6.46359">
        <ele>1445</ele>
        <time>2022-07-23T13:38:38Z</time>
      </trkpt>
      <trkpt lat="45.73676" lon="6.4636">
        <ele>1445</ele>
        <time>2022-07-23T13:38:39Z</time>
      </trkpt>
      <trkpt lat="45.73676" lon="6.46361">
        <ele>1445</ele>
        <time>2022-07-23T13:38:40Z</time>
      </trkpt>
      <trkpt lat="45.73676" lon="6.46362">
        <ele>1445</ele>
        <time>2022-07-23T13:38:41Z</time>
      </trkpt>
      <trkpt lat="45.73676" lon="6.46363">
        <ele>1445</ele>
        <time>2022-07-23T13:38:42Z</time>
      </trkpt>
      <trkpt lat="45.73676" lon="6.46364">
        <ele>1445</ele>
        <time>2022-07-23T13:38:43Z</time>
      </trkpt>
      <trkpt lat="45.73676" lon="6.46365">
        <ele>1445</ele>
        <time>2022-07-23T13:38:44Z</time>
      </trkpt>
      <trkpt lat="45.73676" lon="6.46366">
        <ele>1446</ele>
        <time>2022-07-23T13:38:45Z</time>
      </trkpt>
      <trkpt lat="45.73676" lon="6.46367">
        <ele>1446</ele>
        <time>2022-07-23T13:38:46Z</time>
      </trkpt>
      <trkpt lat="45.73675" lon="6.46367">
        <ele>1446</ele>
        <time>2022-07-23T13:38:47Z</time>
      </trkpt>
      <trkpt lat="45.73675" lon="6.46368">
        <ele>1446</ele>
        <time>2022-07-23T13:38:48Z</time>
      </trkpt>
      <trkpt lat="45.73675" lon="6.46369">
        <ele>1446</ele>
        <time>2022-07-23T13:38:49Z</time>
      </trkpt>
      <trkpt lat="45.73675" lon="6.4637">
        <ele>1446</ele>
        <time>2022-07-23T13:38:50Z</time>
      </trkpt>
      <trkpt lat="45.73674" lon="6.46371">
        <ele>1446</ele>
        <time>2022-07-23T13:38:51Z</time>
      </trkpt>
      <trkpt lat="45.73674" lon="6.46372">
        <ele>1446</ele>
        <time>2022-07-23T13:38:52Z</time>
      </trkpt>
      <trkpt lat="45.73673" lon="6.46373">
        <ele>1446</ele>
        <time>2022-07-23T13:38:53Z</time>
      </trkpt>
      <trkpt lat="45.73673" lon="6.46374">
        <ele>1446</ele>
        <time>2022-07-23T13:38:54Z</time>
      </trkpt>
      <trkpt lat="45.73673" lon="6.46375">
        <ele>1447</ele>
        <time>2022-07-23T13:38:55Z</time>
      </trkpt>
      <trkpt lat="45.73672" lon="6.46377">
        <ele>1449</ele>
        <time>2022-07-23T13:40:12Z</time>
      </trkpt>
      <trkpt lat="45.73672" lon="6.46377">
        <ele>1449</ele>
        <time>2022-07-23T13:40:13Z</time>
      </trkpt>
      <trkpt lat="45.73671" lon="6.46378">
        <ele>1449</ele>
        <time>2022-07-23T13:40:14Z</time>
      </trkpt>
      <trkpt lat="45.73671" lon="6.46378">
        <ele>1449</ele>
        <time>2022-07-23T13:40:15Z</time>
      </trkpt>
      <trkpt lat="45.73671" lon="6.46379">
        <ele>1449</ele>
        <time>2022-07-23T13:40:16Z</time>
      </trkpt>
      <trkpt lat="45.7367" lon="6.4638">
        <ele>1449</ele>
        <time>2022-07-23T13:40:17Z</time>
      </trkpt>
      <trkpt lat="45.7367" lon="6.46381">
        <ele>1449</ele>
        <time>2022-07-23T13:40:18Z</time>
      </trkpt>
      <trkpt lat="45.7367" lon="6.46381">
        <ele>1449</ele>
        <time>2022-07-23T13:40:19Z</time>
      </trkpt>
      <trkpt lat="45.73669" lon="6.46382">
        <ele>1449</ele>
        <time>2022-07-23T13:40:20Z</time>
      </trkpt>
      <trkpt lat="45.73669" lon="6.46383">
        <ele>1449</ele>
        <time>2022-07-23T13:40:21Z</time>
      </trkpt>
      <trkpt lat="45.73669" lon="6.46384">
        <ele>1449</ele>
        <time>2022-07-23T13:40:22Z</time>
      </trkpt>
      <trkpt lat="45.73669" lon="6.46385">
        <ele>1449</ele>
        <time>2022-07-23T13:40:23Z</time>
      </trkpt>
      <trkpt lat="45.73669" lon="6.46386">
        <ele>1449</ele>
        <time>2022-07-23T13:40:24Z</time>
      </trkpt>
      <trkpt lat="45.7367" lon="6.46387">
        <ele>1449</ele>
        <time>2022-07-23T13:40:25Z</time>
      </trkpt>
      <trkpt lat="45.7367" lon="6.46388">
        <ele>1449</ele>
        <time>2022-07-23T13:40:26Z</time>
      </trkpt>
      <trkpt lat="45.7367" lon="6.46389">
        <ele>1449</ele>
        <time>2022-07-23T13:40:27Z</time>
      </trkpt>
      <trkpt lat="45.7367" lon="6.4639">
        <ele>1449</ele>
        <time>2022-07-23T13:40:28Z</time>
      </trkpt>
      <trkpt lat="45.7367" lon="6.46391">
        <ele>1449</ele>
        <time>2022-07-23T13:40:29Z</time>
      </trkpt>
      <trkpt lat="45.73671" lon="6.46392">
        <ele>1450</ele>
        <time>2022-07-23T13:40:30Z</time>
      </trkpt>
      <trkpt lat="45.73671" lon="6.46393">
        <ele>1450</ele>
        <time>2022-07-23T13:40:31Z</time>
      </trkpt>
      <trkpt lat="45.73671" lon="6.46394">
        <ele>1450</ele>
        <time>2022-07-23T13:40:32Z</time>
      </trkpt>
      <trkpt lat="45.73671" lon="6.46394">
        <ele>1450</ele>
        <time>2022-07-23T13:40:33Z</time>
      </trkpt>
      <trkpt lat="45.73671" lon="6.46395">
        <ele>1450</ele>
        <time>2022-07-23T13:40:34Z</time>
      </trkpt>
      <trkpt lat="45.73671" lon="6.46396">
        <ele>1450</ele>
        <time>2022-07-23T13:40:35Z</time>
      </trkpt>
      <trkpt lat="45.73671" lon="6.46397">
        <ele>1450</ele>
        <time>2022-07-23T13:40:36Z</time>
      </trkpt>
      <trkpt lat="45.73671" lon="6.46398">
        <ele>1450</ele>
        <time>2022-07-23T13:40:37Z</time>
      </trkpt>
      <trkpt lat="45.73671" lon="6.46399">
        <ele>1450</ele>
        <time>2022-07-23T13:40:38Z</time>
      </trkpt>
      <trkpt lat="45.73671" lon="6.46399">
        <ele>1450</ele>
        <time>2022-07-23T13:40:39Z</time>
      </trkpt>
      <trkpt lat="45.73671" lon="6.464">
        <ele>1450</ele>
        <time>2022-07-23T13:40:40Z</time>
      </trkpt>
      <trkpt lat="45.7367" lon="6.46401">
        <ele>1450</ele>
        <time>2022-07-23T13:40:41Z</time>
      </trkpt>
      <trkpt lat="45.7367" lon="6.46402">
        <ele>1450</ele>
        <time>2022-07-23T13:40:42Z</time>
      </trkpt>
      <trkpt lat="45.7367" lon="6.46406">
        <ele>1452</ele>
        <time>2022-07-23T13:40:59Z</time>
      </trkpt>
      <trkpt lat="45.7367" lon="6.46409">
        <ele>1453</ele>
        <time>2022-07-23T13:41:00Z</time>
      </trkpt>
      <trkpt lat="45.7367" lon="6.46411">
        <ele>1453</ele>
        <time>2022-07-23T13:41:01Z</time>
      </trkpt>
      <trkpt lat="45.7367" lon="6.46412">
        <ele>1453</ele>
        <time>2022-07-23T13:41:02Z</time>
      </trkpt>
      <trkpt lat="45.7367" lon="6.46414">
        <ele>1453</ele>
        <time>2022-07-23T13:41:03Z</time>
      </trkpt>
      <trkpt lat="45.7367" lon="6.46415">
        <ele>1453</ele>
        <time>2022-07-23T13:41:04Z</time>
      </trkpt>
      <trkpt lat="45.7367" lon="6.46416">
        <ele>1454</ele>
        <time>2022-07-23T13:41:05Z</time>
      </trkpt>
      <trkpt lat="45.7367" lon="6.46417">
        <ele>1454</ele>
        <time>2022-07-23T13:41:06Z</time>
      </trkpt>
      <trkpt lat="45.7367" lon="6.46418">
        <ele>1454</ele>
        <time>2022-07-23T13:41:07Z</time>
      </trkpt>
      <trkpt lat="45.7367" lon="6.46419">
        <ele>1454</ele>
        <time>2022-07-23T13:41:08Z</time>
      </trkpt>
      <trkpt lat="45.73671" lon="6.4642">
        <ele>1454</ele>
        <time>2022-07-23T13:41:09Z</time>
      </trkpt>
      <trkpt lat="45.73671" lon="6.46421">
        <ele>1455</ele>
        <time>2022-07-23T13:41:10Z</time>
      </trkpt>
      <trkpt lat="45.73671" lon="6.46423">
        <ele>1455</ele>
        <time>2022-07-23T13:41:11Z</time>
      </trkpt>
      <trkpt lat="45.7367" lon="6.46424">
        <ele>1455</ele>
        <time>2022-07-23T13:41:12Z</time>
      </trkpt>
      <trkpt lat="45.7367" lon="6.46425">
        <ele>1455</ele>
        <time>2022-07-23T13:41:13Z</time>
      </trkpt>
      <trkpt lat="45.7367" lon="6.46426">
        <ele>1455</ele>
        <time>2022-07-23T13:41:14Z</time>
      </trkpt>
      <trkpt lat="45.7367" lon="6.46428">
        <ele>1456</ele>
        <time>2022-07-23T13:41:15Z</time>
      </trkpt>
      <trkpt lat="45.73669" lon="6.46429">
        <ele>1456</ele>
        <time>2022-07-23T13:41:16Z</time>
      </trkpt>
      <trkpt lat="45.73669" lon="6.46429">
        <ele>1456</ele>
        <time>2022-07-23T13:41:17Z</time>
      </trkpt>
      <trkpt lat="45.73669" lon="6.4643">
        <ele>1456</ele>
        <time>2022-07-23T13:41:18Z</time>
      </trkpt>
      <trkpt lat="45.73669" lon="6.46431">
        <ele>1456</ele>
        <time>2022-07-23T13:41:19Z</time>
      </trkpt>
      <trkpt lat="45.73668" lon="6.46432">
        <ele>1456</ele>
        <time>2022-07-23T13:41:20Z</time>
      </trkpt>
      <trkpt lat="45.73668" lon="6.46433">
        <ele>1456</ele>
        <time>2022-07-23T13:41:21Z</time>
      </trkpt>
      <trkpt lat="45.73668" lon="6.46434">
        <ele>1456</ele>
        <time>2022-07-23T13:41:22Z</time>
      </trkpt>
      <trkpt lat="45.73668" lon="6.46435">
        <ele>1457</ele>
        <time>2022-07-23T13:41:23Z</time>
      </trkpt>
      <trkpt lat="45.73668" lon="6.46436">
        <ele>1457</ele>
        <time>2022-07-23T13:41:24Z</time>
      </trkpt>
      <trkpt lat="45.73668" lon="6.46436">
        <ele>1458</ele>
        <time>2022-07-23T13:41:25Z</time>
      </trkpt>
      <trkpt lat="45.73668" lon="6.46437">
        <ele>1458</ele>
        <time>2022-07-23T13:41:26Z</time>
      </trkpt>
      <trkpt lat="45.73668" lon="6.46438">
        <ele>1458</ele>
        <time>2022-07-23T13:41:27Z</time>
      </trkpt>
      <trkpt lat="45.73668" lon="6.46439">
        <ele>1458</ele>
        <time>2022-07-23T13:41:28Z</time>
      </trkpt>
      <trkpt lat="45.73668" lon="6.4644">
        <ele>1458</ele>
        <time>2022-07-23T13:41:29Z</time>
      </trkpt>
      <trkpt lat="45.73668" lon="6.46441">
        <ele>1459</ele>
        <time>2022-07-23T13:41:30Z</time>
      </trkpt>
      <trkpt lat="45.73668" lon="6.46442">
        <ele>1459</ele>
        <time>2022-07-23T13:41:31Z</time>
      </trkpt>
      <trkpt lat="45.73668" lon="6.46443">
        <ele>1459</ele>
        <time>2022-07-23T13:41:32Z</time>
      </trkpt>
      <trkpt lat="45.73669" lon="6.46444">
        <ele>1459</ele>
        <time>2022-07-23T13:41:33Z</time>
      </trkpt>
      <trkpt lat="45.73669" lon="6.46445">
        <ele>1459</ele>
        <time>2022-07-23T13:41:34Z</time>
      </trkpt>
      <trkpt lat="45.73669" lon="6.46447">
        <ele>1460</ele>
        <time>2022-07-23T13:41:35Z</time>
      </trkpt>
      <trkpt lat="45.73669" lon="6.46448">
        <ele>1460</ele>
        <time>2022-07-23T13:41:36Z</time>
      </trkpt>
      <trkpt lat="45.73669" lon="6.46449">
        <ele>1460</ele>
        <time>2022-07-23T13:41:37Z</time>
      </trkpt>
      <trkpt lat="45.73669" lon="6.46449">
        <ele>1460</ele>
        <time>2022-07-23T13:41:38Z</time>
      </trkpt>
      <trkpt lat="45.73669" lon="6.4645">
        <ele>1460</ele>
        <time>2022-07-23T13:41:39Z</time>
      </trkpt>
      <trkpt lat="45.7367" lon="6.46452">
        <ele>1463</ele>
        <time>2022-07-23T13:42:15Z</time>
      </trkpt>
      <trkpt lat="45.73671" lon="6.46453">
        <ele>1463</ele>
        <time>2022-07-23T13:42:16Z</time>
      </trkpt>
      <trkpt lat="45.73671" lon="6.46454">
        <ele>1463</ele>
        <time>2022-07-23T13:42:17Z</time>
      </trkpt>
      <trkpt lat="45.73671" lon="6.46454">
        <ele>1463</ele>
        <time>2022-07-23T13:42:18Z</time>
      </trkpt>
      <trkpt lat="45.73671" lon="6.46455">
        <ele>1463</ele>
        <time>2022-07-23T13:42:19Z</time>
      </trkpt>
      <trkpt lat="45.73671" lon="6.46455">
        <ele>1463</ele>
        <time>2022-07-23T13:42:20Z</time>
      </trkpt>
      <trkpt lat="45.73671" lon="6.46456">
        <ele>1463</ele>
        <time>2022-07-23T13:42:21Z</time>
      </trkpt>
      <trkpt lat="45.7367" lon="6.46456">
        <ele>1463</ele>
        <time>2022-07-23T13:42:22Z</time>
      </trkpt>
      <trkpt lat="45.7367" lon="6.46457">
        <ele>1463</ele>
        <time>2022-07-23T13:42:23Z</time>
      </trkpt>
      <trkpt lat="45.73669" lon="6.46458">
        <ele>1463</ele>
        <time>2022-07-23T13:42:24Z</time>
      </trkpt>
      <trkpt lat="45.73669" lon="6.46459">
        <ele>1464</ele>
        <time>2022-07-23T13:42:25Z</time>
      </trkpt>
      <trkpt lat="45.73669" lon="6.46459">
        <ele>1464</ele>
        <time>2022-07-23T13:42:26Z</time>
      </trkpt>
      <trkpt lat="45.73668" lon="6.4646">
        <ele>1464</ele>
        <time>2022-07-23T13:42:27Z</time>
      </trkpt>
      <trkpt lat="45.73668" lon="6.46461">
        <ele>1464</ele>
        <time>2022-07-23T13:42:28Z</time>
      </trkpt>
      <trkpt lat="45.73667" lon="6.46466">
        <ele>1467</ele>
        <time>2022-07-23T13:42:50Z</time>
      </trkpt>
      <trkpt lat="45.73667" lon="6.46469">
        <ele>1467</ele>
        <time>2022-07-23T13:42:51Z</time>
      </trkpt>
      <trkpt lat="45.73667" lon="6.46472">
        <ele>1467</ele>
        <time>2022-07-23T13:42:52Z</time>
      </trkpt>
      <trkpt lat="45.73667" lon="6.46473">
        <ele>1467</ele>
        <time>2022-07-23T13:42:53Z</time>
      </trkpt>
      <trkpt lat="45.73668" lon="6.46475">
        <ele>1467</ele>
        <time>2022-07-23T13:42:54Z</time>
      </trkpt>
      <trkpt lat="45.73668" lon="6.46476">
        <ele>1467</ele>
        <time>2022-07-23T13:42:55Z</time>
      </trkpt>
      <trkpt lat="45.73668" lon="6.46478">
        <ele>1467</ele>
        <time>2022-07-23T13:42:56Z</time>
      </trkpt>
      <trkpt lat="45.73668" lon="6.46479">
        <ele>1467</ele>
        <time>2022-07-23T13:42:57Z</time>
      </trkpt>
      <trkpt lat="45.73668" lon="6.4648">
        <ele>1468</ele>
        <time>2022-07-23T13:42:58Z</time>
      </trkpt>
      <trkpt lat="45.73668" lon="6.46484">
        <ele>1469</ele>
        <time>2022-07-23T13:43:09Z</time>
      </trkpt>
      <trkpt lat="45.73668" lon="6.46486">
        <ele>1470</ele>
        <time>2022-07-23T13:43:10Z</time>
      </trkpt>
      <trkpt lat="45.73668" lon="6.46488">
        <ele>1470</ele>
        <time>2022-07-23T13:43:11Z</time>
      </trkpt>
      <trkpt lat="45.73668" lon="6.4649">
        <ele>1470</ele>
        <time>2022-07-23T13:43:12Z</time>
      </trkpt>
      <trkpt lat="45.73669" lon="6.46491">
        <ele>1470</ele>
        <time>2022-07-23T13:43:13Z</time>
      </trkpt>
      <trkpt lat="45.73669" lon="6.46492">
        <ele>1470</ele>
        <time>2022-07-23T13:43:14Z</time>
      </trkpt>
      <trkpt lat="45.73669" lon="6.46493">
        <ele>1471</ele>
        <time>2022-07-23T13:43:15Z</time>
      </trkpt>
      <trkpt lat="45.73669" lon="6.46494">
        <ele>1471</ele>
        <time>2022-07-23T13:43:16Z</time>
      </trkpt>
      <trkpt lat="45.73669" lon="6.46495">
        <ele>1471</ele>
        <time>2022-07-23T13:43:17Z</time>
      </trkpt>
      <trkpt lat="45.7367" lon="6.46496">
        <ele>1471</ele>
        <time>2022-07-23T13:43:18Z</time>
      </trkpt>
      <trkpt lat="45.7367" lon="6.46496">
        <ele>1471</ele>
        <time>2022-07-23T13:43:19Z</time>
      </trkpt>
      <trkpt lat="45.73669" lon="6.46499">
        <ele>1473</ele>
        <time>2022-07-23T13:43:32Z</time>
      </trkpt>
      <trkpt lat="45.73669" lon="6.46501">
        <ele>1473</ele>
        <time>2022-07-23T13:43:33Z</time>
      </trkpt>
      <trkpt lat="45.73669" lon="6.46503">
        <ele>1473</ele>
        <time>2022-07-23T13:43:34Z</time>
      </trkpt>
      <trkpt lat="45.73669" lon="6.46504">
        <ele>1474</ele>
        <time>2022-07-23T13:43:35Z</time>
      </trkpt>
      <trkpt lat="45.73669" lon="6.46505">
        <ele>1474</ele>
        <time>2022-07-23T13:43:36Z</time>
      </trkpt>
      <trkpt lat="45.73669" lon="6.46506">
        <ele>1474</ele>
        <time>2022-07-23T13:43:37Z</time>
      </trkpt>
      <trkpt lat="45.73669" lon="6.46507">
        <ele>1475</ele>
        <time>2022-07-23T13:43:38Z</time>
      </trkpt>
      <trkpt lat="45.73669" lon="6.46508">
        <ele>1475</ele>
        <time>2022-07-23T13:43:39Z</time>
      </trkpt>
      <trkpt lat="45.73669" lon="6.46509">
        <ele>1476</ele>
        <time>2022-07-23T13:43:40Z</time>
      </trkpt>
      <trkpt lat="45.73669" lon="6.4651">
        <ele>1476</ele>
        <time>2022-07-23T13:43:41Z</time>
      </trkpt>
      <trkpt lat="45.73669" lon="6.46512">
        <ele>1476</ele>
        <time>2022-07-23T13:43:42Z</time>
      </trkpt>
      <trkpt lat="45.73669" lon="6.46512">
        <ele>1476</ele>
        <time>2022-07-23T13:43:43Z</time>
      </trkpt>
      <trkpt lat="45.73669" lon="6.46513">
        <ele>1476</ele>
        <time>2022-07-23T13:43:44Z</time>
      </trkpt>
      <trkpt lat="45.73669" lon="6.46514">
        <ele>1477</ele>
        <time>2022-07-23T13:43:45Z</time>
      </trkpt>
      <trkpt lat="45.73669" lon="6.46515">
        <ele>1477</ele>
        <time>2022-07-23T13:43:46Z</time>
      </trkpt>
      <trkpt lat="45.73669" lon="6.46517">
        <ele>1477</ele>
        <time>2022-07-23T13:43:47Z</time>
      </trkpt>
      <trkpt lat="45.73669" lon="6.46517">
        <ele>1477</ele>
        <time>2022-07-23T13:43:48Z</time>
      </trkpt>
      <trkpt lat="45.73669" lon="6.46518">
        <ele>1477</ele>
        <time>2022-07-23T13:43:49Z</time>
      </trkpt>
      <trkpt lat="45.73668" lon="6.46519">
        <ele>1479</ele>
        <time>2022-07-23T13:44:40Z</time>
      </trkpt>
      <trkpt lat="45.73668" lon="6.4652">
        <ele>1479</ele>
        <time>2022-07-23T13:44:41Z</time>
      </trkpt>
      <trkpt lat="45.73668" lon="6.46521">
        <ele>1479</ele>
        <time>2022-07-23T13:44:42Z</time>
      </trkpt>
      <trkpt lat="45.73668" lon="6.46522">
        <ele>1479</ele>
        <time>2022-07-23T13:44:43Z</time>
      </trkpt>
      <trkpt lat="45.73668" lon="6.46523">
        <ele>1479</ele>
        <time>2022-07-23T13:44:44Z</time>
      </trkpt>
      <trkpt lat="45.73669" lon="6.46524">
        <ele>1479</ele>
        <time>2022-07-23T13:44:45Z</time>
      </trkpt>
      <trkpt lat="45.73669" lon="6.46525">
        <ele>1479</ele>
        <time>2022-07-23T13:44:46Z</time>
      </trkpt>
      <trkpt lat="45.7367" lon="6.46526">
        <ele>1479</ele>
        <time>2022-07-23T13:44:47Z</time>
      </trkpt>
      <trkpt lat="45.7367" lon="6.46527">
        <ele>1479</ele>
        <time>2022-07-23T13:44:48Z</time>
      </trkpt>
      <trkpt lat="45.73671" lon="6.46528">
        <ele>1479</ele>
        <time>2022-07-23T13:44:49Z</time>
      </trkpt>
      <trkpt lat="45.73672" lon="6.46529">
        <ele>1479</ele>
        <time>2022-07-23T13:44:50Z</time>
      </trkpt>
      <trkpt lat="45.73672" lon="6.4653">
        <ele>1479</ele>
        <time>2022-07-23T13:44:51Z</time>
      </trkpt>
      <trkpt lat="45.73673" lon="6.46531">
        <ele>1479</ele>
        <time>2022-07-23T13:44:52Z</time>
      </trkpt>
      <trkpt lat="45.73674" lon="6.46532">
        <ele>1479</ele>
        <time>2022-07-23T13:44:53Z</time>
      </trkpt>
      <trkpt lat="45.73675" lon="6.46532">
        <ele>1479</ele>
        <time>2022-07-23T13:44:54Z</time>
      </trkpt>
      <trkpt lat="45.73675" lon="6.46533">
        <ele>1480</ele>
        <time>2022-07-23T13:44:55Z</time>
      </trkpt>
      <trkpt lat="45.73676" lon="6.46534">
        <ele>1480</ele>
        <time>2022-07-23T13:44:56Z</time>
      </trkpt>
      <trkpt lat="45.73676" lon="6.46534">
        <ele>1480</ele>
        <time>2022-07-23T13:44:57Z</time>
      </trkpt>
      <trkpt lat="45.73677" lon="6.46535">
        <ele>1480</ele>
        <time>2022-07-23T13:44:58Z</time>
      </trkpt>
      <trkpt lat="45.73677" lon="6.46535">
        <ele>1480</ele>
        <time>2022-07-23T13:44:59Z</time>
      </trkpt>
      <trkpt lat="45.73678" lon="6.46536">
        <ele>1481</ele>
        <time>2022-07-23T13:45:00Z</time>
      </trkpt>
      <trkpt lat="45.73678" lon="6.46536">
        <ele>1481</ele>
        <time>2022-07-23T13:45:01Z</time>
      </trkpt>
      <trkpt lat="45.73679" lon="6.46537">
        <ele>1481</ele>
        <time>2022-07-23T13:45:02Z</time>
      </trkpt>
      <trkpt lat="45.73679" lon="6.46537">
        <ele>1481</ele>
        <time>2022-07-23T13:45:03Z</time>
      </trkpt>
      <trkpt lat="45.7368" lon="6.46538">
        <ele>1481</ele>
        <time>2022-07-23T13:45:04Z</time>
      </trkpt>
      <trkpt lat="45.7368" lon="6.46539">
        <ele>1481</ele>
        <time>2022-07-23T13:45:05Z</time>
      </trkpt>
      <trkpt lat="45.73681" lon="6.46539">
        <ele>1481</ele>
        <time>2022-07-23T13:45:06Z</time>
      </trkpt>
      <trkpt lat="45.73681" lon="6.4654">
        <ele>1481</ele>
        <time>2022-07-23T13:45:07Z</time>
      </trkpt>
      <trkpt lat="45.73682" lon="6.46541">
        <ele>1481</ele>
        <time>2022-07-23T13:45:08Z</time>
      </trkpt>
      <trkpt lat="45.73682" lon="6.46542">
        <ele>1481</ele>
        <time>2022-07-23T13:45:09Z</time>
      </trkpt>
      <trkpt lat="45.73682" lon="6.46542">
        <ele>1482</ele>
        <time>2022-07-23T13:45:10Z</time>
      </trkpt>
      <trkpt lat="45.73682" lon="6.46543">
        <ele>1482</ele>
        <time>2022-07-23T13:45:11Z</time>
      </trkpt>
      <trkpt lat="45.73682" lon="6.46544">
        <ele>1482</ele>
        <time>2022-07-23T13:45:12Z</time>
      </trkpt>
      <trkpt lat="45.73683" lon="6.46545">
        <ele>1482</ele>
        <time>2022-07-23T13:45:13Z</time>
      </trkpt>
      <trkpt lat="45.73683" lon="6.46545">
        <ele>1482</ele>
        <time>2022-07-23T13:45:14Z</time>
      </trkpt>
      <trkpt lat="45.73683" lon="6.46546">
        <ele>1482</ele>
        <time>2022-07-23T13:45:15Z</time>
      </trkpt>
      <trkpt lat="45.73683" lon="6.46547">
        <ele>1482</ele>
        <time>2022-07-23T13:45:16Z</time>
      </trkpt>
      <trkpt lat="45.73684" lon="6.46547">
        <ele>1482</ele>
        <time>2022-07-23T13:45:17Z</time>
      </trkpt>
      <trkpt lat="45.73684" lon="6.46548">
        <ele>1482</ele>
        <time>2022-07-23T13:45:18Z</time>
      </trkpt>
      <trkpt lat="45.73684" lon="6.46548">
        <ele>1482</ele>
        <time>2022-07-23T13:45:19Z</time>
      </trkpt>
      <trkpt lat="45.73685" lon="6.46549">
        <ele>1483</ele>
        <time>2022-07-23T13:45:20Z</time>
      </trkpt>
      <trkpt lat="45.73685" lon="6.4655">
        <ele>1483</ele>
        <time>2022-07-23T13:45:21Z</time>
      </trkpt>
      <trkpt lat="45.73686" lon="6.4655">
        <ele>1483</ele>
        <time>2022-07-23T13:45:22Z</time>
      </trkpt>
      <trkpt lat="45.73686" lon="6.46551">
        <ele>1483</ele>
        <time>2022-07-23T13:45:23Z</time>
      </trkpt>
      <trkpt lat="45.73687" lon="6.46552">
        <ele>1483</ele>
        <time>2022-07-23T13:45:24Z</time>
      </trkpt>
      <trkpt lat="45.73687" lon="6.46552">
        <ele>1484</ele>
        <time>2022-07-23T13:45:25Z</time>
      </trkpt>
      <trkpt lat="45.73688" lon="6.46553">
        <ele>1484</ele>
        <time>2022-07-23T13:45:26Z</time>
      </trkpt>
      <trkpt lat="45.73688" lon="6.46554">
        <ele>1484</ele>
        <time>2022-07-23T13:45:27Z</time>
      </trkpt>
      <trkpt lat="45.73689" lon="6.46554">
        <ele>1484</ele>
        <time>2022-07-23T13:45:28Z</time>
      </trkpt>
      <trkpt lat="45.73689" lon="6.46555">
        <ele>1484</ele>
        <time>2022-07-23T13:45:29Z</time>
      </trkpt>
      <trkpt lat="45.7369" lon="6.46556">
        <ele>1484</ele>
        <time>2022-07-23T13:45:30Z</time>
      </trkpt>
      <trkpt lat="45.73691" lon="6.46556">
        <ele>1484</ele>
        <time>2022-07-23T13:45:31Z</time>
      </trkpt>
      <trkpt lat="45.73691" lon="6.46557">
        <ele>1484</ele>
        <time>2022-07-23T13:45:32Z</time>
      </trkpt>
      <trkpt lat="45.73692" lon="6.46557">
        <ele>1484</ele>
        <time>2022-07-23T13:45:33Z</time>
      </trkpt>
      <trkpt lat="45.73692" lon="6.46558">
        <ele>1484</ele>
        <time>2022-07-23T13:45:34Z</time>
      </trkpt>
      <trkpt lat="45.73692" lon="6.46558">
        <ele>1485</ele>
        <time>2022-07-23T13:45:35Z</time>
      </trkpt>
      <trkpt lat="45.73693" lon="6.46558">
        <ele>1485</ele>
        <time>2022-07-23T13:45:36Z</time>
      </trkpt>
      <trkpt lat="45.73693" lon="6.46559">
        <ele>1485</ele>
        <time>2022-07-23T13:45:37Z</time>
      </trkpt>
      <trkpt lat="45.73693" lon="6.4656">
        <ele>1485</ele>
        <time>2022-07-23T13:45:38Z</time>
      </trkpt>
      <trkpt lat="45.73694" lon="6.4656">
        <ele>1485</ele>
        <time>2022-07-23T13:45:39Z</time>
      </trkpt>
      <trkpt lat="45.73694" lon="6.46561">
        <ele>1485</ele>
        <time>2022-07-23T13:45:40Z</time>
      </trkpt>
      <trkpt lat="45.73694" lon="6.46562">
        <ele>1485</ele>
        <time>2022-07-23T13:45:41Z</time>
      </trkpt>
      <trkpt lat="45.73695" lon="6.46563">
        <ele>1485</ele>
        <time>2022-07-23T13:45:42Z</time>
      </trkpt>
      <trkpt lat="45.73695" lon="6.46564">
        <ele>1485</ele>
        <time>2022-07-23T13:45:43Z</time>
      </trkpt>
      <trkpt lat="45.73696" lon="6.46565">
        <ele>1485</ele>
        <time>2022-07-23T13:45:44Z</time>
      </trkpt>
      <trkpt lat="45.73697" lon="6.46566">
        <ele>1486</ele>
        <time>2022-07-23T13:45:45Z</time>
      </trkpt>
      <trkpt lat="45.73697" lon="6.46567">
        <ele>1486</ele>
        <time>2022-07-23T13:45:46Z</time>
      </trkpt>
      <trkpt lat="45.73698" lon="6.46568">
        <ele>1486</ele>
        <time>2022-07-23T13:45:47Z</time>
      </trkpt>
      <trkpt lat="45.73698" lon="6.46569">
        <ele>1486</ele>
        <time>2022-07-23T13:45:48Z</time>
      </trkpt>
      <trkpt lat="45.73699" lon="6.4657">
        <ele>1486</ele>
        <time>2022-07-23T13:45:49Z</time>
      </trkpt>
      <trkpt lat="45.737" lon="6.46571">
        <ele>1486</ele>
        <time>2022-07-23T13:45:50Z</time>
      </trkpt>
      <trkpt lat="45.73701" lon="6.46571">
        <ele>1486</ele>
        <time>2022-07-23T13:45:51Z</time>
      </trkpt>
      <trkpt lat="45.73701" lon="6.46572">
        <ele>1486</ele>
        <time>2022-07-23T13:45:52Z</time>
      </trkpt>
      <trkpt lat="45.73702" lon="6.46573">
        <ele>1486</ele>
        <time>2022-07-23T13:45:53Z</time>
      </trkpt>
      <trkpt lat="45.73703" lon="6.46573">
        <ele>1486</ele>
        <time>2022-07-23T13:45:54Z</time>
      </trkpt>
      <trkpt lat="45.73704" lon="6.46574">
        <ele>1487</ele>
        <time>2022-07-23T13:45:55Z</time>
      </trkpt>
      <trkpt lat="45.73704" lon="6.46574">
        <ele>1487</ele>
        <time>2022-07-23T13:45:56Z</time>
      </trkpt>
      <trkpt lat="45.73705" lon="6.46575">
        <ele>1487</ele>
        <time>2022-07-23T13:45:57Z</time>
      </trkpt>
      <trkpt lat="45.73705" lon="6.46575">
        <ele>1487</ele>
        <time>2022-07-23T13:45:58Z</time>
      </trkpt>
      <trkpt lat="45.73706" lon="6.46576">
        <ele>1487</ele>
        <time>2022-07-23T13:45:59Z</time>
      </trkpt>
      <trkpt lat="45.73707" lon="6.46576">
        <ele>1487</ele>
        <time>2022-07-23T13:46:00Z</time>
      </trkpt>
      <trkpt lat="45.73707" lon="6.46576">
        <ele>1487</ele>
        <time>2022-07-23T13:46:01Z</time>
      </trkpt>
      <trkpt lat="45.73708" lon="6.46577">
        <ele>1487</ele>
        <time>2022-07-23T13:46:02Z</time>
      </trkpt>
      <trkpt lat="45.73708" lon="6.46578">
        <ele>1487</ele>
        <time>2022-07-23T13:46:03Z</time>
      </trkpt>
      <trkpt lat="45.73709" lon="6.46578">
        <ele>1487</ele>
        <time>2022-07-23T13:46:04Z</time>
      </trkpt>
      <trkpt lat="45.7371" lon="6.46579">
        <ele>1488</ele>
        <time>2022-07-23T13:46:05Z</time>
      </trkpt>
      <trkpt lat="45.7371" lon="6.4658">
        <ele>1488</ele>
        <time>2022-07-23T13:46:06Z</time>
      </trkpt>
      <trkpt lat="45.73711" lon="6.46581">
        <ele>1488</ele>
        <time>2022-07-23T13:46:07Z</time>
      </trkpt>
      <trkpt lat="45.73711" lon="6.46582">
        <ele>1488</ele>
        <time>2022-07-23T13:46:08Z</time>
      </trkpt>
      <trkpt lat="45.73712" lon="6.46583">
        <ele>1488</ele>
        <time>2022-07-23T13:46:09Z</time>
      </trkpt>
      <trkpt lat="45.73712" lon="6.46584">
        <ele>1488</ele>
        <time>2022-07-23T13:46:10Z</time>
      </trkpt>
      <trkpt lat="45.73713" lon="6.46585">
        <ele>1488</ele>
        <time>2022-07-23T13:46:11Z</time>
      </trkpt>
      <trkpt lat="45.73713" lon="6.46586">
        <ele>1488</ele>
        <time>2022-07-23T13:46:12Z</time>
      </trkpt>
      <trkpt lat="45.73714" lon="6.46587">
        <ele>1488</ele>
        <time>2022-07-23T13:46:13Z</time>
      </trkpt>
      <trkpt lat="45.73714" lon="6.46588">
        <ele>1488</ele>
        <time>2022-07-23T13:46:14Z</time>
      </trkpt>
      <trkpt lat="45.73715" lon="6.46589">
        <ele>1489</ele>
        <time>2022-07-23T13:46:15Z</time>
      </trkpt>
      <trkpt lat="45.73715" lon="6.4659">
        <ele>1489</ele>
        <time>2022-07-23T13:46:16Z</time>
      </trkpt>
      <trkpt lat="45.73716" lon="6.46591">
        <ele>1489</ele>
        <time>2022-07-23T13:46:17Z</time>
      </trkpt>
      <trkpt lat="45.73716" lon="6.46592">
        <ele>1489</ele>
        <time>2022-07-23T13:46:18Z</time>
      </trkpt>
      <trkpt lat="45.73717" lon="6.46593">
        <ele>1489</ele>
        <time>2022-07-23T13:46:19Z</time>
      </trkpt>
      <trkpt lat="45.73717" lon="6.46594">
        <ele>1490</ele>
        <time>2022-07-23T13:46:20Z</time>
      </trkpt>
      <trkpt lat="45.73718" lon="6.46594">
        <ele>1490</ele>
        <time>2022-07-23T13:46:21Z</time>
      </trkpt>
      <trkpt lat="45.73718" lon="6.46595">
        <ele>1490</ele>
        <time>2022-07-23T13:46:22Z</time>
      </trkpt>
      <trkpt lat="45.73718" lon="6.46596">
        <ele>1490</ele>
        <time>2022-07-23T13:46:23Z</time>
      </trkpt>
      <trkpt lat="45.73718" lon="6.46598">
        <ele>1491</ele>
        <time>2022-07-23T13:46:31Z</time>
      </trkpt>
      <trkpt lat="45.73719" lon="6.46599">
        <ele>1491</ele>
        <time>2022-07-23T13:46:32Z</time>
      </trkpt>
      <trkpt lat="45.73719" lon="6.46601">
        <ele>1491</ele>
        <time>2022-07-23T13:46:33Z</time>
      </trkpt>
      <trkpt lat="45.73719" lon="6.46602">
        <ele>1491</ele>
        <time>2022-07-23T13:46:34Z</time>
      </trkpt>
      <trkpt lat="45.7372" lon="6.46603">
        <ele>1491</ele>
        <time>2022-07-23T13:46:35Z</time>
      </trkpt>
      <trkpt lat="45.7372" lon="6.46604">
        <ele>1491</ele>
        <time>2022-07-23T13:46:36Z</time>
      </trkpt>
      <trkpt lat="45.7372" lon="6.46605">
        <ele>1491</ele>
        <time>2022-07-23T13:46:37Z</time>
      </trkpt>
      <trkpt lat="45.7372" lon="6.46606">
        <ele>1491</ele>
        <time>2022-07-23T13:46:38Z</time>
      </trkpt>
      <trkpt lat="45.73721" lon="6.46607">
        <ele>1491</ele>
        <time>2022-07-23T13:46:39Z</time>
      </trkpt>
      <trkpt lat="45.73721" lon="6.46609">
        <ele>1491</ele>
        <time>2022-07-23T13:46:40Z</time>
      </trkpt>
      <trkpt lat="45.73721" lon="6.4661">
        <ele>1491</ele>
        <time>2022-07-23T13:46:41Z</time>
      </trkpt>
      <trkpt lat="45.73721" lon="6.46611">
        <ele>1491</ele>
        <time>2022-07-23T13:46:42Z</time>
      </trkpt>
      <trkpt lat="45.73721" lon="6.46613">
        <ele>1491</ele>
        <time>2022-07-23T13:46:43Z</time>
      </trkpt>
      <trkpt lat="45.73722" lon="6.46614">
        <ele>1491</ele>
        <time>2022-07-23T13:46:44Z</time>
      </trkpt>
      <trkpt lat="45.73722" lon="6.46615">
        <ele>1492</ele>
        <time>2022-07-23T13:46:45Z</time>
      </trkpt>
      <trkpt lat="45.73722" lon="6.46617">
        <ele>1492</ele>
        <time>2022-07-23T13:46:46Z</time>
      </trkpt>
      <trkpt lat="45.73723" lon="6.46618">
        <ele>1492</ele>
        <time>2022-07-23T13:46:47Z</time>
      </trkpt>
      <trkpt lat="45.73723" lon="6.46619">
        <ele>1492</ele>
        <time>2022-07-23T13:46:48Z</time>
      </trkpt>
      <trkpt lat="45.73723" lon="6.4662">
        <ele>1492</ele>
        <time>2022-07-23T13:46:49Z</time>
      </trkpt>
      <trkpt lat="45.73724" lon="6.46621">
        <ele>1492</ele>
        <time>2022-07-23T13:46:50Z</time>
      </trkpt>
      <trkpt lat="45.73724" lon="6.46622">
        <ele>1492</ele>
        <time>2022-07-23T13:46:51Z</time>
      </trkpt>
      <trkpt lat="45.73725" lon="6.46623">
        <ele>1492</ele>
        <time>2022-07-23T13:46:52Z</time>
      </trkpt>
      <trkpt lat="45.73725" lon="6.46624">
        <ele>1492</ele>
        <time>2022-07-23T13:46:53Z</time>
      </trkpt>
      <trkpt lat="45.73726" lon="6.46625">
        <ele>1492</ele>
        <time>2022-07-23T13:46:54Z</time>
      </trkpt>
      <trkpt lat="45.73726" lon="6.46627">
        <ele>1492</ele>
        <time>2022-07-23T13:46:55Z</time>
      </trkpt>
      <trkpt lat="45.73726" lon="6.46628">
        <ele>1492</ele>
        <time>2022-07-23T13:46:56Z</time>
      </trkpt>
      <trkpt lat="45.73727" lon="6.46629">
        <ele>1492</ele>
        <time>2022-07-23T13:46:57Z</time>
      </trkpt>
      <trkpt lat="45.73727" lon="6.4663">
        <ele>1492</ele>
        <time>2022-07-23T13:46:58Z</time>
      </trkpt>
      <trkpt lat="45.73728" lon="6.46632">
        <ele>1492</ele>
        <time>2022-07-23T13:46:59Z</time>
      </trkpt>
      <trkpt lat="45.73728" lon="6.46633">
        <ele>1492</ele>
        <time>2022-07-23T13:47:00Z</time>
      </trkpt>
      <trkpt lat="45.73729" lon="6.46634">
        <ele>1492</ele>
        <time>2022-07-23T13:47:01Z</time>
      </trkpt>
      <trkpt lat="45.73729" lon="6.46636">
        <ele>1492</ele>
        <time>2022-07-23T13:47:02Z</time>
      </trkpt>
      <trkpt lat="45.7373" lon="6.46637">
        <ele>1493</ele>
        <time>2022-07-23T13:47:03Z</time>
      </trkpt>
      <trkpt lat="45.7373" lon="6.46639">
        <ele>1493</ele>
        <time>2022-07-23T13:47:04Z</time>
      </trkpt>
      <trkpt lat="45.73731" lon="6.4664">
        <ele>1494</ele>
        <time>2022-07-23T13:47:05Z</time>
      </trkpt>
      <trkpt lat="45.73731" lon="6.46642">
        <ele>1494</ele>
        <time>2022-07-23T13:47:06Z</time>
      </trkpt>
      <trkpt lat="45.73731" lon="6.46644">
        <ele>1494</ele>
        <time>2022-07-23T13:47:07Z</time>
      </trkpt>
      <trkpt lat="45.73731" lon="6.46646">
        <ele>1494</ele>
        <time>2022-07-23T13:47:08Z</time>
      </trkpt>
      <trkpt lat="45.73731" lon="6.46647">
        <ele>1494</ele>
        <time>2022-07-23T13:47:09Z</time>
      </trkpt>
      <trkpt lat="45.73731" lon="6.46649">
        <ele>1494</ele>
        <time>2022-07-23T13:47:10Z</time>
      </trkpt>
      <trkpt lat="45.73731" lon="6.4665">
        <ele>1494</ele>
        <time>2022-07-23T13:47:11Z</time>
      </trkpt>
      <trkpt lat="45.73732" lon="6.46652">
        <ele>1494</ele>
        <time>2022-07-23T13:47:12Z</time>
      </trkpt>
      <trkpt lat="45.73732" lon="6.46653">
        <ele>1494</ele>
        <time>2022-07-23T13:47:13Z</time>
      </trkpt>
      <trkpt lat="45.73732" lon="6.46655">
        <ele>1494</ele>
        <time>2022-07-23T13:47:14Z</time>
      </trkpt>
      <trkpt lat="45.73732" lon="6.46656">
        <ele>1494</ele>
        <time>2022-07-23T13:47:15Z</time>
      </trkpt>
      <trkpt lat="45.73732" lon="6.46657">
        <ele>1494</ele>
        <time>2022-07-23T13:47:16Z</time>
      </trkpt>
      <trkpt lat="45.73732" lon="6.46659">
        <ele>1494</ele>
        <time>2022-07-23T13:47:17Z</time>
      </trkpt>
      <trkpt lat="45.73732" lon="6.4666">
        <ele>1494</ele>
        <time>2022-07-23T13:47:18Z</time>
      </trkpt>
      <trkpt lat="45.73733" lon="6.46661">
        <ele>1494</ele>
        <time>2022-07-23T13:47:19Z</time>
      </trkpt>
      <trkpt lat="45.73733" lon="6.46663">
        <ele>1494</ele>
        <time>2022-07-23T13:47:20Z</time>
      </trkpt>
      <trkpt lat="45.73733" lon="6.46664">
        <ele>1494</ele>
        <time>2022-07-23T13:47:21Z</time>
      </trkpt>
      <trkpt lat="45.73733" lon="6.46666">
        <ele>1494</ele>
        <time>2022-07-23T13:47:22Z</time>
      </trkpt>
      <trkpt lat="45.73733" lon="6.46667">
        <ele>1494</ele>
        <time>2022-07-23T13:47:23Z</time>
      </trkpt>
      <trkpt lat="45.73733" lon="6.46668">
        <ele>1494</ele>
        <time>2022-07-23T13:47:24Z</time>
      </trkpt>
      <trkpt lat="45.73733" lon="6.4667">
        <ele>1494</ele>
        <time>2022-07-23T13:47:25Z</time>
      </trkpt>
      <trkpt lat="45.73733" lon="6.46671">
        <ele>1494</ele>
        <time>2022-07-23T13:47:26Z</time>
      </trkpt>
      <trkpt lat="45.73733" lon="6.46673">
        <ele>1494</ele>
        <time>2022-07-23T13:47:27Z</time>
      </trkpt>
      <trkpt lat="45.73733" lon="6.46674">
        <ele>1494</ele>
        <time>2022-07-23T13:47:28Z</time>
      </trkpt>
      <trkpt lat="45.73733" lon="6.46676">
        <ele>1494</ele>
        <time>2022-07-23T13:47:29Z</time>
      </trkpt>
      <trkpt lat="45.73733" lon="6.46677">
        <ele>1494</ele>
        <time>2022-07-23T13:47:30Z</time>
      </trkpt>
      <trkpt lat="45.73733" lon="6.46679">
        <ele>1494</ele>
        <time>2022-07-23T13:47:31Z</time>
      </trkpt>
      <trkpt lat="45.73733" lon="6.4668">
        <ele>1494</ele>
        <time>2022-07-23T13:47:32Z</time>
      </trkpt>
      <trkpt lat="45.73733" lon="6.46681">
        <ele>1494</ele>
        <time>2022-07-23T13:47:33Z</time>
      </trkpt>
      <trkpt lat="45.73733" lon="6.46683">
        <ele>1494</ele>
        <time>2022-07-23T13:47:34Z</time>
      </trkpt>
      <trkpt lat="45.73733" lon="6.46684">
        <ele>1494</ele>
        <time>2022-07-23T13:47:35Z</time>
      </trkpt>
      <trkpt lat="45.73733" lon="6.46685">
        <ele>1493</ele>
        <time>2022-07-23T13:47:36Z</time>
      </trkpt>
      <trkpt lat="45.73733" lon="6.46687">
        <ele>1493</ele>
        <time>2022-07-23T13:47:37Z</time>
      </trkpt>
      <trkpt lat="45.73734" lon="6.46688">
        <ele>1492</ele>
        <time>2022-07-23T13:47:38Z</time>
      </trkpt>
      <trkpt lat="45.73734" lon="6.4669">
        <ele>1492</ele>
        <time>2022-07-23T13:47:39Z</time>
      </trkpt>
      <trkpt lat="45.73734" lon="6.46691">
        <ele>1492</ele>
        <time>2022-07-23T13:47:40Z</time>
      </trkpt>
      <trkpt lat="45.73734" lon="6.46692">
        <ele>1492</ele>
        <time>2022-07-23T13:47:41Z</time>
      </trkpt>
      <trkpt lat="45.73735" lon="6.46694">
        <ele>1492</ele>
        <time>2022-07-23T13:47:42Z</time>
      </trkpt>
      <trkpt lat="45.73735" lon="6.46695">
        <ele>1492</ele>
        <time>2022-07-23T13:47:43Z</time>
      </trkpt>
      <trkpt lat="45.73735" lon="6.46696">
        <ele>1492</ele>
        <time>2022-07-23T13:47:44Z</time>
      </trkpt>
      <trkpt lat="45.73735" lon="6.46697">
        <ele>1492</ele>
        <time>2022-07-23T13:47:45Z</time>
      </trkpt>
      <trkpt lat="45.73736" lon="6.46698">
        <ele>1492</ele>
        <time>2022-07-23T13:47:46Z</time>
      </trkpt>
      <trkpt lat="45.73736" lon="6.467">
        <ele>1492</ele>
        <time>2022-07-23T13:47:47Z</time>
      </trkpt>
      <trkpt lat="45.73736" lon="6.46701">
        <ele>1492</ele>
        <time>2022-07-23T13:47:48Z</time>
      </trkpt>
      <trkpt lat="45.73736" lon="6.46702">
        <ele>1492</ele>
        <time>2022-07-23T13:47:49Z</time>
      </trkpt>
      <trkpt lat="45.73737" lon="6.46704">
        <ele>1492</ele>
        <time>2022-07-23T13:47:50Z</time>
      </trkpt>
      <trkpt lat="45.73737" lon="6.46705">
        <ele>1491</ele>
        <time>2022-07-23T13:47:51Z</time>
      </trkpt>
      <trkpt lat="45.73737" lon="6.46706">
        <ele>1491</ele>
        <time>2022-07-23T13:47:52Z</time>
      </trkpt>
      <trkpt lat="45.73738" lon="6.46708">
        <ele>1491</ele>
        <time>2022-07-23T13:47:53Z</time>
      </trkpt>
      <trkpt lat="45.73738" lon="6.46709">
        <ele>1491</ele>
        <time>2022-07-23T13:47:54Z</time>
      </trkpt>
      <trkpt lat="45.73738" lon="6.46711">
        <ele>1491</ele>
        <time>2022-07-23T13:47:55Z</time>
      </trkpt>
      <trkpt lat="45.73738" lon="6.46712">
        <ele>1491</ele>
        <time>2022-07-23T13:47:56Z</time>
      </trkpt>
      <trkpt lat="45.73738" lon="6.46714">
        <ele>1491</ele>
        <time>2022-07-23T13:47:57Z</time>
      </trkpt>
      <trkpt lat="45.73739" lon="6.46716">
        <ele>1491</ele>
        <time>2022-07-23T13:47:58Z</time>
      </trkpt>
      <trkpt lat="45.73739" lon="6.46717">
        <ele>1491</ele>
        <time>2022-07-23T13:47:59Z</time>
      </trkpt>
      <trkpt lat="45.73739" lon="6.46719">
        <ele>1491</ele>
        <time>2022-07-23T13:48:00Z</time>
      </trkpt>
      <trkpt lat="45.7374" lon="6.4672">
        <ele>1490</ele>
        <time>2022-07-23T13:48:01Z</time>
      </trkpt>
      <trkpt lat="45.7374" lon="6.46722">
        <ele>1490</ele>
        <time>2022-07-23T13:48:02Z</time>
      </trkpt>
      <trkpt lat="45.7374" lon="6.46723">
        <ele>1490</ele>
        <time>2022-07-23T13:48:03Z</time>
      </trkpt>
      <trkpt lat="45.7374" lon="6.46724">
        <ele>1490</ele>
        <time>2022-07-23T13:48:04Z</time>
      </trkpt>
      <trkpt lat="45.7374" lon="6.46726">
        <ele>1490</ele>
        <time>2022-07-23T13:48:05Z</time>
      </trkpt>
      <trkpt lat="45.73741" lon="6.46727">
        <ele>1490</ele>
        <time>2022-07-23T13:48:06Z</time>
      </trkpt>
      <trkpt lat="45.73741" lon="6.46728">
        <ele>1490</ele>
        <time>2022-07-23T13:48:07Z</time>
      </trkpt>
      <trkpt lat="45.73741" lon="6.46729">
        <ele>1490</ele>
        <time>2022-07-23T13:48:08Z</time>
      </trkpt>
      <trkpt lat="45.73742" lon="6.4673">
        <ele>1490</ele>
        <time>2022-07-23T13:48:09Z</time>
      </trkpt>
      <trkpt lat="45.73742" lon="6.46731">
        <ele>1490</ele>
        <time>2022-07-23T13:48:10Z</time>
      </trkpt>
      <trkpt lat="45.73743" lon="6.46733">
        <ele>1490</ele>
        <time>2022-07-23T13:48:11Z</time>
      </trkpt>
      <trkpt lat="45.73743" lon="6.46733">
        <ele>1490</ele>
        <time>2022-07-23T13:48:12Z</time>
      </trkpt>
      <trkpt lat="45.73743" lon="6.46734">
        <ele>1490</ele>
        <time>2022-07-23T13:48:13Z</time>
      </trkpt>
      <trkpt lat="45.73744" lon="6.46735">
        <ele>1490</ele>
        <time>2022-07-23T13:48:54Z</time>
      </trkpt>
      <trkpt lat="45.73745" lon="6.46735">
        <ele>1490</ele>
        <time>2022-07-23T13:48:55Z</time>
      </trkpt>
      <trkpt lat="45.73746" lon="6.46736">
        <ele>1490</ele>
        <time>2022-07-23T13:48:56Z</time>
      </trkpt>
      <trkpt lat="45.73746" lon="6.46737">
        <ele>1490</ele>
        <time>2022-07-23T13:48:57Z</time>
      </trkpt>
      <trkpt lat="45.73746" lon="6.46737">
        <ele>1490</ele>
        <time>2022-07-23T13:48:58Z</time>
      </trkpt>
      <trkpt lat="45.73747" lon="6.46738">
        <ele>1490</ele>
        <time>2022-07-23T13:48:59Z</time>
      </trkpt>
      <trkpt lat="45.73747" lon="6.46739">
        <ele>1490</ele>
        <time>2022-07-23T13:49:00Z</time>
      </trkpt>
      <trkpt lat="45.73748" lon="6.46741">
        <ele>1489</ele>
        <time>2022-07-23T13:49:01Z</time>
      </trkpt>
      <trkpt lat="45.73748" lon="6.46742">
        <ele>1489</ele>
        <time>2022-07-23T13:49:02Z</time>
      </trkpt>
      <trkpt lat="45.73748" lon="6.46744">
        <ele>1489</ele>
        <time>2022-07-23T13:49:03Z</time>
      </trkpt>
      <trkpt lat="45.73749" lon="6.46746">
        <ele>1489</ele>
        <time>2022-07-23T13:49:04Z</time>
      </trkpt>
      <trkpt lat="45.73749" lon="6.46747">
        <ele>1489</ele>
        <time>2022-07-23T13:49:05Z</time>
      </trkpt>
      <trkpt lat="45.73749" lon="6.46749">
        <ele>1489</ele>
        <time>2022-07-23T13:49:06Z</time>
      </trkpt>
      <trkpt lat="45.73749" lon="6.46751">
        <ele>1489</ele>
        <time>2022-07-23T13:49:07Z</time>
      </trkpt>
      <trkpt lat="45.73749" lon="6.46752">
        <ele>1489</ele>
        <time>2022-07-23T13:49:08Z</time>
      </trkpt>
      <trkpt lat="45.73749" lon="6.46754">
        <ele>1489</ele>
        <time>2022-07-23T13:49:09Z</time>
      </trkpt>
      <trkpt lat="45.73749" lon="6.46755">
        <ele>1489</ele>
        <time>2022-07-23T13:49:10Z</time>
      </trkpt>
      <trkpt lat="45.73749" lon="6.46757">
        <ele>1488</ele>
        <time>2022-07-23T13:49:11Z</time>
      </trkpt>
      <trkpt lat="45.7375" lon="6.46759">
        <ele>1488</ele>
        <time>2022-07-23T13:49:12Z</time>
      </trkpt>
      <trkpt lat="45.7375" lon="6.46761">
        <ele>1488</ele>
        <time>2022-07-23T13:49:13Z</time>
      </trkpt>
      <trkpt lat="45.7375" lon="6.46763">
        <ele>1488</ele>
        <time>2022-07-23T13:49:14Z</time>
      </trkpt>
      <trkpt lat="45.73751" lon="6.46764">
        <ele>1488</ele>
        <time>2022-07-23T13:49:15Z</time>
      </trkpt>
      <trkpt lat="45.73751" lon="6.46766">
        <ele>1488</ele>
        <time>2022-07-23T13:49:16Z</time>
      </trkpt>
      <trkpt lat="45.73751" lon="6.46768">
        <ele>1488</ele>
        <time>2022-07-23T13:49:17Z</time>
      </trkpt>
      <trkpt lat="45.73751" lon="6.4677">
        <ele>1488</ele>
        <time>2022-07-23T13:49:18Z</time>
      </trkpt>
      <trkpt lat="45.73752" lon="6.46771">
        <ele>1488</ele>
        <time>2022-07-23T13:49:19Z</time>
      </trkpt>
      <trkpt lat="45.73752" lon="6.46773">
        <ele>1488</ele>
        <time>2022-07-23T13:49:20Z</time>
      </trkpt>
      <trkpt lat="45.73752" lon="6.46774">
        <ele>1487</ele>
        <time>2022-07-23T13:49:21Z</time>
      </trkpt>
      <trkpt lat="45.73752" lon="6.46775">
        <ele>1487</ele>
        <time>2022-07-23T13:49:22Z</time>
      </trkpt>
      <trkpt lat="45.73753" lon="6.46776">
        <ele>1487</ele>
        <time>2022-07-23T13:49:23Z</time>
      </trkpt>
      <trkpt lat="45.73753" lon="6.46778">
        <ele>1487</ele>
        <time>2022-07-23T13:49:24Z</time>
      </trkpt>
      <trkpt lat="45.73753" lon="6.46779">
        <ele>1487</ele>
        <time>2022-07-23T13:49:25Z</time>
      </trkpt>
      <trkpt lat="45.73753" lon="6.4678">
        <ele>1486</ele>
        <time>2022-07-23T13:49:26Z</time>
      </trkpt>
      <trkpt lat="45.73753" lon="6.46781">
        <ele>1486</ele>
        <time>2022-07-23T13:49:27Z</time>
      </trkpt>
      <trkpt lat="45.73753" lon="6.46782">
        <ele>1486</ele>
        <time>2022-07-23T13:49:28Z</time>
      </trkpt>
      <trkpt lat="45.73753" lon="6.46783">
        <ele>1486</ele>
        <time>2022-07-23T13:49:29Z</time>
      </trkpt>
      <trkpt lat="45.73754" lon="6.46784">
        <ele>1486</ele>
        <time>2022-07-23T13:49:30Z</time>
      </trkpt>
      <trkpt lat="45.73754" lon="6.46785">
        <ele>1485</ele>
        <time>2022-07-23T13:49:31Z</time>
      </trkpt>
      <trkpt lat="45.73754" lon="6.46786">
        <ele>1485</ele>
        <time>2022-07-23T13:49:32Z</time>
      </trkpt>
      <trkpt lat="45.73754" lon="6.46788">
        <ele>1485</ele>
        <time>2022-07-23T13:49:33Z</time>
      </trkpt>
      <trkpt lat="45.73755" lon="6.46789">
        <ele>1485</ele>
        <time>2022-07-23T13:49:34Z</time>
      </trkpt>
      <trkpt lat="45.73755" lon="6.46791">
        <ele>1485</ele>
        <time>2022-07-23T13:49:35Z</time>
      </trkpt>
      <trkpt lat="45.73755" lon="6.46793">
        <ele>1485</ele>
        <time>2022-07-23T13:49:36Z</time>
      </trkpt>
      <trkpt lat="45.73755" lon="6.46795">
        <ele>1485</ele>
        <time>2022-07-23T13:49:37Z</time>
      </trkpt>
      <trkpt lat="45.73756" lon="6.46797">
        <ele>1485</ele>
        <time>2022-07-23T13:49:38Z</time>
      </trkpt>
      <trkpt lat="45.73756" lon="6.46799">
        <ele>1485</ele>
        <time>2022-07-23T13:49:39Z</time>
      </trkpt>
      <trkpt lat="45.73756" lon="6.46801">
        <ele>1485</ele>
        <time>2022-07-23T13:49:40Z</time>
      </trkpt>
      <trkpt lat="45.73757" lon="6.46803">
        <ele>1485</ele>
        <time>2022-07-23T13:49:41Z</time>
      </trkpt>
      <trkpt lat="45.73757" lon="6.46804">
        <ele>1485</ele>
        <time>2022-07-23T13:49:42Z</time>
      </trkpt>
      <trkpt lat="45.73757" lon="6.46806">
        <ele>1485</ele>
        <time>2022-07-23T13:49:43Z</time>
      </trkpt>
      <trkpt lat="45.73757" lon="6.46808">
        <ele>1485</ele>
        <time>2022-07-23T13:49:44Z</time>
      </trkpt>
      <trkpt lat="45.73758" lon="6.4681">
        <ele>1485</ele>
        <time>2022-07-23T13:49:45Z</time>
      </trkpt>
      <trkpt lat="45.73758" lon="6.46811">
        <ele>1484</ele>
        <time>2022-07-23T13:49:46Z</time>
      </trkpt>
      <trkpt lat="45.73758" lon="6.46813">
        <ele>1484</ele>
        <time>2022-07-23T13:49:47Z</time>
      </trkpt>
      <trkpt lat="45.73759" lon="6.46815">
        <ele>1484</ele>
        <time>2022-07-23T13:49:48Z</time>
      </trkpt>
      <trkpt lat="45.73759" lon="6.46817">
        <ele>1484</ele>
        <time>2022-07-23T13:49:49Z</time>
      </trkpt>
      <trkpt lat="45.73759" lon="6.46819">
        <ele>1484</ele>
        <time>2022-07-23T13:49:50Z</time>
      </trkpt>
      <trkpt lat="45.73759" lon="6.46821">
        <ele>1483</ele>
        <time>2022-07-23T13:49:51Z</time>
      </trkpt>
      <trkpt lat="45.73759" lon="6.46822">
        <ele>1483</ele>
        <time>2022-07-23T13:49:52Z</time>
      </trkpt>
      <trkpt lat="45.7376" lon="6.46824">
        <ele>1483</ele>
        <time>2022-07-23T13:49:53Z</time>
      </trkpt>
      <trkpt lat="45.7376" lon="6.46826">
        <ele>1483</ele>
        <time>2022-07-23T13:49:54Z</time>
      </trkpt>
      <trkpt lat="45.7376" lon="6.46828">
        <ele>1483</ele>
        <time>2022-07-23T13:49:55Z</time>
      </trkpt>
      <trkpt lat="45.73761" lon="6.4683">
        <ele>1483</ele>
        <time>2022-07-23T13:49:56Z</time>
      </trkpt>
      <trkpt lat="45.73761" lon="6.46831">
        <ele>1483</ele>
        <time>2022-07-23T13:49:57Z</time>
      </trkpt>
      <trkpt lat="45.73762" lon="6.46833">
        <ele>1483</ele>
        <time>2022-07-23T13:49:58Z</time>
      </trkpt>
      <trkpt lat="45.73762" lon="6.46835">
        <ele>1483</ele>
        <time>2022-07-23T13:49:59Z</time>
      </trkpt>
      <trkpt lat="45.73763" lon="6.46836">
        <ele>1483</ele>
        <time>2022-07-23T13:50:00Z</time>
      </trkpt>
      <trkpt lat="45.73763" lon="6.46838">
        <ele>1482</ele>
        <time>2022-07-23T13:50:01Z</time>
      </trkpt>
      <trkpt lat="45.73763" lon="6.46839">
        <ele>1482</ele>
        <time>2022-07-23T13:50:02Z</time>
      </trkpt>
      <trkpt lat="45.73764" lon="6.4684">
        <ele>1482</ele>
        <time>2022-07-23T13:50:03Z</time>
      </trkpt>
      <trkpt lat="45.73764" lon="6.46841">
        <ele>1482</ele>
        <time>2022-07-23T13:50:04Z</time>
      </trkpt>
      <trkpt lat="45.73765" lon="6.46841">
        <ele>1482</ele>
        <time>2022-07-23T13:50:05Z</time>
      </trkpt>
      <trkpt lat="45.73765" lon="6.46842">
        <ele>1482</ele>
        <time>2022-07-23T13:50:06Z</time>
      </trkpt>
      <trkpt lat="45.73765" lon="6.46843">
        <ele>1482</ele>
        <time>2022-07-23T13:50:07Z</time>
      </trkpt>
      <trkpt lat="45.73766" lon="6.46844">
        <ele>1482</ele>
        <time>2022-07-23T13:50:08Z</time>
      </trkpt>
      <trkpt lat="45.73766" lon="6.46845">
        <ele>1482</ele>
        <time>2022-07-23T13:50:09Z</time>
      </trkpt>
      <trkpt lat="45.73767" lon="6.46846">
        <ele>1482</ele>
        <time>2022-07-23T13:50:10Z</time>
      </trkpt>
      <trkpt lat="45.73768" lon="6.46847">
        <ele>1482</ele>
        <time>2022-07-23T13:50:11Z</time>
      </trkpt>
      <trkpt lat="45.73768" lon="6.46849">
        <ele>1482</ele>
        <time>2022-07-23T13:50:12Z</time>
      </trkpt>
      <trkpt lat="45.73769" lon="6.4685">
        <ele>1482</ele>
        <time>2022-07-23T13:50:13Z</time>
      </trkpt>
      <trkpt lat="45.73769" lon="6.46851">
        <ele>1482</ele>
        <time>2022-07-23T13:50:14Z</time>
      </trkpt>
      <trkpt lat="45.7377" lon="6.46852">
        <ele>1482</ele>
        <time>2022-07-23T13:50:15Z</time>
      </trkpt>
      <trkpt lat="45.7377" lon="6.46854">
        <ele>1481</ele>
        <time>2022-07-23T13:50:16Z</time>
      </trkpt>
      <trkpt lat="45.73771" lon="6.46855">
        <ele>1481</ele>
        <time>2022-07-23T13:50:17Z</time>
      </trkpt>
      <trkpt lat="45.73771" lon="6.46856">
        <ele>1481</ele>
        <time>2022-07-23T13:50:18Z</time>
      </trkpt>
      <trkpt lat="45.73771" lon="6.46857">
        <ele>1481</ele>
        <time>2022-07-23T13:50:19Z</time>
      </trkpt>
      <trkpt lat="45.73771" lon="6.46859">
        <ele>1481</ele>
        <time>2022-07-23T13:50:20Z</time>
      </trkpt>
      <trkpt lat="45.73772" lon="6.46861">
        <ele>1481</ele>
        <time>2022-07-23T13:50:21Z</time>
      </trkpt>
      <trkpt lat="45.73772" lon="6.46862">
        <ele>1481</ele>
        <time>2022-07-23T13:50:22Z</time>
      </trkpt>
      <trkpt lat="45.73772" lon="6.46864">
        <ele>1481</ele>
        <time>2022-07-23T13:50:23Z</time>
      </trkpt>
      <trkpt lat="45.73772" lon="6.46866">
        <ele>1481</ele>
        <time>2022-07-23T13:50:24Z</time>
      </trkpt>
      <trkpt lat="45.73773" lon="6.46868">
        <ele>1481</ele>
        <time>2022-07-23T13:50:25Z</time>
      </trkpt>
      <trkpt lat="45.73773" lon="6.46869">
        <ele>1481</ele>
        <time>2022-07-23T13:50:26Z</time>
      </trkpt>
      <trkpt lat="45.73773" lon="6.4687">
        <ele>1481</ele>
        <time>2022-07-23T13:50:27Z</time>
      </trkpt>
      <trkpt lat="45.73774" lon="6.46872">
        <ele>1481</ele>
        <time>2022-07-23T13:50:28Z</time>
      </trkpt>
      <trkpt lat="45.73775" lon="6.46873">
        <ele>1481</ele>
        <time>2022-07-23T13:50:29Z</time>
      </trkpt>
      <trkpt lat="45.73776" lon="6.46875">
        <ele>1481</ele>
        <time>2022-07-23T13:50:30Z</time>
      </trkpt>
      <trkpt lat="45.73776" lon="6.46876">
        <ele>1481</ele>
        <time>2022-07-23T13:50:31Z</time>
      </trkpt>
      <trkpt lat="45.73777" lon="6.46878">
        <ele>1481</ele>
        <time>2022-07-23T13:50:32Z</time>
      </trkpt>
      <trkpt lat="45.73778" lon="6.46879">
        <ele>1481</ele>
        <time>2022-07-23T13:50:33Z</time>
      </trkpt>
      <trkpt lat="45.73778" lon="6.46881">
        <ele>1481</ele>
        <time>2022-07-23T13:50:34Z</time>
      </trkpt>
      <trkpt lat="45.73779" lon="6.46883">
        <ele>1481</ele>
        <time>2022-07-23T13:50:35Z</time>
      </trkpt>
      <trkpt lat="45.73779" lon="6.46884">
        <ele>1481</ele>
        <time>2022-07-23T13:50:36Z</time>
      </trkpt>
      <trkpt lat="45.7378" lon="6.46886">
        <ele>1481</ele>
        <time>2022-07-23T13:50:37Z</time>
      </trkpt>
      <trkpt lat="45.7378" lon="6.46887">
        <ele>1481</ele>
        <time>2022-07-23T13:50:38Z</time>
      </trkpt>
      <trkpt lat="45.73781" lon="6.46889">
        <ele>1481</ele>
        <time>2022-07-23T13:50:39Z</time>
      </trkpt>
      <trkpt lat="45.73781" lon="6.4689">
        <ele>1481</ele>
        <time>2022-07-23T13:50:40Z</time>
      </trkpt>
      <trkpt lat="45.73781" lon="6.46891">
        <ele>1481</ele>
        <time>2022-07-23T13:50:41Z</time>
      </trkpt>
      <trkpt lat="45.73782" lon="6.46893">
        <ele>1481</ele>
        <time>2022-07-23T13:50:42Z</time>
      </trkpt>
      <trkpt lat="45.73782" lon="6.46894">
        <ele>1481</ele>
        <time>2022-07-23T13:50:43Z</time>
      </trkpt>
      <trkpt lat="45.73782" lon="6.46896">
        <ele>1481</ele>
        <time>2022-07-23T13:50:44Z</time>
      </trkpt>
      <trkpt lat="45.73782" lon="6.46897">
        <ele>1481</ele>
        <time>2022-07-23T13:50:45Z</time>
      </trkpt>
      <trkpt lat="45.73783" lon="6.46898">
        <ele>1481</ele>
        <time>2022-07-23T13:50:46Z</time>
      </trkpt>
      <trkpt lat="45.73783" lon="6.469">
        <ele>1481</ele>
        <time>2022-07-23T13:50:47Z</time>
      </trkpt>
      <trkpt lat="45.73783" lon="6.46901">
        <ele>1481</ele>
        <time>2022-07-23T13:50:48Z</time>
      </trkpt>
      <trkpt lat="45.73784" lon="6.46903">
        <ele>1481</ele>
        <time>2022-07-23T13:50:49Z</time>
      </trkpt>
      <trkpt lat="45.73784" lon="6.46904">
        <ele>1481</ele>
        <time>2022-07-23T13:50:50Z</time>
      </trkpt>
      <trkpt lat="45.73785" lon="6.46905">
        <ele>1481</ele>
        <time>2022-07-23T13:50:51Z</time>
      </trkpt>
      <trkpt lat="45.73786" lon="6.46907">
        <ele>1481</ele>
        <time>2022-07-23T13:50:52Z</time>
      </trkpt>
      <trkpt lat="45.73786" lon="6.46908">
        <ele>1481</ele>
        <time>2022-07-23T13:50:53Z</time>
      </trkpt>
      <trkpt lat="45.73787" lon="6.46909">
        <ele>1481</ele>
        <time>2022-07-23T13:50:54Z</time>
      </trkpt>
      <trkpt lat="45.73787" lon="6.4691">
        <ele>1481</ele>
        <time>2022-07-23T13:50:55Z</time>
      </trkpt>
      <trkpt lat="45.73788" lon="6.46911">
        <ele>1480</ele>
        <time>2022-07-23T13:50:56Z</time>
      </trkpt>
      <trkpt lat="45.73788" lon="6.46912">
        <ele>1480</ele>
        <time>2022-07-23T13:50:57Z</time>
      </trkpt>
      <trkpt lat="45.73789" lon="6.46913">
        <ele>1480</ele>
        <time>2022-07-23T13:50:58Z</time>
      </trkpt>
      <trkpt lat="45.73789" lon="6.46914">
        <ele>1480</ele>
        <time>2022-07-23T13:50:59Z</time>
      </trkpt>
      <trkpt lat="45.7379" lon="6.46915">
        <ele>1480</ele>
        <time>2022-07-23T13:51:00Z</time>
      </trkpt>
      <trkpt lat="45.7379" lon="6.46916">
        <ele>1480</ele>
        <time>2022-07-23T13:51:01Z</time>
      </trkpt>
      <trkpt lat="45.73791" lon="6.46917">
        <ele>1480</ele>
        <time>2022-07-23T13:51:02Z</time>
      </trkpt>
      <trkpt lat="45.73791" lon="6.46918">
        <ele>1480</ele>
        <time>2022-07-23T13:51:03Z</time>
      </trkpt>
      <trkpt lat="45.73792" lon="6.46919">
        <ele>1480</ele>
        <time>2022-07-23T13:51:04Z</time>
      </trkpt>
      <trkpt lat="45.73792" lon="6.4692">
        <ele>1480</ele>
        <time>2022-07-23T13:51:05Z</time>
      </trkpt>
      <trkpt lat="45.73793" lon="6.46922">
        <ele>1480</ele>
        <time>2022-07-23T13:51:06Z</time>
      </trkpt>
      <trkpt lat="45.73793" lon="6.46923">
        <ele>1480</ele>
        <time>2022-07-23T13:51:07Z</time>
      </trkpt>
      <trkpt lat="45.73794" lon="6.46925">
        <ele>1480</ele>
        <time>2022-07-23T13:51:08Z</time>
      </trkpt>
      <trkpt lat="45.73794" lon="6.46926">
        <ele>1480</ele>
        <time>2022-07-23T13:51:09Z</time>
      </trkpt>
      <trkpt lat="45.73795" lon="6.46928">
        <ele>1480</ele>
        <time>2022-07-23T13:51:10Z</time>
      </trkpt>
      <trkpt lat="45.73796" lon="6.4693">
        <ele>1480</ele>
        <time>2022-07-23T13:51:11Z</time>
      </trkpt>
      <trkpt lat="45.73796" lon="6.46932">
        <ele>1480</ele>
        <time>2022-07-23T13:51:12Z</time>
      </trkpt>
      <trkpt lat="45.73797" lon="6.46933">
        <ele>1480</ele>
        <time>2022-07-23T13:51:13Z</time>
      </trkpt>
      <trkpt lat="45.73798" lon="6.46935">
        <ele>1480</ele>
        <time>2022-07-23T13:51:14Z</time>
      </trkpt>
      <trkpt lat="45.73798" lon="6.46937">
        <ele>1480</ele>
        <time>2022-07-23T13:51:15Z</time>
      </trkpt>
      <trkpt lat="45.73799" lon="6.46938">
        <ele>1480</ele>
        <time>2022-07-23T13:51:16Z</time>
      </trkpt>
      <trkpt lat="45.73799" lon="6.4694">
        <ele>1480</ele>
        <time>2022-07-23T13:51:17Z</time>
      </trkpt>
      <trkpt lat="45.738" lon="6.46941">
        <ele>1480</ele>
        <time>2022-07-23T13:51:18Z</time>
      </trkpt>
      <trkpt lat="45.738" lon="6.46943">
        <ele>1480</ele>
        <time>2022-07-23T13:51:19Z</time>
      </trkpt>
      <trkpt lat="45.738" lon="6.46945">
        <ele>1480</ele>
        <time>2022-07-23T13:51:20Z</time>
      </trkpt>
      <trkpt lat="45.73801" lon="6.46946">
        <ele>1480</ele>
        <time>2022-07-23T13:51:21Z</time>
      </trkpt>
      <trkpt lat="45.73801" lon="6.46948">
        <ele>1480</ele>
        <time>2022-07-23T13:51:22Z</time>
      </trkpt>
      <trkpt lat="45.73801" lon="6.46949">
        <ele>1480</ele>
        <time>2022-07-23T13:51:23Z</time>
      </trkpt>
      <trkpt lat="45.73801" lon="6.46951">
        <ele>1480</ele>
        <time>2022-07-23T13:51:24Z</time>
      </trkpt>
      <trkpt lat="45.73801" lon="6.46952">
        <ele>1480</ele>
        <time>2022-07-23T13:51:25Z</time>
      </trkpt>
      <trkpt lat="45.73801" lon="6.46954">
        <ele>1480</ele>
        <time>2022-07-23T13:51:26Z</time>
      </trkpt>
      <trkpt lat="45.73802" lon="6.46955">
        <ele>1480</ele>
        <time>2022-07-23T13:51:27Z</time>
      </trkpt>
      <trkpt lat="45.73802" lon="6.46956">
        <ele>1480</ele>
        <time>2022-07-23T13:51:28Z</time>
      </trkpt>
      <trkpt lat="45.73802" lon="6.46958">
        <ele>1480</ele>
        <time>2022-07-23T13:51:29Z</time>
      </trkpt>
      <trkpt lat="45.73803" lon="6.46959">
        <ele>1480</ele>
        <time>2022-07-23T13:51:30Z</time>
      </trkpt>
      <trkpt lat="45.73803" lon="6.46961">
        <ele>1480</ele>
        <time>2022-07-23T13:51:31Z</time>
      </trkpt>
      <trkpt lat="45.73803" lon="6.46962">
        <ele>1480</ele>
        <time>2022-07-23T13:51:32Z</time>
      </trkpt>
      <trkpt lat="45.73803" lon="6.46964">
        <ele>1480</ele>
        <time>2022-07-23T13:51:33Z</time>
      </trkpt>
      <trkpt lat="45.73804" lon="6.46966">
        <ele>1480</ele>
        <time>2022-07-23T13:51:34Z</time>
      </trkpt>
      <trkpt lat="45.73804" lon="6.46967">
        <ele>1480</ele>
        <time>2022-07-23T13:51:35Z</time>
      </trkpt>
      <trkpt lat="45.73804" lon="6.46969">
        <ele>1480</ele>
        <time>2022-07-23T13:51:36Z</time>
      </trkpt>
      <trkpt lat="45.73804" lon="6.46971">
        <ele>1480</ele>
        <time>2022-07-23T13:51:37Z</time>
      </trkpt>
      <trkpt lat="45.73804" lon="6.46972">
        <ele>1480</ele>
        <time>2022-07-23T13:51:38Z</time>
      </trkpt>
      <trkpt lat="45.73804" lon="6.46974">
        <ele>1480</ele>
        <time>2022-07-23T13:51:39Z</time>
      </trkpt>
      <trkpt lat="45.73804" lon="6.46975">
        <ele>1480</ele>
        <time>2022-07-23T13:51:40Z</time>
      </trkpt>
      <trkpt lat="45.73804" lon="6.46976">
        <ele>1480</ele>
        <time>2022-07-23T13:51:41Z</time>
      </trkpt>
      <trkpt lat="45.73804" lon="6.46978">
        <ele>1480</ele>
        <time>2022-07-23T13:51:42Z</time>
      </trkpt>
      <trkpt lat="45.73804" lon="6.46979">
        <ele>1480</ele>
        <time>2022-07-23T13:51:43Z</time>
      </trkpt>
      <trkpt lat="45.73805" lon="6.4698">
        <ele>1480</ele>
        <time>2022-07-23T13:51:44Z</time>
      </trkpt>
      <trkpt lat="45.73805" lon="6.46981">
        <ele>1480</ele>
        <time>2022-07-23T13:51:45Z</time>
      </trkpt>
      <trkpt lat="45.73805" lon="6.46983">
        <ele>1480</ele>
        <time>2022-07-23T13:51:46Z</time>
      </trkpt>
      <trkpt lat="45.73805" lon="6.46984">
        <ele>1480</ele>
        <time>2022-07-23T13:51:47Z</time>
      </trkpt>
      <trkpt lat="45.73806" lon="6.46985">
        <ele>1480</ele>
        <time>2022-07-23T13:51:48Z</time>
      </trkpt>
      <trkpt lat="45.73806" lon="6.46987">
        <ele>1480</ele>
        <time>2022-07-23T13:51:49Z</time>
      </trkpt>
      <trkpt lat="45.73806" lon="6.46988">
        <ele>1480</ele>
        <time>2022-07-23T13:51:50Z</time>
      </trkpt>
      <trkpt lat="45.73807" lon="6.46989">
        <ele>1480</ele>
        <time>2022-07-23T13:51:51Z</time>
      </trkpt>
      <trkpt lat="45.73807" lon="6.46991">
        <ele>1480</ele>
        <time>2022-07-23T13:51:52Z</time>
      </trkpt>
      <trkpt lat="45.73807" lon="6.46992">
        <ele>1480</ele>
        <time>2022-07-23T13:51:53Z</time>
      </trkpt>
      <trkpt lat="45.73807" lon="6.46993">
        <ele>1480</ele>
        <time>2022-07-23T13:51:54Z</time>
      </trkpt>
      <trkpt lat="45.73807" lon="6.46994">
        <ele>1481</ele>
        <time>2022-07-23T13:51:55Z</time>
      </trkpt>
      <trkpt lat="45.73808" lon="6.46995">
        <ele>1481</ele>
        <time>2022-07-23T13:51:56Z</time>
      </trkpt>
      <trkpt lat="45.73808" lon="6.46997">
        <ele>1481</ele>
        <time>2022-07-23T13:51:57Z</time>
      </trkpt>
      <trkpt lat="45.73808" lon="6.46998">
        <ele>1481</ele>
        <time>2022-07-23T13:51:58Z</time>
      </trkpt>
      <trkpt lat="45.73808" lon="6.46999">
        <ele>1481</ele>
        <time>2022-07-23T13:51:59Z</time>
      </trkpt>
      <trkpt lat="45.73808" lon="6.47001">
        <ele>1481</ele>
        <time>2022-07-23T13:52:00Z</time>
      </trkpt>
      <trkpt lat="45.73809" lon="6.47002">
        <ele>1481</ele>
        <time>2022-07-23T13:52:01Z</time>
      </trkpt>
      <trkpt lat="45.73809" lon="6.47004">
        <ele>1481</ele>
        <time>2022-07-23T13:52:02Z</time>
      </trkpt>
      <trkpt lat="45.73809" lon="6.47005">
        <ele>1481</ele>
        <time>2022-07-23T13:52:03Z</time>
      </trkpt>
      <trkpt lat="45.73809" lon="6.47007">
        <ele>1481</ele>
        <time>2022-07-23T13:52:04Z</time>
      </trkpt>
      <trkpt lat="45.73809" lon="6.47008">
        <ele>1481</ele>
        <time>2022-07-23T13:52:05Z</time>
      </trkpt>
      <trkpt lat="45.73809" lon="6.4701">
        <ele>1481</ele>
        <time>2022-07-23T13:52:06Z</time>
      </trkpt>
      <trkpt lat="45.73809" lon="6.47011">
        <ele>1481</ele>
        <time>2022-07-23T13:52:07Z</time>
      </trkpt>
      <trkpt lat="45.73809" lon="6.47013">
        <ele>1481</ele>
        <time>2022-07-23T13:52:08Z</time>
      </trkpt>
      <trkpt lat="45.73809" lon="6.47015">
        <ele>1481</ele>
        <time>2022-07-23T13:52:09Z</time>
      </trkpt>
      <trkpt lat="45.73809" lon="6.47016">
        <ele>1482</ele>
        <time>2022-07-23T13:52:10Z</time>
      </trkpt>
      <trkpt lat="45.7381" lon="6.47018">
        <ele>1482</ele>
        <time>2022-07-23T13:52:11Z</time>
      </trkpt>
      <trkpt lat="45.7381" lon="6.47019">
        <ele>1482</ele>
        <time>2022-07-23T13:52:12Z</time>
      </trkpt>
      <trkpt lat="45.7381" lon="6.4702">
        <ele>1482</ele>
        <time>2022-07-23T13:52:13Z</time>
      </trkpt>
      <trkpt lat="45.7381" lon="6.47022">
        <ele>1482</ele>
        <time>2022-07-23T13:52:14Z</time>
      </trkpt>
      <trkpt lat="45.73811" lon="6.47023">
        <ele>1482</ele>
        <time>2022-07-23T13:52:15Z</time>
      </trkpt>
      <trkpt lat="45.73811" lon="6.47024">
        <ele>1482</ele>
        <time>2022-07-23T13:52:16Z</time>
      </trkpt>
      <trkpt lat="45.73811" lon="6.47026">
        <ele>1482</ele>
        <time>2022-07-23T13:52:17Z</time>
      </trkpt>
      <trkpt lat="45.73812" lon="6.47027">
        <ele>1482</ele>
        <time>2022-07-23T13:52:18Z</time>
      </trkpt>
      <trkpt lat="45.73812" lon="6.47029">
        <ele>1482</ele>
        <time>2022-07-23T13:52:19Z</time>
      </trkpt>
      <trkpt lat="45.73812" lon="6.4703">
        <ele>1483</ele>
        <time>2022-07-23T13:52:20Z</time>
      </trkpt>
      <trkpt lat="45.73812" lon="6.47032">
        <ele>1483</ele>
        <time>2022-07-23T13:52:21Z</time>
      </trkpt>
      <trkpt lat="45.73811" lon="6.47033">
        <ele>1483</ele>
        <time>2022-07-23T13:52:22Z</time>
      </trkpt>
      <trkpt lat="45.73811" lon="6.47035">
        <ele>1483</ele>
        <time>2022-07-23T13:52:23Z</time>
      </trkpt>
      <trkpt lat="45.73811" lon="6.47036">
        <ele>1483</ele>
        <time>2022-07-23T13:52:24Z</time>
      </trkpt>
      <trkpt lat="45.7381" lon="6.47038">
        <ele>1483</ele>
        <time>2022-07-23T13:52:25Z</time>
      </trkpt>
      <trkpt lat="45.7381" lon="6.4704">
        <ele>1483</ele>
        <time>2022-07-23T13:52:26Z</time>
      </trkpt>
      <trkpt lat="45.73809" lon="6.47042">
        <ele>1483</ele>
        <time>2022-07-23T13:52:27Z</time>
      </trkpt>
      <trkpt lat="45.73809" lon="6.47043">
        <ele>1483</ele>
        <time>2022-07-23T13:52:28Z</time>
      </trkpt>
      <trkpt lat="45.73808" lon="6.47045">
        <ele>1483</ele>
        <time>2022-07-23T13:52:29Z</time>
      </trkpt>
      <trkpt lat="45.73808" lon="6.47046">
        <ele>1483</ele>
        <time>2022-07-23T13:52:30Z</time>
      </trkpt>
      <trkpt lat="45.73808" lon="6.47048">
        <ele>1483</ele>
        <time>2022-07-23T13:52:31Z</time>
      </trkpt>
      <trkpt lat="45.73808" lon="6.4705">
        <ele>1483</ele>
        <time>2022-07-23T13:52:32Z</time>
      </trkpt>
      <trkpt lat="45.73808" lon="6.47051">
        <ele>1483</ele>
        <time>2022-07-23T13:52:33Z</time>
      </trkpt>
      <trkpt lat="45.73808" lon="6.47053">
        <ele>1483</ele>
        <time>2022-07-23T13:52:34Z</time>
      </trkpt>
      <trkpt lat="45.73808" lon="6.47055">
        <ele>1483</ele>
        <time>2022-07-23T13:52:35Z</time>
      </trkpt>
      <trkpt lat="45.73808" lon="6.47057">
        <ele>1483</ele>
        <time>2022-07-23T13:52:36Z</time>
      </trkpt>
      <trkpt lat="45.73808" lon="6.47059">
        <ele>1483</ele>
        <time>2022-07-23T13:52:37Z</time>
      </trkpt>
      <trkpt lat="45.73808" lon="6.47061">
        <ele>1483</ele>
        <time>2022-07-23T13:52:38Z</time>
      </trkpt>
      <trkpt lat="45.73807" lon="6.47063">
        <ele>1483</ele>
        <time>2022-07-23T13:52:39Z</time>
      </trkpt>
      <trkpt lat="45.73807" lon="6.47065">
        <ele>1483</ele>
        <time>2022-07-23T13:52:40Z</time>
      </trkpt>
      <trkpt lat="45.73807" lon="6.47067">
        <ele>1483</ele>
        <time>2022-07-23T13:52:41Z</time>
      </trkpt>
      <trkpt lat="45.73807" lon="6.47069">
        <ele>1483</ele>
        <time>2022-07-23T13:52:42Z</time>
      </trkpt>
      <trkpt lat="45.73807" lon="6.4707">
        <ele>1483</ele>
        <time>2022-07-23T13:52:43Z</time>
      </trkpt>
      <trkpt lat="45.73806" lon="6.47072">
        <ele>1483</ele>
        <time>2022-07-23T13:52:44Z</time>
      </trkpt>
      <trkpt lat="45.73806" lon="6.47073">
        <ele>1484</ele>
        <time>2022-07-23T13:52:45Z</time>
      </trkpt>
      <trkpt lat="45.73806" lon="6.47075">
        <ele>1484</ele>
        <time>2022-07-23T13:52:46Z</time>
      </trkpt>
      <trkpt lat="45.73806" lon="6.47076">
        <ele>1484</ele>
        <time>2022-07-23T13:52:47Z</time>
      </trkpt>
      <trkpt lat="45.73806" lon="6.47077">
        <ele>1484</ele>
        <time>2022-07-23T13:52:48Z</time>
      </trkpt>
      <trkpt lat="45.73806" lon="6.47079">
        <ele>1484</ele>
        <time>2022-07-23T13:52:49Z</time>
      </trkpt>
      <trkpt lat="45.73806" lon="6.4708">
        <ele>1484</ele>
        <time>2022-07-23T13:52:50Z</time>
      </trkpt>
      <trkpt lat="45.73806" lon="6.47082">
        <ele>1484</ele>
        <time>2022-07-23T13:52:51Z</time>
      </trkpt>
      <trkpt lat="45.73806" lon="6.47083">
        <ele>1484</ele>
        <time>2022-07-23T13:52:52Z</time>
      </trkpt>
      <trkpt lat="45.73806" lon="6.47084">
        <ele>1484</ele>
        <time>2022-07-23T13:52:53Z</time>
      </trkpt>
      <trkpt lat="45.73805" lon="6.47085">
        <ele>1484</ele>
        <time>2022-07-23T13:52:54Z</time>
      </trkpt>
      <trkpt lat="45.73805" lon="6.47085">
        <ele>1485</ele>
        <time>2022-07-23T13:52:55Z</time>
      </trkpt>
      <trkpt lat="45.73805" lon="6.47086">
        <ele>1485</ele>
        <time>2022-07-23T13:52:56Z</time>
      </trkpt>
      <trkpt lat="45.73805" lon="6.47086">
        <ele>1485</ele>
        <time>2022-07-23T13:52:57Z</time>
      </trkpt>
      <trkpt lat="45.73805" lon="6.47087">
        <ele>1485</ele>
        <time>2022-07-23T13:52:58Z</time>
      </trkpt>
      <trkpt lat="45.73805" lon="6.47088">
        <ele>1485</ele>
        <time>2022-07-23T13:52:59Z</time>
      </trkpt>
      <trkpt lat="45.73805" lon="6.4709">
        <ele>1485</ele>
        <time>2022-07-23T13:53:00Z</time>
      </trkpt>
      <trkpt lat="45.73805" lon="6.47091">
        <ele>1485</ele>
        <time>2022-07-23T13:53:01Z</time>
      </trkpt>
      <trkpt lat="45.73805" lon="6.47092">
        <ele>1485</ele>
        <time>2022-07-23T13:53:02Z</time>
      </trkpt>
      <trkpt lat="45.73805" lon="6.47093">
        <ele>1485</ele>
        <time>2022-07-23T13:53:03Z</time>
      </trkpt>
      <trkpt lat="45.73805" lon="6.47095">
        <ele>1485</ele>
        <time>2022-07-23T13:53:04Z</time>
      </trkpt>
      <trkpt lat="45.73805" lon="6.47096">
        <ele>1485</ele>
        <time>2022-07-23T13:53:05Z</time>
      </trkpt>
      <trkpt lat="45.73805" lon="6.47098">
        <ele>1485</ele>
        <time>2022-07-23T13:53:06Z</time>
      </trkpt>
      <trkpt lat="45.73805" lon="6.471">
        <ele>1485</ele>
        <time>2022-07-23T13:53:07Z</time>
      </trkpt>
      <trkpt lat="45.73804" lon="6.47101">
        <ele>1485</ele>
        <time>2022-07-23T13:53:08Z</time>
      </trkpt>
      <trkpt lat="45.73804" lon="6.47103">
        <ele>1485</ele>
        <time>2022-07-23T13:53:09Z</time>
      </trkpt>
      <trkpt lat="45.73804" lon="6.47104">
        <ele>1486</ele>
        <time>2022-07-23T13:53:10Z</time>
      </trkpt>
      <trkpt lat="45.73804" lon="6.47106">
        <ele>1486</ele>
        <time>2022-07-23T13:53:11Z</time>
      </trkpt>
      <trkpt lat="45.73804" lon="6.47107">
        <ele>1486</ele>
        <time>2022-07-23T13:53:12Z</time>
      </trkpt>
      <trkpt lat="45.73803" lon="6.47109">
        <ele>1486</ele>
        <time>2022-07-23T13:53:13Z</time>
      </trkpt>
      <trkpt lat="45.73803" lon="6.4711">
        <ele>1486</ele>
        <time>2022-07-23T13:53:14Z</time>
      </trkpt>
      <trkpt lat="45.73803" lon="6.47111">
        <ele>1486</ele>
        <time>2022-07-23T13:53:15Z</time>
      </trkpt>
      <trkpt lat="45.73803" lon="6.47113">
        <ele>1486</ele>
        <time>2022-07-23T13:53:16Z</time>
      </trkpt>
      <trkpt lat="45.73802" lon="6.47114">
        <ele>1486</ele>
        <time>2022-07-23T13:53:17Z</time>
      </trkpt>
      <trkpt lat="45.73802" lon="6.47116">
        <ele>1486</ele>
        <time>2022-07-23T13:53:18Z</time>
      </trkpt>
      <trkpt lat="45.73802" lon="6.47117">
        <ele>1486</ele>
        <time>2022-07-23T13:53:19Z</time>
      </trkpt>
      <trkpt lat="45.73802" lon="6.47119">
        <ele>1487</ele>
        <time>2022-07-23T13:53:20Z</time>
      </trkpt>
      <trkpt lat="45.73802" lon="6.4712">
        <ele>1487</ele>
        <time>2022-07-23T13:53:21Z</time>
      </trkpt>
      <trkpt lat="45.73802" lon="6.47122">
        <ele>1487</ele>
        <time>2022-07-23T13:53:22Z</time>
      </trkpt>
      <trkpt lat="45.73802" lon="6.47123">
        <ele>1487</ele>
        <time>2022-07-23T13:53:23Z</time>
      </trkpt>
      <trkpt lat="45.73802" lon="6.47125">
        <ele>1487</ele>
        <time>2022-07-23T13:53:24Z</time>
      </trkpt>
      <trkpt lat="45.73801" lon="6.47126">
        <ele>1487</ele>
        <time>2022-07-23T13:53:25Z</time>
      </trkpt>
      <trkpt lat="45.73801" lon="6.47128">
        <ele>1487</ele>
        <time>2022-07-23T13:53:26Z</time>
      </trkpt>
      <trkpt lat="45.73801" lon="6.47129">
        <ele>1487</ele>
        <time>2022-07-23T13:53:27Z</time>
      </trkpt>
      <trkpt lat="45.73801" lon="6.47131">
        <ele>1487</ele>
        <time>2022-07-23T13:53:28Z</time>
      </trkpt>
      <trkpt lat="45.73802" lon="6.47132">
        <ele>1487</ele>
        <time>2022-07-23T13:53:29Z</time>
      </trkpt>
      <trkpt lat="45.73802" lon="6.47133">
        <ele>1487</ele>
        <time>2022-07-23T13:53:30Z</time>
      </trkpt>
      <trkpt lat="45.73802" lon="6.47135">
        <ele>1487</ele>
        <time>2022-07-23T13:53:31Z</time>
      </trkpt>
      <trkpt lat="45.73802" lon="6.47136">
        <ele>1487</ele>
        <time>2022-07-23T13:53:32Z</time>
      </trkpt>
      <trkpt lat="45.73802" lon="6.47137">
        <ele>1487</ele>
        <time>2022-07-23T13:53:33Z</time>
      </trkpt>
      <trkpt lat="45.73802" lon="6.47139">
        <ele>1487</ele>
        <time>2022-07-23T13:53:34Z</time>
      </trkpt>
      <trkpt lat="45.73802" lon="6.4714">
        <ele>1487</ele>
        <time>2022-07-23T13:53:35Z</time>
      </trkpt>
      <trkpt lat="45.73802" lon="6.47141">
        <ele>1487</ele>
        <time>2022-07-23T13:53:36Z</time>
      </trkpt>
      <trkpt lat="45.73803" lon="6.47143">
        <ele>1487</ele>
        <time>2022-07-23T13:53:37Z</time>
      </trkpt>
      <trkpt lat="45.73803" lon="6.47144">
        <ele>1487</ele>
        <time>2022-07-23T13:53:38Z</time>
      </trkpt>
      <trkpt lat="45.73803" lon="6.47146">
        <ele>1487</ele>
        <time>2022-07-23T13:53:39Z</time>
      </trkpt>
      <trkpt lat="45.73803" lon="6.47147">
        <ele>1488</ele>
        <time>2022-07-23T13:53:40Z</time>
      </trkpt>
      <trkpt lat="45.73804" lon="6.47149">
        <ele>1488</ele>
        <time>2022-07-23T13:53:41Z</time>
      </trkpt>
      <trkpt lat="45.73804" lon="6.4715">
        <ele>1488</ele>
        <time>2022-07-23T13:53:42Z</time>
      </trkpt>
      <trkpt lat="45.73804" lon="6.47152">
        <ele>1488</ele>
        <time>2022-07-23T13:53:43Z</time>
      </trkpt>
      <trkpt lat="45.73804" lon="6.47153">
        <ele>1488</ele>
        <time>2022-07-23T13:53:44Z</time>
      </trkpt>
      <trkpt lat="45.73805" lon="6.47155">
        <ele>1488</ele>
        <time>2022-07-23T13:53:45Z</time>
      </trkpt>
      <trkpt lat="45.73804" lon="6.47156">
        <ele>1489</ele>
        <time>2022-07-23T13:53:57Z</time>
      </trkpt>
      <trkpt lat="45.73804" lon="6.47157">
        <ele>1489</ele>
        <time>2022-07-23T13:53:58Z</time>
      </trkpt>
      <trkpt lat="45.73804" lon="6.47158">
        <ele>1489</ele>
        <time>2022-07-23T13:53:59Z</time>
      </trkpt>
      <trkpt lat="45.73804" lon="6.47159">
        <ele>1489</ele>
        <time>2022-07-23T13:54:00Z</time>
      </trkpt>
      <trkpt lat="45.73804" lon="6.4716">
        <ele>1489</ele>
        <time>2022-07-23T13:54:01Z</time>
      </trkpt>
      <trkpt lat="45.73804" lon="6.47161">
        <ele>1489</ele>
        <time>2022-07-23T13:54:02Z</time>
      </trkpt>
      <trkpt lat="45.73804" lon="6.47162">
        <ele>1489</ele>
        <time>2022-07-23T13:54:03Z</time>
      </trkpt>
      <trkpt lat="45.73804" lon="6.47163">
        <ele>1489</ele>
        <time>2022-07-23T13:54:04Z</time>
      </trkpt>
      <trkpt lat="45.73804" lon="6.47165">
        <ele>1490</ele>
        <time>2022-07-23T13:54:05Z</time>
      </trkpt>
      <trkpt lat="45.73805" lon="6.47166">
        <ele>1490</ele>
        <time>2022-07-23T13:54:06Z</time>
      </trkpt>
      <trkpt lat="45.73805" lon="6.47167">
        <ele>1490</ele>
        <time>2022-07-23T13:54:07Z</time>
      </trkpt>
      <trkpt lat="45.73805" lon="6.47168">
        <ele>1490</ele>
        <time>2022-07-23T13:54:08Z</time>
      </trkpt>
      <trkpt lat="45.73806" lon="6.4717">
        <ele>1490</ele>
        <time>2022-07-23T13:54:09Z</time>
      </trkpt>
      <trkpt lat="45.73806" lon="6.47171">
        <ele>1490</ele>
        <time>2022-07-23T13:54:10Z</time>
      </trkpt>
      <trkpt lat="45.73806" lon="6.47172">
        <ele>1490</ele>
        <time>2022-07-23T13:54:11Z</time>
      </trkpt>
      <trkpt lat="45.73807" lon="6.47174">
        <ele>1490</ele>
        <time>2022-07-23T13:54:12Z</time>
      </trkpt>
      <trkpt lat="45.73807" lon="6.47175">
        <ele>1490</ele>
        <time>2022-07-23T13:54:13Z</time>
      </trkpt>
      <trkpt lat="45.73807" lon="6.47176">
        <ele>1490</ele>
        <time>2022-07-23T13:54:14Z</time>
      </trkpt>
      <trkpt lat="45.73807" lon="6.47177">
        <ele>1490</ele>
        <time>2022-07-23T13:54:15Z</time>
      </trkpt>
      <trkpt lat="45.73807" lon="6.47179">
        <ele>1490</ele>
        <time>2022-07-23T13:54:16Z</time>
      </trkpt>
      <trkpt lat="45.73807" lon="6.4718">
        <ele>1490</ele>
        <time>2022-07-23T13:54:17Z</time>
      </trkpt>
      <trkpt lat="45.73807" lon="6.47181">
        <ele>1490</ele>
        <time>2022-07-23T13:54:18Z</time>
      </trkpt>
      <trkpt lat="45.73806" lon="6.47182">
        <ele>1490</ele>
        <time>2022-07-23T13:54:19Z</time>
      </trkpt>
      <trkpt lat="45.73806" lon="6.47184">
        <ele>1490</ele>
        <time>2022-07-23T13:54:20Z</time>
      </trkpt>
      <trkpt lat="45.73806" lon="6.47185">
        <ele>1490</ele>
        <time>2022-07-23T13:54:21Z</time>
      </trkpt>
      <trkpt lat="45.73805" lon="6.47187">
        <ele>1490</ele>
        <time>2022-07-23T13:54:22Z</time>
      </trkpt>
      <trkpt lat="45.73805" lon="6.47188">
        <ele>1490</ele>
        <time>2022-07-23T13:54:23Z</time>
      </trkpt>
      <trkpt lat="45.73804" lon="6.47189">
        <ele>1490</ele>
        <time>2022-07-23T13:54:24Z</time>
      </trkpt>
      <trkpt lat="45.73804" lon="6.47191">
        <ele>1491</ele>
        <time>2022-07-23T13:54:25Z</time>
      </trkpt>
      <trkpt lat="45.73804" lon="6.47192">
        <ele>1491</ele>
        <time>2022-07-23T13:54:26Z</time>
      </trkpt>
      <trkpt lat="45.73803" lon="6.47193">
        <ele>1491</ele>
        <time>2022-07-23T13:54:27Z</time>
      </trkpt>
      <trkpt lat="45.73803" lon="6.47195">
        <ele>1491</ele>
        <time>2022-07-23T13:54:28Z</time>
      </trkpt>
      <trkpt lat="45.73803" lon="6.47196">
        <ele>1491</ele>
        <time>2022-07-23T13:54:29Z</time>
      </trkpt>
      <trkpt lat="45.73802" lon="6.47197">
        <ele>1491</ele>
        <time>2022-07-23T13:54:30Z</time>
      </trkpt>
      <trkpt lat="45.73802" lon="6.47198">
        <ele>1491</ele>
        <time>2022-07-23T13:54:31Z</time>
      </trkpt>
      <trkpt lat="45.73802" lon="6.47199">
        <ele>1491</ele>
        <time>2022-07-23T13:54:32Z</time>
      </trkpt>
      <trkpt lat="45.73801" lon="6.472">
        <ele>1491</ele>
        <time>2022-07-23T13:54:33Z</time>
      </trkpt>
      <trkpt lat="45.73801" lon="6.47201">
        <ele>1491</ele>
        <time>2022-07-23T13:54:34Z</time>
      </trkpt>
      <trkpt lat="45.73801" lon="6.47203">
        <ele>1491</ele>
        <time>2022-07-23T13:54:35Z</time>
      </trkpt>
      <trkpt lat="45.73801" lon="6.47204">
        <ele>1491</ele>
        <time>2022-07-23T13:54:36Z</time>
      </trkpt>
      <trkpt lat="45.738" lon="6.47205">
        <ele>1491</ele>
        <time>2022-07-23T13:54:37Z</time>
      </trkpt>
      <trkpt lat="45.738" lon="6.47207">
        <ele>1491</ele>
        <time>2022-07-23T13:54:38Z</time>
      </trkpt>
      <trkpt lat="45.738" lon="6.47208">
        <ele>1491</ele>
        <time>2022-07-23T13:54:39Z</time>
      </trkpt>
      <trkpt lat="45.738" lon="6.4721">
        <ele>1491</ele>
        <time>2022-07-23T13:54:40Z</time>
      </trkpt>
      <trkpt lat="45.73799" lon="6.47211">
        <ele>1491</ele>
        <time>2022-07-23T13:54:41Z</time>
      </trkpt>
      <trkpt lat="45.73799" lon="6.47213">
        <ele>1491</ele>
        <time>2022-07-23T13:54:42Z</time>
      </trkpt>
      <trkpt lat="45.73799" lon="6.47214">
        <ele>1491</ele>
        <time>2022-07-23T13:54:43Z</time>
      </trkpt>
      <trkpt lat="45.73798" lon="6.47215">
        <ele>1491</ele>
        <time>2022-07-23T13:54:44Z</time>
      </trkpt>
      <trkpt lat="45.73798" lon="6.47216">
        <ele>1492</ele>
        <time>2022-07-23T13:54:45Z</time>
      </trkpt>
      <trkpt lat="45.73798" lon="6.47218">
        <ele>1492</ele>
        <time>2022-07-23T13:54:46Z</time>
      </trkpt>
      <trkpt lat="45.73798" lon="6.47219">
        <ele>1492</ele>
        <time>2022-07-23T13:54:47Z</time>
      </trkpt>
      <trkpt lat="45.73798" lon="6.4722">
        <ele>1492</ele>
        <time>2022-07-23T13:54:48Z</time>
      </trkpt>
      <trkpt lat="45.73797" lon="6.47221">
        <ele>1492</ele>
        <time>2022-07-23T13:54:49Z</time>
      </trkpt>
      <trkpt lat="45.73797" lon="6.47222">
        <ele>1492</ele>
        <time>2022-07-23T13:54:50Z</time>
      </trkpt>
      <trkpt lat="45.73797" lon="6.47224">
        <ele>1492</ele>
        <time>2022-07-23T13:54:51Z</time>
      </trkpt>
      <trkpt lat="45.73797" lon="6.47225">
        <ele>1492</ele>
        <time>2022-07-23T13:54:52Z</time>
      </trkpt>
      <trkpt lat="45.73797" lon="6.47226">
        <ele>1493</ele>
        <time>2022-07-23T13:54:53Z</time>
      </trkpt>
      <trkpt lat="45.73796" lon="6.47227">
        <ele>1493</ele>
        <time>2022-07-23T13:54:54Z</time>
      </trkpt>
      <trkpt lat="45.73796" lon="6.47229">
        <ele>1494</ele>
        <time>2022-07-23T13:54:55Z</time>
      </trkpt>
      <trkpt lat="45.73796" lon="6.4723">
        <ele>1494</ele>
        <time>2022-07-23T13:54:56Z</time>
      </trkpt>
      <trkpt lat="45.73796" lon="6.47231">
        <ele>1494</ele>
        <time>2022-07-23T13:54:57Z</time>
      </trkpt>
      <trkpt lat="45.73795" lon="6.47232">
        <ele>1494</ele>
        <time>2022-07-23T13:54:58Z</time>
      </trkpt>
      <trkpt lat="45.73795" lon="6.47233">
        <ele>1494</ele>
        <time>2022-07-23T13:54:59Z</time>
      </trkpt>
      <trkpt lat="45.73795" lon="6.47234">
        <ele>1495</ele>
        <time>2022-07-23T13:55:34Z</time>
      </trkpt>
      <trkpt lat="45.73795" lon="6.47235">
        <ele>1495</ele>
        <time>2022-07-23T13:55:35Z</time>
      </trkpt>
      <trkpt lat="45.73795" lon="6.47236">
        <ele>1495</ele>
        <time>2022-07-23T13:55:36Z</time>
      </trkpt>
      <trkpt lat="45.73795" lon="6.47238">
        <ele>1495</ele>
        <time>2022-07-23T13:55:44Z</time>
      </trkpt>
      <trkpt lat="45.73795" lon="6.4724">
        <ele>1495</ele>
        <time>2022-07-23T13:55:45Z</time>
      </trkpt>
      <trkpt lat="45.73795" lon="6.47241">
        <ele>1495</ele>
        <time>2022-07-23T13:55:46Z</time>
      </trkpt>
      <trkpt lat="45.73795" lon="6.47242">
        <ele>1495</ele>
        <time>2022-07-23T13:55:47Z</time>
      </trkpt>
      <trkpt lat="45.73795" lon="6.47243">
        <ele>1495</ele>
        <time>2022-07-23T13:55:48Z</time>
      </trkpt>
      <trkpt lat="45.73795" lon="6.47245">
        <ele>1495</ele>
        <time>2022-07-23T13:55:49Z</time>
      </trkpt>
      <trkpt lat="45.73795" lon="6.47246">
        <ele>1495</ele>
        <time>2022-07-23T13:55:50Z</time>
      </trkpt>
      <trkpt lat="45.73794" lon="6.47247">
        <ele>1495</ele>
        <time>2022-07-23T13:55:51Z</time>
      </trkpt>
      <trkpt lat="45.73794" lon="6.47248">
        <ele>1495</ele>
        <time>2022-07-23T13:55:52Z</time>
      </trkpt>
      <trkpt lat="45.73794" lon="6.4725">
        <ele>1495</ele>
        <time>2022-07-23T13:55:53Z</time>
      </trkpt>
      <trkpt lat="45.73793" lon="6.47251">
        <ele>1495</ele>
        <time>2022-07-23T13:55:54Z</time>
      </trkpt>
      <trkpt lat="45.73793" lon="6.47252">
        <ele>1495</ele>
        <time>2022-07-23T13:55:55Z</time>
      </trkpt>
      <trkpt lat="45.73793" lon="6.47254">
        <ele>1495</ele>
        <time>2022-07-23T13:55:56Z</time>
      </trkpt>
      <trkpt lat="45.73792" lon="6.47255">
        <ele>1495</ele>
        <time>2022-07-23T13:55:57Z</time>
      </trkpt>
      <trkpt lat="45.73792" lon="6.47256">
        <ele>1495</ele>
        <time>2022-07-23T13:55:58Z</time>
      </trkpt>
      <trkpt lat="45.73792" lon="6.47257">
        <ele>1495</ele>
        <time>2022-07-23T13:55:59Z</time>
      </trkpt>
      <trkpt lat="45.73791" lon="6.47258">
        <ele>1496</ele>
        <time>2022-07-23T13:56:00Z</time>
      </trkpt>
      <trkpt lat="45.73791" lon="6.4726">
        <ele>1496</ele>
        <time>2022-07-23T13:56:01Z</time>
      </trkpt>
      <trkpt lat="45.7379" lon="6.47261">
        <ele>1496</ele>
        <time>2022-07-23T13:56:02Z</time>
      </trkpt>
      <trkpt lat="45.7379" lon="6.47262">
        <ele>1496</ele>
        <time>2022-07-23T13:56:03Z</time>
      </trkpt>
      <trkpt lat="45.73789" lon="6.47263">
        <ele>1496</ele>
        <time>2022-07-23T13:56:04Z</time>
      </trkpt>
      <trkpt lat="45.73789" lon="6.47264">
        <ele>1496</ele>
        <time>2022-07-23T13:56:05Z</time>
      </trkpt>
      <trkpt lat="45.73788" lon="6.47265">
        <ele>1496</ele>
        <time>2022-07-23T13:56:06Z</time>
      </trkpt>
      <trkpt lat="45.73788" lon="6.47267">
        <ele>1496</ele>
        <time>2022-07-23T13:56:07Z</time>
      </trkpt>
      <trkpt lat="45.73787" lon="6.47268">
        <ele>1496</ele>
        <time>2022-07-23T13:56:08Z</time>
      </trkpt>
      <trkpt lat="45.73787" lon="6.47269">
        <ele>1496</ele>
        <time>2022-07-23T13:56:09Z</time>
      </trkpt>
      <trkpt lat="45.73787" lon="6.4727">
        <ele>1497</ele>
        <time>2022-07-23T13:56:10Z</time>
      </trkpt>
      <trkpt lat="45.73786" lon="6.47272">
        <ele>1497</ele>
        <time>2022-07-23T13:56:11Z</time>
      </trkpt>
      <trkpt lat="45.73786" lon="6.47273">
        <ele>1497</ele>
        <time>2022-07-23T13:56:12Z</time>
      </trkpt>
      <trkpt lat="45.73786" lon="6.47275">
        <ele>1497</ele>
        <time>2022-07-23T13:56:13Z</time>
      </trkpt>
      <trkpt lat="45.73785" lon="6.47276">
        <ele>1497</ele>
        <time>2022-07-23T13:56:14Z</time>
      </trkpt>
      <trkpt lat="45.73785" lon="6.47278">
        <ele>1497</ele>
        <time>2022-07-23T13:56:15Z</time>
      </trkpt>
      <trkpt lat="45.73785" lon="6.47279">
        <ele>1497</ele>
        <time>2022-07-23T13:56:16Z</time>
      </trkpt>
      <trkpt lat="45.73785" lon="6.47281">
        <ele>1497</ele>
        <time>2022-07-23T13:56:17Z</time>
      </trkpt>
      <trkpt lat="45.73784" lon="6.47282">
        <ele>1497</ele>
        <time>2022-07-23T13:56:18Z</time>
      </trkpt>
      <trkpt lat="45.73784" lon="6.47283">
        <ele>1497</ele>
        <time>2022-07-23T13:56:19Z</time>
      </trkpt>
      <trkpt lat="45.73784" lon="6.47285">
        <ele>1498</ele>
        <time>2022-07-23T13:56:20Z</time>
      </trkpt>
      <trkpt lat="45.73784" lon="6.47286">
        <ele>1498</ele>
        <time>2022-07-23T13:56:21Z</time>
      </trkpt>
      <trkpt lat="45.73784" lon="6.47287">
        <ele>1498</ele>
        <time>2022-07-23T13:56:22Z</time>
      </trkpt>
      <trkpt lat="45.73783" lon="6.47289">
        <ele>1498</ele>
        <time>2022-07-23T13:56:23Z</time>
      </trkpt>
      <trkpt lat="45.73783" lon="6.4729">
        <ele>1498</ele>
        <time>2022-07-23T13:56:24Z</time>
      </trkpt>
      <trkpt lat="45.73783" lon="6.47291">
        <ele>1498</ele>
        <time>2022-07-23T13:56:25Z</time>
      </trkpt>
      <trkpt lat="45.73783" lon="6.47293">
        <ele>1498</ele>
        <time>2022-07-23T13:56:26Z</time>
      </trkpt>
      <trkpt lat="45.73783" lon="6.47294">
        <ele>1498</ele>
        <time>2022-07-23T13:56:27Z</time>
      </trkpt>
      <trkpt lat="45.73783" lon="6.47295">
        <ele>1498</ele>
        <time>2022-07-23T13:56:28Z</time>
      </trkpt>
      <trkpt lat="45.73783" lon="6.47297">
        <ele>1498</ele>
        <time>2022-07-23T13:56:29Z</time>
      </trkpt>
      <trkpt lat="45.73782" lon="6.47298">
        <ele>1499</ele>
        <time>2022-07-23T13:56:30Z</time>
      </trkpt>
      <trkpt lat="45.73782" lon="6.47299">
        <ele>1499</ele>
        <time>2022-07-23T13:56:31Z</time>
      </trkpt>
      <trkpt lat="45.73782" lon="6.473">
        <ele>1499</ele>
        <time>2022-07-23T13:56:32Z</time>
      </trkpt>
      <trkpt lat="45.73782" lon="6.47302">
        <ele>1499</ele>
        <time>2022-07-23T13:56:33Z</time>
      </trkpt>
      <trkpt lat="45.73782" lon="6.47303">
        <ele>1499</ele>
        <time>2022-07-23T13:56:34Z</time>
      </trkpt>
      <trkpt lat="45.73782" lon="6.47304">
        <ele>1499</ele>
        <time>2022-07-23T13:56:35Z</time>
      </trkpt>
      <trkpt lat="45.73782" lon="6.47305">
        <ele>1499</ele>
        <time>2022-07-23T13:56:36Z</time>
      </trkpt>
      <trkpt lat="45.73781" lon="6.47306">
        <ele>1499</ele>
        <time>2022-07-23T13:56:37Z</time>
      </trkpt>
      <trkpt lat="45.73781" lon="6.47308">
        <ele>1499</ele>
        <time>2022-07-23T13:56:38Z</time>
      </trkpt>
      <trkpt lat="45.73781" lon="6.47309">
        <ele>1499</ele>
        <time>2022-07-23T13:56:39Z</time>
      </trkpt>
      <trkpt lat="45.7378" lon="6.4731">
        <ele>1500</ele>
        <time>2022-07-23T13:56:40Z</time>
      </trkpt>
      <trkpt lat="45.7378" lon="6.47311">
        <ele>1500</ele>
        <time>2022-07-23T13:56:41Z</time>
      </trkpt>
      <trkpt lat="45.73779" lon="6.47312">
        <ele>1500</ele>
        <time>2022-07-23T13:56:42Z</time>
      </trkpt>
      <trkpt lat="45.73779" lon="6.47313">
        <ele>1500</ele>
        <time>2022-07-23T13:56:43Z</time>
      </trkpt>
      <trkpt lat="45.73778" lon="6.47315">
        <ele>1500</ele>
        <time>2022-07-23T13:56:44Z</time>
      </trkpt>
      <trkpt lat="45.73778" lon="6.47316">
        <ele>1501</ele>
        <time>2022-07-23T13:56:45Z</time>
      </trkpt>
      <trkpt lat="45.73777" lon="6.47317">
        <ele>1501</ele>
        <time>2022-07-23T13:56:46Z</time>
      </trkpt>
      <trkpt lat="45.73777" lon="6.47318">
        <ele>1501</ele>
        <time>2022-07-23T13:56:47Z</time>
      </trkpt>
      <trkpt lat="45.73776" lon="6.4732">
        <ele>1501</ele>
        <time>2022-07-23T13:56:48Z</time>
      </trkpt>
      <trkpt lat="45.73776" lon="6.47321">
        <ele>1501</ele>
        <time>2022-07-23T13:56:49Z</time>
      </trkpt>
      <trkpt lat="45.73776" lon="6.47322">
        <ele>1501</ele>
        <time>2022-07-23T13:56:50Z</time>
      </trkpt>
      <trkpt lat="45.73776" lon="6.47323">
        <ele>1501</ele>
        <time>2022-07-23T13:56:51Z</time>
      </trkpt>
      <trkpt lat="45.73775" lon="6.47324">
        <ele>1501</ele>
        <time>2022-07-23T13:56:52Z</time>
      </trkpt>
      <trkpt lat="45.73775" lon="6.47325">
        <ele>1501</ele>
        <time>2022-07-23T13:56:53Z</time>
      </trkpt>
      <trkpt lat="45.73775" lon="6.47326">
        <ele>1501</ele>
        <time>2022-07-23T13:56:54Z</time>
      </trkpt>
      <trkpt lat="45.73775" lon="6.47327">
        <ele>1502</ele>
        <time>2022-07-23T13:56:55Z</time>
      </trkpt>
      <trkpt lat="45.73775" lon="6.47328">
        <ele>1502</ele>
        <time>2022-07-23T13:56:56Z</time>
      </trkpt>
      <trkpt lat="45.73775" lon="6.47329">
        <ele>1502</ele>
        <time>2022-07-23T13:56:57Z</time>
      </trkpt>
      <trkpt lat="45.73775" lon="6.4733">
        <ele>1502</ele>
        <time>2022-07-23T13:56:58Z</time>
      </trkpt>
      <trkpt lat="45.73775" lon="6.47331">
        <ele>1502</ele>
        <time>2022-07-23T13:56:59Z</time>
      </trkpt>
      <trkpt lat="45.73775" lon="6.47332">
        <ele>1502</ele>
        <time>2022-07-23T13:57:00Z</time>
      </trkpt>
      <trkpt lat="45.73775" lon="6.47333">
        <ele>1502</ele>
        <time>2022-07-23T13:57:01Z</time>
      </trkpt>
      <trkpt lat="45.73775" lon="6.47334">
        <ele>1502</ele>
        <time>2022-07-23T13:57:02Z</time>
      </trkpt>
      <trkpt lat="45.73774" lon="6.47335">
        <ele>1502</ele>
        <time>2022-07-23T13:57:03Z</time>
      </trkpt>
      <trkpt lat="45.73774" lon="6.47336">
        <ele>1502</ele>
        <time>2022-07-23T13:57:04Z</time>
      </trkpt>
      <trkpt lat="45.73774" lon="6.47338">
        <ele>1503</ele>
        <time>2022-07-23T13:57:05Z</time>
      </trkpt>
      <trkpt lat="45.73773" lon="6.47339">
        <ele>1503</ele>
        <time>2022-07-23T13:57:06Z</time>
      </trkpt>
      <trkpt lat="45.73773" lon="6.4734">
        <ele>1503</ele>
        <time>2022-07-23T13:57:07Z</time>
      </trkpt>
      <trkpt lat="45.73773" lon="6.47341">
        <ele>1503</ele>
        <time>2022-07-23T13:57:08Z</time>
      </trkpt>
      <trkpt lat="45.73773" lon="6.47343">
        <ele>1503</ele>
        <time>2022-07-23T13:57:09Z</time>
      </trkpt>
      <trkpt lat="45.73773" lon="6.47344">
        <ele>1503</ele>
        <time>2022-07-23T13:57:10Z</time>
      </trkpt>
      <trkpt lat="45.73773" lon="6.47345">
        <ele>1503</ele>
        <time>2022-07-23T13:57:11Z</time>
      </trkpt>
      <trkpt lat="45.73773" lon="6.47346">
        <ele>1503</ele>
        <time>2022-07-23T13:57:12Z</time>
      </trkpt>
      <trkpt lat="45.73773" lon="6.47348">
        <ele>1503</ele>
        <time>2022-07-23T13:57:13Z</time>
      </trkpt>
      <trkpt lat="45.73773" lon="6.47349">
        <ele>1503</ele>
        <time>2022-07-23T13:57:14Z</time>
      </trkpt>
      <trkpt lat="45.73773" lon="6.4735">
        <ele>1504</ele>
        <time>2022-07-23T13:57:15Z</time>
      </trkpt>
      <trkpt lat="45.73773" lon="6.47352">
        <ele>1504</ele>
        <time>2022-07-23T13:57:16Z</time>
      </trkpt>
      <trkpt lat="45.73774" lon="6.47353">
        <ele>1504</ele>
        <time>2022-07-23T13:57:17Z</time>
      </trkpt>
      <trkpt lat="45.73774" lon="6.47355">
        <ele>1504</ele>
        <time>2022-07-23T13:57:18Z</time>
      </trkpt>
      <trkpt lat="45.73774" lon="6.47356">
        <ele>1504</ele>
        <time>2022-07-23T13:57:19Z</time>
      </trkpt>
      <trkpt lat="45.73775" lon="6.47358">
        <ele>1504</ele>
        <time>2022-07-23T13:57:20Z</time>
      </trkpt>
      <trkpt lat="45.73775" lon="6.47359">
        <ele>1504</ele>
        <time>2022-07-23T13:57:21Z</time>
      </trkpt>
      <trkpt lat="45.73775" lon="6.47361">
        <ele>1504</ele>
        <time>2022-07-23T13:57:22Z</time>
      </trkpt>
      <trkpt lat="45.73775" lon="6.47362">
        <ele>1504</ele>
        <time>2022-07-23T13:57:23Z</time>
      </trkpt>
      <trkpt lat="45.73775" lon="6.47363">
        <ele>1504</ele>
        <time>2022-07-23T13:57:24Z</time>
      </trkpt>
      <trkpt lat="45.73775" lon="6.47365">
        <ele>1505</ele>
        <time>2022-07-23T13:57:25Z</time>
      </trkpt>
      <trkpt lat="45.73776" lon="6.47366">
        <ele>1505</ele>
        <time>2022-07-23T13:57:26Z</time>
      </trkpt>
      <trkpt lat="45.73776" lon="6.47367">
        <ele>1505</ele>
        <time>2022-07-23T13:57:27Z</time>
      </trkpt>
      <trkpt lat="45.73776" lon="6.47369">
        <ele>1505</ele>
        <time>2022-07-23T13:57:28Z</time>
      </trkpt>
      <trkpt lat="45.73777" lon="6.4737">
        <ele>1505</ele>
        <time>2022-07-23T13:57:29Z</time>
      </trkpt>
      <trkpt lat="45.73777" lon="6.47371">
        <ele>1505</ele>
        <time>2022-07-23T13:57:30Z</time>
      </trkpt>
      <trkpt lat="45.73778" lon="6.47373">
        <ele>1505</ele>
        <time>2022-07-23T13:57:31Z</time>
      </trkpt>
      <trkpt lat="45.73778" lon="6.47374">
        <ele>1505</ele>
        <time>2022-07-23T13:57:32Z</time>
      </trkpt>
      <trkpt lat="45.73779" lon="6.47376">
        <ele>1505</ele>
        <time>2022-07-23T13:57:33Z</time>
      </trkpt>
      <trkpt lat="45.73779" lon="6.47377">
        <ele>1505</ele>
        <time>2022-07-23T13:57:34Z</time>
      </trkpt>
      <trkpt lat="45.7378" lon="6.47378">
        <ele>1505</ele>
        <time>2022-07-23T13:57:35Z</time>
      </trkpt>
      <trkpt lat="45.73781" lon="6.4738">
        <ele>1505</ele>
        <time>2022-07-23T13:57:36Z</time>
      </trkpt>
      <trkpt lat="45.73781" lon="6.47381">
        <ele>1505</ele>
        <time>2022-07-23T13:57:37Z</time>
      </trkpt>
      <trkpt lat="45.73782" lon="6.47382">
        <ele>1505</ele>
        <time>2022-07-23T13:57:38Z</time>
      </trkpt>
      <trkpt lat="45.73782" lon="6.47383">
        <ele>1505</ele>
        <time>2022-07-23T13:57:39Z</time>
      </trkpt>
      <trkpt lat="45.73782" lon="6.47384">
        <ele>1506</ele>
        <time>2022-07-23T13:57:40Z</time>
      </trkpt>
      <trkpt lat="45.73783" lon="6.47385">
        <ele>1506</ele>
        <time>2022-07-23T13:57:41Z</time>
      </trkpt>
      <trkpt lat="45.73783" lon="6.47386">
        <ele>1506</ele>
        <time>2022-07-23T13:57:42Z</time>
      </trkpt>
      <trkpt lat="45.73783" lon="6.47387">
        <ele>1506</ele>
        <time>2022-07-23T13:57:43Z</time>
      </trkpt>
      <trkpt lat="45.73784" lon="6.47387">
        <ele>1506</ele>
        <time>2022-07-23T13:57:44Z</time>
      </trkpt>
      <trkpt lat="45.73784" lon="6.47388">
        <ele>1506</ele>
        <time>2022-07-23T13:57:45Z</time>
      </trkpt>
      <trkpt lat="45.73785" lon="6.47389">
        <ele>1506</ele>
        <time>2022-07-23T13:57:46Z</time>
      </trkpt>
      <trkpt lat="45.73785" lon="6.47391">
        <ele>1506</ele>
        <time>2022-07-23T13:57:47Z</time>
      </trkpt>
      <trkpt lat="45.73786" lon="6.47392">
        <ele>1506</ele>
        <time>2022-07-23T13:57:48Z</time>
      </trkpt>
      <trkpt lat="45.73787" lon="6.47393">
        <ele>1506</ele>
        <time>2022-07-23T13:57:49Z</time>
      </trkpt>
      <trkpt lat="45.73787" lon="6.47394">
        <ele>1507</ele>
        <time>2022-07-23T13:57:50Z</time>
      </trkpt>
      <trkpt lat="45.73788" lon="6.47395">
        <ele>1507</ele>
        <time>2022-07-23T13:57:51Z</time>
      </trkpt>
      <trkpt lat="45.73788" lon="6.47397">
        <ele>1507</ele>
        <time>2022-07-23T13:57:52Z</time>
      </trkpt>
      <trkpt lat="45.73788" lon="6.47398">
        <ele>1507</ele>
        <time>2022-07-23T13:57:53Z</time>
      </trkpt>
      <trkpt lat="45.73789" lon="6.47399">
        <ele>1507</ele>
        <time>2022-07-23T13:57:54Z</time>
      </trkpt>
      <trkpt lat="45.73789" lon="6.47401">
        <ele>1507</ele>
        <time>2022-07-23T13:57:55Z</time>
      </trkpt>
      <trkpt lat="45.73789" lon="6.47402">
        <ele>1507</ele>
        <time>2022-07-23T13:57:56Z</time>
      </trkpt>
      <trkpt lat="45.73789" lon="6.47403">
        <ele>1507</ele>
        <time>2022-07-23T13:57:57Z</time>
      </trkpt>
      <trkpt lat="45.7379" lon="6.47405">
        <ele>1507</ele>
        <time>2022-07-23T13:57:58Z</time>
      </trkpt>
      <trkpt lat="45.7379" lon="6.47406">
        <ele>1507</ele>
        <time>2022-07-23T13:57:59Z</time>
      </trkpt>
      <trkpt lat="45.7379" lon="6.47408">
        <ele>1507</ele>
        <time>2022-07-23T13:58:00Z</time>
      </trkpt>
      <trkpt lat="45.7379" lon="6.47409">
        <ele>1507</ele>
        <time>2022-07-23T13:58:01Z</time>
      </trkpt>
      <trkpt lat="45.73791" lon="6.47411">
        <ele>1507</ele>
        <time>2022-07-23T13:58:02Z</time>
      </trkpt>
      <trkpt lat="45.73791" lon="6.47412">
        <ele>1507</ele>
        <time>2022-07-23T13:58:03Z</time>
      </trkpt>
      <trkpt lat="45.73792" lon="6.47414">
        <ele>1507</ele>
        <time>2022-07-23T13:58:04Z</time>
      </trkpt>
      <trkpt lat="45.73792" lon="6.47415">
        <ele>1508</ele>
        <time>2022-07-23T13:58:05Z</time>
      </trkpt>
      <trkpt lat="45.73792" lon="6.47416">
        <ele>1508</ele>
        <time>2022-07-23T13:58:06Z</time>
      </trkpt>
      <trkpt lat="45.73793" lon="6.47418">
        <ele>1508</ele>
        <time>2022-07-23T13:58:07Z</time>
      </trkpt>
      <trkpt lat="45.73793" lon="6.47419">
        <ele>1508</ele>
        <time>2022-07-23T13:58:08Z</time>
      </trkpt>
      <trkpt lat="45.73793" lon="6.47421">
        <ele>1508</ele>
        <time>2022-07-23T13:58:09Z</time>
      </trkpt>
      <trkpt lat="45.73793" lon="6.47422">
        <ele>1508</ele>
        <time>2022-07-23T13:58:10Z</time>
      </trkpt>
      <trkpt lat="45.73794" lon="6.47424">
        <ele>1508</ele>
        <time>2022-07-23T13:58:11Z</time>
      </trkpt>
      <trkpt lat="45.73794" lon="6.47425">
        <ele>1508</ele>
        <time>2022-07-23T13:58:12Z</time>
      </trkpt>
      <trkpt lat="45.73794" lon="6.47426">
        <ele>1508</ele>
        <time>2022-07-23T13:58:13Z</time>
      </trkpt>
      <trkpt lat="45.73794" lon="6.47427">
        <ele>1508</ele>
        <time>2022-07-23T13:58:14Z</time>
      </trkpt>
      <trkpt lat="45.73794" lon="6.47429">
        <ele>1509</ele>
        <time>2022-07-23T13:58:15Z</time>
      </trkpt>
      <trkpt lat="45.73795" lon="6.4743">
        <ele>1509</ele>
        <time>2022-07-23T13:58:16Z</time>
      </trkpt>
      <trkpt lat="45.73795" lon="6.47431">
        <ele>1509</ele>
        <time>2022-07-23T13:58:17Z</time>
      </trkpt>
      <trkpt lat="45.73795" lon="6.47432">
        <ele>1509</ele>
        <time>2022-07-23T13:58:18Z</time>
      </trkpt>
      <trkpt lat="45.73795" lon="6.47433">
        <ele>1509</ele>
        <time>2022-07-23T13:58:19Z</time>
      </trkpt>
      <trkpt lat="45.73796" lon="6.47435">
        <ele>1510</ele>
        <time>2022-07-23T13:58:20Z</time>
      </trkpt>
      <trkpt lat="45.73796" lon="6.47436">
        <ele>1510</ele>
        <time>2022-07-23T13:58:21Z</time>
      </trkpt>
      <trkpt lat="45.73796" lon="6.47437">
        <ele>1510</ele>
        <time>2022-07-23T13:58:22Z</time>
      </trkpt>
      <trkpt lat="45.73796" lon="6.47439">
        <ele>1510</ele>
        <time>2022-07-23T13:58:23Z</time>
      </trkpt>
      <trkpt lat="45.73797" lon="6.4744">
        <ele>1510</ele>
        <time>2022-07-23T13:58:24Z</time>
      </trkpt>
      <trkpt lat="45.73797" lon="6.47442">
        <ele>1510</ele>
        <time>2022-07-23T13:58:25Z</time>
      </trkpt>
      <trkpt lat="45.73798" lon="6.47443">
        <ele>1510</ele>
        <time>2022-07-23T13:58:26Z</time>
      </trkpt>
      <trkpt lat="45.73798" lon="6.47444">
        <ele>1510</ele>
        <time>2022-07-23T13:58:27Z</time>
      </trkpt>
      <trkpt lat="45.73799" lon="6.47445">
        <ele>1511</ele>
        <time>2022-07-23T13:58:28Z</time>
      </trkpt>
      <trkpt lat="45.73799" lon="6.47446">
        <ele>1511</ele>
        <time>2022-07-23T13:58:29Z</time>
      </trkpt>
      <trkpt lat="45.738" lon="6.47447">
        <ele>1512</ele>
        <time>2022-07-23T13:58:30Z</time>
      </trkpt>
      <trkpt lat="45.738" lon="6.47447">
        <ele>1512</ele>
        <time>2022-07-23T13:58:31Z</time>
      </trkpt>
      <trkpt lat="45.73801" lon="6.47448">
        <ele>1512</ele>
        <time>2022-07-23T13:58:32Z</time>
      </trkpt>
      <trkpt lat="45.73801" lon="6.47449">
        <ele>1512</ele>
        <time>2022-07-23T13:58:33Z</time>
      </trkpt>
      <trkpt lat="45.73802" lon="6.4745">
        <ele>1512</ele>
        <time>2022-07-23T13:58:34Z</time>
      </trkpt>
      <trkpt lat="45.73803" lon="6.47451">
        <ele>1512</ele>
        <time>2022-07-23T13:58:35Z</time>
      </trkpt>
      <trkpt lat="45.73803" lon="6.47451">
        <ele>1512</ele>
        <time>2022-07-23T13:58:36Z</time>
      </trkpt>
      <trkpt lat="45.73804" lon="6.47452">
        <ele>1512</ele>
        <time>2022-07-23T13:58:37Z</time>
      </trkpt>
      <trkpt lat="45.73805" lon="6.47453">
        <ele>1512</ele>
        <time>2022-07-23T13:58:38Z</time>
      </trkpt>
      <trkpt lat="45.73805" lon="6.47453">
        <ele>1512</ele>
        <time>2022-07-23T13:58:39Z</time>
      </trkpt>
      <trkpt lat="45.73806" lon="6.47454">
        <ele>1513</ele>
        <time>2022-07-23T13:58:40Z</time>
      </trkpt>
      <trkpt lat="45.73806" lon="6.47455">
        <ele>1513</ele>
        <time>2022-07-23T13:58:41Z</time>
      </trkpt>
      <trkpt lat="45.73807" lon="6.47455">
        <ele>1513</ele>
        <time>2022-07-23T13:58:42Z</time>
      </trkpt>
      <trkpt lat="45.73808" lon="6.47456">
        <ele>1513</ele>
        <time>2022-07-23T13:58:43Z</time>
      </trkpt>
      <trkpt lat="45.73808" lon="6.47457">
        <ele>1513</ele>
        <time>2022-07-23T13:58:44Z</time>
      </trkpt>
      <trkpt lat="45.73809" lon="6.47457">
        <ele>1513</ele>
        <time>2022-07-23T13:58:45Z</time>
      </trkpt>
      <trkpt lat="45.7381" lon="6.47458">
        <ele>1513</ele>
        <time>2022-07-23T13:58:46Z</time>
      </trkpt>
      <trkpt lat="45.7381" lon="6.47459">
        <ele>1513</ele>
        <time>2022-07-23T13:58:47Z</time>
      </trkpt>
      <trkpt lat="45.73811" lon="6.47459">
        <ele>1513</ele>
        <time>2022-07-23T13:58:48Z</time>
      </trkpt>
      <trkpt lat="45.73812" lon="6.4746">
        <ele>1513</ele>
        <time>2022-07-23T13:58:49Z</time>
      </trkpt>
      <trkpt lat="45.73812" lon="6.47461">
        <ele>1514</ele>
        <time>2022-07-23T13:58:50Z</time>
      </trkpt>
      <trkpt lat="45.73813" lon="6.47462">
        <ele>1514</ele>
        <time>2022-07-23T13:58:51Z</time>
      </trkpt>
      <trkpt lat="45.73814" lon="6.47463">
        <ele>1514</ele>
        <time>2022-07-23T13:58:52Z</time>
      </trkpt>
      <trkpt lat="45.73815" lon="6.47464">
        <ele>1514</ele>
        <time>2022-07-23T13:58:53Z</time>
      </trkpt>
      <trkpt lat="45.73815" lon="6.47465">
        <ele>1514</ele>
        <time>2022-07-23T13:58:54Z</time>
      </trkpt>
      <trkpt lat="45.73816" lon="6.47466">
        <ele>1514</ele>
        <time>2022-07-23T13:58:55Z</time>
      </trkpt>
      <trkpt lat="45.73816" lon="6.47467">
        <ele>1514</ele>
        <time>2022-07-23T13:58:56Z</time>
      </trkpt>
      <trkpt lat="45.73817" lon="6.47469">
        <ele>1514</ele>
        <time>2022-07-23T13:58:57Z</time>
      </trkpt>
      <trkpt lat="45.73817" lon="6.4747">
        <ele>1514</ele>
        <time>2022-07-23T13:58:58Z</time>
      </trkpt>
      <trkpt lat="45.73818" lon="6.47471">
        <ele>1514</ele>
        <time>2022-07-23T13:58:59Z</time>
      </trkpt>
      <trkpt lat="45.73818" lon="6.47473">
        <ele>1515</ele>
        <time>2022-07-23T13:59:00Z</time>
      </trkpt>
      <trkpt lat="45.73819" lon="6.47474">
        <ele>1515</ele>
        <time>2022-07-23T13:59:01Z</time>
      </trkpt>
      <trkpt lat="45.73819" lon="6.47476">
        <ele>1515</ele>
        <time>2022-07-23T13:59:02Z</time>
      </trkpt>
      <trkpt lat="45.73819" lon="6.47477">
        <ele>1515</ele>
        <time>2022-07-23T13:59:03Z</time>
      </trkpt>
      <trkpt lat="45.73819" lon="6.47478">
        <ele>1515</ele>
        <time>2022-07-23T13:59:04Z</time>
      </trkpt>
      <trkpt lat="45.73819" lon="6.4748">
        <ele>1515</ele>
        <time>2022-07-23T13:59:05Z</time>
      </trkpt>
      <trkpt lat="45.73819" lon="6.47481">
        <ele>1515</ele>
        <time>2022-07-23T13:59:06Z</time>
      </trkpt>
      <trkpt lat="45.73819" lon="6.47483">
        <ele>1515</ele>
        <time>2022-07-23T13:59:07Z</time>
      </trkpt>
      <trkpt lat="45.73819" lon="6.47484">
        <ele>1515</ele>
        <time>2022-07-23T13:59:08Z</time>
      </trkpt>
      <trkpt lat="45.73819" lon="6.47485">
        <ele>1515</ele>
        <time>2022-07-23T13:59:09Z</time>
      </trkpt>
      <trkpt lat="45.73819" lon="6.47487">
        <ele>1516</ele>
        <time>2022-07-23T13:59:10Z</time>
      </trkpt>
      <trkpt lat="45.73819" lon="6.47488">
        <ele>1516</ele>
        <time>2022-07-23T13:59:11Z</time>
      </trkpt>
      <trkpt lat="45.73819" lon="6.4749">
        <ele>1516</ele>
        <time>2022-07-23T13:59:12Z</time>
      </trkpt>
      <trkpt lat="45.73819" lon="6.47491">
        <ele>1516</ele>
        <time>2022-07-23T13:59:13Z</time>
      </trkpt>
      <trkpt lat="45.73818" lon="6.47492">
        <ele>1516</ele>
        <time>2022-07-23T13:59:14Z</time>
      </trkpt>
      <trkpt lat="45.73818" lon="6.47494">
        <ele>1516</ele>
        <time>2022-07-23T13:59:15Z</time>
      </trkpt>
      <trkpt lat="45.73818" lon="6.47495">
        <ele>1516</ele>
        <time>2022-07-23T13:59:16Z</time>
      </trkpt>
      <trkpt lat="45.73818" lon="6.47497">
        <ele>1516</ele>
        <time>2022-07-23T13:59:17Z</time>
      </trkpt>
      <trkpt lat="45.73818" lon="6.47498">
        <ele>1516</ele>
        <time>2022-07-23T13:59:18Z</time>
      </trkpt>
      <trkpt lat="45.73817" lon="6.47499">
        <ele>1516</ele>
        <time>2022-07-23T13:59:19Z</time>
      </trkpt>
      <trkpt lat="45.73817" lon="6.47501">
        <ele>1516</ele>
        <time>2022-07-23T13:59:20Z</time>
      </trkpt>
      <trkpt lat="45.73817" lon="6.47502">
        <ele>1516</ele>
        <time>2022-07-23T13:59:21Z</time>
      </trkpt>
      <trkpt lat="45.73817" lon="6.47503">
        <ele>1516</ele>
        <time>2022-07-23T13:59:22Z</time>
      </trkpt>
      <trkpt lat="45.73817" lon="6.47505">
        <ele>1516</ele>
        <time>2022-07-23T13:59:23Z</time>
      </trkpt>
      <trkpt lat="45.73817" lon="6.47506">
        <ele>1516</ele>
        <time>2022-07-23T13:59:24Z</time>
      </trkpt>
      <trkpt lat="45.73817" lon="6.47507">
        <ele>1517</ele>
        <time>2022-07-23T13:59:25Z</time>
      </trkpt>
      <trkpt lat="45.73816" lon="6.47509">
        <ele>1517</ele>
        <time>2022-07-23T13:59:26Z</time>
      </trkpt>
      <trkpt lat="45.73816" lon="6.4751">
        <ele>1517</ele>
        <time>2022-07-23T13:59:27Z</time>
      </trkpt>
      <trkpt lat="45.73816" lon="6.47511">
        <ele>1517</ele>
        <time>2022-07-23T13:59:28Z</time>
      </trkpt>
      <trkpt lat="45.73816" lon="6.47512">
        <ele>1517</ele>
        <time>2022-07-23T13:59:29Z</time>
      </trkpt>
      <trkpt lat="45.73815" lon="6.47513">
        <ele>1517</ele>
        <time>2022-07-23T13:59:30Z</time>
      </trkpt>
      <trkpt lat="45.73815" lon="6.47514">
        <ele>1517</ele>
        <time>2022-07-23T13:59:31Z</time>
      </trkpt>
      <trkpt lat="45.73814" lon="6.47515">
        <ele>1517</ele>
        <time>2022-07-23T13:59:32Z</time>
      </trkpt>
      <trkpt lat="45.73814" lon="6.47516">
        <ele>1517</ele>
        <time>2022-07-23T13:59:33Z</time>
      </trkpt>
      <trkpt lat="45.73814" lon="6.47518">
        <ele>1517</ele>
        <time>2022-07-23T13:59:34Z</time>
      </trkpt>
      <trkpt lat="45.73813" lon="6.47519">
        <ele>1518</ele>
        <time>2022-07-23T13:59:35Z</time>
      </trkpt>
      <trkpt lat="45.73813" lon="6.4752">
        <ele>1518</ele>
        <time>2022-07-23T13:59:36Z</time>
      </trkpt>
      <trkpt lat="45.73812" lon="6.4752">
        <ele>1518</ele>
        <time>2022-07-23T13:59:37Z</time>
      </trkpt>
      <trkpt lat="45.73812" lon="6.47521">
        <ele>1518</ele>
        <time>2022-07-23T13:59:38Z</time>
      </trkpt>
      <trkpt lat="45.73812" lon="6.47522">
        <ele>1518</ele>
        <time>2022-07-23T13:59:39Z</time>
      </trkpt>
      <trkpt lat="45.73811" lon="6.47523">
        <ele>1518</ele>
        <time>2022-07-23T13:59:40Z</time>
      </trkpt>
      <trkpt lat="45.73811" lon="6.47524">
        <ele>1518</ele>
        <time>2022-07-23T13:59:41Z</time>
      </trkpt>
      <trkpt lat="45.7381" lon="6.47525">
        <ele>1518</ele>
        <time>2022-07-23T13:59:42Z</time>
      </trkpt>
      <trkpt lat="45.7381" lon="6.47526">
        <ele>1518</ele>
        <time>2022-07-23T13:59:43Z</time>
      </trkpt>
      <trkpt lat="45.73809" lon="6.47527">
        <ele>1518</ele>
        <time>2022-07-23T13:59:44Z</time>
      </trkpt>
      <trkpt lat="45.73809" lon="6.47528">
        <ele>1519</ele>
        <time>2022-07-23T13:59:45Z</time>
      </trkpt>
      <trkpt lat="45.73808" lon="6.4753">
        <ele>1519</ele>
        <time>2022-07-23T13:59:46Z</time>
      </trkpt>
      <trkpt lat="45.73808" lon="6.47531">
        <ele>1519</ele>
        <time>2022-07-23T13:59:47Z</time>
      </trkpt>
      <trkpt lat="45.73807" lon="6.47532">
        <ele>1519</ele>
        <time>2022-07-23T13:59:48Z</time>
      </trkpt>
      <trkpt lat="45.73807" lon="6.47533">
        <ele>1519</ele>
        <time>2022-07-23T13:59:49Z</time>
      </trkpt>
      <trkpt lat="45.73806" lon="6.47534">
        <ele>1519</ele>
        <time>2022-07-23T13:59:50Z</time>
      </trkpt>
      <trkpt lat="45.73805" lon="6.47535">
        <ele>1519</ele>
        <time>2022-07-23T13:59:51Z</time>
      </trkpt>
      <trkpt lat="45.73805" lon="6.47536">
        <ele>1519</ele>
        <time>2022-07-23T13:59:52Z</time>
      </trkpt>
      <trkpt lat="45.73804" lon="6.47537">
        <ele>1519</ele>
        <time>2022-07-23T13:59:53Z</time>
      </trkpt>
      <trkpt lat="45.73804" lon="6.47538">
        <ele>1519</ele>
        <time>2022-07-23T13:59:54Z</time>
      </trkpt>
      <trkpt lat="45.73803" lon="6.47539">
        <ele>1520</ele>
        <time>2022-07-23T13:59:55Z</time>
      </trkpt>
      <trkpt lat="45.73803" lon="6.4754">
        <ele>1520</ele>
        <time>2022-07-23T13:59:56Z</time>
      </trkpt>
      <trkpt lat="45.73802" lon="6.47541">
        <ele>1520</ele>
        <time>2022-07-23T13:59:57Z</time>
      </trkpt>
      <trkpt lat="45.73802" lon="6.47542">
        <ele>1520</ele>
        <time>2022-07-23T13:59:58Z</time>
      </trkpt>
      <trkpt lat="45.73801" lon="6.47543">
        <ele>1520</ele>
        <time>2022-07-23T13:59:59Z</time>
      </trkpt>
      <trkpt lat="45.73801" lon="6.47544">
        <ele>1521</ele>
        <time>2022-07-23T14:00:00Z</time>
      </trkpt>
      <trkpt lat="45.738" lon="6.47546">
        <ele>1521</ele>
        <time>2022-07-23T14:00:01Z</time>
      </trkpt>
      <trkpt lat="45.738" lon="6.47547">
        <ele>1521</ele>
        <time>2022-07-23T14:00:02Z</time>
      </trkpt>
      <trkpt lat="45.73799" lon="6.47548">
        <ele>1521</ele>
        <time>2022-07-23T14:00:03Z</time>
      </trkpt>
      <trkpt lat="45.73799" lon="6.47549">
        <ele>1521</ele>
        <time>2022-07-23T14:00:04Z</time>
      </trkpt>
      <trkpt lat="45.73799" lon="6.47551">
        <ele>1521</ele>
        <time>2022-07-23T14:00:05Z</time>
      </trkpt>
      <trkpt lat="45.73798" lon="6.47552">
        <ele>1521</ele>
        <time>2022-07-23T14:00:06Z</time>
      </trkpt>
      <trkpt lat="45.73798" lon="6.47553">
        <ele>1521</ele>
        <time>2022-07-23T14:00:07Z</time>
      </trkpt>
      <trkpt lat="45.73797" lon="6.47554">
        <ele>1521</ele>
        <time>2022-07-23T14:00:08Z</time>
      </trkpt>
      <trkpt lat="45.73797" lon="6.47555">
        <ele>1521</ele>
        <time>2022-07-23T14:00:09Z</time>
      </trkpt>
      <trkpt lat="45.73797" lon="6.47556">
        <ele>1522</ele>
        <time>2022-07-23T14:00:10Z</time>
      </trkpt>
      <trkpt lat="45.73797" lon="6.47556">
        <ele>1522</ele>
        <time>2022-07-23T14:00:11Z</time>
      </trkpt>
      <trkpt lat="45.73796" lon="6.47556">
        <ele>1522</ele>
        <time>2022-07-23T14:00:12Z</time>
      </trkpt>
      <trkpt lat="45.73796" lon="6.47556">
        <ele>1522</ele>
        <time>2022-07-23T14:00:13Z</time>
      </trkpt>
      <trkpt lat="45.73796" lon="6.47557">
        <ele>1522</ele>
        <time>2022-07-23T14:00:14Z</time>
      </trkpt>
      <trkpt lat="45.73796" lon="6.47557">
        <ele>1522</ele>
        <time>2022-07-23T14:00:15Z</time>
      </trkpt>
      <trkpt lat="45.73796" lon="6.47558">
        <ele>1522</ele>
        <time>2022-07-23T14:00:16Z</time>
      </trkpt>
      <trkpt lat="45.73796" lon="6.47558">
        <ele>1522</ele>
        <time>2022-07-23T14:00:17Z</time>
      </trkpt>
      <trkpt lat="45.73796" lon="6.47559">
        <ele>1523</ele>
        <time>2022-07-23T14:00:38Z</time>
      </trkpt>
      <trkpt lat="45.73796" lon="6.4756">
        <ele>1523</ele>
        <time>2022-07-23T14:00:39Z</time>
      </trkpt>
      <trkpt lat="45.73796" lon="6.47561">
        <ele>1523</ele>
        <time>2022-07-23T14:00:40Z</time>
      </trkpt>
      <trkpt lat="45.73796" lon="6.47562">
        <ele>1523</ele>
        <time>2022-07-23T14:00:41Z</time>
      </trkpt>
      <trkpt lat="45.73796" lon="6.47563">
        <ele>1523</ele>
        <time>2022-07-23T14:00:42Z</time>
      </trkpt>
      <trkpt lat="45.73795" lon="6.47564">
        <ele>1523</ele>
        <time>2022-07-23T14:00:43Z</time>
      </trkpt>
      <trkpt lat="45.73795" lon="6.47566">
        <ele>1523</ele>
        <time>2022-07-23T14:00:44Z</time>
      </trkpt>
      <trkpt lat="45.73795" lon="6.47567">
        <ele>1523</ele>
        <time>2022-07-23T14:00:45Z</time>
      </trkpt>
      <trkpt lat="45.73795" lon="6.47569">
        <ele>1523</ele>
        <time>2022-07-23T14:00:46Z</time>
      </trkpt>
      <trkpt lat="45.73794" lon="6.47571">
        <ele>1523</ele>
        <time>2022-07-23T14:00:47Z</time>
      </trkpt>
      <trkpt lat="45.73794" lon="6.47572">
        <ele>1523</ele>
        <time>2022-07-23T14:00:48Z</time>
      </trkpt>
      <trkpt lat="45.73794" lon="6.47574">
        <ele>1523</ele>
        <time>2022-07-23T14:00:54Z</time>
      </trkpt>
      <trkpt lat="45.73795" lon="6.47575">
        <ele>1523</ele>
        <time>2022-07-23T14:00:55Z</time>
      </trkpt>
      <trkpt lat="45.73795" lon="6.47576">
        <ele>1523</ele>
        <time>2022-07-23T14:00:56Z</time>
      </trkpt>
      <trkpt lat="45.73795" lon="6.47577">
        <ele>1523</ele>
        <time>2022-07-23T14:00:57Z</time>
      </trkpt>
      <trkpt lat="45.73795" lon="6.47577">
        <ele>1523</ele>
        <time>2022-07-23T14:00:58Z</time>
      </trkpt>
      <trkpt lat="45.73795" lon="6.47578">
        <ele>1524</ele>
        <time>2022-07-23T14:01:13Z</time>
      </trkpt>
      <trkpt lat="45.73795" lon="6.47578">
        <ele>1524</ele>
        <time>2022-07-23T14:01:14Z</time>
      </trkpt>
      <trkpt lat="45.73795" lon="6.47578">
        <ele>1524</ele>
        <time>2022-07-23T14:01:15Z</time>
      </trkpt>
      <trkpt lat="45.73795" lon="6.47577">
        <ele>1524</ele>
        <time>2022-07-23T14:01:16Z</time>
      </trkpt>
      <trkpt lat="45.73795" lon="6.47576">
        <ele>1524</ele>
        <time>2022-07-23T14:01:17Z</time>
      </trkpt>
      <trkpt lat="45.73795" lon="6.47575">
        <ele>1524</ele>
        <time>2022-07-23T14:01:18Z</time>
      </trkpt>
      <trkpt lat="45.73795" lon="6.47574">
        <ele>1524</ele>
        <time>2022-07-23T14:01:19Z</time>
      </trkpt>
      <trkpt lat="45.73795" lon="6.47572">
        <ele>1524</ele>
        <time>2022-07-23T14:01:33Z</time>
      </trkpt>
      <trkpt lat="45.73795" lon="6.47572">
        <ele>1524</ele>
        <time>2022-07-23T14:01:34Z</time>
      </trkpt>
      <trkpt lat="45.73795" lon="6.47572">
        <ele>1524</ele>
        <time>2022-07-23T14:01:35Z</time>
      </trkpt>
      <trkpt lat="45.73795" lon="6.47572">
        <ele>1524</ele>
        <time>2022-07-23T14:01:36Z</time>
      </trkpt>
      <trkpt lat="45.73794" lon="6.47572">
        <ele>1524</ele>
        <time>2022-07-23T14:01:37Z</time>
      </trkpt>
      <trkpt lat="45.73794" lon="6.47573">
        <ele>1524</ele>
        <time>2022-07-23T14:01:38Z</time>
      </trkpt>
      <trkpt lat="45.73794" lon="6.47573">
        <ele>1524</ele>
        <time>2022-07-23T14:01:39Z</time>
      </trkpt>
      <trkpt lat="45.73793" lon="6.47575">
        <ele>1524</ele>
        <time>2022-07-23T14:01:47Z</time>
      </trkpt>
      <trkpt lat="45.73793" lon="6.47576">
        <ele>1524</ele>
        <time>2022-07-23T14:01:48Z</time>
      </trkpt>
      <trkpt lat="45.73793" lon="6.47577">
        <ele>1524</ele>
        <time>2022-07-23T14:01:49Z</time>
      </trkpt>
      <trkpt lat="45.73793" lon="6.47578">
        <ele>1524</ele>
        <time>2022-07-23T14:01:50Z</time>
      </trkpt>
      <trkpt lat="45.73793" lon="6.47579">
        <ele>1524</ele>
        <time>2022-07-23T14:01:51Z</time>
      </trkpt>
      <trkpt lat="45.73792" lon="6.4758">
        <ele>1524</ele>
        <time>2022-07-23T14:01:52Z</time>
      </trkpt>
      <trkpt lat="45.73792" lon="6.47581">
        <ele>1524</ele>
        <time>2022-07-23T14:01:53Z</time>
      </trkpt>
      <trkpt lat="45.73792" lon="6.47582">
        <ele>1524</ele>
        <time>2022-07-23T14:01:54Z</time>
      </trkpt>
      <trkpt lat="45.73791" lon="6.47584">
        <ele>1524</ele>
        <time>2022-07-23T14:01:55Z</time>
      </trkpt>
      <trkpt lat="45.73791" lon="6.47585">
        <ele>1524</ele>
        <time>2022-07-23T14:01:56Z</time>
      </trkpt>
      <trkpt lat="45.73791" lon="6.47587">
        <ele>1524</ele>
        <time>2022-07-23T14:01:57Z</time>
      </trkpt>
      <trkpt lat="45.7379" lon="6.47588">
        <ele>1524</ele>
        <time>2022-07-23T14:01:58Z</time>
      </trkpt>
      <trkpt lat="45.7379" lon="6.47589">
        <ele>1524</ele>
        <time>2022-07-23T14:01:59Z</time>
      </trkpt>
      <trkpt lat="45.7379" lon="6.47591">
        <ele>1524</ele>
        <time>2022-07-23T14:02:00Z</time>
      </trkpt>
      <trkpt lat="45.73789" lon="6.47592">
        <ele>1524</ele>
        <time>2022-07-23T14:02:01Z</time>
      </trkpt>
      <trkpt lat="45.73789" lon="6.47593">
        <ele>1524</ele>
        <time>2022-07-23T14:02:02Z</time>
      </trkpt>
      <trkpt lat="45.73789" lon="6.47594">
        <ele>1524</ele>
        <time>2022-07-23T14:02:03Z</time>
      </trkpt>
      <trkpt lat="45.73789" lon="6.47595">
        <ele>1524</ele>
        <time>2022-07-23T14:02:04Z</time>
      </trkpt>
      <trkpt lat="45.73788" lon="6.47597">
        <ele>1524</ele>
        <time>2022-07-23T14:02:05Z</time>
      </trkpt>
      <trkpt lat="45.73788" lon="6.47598">
        <ele>1524</ele>
        <time>2022-07-23T14:02:06Z</time>
      </trkpt>
      <trkpt lat="45.73788" lon="6.47599">
        <ele>1524</ele>
        <time>2022-07-23T14:02:07Z</time>
      </trkpt>
      <trkpt lat="45.73788" lon="6.476">
        <ele>1524</ele>
        <time>2022-07-23T14:02:08Z</time>
      </trkpt>
      <trkpt lat="45.73787" lon="6.47601">
        <ele>1524</ele>
        <time>2022-07-23T14:02:09Z</time>
      </trkpt>
      <trkpt lat="45.73787" lon="6.47602">
        <ele>1525</ele>
        <time>2022-07-23T14:02:10Z</time>
      </trkpt>
      <trkpt lat="45.73787" lon="6.47604">
        <ele>1525</ele>
        <time>2022-07-23T14:02:11Z</time>
      </trkpt>
      <trkpt lat="45.73787" lon="6.47605">
        <ele>1525</ele>
        <time>2022-07-23T14:02:12Z</time>
      </trkpt>
      <trkpt lat="45.73786" lon="6.47606">
        <ele>1525</ele>
        <time>2022-07-23T14:02:13Z</time>
      </trkpt>
      <trkpt lat="45.73786" lon="6.47607">
        <ele>1525</ele>
        <time>2022-07-23T14:02:14Z</time>
      </trkpt>
      <trkpt lat="45.73786" lon="6.47608">
        <ele>1525</ele>
        <time>2022-07-23T14:02:15Z</time>
      </trkpt>
      <trkpt lat="45.73786" lon="6.4761">
        <ele>1525</ele>
        <time>2022-07-23T14:02:16Z</time>
      </trkpt>
      <trkpt lat="45.73786" lon="6.47611">
        <ele>1525</ele>
        <time>2022-07-23T14:02:17Z</time>
      </trkpt>
      <trkpt lat="45.73786" lon="6.47612">
        <ele>1525</ele>
        <time>2022-07-23T14:02:18Z</time>
      </trkpt>
      <trkpt lat="45.73785" lon="6.47613">
        <ele>1525</ele>
        <time>2022-07-23T14:02:19Z</time>
      </trkpt>
      <trkpt lat="45.73785" lon="6.47615">
        <ele>1526</ele>
        <time>2022-07-23T14:02:20Z</time>
      </trkpt>
      <trkpt lat="45.73785" lon="6.47616">
        <ele>1526</ele>
        <time>2022-07-23T14:02:21Z</time>
      </trkpt>
      <trkpt lat="45.73785" lon="6.47617">
        <ele>1526</ele>
        <time>2022-07-23T14:02:22Z</time>
      </trkpt>
      <trkpt lat="45.73785" lon="6.47619">
        <ele>1526</ele>
        <time>2022-07-23T14:02:23Z</time>
      </trkpt>
      <trkpt lat="45.73785" lon="6.4762">
        <ele>1526</ele>
        <time>2022-07-23T14:02:24Z</time>
      </trkpt>
      <trkpt lat="45.73785" lon="6.47622">
        <ele>1526</ele>
        <time>2022-07-23T14:02:25Z</time>
      </trkpt>
      <trkpt lat="45.73785" lon="6.47623">
        <ele>1526</ele>
        <time>2022-07-23T14:02:26Z</time>
      </trkpt>
      <trkpt lat="45.73785" lon="6.47624">
        <ele>1526</ele>
        <time>2022-07-23T14:02:27Z</time>
      </trkpt>
      <trkpt lat="45.73785" lon="6.47626">
        <ele>1527</ele>
        <time>2022-07-23T14:02:33Z</time>
      </trkpt>
      <trkpt lat="45.73785" lon="6.47627">
        <ele>1527</ele>
        <time>2022-07-23T14:02:34Z</time>
      </trkpt>
      <trkpt lat="45.73785" lon="6.47628">
        <ele>1527</ele>
        <time>2022-07-23T14:02:35Z</time>
      </trkpt>
      <trkpt lat="45.73785" lon="6.47629">
        <ele>1527</ele>
        <time>2022-07-23T14:02:36Z</time>
      </trkpt>
      <trkpt lat="45.73785" lon="6.4763">
        <ele>1527</ele>
        <time>2022-07-23T14:02:37Z</time>
      </trkpt>
      <trkpt lat="45.73785" lon="6.47631">
        <ele>1527</ele>
        <time>2022-07-23T14:02:38Z</time>
      </trkpt>
      <trkpt lat="45.73784" lon="6.47632">
        <ele>1527</ele>
        <time>2022-07-23T14:02:39Z</time>
      </trkpt>
      <trkpt lat="45.73784" lon="6.47634">
        <ele>1528</ele>
        <time>2022-07-23T14:02:40Z</time>
      </trkpt>
      <trkpt lat="45.73784" lon="6.47635">
        <ele>1528</ele>
        <time>2022-07-23T14:02:41Z</time>
      </trkpt>
      <trkpt lat="45.73784" lon="6.47637">
        <ele>1528</ele>
        <time>2022-07-23T14:02:42Z</time>
      </trkpt>
      <trkpt lat="45.73784" lon="6.47639">
        <ele>1528</ele>
        <time>2022-07-23T14:02:43Z</time>
      </trkpt>
      <trkpt lat="45.73784" lon="6.4764">
        <ele>1528</ele>
        <time>2022-07-23T14:02:44Z</time>
      </trkpt>
      <trkpt lat="45.73784" lon="6.47642">
        <ele>1528</ele>
        <time>2022-07-23T14:02:45Z</time>
      </trkpt>
      <trkpt lat="45.73783" lon="6.47643">
        <ele>1528</ele>
        <time>2022-07-23T14:02:46Z</time>
      </trkpt>
      <trkpt lat="45.73783" lon="6.47644">
        <ele>1528</ele>
        <time>2022-07-23T14:02:47Z</time>
      </trkpt>
      <trkpt lat="45.73783" lon="6.47646">
        <ele>1529</ele>
        <time>2022-07-23T14:02:48Z</time>
      </trkpt>
      <trkpt lat="45.73783" lon="6.47647">
        <ele>1529</ele>
        <time>2022-07-23T14:02:49Z</time>
      </trkpt>
      <trkpt lat="45.73783" lon="6.47648">
        <ele>1530</ele>
        <time>2022-07-23T14:02:50Z</time>
      </trkpt>
      <trkpt lat="45.73783" lon="6.47649">
        <ele>1530</ele>
        <time>2022-07-23T14:02:51Z</time>
      </trkpt>
      <trkpt lat="45.73783" lon="6.4765">
        <ele>1530</ele>
        <time>2022-07-23T14:02:52Z</time>
      </trkpt>
      <trkpt lat="45.73783" lon="6.47651">
        <ele>1530</ele>
        <time>2022-07-23T14:02:53Z</time>
      </trkpt>
      <trkpt lat="45.73783" lon="6.47653">
        <ele>1530</ele>
        <time>2022-07-23T14:02:54Z</time>
      </trkpt>
      <trkpt lat="45.73783" lon="6.47654">
        <ele>1530</ele>
        <time>2022-07-23T14:02:55Z</time>
      </trkpt>
      <trkpt lat="45.73783" lon="6.47655">
        <ele>1530</ele>
        <time>2022-07-23T14:02:56Z</time>
      </trkpt>
      <trkpt lat="45.73783" lon="6.47656">
        <ele>1530</ele>
        <time>2022-07-23T14:02:57Z</time>
      </trkpt>
      <trkpt lat="45.73783" lon="6.47657">
        <ele>1530</ele>
        <time>2022-07-23T14:02:58Z</time>
      </trkpt>
      <trkpt lat="45.73782" lon="6.47659">
        <ele>1530</ele>
        <time>2022-07-23T14:02:59Z</time>
      </trkpt>
      <trkpt lat="45.73782" lon="6.4766">
        <ele>1531</ele>
        <time>2022-07-23T14:03:00Z</time>
      </trkpt>
      <trkpt lat="45.73782" lon="6.47661">
        <ele>1531</ele>
        <time>2022-07-23T14:03:01Z</time>
      </trkpt>
      <trkpt lat="45.73782" lon="6.47662">
        <ele>1531</ele>
        <time>2022-07-23T14:03:02Z</time>
      </trkpt>
      <trkpt lat="45.73781" lon="6.47663">
        <ele>1531</ele>
        <time>2022-07-23T14:03:03Z</time>
      </trkpt>
      <trkpt lat="45.73781" lon="6.47665">
        <ele>1531</ele>
        <time>2022-07-23T14:03:04Z</time>
      </trkpt>
      <trkpt lat="45.7378" lon="6.47666">
        <ele>1531</ele>
        <time>2022-07-23T14:03:05Z</time>
      </trkpt>
      <trkpt lat="45.7378" lon="6.47667">
        <ele>1531</ele>
        <time>2022-07-23T14:03:06Z</time>
      </trkpt>
      <trkpt lat="45.7378" lon="6.47668">
        <ele>1531</ele>
        <time>2022-07-23T14:03:07Z</time>
      </trkpt>
      <trkpt lat="45.73779" lon="6.47669">
        <ele>1531</ele>
        <time>2022-07-23T14:03:08Z</time>
      </trkpt>
      <trkpt lat="45.73779" lon="6.4767">
        <ele>1531</ele>
        <time>2022-07-23T14:03:09Z</time>
      </trkpt>
      <trkpt lat="45.73778" lon="6.47671">
        <ele>1532</ele>
        <time>2022-07-23T14:03:10Z</time>
      </trkpt>
      <trkpt lat="45.73777" lon="6.47672">
        <ele>1532</ele>
        <time>2022-07-23T14:03:11Z</time>
      </trkpt>
      <trkpt lat="45.73777" lon="6.47673">
        <ele>1532</ele>
        <time>2022-07-23T14:03:12Z</time>
      </trkpt>
      <trkpt lat="45.73776" lon="6.47674">
        <ele>1532</ele>
        <time>2022-07-23T14:03:13Z</time>
      </trkpt>
      <trkpt lat="45.73776" lon="6.47674">
        <ele>1532</ele>
        <time>2022-07-23T14:03:14Z</time>
      </trkpt>
      <trkpt lat="45.73776" lon="6.47675">
        <ele>1532</ele>
        <time>2022-07-23T14:03:15Z</time>
      </trkpt>
      <trkpt lat="45.73775" lon="6.47676">
        <ele>1532</ele>
        <time>2022-07-23T14:03:16Z</time>
      </trkpt>
      <trkpt lat="45.73775" lon="6.47678">
        <ele>1532</ele>
        <time>2022-07-23T14:03:17Z</time>
      </trkpt>
      <trkpt lat="45.73775" lon="6.47679">
        <ele>1532</ele>
        <time>2022-07-23T14:03:18Z</time>
      </trkpt>
      <trkpt lat="45.73774" lon="6.4768">
        <ele>1532</ele>
        <time>2022-07-23T14:03:19Z</time>
      </trkpt>
      <trkpt lat="45.73774" lon="6.47682">
        <ele>1533</ele>
        <time>2022-07-23T14:03:20Z</time>
      </trkpt>
      <trkpt lat="45.73774" lon="6.47683">
        <ele>1533</ele>
        <time>2022-07-23T14:03:21Z</time>
      </trkpt>
      <trkpt lat="45.73774" lon="6.47684">
        <ele>1533</ele>
        <time>2022-07-23T14:03:22Z</time>
      </trkpt>
      <trkpt lat="45.73774" lon="6.47685">
        <ele>1533</ele>
        <time>2022-07-23T14:03:23Z</time>
      </trkpt>
      <trkpt lat="45.73773" lon="6.47687">
        <ele>1533</ele>
        <time>2022-07-23T14:03:24Z</time>
      </trkpt>
      <trkpt lat="45.73773" lon="6.47688">
        <ele>1534</ele>
        <time>2022-07-23T14:03:25Z</time>
      </trkpt>
      <trkpt lat="45.73773" lon="6.47689">
        <ele>1534</ele>
        <time>2022-07-23T14:03:26Z</time>
      </trkpt>
      <trkpt lat="45.73773" lon="6.4769">
        <ele>1534</ele>
        <time>2022-07-23T14:03:27Z</time>
      </trkpt>
      <trkpt lat="45.73773" lon="6.47692">
        <ele>1534</ele>
        <time>2022-07-23T14:03:28Z</time>
      </trkpt>
      <trkpt lat="45.73772" lon="6.47693">
        <ele>1534</ele>
        <time>2022-07-23T14:03:29Z</time>
      </trkpt>
      <trkpt lat="45.73772" lon="6.47694">
        <ele>1534</ele>
        <time>2022-07-23T14:03:30Z</time>
      </trkpt>
      <trkpt lat="45.73772" lon="6.47695">
        <ele>1534</ele>
        <time>2022-07-23T14:03:31Z</time>
      </trkpt>
      <trkpt lat="45.73772" lon="6.47697">
        <ele>1534</ele>
        <time>2022-07-23T14:03:32Z</time>
      </trkpt>
      <trkpt lat="45.73772" lon="6.47698">
        <ele>1534</ele>
        <time>2022-07-23T14:03:33Z</time>
      </trkpt>
      <trkpt lat="45.73772" lon="6.47699">
        <ele>1534</ele>
        <time>2022-07-23T14:03:34Z</time>
      </trkpt>
      <trkpt lat="45.73772" lon="6.477">
        <ele>1535</ele>
        <time>2022-07-23T14:03:35Z</time>
      </trkpt>
      <trkpt lat="45.73772" lon="6.47702">
        <ele>1535</ele>
        <time>2022-07-23T14:03:36Z</time>
      </trkpt>
      <trkpt lat="45.73772" lon="6.47703">
        <ele>1535</ele>
        <time>2022-07-23T14:03:37Z</time>
      </trkpt>
      <trkpt lat="45.73772" lon="6.47704">
        <ele>1535</ele>
        <time>2022-07-23T14:03:38Z</time>
      </trkpt>
      <trkpt lat="45.73771" lon="6.47706">
        <ele>1535</ele>
        <time>2022-07-23T14:03:39Z</time>
      </trkpt>
      <trkpt lat="45.73771" lon="6.47707">
        <ele>1535</ele>
        <time>2022-07-23T14:03:40Z</time>
      </trkpt>
      <trkpt lat="45.73771" lon="6.47709">
        <ele>1535</ele>
        <time>2022-07-23T14:03:41Z</time>
      </trkpt>
      <trkpt lat="45.73772" lon="6.4771">
        <ele>1535</ele>
        <time>2022-07-23T14:03:42Z</time>
      </trkpt>
      <trkpt lat="45.73772" lon="6.47711">
        <ele>1535</ele>
        <time>2022-07-23T14:03:43Z</time>
      </trkpt>
      <trkpt lat="45.73772" lon="6.47713">
        <ele>1535</ele>
        <time>2022-07-23T14:03:44Z</time>
      </trkpt>
      <trkpt lat="45.73772" lon="6.47714">
        <ele>1536</ele>
        <time>2022-07-23T14:03:45Z</time>
      </trkpt>
      <trkpt lat="45.73773" lon="6.47715">
        <ele>1536</ele>
        <time>2022-07-23T14:03:46Z</time>
      </trkpt>
      <trkpt lat="45.73773" lon="6.47716">
        <ele>1536</ele>
        <time>2022-07-23T14:03:47Z</time>
      </trkpt>
      <trkpt lat="45.73774" lon="6.47717">
        <ele>1536</ele>
        <time>2022-07-23T14:03:48Z</time>
      </trkpt>
      <trkpt lat="45.73775" lon="6.47718">
        <ele>1536</ele>
        <time>2022-07-23T14:03:49Z</time>
      </trkpt>
      <trkpt lat="45.73775" lon="6.47719">
        <ele>1536</ele>
        <time>2022-07-23T14:03:50Z</time>
      </trkpt>
      <trkpt lat="45.73776" lon="6.4772">
        <ele>1536</ele>
        <time>2022-07-23T14:03:51Z</time>
      </trkpt>
      <trkpt lat="45.73776" lon="6.47723">
        <ele>1538</ele>
        <time>2022-07-23T14:04:40Z</time>
      </trkpt>
      <trkpt lat="45.73776" lon="6.47725">
        <ele>1538</ele>
        <time>2022-07-23T14:04:41Z</time>
      </trkpt>
      <trkpt lat="45.73776" lon="6.47727">
        <ele>1538</ele>
        <time>2022-07-23T14:04:42Z</time>
      </trkpt>
      <trkpt lat="45.73776" lon="6.47728">
        <ele>1538</ele>
        <time>2022-07-23T14:04:43Z</time>
      </trkpt>
      <trkpt lat="45.73776" lon="6.4773">
        <ele>1538</ele>
        <time>2022-07-23T14:04:44Z</time>
      </trkpt>
      <trkpt lat="45.73776" lon="6.47731">
        <ele>1538</ele>
        <time>2022-07-23T14:04:45Z</time>
      </trkpt>
      <trkpt lat="45.73776" lon="6.47732">
        <ele>1538</ele>
        <time>2022-07-23T14:04:46Z</time>
      </trkpt>
      <trkpt lat="45.73777" lon="6.47733">
        <ele>1538</ele>
        <time>2022-07-23T14:04:47Z</time>
      </trkpt>
      <trkpt lat="45.73777" lon="6.47734">
        <ele>1538</ele>
        <time>2022-07-23T14:04:48Z</time>
      </trkpt>
      <trkpt lat="45.73778" lon="6.47735">
        <ele>1538</ele>
        <time>2022-07-23T14:04:49Z</time>
      </trkpt>
      <trkpt lat="45.73778" lon="6.47737">
        <ele>1539</ele>
        <time>2022-07-23T14:04:50Z</time>
      </trkpt>
      <trkpt lat="45.73779" lon="6.47738">
        <ele>1539</ele>
        <time>2022-07-23T14:04:51Z</time>
      </trkpt>
      <trkpt lat="45.73779" lon="6.47739">
        <ele>1539</ele>
        <time>2022-07-23T14:04:52Z</time>
      </trkpt>
      <trkpt lat="45.7378" lon="6.4774">
        <ele>1539</ele>
        <time>2022-07-23T14:04:53Z</time>
      </trkpt>
      <trkpt lat="45.7378" lon="6.47741">
        <ele>1539</ele>
        <time>2022-07-23T14:04:54Z</time>
      </trkpt>
      <trkpt lat="45.73781" lon="6.47742">
        <ele>1539</ele>
        <time>2022-07-23T14:04:55Z</time>
      </trkpt>
      <trkpt lat="45.73781" lon="6.47743">
        <ele>1539</ele>
        <time>2022-07-23T14:04:56Z</time>
      </trkpt>
      <trkpt lat="45.73782" lon="6.47745">
        <ele>1539</ele>
        <time>2022-07-23T14:04:57Z</time>
      </trkpt>
      <trkpt lat="45.73782" lon="6.47746">
        <ele>1539</ele>
        <time>2022-07-23T14:04:58Z</time>
      </trkpt>
      <trkpt lat="45.73783" lon="6.47747">
        <ele>1539</ele>
        <time>2022-07-23T14:04:59Z</time>
      </trkpt>
      <trkpt lat="45.73783" lon="6.47748">
        <ele>1540</ele>
        <time>2022-07-23T14:05:00Z</time>
      </trkpt>
      <trkpt lat="45.73783" lon="6.47749">
        <ele>1540</ele>
        <time>2022-07-23T14:05:01Z</time>
      </trkpt>
      <trkpt lat="45.73784" lon="6.4775">
        <ele>1540</ele>
        <time>2022-07-23T14:05:02Z</time>
      </trkpt>
      <trkpt lat="45.73784" lon="6.47751">
        <ele>1540</ele>
        <time>2022-07-23T14:05:03Z</time>
      </trkpt>
      <trkpt lat="45.73784" lon="6.47752">
        <ele>1540</ele>
        <time>2022-07-23T14:05:04Z</time>
      </trkpt>
      <trkpt lat="45.73784" lon="6.47754">
        <ele>1540</ele>
        <time>2022-07-23T14:05:05Z</time>
      </trkpt>
      <trkpt lat="45.73784" lon="6.47755">
        <ele>1540</ele>
        <time>2022-07-23T14:05:06Z</time>
      </trkpt>
      <trkpt lat="45.73784" lon="6.47757">
        <ele>1540</ele>
        <time>2022-07-23T14:05:07Z</time>
      </trkpt>
      <trkpt lat="45.73785" lon="6.47758">
        <ele>1540</ele>
        <time>2022-07-23T14:05:08Z</time>
      </trkpt>
      <trkpt lat="45.73785" lon="6.47759">
        <ele>1540</ele>
        <time>2022-07-23T14:05:09Z</time>
      </trkpt>
      <trkpt lat="45.73785" lon="6.4776">
        <ele>1541</ele>
        <time>2022-07-23T14:05:10Z</time>
      </trkpt>
      <trkpt lat="45.73785" lon="6.47761">
        <ele>1541</ele>
        <time>2022-07-23T14:05:11Z</time>
      </trkpt>
      <trkpt lat="45.73785" lon="6.47761">
        <ele>1541</ele>
        <time>2022-07-23T14:05:12Z</time>
      </trkpt>
      <trkpt lat="45.73785" lon="6.47762">
        <ele>1541</ele>
        <time>2022-07-23T14:05:13Z</time>
      </trkpt>
      <trkpt lat="45.73785" lon="6.47762">
        <ele>1541</ele>
        <time>2022-07-23T14:05:14Z</time>
      </trkpt>
      <trkpt lat="45.73786" lon="6.47763">
        <ele>1541</ele>
        <time>2022-07-23T14:05:15Z</time>
      </trkpt>
      <trkpt lat="45.73786" lon="6.47764">
        <ele>1541</ele>
        <time>2022-07-23T14:05:16Z</time>
      </trkpt>
      <trkpt lat="45.73786" lon="6.47765">
        <ele>1541</ele>
        <time>2022-07-23T14:05:17Z</time>
      </trkpt>
      <trkpt lat="45.73786" lon="6.47767">
        <ele>1541</ele>
        <time>2022-07-23T14:05:18Z</time>
      </trkpt>
      <trkpt lat="45.73786" lon="6.47768">
        <ele>1541</ele>
        <time>2022-07-23T14:05:19Z</time>
      </trkpt>
      <trkpt lat="45.73786" lon="6.47769">
        <ele>1542</ele>
        <time>2022-07-23T14:05:20Z</time>
      </trkpt>
      <trkpt lat="45.73787" lon="6.4777">
        <ele>1542</ele>
        <time>2022-07-23T14:05:21Z</time>
      </trkpt>
      <trkpt lat="45.73787" lon="6.47772">
        <ele>1542</ele>
        <time>2022-07-23T14:05:22Z</time>
      </trkpt>
      <trkpt lat="45.73787" lon="6.47773">
        <ele>1542</ele>
        <time>2022-07-23T14:05:23Z</time>
      </trkpt>
      <trkpt lat="45.73787" lon="6.47775">
        <ele>1542</ele>
        <time>2022-07-23T14:05:24Z</time>
      </trkpt>
      <trkpt lat="45.73787" lon="6.47776">
        <ele>1542</ele>
        <time>2022-07-23T14:05:25Z</time>
      </trkpt>
      <trkpt lat="45.73787" lon="6.47777">
        <ele>1542</ele>
        <time>2022-07-23T14:05:26Z</time>
      </trkpt>
      <trkpt lat="45.73788" lon="6.47779">
        <ele>1542</ele>
        <time>2022-07-23T14:05:27Z</time>
      </trkpt>
      <trkpt lat="45.73788" lon="6.4778">
        <ele>1542</ele>
        <time>2022-07-23T14:05:28Z</time>
      </trkpt>
      <trkpt lat="45.73788" lon="6.47782">
        <ele>1542</ele>
        <time>2022-07-23T14:05:29Z</time>
      </trkpt>
      <trkpt lat="45.73788" lon="6.47783">
        <ele>1543</ele>
        <time>2022-07-23T14:05:30Z</time>
      </trkpt>
      <trkpt lat="45.73788" lon="6.47785">
        <ele>1543</ele>
        <time>2022-07-23T14:05:31Z</time>
      </trkpt>
      <trkpt lat="45.73789" lon="6.47786">
        <ele>1543</ele>
        <time>2022-07-23T14:05:32Z</time>
      </trkpt>
      <trkpt lat="45.73789" lon="6.47787">
        <ele>1543</ele>
        <time>2022-07-23T14:05:33Z</time>
      </trkpt>
      <trkpt lat="45.73789" lon="6.47789">
        <ele>1543</ele>
        <time>2022-07-23T14:05:34Z</time>
      </trkpt>
      <trkpt lat="45.73789" lon="6.4779">
        <ele>1543</ele>
        <time>2022-07-23T14:05:35Z</time>
      </trkpt>
      <trkpt lat="45.73789" lon="6.47791">
        <ele>1543</ele>
        <time>2022-07-23T14:05:36Z</time>
      </trkpt>
      <trkpt lat="45.73789" lon="6.47793">
        <ele>1543</ele>
        <time>2022-07-23T14:05:37Z</time>
      </trkpt>
      <trkpt lat="45.7379" lon="6.47794">
        <ele>1544</ele>
        <time>2022-07-23T14:05:45Z</time>
      </trkpt>
      <trkpt lat="45.7379" lon="6.47795">
        <ele>1544</ele>
        <time>2022-07-23T14:05:46Z</time>
      </trkpt>
      <trkpt lat="45.7379" lon="6.47796">
        <ele>1544</ele>
        <time>2022-07-23T14:05:47Z</time>
      </trkpt>
      <trkpt lat="45.7379" lon="6.47797">
        <ele>1544</ele>
        <time>2022-07-23T14:05:48Z</time>
      </trkpt>
      <trkpt lat="45.7379" lon="6.47798">
        <ele>1544</ele>
        <time>2022-07-23T14:05:49Z</time>
      </trkpt>
      <trkpt lat="45.73791" lon="6.478">
        <ele>1545</ele>
        <time>2022-07-23T14:05:50Z</time>
      </trkpt>
      <trkpt lat="45.73791" lon="6.47801">
        <ele>1545</ele>
        <time>2022-07-23T14:05:51Z</time>
      </trkpt>
      <trkpt lat="45.73791" lon="6.47803">
        <ele>1545</ele>
        <time>2022-07-23T14:05:52Z</time>
      </trkpt>
      <trkpt lat="45.73791" lon="6.47805">
        <ele>1545</ele>
        <time>2022-07-23T14:05:53Z</time>
      </trkpt>
      <trkpt lat="45.73791" lon="6.47807">
        <ele>1545</ele>
        <time>2022-07-23T14:05:54Z</time>
      </trkpt>
      <trkpt lat="45.7379" lon="6.47809">
        <ele>1545</ele>
        <time>2022-07-23T14:05:55Z</time>
      </trkpt>
      <trkpt lat="45.7379" lon="6.4781">
        <ele>1545</ele>
        <time>2022-07-23T14:05:56Z</time>
      </trkpt>
      <trkpt lat="45.7379" lon="6.47812">
        <ele>1545</ele>
        <time>2022-07-23T14:05:57Z</time>
      </trkpt>
      <trkpt lat="45.7379" lon="6.47813">
        <ele>1545</ele>
        <time>2022-07-23T14:05:58Z</time>
      </trkpt>
      <trkpt lat="45.73789" lon="6.47815">
        <ele>1545</ele>
        <time>2022-07-23T14:05:59Z</time>
      </trkpt>
      <trkpt lat="45.73789" lon="6.47817">
        <ele>1545</ele>
        <time>2022-07-23T14:06:00Z</time>
      </trkpt>
      <trkpt lat="45.73789" lon="6.47818">
        <ele>1545</ele>
        <time>2022-07-23T14:06:01Z</time>
      </trkpt>
      <trkpt lat="45.7379" lon="6.47819">
        <ele>1545</ele>
        <time>2022-07-23T14:06:02Z</time>
      </trkpt>
      <trkpt lat="45.7379" lon="6.47821">
        <ele>1545</ele>
        <time>2022-07-23T14:06:03Z</time>
      </trkpt>
      <trkpt lat="45.7379" lon="6.47822">
        <ele>1545</ele>
        <time>2022-07-23T14:06:04Z</time>
      </trkpt>
      <trkpt lat="45.7379" lon="6.47823">
        <ele>1546</ele>
        <time>2022-07-23T14:06:05Z</time>
      </trkpt>
      <trkpt lat="45.73791" lon="6.47824">
        <ele>1546</ele>
        <time>2022-07-23T14:06:06Z</time>
      </trkpt>
      <trkpt lat="45.73791" lon="6.47825">
        <ele>1546</ele>
        <time>2022-07-23T14:06:07Z</time>
      </trkpt>
      <trkpt lat="45.73791" lon="6.47826">
        <ele>1547</ele>
        <time>2022-07-23T14:06:08Z</time>
      </trkpt>
      <trkpt lat="45.73791" lon="6.47827">
        <ele>1547</ele>
        <time>2022-07-23T14:06:09Z</time>
      </trkpt>
      <trkpt lat="45.73792" lon="6.4783">
        <ele>1548</ele>
        <time>2022-07-23T14:06:20Z</time>
      </trkpt>
      <trkpt lat="45.73793" lon="6.47831">
        <ele>1548</ele>
        <time>2022-07-23T14:06:21Z</time>
      </trkpt>
      <trkpt lat="45.73793" lon="6.47832">
        <ele>1548</ele>
        <time>2022-07-23T14:06:22Z</time>
      </trkpt>
      <trkpt lat="45.73793" lon="6.47833">
        <ele>1548</ele>
        <time>2022-07-23T14:06:23Z</time>
      </trkpt>
      <trkpt lat="45.73794" lon="6.47834">
        <ele>1548</ele>
        <time>2022-07-23T14:06:24Z</time>
      </trkpt>
      <trkpt lat="45.73794" lon="6.47835">
        <ele>1549</ele>
        <time>2022-07-23T14:06:25Z</time>
      </trkpt>
      <trkpt lat="45.73794" lon="6.47837">
        <ele>1549</ele>
        <time>2022-07-23T14:06:26Z</time>
      </trkpt>
      <trkpt lat="45.73794" lon="6.47838">
        <ele>1549</ele>
        <time>2022-07-23T14:06:27Z</time>
      </trkpt>
      <trkpt lat="45.73794" lon="6.47839">
        <ele>1549</ele>
        <time>2022-07-23T14:06:28Z</time>
      </trkpt>
      <trkpt lat="45.73794" lon="6.47841">
        <ele>1549</ele>
        <time>2022-07-23T14:06:29Z</time>
      </trkpt>
      <trkpt lat="45.73794" lon="6.47842">
        <ele>1549</ele>
        <time>2022-07-23T14:06:30Z</time>
      </trkpt>
      <trkpt lat="45.73794" lon="6.47843">
        <ele>1549</ele>
        <time>2022-07-23T14:06:31Z</time>
      </trkpt>
      <trkpt lat="45.73794" lon="6.47845">
        <ele>1549</ele>
        <time>2022-07-23T14:06:32Z</time>
      </trkpt>
      <trkpt lat="45.73794" lon="6.47846">
        <ele>1549</ele>
        <time>2022-07-23T14:06:33Z</time>
      </trkpt>
      <trkpt lat="45.73794" lon="6.47848">
        <ele>1549</ele>
        <time>2022-07-23T14:06:34Z</time>
      </trkpt>
      <trkpt lat="45.73794" lon="6.47849">
        <ele>1549</ele>
        <time>2022-07-23T14:06:35Z</time>
      </trkpt>
      <trkpt lat="45.73794" lon="6.4785">
        <ele>1549</ele>
        <time>2022-07-23T14:06:36Z</time>
      </trkpt>
      <trkpt lat="45.73794" lon="6.47852">
        <ele>1549</ele>
        <time>2022-07-23T14:06:37Z</time>
      </trkpt>
      <trkpt lat="45.73794" lon="6.47853">
        <ele>1549</ele>
        <time>2022-07-23T14:06:38Z</time>
      </trkpt>
      <trkpt lat="45.73795" lon="6.47854">
        <ele>1549</ele>
        <time>2022-07-23T14:06:39Z</time>
      </trkpt>
      <trkpt lat="45.73795" lon="6.47856">
        <ele>1550</ele>
        <time>2022-07-23T14:06:40Z</time>
      </trkpt>
      <trkpt lat="45.73795" lon="6.47857">
        <ele>1550</ele>
        <time>2022-07-23T14:06:41Z</time>
      </trkpt>
      <trkpt lat="45.73796" lon="6.47859">
        <ele>1550</ele>
        <time>2022-07-23T14:06:42Z</time>
      </trkpt>
      <trkpt lat="45.73796" lon="6.47861">
        <ele>1550</ele>
        <time>2022-07-23T14:06:43Z</time>
      </trkpt>
      <trkpt lat="45.73797" lon="6.47862">
        <ele>1550</ele>
        <time>2022-07-23T14:06:44Z</time>
      </trkpt>
      <trkpt lat="45.73797" lon="6.47864">
        <ele>1550</ele>
        <time>2022-07-23T14:06:45Z</time>
      </trkpt>
      <trkpt lat="45.73798" lon="6.47865">
        <ele>1550</ele>
        <time>2022-07-23T14:06:46Z</time>
      </trkpt>
      <trkpt lat="45.73798" lon="6.47867">
        <ele>1550</ele>
        <time>2022-07-23T14:06:47Z</time>
      </trkpt>
      <trkpt lat="45.73799" lon="6.47869">
        <ele>1550</ele>
        <time>2022-07-23T14:06:48Z</time>
      </trkpt>
      <trkpt lat="45.73799" lon="6.4787">
        <ele>1550</ele>
        <time>2022-07-23T14:06:49Z</time>
      </trkpt>
      <trkpt lat="45.738" lon="6.47872">
        <ele>1550</ele>
        <time>2022-07-23T14:06:50Z</time>
      </trkpt>
      <trkpt lat="45.73801" lon="6.47874">
        <ele>1549</ele>
        <time>2022-07-23T14:06:51Z</time>
      </trkpt>
      <trkpt lat="45.73801" lon="6.47875">
        <ele>1549</ele>
        <time>2022-07-23T14:06:52Z</time>
      </trkpt>
      <trkpt lat="45.73802" lon="6.47876">
        <ele>1549</ele>
        <time>2022-07-23T14:06:53Z</time>
      </trkpt>
      <trkpt lat="45.73803" lon="6.47878">
        <ele>1549</ele>
        <time>2022-07-23T14:06:54Z</time>
      </trkpt>
      <trkpt lat="45.73803" lon="6.47879">
        <ele>1549</ele>
        <time>2022-07-23T14:06:55Z</time>
      </trkpt>
      <trkpt lat="45.73804" lon="6.4788">
        <ele>1549</ele>
        <time>2022-07-23T14:06:56Z</time>
      </trkpt>
      <trkpt lat="45.73804" lon="6.47881">
        <ele>1549</ele>
        <time>2022-07-23T14:06:57Z</time>
      </trkpt>
      <trkpt lat="45.73805" lon="6.47881">
        <ele>1549</ele>
        <time>2022-07-23T14:06:58Z</time>
      </trkpt>
      <trkpt lat="45.73805" lon="6.47882">
        <ele>1549</ele>
        <time>2022-07-23T14:06:59Z</time>
      </trkpt>
      <trkpt lat="45.73806" lon="6.47883">
        <ele>1549</ele>
        <time>2022-07-23T14:07:00Z</time>
      </trkpt>
      <trkpt lat="45.73806" lon="6.47883">
        <ele>1549</ele>
        <time>2022-07-23T14:07:01Z</time>
      </trkpt>
      <trkpt lat="45.73807" lon="6.47884">
        <ele>1549</ele>
        <time>2022-07-23T14:07:02Z</time>
      </trkpt>
      <trkpt lat="45.73807" lon="6.47884">
        <ele>1549</ele>
        <time>2022-07-23T14:07:03Z</time>
      </trkpt>
      <trkpt lat="45.73808" lon="6.47885">
        <ele>1549</ele>
        <time>2022-07-23T14:07:04Z</time>
      </trkpt>
      <trkpt lat="45.73809" lon="6.47886">
        <ele>1549</ele>
        <time>2022-07-23T14:07:05Z</time>
      </trkpt>
      <trkpt lat="45.73809" lon="6.47887">
        <ele>1549</ele>
        <time>2022-07-23T14:07:06Z</time>
      </trkpt>
      <trkpt lat="45.7381" lon="6.47887">
        <ele>1549</ele>
        <time>2022-07-23T14:07:07Z</time>
      </trkpt>
      <trkpt lat="45.73811" lon="6.47888">
        <ele>1549</ele>
        <time>2022-07-23T14:07:08Z</time>
      </trkpt>
      <trkpt lat="45.73811" lon="6.47889">
        <ele>1549</ele>
        <time>2022-07-23T14:07:09Z</time>
      </trkpt>
      <trkpt lat="45.73812" lon="6.4789">
        <ele>1549</ele>
        <time>2022-07-23T14:07:10Z</time>
      </trkpt>
      <trkpt lat="45.73813" lon="6.47891">
        <ele>1549</ele>
        <time>2022-07-23T14:07:11Z</time>
      </trkpt>
      <trkpt lat="45.73813" lon="6.47892">
        <ele>1549</ele>
        <time>2022-07-23T14:07:12Z</time>
      </trkpt>
      <trkpt lat="45.73813" lon="6.47893">
        <ele>1549</ele>
        <time>2022-07-23T14:07:13Z</time>
      </trkpt>
      <trkpt lat="45.73814" lon="6.47893">
        <ele>1549</ele>
        <time>2022-07-23T14:07:14Z</time>
      </trkpt>
      <trkpt lat="45.73814" lon="6.47893">
        <ele>1549</ele>
        <time>2022-07-23T14:07:15Z</time>
      </trkpt>
      <trkpt lat="45.73814" lon="6.47894">
        <ele>1549</ele>
        <time>2022-07-23T14:07:16Z</time>
      </trkpt>
      <trkpt lat="45.73814" lon="6.47895">
        <ele>1549</ele>
        <time>2022-07-23T14:07:17Z</time>
      </trkpt>
      <trkpt lat="45.73814" lon="6.47895">
        <ele>1549</ele>
        <time>2022-07-23T14:07:18Z</time>
      </trkpt>
      <trkpt lat="45.73814" lon="6.47896">
        <ele>1549</ele>
        <time>2022-07-23T14:07:19Z</time>
      </trkpt>
      <trkpt lat="45.73814" lon="6.47897">
        <ele>1549</ele>
        <time>2022-07-23T14:07:20Z</time>
      </trkpt>
      <trkpt lat="45.73813" lon="6.47899">
        <ele>1549</ele>
        <time>2022-07-23T14:07:28Z</time>
      </trkpt>
      <trkpt lat="45.73812" lon="6.47899">
        <ele>1549</ele>
        <time>2022-07-23T14:07:29Z</time>
      </trkpt>
      <trkpt lat="45.73811" lon="6.47899">
        <ele>1549</ele>
        <time>2022-07-23T14:07:30Z</time>
      </trkpt>
      <trkpt lat="45.7381" lon="6.47899">
        <ele>1549</ele>
        <time>2022-07-23T14:07:31Z</time>
      </trkpt>
      <trkpt lat="45.73809" lon="6.47899">
        <ele>1549</ele>
        <time>2022-07-23T14:07:32Z</time>
      </trkpt>
      <trkpt lat="45.73808" lon="6.47898">
        <ele>1549</ele>
        <time>2022-07-23T14:07:33Z</time>
      </trkpt>
      <trkpt lat="45.73807" lon="6.47898">
        <ele>1549</ele>
        <time>2022-07-23T14:07:34Z</time>
      </trkpt>
      <trkpt lat="45.73806" lon="6.47897">
        <ele>1549</ele>
        <time>2022-07-23T14:07:35Z</time>
      </trkpt>
      <trkpt lat="45.73804" lon="6.47897">
        <ele>1549</ele>
        <time>2022-07-23T14:07:36Z</time>
      </trkpt>
      <trkpt lat="45.73803" lon="6.47897">
        <ele>1549</ele>
        <time>2022-07-23T14:07:37Z</time>
      </trkpt>
      <trkpt lat="45.73802" lon="6.47896">
        <ele>1549</ele>
        <time>2022-07-23T14:07:38Z</time>
      </trkpt>
      <trkpt lat="45.73801" lon="6.47896">
        <ele>1549</ele>
        <time>2022-07-23T14:07:39Z</time>
      </trkpt>
      <trkpt lat="45.738" lon="6.47896">
        <ele>1549</ele>
        <time>2022-07-23T14:07:40Z</time>
      </trkpt>
      <trkpt lat="45.73799" lon="6.47895">
        <ele>1549</ele>
        <time>2022-07-23T14:07:41Z</time>
      </trkpt>
      <trkpt lat="45.73798" lon="6.47895">
        <ele>1549</ele>
        <time>2022-07-23T14:07:42Z</time>
      </trkpt>
      <trkpt lat="45.73798" lon="6.47894">
        <ele>1551</ele>
        <time>2022-07-23T14:08:05Z</time>
      </trkpt>
      <trkpt lat="45.73797" lon="6.47893">
        <ele>1551</ele>
        <time>2022-07-23T14:08:06Z</time>
      </trkpt>
      <trkpt lat="45.73796" lon="6.47892">
        <ele>1551</ele>
        <time>2022-07-23T14:08:07Z</time>
      </trkpt>
      <trkpt lat="45.73796" lon="6.47891">
        <ele>1551</ele>
        <time>2022-07-23T14:08:08Z</time>
      </trkpt>
      <trkpt lat="45.73795" lon="6.4789">
        <ele>1551</ele>
        <time>2022-07-23T14:08:09Z</time>
      </trkpt>
      <trkpt lat="45.73795" lon="6.47889">
        <ele>1551</ele>
        <time>2022-07-23T14:08:10Z</time>
      </trkpt>
      <trkpt lat="45.73794" lon="6.47888">
        <ele>1551</ele>
        <time>2022-07-23T14:08:11Z</time>
      </trkpt>
      <trkpt lat="45.73793" lon="6.47887">
        <ele>1551</ele>
        <time>2022-07-23T14:08:12Z</time>
      </trkpt>
      <trkpt lat="45.73792" lon="6.47886">
        <ele>1551</ele>
        <time>2022-07-23T14:08:13Z</time>
      </trkpt>
      <trkpt lat="45.73792" lon="6.47885">
        <ele>1551</ele>
        <time>2022-07-23T14:08:14Z</time>
      </trkpt>
      <trkpt lat="45.73791" lon="6.47884">
        <ele>1552</ele>
        <time>2022-07-23T14:08:15Z</time>
      </trkpt>
      <trkpt lat="45.7379" lon="6.47883">
        <ele>1552</ele>
        <time>2022-07-23T14:08:16Z</time>
      </trkpt>
      <trkpt lat="45.7379" lon="6.47882">
        <ele>1552</ele>
        <time>2022-07-23T14:08:17Z</time>
      </trkpt>
      <trkpt lat="45.73789" lon="6.47881">
        <ele>1552</ele>
        <time>2022-07-23T14:08:18Z</time>
      </trkpt>
      <trkpt lat="45.73789" lon="6.4788">
        <ele>1552</ele>
        <time>2022-07-23T14:08:19Z</time>
      </trkpt>
      <trkpt lat="45.73788" lon="6.47879">
        <ele>1552</ele>
        <time>2022-07-23T14:08:20Z</time>
      </trkpt>
      <trkpt lat="45.73788" lon="6.47878">
        <ele>1552</ele>
        <time>2022-07-23T14:08:21Z</time>
      </trkpt>
      <trkpt lat="45.73788" lon="6.47877">
        <ele>1552</ele>
        <time>2022-07-23T14:08:22Z</time>
      </trkpt>
      <trkpt lat="45.73787" lon="6.47876">
        <ele>1552</ele>
        <time>2022-07-23T14:08:23Z</time>
      </trkpt>
      <trkpt lat="45.73787" lon="6.47875">
        <ele>1552</ele>
        <time>2022-07-23T14:08:24Z</time>
      </trkpt>
      <trkpt lat="45.73786" lon="6.47874">
        <ele>1553</ele>
        <time>2022-07-23T14:08:25Z</time>
      </trkpt>
      <trkpt lat="45.73786" lon="6.47873">
        <ele>1553</ele>
        <time>2022-07-23T14:08:26Z</time>
      </trkpt>
      <trkpt lat="45.73785" lon="6.47872">
        <ele>1553</ele>
        <time>2022-07-23T14:08:27Z</time>
      </trkpt>
      <trkpt lat="45.73785" lon="6.47871">
        <ele>1553</ele>
        <time>2022-07-23T14:08:28Z</time>
      </trkpt>
      <trkpt lat="45.73784" lon="6.4787">
        <ele>1553</ele>
        <time>2022-07-23T14:08:29Z</time>
      </trkpt>
      <trkpt lat="45.73783" lon="6.47869">
        <ele>1553</ele>
        <time>2022-07-23T14:08:30Z</time>
      </trkpt>
      <trkpt lat="45.73783" lon="6.47868">
        <ele>1553</ele>
        <time>2022-07-23T14:08:31Z</time>
      </trkpt>
      <trkpt lat="45.73782" lon="6.47867">
        <ele>1553</ele>
        <time>2022-07-23T14:08:32Z</time>
      </trkpt>
      <trkpt lat="45.73781" lon="6.47866">
        <ele>1553</ele>
        <time>2022-07-23T14:08:33Z</time>
      </trkpt>
      <trkpt lat="45.7378" lon="6.47865">
        <ele>1553</ele>
        <time>2022-07-23T14:08:34Z</time>
      </trkpt>
      <trkpt lat="45.7378" lon="6.47864">
        <ele>1554</ele>
        <time>2022-07-23T14:08:35Z</time>
      </trkpt>
      <trkpt lat="45.73779" lon="6.47863">
        <ele>1554</ele>
        <time>2022-07-23T14:08:36Z</time>
      </trkpt>
      <trkpt lat="45.73778" lon="6.47862">
        <ele>1554</ele>
        <time>2022-07-23T14:08:37Z</time>
      </trkpt>
      <trkpt lat="45.73778" lon="6.47861">
        <ele>1554</ele>
        <time>2022-07-23T14:08:38Z</time>
      </trkpt>
      <trkpt lat="45.73777" lon="6.47861">
        <ele>1554</ele>
        <time>2022-07-23T14:08:39Z</time>
      </trkpt>
      <trkpt lat="45.73776" lon="6.4786">
        <ele>1555</ele>
        <time>2022-07-23T14:08:40Z</time>
      </trkpt>
      <trkpt lat="45.73776" lon="6.47859">
        <ele>1555</ele>
        <time>2022-07-23T14:08:41Z</time>
      </trkpt>
      <trkpt lat="45.73775" lon="6.47858">
        <ele>1555</ele>
        <time>2022-07-23T14:08:42Z</time>
      </trkpt>
      <trkpt lat="45.73775" lon="6.47857">
        <ele>1555</ele>
        <time>2022-07-23T14:08:43Z</time>
      </trkpt>
      <trkpt lat="45.73774" lon="6.47857">
        <ele>1555</ele>
        <time>2022-07-23T14:08:44Z</time>
      </trkpt>
      <trkpt lat="45.73774" lon="6.47856">
        <ele>1555</ele>
        <time>2022-07-23T14:08:45Z</time>
      </trkpt>
      <trkpt lat="45.73773" lon="6.47855">
        <ele>1555</ele>
        <time>2022-07-23T14:08:46Z</time>
      </trkpt>
      <trkpt lat="45.73772" lon="6.47854">
        <ele>1555</ele>
        <time>2022-07-23T14:08:47Z</time>
      </trkpt>
      <trkpt lat="45.73772" lon="6.47853">
        <ele>1555</ele>
        <time>2022-07-23T14:08:48Z</time>
      </trkpt>
      <trkpt lat="45.73771" lon="6.47852">
        <ele>1555</ele>
        <time>2022-07-23T14:08:49Z</time>
      </trkpt>
      <trkpt lat="45.7377" lon="6.47851">
        <ele>1556</ele>
        <time>2022-07-23T14:08:50Z</time>
      </trkpt>
      <trkpt lat="45.7377" lon="6.4785">
        <ele>1556</ele>
        <time>2022-07-23T14:08:51Z</time>
      </trkpt>
      <trkpt lat="45.73769" lon="6.47849">
        <ele>1556</ele>
        <time>2022-07-23T14:08:52Z</time>
      </trkpt>
      <trkpt lat="45.73768" lon="6.47848">
        <ele>1556</ele>
        <time>2022-07-23T14:08:53Z</time>
      </trkpt>
      <trkpt lat="45.73767" lon="6.47848">
        <ele>1556</ele>
        <time>2022-07-23T14:08:54Z</time>
      </trkpt>
      <trkpt lat="45.73766" lon="6.47847">
        <ele>1556</ele>
        <time>2022-07-23T14:08:55Z</time>
      </trkpt>
      <trkpt lat="45.73765" lon="6.47847">
        <ele>1556</ele>
        <time>2022-07-23T14:08:56Z</time>
      </trkpt>
      <trkpt lat="45.73764" lon="6.47846">
        <ele>1556</ele>
        <time>2022-07-23T14:08:57Z</time>
      </trkpt>
      <trkpt lat="45.73764" lon="6.47845">
        <ele>1556</ele>
        <time>2022-07-23T14:08:58Z</time>
      </trkpt>
      <trkpt lat="45.73763" lon="6.47844">
        <ele>1556</ele>
        <time>2022-07-23T14:08:59Z</time>
      </trkpt>
      <trkpt lat="45.73762" lon="6.47843">
        <ele>1557</ele>
        <time>2022-07-23T14:09:00Z</time>
      </trkpt>
      <trkpt lat="45.73761" lon="6.47842">
        <ele>1557</ele>
        <time>2022-07-23T14:09:01Z</time>
      </trkpt>
      <trkpt lat="45.73761" lon="6.47841">
        <ele>1557</ele>
        <time>2022-07-23T14:09:02Z</time>
      </trkpt>
      <trkpt lat="45.7376" lon="6.4784">
        <ele>1557</ele>
        <time>2022-07-23T14:09:03Z</time>
      </trkpt>
      <trkpt lat="45.7376" lon="6.47839">
        <ele>1557</ele>
        <time>2022-07-23T14:09:04Z</time>
      </trkpt>
      <trkpt lat="45.73759" lon="6.47837">
        <ele>1558</ele>
        <time>2022-07-23T14:09:05Z</time>
      </trkpt>
      <trkpt lat="45.73758" lon="6.47836">
        <ele>1558</ele>
        <time>2022-07-23T14:09:06Z</time>
      </trkpt>
      <trkpt lat="45.73758" lon="6.47835">
        <ele>1558</ele>
        <time>2022-07-23T14:09:07Z</time>
      </trkpt>
      <trkpt lat="45.73757" lon="6.47834">
        <ele>1558</ele>
        <time>2022-07-23T14:09:08Z</time>
      </trkpt>
      <trkpt lat="45.73757" lon="6.47833">
        <ele>1558</ele>
        <time>2022-07-23T14:09:09Z</time>
      </trkpt>
      <trkpt lat="45.73756" lon="6.47832">
        <ele>1559</ele>
        <time>2022-07-23T14:09:10Z</time>
      </trkpt>
      <trkpt lat="45.73755" lon="6.47831">
        <ele>1559</ele>
        <time>2022-07-23T14:09:11Z</time>
      </trkpt>
      <trkpt lat="45.73755" lon="6.4783">
        <ele>1559</ele>
        <time>2022-07-23T14:09:12Z</time>
      </trkpt>
      <trkpt lat="45.73754" lon="6.47828">
        <ele>1559</ele>
        <time>2022-07-23T14:09:13Z</time>
      </trkpt>
      <trkpt lat="45.73754" lon="6.47827">
        <ele>1559</ele>
        <time>2022-07-23T14:09:14Z</time>
      </trkpt>
      <trkpt lat="45.73753" lon="6.47826">
        <ele>1559</ele>
        <time>2022-07-23T14:09:15Z</time>
      </trkpt>
      <trkpt lat="45.73752" lon="6.47824">
        <ele>1559</ele>
        <time>2022-07-23T14:09:16Z</time>
      </trkpt>
      <trkpt lat="45.73752" lon="6.47823">
        <ele>1559</ele>
        <time>2022-07-23T14:09:17Z</time>
      </trkpt>
      <trkpt lat="45.73751" lon="6.47822">
        <ele>1559</ele>
        <time>2022-07-23T14:09:18Z</time>
      </trkpt>
      <trkpt lat="45.73751" lon="6.4782">
        <ele>1559</ele>
        <time>2022-07-23T14:09:19Z</time>
      </trkpt>
      <trkpt lat="45.7375" lon="6.47819">
        <ele>1560</ele>
        <time>2022-07-23T14:09:20Z</time>
      </trkpt>
      <trkpt lat="45.7375" lon="6.47817">
        <ele>1560</ele>
        <time>2022-07-23T14:09:21Z</time>
      </trkpt>
      <trkpt lat="45.7375" lon="6.47816">
        <ele>1560</ele>
        <time>2022-07-23T14:09:22Z</time>
      </trkpt>
      <trkpt lat="45.7375" lon="6.47814">
        <ele>1560</ele>
        <time>2022-07-23T14:09:23Z</time>
      </trkpt>
      <trkpt lat="45.73749" lon="6.47813">
        <ele>1560</ele>
        <time>2022-07-23T14:09:24Z</time>
      </trkpt>
      <trkpt lat="45.73749" lon="6.47812">
        <ele>1561</ele>
        <time>2022-07-23T14:09:25Z</time>
      </trkpt>
      <trkpt lat="45.73749" lon="6.4781">
        <ele>1561</ele>
        <time>2022-07-23T14:09:26Z</time>
      </trkpt>
      <trkpt lat="45.73748" lon="6.47809">
        <ele>1561</ele>
        <time>2022-07-23T14:09:27Z</time>
      </trkpt>
      <trkpt lat="45.73748" lon="6.47808">
        <ele>1561</ele>
        <time>2022-07-23T14:09:28Z</time>
      </trkpt>
      <trkpt lat="45.73747" lon="6.47807">
        <ele>1561</ele>
        <time>2022-07-23T14:09:29Z</time>
      </trkpt>
      <trkpt lat="45.73747" lon="6.47805">
        <ele>1562</ele>
        <time>2022-07-23T14:09:30Z</time>
      </trkpt>
      <trkpt lat="45.73746" lon="6.47804">
        <ele>1562</ele>
        <time>2022-07-23T14:09:31Z</time>
      </trkpt>
      <trkpt lat="45.73746" lon="6.47803">
        <ele>1562</ele>
        <time>2022-07-23T14:09:32Z</time>
      </trkpt>
      <trkpt lat="45.73745" lon="6.47802">
        <ele>1562</ele>
        <time>2022-07-23T14:09:33Z</time>
      </trkpt>
      <trkpt lat="45.73745" lon="6.47801">
        <ele>1562</ele>
        <time>2022-07-23T14:09:34Z</time>
      </trkpt>
      <trkpt lat="45.73744" lon="6.478">
        <ele>1563</ele>
        <time>2022-07-23T14:09:35Z</time>
      </trkpt>
      <trkpt lat="45.73744" lon="6.47799">
        <ele>1563</ele>
        <time>2022-07-23T14:09:36Z</time>
      </trkpt>
      <trkpt lat="45.73743" lon="6.47798">
        <ele>1563</ele>
        <time>2022-07-23T14:09:37Z</time>
      </trkpt>
      <trkpt lat="45.73742" lon="6.47797">
        <ele>1563</ele>
        <time>2022-07-23T14:09:38Z</time>
      </trkpt>
      <trkpt lat="45.73741" lon="6.47796">
        <ele>1563</ele>
        <time>2022-07-23T14:09:39Z</time>
      </trkpt>
      <trkpt lat="45.73741" lon="6.47795">
        <ele>1564</ele>
        <time>2022-07-23T14:09:40Z</time>
      </trkpt>
      <trkpt lat="45.7374" lon="6.47795">
        <ele>1564</ele>
        <time>2022-07-23T14:09:41Z</time>
      </trkpt>
      <trkpt lat="45.73739" lon="6.47794">
        <ele>1564</ele>
        <time>2022-07-23T14:09:42Z</time>
      </trkpt>
      <trkpt lat="45.73738" lon="6.47793">
        <ele>1565</ele>
        <time>2022-07-23T14:09:43Z</time>
      </trkpt>
      <trkpt lat="45.73738" lon="6.47793">
        <ele>1565</ele>
        <time>2022-07-23T14:09:44Z</time>
      </trkpt>
      <trkpt lat="45.73737" lon="6.47792">
        <ele>1566</ele>
        <time>2022-07-23T14:09:45Z</time>
      </trkpt>
      <trkpt lat="45.73737" lon="6.47792">
        <ele>1566</ele>
        <time>2022-07-23T14:09:46Z</time>
      </trkpt>
      <trkpt lat="45.73736" lon="6.47791">
        <ele>1566</ele>
        <time>2022-07-23T14:09:47Z</time>
      </trkpt>
      <trkpt lat="45.73736" lon="6.47791">
        <ele>1566</ele>
        <time>2022-07-23T14:09:48Z</time>
      </trkpt>
      <trkpt lat="45.73735" lon="6.4779">
        <ele>1566</ele>
        <time>2022-07-23T14:09:49Z</time>
      </trkpt>
      <trkpt lat="45.73734" lon="6.47789">
        <ele>1567</ele>
        <time>2022-07-23T14:09:50Z</time>
      </trkpt>
      <trkpt lat="45.73734" lon="6.47789">
        <ele>1567</ele>
        <time>2022-07-23T14:09:51Z</time>
      </trkpt>
      <trkpt lat="45.73733" lon="6.47788">
        <ele>1567</ele>
        <time>2022-07-23T14:09:52Z</time>
      </trkpt>
      <trkpt lat="45.73733" lon="6.47787">
        <ele>1567</ele>
        <time>2022-07-23T14:09:53Z</time>
      </trkpt>
      <trkpt lat="45.73732" lon="6.47786">
        <ele>1567</ele>
        <time>2022-07-23T14:09:54Z</time>
      </trkpt>
      <trkpt lat="45.73732" lon="6.47785">
        <ele>1567</ele>
        <time>2022-07-23T14:09:55Z</time>
      </trkpt>
      <trkpt lat="45.73731" lon="6.47785">
        <ele>1567</ele>
        <time>2022-07-23T14:09:56Z</time>
      </trkpt>
      <trkpt lat="45.7373" lon="6.47784">
        <ele>1567</ele>
        <time>2022-07-23T14:09:57Z</time>
      </trkpt>
      <trkpt lat="45.7373" lon="6.47783">
        <ele>1567</ele>
        <time>2022-07-23T14:09:58Z</time>
      </trkpt>
      <trkpt lat="45.73729" lon="6.47783">
        <ele>1567</ele>
        <time>2022-07-23T14:09:59Z</time>
      </trkpt>
      <trkpt lat="45.73728" lon="6.47782">
        <ele>1568</ele>
        <time>2022-07-23T14:10:00Z</time>
      </trkpt>
      <trkpt lat="45.73727" lon="6.47782">
        <ele>1568</ele>
        <time>2022-07-23T14:10:01Z</time>
      </trkpt>
      <trkpt lat="45.73726" lon="6.47781">
        <ele>1568</ele>
        <time>2022-07-23T14:10:02Z</time>
      </trkpt>
      <trkpt lat="45.73726" lon="6.47781">
        <ele>1569</ele>
        <time>2022-07-23T14:10:03Z</time>
      </trkpt>
      <trkpt lat="45.73725" lon="6.4778">
        <ele>1569</ele>
        <time>2022-07-23T14:10:04Z</time>
      </trkpt>
      <trkpt lat="45.73724" lon="6.47779">
        <ele>1570</ele>
        <time>2022-07-23T14:10:05Z</time>
      </trkpt>
      <trkpt lat="45.73723" lon="6.47778">
        <ele>1570</ele>
        <time>2022-07-23T14:10:06Z</time>
      </trkpt>
      <trkpt lat="45.73723" lon="6.47777">
        <ele>1570</ele>
        <time>2022-07-23T14:10:07Z</time>
      </trkpt>
      <trkpt lat="45.73722" lon="6.47777">
        <ele>1570</ele>
        <time>2022-07-23T14:10:08Z</time>
      </trkpt>
      <trkpt lat="45.73721" lon="6.47776">
        <ele>1570</ele>
        <time>2022-07-23T14:10:09Z</time>
      </trkpt>
      <trkpt lat="45.73721" lon="6.47775">
        <ele>1570</ele>
        <time>2022-07-23T14:10:10Z</time>
      </trkpt>
      <trkpt lat="45.7372" lon="6.47775">
        <ele>1570</ele>
        <time>2022-07-23T14:10:11Z</time>
      </trkpt>
      <trkpt lat="45.73719" lon="6.47774">
        <ele>1570</ele>
        <time>2022-07-23T14:10:12Z</time>
      </trkpt>
      <trkpt lat="45.73718" lon="6.47774">
        <ele>1570</ele>
        <time>2022-07-23T14:10:13Z</time>
      </trkpt>
      <trkpt lat="45.73717" lon="6.47773">
        <ele>1570</ele>
        <time>2022-07-23T14:10:14Z</time>
      </trkpt>
      <trkpt lat="45.73716" lon="6.47773">
        <ele>1571</ele>
        <time>2022-07-23T14:10:15Z</time>
      </trkpt>
      <trkpt lat="45.73715" lon="6.47772">
        <ele>1571</ele>
        <time>2022-07-23T14:10:16Z</time>
      </trkpt>
      <trkpt lat="45.73713" lon="6.47772">
        <ele>1571</ele>
        <time>2022-07-23T14:10:17Z</time>
      </trkpt>
      <trkpt lat="45.73712" lon="6.47771">
        <ele>1571</ele>
        <time>2022-07-23T14:10:18Z</time>
      </trkpt>
      <trkpt lat="45.73711" lon="6.4777">
        <ele>1571</ele>
        <time>2022-07-23T14:10:19Z</time>
      </trkpt>
      <trkpt lat="45.7371" lon="6.47769">
        <ele>1572</ele>
        <time>2022-07-23T14:10:20Z</time>
      </trkpt>
      <trkpt lat="45.73709" lon="6.47768">
        <ele>1572</ele>
        <time>2022-07-23T14:10:21Z</time>
      </trkpt>
      <trkpt lat="45.73709" lon="6.47767">
        <ele>1572</ele>
        <time>2022-07-23T14:10:22Z</time>
      </trkpt>
      <trkpt lat="45.73708" lon="6.47766">
        <ele>1572</ele>
        <time>2022-07-23T14:10:23Z</time>
      </trkpt>
      <trkpt lat="45.73707" lon="6.47765">
        <ele>1572</ele>
        <time>2022-07-23T14:10:24Z</time>
      </trkpt>
      <trkpt lat="45.73706" lon="6.47764">
        <ele>1573</ele>
        <time>2022-07-23T14:10:25Z</time>
      </trkpt>
      <trkpt lat="45.73706" lon="6.47763">
        <ele>1573</ele>
        <time>2022-07-23T14:10:26Z</time>
      </trkpt>
      <trkpt lat="45.73705" lon="6.47762">
        <ele>1573</ele>
        <time>2022-07-23T14:10:27Z</time>
      </trkpt>
      <trkpt lat="45.73704" lon="6.4776">
        <ele>1573</ele>
        <time>2022-07-23T14:10:28Z</time>
      </trkpt>
      <trkpt lat="45.73704" lon="6.47759">
        <ele>1573</ele>
        <time>2022-07-23T14:10:29Z</time>
      </trkpt>
      <trkpt lat="45.73703" lon="6.47758">
        <ele>1574</ele>
        <time>2022-07-23T14:10:30Z</time>
      </trkpt>
      <trkpt lat="45.73702" lon="6.47756">
        <ele>1574</ele>
        <time>2022-07-23T14:10:31Z</time>
      </trkpt>
      <trkpt lat="45.73702" lon="6.47755">
        <ele>1574</ele>
        <time>2022-07-23T14:10:32Z</time>
      </trkpt>
      <trkpt lat="45.73701" lon="6.47754">
        <ele>1574</ele>
        <time>2022-07-23T14:10:33Z</time>
      </trkpt>
      <trkpt lat="45.73701" lon="6.47752">
        <ele>1574</ele>
        <time>2022-07-23T14:10:34Z</time>
      </trkpt>
      <trkpt lat="45.737" lon="6.47751">
        <ele>1575</ele>
        <time>2022-07-23T14:10:35Z</time>
      </trkpt>
      <trkpt lat="45.737" lon="6.4775">
        <ele>1575</ele>
        <time>2022-07-23T14:10:36Z</time>
      </trkpt>
      <trkpt lat="45.73699" lon="6.47748">
        <ele>1575</ele>
        <time>2022-07-23T14:10:37Z</time>
      </trkpt>
      <trkpt lat="45.73699" lon="6.47747">
        <ele>1575</ele>
        <time>2022-07-23T14:10:38Z</time>
      </trkpt>
      <trkpt lat="45.73698" lon="6.47746">
        <ele>1575</ele>
        <time>2022-07-23T14:10:39Z</time>
      </trkpt>
      <trkpt lat="45.73698" lon="6.47745">
        <ele>1576</ele>
        <time>2022-07-23T14:10:40Z</time>
      </trkpt>
      <trkpt lat="45.73697" lon="6.47744">
        <ele>1576</ele>
        <time>2022-07-23T14:10:41Z</time>
      </trkpt>
      <trkpt lat="45.73697" lon="6.47743">
        <ele>1576</ele>
        <time>2022-07-23T14:10:42Z</time>
      </trkpt>
      <trkpt lat="45.73696" lon="6.47742">
        <ele>1576</ele>
        <time>2022-07-23T14:10:43Z</time>
      </trkpt>
      <trkpt lat="45.73695" lon="6.47741">
        <ele>1576</ele>
        <time>2022-07-23T14:10:44Z</time>
      </trkpt>
      <trkpt lat="45.73694" lon="6.4774">
        <ele>1577</ele>
        <time>2022-07-23T14:10:45Z</time>
      </trkpt>
      <trkpt lat="45.73694" lon="6.47738">
        <ele>1577</ele>
        <time>2022-07-23T14:10:46Z</time>
      </trkpt>
      <trkpt lat="45.73693" lon="6.47737">
        <ele>1577</ele>
        <time>2022-07-23T14:10:47Z</time>
      </trkpt>
      <trkpt lat="45.73692" lon="6.47736">
        <ele>1577</ele>
        <time>2022-07-23T14:10:48Z</time>
      </trkpt>
      <trkpt lat="45.73691" lon="6.47735">
        <ele>1577</ele>
        <time>2022-07-23T14:10:49Z</time>
      </trkpt>
      <trkpt lat="45.7369" lon="6.47734">
        <ele>1577</ele>
        <time>2022-07-23T14:10:50Z</time>
      </trkpt>
      <trkpt lat="45.73689" lon="6.47732">
        <ele>1577</ele>
        <time>2022-07-23T14:10:51Z</time>
      </trkpt>
      <trkpt lat="45.73689" lon="6.47731">
        <ele>1577</ele>
        <time>2022-07-23T14:10:52Z</time>
      </trkpt>
      <trkpt lat="45.73688" lon="6.4773">
        <ele>1577</ele>
        <time>2022-07-23T14:10:53Z</time>
      </trkpt>
      <trkpt lat="45.73687" lon="6.47729">
        <ele>1577</ele>
        <time>2022-07-23T14:10:54Z</time>
      </trkpt>
      <trkpt lat="45.73686" lon="6.47728">
        <ele>1578</ele>
        <time>2022-07-23T14:10:55Z</time>
      </trkpt>
      <trkpt lat="45.73685" lon="6.47727">
        <ele>1578</ele>
        <time>2022-07-23T14:10:56Z</time>
      </trkpt>
      <trkpt lat="45.73684" lon="6.47726">
        <ele>1578</ele>
        <time>2022-07-23T14:10:57Z</time>
      </trkpt>
      <trkpt lat="45.73684" lon="6.47725">
        <ele>1578</ele>
        <time>2022-07-23T14:10:58Z</time>
      </trkpt>
      <trkpt lat="45.73683" lon="6.47724">
        <ele>1578</ele>
        <time>2022-07-23T14:10:59Z</time>
      </trkpt>
      <trkpt lat="45.73682" lon="6.47723">
        <ele>1579</ele>
        <time>2022-07-23T14:11:00Z</time>
      </trkpt>
      <trkpt lat="45.73681" lon="6.47722">
        <ele>1579</ele>
        <time>2022-07-23T14:11:01Z</time>
      </trkpt>
      <trkpt lat="45.7368" lon="6.47721">
        <ele>1579</ele>
        <time>2022-07-23T14:11:02Z</time>
      </trkpt>
      <trkpt lat="45.73679" lon="6.4772">
        <ele>1579</ele>
        <time>2022-07-23T14:11:03Z</time>
      </trkpt>
      <trkpt lat="45.73678" lon="6.47719">
        <ele>1579</ele>
        <time>2022-07-23T14:11:04Z</time>
      </trkpt>
      <trkpt lat="45.73678" lon="6.47718">
        <ele>1580</ele>
        <time>2022-07-23T14:11:05Z</time>
      </trkpt>
      <trkpt lat="45.73677" lon="6.47717">
        <ele>1580</ele>
        <time>2022-07-23T14:11:06Z</time>
      </trkpt>
      <trkpt lat="45.73676" lon="6.47715">
        <ele>1580</ele>
        <time>2022-07-23T14:11:07Z</time>
      </trkpt>
      <trkpt lat="45.73675" lon="6.47714">
        <ele>1580</ele>
        <time>2022-07-23T14:11:08Z</time>
      </trkpt>
      <trkpt lat="45.73674" lon="6.47713">
        <ele>1580</ele>
        <time>2022-07-23T14:11:09Z</time>
      </trkpt>
      <trkpt lat="45.73673" lon="6.47712">
        <ele>1580</ele>
        <time>2022-07-23T14:11:10Z</time>
      </trkpt>
      <trkpt lat="45.73672" lon="6.4771">
        <ele>1580</ele>
        <time>2022-07-23T14:11:11Z</time>
      </trkpt>
      <trkpt lat="45.73671" lon="6.47709">
        <ele>1580</ele>
        <time>2022-07-23T14:11:12Z</time>
      </trkpt>
      <trkpt lat="45.73671" lon="6.47707">
        <ele>1580</ele>
        <time>2022-07-23T14:11:13Z</time>
      </trkpt>
      <trkpt lat="45.7367" lon="6.47706">
        <ele>1580</ele>
        <time>2022-07-23T14:11:14Z</time>
      </trkpt>
      <trkpt lat="45.73669" lon="6.47705">
        <ele>1580</ele>
        <time>2022-07-23T14:11:15Z</time>
      </trkpt>
      <trkpt lat="45.73668" lon="6.47703">
        <ele>1580</ele>
        <time>2022-07-23T14:11:16Z</time>
      </trkpt>
      <trkpt lat="45.73667" lon="6.47702">
        <ele>1580</ele>
        <time>2022-07-23T14:11:17Z</time>
      </trkpt>
      <trkpt lat="45.73666" lon="6.477">
        <ele>1580</ele>
        <time>2022-07-23T14:11:18Z</time>
      </trkpt>
      <trkpt lat="45.73665" lon="6.47699">
        <ele>1580</ele>
        <time>2022-07-23T14:11:19Z</time>
      </trkpt>
      <trkpt lat="45.73664" lon="6.47697">
        <ele>1580</ele>
        <time>2022-07-23T14:11:20Z</time>
      </trkpt>
      <trkpt lat="45.73662" lon="6.47696">
        <ele>1580</ele>
        <time>2022-07-23T14:11:21Z</time>
      </trkpt>
      <trkpt lat="45.73661" lon="6.47694">
        <ele>1580</ele>
        <time>2022-07-23T14:11:22Z</time>
      </trkpt>
      <trkpt lat="45.7366" lon="6.47693">
        <ele>1580</ele>
        <time>2022-07-23T14:11:23Z</time>
      </trkpt>
      <trkpt lat="45.73659" lon="6.47691">
        <ele>1580</ele>
        <time>2022-07-23T14:11:24Z</time>
      </trkpt>
      <trkpt lat="45.73658" lon="6.4769">
        <ele>1580</ele>
        <time>2022-07-23T14:11:25Z</time>
      </trkpt>
      <trkpt lat="45.73657" lon="6.47688">
        <ele>1580</ele>
        <time>2022-07-23T14:11:26Z</time>
      </trkpt>
      <trkpt lat="45.73656" lon="6.47687">
        <ele>1580</ele>
        <time>2022-07-23T14:11:27Z</time>
      </trkpt>
      <trkpt lat="45.73655" lon="6.47685">
        <ele>1580</ele>
        <time>2022-07-23T14:11:28Z</time>
      </trkpt>
      <trkpt lat="45.73655" lon="6.47684">
        <ele>1580</ele>
        <time>2022-07-23T14:11:29Z</time>
      </trkpt>
      <trkpt lat="45.73654" lon="6.47683">
        <ele>1580</ele>
        <time>2022-07-23T14:11:30Z</time>
      </trkpt>
      <trkpt lat="45.73654" lon="6.47681">
        <ele>1580</ele>
        <time>2022-07-23T14:11:31Z</time>
      </trkpt>
      <trkpt lat="45.73654" lon="6.4768">
        <ele>1580</ele>
        <time>2022-07-23T14:11:32Z</time>
      </trkpt>
      <trkpt lat="45.73654" lon="6.47679">
        <ele>1580</ele>
        <time>2022-07-23T14:11:33Z</time>
      </trkpt>
      <trkpt lat="45.73654" lon="6.47679">
        <ele>1580</ele>
        <time>2022-07-23T14:11:34Z</time>
      </trkpt>
      <trkpt lat="45.73654" lon="6.47679">
        <ele>1580</ele>
        <time>2022-07-23T14:11:35Z</time>
      </trkpt>
      <trkpt lat="45.73654" lon="6.47678">
        <ele>1580</ele>
        <time>2022-07-23T14:11:36Z</time>
      </trkpt>
      <trkpt lat="45.73653" lon="6.47678">
        <ele>1580</ele>
        <time>2022-07-23T14:11:37Z</time>
      </trkpt>
      <trkpt lat="45.73653" lon="6.47678">
        <ele>1580</ele>
        <time>2022-07-23T14:11:38Z</time>
      </trkpt>
      <trkpt lat="45.73653" lon="6.47678">
        <ele>1580</ele>
        <time>2022-07-23T14:11:39Z</time>
      </trkpt>
      <trkpt lat="45.73653" lon="6.47677">
        <ele>1580</ele>
        <time>2022-07-23T14:11:40Z</time>
      </trkpt>
      <trkpt lat="45.73652" lon="6.47677">
        <ele>1580</ele>
        <time>2022-07-23T14:11:41Z</time>
      </trkpt>
      <trkpt lat="45.73652" lon="6.47678">
        <ele>1580</ele>
        <time>2022-07-23T14:11:42Z</time>
      </trkpt>
      <trkpt lat="45.73651" lon="6.47678">
        <ele>1580</ele>
        <time>2022-07-23T14:11:43Z</time>
      </trkpt>
      <trkpt lat="45.7365" lon="6.47678">
        <ele>1580</ele>
        <time>2022-07-23T14:11:44Z</time>
      </trkpt>
      <trkpt lat="45.73649" lon="6.47678">
        <ele>1580</ele>
        <time>2022-07-23T14:11:45Z</time>
      </trkpt>
      <trkpt lat="45.73648" lon="6.47678">
        <ele>1580</ele>
        <time>2022-07-23T14:11:46Z</time>
      </trkpt>
      <trkpt lat="45.73647" lon="6.47678">
        <ele>1580</ele>
        <time>2022-07-23T14:11:47Z</time>
      </trkpt>
      <trkpt lat="45.73646" lon="6.47679">
        <ele>1580</ele>
        <time>2022-07-23T14:11:48Z</time>
      </trkpt>
      <trkpt lat="45.73646" lon="6.47679">
        <ele>1580</ele>
        <time>2022-07-23T14:11:49Z</time>
      </trkpt>
      <trkpt lat="45.73645" lon="6.47679">
        <ele>1580</ele>
        <time>2022-07-23T14:11:50Z</time>
      </trkpt>
      <trkpt lat="45.73644" lon="6.4768">
        <ele>1580</ele>
        <time>2022-07-23T14:11:51Z</time>
      </trkpt>
      <trkpt lat="45.73643" lon="6.4768">
        <ele>1580</ele>
        <time>2022-07-23T14:11:52Z</time>
      </trkpt>
      <trkpt lat="45.73643" lon="6.47679">
        <ele>1580</ele>
        <time>2022-07-23T14:12:11Z</time>
      </trkpt>
      <trkpt lat="45.73643" lon="6.47679">
        <ele>1580</ele>
        <time>2022-07-23T14:12:12Z</time>
      </trkpt>
      <trkpt lat="45.73643" lon="6.47678">
        <ele>1580</ele>
        <time>2022-07-23T14:12:13Z</time>
      </trkpt>
      <trkpt lat="45.73645" lon="6.47677">
        <ele>1580</ele>
        <time>2022-07-23T14:13:17Z</time>
      </trkpt>
      <trkpt lat="45.73645" lon="6.47677">
        <ele>1580</ele>
        <time>2022-07-23T14:13:18Z</time>
      </trkpt>
      <trkpt lat="45.73646" lon="6.47676">
        <ele>1580</ele>
        <time>2022-07-23T14:13:19Z</time>
      </trkpt>
      <trkpt lat="45.73646" lon="6.47676">
        <ele>1580</ele>
        <time>2022-07-23T14:13:20Z</time>
      </trkpt>
      <trkpt lat="45.73646" lon="6.47677">
        <ele>1580</ele>
        <time>2022-07-23T14:13:21Z</time>
      </trkpt>
      <trkpt lat="45.73645" lon="6.47676">
        <ele>1580</ele>
        <time>2022-07-23T14:15:03Z</time>
      </trkpt>
      <trkpt lat="45.73645" lon="6.47676">
        <ele>1580</ele>
        <time>2022-07-23T14:15:04Z</time>
      </trkpt>
      <trkpt lat="45.73645" lon="6.47676">
        <ele>1580</ele>
        <time>2022-07-23T14:15:05Z</time>
      </trkpt>
      <trkpt lat="45.73645" lon="6.47677">
        <ele>1580</ele>
        <time>2022-07-23T14:15:06Z</time>
      </trkpt>
      <trkpt lat="45.73645" lon="6.47677">
        <ele>1580</ele>
        <time>2022-07-23T14:15:07Z</time>
      </trkpt>
      <trkpt lat="45.73644" lon="6.47679">
        <ele>1580</ele>
        <time>2022-07-23T14:15:08Z</time>
      </trkpt>
      <trkpt lat="45.73643" lon="6.4768">
        <ele>1580</ele>
        <time>2022-07-23T14:15:09Z</time>
      </trkpt>
      <trkpt lat="45.73642" lon="6.47681">
        <ele>1580</ele>
        <time>2022-07-23T14:15:10Z</time>
      </trkpt>
      <trkpt lat="45.73641" lon="6.47682">
        <ele>1580</ele>
        <time>2022-07-23T14:15:11Z</time>
      </trkpt>
      <trkpt lat="45.73639" lon="6.47683">
        <ele>1580</ele>
        <time>2022-07-23T14:15:12Z</time>
      </trkpt>
      <trkpt lat="45.73638" lon="6.47684">
        <ele>1580</ele>
        <time>2022-07-23T14:15:13Z</time>
      </trkpt>
      <trkpt lat="45.73636" lon="6.47685">
        <ele>1580</ele>
        <time>2022-07-23T14:15:14Z</time>
      </trkpt>
      <trkpt lat="45.73635" lon="6.47686">
        <ele>1580</ele>
        <time>2022-07-23T14:15:15Z</time>
      </trkpt>
      <trkpt lat="45.73633" lon="6.47686">
        <ele>1580</ele>
        <time>2022-07-23T14:15:16Z</time>
      </trkpt>
      <trkpt lat="45.73632" lon="6.47687">
        <ele>1580</ele>
        <time>2022-07-23T14:15:17Z</time>
      </trkpt>
      <trkpt lat="45.7363" lon="6.47689">
        <ele>1580</ele>
        <time>2022-07-23T14:15:18Z</time>
      </trkpt>
      <trkpt lat="45.73629" lon="6.4769">
        <ele>1580</ele>
        <time>2022-07-23T14:15:19Z</time>
      </trkpt>
      <trkpt lat="45.73627" lon="6.47691">
        <ele>1580</ele>
        <time>2022-07-23T14:15:20Z</time>
      </trkpt>
      <trkpt lat="45.73626" lon="6.47692">
        <ele>1579</ele>
        <time>2022-07-23T14:15:21Z</time>
      </trkpt>
      <trkpt lat="45.73624" lon="6.47693">
        <ele>1579</ele>
        <time>2022-07-23T14:15:22Z</time>
      </trkpt>
      <trkpt lat="45.73623" lon="6.47694">
        <ele>1579</ele>
        <time>2022-07-23T14:15:23Z</time>
      </trkpt>
      <trkpt lat="45.73622" lon="6.47695">
        <ele>1579</ele>
        <time>2022-07-23T14:15:24Z</time>
      </trkpt>
      <trkpt lat="45.73621" lon="6.47696">
        <ele>1579</ele>
        <time>2022-07-23T14:15:25Z</time>
      </trkpt>
      <trkpt lat="45.7362" lon="6.47697">
        <ele>1579</ele>
        <time>2022-07-23T14:15:26Z</time>
      </trkpt>
      <trkpt lat="45.73619" lon="6.47697">
        <ele>1579</ele>
        <time>2022-07-23T14:15:27Z</time>
      </trkpt>
      <trkpt lat="45.73618" lon="6.47698">
        <ele>1579</ele>
        <time>2022-07-23T14:15:28Z</time>
      </trkpt>
      <trkpt lat="45.73617" lon="6.47699">
        <ele>1579</ele>
        <time>2022-07-23T14:15:29Z</time>
      </trkpt>
      <trkpt lat="45.73616" lon="6.47699">
        <ele>1579</ele>
        <time>2022-07-23T14:15:30Z</time>
      </trkpt>
      <trkpt lat="45.73615" lon="6.477">
        <ele>1579</ele>
        <time>2022-07-23T14:15:31Z</time>
      </trkpt>
      <trkpt lat="45.73614" lon="6.477">
        <ele>1579</ele>
        <time>2022-07-23T14:15:32Z</time>
      </trkpt>
      <trkpt lat="45.73612" lon="6.477">
        <ele>1579</ele>
        <time>2022-07-23T14:15:33Z</time>
      </trkpt>
      <trkpt lat="45.73611" lon="6.47701">
        <ele>1579</ele>
        <time>2022-07-23T14:15:34Z</time>
      </trkpt>
      <trkpt lat="45.7361" lon="6.47701">
        <ele>1579</ele>
        <time>2022-07-23T14:15:35Z</time>
      </trkpt>
      <trkpt lat="45.73608" lon="6.47701">
        <ele>1579</ele>
        <time>2022-07-23T14:15:36Z</time>
      </trkpt>
      <trkpt lat="45.73607" lon="6.47702">
        <ele>1579</ele>
        <time>2022-07-23T14:15:37Z</time>
      </trkpt>
      <trkpt lat="45.73605" lon="6.47702">
        <ele>1579</ele>
        <time>2022-07-23T14:15:38Z</time>
      </trkpt>
      <trkpt lat="45.73604" lon="6.47702">
        <ele>1579</ele>
        <time>2022-07-23T14:15:39Z</time>
      </trkpt>
      <trkpt lat="45.73602" lon="6.47703">
        <ele>1579</ele>
        <time>2022-07-23T14:15:40Z</time>
      </trkpt>
      <trkpt lat="45.73601" lon="6.47703">
        <ele>1578</ele>
        <time>2022-07-23T14:15:41Z</time>
      </trkpt>
      <trkpt lat="45.736" lon="6.47703">
        <ele>1578</ele>
        <time>2022-07-23T14:15:42Z</time>
      </trkpt>
      <trkpt lat="45.73598" lon="6.47703">
        <ele>1578</ele>
        <time>2022-07-23T14:15:43Z</time>
      </trkpt>
      <trkpt lat="45.73597" lon="6.47704">
        <ele>1578</ele>
        <time>2022-07-23T14:15:44Z</time>
      </trkpt>
      <trkpt lat="45.73595" lon="6.47705">
        <ele>1578</ele>
        <time>2022-07-23T14:15:45Z</time>
      </trkpt>
      <trkpt lat="45.73594" lon="6.47705">
        <ele>1578</ele>
        <time>2022-07-23T14:15:46Z</time>
      </trkpt>
      <trkpt lat="45.73593" lon="6.47706">
        <ele>1578</ele>
        <time>2022-07-23T14:15:47Z</time>
      </trkpt>
      <trkpt lat="45.73592" lon="6.47708">
        <ele>1578</ele>
        <time>2022-07-23T14:15:48Z</time>
      </trkpt>
      <trkpt lat="45.7359" lon="6.47709">
        <ele>1578</ele>
        <time>2022-07-23T14:15:49Z</time>
      </trkpt>
      <trkpt lat="45.73589" lon="6.4771">
        <ele>1578</ele>
        <time>2022-07-23T14:15:50Z</time>
      </trkpt>
      <trkpt lat="45.73588" lon="6.47711">
        <ele>1578</ele>
        <time>2022-07-23T14:15:51Z</time>
      </trkpt>
      <trkpt lat="45.73587" lon="6.47713">
        <ele>1578</ele>
        <time>2022-07-23T14:15:52Z</time>
      </trkpt>
      <trkpt lat="45.73586" lon="6.47714">
        <ele>1578</ele>
        <time>2022-07-23T14:15:53Z</time>
      </trkpt>
      <trkpt lat="45.73585" lon="6.47716">
        <ele>1578</ele>
        <time>2022-07-23T14:15:54Z</time>
      </trkpt>
      <trkpt lat="45.73583" lon="6.47717">
        <ele>1578</ele>
        <time>2022-07-23T14:15:55Z</time>
      </trkpt>
      <trkpt lat="45.73582" lon="6.47718">
        <ele>1578</ele>
        <time>2022-07-23T14:15:56Z</time>
      </trkpt>
      <trkpt lat="45.73581" lon="6.4772">
        <ele>1578</ele>
        <time>2022-07-23T14:15:57Z</time>
      </trkpt>
      <trkpt lat="45.7358" lon="6.47721">
        <ele>1578</ele>
        <time>2022-07-23T14:15:58Z</time>
      </trkpt>
      <trkpt lat="45.73579" lon="6.47723">
        <ele>1578</ele>
        <time>2022-07-23T14:15:59Z</time>
      </trkpt>
      <trkpt lat="45.73578" lon="6.47724">
        <ele>1578</ele>
        <time>2022-07-23T14:16:00Z</time>
      </trkpt>
      <trkpt lat="45.73577" lon="6.47726">
        <ele>1577</ele>
        <time>2022-07-23T14:16:01Z</time>
      </trkpt>
      <trkpt lat="45.73576" lon="6.47728">
        <ele>1577</ele>
        <time>2022-07-23T14:16:02Z</time>
      </trkpt>
      <trkpt lat="45.73575" lon="6.47729">
        <ele>1577</ele>
        <time>2022-07-23T14:16:03Z</time>
      </trkpt>
      <trkpt lat="45.73575" lon="6.47731">
        <ele>1577</ele>
        <time>2022-07-23T14:16:04Z</time>
      </trkpt>
      <trkpt lat="45.73574" lon="6.47733">
        <ele>1577</ele>
        <time>2022-07-23T14:16:05Z</time>
      </trkpt>
      <trkpt lat="45.73573" lon="6.47735">
        <ele>1577</ele>
        <time>2022-07-23T14:16:06Z</time>
      </trkpt>
      <trkpt lat="45.73572" lon="6.47736">
        <ele>1577</ele>
        <time>2022-07-23T14:16:07Z</time>
      </trkpt>
      <trkpt lat="45.73571" lon="6.47738">
        <ele>1577</ele>
        <time>2022-07-23T14:16:08Z</time>
      </trkpt>
      <trkpt lat="45.7357" lon="6.47739">
        <ele>1577</ele>
        <time>2022-07-23T14:16:09Z</time>
      </trkpt>
      <trkpt lat="45.73569" lon="6.47741">
        <ele>1577</ele>
        <time>2022-07-23T14:16:10Z</time>
      </trkpt>
      <trkpt lat="45.73568" lon="6.47742">
        <ele>1576</ele>
        <time>2022-07-23T14:16:11Z</time>
      </trkpt>
      <trkpt lat="45.73566" lon="6.47743">
        <ele>1576</ele>
        <time>2022-07-23T14:16:12Z</time>
      </trkpt>
      <trkpt lat="45.73565" lon="6.47744">
        <ele>1576</ele>
        <time>2022-07-23T14:16:13Z</time>
      </trkpt>
      <trkpt lat="45.73564" lon="6.47745">
        <ele>1576</ele>
        <time>2022-07-23T14:16:14Z</time>
      </trkpt>
      <trkpt lat="45.73563" lon="6.47747">
        <ele>1576</ele>
        <time>2022-07-23T14:16:15Z</time>
      </trkpt>
      <trkpt lat="45.73562" lon="6.47748">
        <ele>1575</ele>
        <time>2022-07-23T14:16:16Z</time>
      </trkpt>
      <trkpt lat="45.73561" lon="6.47749">
        <ele>1575</ele>
        <time>2022-07-23T14:16:17Z</time>
      </trkpt>
      <trkpt lat="45.7356" lon="6.4775">
        <ele>1575</ele>
        <time>2022-07-23T14:16:18Z</time>
      </trkpt>
      <trkpt lat="45.73559" lon="6.47751">
        <ele>1575</ele>
        <time>2022-07-23T14:16:19Z</time>
      </trkpt>
      <trkpt lat="45.73558" lon="6.47752">
        <ele>1575</ele>
        <time>2022-07-23T14:16:20Z</time>
      </trkpt>
      <trkpt lat="45.73558" lon="6.47753">
        <ele>1574</ele>
        <time>2022-07-23T14:16:21Z</time>
      </trkpt>
      <trkpt lat="45.73558" lon="6.47753">
        <ele>1574</ele>
        <time>2022-07-23T14:16:22Z</time>
      </trkpt>
      <trkpt lat="45.73558" lon="6.47754">
        <ele>1574</ele>
        <time>2022-07-23T14:16:23Z</time>
      </trkpt>
      <trkpt lat="45.73558" lon="6.47755">
        <ele>1574</ele>
        <time>2022-07-23T14:16:24Z</time>
      </trkpt>
      <trkpt lat="45.73559" lon="6.47756">
        <ele>1574</ele>
        <time>2022-07-23T14:16:25Z</time>
      </trkpt>
      <trkpt lat="45.73559" lon="6.47757">
        <ele>1574</ele>
        <time>2022-07-23T14:16:26Z</time>
      </trkpt>
      <trkpt lat="45.73559" lon="6.47758">
        <ele>1574</ele>
        <time>2022-07-23T14:16:27Z</time>
      </trkpt>
      <trkpt lat="45.73559" lon="6.47759">
        <ele>1574</ele>
        <time>2022-07-23T14:16:33Z</time>
      </trkpt>
      <trkpt lat="45.73559" lon="6.47759">
        <ele>1574</ele>
        <time>2022-07-23T14:16:34Z</time>
      </trkpt>
      <trkpt lat="45.73558" lon="6.47759">
        <ele>1574</ele>
        <time>2022-07-23T14:16:35Z</time>
      </trkpt>
      <trkpt lat="45.73557" lon="6.47758">
        <ele>1574</ele>
        <time>2022-07-23T14:17:48Z</time>
      </trkpt>
      <trkpt lat="45.73557" lon="6.47757">
        <ele>1574</ele>
        <time>2022-07-23T14:17:49Z</time>
      </trkpt>
      <trkpt lat="45.73557" lon="6.47756">
        <ele>1574</ele>
        <time>2022-07-23T14:17:50Z</time>
      </trkpt>
      <trkpt lat="45.73557" lon="6.47756">
        <ele>1574</ele>
        <time>2022-07-23T14:17:51Z</time>
      </trkpt>
      <trkpt lat="45.73557" lon="6.47755">
        <ele>1574</ele>
        <time>2022-07-23T14:17:52Z</time>
      </trkpt>
      <trkpt lat="45.73558" lon="6.47755">
        <ele>1574</ele>
        <time>2022-07-23T14:17:53Z</time>
      </trkpt>
      <trkpt lat="45.73558" lon="6.47754">
        <ele>1574</ele>
        <time>2022-07-23T14:17:54Z</time>
      </trkpt>
      <trkpt lat="45.73559" lon="6.47754">
        <ele>1574</ele>
        <time>2022-07-23T14:17:55Z</time>
      </trkpt>
      <trkpt lat="45.7356" lon="6.47753">
        <ele>1574</ele>
        <time>2022-07-23T14:17:56Z</time>
      </trkpt>
      <trkpt lat="45.73561" lon="6.47753">
        <ele>1574</ele>
        <time>2022-07-23T14:17:57Z</time>
      </trkpt>
      <trkpt lat="45.73561" lon="6.47753">
        <ele>1574</ele>
        <time>2022-07-23T14:17:58Z</time>
      </trkpt>
      <trkpt lat="45.73561" lon="6.47753">
        <ele>1574</ele>
        <time>2022-07-23T14:17:59Z</time>
      </trkpt>
      <trkpt lat="45.73562" lon="6.47753">
        <ele>1574</ele>
        <time>2022-07-23T14:18:00Z</time>
      </trkpt>
      <trkpt lat="45.73562" lon="6.47752">
        <ele>1574</ele>
        <time>2022-07-23T14:18:01Z</time>
      </trkpt>
      <trkpt lat="45.73562" lon="6.47751">
        <ele>1574</ele>
        <time>2022-07-23T14:18:02Z</time>
      </trkpt>
      <trkpt lat="45.73562" lon="6.47751">
        <ele>1574</ele>
        <time>2022-07-23T14:18:03Z</time>
      </trkpt>
      <trkpt lat="45.73562" lon="6.4775">
        <ele>1574</ele>
        <time>2022-07-23T14:18:04Z</time>
      </trkpt>
      <trkpt lat="45.73561" lon="6.47749">
        <ele>1574</ele>
        <time>2022-07-23T14:18:05Z</time>
      </trkpt>
      <trkpt lat="45.73561" lon="6.47749">
        <ele>1574</ele>
        <time>2022-07-23T14:18:06Z</time>
      </trkpt>
      <trkpt lat="45.7356" lon="6.47749">
        <ele>1574</ele>
        <time>2022-07-23T14:18:07Z</time>
      </trkpt>
      <trkpt lat="45.73559" lon="6.47748">
        <ele>1574</ele>
        <time>2022-07-23T14:18:08Z</time>
      </trkpt>
      <trkpt lat="45.73559" lon="6.47748">
        <ele>1574</ele>
        <time>2022-07-23T14:18:09Z</time>
      </trkpt>
      <trkpt lat="45.73559" lon="6.47748">
        <ele>1574</ele>
        <time>2022-07-23T14:18:10Z</time>
      </trkpt>
      <trkpt lat="45.73559" lon="6.47749">
        <ele>1574</ele>
        <time>2022-07-23T14:18:11Z</time>
      </trkpt>
      <trkpt lat="45.73558" lon="6.47749">
        <ele>1574</ele>
        <time>2022-07-23T14:18:12Z</time>
      </trkpt>
      <trkpt lat="45.73557" lon="6.47749">
        <ele>1574</ele>
        <time>2022-07-23T14:18:13Z</time>
      </trkpt>
      <trkpt lat="45.73557" lon="6.47749">
        <ele>1574</ele>
        <time>2022-07-23T14:18:14Z</time>
      </trkpt>
      <trkpt lat="45.73556" lon="6.47749">
        <ele>1574</ele>
        <time>2022-07-23T14:18:15Z</time>
      </trkpt>
      <trkpt lat="45.73555" lon="6.4775">
        <ele>1574</ele>
        <time>2022-07-23T14:18:16Z</time>
      </trkpt>
      <trkpt lat="45.73554" lon="6.47751">
        <ele>1574</ele>
        <time>2022-07-23T14:18:17Z</time>
      </trkpt>
      <trkpt lat="45.73553" lon="6.47751">
        <ele>1574</ele>
        <time>2022-07-23T14:18:18Z</time>
      </trkpt>
      <trkpt lat="45.73553" lon="6.47753">
        <ele>1574</ele>
        <time>2022-07-23T14:18:19Z</time>
      </trkpt>
      <trkpt lat="45.73553" lon="6.47754">
        <ele>1574</ele>
        <time>2022-07-23T14:18:20Z</time>
      </trkpt>
      <trkpt lat="45.73554" lon="6.47755">
        <ele>1574</ele>
        <time>2022-07-23T14:18:44Z</time>
      </trkpt>
      <trkpt lat="45.73554" lon="6.47755">
        <ele>1574</ele>
        <time>2022-07-23T14:18:45Z</time>
      </trkpt>
      <trkpt lat="45.73554" lon="6.47755">
        <ele>1574</ele>
        <time>2022-07-23T14:18:46Z</time>
      </trkpt>
      <trkpt lat="45.73554" lon="6.47755">
        <ele>1574</ele>
        <time>2022-07-23T14:18:47Z</time>
      </trkpt>
      <trkpt lat="45.73554" lon="6.47754">
        <ele>1574</ele>
        <time>2022-07-23T14:18:48Z</time>
      </trkpt>
      <trkpt lat="45.73555" lon="6.47753">
        <ele>1574</ele>
        <time>2022-07-23T14:18:49Z</time>
      </trkpt>
      <trkpt lat="45.73555" lon="6.47752">
        <ele>1574</ele>
        <time>2022-07-23T14:18:50Z</time>
      </trkpt>
      <trkpt lat="45.73555" lon="6.47751">
        <ele>1574</ele>
        <time>2022-07-23T14:18:51Z</time>
      </trkpt>
      <trkpt lat="45.73556" lon="6.4775">
        <ele>1574</ele>
        <time>2022-07-23T14:18:52Z</time>
      </trkpt>
      <trkpt lat="45.73557" lon="6.4775">
        <ele>1575</ele>
        <time>2022-07-23T14:19:26Z</time>
      </trkpt>
      <trkpt lat="45.73557" lon="6.4775">
        <ele>1575</ele>
        <time>2022-07-23T14:19:27Z</time>
      </trkpt>
      <trkpt lat="45.73557" lon="6.47751">
        <ele>1575</ele>
        <time>2022-07-23T14:19:28Z</time>
      </trkpt>
      <trkpt lat="45.73557" lon="6.47751">
        <ele>1575</ele>
        <time>2022-07-23T14:19:29Z</time>
      </trkpt>
      <trkpt lat="45.73557" lon="6.47752">
        <ele>1575</ele>
        <time>2022-07-23T14:19:30Z</time>
      </trkpt>
      <trkpt lat="45.73556" lon="6.47753">
        <ele>1575</ele>
        <time>2022-07-23T14:19:31Z</time>
      </trkpt>
      <trkpt lat="45.73555" lon="6.47754">
        <ele>1575</ele>
        <time>2022-07-23T14:19:32Z</time>
      </trkpt>
      <trkpt lat="45.73555" lon="6.47755">
        <ele>1575</ele>
        <time>2022-07-23T14:19:33Z</time>
      </trkpt>
      <trkpt lat="45.73554" lon="6.47756">
        <ele>1575</ele>
        <time>2022-07-23T14:19:34Z</time>
      </trkpt>
      <trkpt lat="45.73553" lon="6.47757">
        <ele>1574</ele>
        <time>2022-07-23T14:28:09Z</time>
      </trkpt>
      <trkpt lat="45.73552" lon="6.47757">
        <ele>1574</ele>
        <time>2022-07-23T14:28:10Z</time>
      </trkpt>
      <trkpt lat="45.73551" lon="6.47758">
        <ele>1574</ele>
        <time>2022-07-23T14:28:11Z</time>
      </trkpt>
      <trkpt lat="45.7355" lon="6.4776">
        <ele>1574</ele>
        <time>2022-07-23T14:28:58Z</time>
      </trkpt>
      <trkpt lat="45.7355" lon="6.47761">
        <ele>1574</ele>
        <time>2022-07-23T14:28:59Z</time>
      </trkpt>
      <trkpt lat="45.7355" lon="6.47762">
        <ele>1574</ele>
        <time>2022-07-23T14:29:00Z</time>
      </trkpt>
      <trkpt lat="45.7355" lon="6.47759">
        <ele>1574</ele>
        <time>2022-07-23T14:34:35Z</time>
      </trkpt>
      <trkpt lat="45.7355" lon="6.47757">
        <ele>1574</ele>
        <time>2022-07-23T14:34:36Z</time>
      </trkpt>
      <trkpt lat="45.73551" lon="6.47755">
        <ele>1574</ele>
        <time>2022-07-23T14:34:37Z</time>
      </trkpt>
      <trkpt lat="45.73551" lon="6.47755">
        <ele>1574</ele>
        <time>2022-07-23T14:34:38Z</time>
      </trkpt>
      <trkpt lat="45.73551" lon="6.47754">
        <ele>1574</ele>
        <time>2022-07-23T14:34:39Z</time>
      </trkpt>
      <trkpt lat="45.73551" lon="6.47754">
        <ele>1574</ele>
        <time>2022-07-23T14:34:40Z</time>
      </trkpt>
      <trkpt lat="45.73551" lon="6.47753">
        <ele>1574</ele>
        <time>2022-07-23T14:34:41Z</time>
      </trkpt>
      <trkpt lat="45.73552" lon="6.47753">
        <ele>1574</ele>
        <time>2022-07-23T14:34:42Z</time>
      </trkpt>
      <trkpt lat="45.73552" lon="6.47753">
        <ele>1574</ele>
        <time>2022-07-23T14:34:43Z</time>
      </trkpt>
      <trkpt lat="45.73552" lon="6.47753">
        <ele>1574</ele>
        <time>2022-07-23T14:34:44Z</time>
      </trkpt>
      <trkpt lat="45.73552" lon="6.47754">
        <ele>1574</ele>
        <time>2022-07-23T14:34:45Z</time>
      </trkpt>
      <trkpt lat="45.73554" lon="6.47755">
        <ele>1574</ele>
        <time>2022-07-23T14:35:30Z</time>
      </trkpt>
      <trkpt lat="45.73555" lon="6.47755">
        <ele>1574</ele>
        <time>2022-07-23T14:35:31Z</time>
      </trkpt>
      <trkpt lat="45.73555" lon="6.47755">
        <ele>1574</ele>
        <time>2022-07-23T14:35:32Z</time>
      </trkpt>
      <trkpt lat="45.73557" lon="6.47757">
        <ele>1574</ele>
        <time>2022-07-23T14:35:38Z</time>
      </trkpt>
      <trkpt lat="45.73557" lon="6.47758">
        <ele>1574</ele>
        <time>2022-07-23T14:35:39Z</time>
      </trkpt>
      <trkpt lat="45.73557" lon="6.47758">
        <ele>1575</ele>
        <time>2022-07-23T14:35:40Z</time>
      </trkpt>
      <trkpt lat="45.73556" lon="6.47759">
        <ele>1575</ele>
        <time>2022-07-23T14:35:41Z</time>
      </trkpt>
      <trkpt lat="45.73556" lon="6.47759">
        <ele>1575</ele>
        <time>2022-07-23T14:35:42Z</time>
      </trkpt>
      <trkpt lat="45.73556" lon="6.47759">
        <ele>1575</ele>
        <time>2022-07-23T14:35:43Z</time>
      </trkpt>
      <trkpt lat="45.73555" lon="6.4776">
        <ele>1575</ele>
        <time>2022-07-23T14:36:43Z</time>
      </trkpt>
      <trkpt lat="45.73554" lon="6.4776">
        <ele>1575</ele>
        <time>2022-07-23T14:36:44Z</time>
      </trkpt>
      <trkpt lat="45.73554" lon="6.4776">
        <ele>1575</ele>
        <time>2022-07-23T14:36:45Z</time>
      </trkpt>
      <trkpt lat="45.73554" lon="6.47759">
        <ele>1575</ele>
        <time>2022-07-23T14:39:33Z</time>
      </trkpt>
      <trkpt lat="45.73554" lon="6.47758">
        <ele>1575</ele>
        <time>2022-07-23T14:39:34Z</time>
      </trkpt>
      <trkpt lat="45.73554" lon="6.47757">
        <ele>1575</ele>
        <time>2022-07-23T14:39:35Z</time>
      </trkpt>
      <trkpt lat="45.73554" lon="6.47756">
        <ele>1575</ele>
        <time>2022-07-23T14:39:36Z</time>
      </trkpt>
      <trkpt lat="45.73554" lon="6.47755">
        <ele>1575</ele>
        <time>2022-07-23T14:39:37Z</time>
      </trkpt>
      <trkpt lat="45.73554" lon="6.47754">
        <ele>1575</ele>
        <time>2022-07-23T14:39:38Z</time>
      </trkpt>
      <trkpt lat="45.73554" lon="6.47753">
        <ele>1575</ele>
        <time>2022-07-23T14:39:39Z</time>
      </trkpt>
      <trkpt lat="45.73554" lon="6.47753">
        <ele>1575</ele>
        <time>2022-07-23T14:39:40Z</time>
      </trkpt>
      <trkpt lat="45.73554" lon="6.47752">
        <ele>1575</ele>
        <time>2022-07-23T14:39:41Z</time>
      </trkpt>
      <trkpt lat="45.73553" lon="6.47751">
        <ele>1575</ele>
        <time>2022-07-23T14:39:42Z</time>
      </trkpt>
      <trkpt lat="45.73553" lon="6.4775">
        <ele>1575</ele>
        <time>2022-07-23T14:39:43Z</time>
      </trkpt>
      <trkpt lat="45.73553" lon="6.47749">
        <ele>1575</ele>
        <time>2022-07-23T14:39:44Z</time>
      </trkpt>
      <trkpt lat="45.73553" lon="6.47747">
        <ele>1575</ele>
        <time>2022-07-23T14:39:45Z</time>
      </trkpt>
      <trkpt lat="45.73553" lon="6.47747">
        <ele>1575</ele>
        <time>2022-07-23T14:39:46Z</time>
      </trkpt>
      <trkpt lat="45.73553" lon="6.47746">
        <ele>1575</ele>
        <time>2022-07-23T14:39:47Z</time>
      </trkpt>
      <trkpt lat="45.73554" lon="6.47745">
        <ele>1575</ele>
        <time>2022-07-23T14:39:48Z</time>
      </trkpt>
      <trkpt lat="45.73554" lon="6.47744">
        <ele>1575</ele>
        <time>2022-07-23T14:39:49Z</time>
      </trkpt>
      <trkpt lat="45.73554" lon="6.47743">
        <ele>1575</ele>
        <time>2022-07-23T14:39:50Z</time>
      </trkpt>
      <trkpt lat="45.73555" lon="6.47742">
        <ele>1575</ele>
        <time>2022-07-23T14:39:51Z</time>
      </trkpt>
      <trkpt lat="45.73555" lon="6.47742">
        <ele>1575</ele>
        <time>2022-07-23T14:39:52Z</time>
      </trkpt>
      <trkpt lat="45.73556" lon="6.47741">
        <ele>1575</ele>
        <time>2022-07-23T14:39:53Z</time>
      </trkpt>
      <trkpt lat="45.73557" lon="6.4774">
        <ele>1575</ele>
        <time>2022-07-23T14:39:54Z</time>
      </trkpt>
      <trkpt lat="45.73557" lon="6.4774">
        <ele>1575</ele>
        <time>2022-07-23T14:39:55Z</time>
      </trkpt>
      <trkpt lat="45.73558" lon="6.47739">
        <ele>1575</ele>
        <time>2022-07-23T14:39:56Z</time>
      </trkpt>
      <trkpt lat="45.73558" lon="6.47738">
        <ele>1575</ele>
        <time>2022-07-23T14:39:57Z</time>
      </trkpt>
      <trkpt lat="45.73559" lon="6.47737">
        <ele>1575</ele>
        <time>2022-07-23T14:39:58Z</time>
      </trkpt>
      <trkpt lat="45.7356" lon="6.47737">
        <ele>1575</ele>
        <time>2022-07-23T14:39:59Z</time>
      </trkpt>
      <trkpt lat="45.7356" lon="6.47736">
        <ele>1576</ele>
        <time>2022-07-23T14:40:00Z</time>
      </trkpt>
      <trkpt lat="45.73561" lon="6.47735">
        <ele>1576</ele>
        <time>2022-07-23T14:40:01Z</time>
      </trkpt>
      <trkpt lat="45.73562" lon="6.47734">
        <ele>1576</ele>
        <time>2022-07-23T14:40:02Z</time>
      </trkpt>
      <trkpt lat="45.73562" lon="6.47733">
        <ele>1576</ele>
        <time>2022-07-23T14:40:03Z</time>
      </trkpt>
      <trkpt lat="45.73563" lon="6.47732">
        <ele>1576</ele>
        <time>2022-07-23T14:40:04Z</time>
      </trkpt>
      <trkpt lat="45.73564" lon="6.47732">
        <ele>1576</ele>
        <time>2022-07-23T14:40:05Z</time>
      </trkpt>
      <trkpt lat="45.73565" lon="6.47731">
        <ele>1576</ele>
        <time>2022-07-23T14:40:06Z</time>
      </trkpt>
      <trkpt lat="45.73566" lon="6.4773">
        <ele>1576</ele>
        <time>2022-07-23T14:40:07Z</time>
      </trkpt>
      <trkpt lat="45.73567" lon="6.47729">
        <ele>1576</ele>
        <time>2022-07-23T14:40:08Z</time>
      </trkpt>
      <trkpt lat="45.73567" lon="6.47728">
        <ele>1576</ele>
        <time>2022-07-23T14:40:09Z</time>
      </trkpt>
      <trkpt lat="45.73568" lon="6.47727">
        <ele>1577</ele>
        <time>2022-07-23T14:40:10Z</time>
      </trkpt>
      <trkpt lat="45.73569" lon="6.47726">
        <ele>1577</ele>
        <time>2022-07-23T14:40:11Z</time>
      </trkpt>
      <trkpt lat="45.73569" lon="6.47725">
        <ele>1577</ele>
        <time>2022-07-23T14:40:12Z</time>
      </trkpt>
      <trkpt lat="45.7357" lon="6.47724">
        <ele>1577</ele>
        <time>2022-07-23T14:40:13Z</time>
      </trkpt>
      <trkpt lat="45.73571" lon="6.47723">
        <ele>1577</ele>
        <time>2022-07-23T14:40:14Z</time>
      </trkpt>
      <trkpt lat="45.73571" lon="6.47722">
        <ele>1577</ele>
        <time>2022-07-23T14:40:15Z</time>
      </trkpt>
      <trkpt lat="45.73572" lon="6.47721">
        <ele>1577</ele>
        <time>2022-07-23T14:40:16Z</time>
      </trkpt>
      <trkpt lat="45.73573" lon="6.47719">
        <ele>1577</ele>
        <time>2022-07-23T14:40:17Z</time>
      </trkpt>
      <trkpt lat="45.73574" lon="6.47719">
        <ele>1577</ele>
        <time>2022-07-23T14:40:18Z</time>
      </trkpt>
      <trkpt lat="45.73574" lon="6.47718">
        <ele>1577</ele>
        <time>2022-07-23T14:40:19Z</time>
      </trkpt>
      <trkpt lat="45.73575" lon="6.47717">
        <ele>1578</ele>
        <time>2022-07-23T14:40:20Z</time>
      </trkpt>
      <trkpt lat="45.73576" lon="6.47715">
        <ele>1578</ele>
        <time>2022-07-23T14:40:21Z</time>
      </trkpt>
      <trkpt lat="45.73577" lon="6.47714">
        <ele>1578</ele>
        <time>2022-07-23T14:40:22Z</time>
      </trkpt>
      <trkpt lat="45.73577" lon="6.47713">
        <ele>1578</ele>
        <time>2022-07-23T14:40:23Z</time>
      </trkpt>
      <trkpt lat="45.73578" lon="6.47712">
        <ele>1578</ele>
        <time>2022-07-23T14:40:24Z</time>
      </trkpt>
      <trkpt lat="45.73579" lon="6.47711">
        <ele>1578</ele>
        <time>2022-07-23T14:40:25Z</time>
      </trkpt>
      <trkpt lat="45.7358" lon="6.4771">
        <ele>1578</ele>
        <time>2022-07-23T14:40:26Z</time>
      </trkpt>
      <trkpt lat="45.73581" lon="6.47709">
        <ele>1578</ele>
        <time>2022-07-23T14:40:27Z</time>
      </trkpt>
      <trkpt lat="45.73582" lon="6.47707">
        <ele>1578</ele>
        <time>2022-07-23T14:40:28Z</time>
      </trkpt>
      <trkpt lat="45.73583" lon="6.47706">
        <ele>1578</ele>
        <time>2022-07-23T14:40:29Z</time>
      </trkpt>
      <trkpt lat="45.73584" lon="6.47705">
        <ele>1579</ele>
        <time>2022-07-23T14:40:30Z</time>
      </trkpt>
      <trkpt lat="45.73585" lon="6.47704">
        <ele>1579</ele>
        <time>2022-07-23T14:40:31Z</time>
      </trkpt>
      <trkpt lat="45.73586" lon="6.47703">
        <ele>1579</ele>
        <time>2022-07-23T14:40:32Z</time>
      </trkpt>
      <trkpt lat="45.73587" lon="6.47702">
        <ele>1579</ele>
        <time>2022-07-23T14:40:33Z</time>
      </trkpt>
      <trkpt lat="45.73588" lon="6.47701">
        <ele>1579</ele>
        <time>2022-07-23T14:40:34Z</time>
      </trkpt>
      <trkpt lat="45.73589" lon="6.477">
        <ele>1579</ele>
        <time>2022-07-23T14:40:35Z</time>
      </trkpt>
      <trkpt lat="45.7359" lon="6.477">
        <ele>1579</ele>
        <time>2022-07-23T14:40:36Z</time>
      </trkpt>
      <trkpt lat="45.73591" lon="6.47699">
        <ele>1579</ele>
        <time>2022-07-23T14:40:37Z</time>
      </trkpt>
      <trkpt lat="45.73592" lon="6.47699">
        <ele>1579</ele>
        <time>2022-07-23T14:40:38Z</time>
      </trkpt>
      <trkpt lat="45.73594" lon="6.47699">
        <ele>1579</ele>
        <time>2022-07-23T14:40:39Z</time>
      </trkpt>
      <trkpt lat="45.73595" lon="6.47698">
        <ele>1579</ele>
        <time>2022-07-23T14:40:40Z</time>
      </trkpt>
      <trkpt lat="45.73596" lon="6.47698">
        <ele>1579</ele>
        <time>2022-07-23T14:40:41Z</time>
      </trkpt>
      <trkpt lat="45.73597" lon="6.47697">
        <ele>1579</ele>
        <time>2022-07-23T14:40:42Z</time>
      </trkpt>
      <trkpt lat="45.73599" lon="6.47696">
        <ele>1579</ele>
        <time>2022-07-23T14:40:43Z</time>
      </trkpt>
      <trkpt lat="45.736" lon="6.47696">
        <ele>1579</ele>
        <time>2022-07-23T14:40:44Z</time>
      </trkpt>
      <trkpt lat="45.73601" lon="6.47695">
        <ele>1579</ele>
        <time>2022-07-23T14:40:45Z</time>
      </trkpt>
      <trkpt lat="45.73602" lon="6.47694">
        <ele>1579</ele>
        <time>2022-07-23T14:40:46Z</time>
      </trkpt>
      <trkpt lat="45.73604" lon="6.47694">
        <ele>1579</ele>
        <time>2022-07-23T14:40:47Z</time>
      </trkpt>
      <trkpt lat="45.73605" lon="6.47693">
        <ele>1579</ele>
        <time>2022-07-23T14:40:48Z</time>
      </trkpt>
      <trkpt lat="45.73606" lon="6.47692">
        <ele>1579</ele>
        <time>2022-07-23T14:40:49Z</time>
      </trkpt>
      <trkpt lat="45.73607" lon="6.47692">
        <ele>1580</ele>
        <time>2022-07-23T14:40:50Z</time>
      </trkpt>
      <trkpt lat="45.73609" lon="6.47691">
        <ele>1579</ele>
        <time>2022-07-23T14:40:51Z</time>
      </trkpt>
      <trkpt lat="45.7361" lon="6.47691">
        <ele>1579</ele>
        <time>2022-07-23T14:40:52Z</time>
      </trkpt>
      <trkpt lat="45.73611" lon="6.4769">
        <ele>1579</ele>
        <time>2022-07-23T14:40:53Z</time>
      </trkpt>
      <trkpt lat="45.73612" lon="6.47689">
        <ele>1579</ele>
        <time>2022-07-23T14:40:54Z</time>
      </trkpt>
      <trkpt lat="45.73613" lon="6.47688">
        <ele>1579</ele>
        <time>2022-07-23T14:40:55Z</time>
      </trkpt>
      <trkpt lat="45.73614" lon="6.47688">
        <ele>1579</ele>
        <time>2022-07-23T14:40:56Z</time>
      </trkpt>
      <trkpt lat="45.73615" lon="6.47687">
        <ele>1579</ele>
        <time>2022-07-23T14:40:57Z</time>
      </trkpt>
      <trkpt lat="45.73616" lon="6.47686">
        <ele>1579</ele>
        <time>2022-07-23T14:40:58Z</time>
      </trkpt>
      <trkpt lat="45.73617" lon="6.47686">
        <ele>1579</ele>
        <time>2022-07-23T14:40:59Z</time>
      </trkpt>
      <trkpt lat="45.73618" lon="6.47686">
        <ele>1580</ele>
        <time>2022-07-23T14:41:00Z</time>
      </trkpt>
      <trkpt lat="45.73619" lon="6.47686">
        <ele>1580</ele>
        <time>2022-07-23T14:41:01Z</time>
      </trkpt>
      <trkpt lat="45.73621" lon="6.47685">
        <ele>1580</ele>
        <time>2022-07-23T14:41:02Z</time>
      </trkpt>
      <trkpt lat="45.73622" lon="6.47685">
        <ele>1580</ele>
        <time>2022-07-23T14:41:03Z</time>
      </trkpt>
      <trkpt lat="45.73623" lon="6.47684">
        <ele>1580</ele>
        <time>2022-07-23T14:41:04Z</time>
      </trkpt>
      <trkpt lat="45.73624" lon="6.47684">
        <ele>1580</ele>
        <time>2022-07-23T14:41:05Z</time>
      </trkpt>
      <trkpt lat="45.73625" lon="6.47683">
        <ele>1580</ele>
        <time>2022-07-23T14:41:06Z</time>
      </trkpt>
      <trkpt lat="45.73626" lon="6.47682">
        <ele>1580</ele>
        <time>2022-07-23T14:41:07Z</time>
      </trkpt>
      <trkpt lat="45.73627" lon="6.47681">
        <ele>1580</ele>
        <time>2022-07-23T14:41:08Z</time>
      </trkpt>
      <trkpt lat="45.73628" lon="6.4768">
        <ele>1580</ele>
        <time>2022-07-23T14:41:09Z</time>
      </trkpt>
      <trkpt lat="45.73629" lon="6.4768">
        <ele>1580</ele>
        <time>2022-07-23T14:41:10Z</time>
      </trkpt>
      <trkpt lat="45.7363" lon="6.47679">
        <ele>1580</ele>
        <time>2022-07-23T14:41:11Z</time>
      </trkpt>
      <trkpt lat="45.73631" lon="6.47679">
        <ele>1580</ele>
        <time>2022-07-23T14:41:12Z</time>
      </trkpt>
      <trkpt lat="45.73632" lon="6.47679">
        <ele>1580</ele>
        <time>2022-07-23T14:41:13Z</time>
      </trkpt>
      <trkpt lat="45.73633" lon="6.47678">
        <ele>1580</ele>
        <time>2022-07-23T14:41:14Z</time>
      </trkpt>
      <trkpt lat="45.73634" lon="6.47678">
        <ele>1580</ele>
        <time>2022-07-23T14:41:15Z</time>
      </trkpt>
      <trkpt lat="45.73635" lon="6.47678">
        <ele>1580</ele>
        <time>2022-07-23T14:41:16Z</time>
      </trkpt>
      <trkpt lat="45.73637" lon="6.47678">
        <ele>1580</ele>
        <time>2022-07-23T14:41:17Z</time>
      </trkpt>
      <trkpt lat="45.73637" lon="6.47678">
        <ele>1580</ele>
        <time>2022-07-23T14:41:18Z</time>
      </trkpt>
      <trkpt lat="45.73637" lon="6.47677">
        <ele>1580</ele>
        <time>2022-07-23T14:41:19Z</time>
      </trkpt>
      <trkpt lat="45.73638" lon="6.47677">
        <ele>1581</ele>
        <time>2022-07-23T14:41:20Z</time>
      </trkpt>
      <trkpt lat="45.73638" lon="6.47676">
        <ele>1581</ele>
        <time>2022-07-23T14:41:21Z</time>
      </trkpt>
      <trkpt lat="45.73638" lon="6.47676">
        <ele>1581</ele>
        <time>2022-07-23T14:41:22Z</time>
      </trkpt>
      <trkpt lat="45.73639" lon="6.47675">
        <ele>1581</ele>
        <time>2022-07-23T14:41:23Z</time>
      </trkpt>
      <trkpt lat="45.73639" lon="6.47675">
        <ele>1581</ele>
        <time>2022-07-23T14:41:24Z</time>
      </trkpt>
      <trkpt lat="45.73639" lon="6.47675">
        <ele>1581</ele>
        <time>2022-07-23T14:41:25Z</time>
      </trkpt>
      <trkpt lat="45.73641" lon="6.47675">
        <ele>1582</ele>
        <time>2022-07-23T14:41:46Z</time>
      </trkpt>
      <trkpt lat="45.73642" lon="6.47675">
        <ele>1582</ele>
        <time>2022-07-23T14:41:47Z</time>
      </trkpt>
      <trkpt lat="45.73643" lon="6.47675">
        <ele>1582</ele>
        <time>2022-07-23T14:41:48Z</time>
      </trkpt>
      <trkpt lat="45.73644" lon="6.47675">
        <ele>1582</ele>
        <time>2022-07-23T14:41:49Z</time>
      </trkpt>
      <trkpt lat="45.73644" lon="6.47675">
        <ele>1582</ele>
        <time>2022-07-23T14:41:50Z</time>
      </trkpt>
      <trkpt lat="45.73645" lon="6.47674">
        <ele>1582</ele>
        <time>2022-07-23T14:41:51Z</time>
      </trkpt>
      <trkpt lat="45.73646" lon="6.47674">
        <ele>1582</ele>
        <time>2022-07-23T14:41:52Z</time>
      </trkpt>
      <trkpt lat="45.73647" lon="6.47673">
        <ele>1582</ele>
        <time>2022-07-23T14:41:53Z</time>
      </trkpt>
      <trkpt lat="45.73648" lon="6.47673">
        <ele>1582</ele>
        <time>2022-07-23T14:41:54Z</time>
      </trkpt>
      <trkpt lat="45.73648" lon="6.47673">
        <ele>1582</ele>
        <time>2022-07-23T14:41:55Z</time>
      </trkpt>
      <trkpt lat="45.73649" lon="6.47673">
        <ele>1582</ele>
        <time>2022-07-23T14:41:56Z</time>
      </trkpt>
      <trkpt lat="45.7365" lon="6.47674">
        <ele>1582</ele>
        <time>2022-07-23T14:41:57Z</time>
      </trkpt>
      <trkpt lat="45.73651" lon="6.47675">
        <ele>1582</ele>
        <time>2022-07-23T14:41:58Z</time>
      </trkpt>
      <trkpt lat="45.73652" lon="6.47676">
        <ele>1582</ele>
        <time>2022-07-23T14:41:59Z</time>
      </trkpt>
      <trkpt lat="45.73653" lon="6.47677">
        <ele>1582</ele>
        <time>2022-07-23T14:42:00Z</time>
      </trkpt>
      <trkpt lat="45.73654" lon="6.47678">
        <ele>1582</ele>
        <time>2022-07-23T14:42:01Z</time>
      </trkpt>
      <trkpt lat="45.73655" lon="6.47679">
        <ele>1582</ele>
        <time>2022-07-23T14:42:02Z</time>
      </trkpt>
      <trkpt lat="45.73655" lon="6.47681">
        <ele>1582</ele>
        <time>2022-07-23T14:42:03Z</time>
      </trkpt>
      <trkpt lat="45.73656" lon="6.47682">
        <ele>1582</ele>
        <time>2022-07-23T14:42:04Z</time>
      </trkpt>
      <trkpt lat="45.73657" lon="6.47683">
        <ele>1582</ele>
        <time>2022-07-23T14:42:05Z</time>
      </trkpt>
      <trkpt lat="45.73658" lon="6.47685">
        <ele>1582</ele>
        <time>2022-07-23T14:42:06Z</time>
      </trkpt>
      <trkpt lat="45.73659" lon="6.47686">
        <ele>1582</ele>
        <time>2022-07-23T14:42:07Z</time>
      </trkpt>
      <trkpt lat="45.7366" lon="6.47687">
        <ele>1582</ele>
        <time>2022-07-23T14:42:08Z</time>
      </trkpt>
      <trkpt lat="45.73661" lon="6.47688">
        <ele>1582</ele>
        <time>2022-07-23T14:42:09Z</time>
      </trkpt>
      <trkpt lat="45.73662" lon="6.47689">
        <ele>1582</ele>
        <time>2022-07-23T14:42:10Z</time>
      </trkpt>
      <trkpt lat="45.73663" lon="6.4769">
        <ele>1582</ele>
        <time>2022-07-23T14:42:11Z</time>
      </trkpt>
      <trkpt lat="45.73663" lon="6.47691">
        <ele>1582</ele>
        <time>2022-07-23T14:42:12Z</time>
      </trkpt>
      <trkpt lat="45.73664" lon="6.47692">
        <ele>1582</ele>
        <time>2022-07-23T14:42:13Z</time>
      </trkpt>
      <trkpt lat="45.73665" lon="6.47693">
        <ele>1582</ele>
        <time>2022-07-23T14:42:14Z</time>
      </trkpt>
      <trkpt lat="45.73666" lon="6.47694">
        <ele>1582</ele>
        <time>2022-07-23T14:42:15Z</time>
      </trkpt>
      <trkpt lat="45.73666" lon="6.47695">
        <ele>1582</ele>
        <time>2022-07-23T14:42:16Z</time>
      </trkpt>
      <trkpt lat="45.73667" lon="6.47696">
        <ele>1582</ele>
        <time>2022-07-23T14:42:17Z</time>
      </trkpt>
      <trkpt lat="45.73668" lon="6.47697">
        <ele>1582</ele>
        <time>2022-07-23T14:42:18Z</time>
      </trkpt>
      <trkpt lat="45.73668" lon="6.47698">
        <ele>1582</ele>
        <time>2022-07-23T14:42:19Z</time>
      </trkpt>
      <trkpt lat="45.73669" lon="6.477">
        <ele>1582</ele>
        <time>2022-07-23T14:42:20Z</time>
      </trkpt>
      <trkpt lat="45.7367" lon="6.47701">
        <ele>1582</ele>
        <time>2022-07-23T14:42:21Z</time>
      </trkpt>
      <trkpt lat="45.7367" lon="6.47702">
        <ele>1582</ele>
        <time>2022-07-23T14:42:22Z</time>
      </trkpt>
      <trkpt lat="45.73671" lon="6.47703">
        <ele>1582</ele>
        <time>2022-07-23T14:42:23Z</time>
      </trkpt>
      <trkpt lat="45.73672" lon="6.47704">
        <ele>1582</ele>
        <time>2022-07-23T14:42:24Z</time>
      </trkpt>
      <trkpt lat="45.73673" lon="6.47705">
        <ele>1582</ele>
        <time>2022-07-23T14:42:25Z</time>
      </trkpt>
      <trkpt lat="45.73673" lon="6.47706">
        <ele>1582</ele>
        <time>2022-07-23T14:42:26Z</time>
      </trkpt>
      <trkpt lat="45.73674" lon="6.47707">
        <ele>1582</ele>
        <time>2022-07-23T14:42:27Z</time>
      </trkpt>
      <trkpt lat="45.73675" lon="6.47708">
        <ele>1582</ele>
        <time>2022-07-23T14:42:28Z</time>
      </trkpt>
      <trkpt lat="45.73676" lon="6.47709">
        <ele>1582</ele>
        <time>2022-07-23T14:42:29Z</time>
      </trkpt>
      <trkpt lat="45.73677" lon="6.47709">
        <ele>1582</ele>
        <time>2022-07-23T14:42:30Z</time>
      </trkpt>
      <trkpt lat="45.73678" lon="6.4771">
        <ele>1582</ele>
        <time>2022-07-23T14:42:31Z</time>
      </trkpt>
      <trkpt lat="45.73679" lon="6.47711">
        <ele>1582</ele>
        <time>2022-07-23T14:42:32Z</time>
      </trkpt>
      <trkpt lat="45.7368" lon="6.47712">
        <ele>1583</ele>
        <time>2022-07-23T14:42:33Z</time>
      </trkpt>
      <trkpt lat="45.7368" lon="6.47713">
        <ele>1583</ele>
        <time>2022-07-23T14:42:34Z</time>
      </trkpt>
      <trkpt lat="45.73681" lon="6.47714">
        <ele>1584</ele>
        <time>2022-07-23T14:42:35Z</time>
      </trkpt>
      <trkpt lat="45.73682" lon="6.47715">
        <ele>1584</ele>
        <time>2022-07-23T14:42:36Z</time>
      </trkpt>
      <trkpt lat="45.73683" lon="6.47716">
        <ele>1584</ele>
        <time>2022-07-23T14:42:37Z</time>
      </trkpt>
      <trkpt lat="45.73684" lon="6.47717">
        <ele>1584</ele>
        <time>2022-07-23T14:42:38Z</time>
      </trkpt>
      <trkpt lat="45.73685" lon="6.47718">
        <ele>1584</ele>
        <time>2022-07-23T14:42:39Z</time>
      </trkpt>
      <trkpt lat="45.73685" lon="6.4772">
        <ele>1584</ele>
        <time>2022-07-23T14:42:40Z</time>
      </trkpt>
      <trkpt lat="45.73686" lon="6.47721">
        <ele>1583</ele>
        <time>2022-07-23T14:42:41Z</time>
      </trkpt>
      <trkpt lat="45.73687" lon="6.47722">
        <ele>1583</ele>
        <time>2022-07-23T14:42:42Z</time>
      </trkpt>
      <trkpt lat="45.73688" lon="6.47723">
        <ele>1582</ele>
        <time>2022-07-23T14:42:43Z</time>
      </trkpt>
      <trkpt lat="45.73688" lon="6.47725">
        <ele>1582</ele>
        <time>2022-07-23T14:42:44Z</time>
      </trkpt>
      <trkpt lat="45.73689" lon="6.47726">
        <ele>1582</ele>
        <time>2022-07-23T14:42:45Z</time>
      </trkpt>
      <trkpt lat="45.7369" lon="6.47727">
        <ele>1582</ele>
        <time>2022-07-23T14:42:46Z</time>
      </trkpt>
      <trkpt lat="45.73691" lon="6.47729">
        <ele>1582</ele>
        <time>2022-07-23T14:42:47Z</time>
      </trkpt>
      <trkpt lat="45.73691" lon="6.4773">
        <ele>1582</ele>
        <time>2022-07-23T14:42:48Z</time>
      </trkpt>
      <trkpt lat="45.73692" lon="6.47731">
        <ele>1582</ele>
        <time>2022-07-23T14:42:49Z</time>
      </trkpt>
      <trkpt lat="45.73693" lon="6.47732">
        <ele>1582</ele>
        <time>2022-07-23T14:42:50Z</time>
      </trkpt>
      <trkpt lat="45.73694" lon="6.47733">
        <ele>1581</ele>
        <time>2022-07-23T14:42:51Z</time>
      </trkpt>
      <trkpt lat="45.73695" lon="6.47735">
        <ele>1581</ele>
        <time>2022-07-23T14:42:52Z</time>
      </trkpt>
      <trkpt lat="45.73695" lon="6.47736">
        <ele>1581</ele>
        <time>2022-07-23T14:42:53Z</time>
      </trkpt>
      <trkpt lat="45.73696" lon="6.47737">
        <ele>1581</ele>
        <time>2022-07-23T14:42:54Z</time>
      </trkpt>
      <trkpt lat="45.73697" lon="6.47738">
        <ele>1581</ele>
        <time>2022-07-23T14:42:55Z</time>
      </trkpt>
      <trkpt lat="45.73698" lon="6.47739">
        <ele>1581</ele>
        <time>2022-07-23T14:42:56Z</time>
      </trkpt>
      <trkpt lat="45.73698" lon="6.4774">
        <ele>1581</ele>
        <time>2022-07-23T14:42:57Z</time>
      </trkpt>
      <trkpt lat="45.73699" lon="6.47741">
        <ele>1581</ele>
        <time>2022-07-23T14:42:58Z</time>
      </trkpt>
      <trkpt lat="45.737" lon="6.47742">
        <ele>1581</ele>
        <time>2022-07-23T14:42:59Z</time>
      </trkpt>
      <trkpt lat="45.737" lon="6.47743">
        <ele>1581</ele>
        <time>2022-07-23T14:43:00Z</time>
      </trkpt>
      <trkpt lat="45.73701" lon="6.47744">
        <ele>1580</ele>
        <time>2022-07-23T14:43:01Z</time>
      </trkpt>
      <trkpt lat="45.73702" lon="6.47745">
        <ele>1580</ele>
        <time>2022-07-23T14:43:02Z</time>
      </trkpt>
      <trkpt lat="45.73702" lon="6.47747">
        <ele>1580</ele>
        <time>2022-07-23T14:43:03Z</time>
      </trkpt>
      <trkpt lat="45.73703" lon="6.47748">
        <ele>1580</ele>
        <time>2022-07-23T14:43:04Z</time>
      </trkpt>
      <trkpt lat="45.73703" lon="6.47749">
        <ele>1580</ele>
        <time>2022-07-23T14:43:05Z</time>
      </trkpt>
      <trkpt lat="45.73704" lon="6.4775">
        <ele>1579</ele>
        <time>2022-07-23T14:43:06Z</time>
      </trkpt>
      <trkpt lat="45.73704" lon="6.47752">
        <ele>1579</ele>
        <time>2022-07-23T14:43:07Z</time>
      </trkpt>
      <trkpt lat="45.73704" lon="6.47754">
        <ele>1579</ele>
        <time>2022-07-23T14:43:08Z</time>
      </trkpt>
      <trkpt lat="45.73705" lon="6.47755">
        <ele>1579</ele>
        <time>2022-07-23T14:43:09Z</time>
      </trkpt>
      <trkpt lat="45.73705" lon="6.47756">
        <ele>1579</ele>
        <time>2022-07-23T14:43:10Z</time>
      </trkpt>
      <trkpt lat="45.73705" lon="6.47758">
        <ele>1579</ele>
        <time>2022-07-23T14:43:11Z</time>
      </trkpt>
      <trkpt lat="45.73706" lon="6.47759">
        <ele>1579</ele>
        <time>2022-07-23T14:43:12Z</time>
      </trkpt>
      <trkpt lat="45.73706" lon="6.4776">
        <ele>1579</ele>
        <time>2022-07-23T14:43:13Z</time>
      </trkpt>
      <trkpt lat="45.73707" lon="6.47761">
        <ele>1579</ele>
        <time>2022-07-23T14:43:14Z</time>
      </trkpt>
      <trkpt lat="45.73708" lon="6.47761">
        <ele>1579</ele>
        <time>2022-07-23T14:43:15Z</time>
      </trkpt>
      <trkpt lat="45.73708" lon="6.47762">
        <ele>1578</ele>
        <time>2022-07-23T14:43:16Z</time>
      </trkpt>
      <trkpt lat="45.73709" lon="6.47763">
        <ele>1578</ele>
        <time>2022-07-23T14:43:17Z</time>
      </trkpt>
      <trkpt lat="45.7371" lon="6.47764">
        <ele>1578</ele>
        <time>2022-07-23T14:43:18Z</time>
      </trkpt>
      <trkpt lat="45.7371" lon="6.47764">
        <ele>1578</ele>
        <time>2022-07-23T14:43:19Z</time>
      </trkpt>
      <trkpt lat="45.73711" lon="6.47765">
        <ele>1578</ele>
        <time>2022-07-23T14:43:20Z</time>
      </trkpt>
      <trkpt lat="45.73712" lon="6.47766">
        <ele>1577</ele>
        <time>2022-07-23T14:43:21Z</time>
      </trkpt>
      <trkpt lat="45.73713" lon="6.47766">
        <ele>1577</ele>
        <time>2022-07-23T14:43:22Z</time>
      </trkpt>
      <trkpt lat="45.73713" lon="6.47767">
        <ele>1577</ele>
        <time>2022-07-23T14:43:23Z</time>
      </trkpt>
      <trkpt lat="45.73714" lon="6.47768">
        <ele>1577</ele>
        <time>2022-07-23T14:43:24Z</time>
      </trkpt>
      <trkpt lat="45.73715" lon="6.47769">
        <ele>1577</ele>
        <time>2022-07-23T14:43:25Z</time>
      </trkpt>
      <trkpt lat="45.73716" lon="6.47769">
        <ele>1576</ele>
        <time>2022-07-23T14:43:26Z</time>
      </trkpt>
      <trkpt lat="45.73717" lon="6.4777">
        <ele>1576</ele>
        <time>2022-07-23T14:43:27Z</time>
      </trkpt>
      <trkpt lat="45.73718" lon="6.4777">
        <ele>1576</ele>
        <time>2022-07-23T14:43:28Z</time>
      </trkpt>
      <trkpt lat="45.73719" lon="6.47771">
        <ele>1576</ele>
        <time>2022-07-23T14:43:29Z</time>
      </trkpt>
      <trkpt lat="45.7372" lon="6.47771">
        <ele>1576</ele>
        <time>2022-07-23T14:43:30Z</time>
      </trkpt>
      <trkpt lat="45.73721" lon="6.47772">
        <ele>1575</ele>
        <time>2022-07-23T14:43:31Z</time>
      </trkpt>
      <trkpt lat="45.73721" lon="6.47773">
        <ele>1575</ele>
        <time>2022-07-23T14:43:32Z</time>
      </trkpt>
      <trkpt lat="45.73722" lon="6.47774">
        <ele>1575</ele>
        <time>2022-07-23T14:43:33Z</time>
      </trkpt>
      <trkpt lat="45.73723" lon="6.47775">
        <ele>1575</ele>
        <time>2022-07-23T14:43:34Z</time>
      </trkpt>
      <trkpt lat="45.73724" lon="6.47775">
        <ele>1575</ele>
        <time>2022-07-23T14:43:35Z</time>
      </trkpt>
      <trkpt lat="45.73724" lon="6.47776">
        <ele>1574</ele>
        <time>2022-07-23T14:43:36Z</time>
      </trkpt>
      <trkpt lat="45.73725" lon="6.47777">
        <ele>1574</ele>
        <time>2022-07-23T14:43:37Z</time>
      </trkpt>
      <trkpt lat="45.73726" lon="6.47778">
        <ele>1574</ele>
        <time>2022-07-23T14:43:38Z</time>
      </trkpt>
      <trkpt lat="45.73726" lon="6.47779">
        <ele>1574</ele>
        <time>2022-07-23T14:43:39Z</time>
      </trkpt>
      <trkpt lat="45.73727" lon="6.4778">
        <ele>1574</ele>
        <time>2022-07-23T14:43:40Z</time>
      </trkpt>
      <trkpt lat="45.73728" lon="6.47781">
        <ele>1573</ele>
        <time>2022-07-23T14:43:41Z</time>
      </trkpt>
      <trkpt lat="45.73729" lon="6.47781">
        <ele>1573</ele>
        <time>2022-07-23T14:43:42Z</time>
      </trkpt>
      <trkpt lat="45.73729" lon="6.47782">
        <ele>1573</ele>
        <time>2022-07-23T14:43:43Z</time>
      </trkpt>
      <trkpt lat="45.7373" lon="6.47783">
        <ele>1573</ele>
        <time>2022-07-23T14:43:44Z</time>
      </trkpt>
      <trkpt lat="45.73731" lon="6.47783">
        <ele>1573</ele>
        <time>2022-07-23T14:43:45Z</time>
      </trkpt>
      <trkpt lat="45.73732" lon="6.47784">
        <ele>1572</ele>
        <time>2022-07-23T14:43:46Z</time>
      </trkpt>
      <trkpt lat="45.73733" lon="6.47785">
        <ele>1572</ele>
        <time>2022-07-23T14:43:47Z</time>
      </trkpt>
      <trkpt lat="45.73734" lon="6.47785">
        <ele>1572</ele>
        <time>2022-07-23T14:43:48Z</time>
      </trkpt>
      <trkpt lat="45.73735" lon="6.47786">
        <ele>1572</ele>
        <time>2022-07-23T14:43:49Z</time>
      </trkpt>
      <trkpt lat="45.73736" lon="6.47787">
        <ele>1572</ele>
        <time>2022-07-23T14:43:50Z</time>
      </trkpt>
      <trkpt lat="45.73737" lon="6.47788">
        <ele>1571</ele>
        <time>2022-07-23T14:43:51Z</time>
      </trkpt>
      <trkpt lat="45.73737" lon="6.47789">
        <ele>1571</ele>
        <time>2022-07-23T14:43:52Z</time>
      </trkpt>
      <trkpt lat="45.73738" lon="6.4779">
        <ele>1571</ele>
        <time>2022-07-23T14:43:53Z</time>
      </trkpt>
      <trkpt lat="45.73739" lon="6.4779">
        <ele>1571</ele>
        <time>2022-07-23T14:43:54Z</time>
      </trkpt>
      <trkpt lat="45.7374" lon="6.47791">
        <ele>1571</ele>
        <time>2022-07-23T14:43:55Z</time>
      </trkpt>
      <trkpt lat="45.73741" lon="6.47792">
        <ele>1571</ele>
        <time>2022-07-23T14:43:56Z</time>
      </trkpt>
      <trkpt lat="45.73742" lon="6.47793">
        <ele>1571</ele>
        <time>2022-07-23T14:43:57Z</time>
      </trkpt>
      <trkpt lat="45.73743" lon="6.47794">
        <ele>1571</ele>
        <time>2022-07-23T14:43:58Z</time>
      </trkpt>
      <trkpt lat="45.73743" lon="6.47795">
        <ele>1571</ele>
        <time>2022-07-23T14:43:59Z</time>
      </trkpt>
      <trkpt lat="45.73744" lon="6.47796">
        <ele>1571</ele>
        <time>2022-07-23T14:44:00Z</time>
      </trkpt>
      <trkpt lat="45.73745" lon="6.47797">
        <ele>1570</ele>
        <time>2022-07-23T14:44:01Z</time>
      </trkpt>
      <trkpt lat="45.73746" lon="6.47798">
        <ele>1570</ele>
        <time>2022-07-23T14:44:02Z</time>
      </trkpt>
      <trkpt lat="45.73746" lon="6.47799">
        <ele>1570</ele>
        <time>2022-07-23T14:44:03Z</time>
      </trkpt>
      <trkpt lat="45.73747" lon="6.478">
        <ele>1570</ele>
        <time>2022-07-23T14:44:04Z</time>
      </trkpt>
      <trkpt lat="45.73748" lon="6.47801">
        <ele>1570</ele>
        <time>2022-07-23T14:44:05Z</time>
      </trkpt>
      <trkpt lat="45.73749" lon="6.47803">
        <ele>1569</ele>
        <time>2022-07-23T14:44:06Z</time>
      </trkpt>
      <trkpt lat="45.73749" lon="6.47804">
        <ele>1569</ele>
        <time>2022-07-23T14:44:07Z</time>
      </trkpt>
      <trkpt lat="45.7375" lon="6.47806">
        <ele>1569</ele>
        <time>2022-07-23T14:44:08Z</time>
      </trkpt>
      <trkpt lat="45.7375" lon="6.47807">
        <ele>1569</ele>
        <time>2022-07-23T14:44:09Z</time>
      </trkpt>
      <trkpt lat="45.73751" lon="6.47809">
        <ele>1569</ele>
        <time>2022-07-23T14:44:10Z</time>
      </trkpt>
      <trkpt lat="45.73751" lon="6.4781">
        <ele>1568</ele>
        <time>2022-07-23T14:44:11Z</time>
      </trkpt>
      <trkpt lat="45.73752" lon="6.47811">
        <ele>1568</ele>
        <time>2022-07-23T14:44:12Z</time>
      </trkpt>
      <trkpt lat="45.73753" lon="6.47813">
        <ele>1568</ele>
        <time>2022-07-23T14:44:13Z</time>
      </trkpt>
      <trkpt lat="45.73753" lon="6.47814">
        <ele>1568</ele>
        <time>2022-07-23T14:44:14Z</time>
      </trkpt>
      <trkpt lat="45.73754" lon="6.47815">
        <ele>1568</ele>
        <time>2022-07-23T14:44:15Z</time>
      </trkpt>
      <trkpt lat="45.73755" lon="6.47817">
        <ele>1567</ele>
        <time>2022-07-23T14:44:16Z</time>
      </trkpt>
      <trkpt lat="45.73756" lon="6.47818">
        <ele>1567</ele>
        <time>2022-07-23T14:44:17Z</time>
      </trkpt>
      <trkpt lat="45.73756" lon="6.4782">
        <ele>1567</ele>
        <time>2022-07-23T14:44:18Z</time>
      </trkpt>
      <trkpt lat="45.73757" lon="6.47821">
        <ele>1567</ele>
        <time>2022-07-23T14:44:19Z</time>
      </trkpt>
      <trkpt lat="45.73758" lon="6.47822">
        <ele>1567</ele>
        <time>2022-07-23T14:44:20Z</time>
      </trkpt>
      <trkpt lat="45.73759" lon="6.47824">
        <ele>1566</ele>
        <time>2022-07-23T14:44:21Z</time>
      </trkpt>
      <trkpt lat="45.73759" lon="6.47825">
        <ele>1566</ele>
        <time>2022-07-23T14:44:22Z</time>
      </trkpt>
      <trkpt lat="45.7376" lon="6.47827">
        <ele>1566</ele>
        <time>2022-07-23T14:44:23Z</time>
      </trkpt>
      <trkpt lat="45.73761" lon="6.47828">
        <ele>1566</ele>
        <time>2022-07-23T14:44:24Z</time>
      </trkpt>
      <trkpt lat="45.73761" lon="6.47829">
        <ele>1566</ele>
        <time>2022-07-23T14:44:25Z</time>
      </trkpt>
      <trkpt lat="45.73762" lon="6.4783">
        <ele>1565</ele>
        <time>2022-07-23T14:44:26Z</time>
      </trkpt>
      <trkpt lat="45.73763" lon="6.47831">
        <ele>1564</ele>
        <time>2022-07-23T14:44:27Z</time>
      </trkpt>
      <trkpt lat="45.73764" lon="6.47833">
        <ele>1564</ele>
        <time>2022-07-23T14:44:28Z</time>
      </trkpt>
      <trkpt lat="45.73765" lon="6.47834">
        <ele>1563</ele>
        <time>2022-07-23T14:44:29Z</time>
      </trkpt>
      <trkpt lat="45.73765" lon="6.47835">
        <ele>1563</ele>
        <time>2022-07-23T14:44:30Z</time>
      </trkpt>
      <trkpt lat="45.73766" lon="6.47837">
        <ele>1562</ele>
        <time>2022-07-23T14:44:31Z</time>
      </trkpt>
      <trkpt lat="45.73766" lon="6.47838">
        <ele>1562</ele>
        <time>2022-07-23T14:44:32Z</time>
      </trkpt>
      <trkpt lat="45.73767" lon="6.47839">
        <ele>1562</ele>
        <time>2022-07-23T14:44:33Z</time>
      </trkpt>
      <trkpt lat="45.73767" lon="6.47841">
        <ele>1562</ele>
        <time>2022-07-23T14:44:34Z</time>
      </trkpt>
      <trkpt lat="45.73767" lon="6.47842">
        <ele>1562</ele>
        <time>2022-07-23T14:44:35Z</time>
      </trkpt>
      <trkpt lat="45.73768" lon="6.47843">
        <ele>1561</ele>
        <time>2022-07-23T14:44:36Z</time>
      </trkpt>
      <trkpt lat="45.73768" lon="6.47844">
        <ele>1561</ele>
        <time>2022-07-23T14:44:37Z</time>
      </trkpt>
      <trkpt lat="45.73769" lon="6.47845">
        <ele>1561</ele>
        <time>2022-07-23T14:44:38Z</time>
      </trkpt>
      <trkpt lat="45.73769" lon="6.47846">
        <ele>1561</ele>
        <time>2022-07-23T14:44:39Z</time>
      </trkpt>
      <trkpt lat="45.7377" lon="6.47847">
        <ele>1561</ele>
        <time>2022-07-23T14:44:40Z</time>
      </trkpt>
      <trkpt lat="45.73771" lon="6.47848">
        <ele>1561</ele>
        <time>2022-07-23T14:44:41Z</time>
      </trkpt>
      <trkpt lat="45.73771" lon="6.47849">
        <ele>1561</ele>
        <time>2022-07-23T14:44:42Z</time>
      </trkpt>
      <trkpt lat="45.73772" lon="6.4785">
        <ele>1561</ele>
        <time>2022-07-23T14:44:43Z</time>
      </trkpt>
      <trkpt lat="45.73773" lon="6.47851">
        <ele>1561</ele>
        <time>2022-07-23T14:44:44Z</time>
      </trkpt>
      <trkpt lat="45.73774" lon="6.47852">
        <ele>1561</ele>
        <time>2022-07-23T14:44:45Z</time>
      </trkpt>
      <trkpt lat="45.73775" lon="6.47853">
        <ele>1560</ele>
        <time>2022-07-23T14:44:46Z</time>
      </trkpt>
      <trkpt lat="45.73776" lon="6.47854">
        <ele>1560</ele>
        <time>2022-07-23T14:44:47Z</time>
      </trkpt>
      <trkpt lat="45.73777" lon="6.47855">
        <ele>1560</ele>
        <time>2022-07-23T14:44:48Z</time>
      </trkpt>
      <trkpt lat="45.73778" lon="6.47856">
        <ele>1560</ele>
        <time>2022-07-23T14:44:49Z</time>
      </trkpt>
      <trkpt lat="45.73779" lon="6.47857">
        <ele>1560</ele>
        <time>2022-07-23T14:44:50Z</time>
      </trkpt>
      <trkpt lat="45.7378" lon="6.47858">
        <ele>1559</ele>
        <time>2022-07-23T14:44:51Z</time>
      </trkpt>
      <trkpt lat="45.73781" lon="6.47859">
        <ele>1559</ele>
        <time>2022-07-23T14:44:52Z</time>
      </trkpt>
      <trkpt lat="45.73782" lon="6.4786">
        <ele>1559</ele>
        <time>2022-07-23T14:44:53Z</time>
      </trkpt>
      <trkpt lat="45.73783" lon="6.47861">
        <ele>1559</ele>
        <time>2022-07-23T14:44:54Z</time>
      </trkpt>
      <trkpt lat="45.73784" lon="6.47862">
        <ele>1559</ele>
        <time>2022-07-23T14:44:55Z</time>
      </trkpt>
      <trkpt lat="45.73785" lon="6.47864">
        <ele>1558</ele>
        <time>2022-07-23T14:44:56Z</time>
      </trkpt>
      <trkpt lat="45.73786" lon="6.47865">
        <ele>1558</ele>
        <time>2022-07-23T14:44:57Z</time>
      </trkpt>
      <trkpt lat="45.73787" lon="6.47866">
        <ele>1558</ele>
        <time>2022-07-23T14:44:58Z</time>
      </trkpt>
      <trkpt lat="45.73788" lon="6.47868">
        <ele>1558</ele>
        <time>2022-07-23T14:44:59Z</time>
      </trkpt>
      <trkpt lat="45.73788" lon="6.47869">
        <ele>1558</ele>
        <time>2022-07-23T14:45:00Z</time>
      </trkpt>
      <trkpt lat="45.73789" lon="6.47871">
        <ele>1557</ele>
        <time>2022-07-23T14:45:01Z</time>
      </trkpt>
      <trkpt lat="45.73789" lon="6.47872">
        <ele>1557</ele>
        <time>2022-07-23T14:45:02Z</time>
      </trkpt>
      <trkpt lat="45.7379" lon="6.47873">
        <ele>1557</ele>
        <time>2022-07-23T14:45:03Z</time>
      </trkpt>
      <trkpt lat="45.7379" lon="6.47875">
        <ele>1557</ele>
        <time>2022-07-23T14:45:04Z</time>
      </trkpt>
      <trkpt lat="45.7379" lon="6.47876">
        <ele>1557</ele>
        <time>2022-07-23T14:45:05Z</time>
      </trkpt>
      <trkpt lat="45.73791" lon="6.47877">
        <ele>1556</ele>
        <time>2022-07-23T14:45:06Z</time>
      </trkpt>
      <trkpt lat="45.73791" lon="6.47878">
        <ele>1556</ele>
        <time>2022-07-23T14:45:07Z</time>
      </trkpt>
      <trkpt lat="45.73792" lon="6.47879">
        <ele>1556</ele>
        <time>2022-07-23T14:45:08Z</time>
      </trkpt>
      <trkpt lat="45.73792" lon="6.4788">
        <ele>1556</ele>
        <time>2022-07-23T14:45:09Z</time>
      </trkpt>
      <trkpt lat="45.73793" lon="6.47881">
        <ele>1556</ele>
        <time>2022-07-23T14:45:10Z</time>
      </trkpt>
      <trkpt lat="45.73794" lon="6.47882">
        <ele>1555</ele>
        <time>2022-07-23T14:45:11Z</time>
      </trkpt>
      <trkpt lat="45.73794" lon="6.47883">
        <ele>1555</ele>
        <time>2022-07-23T14:45:12Z</time>
      </trkpt>
      <trkpt lat="45.73795" lon="6.47885">
        <ele>1555</ele>
        <time>2022-07-23T14:45:13Z</time>
      </trkpt>
      <trkpt lat="45.73796" lon="6.47886">
        <ele>1555</ele>
        <time>2022-07-23T14:45:14Z</time>
      </trkpt>
      <trkpt lat="45.73797" lon="6.47887">
        <ele>1555</ele>
        <time>2022-07-23T14:45:15Z</time>
      </trkpt>
      <trkpt lat="45.73798" lon="6.47888">
        <ele>1555</ele>
        <time>2022-07-23T14:45:16Z</time>
      </trkpt>
      <trkpt lat="45.73799" lon="6.47889">
        <ele>1555</ele>
        <time>2022-07-23T14:45:17Z</time>
      </trkpt>
      <trkpt lat="45.738" lon="6.4789">
        <ele>1555</ele>
        <time>2022-07-23T14:45:18Z</time>
      </trkpt>
      <trkpt lat="45.73801" lon="6.47891">
        <ele>1555</ele>
        <time>2022-07-23T14:45:19Z</time>
      </trkpt>
      <trkpt lat="45.73802" lon="6.47892">
        <ele>1555</ele>
        <time>2022-07-23T14:45:20Z</time>
      </trkpt>
      <trkpt lat="45.73802" lon="6.47892">
        <ele>1554</ele>
        <time>2022-07-23T14:45:21Z</time>
      </trkpt>
      <trkpt lat="45.73803" lon="6.47893">
        <ele>1554</ele>
        <time>2022-07-23T14:45:22Z</time>
      </trkpt>
      <trkpt lat="45.73804" lon="6.47894">
        <ele>1554</ele>
        <time>2022-07-23T14:45:23Z</time>
      </trkpt>
      <trkpt lat="45.73805" lon="6.47895">
        <ele>1554</ele>
        <time>2022-07-23T14:45:24Z</time>
      </trkpt>
      <trkpt lat="45.73806" lon="6.47895">
        <ele>1554</ele>
        <time>2022-07-23T14:45:25Z</time>
      </trkpt>
      <trkpt lat="45.73807" lon="6.47896">
        <ele>1553</ele>
        <time>2022-07-23T14:45:26Z</time>
      </trkpt>
      <trkpt lat="45.73808" lon="6.47896">
        <ele>1553</ele>
        <time>2022-07-23T14:45:27Z</time>
      </trkpt>
      <trkpt lat="45.73809" lon="6.47897">
        <ele>1553</ele>
        <time>2022-07-23T14:45:28Z</time>
      </trkpt>
      <trkpt lat="45.73809" lon="6.47897">
        <ele>1553</ele>
        <time>2022-07-23T14:45:29Z</time>
      </trkpt>
      <trkpt lat="45.7381" lon="6.47898">
        <ele>1553</ele>
        <time>2022-07-23T14:45:30Z</time>
      </trkpt>
      <trkpt lat="45.73811" lon="6.47898">
        <ele>1552</ele>
        <time>2022-07-23T14:45:31Z</time>
      </trkpt>
      <trkpt lat="45.73812" lon="6.47898">
        <ele>1552</ele>
        <time>2022-07-23T14:45:32Z</time>
      </trkpt>
      <trkpt lat="45.73813" lon="6.47898">
        <ele>1552</ele>
        <time>2022-07-23T14:45:33Z</time>
      </trkpt>
      <trkpt lat="45.73814" lon="6.47899">
        <ele>1552</ele>
        <time>2022-07-23T14:45:34Z</time>
      </trkpt>
      <trkpt lat="45.73815" lon="6.47899">
        <ele>1552</ele>
        <time>2022-07-23T14:45:35Z</time>
      </trkpt>
      <trkpt lat="45.73816" lon="6.47899">
        <ele>1551</ele>
        <time>2022-07-23T14:45:36Z</time>
      </trkpt>
      <trkpt lat="45.73816" lon="6.479">
        <ele>1551</ele>
        <time>2022-07-23T14:45:37Z</time>
      </trkpt>
      <trkpt lat="45.73817" lon="6.47901">
        <ele>1551</ele>
        <time>2022-07-23T14:45:38Z</time>
      </trkpt>
      <trkpt lat="45.73818" lon="6.47902">
        <ele>1551</ele>
        <time>2022-07-23T14:45:39Z</time>
      </trkpt>
      <trkpt lat="45.73819" lon="6.47902">
        <ele>1551</ele>
        <time>2022-07-23T14:45:40Z</time>
      </trkpt>
      <trkpt lat="45.73819" lon="6.47903">
        <ele>1551</ele>
        <time>2022-07-23T14:45:41Z</time>
      </trkpt>
      <trkpt lat="45.7382" lon="6.47904">
        <ele>1551</ele>
        <time>2022-07-23T14:45:42Z</time>
      </trkpt>
      <trkpt lat="45.73821" lon="6.47904">
        <ele>1551</ele>
        <time>2022-07-23T14:45:43Z</time>
      </trkpt>
      <trkpt lat="45.73821" lon="6.47905">
        <ele>1551</ele>
        <time>2022-07-23T14:45:44Z</time>
      </trkpt>
      <trkpt lat="45.73822" lon="6.47906">
        <ele>1551</ele>
        <time>2022-07-23T14:45:45Z</time>
      </trkpt>
      <trkpt lat="45.73823" lon="6.47907">
        <ele>1550</ele>
        <time>2022-07-23T14:45:46Z</time>
      </trkpt>
      <trkpt lat="45.73824" lon="6.47907">
        <ele>1550</ele>
        <time>2022-07-23T14:45:47Z</time>
      </trkpt>
      <trkpt lat="45.73825" lon="6.47908">
        <ele>1550</ele>
        <time>2022-07-23T14:45:48Z</time>
      </trkpt>
      <trkpt lat="45.73826" lon="6.47909">
        <ele>1550</ele>
        <time>2022-07-23T14:45:49Z</time>
      </trkpt>
      <trkpt lat="45.73827" lon="6.4791">
        <ele>1550</ele>
        <time>2022-07-23T14:45:50Z</time>
      </trkpt>
      <trkpt lat="45.73828" lon="6.47911">
        <ele>1549</ele>
        <time>2022-07-23T14:45:51Z</time>
      </trkpt>
      <trkpt lat="45.73829" lon="6.47912">
        <ele>1549</ele>
        <time>2022-07-23T14:45:52Z</time>
      </trkpt>
      <trkpt lat="45.7383" lon="6.47913">
        <ele>1549</ele>
        <time>2022-07-23T14:45:53Z</time>
      </trkpt>
      <trkpt lat="45.73831" lon="6.47914">
        <ele>1549</ele>
        <time>2022-07-23T14:45:54Z</time>
      </trkpt>
      <trkpt lat="45.73832" lon="6.47915">
        <ele>1549</ele>
        <time>2022-07-23T14:45:55Z</time>
      </trkpt>
      <trkpt lat="45.73833" lon="6.47916">
        <ele>1548</ele>
        <time>2022-07-23T14:45:56Z</time>
      </trkpt>
      <trkpt lat="45.73834" lon="6.47916">
        <ele>1548</ele>
        <time>2022-07-23T14:45:57Z</time>
      </trkpt>
      <trkpt lat="45.73835" lon="6.47917">
        <ele>1548</ele>
        <time>2022-07-23T14:45:58Z</time>
      </trkpt>
      <trkpt lat="45.73836" lon="6.47918">
        <ele>1548</ele>
        <time>2022-07-23T14:45:59Z</time>
      </trkpt>
      <trkpt lat="45.73837" lon="6.47919">
        <ele>1548</ele>
        <time>2022-07-23T14:46:00Z</time>
      </trkpt>
      <trkpt lat="45.73839" lon="6.47921">
        <ele>1548</ele>
        <time>2022-07-23T14:46:01Z</time>
      </trkpt>
      <trkpt lat="45.7384" lon="6.47922">
        <ele>1548</ele>
        <time>2022-07-23T14:46:02Z</time>
      </trkpt>
      <trkpt lat="45.73841" lon="6.47923">
        <ele>1548</ele>
        <time>2022-07-23T14:46:03Z</time>
      </trkpt>
      <trkpt lat="45.73842" lon="6.47924">
        <ele>1548</ele>
        <time>2022-07-23T14:46:04Z</time>
      </trkpt>
      <trkpt lat="45.73843" lon="6.47925">
        <ele>1548</ele>
        <time>2022-07-23T14:46:05Z</time>
      </trkpt>
      <trkpt lat="45.73844" lon="6.47926">
        <ele>1547</ele>
        <time>2022-07-23T14:46:06Z</time>
      </trkpt>
      <trkpt lat="45.73845" lon="6.47926">
        <ele>1546</ele>
        <time>2022-07-23T14:46:07Z</time>
      </trkpt>
      <trkpt lat="45.73846" lon="6.47927">
        <ele>1546</ele>
        <time>2022-07-23T14:46:08Z</time>
      </trkpt>
      <trkpt lat="45.73848" lon="6.47928">
        <ele>1545</ele>
        <time>2022-07-23T14:46:09Z</time>
      </trkpt>
      <trkpt lat="45.73849" lon="6.47929">
        <ele>1545</ele>
        <time>2022-07-23T14:46:10Z</time>
      </trkpt>
      <trkpt lat="45.7385" lon="6.4793">
        <ele>1545</ele>
        <time>2022-07-23T14:46:11Z</time>
      </trkpt>
      <trkpt lat="45.73851" lon="6.47931">
        <ele>1545</ele>
        <time>2022-07-23T14:46:12Z</time>
      </trkpt>
      <trkpt lat="45.73852" lon="6.47932">
        <ele>1545</ele>
        <time>2022-07-23T14:46:13Z</time>
      </trkpt>
      <trkpt lat="45.73853" lon="6.47933">
        <ele>1545</ele>
        <time>2022-07-23T14:46:14Z</time>
      </trkpt>
      <trkpt lat="45.73854" lon="6.47934">
        <ele>1545</ele>
        <time>2022-07-23T14:46:15Z</time>
      </trkpt>
      <trkpt lat="45.73855" lon="6.47935">
        <ele>1544</ele>
        <time>2022-07-23T14:46:16Z</time>
      </trkpt>
      <trkpt lat="45.73856" lon="6.47936">
        <ele>1544</ele>
        <time>2022-07-23T14:46:17Z</time>
      </trkpt>
      <trkpt lat="45.73858" lon="6.47937">
        <ele>1544</ele>
        <time>2022-07-23T14:46:18Z</time>
      </trkpt>
      <trkpt lat="45.73859" lon="6.47938">
        <ele>1544</ele>
        <time>2022-07-23T14:46:19Z</time>
      </trkpt>
      <trkpt lat="45.7386" lon="6.47939">
        <ele>1544</ele>
        <time>2022-07-23T14:46:20Z</time>
      </trkpt>
      <trkpt lat="45.73861" lon="6.4794">
        <ele>1543</ele>
        <time>2022-07-23T14:46:21Z</time>
      </trkpt>
      <trkpt lat="45.73862" lon="6.47941">
        <ele>1543</ele>
        <time>2022-07-23T14:46:22Z</time>
      </trkpt>
      <trkpt lat="45.73863" lon="6.47942">
        <ele>1543</ele>
        <time>2022-07-23T14:46:23Z</time>
      </trkpt>
      <trkpt lat="45.73864" lon="6.47943">
        <ele>1543</ele>
        <time>2022-07-23T14:46:24Z</time>
      </trkpt>
      <trkpt lat="45.73865" lon="6.47944">
        <ele>1543</ele>
        <time>2022-07-23T14:46:25Z</time>
      </trkpt>
      <trkpt lat="45.73866" lon="6.47945">
        <ele>1542</ele>
        <time>2022-07-23T14:46:26Z</time>
      </trkpt>
      <trkpt lat="45.73867" lon="6.47946">
        <ele>1542</ele>
        <time>2022-07-23T14:46:27Z</time>
      </trkpt>
      <trkpt lat="45.73868" lon="6.47946">
        <ele>1542</ele>
        <time>2022-07-23T14:46:28Z</time>
      </trkpt>
      <trkpt lat="45.73869" lon="6.47947">
        <ele>1542</ele>
        <time>2022-07-23T14:46:29Z</time>
      </trkpt>
      <trkpt lat="45.7387" lon="6.47948">
        <ele>1542</ele>
        <time>2022-07-23T14:46:30Z</time>
      </trkpt>
      <trkpt lat="45.73871" lon="6.47949">
        <ele>1541</ele>
        <time>2022-07-23T14:46:31Z</time>
      </trkpt>
      <trkpt lat="45.73872" lon="6.4795">
        <ele>1541</ele>
        <time>2022-07-23T14:46:32Z</time>
      </trkpt>
      <trkpt lat="45.73873" lon="6.47951">
        <ele>1541</ele>
        <time>2022-07-23T14:46:33Z</time>
      </trkpt>
      <trkpt lat="45.73874" lon="6.47951">
        <ele>1541</ele>
        <time>2022-07-23T14:46:34Z</time>
      </trkpt>
      <trkpt lat="45.73874" lon="6.47952">
        <ele>1541</ele>
        <time>2022-07-23T14:46:35Z</time>
      </trkpt>
      <trkpt lat="45.73875" lon="6.47953">
        <ele>1540</ele>
        <time>2022-07-23T14:46:36Z</time>
      </trkpt>
      <trkpt lat="45.73876" lon="6.47954">
        <ele>1540</ele>
        <time>2022-07-23T14:46:37Z</time>
      </trkpt>
      <trkpt lat="45.73877" lon="6.47954">
        <ele>1540</ele>
        <time>2022-07-23T14:46:38Z</time>
      </trkpt>
      <trkpt lat="45.73878" lon="6.47955">
        <ele>1540</ele>
        <time>2022-07-23T14:46:39Z</time>
      </trkpt>
      <trkpt lat="45.73879" lon="6.47956">
        <ele>1540</ele>
        <time>2022-07-23T14:46:40Z</time>
      </trkpt>
      <trkpt lat="45.7388" lon="6.47957">
        <ele>1539</ele>
        <time>2022-07-23T14:46:41Z</time>
      </trkpt>
      <trkpt lat="45.73881" lon="6.47957">
        <ele>1539</ele>
        <time>2022-07-23T14:46:42Z</time>
      </trkpt>
      <trkpt lat="45.73881" lon="6.47958">
        <ele>1539</ele>
        <time>2022-07-23T14:46:43Z</time>
      </trkpt>
      <trkpt lat="45.73882" lon="6.47959">
        <ele>1539</ele>
        <time>2022-07-23T14:46:44Z</time>
      </trkpt>
      <trkpt lat="45.73883" lon="6.4796">
        <ele>1539</ele>
        <time>2022-07-23T14:46:45Z</time>
      </trkpt>
      <trkpt lat="45.73884" lon="6.47961">
        <ele>1538</ele>
        <time>2022-07-23T14:46:46Z</time>
      </trkpt>
      <trkpt lat="45.73885" lon="6.47962">
        <ele>1538</ele>
        <time>2022-07-23T14:46:47Z</time>
      </trkpt>
      <trkpt lat="45.73886" lon="6.47963">
        <ele>1538</ele>
        <time>2022-07-23T14:46:48Z</time>
      </trkpt>
      <trkpt lat="45.73886" lon="6.47963">
        <ele>1538</ele>
        <time>2022-07-23T14:46:49Z</time>
      </trkpt>
      <trkpt lat="45.73887" lon="6.47964">
        <ele>1538</ele>
        <time>2022-07-23T14:46:50Z</time>
      </trkpt>
      <trkpt lat="45.73888" lon="6.47965">
        <ele>1537</ele>
        <time>2022-07-23T14:46:57Z</time>
      </trkpt>
      <trkpt lat="45.73888" lon="6.47966">
        <ele>1537</ele>
        <time>2022-07-23T14:46:58Z</time>
      </trkpt>
      <trkpt lat="45.73889" lon="6.47967">
        <ele>1537</ele>
        <time>2022-07-23T14:46:59Z</time>
      </trkpt>
      <trkpt lat="45.7389" lon="6.47968">
        <ele>1537</ele>
        <time>2022-07-23T14:47:00Z</time>
      </trkpt>
      <trkpt lat="45.73891" lon="6.47969">
        <ele>1536</ele>
        <time>2022-07-23T14:47:01Z</time>
      </trkpt>
      <trkpt lat="45.73891" lon="6.47969">
        <ele>1536</ele>
        <time>2022-07-23T14:47:02Z</time>
      </trkpt>
      <trkpt lat="45.73892" lon="6.4797">
        <ele>1536</ele>
        <time>2022-07-23T14:47:03Z</time>
      </trkpt>
      <trkpt lat="45.73893" lon="6.47971">
        <ele>1536</ele>
        <time>2022-07-23T14:47:04Z</time>
      </trkpt>
      <trkpt lat="45.73894" lon="6.47972">
        <ele>1536</ele>
        <time>2022-07-23T14:47:05Z</time>
      </trkpt>
      <trkpt lat="45.73895" lon="6.47972">
        <ele>1536</ele>
        <time>2022-07-23T14:47:06Z</time>
      </trkpt>
      <trkpt lat="45.73896" lon="6.47973">
        <ele>1536</ele>
        <time>2022-07-23T14:47:07Z</time>
      </trkpt>
      <trkpt lat="45.73897" lon="6.47974">
        <ele>1536</ele>
        <time>2022-07-23T14:47:08Z</time>
      </trkpt>
      <trkpt lat="45.73898" lon="6.47975">
        <ele>1536</ele>
        <time>2022-07-23T14:47:09Z</time>
      </trkpt>
      <trkpt lat="45.73899" lon="6.47976">
        <ele>1536</ele>
        <time>2022-07-23T14:47:10Z</time>
      </trkpt>
      <trkpt lat="45.739" lon="6.47977">
        <ele>1535</ele>
        <time>2022-07-23T14:47:11Z</time>
      </trkpt>
      <trkpt lat="45.73901" lon="6.47977">
        <ele>1535</ele>
        <time>2022-07-23T14:47:12Z</time>
      </trkpt>
      <trkpt lat="45.73901" lon="6.47978">
        <ele>1535</ele>
        <time>2022-07-23T14:47:13Z</time>
      </trkpt>
      <trkpt lat="45.73902" lon="6.47979">
        <ele>1535</ele>
        <time>2022-07-23T14:47:14Z</time>
      </trkpt>
      <trkpt lat="45.73903" lon="6.4798">
        <ele>1535</ele>
        <time>2022-07-23T14:47:15Z</time>
      </trkpt>
      <trkpt lat="45.73904" lon="6.4798">
        <ele>1534</ele>
        <time>2022-07-23T14:47:16Z</time>
      </trkpt>
      <trkpt lat="45.73905" lon="6.47981">
        <ele>1534</ele>
        <time>2022-07-23T14:47:17Z</time>
      </trkpt>
      <trkpt lat="45.73906" lon="6.47981">
        <ele>1534</ele>
        <time>2022-07-23T14:47:18Z</time>
      </trkpt>
      <trkpt lat="45.73907" lon="6.47982">
        <ele>1534</ele>
        <time>2022-07-23T14:47:19Z</time>
      </trkpt>
      <trkpt lat="45.73909" lon="6.47982">
        <ele>1534</ele>
        <time>2022-07-23T14:47:20Z</time>
      </trkpt>
      <trkpt lat="45.7391" lon="6.47982">
        <ele>1533</ele>
        <time>2022-07-23T14:47:21Z</time>
      </trkpt>
      <trkpt lat="45.73911" lon="6.47983">
        <ele>1533</ele>
        <time>2022-07-23T14:47:22Z</time>
      </trkpt>
      <trkpt lat="45.73912" lon="6.47983">
        <ele>1533</ele>
        <time>2022-07-23T14:47:23Z</time>
      </trkpt>
      <trkpt lat="45.73913" lon="6.47984">
        <ele>1533</ele>
        <time>2022-07-23T14:47:24Z</time>
      </trkpt>
      <trkpt lat="45.73914" lon="6.47985">
        <ele>1533</ele>
        <time>2022-07-23T14:47:25Z</time>
      </trkpt>
      <trkpt lat="45.73915" lon="6.47985">
        <ele>1532</ele>
        <time>2022-07-23T14:47:26Z</time>
      </trkpt>
      <trkpt lat="45.73915" lon="6.47986">
        <ele>1532</ele>
        <time>2022-07-23T14:47:27Z</time>
      </trkpt>
      <trkpt lat="45.73916" lon="6.47987">
        <ele>1532</ele>
        <time>2022-07-23T14:47:28Z</time>
      </trkpt>
      <trkpt lat="45.73917" lon="6.47988">
        <ele>1532</ele>
        <time>2022-07-23T14:47:29Z</time>
      </trkpt>
      <trkpt lat="45.73918" lon="6.47988">
        <ele>1532</ele>
        <time>2022-07-23T14:47:30Z</time>
      </trkpt>
      <trkpt lat="45.73919" lon="6.47989">
        <ele>1531</ele>
        <time>2022-07-23T14:47:31Z</time>
      </trkpt>
      <trkpt lat="45.7392" lon="6.4799">
        <ele>1531</ele>
        <time>2022-07-23T14:47:32Z</time>
      </trkpt>
      <trkpt lat="45.73921" lon="6.4799">
        <ele>1531</ele>
        <time>2022-07-23T14:47:33Z</time>
      </trkpt>
      <trkpt lat="45.73922" lon="6.47991">
        <ele>1531</ele>
        <time>2022-07-23T14:47:34Z</time>
      </trkpt>
      <trkpt lat="45.73923" lon="6.47992">
        <ele>1531</ele>
        <time>2022-07-23T14:47:35Z</time>
      </trkpt>
      <trkpt lat="45.73924" lon="6.47993">
        <ele>1530</ele>
        <time>2022-07-23T14:47:36Z</time>
      </trkpt>
      <trkpt lat="45.73925" lon="6.47993">
        <ele>1530</ele>
        <time>2022-07-23T14:47:37Z</time>
      </trkpt>
      <trkpt lat="45.73926" lon="6.47994">
        <ele>1530</ele>
        <time>2022-07-23T14:47:38Z</time>
      </trkpt>
      <trkpt lat="45.73927" lon="6.47995">
        <ele>1530</ele>
        <time>2022-07-23T14:47:39Z</time>
      </trkpt>
      <trkpt lat="45.73928" lon="6.47996">
        <ele>1530</ele>
        <time>2022-07-23T14:47:40Z</time>
      </trkpt>
      <trkpt lat="45.73929" lon="6.47996">
        <ele>1529</ele>
        <time>2022-07-23T14:47:41Z</time>
      </trkpt>
      <trkpt lat="45.73931" lon="6.47997">
        <ele>1529</ele>
        <time>2022-07-23T14:47:42Z</time>
      </trkpt>
      <trkpt lat="45.73932" lon="6.47998">
        <ele>1528</ele>
        <time>2022-07-23T14:47:43Z</time>
      </trkpt>
      <trkpt lat="45.73933" lon="6.47999">
        <ele>1528</ele>
        <time>2022-07-23T14:47:44Z</time>
      </trkpt>
      <trkpt lat="45.73934" lon="6.48">
        <ele>1528</ele>
        <time>2022-07-23T14:47:45Z</time>
      </trkpt>
      <trkpt lat="45.73935" lon="6.48001">
        <ele>1528</ele>
        <time>2022-07-23T14:47:46Z</time>
      </trkpt>
      <trkpt lat="45.73936" lon="6.48002">
        <ele>1528</ele>
        <time>2022-07-23T14:47:47Z</time>
      </trkpt>
      <trkpt lat="45.73937" lon="6.48003">
        <ele>1528</ele>
        <time>2022-07-23T14:47:48Z</time>
      </trkpt>
      <trkpt lat="45.73937" lon="6.48004">
        <ele>1528</ele>
        <time>2022-07-23T14:47:49Z</time>
      </trkpt>
      <trkpt lat="45.73938" lon="6.48005">
        <ele>1528</ele>
        <time>2022-07-23T14:47:50Z</time>
      </trkpt>
      <trkpt lat="45.73939" lon="6.48006">
        <ele>1527</ele>
        <time>2022-07-23T14:47:51Z</time>
      </trkpt>
      <trkpt lat="45.7394" lon="6.48008">
        <ele>1527</ele>
        <time>2022-07-23T14:47:52Z</time>
      </trkpt>
      <trkpt lat="45.73941" lon="6.48009">
        <ele>1527</ele>
        <time>2022-07-23T14:47:53Z</time>
      </trkpt>
      <trkpt lat="45.73941" lon="6.4801">
        <ele>1527</ele>
        <time>2022-07-23T14:47:54Z</time>
      </trkpt>
      <trkpt lat="45.73942" lon="6.48011">
        <ele>1527</ele>
        <time>2022-07-23T14:47:55Z</time>
      </trkpt>
      <trkpt lat="45.73943" lon="6.48012">
        <ele>1526</ele>
        <time>2022-07-23T14:47:56Z</time>
      </trkpt>
      <trkpt lat="45.73943" lon="6.48013">
        <ele>1526</ele>
        <time>2022-07-23T14:47:57Z</time>
      </trkpt>
      <trkpt lat="45.73944" lon="6.48013">
        <ele>1526</ele>
        <time>2022-07-23T14:47:58Z</time>
      </trkpt>
      <trkpt lat="45.73944" lon="6.48014">
        <ele>1526</ele>
        <time>2022-07-23T14:47:59Z</time>
      </trkpt>
      <trkpt lat="45.73944" lon="6.48014">
        <ele>1526</ele>
        <time>2022-07-23T14:48:00Z</time>
      </trkpt>
      <trkpt lat="45.73944" lon="6.48014">
        <ele>1525</ele>
        <time>2022-07-23T14:48:01Z</time>
      </trkpt>
      <trkpt lat="45.73945" lon="6.48015">
        <ele>1525</ele>
        <time>2022-07-23T14:48:02Z</time>
      </trkpt>
      <trkpt lat="45.73945" lon="6.48015">
        <ele>1525</ele>
        <time>2022-07-23T14:48:03Z</time>
      </trkpt>
      <trkpt lat="45.73946" lon="6.48016">
        <ele>1525</ele>
        <time>2022-07-23T14:48:04Z</time>
      </trkpt>
      <trkpt lat="45.73946" lon="6.48016">
        <ele>1525</ele>
        <time>2022-07-23T14:48:05Z</time>
      </trkpt>
      <trkpt lat="45.73947" lon="6.48017">
        <ele>1524</ele>
        <time>2022-07-23T14:48:06Z</time>
      </trkpt>
      <trkpt lat="45.73948" lon="6.48018">
        <ele>1524</ele>
        <time>2022-07-23T14:48:07Z</time>
      </trkpt>
      <trkpt lat="45.73949" lon="6.48018">
        <ele>1524</ele>
        <time>2022-07-23T14:48:08Z</time>
      </trkpt>
      <trkpt lat="45.7395" lon="6.48019">
        <ele>1524</ele>
        <time>2022-07-23T14:48:09Z</time>
      </trkpt>
      <trkpt lat="45.73951" lon="6.4802">
        <ele>1524</ele>
        <time>2022-07-23T14:48:10Z</time>
      </trkpt>
      <trkpt lat="45.73951" lon="6.4802">
        <ele>1523</ele>
        <time>2022-07-23T14:48:11Z</time>
      </trkpt>
      <trkpt lat="45.73952" lon="6.48021">
        <ele>1523</ele>
        <time>2022-07-23T14:48:12Z</time>
      </trkpt>
      <trkpt lat="45.73953" lon="6.48022">
        <ele>1523</ele>
        <time>2022-07-23T14:48:13Z</time>
      </trkpt>
      <trkpt lat="45.73954" lon="6.48023">
        <ele>1523</ele>
        <time>2022-07-23T14:48:14Z</time>
      </trkpt>
      <trkpt lat="45.73955" lon="6.48023">
        <ele>1523</ele>
        <time>2022-07-23T14:48:15Z</time>
      </trkpt>
      <trkpt lat="45.73956" lon="6.48024">
        <ele>1523</ele>
        <time>2022-07-23T14:48:16Z</time>
      </trkpt>
      <trkpt lat="45.73957" lon="6.48025">
        <ele>1523</ele>
        <time>2022-07-23T14:48:17Z</time>
      </trkpt>
      <trkpt lat="45.73959" lon="6.48025">
        <ele>1523</ele>
        <time>2022-07-23T14:48:18Z</time>
      </trkpt>
      <trkpt lat="45.7396" lon="6.48026">
        <ele>1523</ele>
        <time>2022-07-23T14:48:19Z</time>
      </trkpt>
      <trkpt lat="45.73961" lon="6.48027">
        <ele>1523</ele>
        <time>2022-07-23T14:48:20Z</time>
      </trkpt>
      <trkpt lat="45.73962" lon="6.48027">
        <ele>1522</ele>
        <time>2022-07-23T14:48:21Z</time>
      </trkpt>
      <trkpt lat="45.73963" lon="6.48028">
        <ele>1522</ele>
        <time>2022-07-23T14:48:22Z</time>
      </trkpt>
      <trkpt lat="45.73964" lon="6.48028">
        <ele>1522</ele>
        <time>2022-07-23T14:48:23Z</time>
      </trkpt>
      <trkpt lat="45.73965" lon="6.48029">
        <ele>1522</ele>
        <time>2022-07-23T14:48:24Z</time>
      </trkpt>
      <trkpt lat="45.73966" lon="6.4803">
        <ele>1522</ele>
        <time>2022-07-23T14:48:25Z</time>
      </trkpt>
      <trkpt lat="45.73967" lon="6.4803">
        <ele>1521</ele>
        <time>2022-07-23T14:48:26Z</time>
      </trkpt>
      <trkpt lat="45.73968" lon="6.48031">
        <ele>1521</ele>
        <time>2022-07-23T14:48:27Z</time>
      </trkpt>
      <trkpt lat="45.73969" lon="6.48031">
        <ele>1521</ele>
        <time>2022-07-23T14:48:28Z</time>
      </trkpt>
      <trkpt lat="45.7397" lon="6.48032">
        <ele>1521</ele>
        <time>2022-07-23T14:48:29Z</time>
      </trkpt>
      <trkpt lat="45.73971" lon="6.48032">
        <ele>1521</ele>
        <time>2022-07-23T14:48:30Z</time>
      </trkpt>
      <trkpt lat="45.73972" lon="6.48033">
        <ele>1520</ele>
        <time>2022-07-23T14:48:31Z</time>
      </trkpt>
      <trkpt lat="45.73973" lon="6.48034">
        <ele>1520</ele>
        <time>2022-07-23T14:48:32Z</time>
      </trkpt>
      <trkpt lat="45.73974" lon="6.48034">
        <ele>1520</ele>
        <time>2022-07-23T14:48:33Z</time>
      </trkpt>
      <trkpt lat="45.73975" lon="6.48035">
        <ele>1520</ele>
        <time>2022-07-23T14:48:34Z</time>
      </trkpt>
      <trkpt lat="45.73977" lon="6.48036">
        <ele>1520</ele>
        <time>2022-07-23T14:48:35Z</time>
      </trkpt>
      <trkpt lat="45.73978" lon="6.48036">
        <ele>1519</ele>
        <time>2022-07-23T14:48:36Z</time>
      </trkpt>
      <trkpt lat="45.73979" lon="6.48036">
        <ele>1519</ele>
        <time>2022-07-23T14:48:37Z</time>
      </trkpt>
      <trkpt lat="45.7398" lon="6.48036">
        <ele>1519</ele>
        <time>2022-07-23T14:48:38Z</time>
      </trkpt>
      <trkpt lat="45.73981" lon="6.48036">
        <ele>1519</ele>
        <time>2022-07-23T14:48:39Z</time>
      </trkpt>
      <trkpt lat="45.73983" lon="6.48036">
        <ele>1519</ele>
        <time>2022-07-23T14:48:40Z</time>
      </trkpt>
      <trkpt lat="45.73983" lon="6.48036">
        <ele>1518</ele>
        <time>2022-07-23T14:48:41Z</time>
      </trkpt>
      <trkpt lat="45.73984" lon="6.48036">
        <ele>1518</ele>
        <time>2022-07-23T14:48:42Z</time>
      </trkpt>
      <trkpt lat="45.73985" lon="6.48036">
        <ele>1518</ele>
        <time>2022-07-23T14:48:43Z</time>
      </trkpt>
      <trkpt lat="45.73986" lon="6.48035">
        <ele>1518</ele>
        <time>2022-07-23T14:48:44Z</time>
      </trkpt>
      <trkpt lat="45.73987" lon="6.48035">
        <ele>1518</ele>
        <time>2022-07-23T14:48:45Z</time>
      </trkpt>
      <trkpt lat="45.73988" lon="6.48035">
        <ele>1517</ele>
        <time>2022-07-23T14:48:46Z</time>
      </trkpt>
      <trkpt lat="45.73989" lon="6.48034">
        <ele>1517</ele>
        <time>2022-07-23T14:48:47Z</time>
      </trkpt>
      <trkpt lat="45.7399" lon="6.48034">
        <ele>1517</ele>
        <time>2022-07-23T14:48:48Z</time>
      </trkpt>
      <trkpt lat="45.73991" lon="6.48034">
        <ele>1517</ele>
        <time>2022-07-23T14:48:49Z</time>
      </trkpt>
      <trkpt lat="45.73992" lon="6.48033">
        <ele>1517</ele>
        <time>2022-07-23T14:48:50Z</time>
      </trkpt>
      <trkpt lat="45.73993" lon="6.48033">
        <ele>1516</ele>
        <time>2022-07-23T14:48:51Z</time>
      </trkpt>
      <trkpt lat="45.73994" lon="6.48033">
        <ele>1516</ele>
        <time>2022-07-23T14:48:52Z</time>
      </trkpt>
      <trkpt lat="45.73996" lon="6.48033">
        <ele>1516</ele>
        <time>2022-07-23T14:48:53Z</time>
      </trkpt>
      <trkpt lat="45.73997" lon="6.48033">
        <ele>1516</ele>
        <time>2022-07-23T14:48:54Z</time>
      </trkpt>
      <trkpt lat="45.73998" lon="6.48033">
        <ele>1516</ele>
        <time>2022-07-23T14:48:55Z</time>
      </trkpt>
      <trkpt lat="45.74" lon="6.48032">
        <ele>1516</ele>
        <time>2022-07-23T14:48:56Z</time>
      </trkpt>
      <trkpt lat="45.74001" lon="6.48032">
        <ele>1516</ele>
        <time>2022-07-23T14:48:57Z</time>
      </trkpt>
      <trkpt lat="45.74002" lon="6.48032">
        <ele>1516</ele>
        <time>2022-07-23T14:48:58Z</time>
      </trkpt>
      <trkpt lat="45.74003" lon="6.48031">
        <ele>1516</ele>
        <time>2022-07-23T14:48:59Z</time>
      </trkpt>
      <trkpt lat="45.74004" lon="6.4803">
        <ele>1516</ele>
        <time>2022-07-23T14:49:00Z</time>
      </trkpt>
      <trkpt lat="45.74005" lon="6.48029">
        <ele>1515</ele>
        <time>2022-07-23T14:49:01Z</time>
      </trkpt>
      <trkpt lat="45.74007" lon="6.48029">
        <ele>1515</ele>
        <time>2022-07-23T14:49:02Z</time>
      </trkpt>
      <trkpt lat="45.74008" lon="6.48029">
        <ele>1515</ele>
        <time>2022-07-23T14:49:03Z</time>
      </trkpt>
      <trkpt lat="45.74009" lon="6.48028">
        <ele>1515</ele>
        <time>2022-07-23T14:49:04Z</time>
      </trkpt>
      <trkpt lat="45.7401" lon="6.48028">
        <ele>1515</ele>
        <time>2022-07-23T14:49:05Z</time>
      </trkpt>
      <trkpt lat="45.74012" lon="6.48028">
        <ele>1514</ele>
        <time>2022-07-23T14:49:06Z</time>
      </trkpt>
      <trkpt lat="45.74013" lon="6.48028">
        <ele>1514</ele>
        <time>2022-07-23T14:49:07Z</time>
      </trkpt>
      <trkpt lat="45.74014" lon="6.48028">
        <ele>1514</ele>
        <time>2022-07-23T14:49:08Z</time>
      </trkpt>
      <trkpt lat="45.74015" lon="6.48029">
        <ele>1514</ele>
        <time>2022-07-23T14:49:09Z</time>
      </trkpt>
      <trkpt lat="45.74017" lon="6.48029">
        <ele>1514</ele>
        <time>2022-07-23T14:49:10Z</time>
      </trkpt>
      <trkpt lat="45.74018" lon="6.48029">
        <ele>1513</ele>
        <time>2022-07-23T14:49:11Z</time>
      </trkpt>
      <trkpt lat="45.74019" lon="6.48029">
        <ele>1513</ele>
        <time>2022-07-23T14:49:12Z</time>
      </trkpt>
      <trkpt lat="45.74021" lon="6.4803">
        <ele>1513</ele>
        <time>2022-07-23T14:49:13Z</time>
      </trkpt>
      <trkpt lat="45.74022" lon="6.4803">
        <ele>1513</ele>
        <time>2022-07-23T14:49:14Z</time>
      </trkpt>
      <trkpt lat="45.74023" lon="6.4803">
        <ele>1513</ele>
        <time>2022-07-23T14:49:15Z</time>
      </trkpt>
      <trkpt lat="45.74024" lon="6.4803">
        <ele>1512</ele>
        <time>2022-07-23T14:49:16Z</time>
      </trkpt>
      <trkpt lat="45.74026" lon="6.48031">
        <ele>1512</ele>
        <time>2022-07-23T14:49:17Z</time>
      </trkpt>
      <trkpt lat="45.74027" lon="6.48031">
        <ele>1512</ele>
        <time>2022-07-23T14:49:18Z</time>
      </trkpt>
      <trkpt lat="45.74029" lon="6.48031">
        <ele>1512</ele>
        <time>2022-07-23T14:49:19Z</time>
      </trkpt>
      <trkpt lat="45.7403" lon="6.48031">
        <ele>1512</ele>
        <time>2022-07-23T14:49:20Z</time>
      </trkpt>
      <trkpt lat="45.74031" lon="6.48031">
        <ele>1512</ele>
        <time>2022-07-23T14:49:21Z</time>
      </trkpt>
      <trkpt lat="45.74032" lon="6.48031">
        <ele>1512</ele>
        <time>2022-07-23T14:49:22Z</time>
      </trkpt>
      <trkpt lat="45.74033" lon="6.48031">
        <ele>1512</ele>
        <time>2022-07-23T14:49:23Z</time>
      </trkpt>
      <trkpt lat="45.74034" lon="6.48031">
        <ele>1512</ele>
        <time>2022-07-23T14:49:24Z</time>
      </trkpt>
      <trkpt lat="45.74036" lon="6.4803">
        <ele>1512</ele>
        <time>2022-07-23T14:49:25Z</time>
      </trkpt>
      <trkpt lat="45.74037" lon="6.4803">
        <ele>1511</ele>
        <time>2022-07-23T14:49:26Z</time>
      </trkpt>
      <trkpt lat="45.74038" lon="6.48029">
        <ele>1511</ele>
        <time>2022-07-23T14:49:27Z</time>
      </trkpt>
      <trkpt lat="45.74039" lon="6.48029">
        <ele>1510</ele>
        <time>2022-07-23T14:49:28Z</time>
      </trkpt>
      <trkpt lat="45.7404" lon="6.48029">
        <ele>1510</ele>
        <time>2022-07-23T14:49:29Z</time>
      </trkpt>
      <trkpt lat="45.74041" lon="6.48028">
        <ele>1510</ele>
        <time>2022-07-23T14:49:30Z</time>
      </trkpt>
      <trkpt lat="45.74042" lon="6.48028">
        <ele>1509</ele>
        <time>2022-07-23T14:49:31Z</time>
      </trkpt>
      <trkpt lat="45.74044" lon="6.48028">
        <ele>1509</ele>
        <time>2022-07-23T14:49:32Z</time>
      </trkpt>
      <trkpt lat="45.74045" lon="6.48028">
        <ele>1509</ele>
        <time>2022-07-23T14:49:33Z</time>
      </trkpt>
      <trkpt lat="45.74046" lon="6.48028">
        <ele>1509</ele>
        <time>2022-07-23T14:49:34Z</time>
      </trkpt>
      <trkpt lat="45.74047" lon="6.48027">
        <ele>1509</ele>
        <time>2022-07-23T14:49:35Z</time>
      </trkpt>
      <trkpt lat="45.74048" lon="6.48027">
        <ele>1508</ele>
        <time>2022-07-23T14:49:36Z</time>
      </trkpt>
      <trkpt lat="45.74049" lon="6.48027">
        <ele>1508</ele>
        <time>2022-07-23T14:49:37Z</time>
      </trkpt>
      <trkpt lat="45.7405" lon="6.48027">
        <ele>1508</ele>
        <time>2022-07-23T14:49:38Z</time>
      </trkpt>
      <trkpt lat="45.74051" lon="6.48027">
        <ele>1508</ele>
        <time>2022-07-23T14:49:39Z</time>
      </trkpt>
      <trkpt lat="45.74053" lon="6.48027">
        <ele>1508</ele>
        <time>2022-07-23T14:49:40Z</time>
      </trkpt>
      <trkpt lat="45.74054" lon="6.48027">
        <ele>1507</ele>
        <time>2022-07-23T14:49:41Z</time>
      </trkpt>
      <trkpt lat="45.74055" lon="6.48027">
        <ele>1507</ele>
        <time>2022-07-23T14:49:42Z</time>
      </trkpt>
      <trkpt lat="45.74056" lon="6.48027">
        <ele>1507</ele>
        <time>2022-07-23T14:49:43Z</time>
      </trkpt>
      <trkpt lat="45.74057" lon="6.48027">
        <ele>1507</ele>
        <time>2022-07-23T14:49:44Z</time>
      </trkpt>
      <trkpt lat="45.74058" lon="6.48027">
        <ele>1507</ele>
        <time>2022-07-23T14:49:45Z</time>
      </trkpt>
      <trkpt lat="45.74059" lon="6.48027">
        <ele>1507</ele>
        <time>2022-07-23T14:49:46Z</time>
      </trkpt>
      <trkpt lat="45.7406" lon="6.48027">
        <ele>1507</ele>
        <time>2022-07-23T14:49:47Z</time>
      </trkpt>
      <trkpt lat="45.74061" lon="6.48027">
        <ele>1507</ele>
        <time>2022-07-23T14:49:48Z</time>
      </trkpt>
      <trkpt lat="45.74062" lon="6.48028">
        <ele>1507</ele>
        <time>2022-07-23T14:49:49Z</time>
      </trkpt>
      <trkpt lat="45.74063" lon="6.48028">
        <ele>1507</ele>
        <time>2022-07-23T14:49:50Z</time>
      </trkpt>
      <trkpt lat="45.74064" lon="6.48028">
        <ele>1506</ele>
        <time>2022-07-23T14:49:51Z</time>
      </trkpt>
      <trkpt lat="45.74065" lon="6.48028">
        <ele>1506</ele>
        <time>2022-07-23T14:49:52Z</time>
      </trkpt>
      <trkpt lat="45.74066" lon="6.48029">
        <ele>1506</ele>
        <time>2022-07-23T14:49:53Z</time>
      </trkpt>
      <trkpt lat="45.74067" lon="6.48029">
        <ele>1506</ele>
        <time>2022-07-23T14:49:54Z</time>
      </trkpt>
      <trkpt lat="45.74068" lon="6.48029">
        <ele>1506</ele>
        <time>2022-07-23T14:49:55Z</time>
      </trkpt>
      <trkpt lat="45.74069" lon="6.48029">
        <ele>1505</ele>
        <time>2022-07-23T14:49:56Z</time>
      </trkpt>
      <trkpt lat="45.7407" lon="6.48029">
        <ele>1505</ele>
        <time>2022-07-23T14:49:57Z</time>
      </trkpt>
      <trkpt lat="45.74071" lon="6.48029">
        <ele>1505</ele>
        <time>2022-07-23T14:49:58Z</time>
      </trkpt>
      <trkpt lat="45.74072" lon="6.48029">
        <ele>1505</ele>
        <time>2022-07-23T14:49:59Z</time>
      </trkpt>
      <trkpt lat="45.74073" lon="6.48029">
        <ele>1505</ele>
        <time>2022-07-23T14:50:00Z</time>
      </trkpt>
      <trkpt lat="45.74074" lon="6.4803">
        <ele>1504</ele>
        <time>2022-07-23T14:50:01Z</time>
      </trkpt>
      <trkpt lat="45.74075" lon="6.4803">
        <ele>1504</ele>
        <time>2022-07-23T14:50:02Z</time>
      </trkpt>
      <trkpt lat="45.74076" lon="6.4803">
        <ele>1504</ele>
        <time>2022-07-23T14:50:03Z</time>
      </trkpt>
      <trkpt lat="45.74078" lon="6.4803">
        <ele>1504</ele>
        <time>2022-07-23T14:50:04Z</time>
      </trkpt>
      <trkpt lat="45.74079" lon="6.48031">
        <ele>1504</ele>
        <time>2022-07-23T14:50:05Z</time>
      </trkpt>
      <trkpt lat="45.7408" lon="6.48031">
        <ele>1504</ele>
        <time>2022-07-23T14:50:06Z</time>
      </trkpt>
      <trkpt lat="45.74081" lon="6.48031">
        <ele>1504</ele>
        <time>2022-07-23T14:50:07Z</time>
      </trkpt>
      <trkpt lat="45.74082" lon="6.48031">
        <ele>1504</ele>
        <time>2022-07-23T14:50:08Z</time>
      </trkpt>
      <trkpt lat="45.74083" lon="6.48032">
        <ele>1504</ele>
        <time>2022-07-23T14:50:09Z</time>
      </trkpt>
      <trkpt lat="45.74085" lon="6.48032">
        <ele>1504</ele>
        <time>2022-07-23T14:50:10Z</time>
      </trkpt>
      <trkpt lat="45.74086" lon="6.48032">
        <ele>1503</ele>
        <time>2022-07-23T14:50:11Z</time>
      </trkpt>
      <trkpt lat="45.74087" lon="6.48032">
        <ele>1503</ele>
        <time>2022-07-23T14:50:12Z</time>
      </trkpt>
      <trkpt lat="45.74088" lon="6.48032">
        <ele>1503</ele>
        <time>2022-07-23T14:50:13Z</time>
      </trkpt>
      <trkpt lat="45.74089" lon="6.48032">
        <ele>1503</ele>
        <time>2022-07-23T14:50:14Z</time>
      </trkpt>
      <trkpt lat="45.74091" lon="6.48033">
        <ele>1503</ele>
        <time>2022-07-23T14:50:15Z</time>
      </trkpt>
      <trkpt lat="45.74092" lon="6.48033">
        <ele>1502</ele>
        <time>2022-07-23T14:50:16Z</time>
      </trkpt>
      <trkpt lat="45.74093" lon="6.48034">
        <ele>1502</ele>
        <time>2022-07-23T14:50:17Z</time>
      </trkpt>
      <trkpt lat="45.74095" lon="6.48035">
        <ele>1502</ele>
        <time>2022-07-23T14:50:18Z</time>
      </trkpt>
      <trkpt lat="45.74096" lon="6.48035">
        <ele>1502</ele>
        <time>2022-07-23T14:50:19Z</time>
      </trkpt>
      <trkpt lat="45.74097" lon="6.48036">
        <ele>1502</ele>
        <time>2022-07-23T14:50:20Z</time>
      </trkpt>
      <trkpt lat="45.74098" lon="6.48037">
        <ele>1501</ele>
        <time>2022-07-23T14:50:21Z</time>
      </trkpt>
      <trkpt lat="45.74099" lon="6.48038">
        <ele>1501</ele>
        <time>2022-07-23T14:50:22Z</time>
      </trkpt>
      <trkpt lat="45.741" lon="6.48039">
        <ele>1501</ele>
        <time>2022-07-23T14:50:23Z</time>
      </trkpt>
      <trkpt lat="45.74101" lon="6.4804">
        <ele>1501</ele>
        <time>2022-07-23T14:50:24Z</time>
      </trkpt>
      <trkpt lat="45.74103" lon="6.48042">
        <ele>1501</ele>
        <time>2022-07-23T14:50:25Z</time>
      </trkpt>
      <trkpt lat="45.74104" lon="6.48043">
        <ele>1500</ele>
        <time>2022-07-23T14:50:26Z</time>
      </trkpt>
      <trkpt lat="45.74105" lon="6.48044">
        <ele>1500</ele>
        <time>2022-07-23T14:50:27Z</time>
      </trkpt>
      <trkpt lat="45.74106" lon="6.48046">
        <ele>1500</ele>
        <time>2022-07-23T14:50:28Z</time>
      </trkpt>
      <trkpt lat="45.74108" lon="6.48047">
        <ele>1500</ele>
        <time>2022-07-23T14:50:29Z</time>
      </trkpt>
      <trkpt lat="45.74109" lon="6.48048">
        <ele>1500</ele>
        <time>2022-07-23T14:50:30Z</time>
      </trkpt>
      <trkpt lat="45.7411" lon="6.48049">
        <ele>1499</ele>
        <time>2022-07-23T14:50:31Z</time>
      </trkpt>
      <trkpt lat="45.74111" lon="6.4805">
        <ele>1499</ele>
        <time>2022-07-23T14:50:32Z</time>
      </trkpt>
      <trkpt lat="45.74113" lon="6.48051">
        <ele>1499</ele>
        <time>2022-07-23T14:50:33Z</time>
      </trkpt>
      <trkpt lat="45.74114" lon="6.48052">
        <ele>1499</ele>
        <time>2022-07-23T14:50:34Z</time>
      </trkpt>
      <trkpt lat="45.74115" lon="6.48053">
        <ele>1499</ele>
        <time>2022-07-23T14:50:35Z</time>
      </trkpt>
      <trkpt lat="45.74116" lon="6.48054">
        <ele>1498</ele>
        <time>2022-07-23T14:50:36Z</time>
      </trkpt>
      <trkpt lat="45.74117" lon="6.48055">
        <ele>1498</ele>
        <time>2022-07-23T14:50:37Z</time>
      </trkpt>
      <trkpt lat="45.74118" lon="6.48056">
        <ele>1498</ele>
        <time>2022-07-23T14:50:38Z</time>
      </trkpt>
      <trkpt lat="45.74119" lon="6.48056">
        <ele>1498</ele>
        <time>2022-07-23T14:50:39Z</time>
      </trkpt>
      <trkpt lat="45.7412" lon="6.48057">
        <ele>1498</ele>
        <time>2022-07-23T14:50:40Z</time>
      </trkpt>
      <trkpt lat="45.74121" lon="6.48058">
        <ele>1497</ele>
        <time>2022-07-23T14:50:41Z</time>
      </trkpt>
      <trkpt lat="45.74122" lon="6.48058">
        <ele>1497</ele>
        <time>2022-07-23T14:50:42Z</time>
      </trkpt>
      <trkpt lat="45.74123" lon="6.48059">
        <ele>1497</ele>
        <time>2022-07-23T14:50:43Z</time>
      </trkpt>
      <trkpt lat="45.74124" lon="6.48059">
        <ele>1497</ele>
        <time>2022-07-23T14:50:44Z</time>
      </trkpt>
      <trkpt lat="45.74125" lon="6.4806">
        <ele>1497</ele>
        <time>2022-07-23T14:50:45Z</time>
      </trkpt>
      <trkpt lat="45.74127" lon="6.4806">
        <ele>1496</ele>
        <time>2022-07-23T14:50:46Z</time>
      </trkpt>
      <trkpt lat="45.74128" lon="6.4806">
        <ele>1496</ele>
        <time>2022-07-23T14:50:47Z</time>
      </trkpt>
      <trkpt lat="45.74129" lon="6.48061">
        <ele>1496</ele>
        <time>2022-07-23T14:50:48Z</time>
      </trkpt>
      <trkpt lat="45.7413" lon="6.48061">
        <ele>1496</ele>
        <time>2022-07-23T14:50:49Z</time>
      </trkpt>
      <trkpt lat="45.74131" lon="6.48061">
        <ele>1496</ele>
        <time>2022-07-23T14:50:50Z</time>
      </trkpt>
      <trkpt lat="45.74132" lon="6.48062">
        <ele>1495</ele>
        <time>2022-07-23T14:50:51Z</time>
      </trkpt>
      <trkpt lat="45.74133" lon="6.48062">
        <ele>1495</ele>
        <time>2022-07-23T14:50:52Z</time>
      </trkpt>
      <trkpt lat="45.74134" lon="6.48062">
        <ele>1495</ele>
        <time>2022-07-23T14:50:53Z</time>
      </trkpt>
      <trkpt lat="45.74135" lon="6.48062">
        <ele>1495</ele>
        <time>2022-07-23T14:50:54Z</time>
      </trkpt>
      <trkpt lat="45.74137" lon="6.48062">
        <ele>1495</ele>
        <time>2022-07-23T14:50:55Z</time>
      </trkpt>
      <trkpt lat="45.74138" lon="6.48062">
        <ele>1494</ele>
        <time>2022-07-23T14:50:56Z</time>
      </trkpt>
      <trkpt lat="45.74139" lon="6.48062">
        <ele>1494</ele>
        <time>2022-07-23T14:50:57Z</time>
      </trkpt>
      <trkpt lat="45.7414" lon="6.48062">
        <ele>1494</ele>
        <time>2022-07-23T14:50:58Z</time>
      </trkpt>
      <trkpt lat="45.74141" lon="6.48062">
        <ele>1494</ele>
        <time>2022-07-23T14:50:59Z</time>
      </trkpt>
      <trkpt lat="45.74142" lon="6.48061">
        <ele>1494</ele>
        <time>2022-07-23T14:51:00Z</time>
      </trkpt>
      <trkpt lat="45.74144" lon="6.48061">
        <ele>1493</ele>
        <time>2022-07-23T14:51:01Z</time>
      </trkpt>
      <trkpt lat="45.74145" lon="6.48061">
        <ele>1493</ele>
        <time>2022-07-23T14:51:02Z</time>
      </trkpt>
      <trkpt lat="45.74146" lon="6.4806">
        <ele>1492</ele>
        <time>2022-07-23T14:51:03Z</time>
      </trkpt>
      <trkpt lat="45.74148" lon="6.4806">
        <ele>1492</ele>
        <time>2022-07-23T14:51:04Z</time>
      </trkpt>
      <trkpt lat="45.74149" lon="6.4806">
        <ele>1492</ele>
        <time>2022-07-23T14:51:05Z</time>
      </trkpt>
      <trkpt lat="45.7415" lon="6.48059">
        <ele>1491</ele>
        <time>2022-07-23T14:51:06Z</time>
      </trkpt>
      <trkpt lat="45.74152" lon="6.48059">
        <ele>1491</ele>
        <time>2022-07-23T14:51:07Z</time>
      </trkpt>
      <trkpt lat="45.74153" lon="6.48059">
        <ele>1491</ele>
        <time>2022-07-23T14:51:08Z</time>
      </trkpt>
      <trkpt lat="45.74154" lon="6.48059">
        <ele>1491</ele>
        <time>2022-07-23T14:51:09Z</time>
      </trkpt>
      <trkpt lat="45.74155" lon="6.48059">
        <ele>1491</ele>
        <time>2022-07-23T14:51:10Z</time>
      </trkpt>
      <trkpt lat="45.74156" lon="6.48058">
        <ele>1490</ele>
        <time>2022-07-23T14:51:11Z</time>
      </trkpt>
      <trkpt lat="45.74158" lon="6.48058">
        <ele>1490</ele>
        <time>2022-07-23T14:51:12Z</time>
      </trkpt>
      <trkpt lat="45.74159" lon="6.48058">
        <ele>1490</ele>
        <time>2022-07-23T14:51:13Z</time>
      </trkpt>
      <trkpt lat="45.7416" lon="6.48057">
        <ele>1490</ele>
        <time>2022-07-23T14:51:14Z</time>
      </trkpt>
      <trkpt lat="45.74162" lon="6.48057">
        <ele>1490</ele>
        <time>2022-07-23T14:51:15Z</time>
      </trkpt>
      <trkpt lat="45.74163" lon="6.48057">
        <ele>1489</ele>
        <time>2022-07-23T14:51:16Z</time>
      </trkpt>
      <trkpt lat="45.74164" lon="6.48056">
        <ele>1489</ele>
        <time>2022-07-23T14:51:17Z</time>
      </trkpt>
      <trkpt lat="45.74166" lon="6.48056">
        <ele>1489</ele>
        <time>2022-07-23T14:51:18Z</time>
      </trkpt>
      <trkpt lat="45.74167" lon="6.48055">
        <ele>1489</ele>
        <time>2022-07-23T14:51:19Z</time>
      </trkpt>
      <trkpt lat="45.74168" lon="6.48055">
        <ele>1489</ele>
        <time>2022-07-23T14:51:20Z</time>
      </trkpt>
      <trkpt lat="45.74169" lon="6.48054">
        <ele>1489</ele>
        <time>2022-07-23T14:51:21Z</time>
      </trkpt>
      <trkpt lat="45.7417" lon="6.48054">
        <ele>1489</ele>
        <time>2022-07-23T14:51:22Z</time>
      </trkpt>
      <trkpt lat="45.74171" lon="6.48053">
        <ele>1489</ele>
        <time>2022-07-23T14:51:23Z</time>
      </trkpt>
      <trkpt lat="45.74172" lon="6.48053">
        <ele>1489</ele>
        <time>2022-07-23T14:51:24Z</time>
      </trkpt>
      <trkpt lat="45.74174" lon="6.48053">
        <ele>1487</ele>
        <time>2022-07-23T14:51:36Z</time>
      </trkpt>
      <trkpt lat="45.74175" lon="6.48053">
        <ele>1487</ele>
        <time>2022-07-23T14:51:37Z</time>
      </trkpt>
      <trkpt lat="45.74176" lon="6.48053">
        <ele>1487</ele>
        <time>2022-07-23T14:51:38Z</time>
      </trkpt>
      <trkpt lat="45.74176" lon="6.48053">
        <ele>1487</ele>
        <time>2022-07-23T14:51:39Z</time>
      </trkpt>
      <trkpt lat="45.74177" lon="6.48053">
        <ele>1487</ele>
        <time>2022-07-23T14:51:40Z</time>
      </trkpt>
      <trkpt lat="45.74178" lon="6.48053">
        <ele>1486</ele>
        <time>2022-07-23T14:51:41Z</time>
      </trkpt>
      <trkpt lat="45.74179" lon="6.48053">
        <ele>1486</ele>
        <time>2022-07-23T14:51:42Z</time>
      </trkpt>
      <trkpt lat="45.7418" lon="6.48054">
        <ele>1486</ele>
        <time>2022-07-23T14:51:43Z</time>
      </trkpt>
      <trkpt lat="45.74181" lon="6.48054">
        <ele>1486</ele>
        <time>2022-07-23T14:51:44Z</time>
      </trkpt>
      <trkpt lat="45.74182" lon="6.48054">
        <ele>1486</ele>
        <time>2022-07-23T14:51:45Z</time>
      </trkpt>
      <trkpt lat="45.74183" lon="6.48055">
        <ele>1486</ele>
        <time>2022-07-23T14:51:46Z</time>
      </trkpt>
      <trkpt lat="45.74184" lon="6.48055">
        <ele>1486</ele>
        <time>2022-07-23T14:51:47Z</time>
      </trkpt>
      <trkpt lat="45.74185" lon="6.48055">
        <ele>1486</ele>
        <time>2022-07-23T14:51:48Z</time>
      </trkpt>
      <trkpt lat="45.74186" lon="6.48056">
        <ele>1486</ele>
        <time>2022-07-23T14:51:49Z</time>
      </trkpt>
      <trkpt lat="45.74187" lon="6.48056">
        <ele>1486</ele>
        <time>2022-07-23T14:51:50Z</time>
      </trkpt>
      <trkpt lat="45.74188" lon="6.48056">
        <ele>1486</ele>
        <time>2022-07-23T14:51:51Z</time>
      </trkpt>
      <trkpt lat="45.74189" lon="6.48057">
        <ele>1486</ele>
        <time>2022-07-23T14:51:52Z</time>
      </trkpt>
      <trkpt lat="45.74189" lon="6.48057">
        <ele>1486</ele>
        <time>2022-07-23T14:51:53Z</time>
      </trkpt>
      <trkpt lat="45.7419" lon="6.48057">
        <ele>1486</ele>
        <time>2022-07-23T14:51:54Z</time>
      </trkpt>
      <trkpt lat="45.74191" lon="6.48057">
        <ele>1486</ele>
        <time>2022-07-23T14:51:55Z</time>
      </trkpt>
      <trkpt lat="45.74192" lon="6.48058">
        <ele>1486</ele>
        <time>2022-07-23T14:51:56Z</time>
      </trkpt>
      <trkpt lat="45.74193" lon="6.48058">
        <ele>1486</ele>
        <time>2022-07-23T14:51:57Z</time>
      </trkpt>
      <trkpt lat="45.74194" lon="6.48058">
        <ele>1486</ele>
        <time>2022-07-23T14:51:58Z</time>
      </trkpt>
      <trkpt lat="45.74195" lon="6.48058">
        <ele>1486</ele>
        <time>2022-07-23T14:51:59Z</time>
      </trkpt>
      <trkpt lat="45.74196" lon="6.48059">
        <ele>1486</ele>
        <time>2022-07-23T14:52:00Z</time>
      </trkpt>
      <trkpt lat="45.74197" lon="6.48059">
        <ele>1486</ele>
        <time>2022-07-23T14:52:01Z</time>
      </trkpt>
      <trkpt lat="45.74198" lon="6.48059">
        <ele>1486</ele>
        <time>2022-07-23T14:52:02Z</time>
      </trkpt>
      <trkpt lat="45.74199" lon="6.48059">
        <ele>1486</ele>
        <time>2022-07-23T14:52:03Z</time>
      </trkpt>
      <trkpt lat="45.742" lon="6.4806">
        <ele>1486</ele>
        <time>2022-07-23T14:52:04Z</time>
      </trkpt>
      <trkpt lat="45.74201" lon="6.4806">
        <ele>1486</ele>
        <time>2022-07-23T14:52:05Z</time>
      </trkpt>
      <trkpt lat="45.74202" lon="6.4806">
        <ele>1486</ele>
        <time>2022-07-23T14:52:06Z</time>
      </trkpt>
      <trkpt lat="45.74202" lon="6.4806">
        <ele>1486</ele>
        <time>2022-07-23T14:52:07Z</time>
      </trkpt>
      <trkpt lat="45.74203" lon="6.48061">
        <ele>1486</ele>
        <time>2022-07-23T14:52:08Z</time>
      </trkpt>
      <trkpt lat="45.74204" lon="6.48061">
        <ele>1486</ele>
        <time>2022-07-23T14:52:09Z</time>
      </trkpt>
      <trkpt lat="45.74205" lon="6.48061">
        <ele>1487</ele>
        <time>2022-07-23T14:52:10Z</time>
      </trkpt>
      <trkpt lat="45.74206" lon="6.48062">
        <ele>1487</ele>
        <time>2022-07-23T14:52:11Z</time>
      </trkpt>
      <trkpt lat="45.74207" lon="6.48062">
        <ele>1487</ele>
        <time>2022-07-23T14:52:12Z</time>
      </trkpt>
      <trkpt lat="45.74207" lon="6.48063">
        <ele>1487</ele>
        <time>2022-07-23T14:52:13Z</time>
      </trkpt>
      <trkpt lat="45.74208" lon="6.48064">
        <ele>1487</ele>
        <time>2022-07-23T14:52:14Z</time>
      </trkpt>
      <trkpt lat="45.74209" lon="6.48065">
        <ele>1487</ele>
        <time>2022-07-23T14:52:15Z</time>
      </trkpt>
      <trkpt lat="45.7421" lon="6.48065">
        <ele>1487</ele>
        <time>2022-07-23T14:52:16Z</time>
      </trkpt>
      <trkpt lat="45.74211" lon="6.48066">
        <ele>1487</ele>
        <time>2022-07-23T14:52:17Z</time>
      </trkpt>
      <trkpt lat="45.74212" lon="6.48067">
        <ele>1487</ele>
        <time>2022-07-23T14:52:18Z</time>
      </trkpt>
      <trkpt lat="45.74213" lon="6.48068">
        <ele>1487</ele>
        <time>2022-07-23T14:52:19Z</time>
      </trkpt>
      <trkpt lat="45.74214" lon="6.48068">
        <ele>1488</ele>
        <time>2022-07-23T14:52:20Z</time>
      </trkpt>
      <trkpt lat="45.74215" lon="6.48069">
        <ele>1488</ele>
        <time>2022-07-23T14:52:21Z</time>
      </trkpt>
      <trkpt lat="45.74216" lon="6.4807">
        <ele>1488</ele>
        <time>2022-07-23T14:52:22Z</time>
      </trkpt>
      <trkpt lat="45.74217" lon="6.48071">
        <ele>1488</ele>
        <time>2022-07-23T14:52:23Z</time>
      </trkpt>
      <trkpt lat="45.74218" lon="6.48071">
        <ele>1488</ele>
        <time>2022-07-23T14:52:24Z</time>
      </trkpt>
      <trkpt lat="45.74219" lon="6.48072">
        <ele>1488</ele>
        <time>2022-07-23T14:52:25Z</time>
      </trkpt>
      <trkpt lat="45.7422" lon="6.48073">
        <ele>1488</ele>
        <time>2022-07-23T14:52:26Z</time>
      </trkpt>
      <trkpt lat="45.74221" lon="6.48074">
        <ele>1488</ele>
        <time>2022-07-23T14:52:27Z</time>
      </trkpt>
      <trkpt lat="45.74222" lon="6.48074">
        <ele>1488</ele>
        <time>2022-07-23T14:52:28Z</time>
      </trkpt>
      <trkpt lat="45.74222" lon="6.48075">
        <ele>1488</ele>
        <time>2022-07-23T14:52:29Z</time>
      </trkpt>
      <trkpt lat="45.74223" lon="6.48076">
        <ele>1489</ele>
        <time>2022-07-23T14:52:30Z</time>
      </trkpt>
      <trkpt lat="45.74224" lon="6.48077">
        <ele>1489</ele>
        <time>2022-07-23T14:52:31Z</time>
      </trkpt>
      <trkpt lat="45.74225" lon="6.48078">
        <ele>1489</ele>
        <time>2022-07-23T14:52:32Z</time>
      </trkpt>
      <trkpt lat="45.74225" lon="6.48079">
        <ele>1489</ele>
        <time>2022-07-23T14:52:33Z</time>
      </trkpt>
      <trkpt lat="45.74226" lon="6.4808">
        <ele>1489</ele>
        <time>2022-07-23T14:52:34Z</time>
      </trkpt>
      <trkpt lat="45.74227" lon="6.48081">
        <ele>1490</ele>
        <time>2022-07-23T14:52:35Z</time>
      </trkpt>
      <trkpt lat="45.74227" lon="6.48082">
        <ele>1490</ele>
        <time>2022-07-23T14:52:36Z</time>
      </trkpt>
      <trkpt lat="45.74228" lon="6.48083">
        <ele>1490</ele>
        <time>2022-07-23T14:52:37Z</time>
      </trkpt>
      <trkpt lat="45.74229" lon="6.48084">
        <ele>1490</ele>
        <time>2022-07-23T14:52:38Z</time>
      </trkpt>
      <trkpt lat="45.74229" lon="6.48085">
        <ele>1490</ele>
        <time>2022-07-23T14:52:39Z</time>
      </trkpt>
      <trkpt lat="45.7423" lon="6.48086">
        <ele>1490</ele>
        <time>2022-07-23T14:52:40Z</time>
      </trkpt>
      <trkpt lat="45.7423" lon="6.48087">
        <ele>1490</ele>
        <time>2022-07-23T14:52:41Z</time>
      </trkpt>
      <trkpt lat="45.74231" lon="6.48088">
        <ele>1490</ele>
        <time>2022-07-23T14:52:42Z</time>
      </trkpt>
      <trkpt lat="45.74232" lon="6.48089">
        <ele>1490</ele>
        <time>2022-07-23T14:52:43Z</time>
      </trkpt>
      <trkpt lat="45.74232" lon="6.4809">
        <ele>1490</ele>
        <time>2022-07-23T14:52:44Z</time>
      </trkpt>
      <trkpt lat="45.74233" lon="6.48092">
        <ele>1490</ele>
        <time>2022-07-23T14:52:45Z</time>
      </trkpt>
      <trkpt lat="45.74234" lon="6.48093">
        <ele>1490</ele>
        <time>2022-07-23T14:52:46Z</time>
      </trkpt>
      <trkpt lat="45.74234" lon="6.48094">
        <ele>1490</ele>
        <time>2022-07-23T14:52:47Z</time>
      </trkpt>
      <trkpt lat="45.74235" lon="6.48095">
        <ele>1490</ele>
        <time>2022-07-23T14:52:48Z</time>
      </trkpt>
      <trkpt lat="45.74236" lon="6.48097">
        <ele>1490</ele>
        <time>2022-07-23T14:52:49Z</time>
      </trkpt>
      <trkpt lat="45.74236" lon="6.48098">
        <ele>1491</ele>
        <time>2022-07-23T14:52:50Z</time>
      </trkpt>
      <trkpt lat="45.74237" lon="6.48099">
        <ele>1491</ele>
        <time>2022-07-23T14:52:51Z</time>
      </trkpt>
      <trkpt lat="45.74237" lon="6.48101">
        <ele>1491</ele>
        <time>2022-07-23T14:52:52Z</time>
      </trkpt>
      <trkpt lat="45.74238" lon="6.48102">
        <ele>1491</ele>
        <time>2022-07-23T14:52:53Z</time>
      </trkpt>
      <trkpt lat="45.74238" lon="6.48103">
        <ele>1491</ele>
        <time>2022-07-23T14:52:54Z</time>
      </trkpt>
      <trkpt lat="45.74239" lon="6.48104">
        <ele>1491</ele>
        <time>2022-07-23T14:52:55Z</time>
      </trkpt>
      <trkpt lat="45.7424" lon="6.48105">
        <ele>1491</ele>
        <time>2022-07-23T14:52:56Z</time>
      </trkpt>
      <trkpt lat="45.7424" lon="6.48107">
        <ele>1491</ele>
        <time>2022-07-23T14:52:57Z</time>
      </trkpt>
      <trkpt lat="45.74241" lon="6.48108">
        <ele>1491</ele>
        <time>2022-07-23T14:52:58Z</time>
      </trkpt>
      <trkpt lat="45.74242" lon="6.48109">
        <ele>1491</ele>
        <time>2022-07-23T14:52:59Z</time>
      </trkpt>
      <trkpt lat="45.74242" lon="6.4811">
        <ele>1492</ele>
        <time>2022-07-23T14:53:00Z</time>
      </trkpt>
      <trkpt lat="45.74243" lon="6.48111">
        <ele>1492</ele>
        <time>2022-07-23T14:53:01Z</time>
      </trkpt>
      <trkpt lat="45.74244" lon="6.48112">
        <ele>1492</ele>
        <time>2022-07-23T14:53:02Z</time>
      </trkpt>
      <trkpt lat="45.74245" lon="6.48113">
        <ele>1492</ele>
        <time>2022-07-23T14:53:03Z</time>
      </trkpt>
      <trkpt lat="45.74246" lon="6.48114">
        <ele>1492</ele>
        <time>2022-07-23T14:53:04Z</time>
      </trkpt>
      <trkpt lat="45.74246" lon="6.48115">
        <ele>1492</ele>
        <time>2022-07-23T14:53:05Z</time>
      </trkpt>
      <trkpt lat="45.74247" lon="6.48115">
        <ele>1492</ele>
        <time>2022-07-23T14:53:06Z</time>
      </trkpt>
      <trkpt lat="45.74248" lon="6.48116">
        <ele>1492</ele>
        <time>2022-07-23T14:53:07Z</time>
      </trkpt>
      <trkpt lat="45.74249" lon="6.48117">
        <ele>1492</ele>
        <time>2022-07-23T14:53:08Z</time>
      </trkpt>
      <trkpt lat="45.7425" lon="6.48118">
        <ele>1492</ele>
        <time>2022-07-23T14:53:09Z</time>
      </trkpt>
      <trkpt lat="45.7425" lon="6.48118">
        <ele>1492</ele>
        <time>2022-07-23T14:53:10Z</time>
      </trkpt>
      <trkpt lat="45.74251" lon="6.48119">
        <ele>1492</ele>
        <time>2022-07-23T14:53:11Z</time>
      </trkpt>
      <trkpt lat="45.74252" lon="6.4812">
        <ele>1492</ele>
        <time>2022-07-23T14:53:12Z</time>
      </trkpt>
      <trkpt lat="45.74253" lon="6.4812">
        <ele>1493</ele>
        <time>2022-07-23T14:53:13Z</time>
      </trkpt>
      <trkpt lat="45.74253" lon="6.48121">
        <ele>1493</ele>
        <time>2022-07-23T14:53:14Z</time>
      </trkpt>
      <trkpt lat="45.74254" lon="6.48122">
        <ele>1494</ele>
        <time>2022-07-23T14:53:15Z</time>
      </trkpt>
      <trkpt lat="45.74254" lon="6.48123">
        <ele>1494</ele>
        <time>2022-07-23T14:53:16Z</time>
      </trkpt>
      <trkpt lat="45.74255" lon="6.48124">
        <ele>1494</ele>
        <time>2022-07-23T14:53:17Z</time>
      </trkpt>
      <trkpt lat="45.74256" lon="6.48125">
        <ele>1494</ele>
        <time>2022-07-23T14:53:18Z</time>
      </trkpt>
      <trkpt lat="45.74257" lon="6.48126">
        <ele>1494</ele>
        <time>2022-07-23T14:53:19Z</time>
      </trkpt>
      <trkpt lat="45.74258" lon="6.48127">
        <ele>1494</ele>
        <time>2022-07-23T14:53:20Z</time>
      </trkpt>
      <trkpt lat="45.74259" lon="6.48127">
        <ele>1494</ele>
        <time>2022-07-23T14:53:21Z</time>
      </trkpt>
      <trkpt lat="45.7426" lon="6.48128">
        <ele>1494</ele>
        <time>2022-07-23T14:53:22Z</time>
      </trkpt>
      <trkpt lat="45.74261" lon="6.48129">
        <ele>1494</ele>
        <time>2022-07-23T14:53:23Z</time>
      </trkpt>
      <trkpt lat="45.74261" lon="6.48129">
        <ele>1494</ele>
        <time>2022-07-23T14:53:24Z</time>
      </trkpt>
      <trkpt lat="45.74262" lon="6.4813">
        <ele>1494</ele>
        <time>2022-07-23T14:53:25Z</time>
      </trkpt>
      <trkpt lat="45.74263" lon="6.48131">
        <ele>1494</ele>
        <time>2022-07-23T14:53:26Z</time>
      </trkpt>
      <trkpt lat="45.74264" lon="6.48132">
        <ele>1494</ele>
        <time>2022-07-23T14:53:27Z</time>
      </trkpt>
      <trkpt lat="45.74265" lon="6.48133">
        <ele>1494</ele>
        <time>2022-07-23T14:53:28Z</time>
      </trkpt>
      <trkpt lat="45.74266" lon="6.48133">
        <ele>1494</ele>
        <time>2022-07-23T14:53:29Z</time>
      </trkpt>
      <trkpt lat="45.74266" lon="6.48134">
        <ele>1495</ele>
        <time>2022-07-23T14:53:30Z</time>
      </trkpt>
      <trkpt lat="45.74267" lon="6.48135">
        <ele>1495</ele>
        <time>2022-07-23T14:53:31Z</time>
      </trkpt>
      <trkpt lat="45.74268" lon="6.48135">
        <ele>1495</ele>
        <time>2022-07-23T14:53:32Z</time>
      </trkpt>
      <trkpt lat="45.74269" lon="6.48136">
        <ele>1495</ele>
        <time>2022-07-23T14:53:33Z</time>
      </trkpt>
      <trkpt lat="45.7427" lon="6.48137">
        <ele>1495</ele>
        <time>2022-07-23T14:53:34Z</time>
      </trkpt>
      <trkpt lat="45.74271" lon="6.48137">
        <ele>1495</ele>
        <time>2022-07-23T14:53:35Z</time>
      </trkpt>
      <trkpt lat="45.74271" lon="6.48138">
        <ele>1495</ele>
        <time>2022-07-23T14:53:36Z</time>
      </trkpt>
      <trkpt lat="45.74272" lon="6.48139">
        <ele>1495</ele>
        <time>2022-07-23T14:53:37Z</time>
      </trkpt>
      <trkpt lat="45.74273" lon="6.4814">
        <ele>1495</ele>
        <time>2022-07-23T14:53:38Z</time>
      </trkpt>
      <trkpt lat="45.74274" lon="6.4814">
        <ele>1495</ele>
        <time>2022-07-23T14:53:39Z</time>
      </trkpt>
      <trkpt lat="45.74275" lon="6.48141">
        <ele>1495</ele>
        <time>2022-07-23T14:53:40Z</time>
      </trkpt>
      <trkpt lat="45.74275" lon="6.48141">
        <ele>1495</ele>
        <time>2022-07-23T14:53:41Z</time>
      </trkpt>
      <trkpt lat="45.74276" lon="6.48142">
        <ele>1495</ele>
        <time>2022-07-23T14:53:42Z</time>
      </trkpt>
      <trkpt lat="45.74277" lon="6.48143">
        <ele>1495</ele>
        <time>2022-07-23T14:53:43Z</time>
      </trkpt>
      <trkpt lat="45.74278" lon="6.48144">
        <ele>1495</ele>
        <time>2022-07-23T14:53:44Z</time>
      </trkpt>
      <trkpt lat="45.74279" lon="6.48144">
        <ele>1496</ele>
        <time>2022-07-23T14:53:45Z</time>
      </trkpt>
      <trkpt lat="45.7428" lon="6.48145">
        <ele>1496</ele>
        <time>2022-07-23T14:53:46Z</time>
      </trkpt>
      <trkpt lat="45.74281" lon="6.48146">
        <ele>1496</ele>
        <time>2022-07-23T14:53:47Z</time>
      </trkpt>
      <trkpt lat="45.74282" lon="6.48146">
        <ele>1496</ele>
        <time>2022-07-23T14:53:48Z</time>
      </trkpt>
      <trkpt lat="45.74283" lon="6.48147">
        <ele>1496</ele>
        <time>2022-07-23T14:53:49Z</time>
      </trkpt>
      <trkpt lat="45.74284" lon="6.48148">
        <ele>1496</ele>
        <time>2022-07-23T14:53:50Z</time>
      </trkpt>
      <trkpt lat="45.74285" lon="6.48149">
        <ele>1496</ele>
        <time>2022-07-23T14:53:51Z</time>
      </trkpt>
      <trkpt lat="45.74286" lon="6.4815">
        <ele>1496</ele>
        <time>2022-07-23T14:53:52Z</time>
      </trkpt>
      <trkpt lat="45.74287" lon="6.48151">
        <ele>1496</ele>
        <time>2022-07-23T14:53:53Z</time>
      </trkpt>
      <trkpt lat="45.74288" lon="6.48152">
        <ele>1496</ele>
        <time>2022-07-23T14:53:54Z</time>
      </trkpt>
      <trkpt lat="45.74289" lon="6.48153">
        <ele>1497</ele>
        <time>2022-07-23T14:53:55Z</time>
      </trkpt>
      <trkpt lat="45.74289" lon="6.48154">
        <ele>1497</ele>
        <time>2022-07-23T14:53:56Z</time>
      </trkpt>
      <trkpt lat="45.7429" lon="6.48155">
        <ele>1497</ele>
        <time>2022-07-23T14:53:57Z</time>
      </trkpt>
      <trkpt lat="45.74291" lon="6.48156">
        <ele>1497</ele>
        <time>2022-07-23T14:53:58Z</time>
      </trkpt>
      <trkpt lat="45.74291" lon="6.48157">
        <ele>1497</ele>
        <time>2022-07-23T14:53:59Z</time>
      </trkpt>
      <trkpt lat="45.74292" lon="6.48158">
        <ele>1497</ele>
        <time>2022-07-23T14:54:00Z</time>
      </trkpt>
      <trkpt lat="45.74293" lon="6.4816">
        <ele>1497</ele>
        <time>2022-07-23T14:54:01Z</time>
      </trkpt>
      <trkpt lat="45.74293" lon="6.48161">
        <ele>1497</ele>
        <time>2022-07-23T14:54:02Z</time>
      </trkpt>
      <trkpt lat="45.74294" lon="6.48162">
        <ele>1497</ele>
        <time>2022-07-23T14:54:03Z</time>
      </trkpt>
      <trkpt lat="45.74294" lon="6.48164">
        <ele>1497</ele>
        <time>2022-07-23T14:54:04Z</time>
      </trkpt>
      <trkpt lat="45.74295" lon="6.48166">
        <ele>1497</ele>
        <time>2022-07-23T14:54:05Z</time>
      </trkpt>
      <trkpt lat="45.74295" lon="6.48167">
        <ele>1497</ele>
        <time>2022-07-23T14:54:06Z</time>
      </trkpt>
      <trkpt lat="45.74296" lon="6.48169">
        <ele>1497</ele>
        <time>2022-07-23T14:54:07Z</time>
      </trkpt>
      <trkpt lat="45.74297" lon="6.4817">
        <ele>1497</ele>
        <time>2022-07-23T14:54:08Z</time>
      </trkpt>
      <trkpt lat="45.74297" lon="6.48172">
        <ele>1497</ele>
        <time>2022-07-23T14:54:09Z</time>
      </trkpt>
      <trkpt lat="45.74298" lon="6.48173">
        <ele>1498</ele>
        <time>2022-07-23T14:54:10Z</time>
      </trkpt>
      <trkpt lat="45.74299" lon="6.48174">
        <ele>1498</ele>
        <time>2022-07-23T14:54:11Z</time>
      </trkpt>
      <trkpt lat="45.743" lon="6.48175">
        <ele>1498</ele>
        <time>2022-07-23T14:54:12Z</time>
      </trkpt>
      <trkpt lat="45.743" lon="6.48176">
        <ele>1498</ele>
        <time>2022-07-23T14:54:13Z</time>
      </trkpt>
      <trkpt lat="45.74301" lon="6.48177">
        <ele>1498</ele>
        <time>2022-07-23T14:54:14Z</time>
      </trkpt>
      <trkpt lat="45.74302" lon="6.48178">
        <ele>1498</ele>
        <time>2022-07-23T14:54:15Z</time>
      </trkpt>
      <trkpt lat="45.74303" lon="6.48179">
        <ele>1498</ele>
        <time>2022-07-23T14:54:16Z</time>
      </trkpt>
      <trkpt lat="45.74303" lon="6.4818">
        <ele>1498</ele>
        <time>2022-07-23T14:54:17Z</time>
      </trkpt>
      <trkpt lat="45.74304" lon="6.48181">
        <ele>1498</ele>
        <time>2022-07-23T14:54:18Z</time>
      </trkpt>
      <trkpt lat="45.74305" lon="6.48182">
        <ele>1498</ele>
        <time>2022-07-23T14:54:19Z</time>
      </trkpt>
      <trkpt lat="45.74305" lon="6.48183">
        <ele>1498</ele>
        <time>2022-07-23T14:54:20Z</time>
      </trkpt>
      <trkpt lat="45.74306" lon="6.48184">
        <ele>1498</ele>
        <time>2022-07-23T14:54:21Z</time>
      </trkpt>
      <trkpt lat="45.74307" lon="6.48186">
        <ele>1498</ele>
        <time>2022-07-23T14:54:22Z</time>
      </trkpt>
      <trkpt lat="45.74307" lon="6.48187">
        <ele>1498</ele>
        <time>2022-07-23T14:54:23Z</time>
      </trkpt>
      <trkpt lat="45.74308" lon="6.48188">
        <ele>1498</ele>
        <time>2022-07-23T14:54:24Z</time>
      </trkpt>
      <trkpt lat="45.74308" lon="6.48189">
        <ele>1499</ele>
        <time>2022-07-23T14:54:25Z</time>
      </trkpt>
      <trkpt lat="45.74309" lon="6.4819">
        <ele>1499</ele>
        <time>2022-07-23T14:54:26Z</time>
      </trkpt>
      <trkpt lat="45.74309" lon="6.48192">
        <ele>1499</ele>
        <time>2022-07-23T14:54:27Z</time>
      </trkpt>
      <trkpt lat="45.7431" lon="6.48193">
        <ele>1499</ele>
        <time>2022-07-23T14:54:28Z</time>
      </trkpt>
      <trkpt lat="45.74311" lon="6.48195">
        <ele>1499</ele>
        <time>2022-07-23T14:54:29Z</time>
      </trkpt>
      <trkpt lat="45.74311" lon="6.48196">
        <ele>1499</ele>
        <time>2022-07-23T14:54:30Z</time>
      </trkpt>
      <trkpt lat="45.74312" lon="6.48197">
        <ele>1499</ele>
        <time>2022-07-23T14:54:31Z</time>
      </trkpt>
      <trkpt lat="45.74313" lon="6.48198">
        <ele>1499</ele>
        <time>2022-07-23T14:54:32Z</time>
      </trkpt>
      <trkpt lat="45.74313" lon="6.482">
        <ele>1499</ele>
        <time>2022-07-23T14:54:33Z</time>
      </trkpt>
      <trkpt lat="45.74314" lon="6.48201">
        <ele>1499</ele>
        <time>2022-07-23T14:54:34Z</time>
      </trkpt>
      <trkpt lat="45.74315" lon="6.48202">
        <ele>1500</ele>
        <time>2022-07-23T14:54:35Z</time>
      </trkpt>
      <trkpt lat="45.74315" lon="6.48203">
        <ele>1500</ele>
        <time>2022-07-23T14:54:36Z</time>
      </trkpt>
      <trkpt lat="45.74316" lon="6.48204">
        <ele>1500</ele>
        <time>2022-07-23T14:54:37Z</time>
      </trkpt>
      <trkpt lat="45.74317" lon="6.48205">
        <ele>1500</ele>
        <time>2022-07-23T14:54:38Z</time>
      </trkpt>
      <trkpt lat="45.74317" lon="6.48206">
        <ele>1500</ele>
        <time>2022-07-23T14:54:39Z</time>
      </trkpt>
      <trkpt lat="45.74318" lon="6.48207">
        <ele>1500</ele>
        <time>2022-07-23T14:54:40Z</time>
      </trkpt>
      <trkpt lat="45.74318" lon="6.48209">
        <ele>1500</ele>
        <time>2022-07-23T14:54:41Z</time>
      </trkpt>
      <trkpt lat="45.74318" lon="6.4821">
        <ele>1500</ele>
        <time>2022-07-23T14:54:42Z</time>
      </trkpt>
      <trkpt lat="45.74318" lon="6.48211">
        <ele>1500</ele>
        <time>2022-07-23T14:54:43Z</time>
      </trkpt>
      <trkpt lat="45.74319" lon="6.48212">
        <ele>1500</ele>
        <time>2022-07-23T14:54:44Z</time>
      </trkpt>
      <trkpt lat="45.74319" lon="6.48213">
        <ele>1500</ele>
        <time>2022-07-23T14:54:45Z</time>
      </trkpt>
      <trkpt lat="45.74319" lon="6.48215">
        <ele>1500</ele>
        <time>2022-07-23T14:54:46Z</time>
      </trkpt>
      <trkpt lat="45.7432" lon="6.48216">
        <ele>1500</ele>
        <time>2022-07-23T14:54:47Z</time>
      </trkpt>
      <trkpt lat="45.7432" lon="6.48217">
        <ele>1500</ele>
        <time>2022-07-23T14:54:48Z</time>
      </trkpt>
      <trkpt lat="45.7432" lon="6.48218">
        <ele>1500</ele>
        <time>2022-07-23T14:54:49Z</time>
      </trkpt>
      <trkpt lat="45.74321" lon="6.4822">
        <ele>1501</ele>
        <time>2022-07-23T14:54:50Z</time>
      </trkpt>
      <trkpt lat="45.74322" lon="6.48221">
        <ele>1501</ele>
        <time>2022-07-23T14:54:51Z</time>
      </trkpt>
      <trkpt lat="45.74322" lon="6.48222">
        <ele>1501</ele>
        <time>2022-07-23T14:54:52Z</time>
      </trkpt>
      <trkpt lat="45.74323" lon="6.48224">
        <ele>1501</ele>
        <time>2022-07-23T14:54:53Z</time>
      </trkpt>
      <trkpt lat="45.74324" lon="6.48225">
        <ele>1501</ele>
        <time>2022-07-23T14:54:54Z</time>
      </trkpt>
      <trkpt lat="45.74325" lon="6.48226">
        <ele>1501</ele>
        <time>2022-07-23T14:54:55Z</time>
      </trkpt>
      <trkpt lat="45.74325" lon="6.48228">
        <ele>1501</ele>
        <time>2022-07-23T14:54:56Z</time>
      </trkpt>
      <trkpt lat="45.74326" lon="6.48229">
        <ele>1501</ele>
        <time>2022-07-23T14:54:57Z</time>
      </trkpt>
      <trkpt lat="45.74327" lon="6.48231">
        <ele>1501</ele>
        <time>2022-07-23T14:54:58Z</time>
      </trkpt>
      <trkpt lat="45.74327" lon="6.48232">
        <ele>1501</ele>
        <time>2022-07-23T14:54:59Z</time>
      </trkpt>
      <trkpt lat="45.74328" lon="6.48233">
        <ele>1502</ele>
        <time>2022-07-23T14:55:00Z</time>
      </trkpt>
      <trkpt lat="45.74329" lon="6.48234">
        <ele>1502</ele>
        <time>2022-07-23T14:55:01Z</time>
      </trkpt>
      <trkpt lat="45.74329" lon="6.48236">
        <ele>1502</ele>
        <time>2022-07-23T14:55:02Z</time>
      </trkpt>
      <trkpt lat="45.7433" lon="6.48237">
        <ele>1502</ele>
        <time>2022-07-23T14:55:03Z</time>
      </trkpt>
      <trkpt lat="45.74331" lon="6.48238">
        <ele>1502</ele>
        <time>2022-07-23T14:55:04Z</time>
      </trkpt>
      <trkpt lat="45.74331" lon="6.48239">
        <ele>1502</ele>
        <time>2022-07-23T14:55:05Z</time>
      </trkpt>
      <trkpt lat="45.74332" lon="6.4824">
        <ele>1502</ele>
        <time>2022-07-23T14:55:06Z</time>
      </trkpt>
      <trkpt lat="45.74333" lon="6.4824">
        <ele>1502</ele>
        <time>2022-07-23T14:55:07Z</time>
      </trkpt>
      <trkpt lat="45.74333" lon="6.48241">
        <ele>1502</ele>
        <time>2022-07-23T14:55:08Z</time>
      </trkpt>
      <trkpt lat="45.74334" lon="6.48242">
        <ele>1502</ele>
        <time>2022-07-23T14:55:09Z</time>
      </trkpt>
      <trkpt lat="45.74335" lon="6.48243">
        <ele>1502</ele>
        <time>2022-07-23T14:55:10Z</time>
      </trkpt>
      <trkpt lat="45.74335" lon="6.48244">
        <ele>1502</ele>
        <time>2022-07-23T14:55:11Z</time>
      </trkpt>
      <trkpt lat="45.74336" lon="6.48245">
        <ele>1502</ele>
        <time>2022-07-23T14:55:12Z</time>
      </trkpt>
      <trkpt lat="45.74337" lon="6.48246">
        <ele>1502</ele>
        <time>2022-07-23T14:55:13Z</time>
      </trkpt>
      <trkpt lat="45.74337" lon="6.48248">
        <ele>1502</ele>
        <time>2022-07-23T14:55:14Z</time>
      </trkpt>
      <trkpt lat="45.74338" lon="6.48249">
        <ele>1503</ele>
        <time>2022-07-23T14:55:15Z</time>
      </trkpt>
      <trkpt lat="45.74338" lon="6.4825">
        <ele>1503</ele>
        <time>2022-07-23T14:55:16Z</time>
      </trkpt>
      <trkpt lat="45.74338" lon="6.48251">
        <ele>1503</ele>
        <time>2022-07-23T14:55:17Z</time>
      </trkpt>
      <trkpt lat="45.74339" lon="6.48252">
        <ele>1503</ele>
        <time>2022-07-23T14:55:18Z</time>
      </trkpt>
      <trkpt lat="45.74339" lon="6.48254">
        <ele>1503</ele>
        <time>2022-07-23T14:55:19Z</time>
      </trkpt>
      <trkpt lat="45.74339" lon="6.48255">
        <ele>1503</ele>
        <time>2022-07-23T14:55:20Z</time>
      </trkpt>
      <trkpt lat="45.7434" lon="6.48256">
        <ele>1503</ele>
        <time>2022-07-23T14:55:21Z</time>
      </trkpt>
      <trkpt lat="45.7434" lon="6.48258">
        <ele>1503</ele>
        <time>2022-07-23T14:55:22Z</time>
      </trkpt>
      <trkpt lat="45.7434" lon="6.48259">
        <ele>1503</ele>
        <time>2022-07-23T14:55:23Z</time>
      </trkpt>
      <trkpt lat="45.74341" lon="6.4826">
        <ele>1503</ele>
        <time>2022-07-23T14:55:24Z</time>
      </trkpt>
      <trkpt lat="45.74341" lon="6.48261">
        <ele>1504</ele>
        <time>2022-07-23T14:55:25Z</time>
      </trkpt>
      <trkpt lat="45.74341" lon="6.48263">
        <ele>1504</ele>
        <time>2022-07-23T14:55:26Z</time>
      </trkpt>
      <trkpt lat="45.74341" lon="6.48264">
        <ele>1504</ele>
        <time>2022-07-23T14:55:27Z</time>
      </trkpt>
      <trkpt lat="45.74341" lon="6.48265">
        <ele>1504</ele>
        <time>2022-07-23T14:55:28Z</time>
      </trkpt>
      <trkpt lat="45.74342" lon="6.48266">
        <ele>1504</ele>
        <time>2022-07-23T14:55:29Z</time>
      </trkpt>
      <trkpt lat="45.74342" lon="6.48268">
        <ele>1504</ele>
        <time>2022-07-23T14:55:30Z</time>
      </trkpt>
      <trkpt lat="45.74342" lon="6.48269">
        <ele>1504</ele>
        <time>2022-07-23T14:55:31Z</time>
      </trkpt>
      <trkpt lat="45.74342" lon="6.4827">
        <ele>1504</ele>
        <time>2022-07-23T14:55:32Z</time>
      </trkpt>
      <trkpt lat="45.74342" lon="6.48272">
        <ele>1504</ele>
        <time>2022-07-23T14:55:33Z</time>
      </trkpt>
      <trkpt lat="45.74342" lon="6.48273">
        <ele>1504</ele>
        <time>2022-07-23T14:55:34Z</time>
      </trkpt>
      <trkpt lat="45.74342" lon="6.48275">
        <ele>1505</ele>
        <time>2022-07-23T14:55:35Z</time>
      </trkpt>
      <trkpt lat="45.74342" lon="6.48276">
        <ele>1505</ele>
        <time>2022-07-23T14:55:36Z</time>
      </trkpt>
      <trkpt lat="45.74342" lon="6.48278">
        <ele>1505</ele>
        <time>2022-07-23T14:55:37Z</time>
      </trkpt>
      <trkpt lat="45.74342" lon="6.48279">
        <ele>1505</ele>
        <time>2022-07-23T14:55:38Z</time>
      </trkpt>
      <trkpt lat="45.74342" lon="6.48281">
        <ele>1505</ele>
        <time>2022-07-23T14:55:39Z</time>
      </trkpt>
      <trkpt lat="45.74342" lon="6.48282">
        <ele>1505</ele>
        <time>2022-07-23T14:55:40Z</time>
      </trkpt>
      <trkpt lat="45.74342" lon="6.48284">
        <ele>1505</ele>
        <time>2022-07-23T14:55:41Z</time>
      </trkpt>
      <trkpt lat="45.74342" lon="6.48285">
        <ele>1505</ele>
        <time>2022-07-23T14:55:42Z</time>
      </trkpt>
      <trkpt lat="45.74342" lon="6.48287">
        <ele>1505</ele>
        <time>2022-07-23T14:55:43Z</time>
      </trkpt>
      <trkpt lat="45.74342" lon="6.48288">
        <ele>1505</ele>
        <time>2022-07-23T14:55:44Z</time>
      </trkpt>
      <trkpt lat="45.74341" lon="6.4829">
        <ele>1505</ele>
        <time>2022-07-23T14:55:45Z</time>
      </trkpt>
      <trkpt lat="45.74341" lon="6.48291">
        <ele>1505</ele>
        <time>2022-07-23T14:55:46Z</time>
      </trkpt>
      <trkpt lat="45.74341" lon="6.48293">
        <ele>1505</ele>
        <time>2022-07-23T14:55:47Z</time>
      </trkpt>
      <trkpt lat="45.74341" lon="6.48295">
        <ele>1505</ele>
        <time>2022-07-23T14:55:48Z</time>
      </trkpt>
      <trkpt lat="45.74341" lon="6.48296">
        <ele>1505</ele>
        <time>2022-07-23T14:55:49Z</time>
      </trkpt>
      <trkpt lat="45.74341" lon="6.48298">
        <ele>1506</ele>
        <time>2022-07-23T14:55:50Z</time>
      </trkpt>
      <trkpt lat="45.74341" lon="6.48299">
        <ele>1506</ele>
        <time>2022-07-23T14:55:51Z</time>
      </trkpt>
      <trkpt lat="45.74341" lon="6.48301">
        <ele>1506</ele>
        <time>2022-07-23T14:55:52Z</time>
      </trkpt>
      <trkpt lat="45.74341" lon="6.48303">
        <ele>1506</ele>
        <time>2022-07-23T14:55:53Z</time>
      </trkpt>
      <trkpt lat="45.74341" lon="6.48304">
        <ele>1506</ele>
        <time>2022-07-23T14:55:54Z</time>
      </trkpt>
      <trkpt lat="45.74341" lon="6.48306">
        <ele>1506</ele>
        <time>2022-07-23T14:55:55Z</time>
      </trkpt>
      <trkpt lat="45.74341" lon="6.48307">
        <ele>1506</ele>
        <time>2022-07-23T14:55:56Z</time>
      </trkpt>
      <trkpt lat="45.74341" lon="6.48308">
        <ele>1506</ele>
        <time>2022-07-23T14:55:57Z</time>
      </trkpt>
      <trkpt lat="45.74341" lon="6.4831">
        <ele>1506</ele>
        <time>2022-07-23T14:55:58Z</time>
      </trkpt>
      <trkpt lat="45.74341" lon="6.48311">
        <ele>1506</ele>
        <time>2022-07-23T14:55:59Z</time>
      </trkpt>
      <trkpt lat="45.7434" lon="6.48312">
        <ele>1506</ele>
        <time>2022-07-23T14:56:00Z</time>
      </trkpt>
      <trkpt lat="45.7434" lon="6.48314">
        <ele>1506</ele>
        <time>2022-07-23T14:56:01Z</time>
      </trkpt>
      <trkpt lat="45.7434" lon="6.48315">
        <ele>1506</ele>
        <time>2022-07-23T14:56:02Z</time>
      </trkpt>
      <trkpt lat="45.7434" lon="6.48317">
        <ele>1506</ele>
        <time>2022-07-23T14:56:03Z</time>
      </trkpt>
      <trkpt lat="45.7434" lon="6.48318">
        <ele>1506</ele>
        <time>2022-07-23T14:56:04Z</time>
      </trkpt>
      <trkpt lat="45.7434" lon="6.48319">
        <ele>1507</ele>
        <time>2022-07-23T14:56:05Z</time>
      </trkpt>
      <trkpt lat="45.7434" lon="6.48321">
        <ele>1507</ele>
        <time>2022-07-23T14:56:06Z</time>
      </trkpt>
      <trkpt lat="45.7434" lon="6.48322">
        <ele>1507</ele>
        <time>2022-07-23T14:56:07Z</time>
      </trkpt>
      <trkpt lat="45.7434" lon="6.48324">
        <ele>1507</ele>
        <time>2022-07-23T14:56:08Z</time>
      </trkpt>
      <trkpt lat="45.7434" lon="6.48325">
        <ele>1507</ele>
        <time>2022-07-23T14:56:09Z</time>
      </trkpt>
      <trkpt lat="45.74341" lon="6.48327">
        <ele>1507</ele>
        <time>2022-07-23T14:56:10Z</time>
      </trkpt>
      <trkpt lat="45.74341" lon="6.48328">
        <ele>1507</ele>
        <time>2022-07-23T14:56:11Z</time>
      </trkpt>
      <trkpt lat="45.74341" lon="6.48329">
        <ele>1507</ele>
        <time>2022-07-23T14:56:12Z</time>
      </trkpt>
      <trkpt lat="45.74341" lon="6.4833">
        <ele>1507</ele>
        <time>2022-07-23T14:56:13Z</time>
      </trkpt>
      <trkpt lat="45.74341" lon="6.48332">
        <ele>1507</ele>
        <time>2022-07-23T14:56:14Z</time>
      </trkpt>
      <trkpt lat="45.74342" lon="6.48333">
        <ele>1508</ele>
        <time>2022-07-23T14:56:15Z</time>
      </trkpt>
      <trkpt lat="45.74342" lon="6.48334">
        <ele>1508</ele>
        <time>2022-07-23T14:56:16Z</time>
      </trkpt>
      <trkpt lat="45.74343" lon="6.48336">
        <ele>1508</ele>
        <time>2022-07-23T14:56:17Z</time>
      </trkpt>
      <trkpt lat="45.74343" lon="6.48337">
        <ele>1508</ele>
        <time>2022-07-23T14:56:18Z</time>
      </trkpt>
      <trkpt lat="45.74344" lon="6.48339">
        <ele>1508</ele>
        <time>2022-07-23T14:56:19Z</time>
      </trkpt>
      <trkpt lat="45.74344" lon="6.4834">
        <ele>1508</ele>
        <time>2022-07-23T14:56:20Z</time>
      </trkpt>
      <trkpt lat="45.74345" lon="6.48342">
        <ele>1508</ele>
        <time>2022-07-23T14:56:21Z</time>
      </trkpt>
      <trkpt lat="45.74345" lon="6.48343">
        <ele>1508</ele>
        <time>2022-07-23T14:56:22Z</time>
      </trkpt>
      <trkpt lat="45.74346" lon="6.48345">
        <ele>1508</ele>
        <time>2022-07-23T14:56:23Z</time>
      </trkpt>
      <trkpt lat="45.74346" lon="6.48346">
        <ele>1508</ele>
        <time>2022-07-23T14:56:24Z</time>
      </trkpt>
      <trkpt lat="45.74347" lon="6.48347">
        <ele>1509</ele>
        <time>2022-07-23T14:56:25Z</time>
      </trkpt>
      <trkpt lat="45.74347" lon="6.48349">
        <ele>1509</ele>
        <time>2022-07-23T14:56:26Z</time>
      </trkpt>
      <trkpt lat="45.74348" lon="6.4835">
        <ele>1509</ele>
        <time>2022-07-23T14:56:27Z</time>
      </trkpt>
      <trkpt lat="45.74349" lon="6.48352">
        <ele>1509</ele>
        <time>2022-07-23T14:56:28Z</time>
      </trkpt>
      <trkpt lat="45.74349" lon="6.48353">
        <ele>1509</ele>
        <time>2022-07-23T14:56:29Z</time>
      </trkpt>
      <trkpt lat="45.7435" lon="6.48354">
        <ele>1510</ele>
        <time>2022-07-23T14:56:30Z</time>
      </trkpt>
      <trkpt lat="45.7435" lon="6.48355">
        <ele>1510</ele>
        <time>2022-07-23T14:56:31Z</time>
      </trkpt>
      <trkpt lat="45.74351" lon="6.48356">
        <ele>1510</ele>
        <time>2022-07-23T14:56:32Z</time>
      </trkpt>
      <trkpt lat="45.74351" lon="6.48357">
        <ele>1510</ele>
        <time>2022-07-23T14:56:33Z</time>
      </trkpt>
      <trkpt lat="45.74352" lon="6.48359">
        <ele>1510</ele>
        <time>2022-07-23T14:56:34Z</time>
      </trkpt>
      <trkpt lat="45.74352" lon="6.4836">
        <ele>1510</ele>
        <time>2022-07-23T14:56:35Z</time>
      </trkpt>
      <trkpt lat="45.74353" lon="6.48361">
        <ele>1510</ele>
        <time>2022-07-23T14:56:36Z</time>
      </trkpt>
      <trkpt lat="45.74353" lon="6.48363">
        <ele>1510</ele>
        <time>2022-07-23T14:56:37Z</time>
      </trkpt>
      <trkpt lat="45.74354" lon="6.48364">
        <ele>1511</ele>
        <time>2022-07-23T14:56:38Z</time>
      </trkpt>
      <trkpt lat="45.74354" lon="6.48365">
        <ele>1511</ele>
        <time>2022-07-23T14:56:39Z</time>
      </trkpt>
      <trkpt lat="45.74355" lon="6.48367">
        <ele>1512</ele>
        <time>2022-07-23T14:56:40Z</time>
      </trkpt>
      <trkpt lat="45.74355" lon="6.48368">
        <ele>1512</ele>
        <time>2022-07-23T14:56:41Z</time>
      </trkpt>
      <trkpt lat="45.74355" lon="6.4837">
        <ele>1512</ele>
        <time>2022-07-23T14:56:42Z</time>
      </trkpt>
      <trkpt lat="45.74356" lon="6.48371">
        <ele>1512</ele>
        <time>2022-07-23T14:56:43Z</time>
      </trkpt>
      <trkpt lat="45.74356" lon="6.48372">
        <ele>1512</ele>
        <time>2022-07-23T14:56:44Z</time>
      </trkpt>
      <trkpt lat="45.74356" lon="6.48373">
        <ele>1512</ele>
        <time>2022-07-23T14:56:45Z</time>
      </trkpt>
      <trkpt lat="45.74357" lon="6.48374">
        <ele>1512</ele>
        <time>2022-07-23T14:56:46Z</time>
      </trkpt>
      <trkpt lat="45.74357" lon="6.48375">
        <ele>1512</ele>
        <time>2022-07-23T14:56:47Z</time>
      </trkpt>
      <trkpt lat="45.74358" lon="6.48375">
        <ele>1512</ele>
        <time>2022-07-23T14:56:48Z</time>
      </trkpt>
      <trkpt lat="45.74358" lon="6.48376">
        <ele>1512</ele>
        <time>2022-07-23T14:56:49Z</time>
      </trkpt>
      <trkpt lat="45.74359" lon="6.48377">
        <ele>1512</ele>
        <time>2022-07-23T14:56:50Z</time>
      </trkpt>
      <trkpt lat="45.74359" lon="6.48378">
        <ele>1512</ele>
        <time>2022-07-23T14:56:51Z</time>
      </trkpt>
      <trkpt lat="45.7436" lon="6.48379">
        <ele>1512</ele>
        <time>2022-07-23T14:56:52Z</time>
      </trkpt>
      <trkpt lat="45.74361" lon="6.4838">
        <ele>1512</ele>
        <time>2022-07-23T14:56:53Z</time>
      </trkpt>
      <trkpt lat="45.74361" lon="6.48381">
        <ele>1512</ele>
        <time>2022-07-23T14:56:54Z</time>
      </trkpt>
      <trkpt lat="45.74362" lon="6.48382">
        <ele>1513</ele>
        <time>2022-07-23T14:56:55Z</time>
      </trkpt>
      <trkpt lat="45.74362" lon="6.48383">
        <ele>1513</ele>
        <time>2022-07-23T14:56:56Z</time>
      </trkpt>
      <trkpt lat="45.74363" lon="6.48385">
        <ele>1513</ele>
        <time>2022-07-23T14:56:57Z</time>
      </trkpt>
      <trkpt lat="45.74363" lon="6.48386">
        <ele>1513</ele>
        <time>2022-07-23T14:56:58Z</time>
      </trkpt>
      <trkpt lat="45.74364" lon="6.48387">
        <ele>1513</ele>
        <time>2022-07-23T14:56:59Z</time>
      </trkpt>
      <trkpt lat="45.74364" lon="6.48388">
        <ele>1513</ele>
        <time>2022-07-23T14:57:00Z</time>
      </trkpt>
      <trkpt lat="45.74365" lon="6.4839">
        <ele>1513</ele>
        <time>2022-07-23T14:57:01Z</time>
      </trkpt>
      <trkpt lat="45.74366" lon="6.48391">
        <ele>1513</ele>
        <time>2022-07-23T14:57:02Z</time>
      </trkpt>
      <trkpt lat="45.74366" lon="6.48392">
        <ele>1513</ele>
        <time>2022-07-23T14:57:03Z</time>
      </trkpt>
      <trkpt lat="45.74367" lon="6.48393">
        <ele>1513</ele>
        <time>2022-07-23T14:57:04Z</time>
      </trkpt>
      <trkpt lat="45.74368" lon="6.48394">
        <ele>1513</ele>
        <time>2022-07-23T14:57:05Z</time>
      </trkpt>
      <trkpt lat="45.74368" lon="6.48396">
        <ele>1513</ele>
        <time>2022-07-23T14:57:06Z</time>
      </trkpt>
      <trkpt lat="45.74369" lon="6.48397">
        <ele>1513</ele>
        <time>2022-07-23T14:57:07Z</time>
      </trkpt>
      <trkpt lat="45.7437" lon="6.48398">
        <ele>1513</ele>
        <time>2022-07-23T14:57:08Z</time>
      </trkpt>
      <trkpt lat="45.7437" lon="6.48399">
        <ele>1513</ele>
        <time>2022-07-23T14:57:09Z</time>
      </trkpt>
      <trkpt lat="45.74371" lon="6.484">
        <ele>1514</ele>
        <time>2022-07-23T14:57:10Z</time>
      </trkpt>
      <trkpt lat="45.74372" lon="6.48402">
        <ele>1514</ele>
        <time>2022-07-23T14:57:11Z</time>
      </trkpt>
      <trkpt lat="45.74372" lon="6.48403">
        <ele>1514</ele>
        <time>2022-07-23T14:57:12Z</time>
      </trkpt>
      <trkpt lat="45.74373" lon="6.48404">
        <ele>1514</ele>
        <time>2022-07-23T14:57:13Z</time>
      </trkpt>
      <trkpt lat="45.74373" lon="6.48406">
        <ele>1514</ele>
        <time>2022-07-23T14:57:14Z</time>
      </trkpt>
      <trkpt lat="45.74374" lon="6.48407">
        <ele>1514</ele>
        <time>2022-07-23T14:57:15Z</time>
      </trkpt>
      <trkpt lat="45.74375" lon="6.48408">
        <ele>1514</ele>
        <time>2022-07-23T14:57:16Z</time>
      </trkpt>
      <trkpt lat="45.74375" lon="6.4841">
        <ele>1514</ele>
        <time>2022-07-23T14:57:17Z</time>
      </trkpt>
      <trkpt lat="45.74376" lon="6.48411">
        <ele>1514</ele>
        <time>2022-07-23T14:57:18Z</time>
      </trkpt>
      <trkpt lat="45.74376" lon="6.48413">
        <ele>1514</ele>
        <time>2022-07-23T14:57:19Z</time>
      </trkpt>
      <trkpt lat="45.74377" lon="6.48414">
        <ele>1515</ele>
        <time>2022-07-23T14:57:20Z</time>
      </trkpt>
      <trkpt lat="45.74377" lon="6.48416">
        <ele>1515</ele>
        <time>2022-07-23T14:57:21Z</time>
      </trkpt>
      <trkpt lat="45.74377" lon="6.48417">
        <ele>1515</ele>
        <time>2022-07-23T14:57:22Z</time>
      </trkpt>
      <trkpt lat="45.74378" lon="6.48419">
        <ele>1515</ele>
        <time>2022-07-23T14:57:23Z</time>
      </trkpt>
      <trkpt lat="45.74378" lon="6.4842">
        <ele>1515</ele>
        <time>2022-07-23T14:57:24Z</time>
      </trkpt>
      <trkpt lat="45.74378" lon="6.48422">
        <ele>1516</ele>
        <time>2022-07-23T14:57:25Z</time>
      </trkpt>
      <trkpt lat="45.74378" lon="6.48423">
        <ele>1516</ele>
        <time>2022-07-23T14:57:26Z</time>
      </trkpt>
      <trkpt lat="45.74379" lon="6.48425">
        <ele>1516</ele>
        <time>2022-07-23T14:57:27Z</time>
      </trkpt>
      <trkpt lat="45.74379" lon="6.48426">
        <ele>1516</ele>
        <time>2022-07-23T14:57:28Z</time>
      </trkpt>
      <trkpt lat="45.74379" lon="6.48428">
        <ele>1516</ele>
        <time>2022-07-23T14:57:29Z</time>
      </trkpt>
      <trkpt lat="45.7438" lon="6.48429">
        <ele>1516</ele>
        <time>2022-07-23T14:57:30Z</time>
      </trkpt>
      <trkpt lat="45.7438" lon="6.4843">
        <ele>1516</ele>
        <time>2022-07-23T14:57:31Z</time>
      </trkpt>
      <trkpt lat="45.74381" lon="6.48431">
        <ele>1516</ele>
        <time>2022-07-23T14:57:32Z</time>
      </trkpt>
      <trkpt lat="45.74382" lon="6.48433">
        <ele>1516</ele>
        <time>2022-07-23T14:57:33Z</time>
      </trkpt>
      <trkpt lat="45.74382" lon="6.48434">
        <ele>1516</ele>
        <time>2022-07-23T14:57:34Z</time>
      </trkpt>
      <trkpt lat="45.74383" lon="6.48435">
        <ele>1516</ele>
        <time>2022-07-23T14:57:35Z</time>
      </trkpt>
      <trkpt lat="45.74384" lon="6.48436">
        <ele>1516</ele>
        <time>2022-07-23T14:57:36Z</time>
      </trkpt>
      <trkpt lat="45.74384" lon="6.48438">
        <ele>1516</ele>
        <time>2022-07-23T14:57:37Z</time>
      </trkpt>
      <trkpt lat="45.74385" lon="6.48439">
        <ele>1516</ele>
        <time>2022-07-23T14:57:38Z</time>
      </trkpt>
      <trkpt lat="45.74385" lon="6.4844">
        <ele>1516</ele>
        <time>2022-07-23T14:57:39Z</time>
      </trkpt>
      <trkpt lat="45.74386" lon="6.48442">
        <ele>1517</ele>
        <time>2022-07-23T14:57:40Z</time>
      </trkpt>
      <trkpt lat="45.74386" lon="6.48442">
        <ele>1517</ele>
        <time>2022-07-23T14:57:41Z</time>
      </trkpt>
      <trkpt lat="45.74386" lon="6.48443">
        <ele>1517</ele>
        <time>2022-07-23T14:57:42Z</time>
      </trkpt>
      <trkpt lat="45.74386" lon="6.48443">
        <ele>1517</ele>
        <time>2022-07-23T14:57:43Z</time>
      </trkpt>
      <trkpt lat="45.74387" lon="6.48444">
        <ele>1517</ele>
        <time>2022-07-23T14:57:44Z</time>
      </trkpt>
      <trkpt lat="45.74387" lon="6.48444">
        <ele>1517</ele>
        <time>2022-07-23T14:57:45Z</time>
      </trkpt>
      <trkpt lat="45.74387" lon="6.48445">
        <ele>1517</ele>
        <time>2022-07-23T14:57:46Z</time>
      </trkpt>
      <trkpt lat="45.74388" lon="6.48446">
        <ele>1517</ele>
        <time>2022-07-23T14:57:47Z</time>
      </trkpt>
      <trkpt lat="45.74388" lon="6.48446">
        <ele>1517</ele>
        <time>2022-07-23T14:57:48Z</time>
      </trkpt>
      <trkpt lat="45.74389" lon="6.48447">
        <ele>1517</ele>
        <time>2022-07-23T14:57:49Z</time>
      </trkpt>
      <trkpt lat="45.74389" lon="6.48448">
        <ele>1517</ele>
        <time>2022-07-23T14:57:50Z</time>
      </trkpt>
      <trkpt lat="45.7439" lon="6.48449">
        <ele>1517</ele>
        <time>2022-07-23T14:57:51Z</time>
      </trkpt>
      <trkpt lat="45.74391" lon="6.4845">
        <ele>1517</ele>
        <time>2022-07-23T14:57:52Z</time>
      </trkpt>
      <trkpt lat="45.74391" lon="6.48451">
        <ele>1517</ele>
        <time>2022-07-23T14:57:53Z</time>
      </trkpt>
      <trkpt lat="45.74392" lon="6.48453">
        <ele>1517</ele>
        <time>2022-07-23T14:57:54Z</time>
      </trkpt>
      <trkpt lat="45.74393" lon="6.48454">
        <ele>1517</ele>
        <time>2022-07-23T14:57:55Z</time>
      </trkpt>
      <trkpt lat="45.74393" lon="6.48455">
        <ele>1517</ele>
        <time>2022-07-23T14:57:56Z</time>
      </trkpt>
      <trkpt lat="45.74394" lon="6.48457">
        <ele>1517</ele>
        <time>2022-07-23T14:57:57Z</time>
      </trkpt>
      <trkpt lat="45.74395" lon="6.48458">
        <ele>1517</ele>
        <time>2022-07-23T14:57:58Z</time>
      </trkpt>
      <trkpt lat="45.74395" lon="6.48459">
        <ele>1517</ele>
        <time>2022-07-23T14:57:59Z</time>
      </trkpt>
      <trkpt lat="45.74396" lon="6.48461">
        <ele>1518</ele>
        <time>2022-07-23T14:58:00Z</time>
      </trkpt>
      <trkpt lat="45.74397" lon="6.48462">
        <ele>1518</ele>
        <time>2022-07-23T14:58:01Z</time>
      </trkpt>
      <trkpt lat="45.74397" lon="6.48463">
        <ele>1518</ele>
        <time>2022-07-23T14:58:02Z</time>
      </trkpt>
      <trkpt lat="45.74398" lon="6.48464">
        <ele>1518</ele>
        <time>2022-07-23T14:58:03Z</time>
      </trkpt>
      <trkpt lat="45.74398" lon="6.48466">
        <ele>1518</ele>
        <time>2022-07-23T14:58:04Z</time>
      </trkpt>
      <trkpt lat="45.74399" lon="6.48467">
        <ele>1519</ele>
        <time>2022-07-23T14:58:05Z</time>
      </trkpt>
      <trkpt lat="45.744" lon="6.48468">
        <ele>1519</ele>
        <time>2022-07-23T14:58:06Z</time>
      </trkpt>
      <trkpt lat="45.74401" lon="6.48469">
        <ele>1519</ele>
        <time>2022-07-23T14:58:07Z</time>
      </trkpt>
      <trkpt lat="45.74402" lon="6.4847">
        <ele>1519</ele>
        <time>2022-07-23T14:58:08Z</time>
      </trkpt>
      <trkpt lat="45.74403" lon="6.48471">
        <ele>1519</ele>
        <time>2022-07-23T14:58:09Z</time>
      </trkpt>
      <trkpt lat="45.74404" lon="6.48472">
        <ele>1519</ele>
        <time>2022-07-23T14:58:10Z</time>
      </trkpt>
      <trkpt lat="45.74405" lon="6.48473">
        <ele>1519</ele>
        <time>2022-07-23T14:58:11Z</time>
      </trkpt>
      <trkpt lat="45.74406" lon="6.48474">
        <ele>1519</ele>
        <time>2022-07-23T14:58:12Z</time>
      </trkpt>
      <trkpt lat="45.74407" lon="6.48475">
        <ele>1519</ele>
        <time>2022-07-23T14:58:13Z</time>
      </trkpt>
      <trkpt lat="45.74407" lon="6.48476">
        <ele>1519</ele>
        <time>2022-07-23T14:58:14Z</time>
      </trkpt>
      <trkpt lat="45.74408" lon="6.48477">
        <ele>1519</ele>
        <time>2022-07-23T14:58:15Z</time>
      </trkpt>
      <trkpt lat="45.74409" lon="6.48478">
        <ele>1519</ele>
        <time>2022-07-23T14:58:16Z</time>
      </trkpt>
      <trkpt lat="45.7441" lon="6.4848">
        <ele>1519</ele>
        <time>2022-07-23T14:58:17Z</time>
      </trkpt>
      <trkpt lat="45.7441" lon="6.48481">
        <ele>1519</ele>
        <time>2022-07-23T14:58:18Z</time>
      </trkpt>
      <trkpt lat="45.74411" lon="6.48482">
        <ele>1519</ele>
        <time>2022-07-23T14:58:19Z</time>
      </trkpt>
      <trkpt lat="45.74411" lon="6.48483">
        <ele>1520</ele>
        <time>2022-07-23T14:58:20Z</time>
      </trkpt>
      <trkpt lat="45.74411" lon="6.48485">
        <ele>1520</ele>
        <time>2022-07-23T14:58:21Z</time>
      </trkpt>
      <trkpt lat="45.74412" lon="6.48486">
        <ele>1520</ele>
        <time>2022-07-23T14:58:22Z</time>
      </trkpt>
      <trkpt lat="45.74412" lon="6.48487">
        <ele>1520</ele>
        <time>2022-07-23T14:58:23Z</time>
      </trkpt>
      <trkpt lat="45.74412" lon="6.48488">
        <ele>1520</ele>
        <time>2022-07-23T14:58:24Z</time>
      </trkpt>
      <trkpt lat="45.74412" lon="6.48489">
        <ele>1520</ele>
        <time>2022-07-23T14:58:25Z</time>
      </trkpt>
      <trkpt lat="45.74412" lon="6.48491">
        <ele>1520</ele>
        <time>2022-07-23T14:58:26Z</time>
      </trkpt>
      <trkpt lat="45.74412" lon="6.48492">
        <ele>1520</ele>
        <time>2022-07-23T14:58:27Z</time>
      </trkpt>
      <trkpt lat="45.74412" lon="6.48493">
        <ele>1520</ele>
        <time>2022-07-23T14:58:28Z</time>
      </trkpt>
      <trkpt lat="45.74412" lon="6.48495">
        <ele>1520</ele>
        <time>2022-07-23T14:58:29Z</time>
      </trkpt>
      <trkpt lat="45.74411" lon="6.48497">
        <ele>1521</ele>
        <time>2022-07-23T14:58:30Z</time>
      </trkpt>
      <trkpt lat="45.74411" lon="6.48498">
        <ele>1521</ele>
        <time>2022-07-23T14:58:31Z</time>
      </trkpt>
      <trkpt lat="45.7441" lon="6.485">
        <ele>1521</ele>
        <time>2022-07-23T14:58:32Z</time>
      </trkpt>
      <trkpt lat="45.74409" lon="6.48502">
        <ele>1521</ele>
        <time>2022-07-23T14:58:33Z</time>
      </trkpt>
      <trkpt lat="45.74409" lon="6.48504">
        <ele>1521</ele>
        <time>2022-07-23T14:58:34Z</time>
      </trkpt>
      <trkpt lat="45.74408" lon="6.48505">
        <ele>1521</ele>
        <time>2022-07-23T14:58:35Z</time>
      </trkpt>
      <trkpt lat="45.74407" lon="6.48507">
        <ele>1521</ele>
        <time>2022-07-23T14:58:36Z</time>
      </trkpt>
      <trkpt lat="45.74407" lon="6.48509">
        <ele>1521</ele>
        <time>2022-07-23T14:58:37Z</time>
      </trkpt>
      <trkpt lat="45.74406" lon="6.48511">
        <ele>1521</ele>
        <time>2022-07-23T14:58:38Z</time>
      </trkpt>
      <trkpt lat="45.74406" lon="6.48513">
        <ele>1521</ele>
        <time>2022-07-23T14:58:39Z</time>
      </trkpt>
      <trkpt lat="45.74406" lon="6.48515">
        <ele>1522</ele>
        <time>2022-07-23T14:58:40Z</time>
      </trkpt>
      <trkpt lat="45.74406" lon="6.48516">
        <ele>1522</ele>
        <time>2022-07-23T14:58:41Z</time>
      </trkpt>
      <trkpt lat="45.74406" lon="6.48518">
        <ele>1522</ele>
        <time>2022-07-23T14:58:42Z</time>
      </trkpt>
      <trkpt lat="45.74406" lon="6.4852">
        <ele>1522</ele>
        <time>2022-07-23T14:58:43Z</time>
      </trkpt>
      <trkpt lat="45.74406" lon="6.48522">
        <ele>1522</ele>
        <time>2022-07-23T14:58:44Z</time>
      </trkpt>
      <trkpt lat="45.74406" lon="6.48523">
        <ele>1522</ele>
        <time>2022-07-23T14:58:45Z</time>
      </trkpt>
      <trkpt lat="45.74407" lon="6.48524">
        <ele>1522</ele>
        <time>2022-07-23T14:58:46Z</time>
      </trkpt>
      <trkpt lat="45.74407" lon="6.48526">
        <ele>1522</ele>
        <time>2022-07-23T14:58:47Z</time>
      </trkpt>
      <trkpt lat="45.74407" lon="6.48527">
        <ele>1522</ele>
        <time>2022-07-23T14:58:48Z</time>
      </trkpt>
      <trkpt lat="45.74408" lon="6.48529">
        <ele>1522</ele>
        <time>2022-07-23T14:58:49Z</time>
      </trkpt>
      <trkpt lat="45.74408" lon="6.4853">
        <ele>1523</ele>
        <time>2022-07-23T14:58:50Z</time>
      </trkpt>
      <trkpt lat="45.74409" lon="6.48531">
        <ele>1523</ele>
        <time>2022-07-23T14:58:51Z</time>
      </trkpt>
      <trkpt lat="45.74409" lon="6.48532">
        <ele>1523</ele>
        <time>2022-07-23T14:58:52Z</time>
      </trkpt>
      <trkpt lat="45.7441" lon="6.48534">
        <ele>1523</ele>
        <time>2022-07-23T14:58:53Z</time>
      </trkpt>
      <trkpt lat="45.7441" lon="6.48535">
        <ele>1523</ele>
        <time>2022-07-23T14:58:54Z</time>
      </trkpt>
      <trkpt lat="45.74411" lon="6.48537">
        <ele>1523</ele>
        <time>2022-07-23T14:58:55Z</time>
      </trkpt>
      <trkpt lat="45.74411" lon="6.48538">
        <ele>1523</ele>
        <time>2022-07-23T14:58:56Z</time>
      </trkpt>
      <trkpt lat="45.74411" lon="6.48539">
        <ele>1523</ele>
        <time>2022-07-23T14:58:57Z</time>
      </trkpt>
      <trkpt lat="45.74412" lon="6.48541">
        <ele>1523</ele>
        <time>2022-07-23T14:58:58Z</time>
      </trkpt>
      <trkpt lat="45.74412" lon="6.48542">
        <ele>1523</ele>
        <time>2022-07-23T14:58:59Z</time>
      </trkpt>
      <trkpt lat="45.74412" lon="6.48543">
        <ele>1524</ele>
        <time>2022-07-23T14:59:00Z</time>
      </trkpt>
      <trkpt lat="45.74412" lon="6.48544">
        <ele>1524</ele>
        <time>2022-07-23T14:59:01Z</time>
      </trkpt>
      <trkpt lat="45.74412" lon="6.48546">
        <ele>1524</ele>
        <time>2022-07-23T14:59:02Z</time>
      </trkpt>
      <trkpt lat="45.74412" lon="6.48547">
        <ele>1524</ele>
        <time>2022-07-23T14:59:03Z</time>
      </trkpt>
      <trkpt lat="45.74412" lon="6.48548">
        <ele>1524</ele>
        <time>2022-07-23T14:59:04Z</time>
      </trkpt>
      <trkpt lat="45.74412" lon="6.4855">
        <ele>1524</ele>
        <time>2022-07-23T14:59:05Z</time>
      </trkpt>
      <trkpt lat="45.74412" lon="6.48551">
        <ele>1524</ele>
        <time>2022-07-23T14:59:06Z</time>
      </trkpt>
      <trkpt lat="45.74412" lon="6.48553">
        <ele>1524</ele>
        <time>2022-07-23T14:59:07Z</time>
      </trkpt>
      <trkpt lat="45.74411" lon="6.48554">
        <ele>1524</ele>
        <time>2022-07-23T14:59:08Z</time>
      </trkpt>
      <trkpt lat="45.74411" lon="6.48556">
        <ele>1524</ele>
        <time>2022-07-23T14:59:09Z</time>
      </trkpt>
      <trkpt lat="45.74411" lon="6.48558">
        <ele>1525</ele>
        <time>2022-07-23T14:59:10Z</time>
      </trkpt>
      <trkpt lat="45.74411" lon="6.4856">
        <ele>1525</ele>
        <time>2022-07-23T14:59:11Z</time>
      </trkpt>
      <trkpt lat="45.74411" lon="6.48561">
        <ele>1525</ele>
        <time>2022-07-23T14:59:12Z</time>
      </trkpt>
      <trkpt lat="45.74411" lon="6.48563">
        <ele>1525</ele>
        <time>2022-07-23T14:59:13Z</time>
      </trkpt>
      <trkpt lat="45.7441" lon="6.48564">
        <ele>1525</ele>
        <time>2022-07-23T14:59:14Z</time>
      </trkpt>
      <trkpt lat="45.7441" lon="6.48566">
        <ele>1526</ele>
        <time>2022-07-23T14:59:15Z</time>
      </trkpt>
      <trkpt lat="45.7441" lon="6.48567">
        <ele>1526</ele>
        <time>2022-07-23T14:59:16Z</time>
      </trkpt>
      <trkpt lat="45.7441" lon="6.48568">
        <ele>1526</ele>
        <time>2022-07-23T14:59:17Z</time>
      </trkpt>
      <trkpt lat="45.7441" lon="6.4857">
        <ele>1526</ele>
        <time>2022-07-23T14:59:18Z</time>
      </trkpt>
      <trkpt lat="45.74409" lon="6.48571">
        <ele>1526</ele>
        <time>2022-07-23T14:59:19Z</time>
      </trkpt>
      <trkpt lat="45.74409" lon="6.48572">
        <ele>1526</ele>
        <time>2022-07-23T14:59:20Z</time>
      </trkpt>
      <trkpt lat="45.74409" lon="6.48574">
        <ele>1526</ele>
        <time>2022-07-23T14:59:21Z</time>
      </trkpt>
      <trkpt lat="45.74409" lon="6.48575">
        <ele>1526</ele>
        <time>2022-07-23T14:59:22Z</time>
      </trkpt>
      <trkpt lat="45.74408" lon="6.48576">
        <ele>1526</ele>
        <time>2022-07-23T14:59:23Z</time>
      </trkpt>
      <trkpt lat="45.74408" lon="6.48578">
        <ele>1526</ele>
        <time>2022-07-23T14:59:24Z</time>
      </trkpt>
      <trkpt lat="45.74408" lon="6.48579">
        <ele>1527</ele>
        <time>2022-07-23T14:59:25Z</time>
      </trkpt>
      <trkpt lat="45.74408" lon="6.48581">
        <ele>1527</ele>
        <time>2022-07-23T14:59:26Z</time>
      </trkpt>
      <trkpt lat="45.74407" lon="6.48582">
        <ele>1527</ele>
        <time>2022-07-23T14:59:27Z</time>
      </trkpt>
      <trkpt lat="45.74407" lon="6.48584">
        <ele>1527</ele>
        <time>2022-07-23T14:59:28Z</time>
      </trkpt>
      <trkpt lat="45.74407" lon="6.48585">
        <ele>1527</ele>
        <time>2022-07-23T14:59:29Z</time>
      </trkpt>
      <trkpt lat="45.74407" lon="6.48587">
        <ele>1527</ele>
        <time>2022-07-23T14:59:30Z</time>
      </trkpt>
      <trkpt lat="45.74406" lon="6.48588">
        <ele>1527</ele>
        <time>2022-07-23T14:59:31Z</time>
      </trkpt>
      <trkpt lat="45.74406" lon="6.4859">
        <ele>1527</ele>
        <time>2022-07-23T14:59:32Z</time>
      </trkpt>
      <trkpt lat="45.74406" lon="6.48591">
        <ele>1527</ele>
        <time>2022-07-23T14:59:33Z</time>
      </trkpt>
      <trkpt lat="45.74406" lon="6.48593">
        <ele>1527</ele>
        <time>2022-07-23T14:59:34Z</time>
      </trkpt>
      <trkpt lat="45.74406" lon="6.48594">
        <ele>1528</ele>
        <time>2022-07-23T14:59:35Z</time>
      </trkpt>
      <trkpt lat="45.74405" lon="6.48596">
        <ele>1528</ele>
        <time>2022-07-23T14:59:36Z</time>
      </trkpt>
      <trkpt lat="45.74405" lon="6.48597">
        <ele>1528</ele>
        <time>2022-07-23T14:59:37Z</time>
      </trkpt>
      <trkpt lat="45.74405" lon="6.48599">
        <ele>1528</ele>
        <time>2022-07-23T14:59:38Z</time>
      </trkpt>
      <trkpt lat="45.74405" lon="6.486">
        <ele>1528</ele>
        <time>2022-07-23T14:59:39Z</time>
      </trkpt>
      <trkpt lat="45.74405" lon="6.48602">
        <ele>1528</ele>
        <time>2022-07-23T14:59:40Z</time>
      </trkpt>
      <trkpt lat="45.74405" lon="6.48604">
        <ele>1528</ele>
        <time>2022-07-23T14:59:41Z</time>
      </trkpt>
      <trkpt lat="45.74405" lon="6.48605">
        <ele>1528</ele>
        <time>2022-07-23T14:59:42Z</time>
      </trkpt>
      <trkpt lat="45.74404" lon="6.48606">
        <ele>1528</ele>
        <time>2022-07-23T14:59:43Z</time>
      </trkpt>
      <trkpt lat="45.74404" lon="6.48607">
        <ele>1528</ele>
        <time>2022-07-23T14:59:44Z</time>
      </trkpt>
      <trkpt lat="45.74403" lon="6.48608">
        <ele>1528</ele>
        <time>2022-07-23T14:59:45Z</time>
      </trkpt>
      <trkpt lat="45.74402" lon="6.48609">
        <ele>1528</ele>
        <time>2022-07-23T14:59:46Z</time>
      </trkpt>
      <trkpt lat="45.74401" lon="6.48609">
        <ele>1528</ele>
        <time>2022-07-23T14:59:47Z</time>
      </trkpt>
      <trkpt lat="45.744" lon="6.48609">
        <ele>1529</ele>
        <time>2022-07-23T14:59:48Z</time>
      </trkpt>
      <trkpt lat="45.74399" lon="6.48609">
        <ele>1529</ele>
        <time>2022-07-23T14:59:49Z</time>
      </trkpt>
      <trkpt lat="45.74397" lon="6.48609">
        <ele>1530</ele>
        <time>2022-07-23T14:59:50Z</time>
      </trkpt>
      <trkpt lat="45.74396" lon="6.48609">
        <ele>1530</ele>
        <time>2022-07-23T14:59:51Z</time>
      </trkpt>
      <trkpt lat="45.74395" lon="6.48608">
        <ele>1530</ele>
        <time>2022-07-23T14:59:52Z</time>
      </trkpt>
      <trkpt lat="45.74394" lon="6.48608">
        <ele>1530</ele>
        <time>2022-07-23T14:59:53Z</time>
      </trkpt>
      <trkpt lat="45.74392" lon="6.48607">
        <ele>1530</ele>
        <time>2022-07-23T14:59:54Z</time>
      </trkpt>
      <trkpt lat="45.74391" lon="6.48606">
        <ele>1531</ele>
        <time>2022-07-23T14:59:55Z</time>
      </trkpt>
      <trkpt lat="45.7439" lon="6.48605">
        <ele>1531</ele>
        <time>2022-07-23T14:59:56Z</time>
      </trkpt>
      <trkpt lat="45.74389" lon="6.48604">
        <ele>1531</ele>
        <time>2022-07-23T14:59:57Z</time>
      </trkpt>
      <trkpt lat="45.74388" lon="6.48603">
        <ele>1531</ele>
        <time>2022-07-23T14:59:58Z</time>
      </trkpt>
      <trkpt lat="45.74387" lon="6.48602">
        <ele>1531</ele>
        <time>2022-07-23T14:59:59Z</time>
      </trkpt>
      <trkpt lat="45.74386" lon="6.48601">
        <ele>1532</ele>
        <time>2022-07-23T15:00:00Z</time>
      </trkpt>
      <trkpt lat="45.74386" lon="6.48601">
        <ele>1532</ele>
        <time>2022-07-23T15:00:01Z</time>
      </trkpt>
      <trkpt lat="45.74385" lon="6.486">
        <ele>1532</ele>
        <time>2022-07-23T15:00:02Z</time>
      </trkpt>
      <trkpt lat="45.74384" lon="6.486">
        <ele>1532</ele>
        <time>2022-07-23T15:00:03Z</time>
      </trkpt>
      <trkpt lat="45.74383" lon="6.486">
        <ele>1532</ele>
        <time>2022-07-23T15:00:04Z</time>
      </trkpt>
      <trkpt lat="45.74382" lon="6.48601">
        <ele>1532</ele>
        <time>2022-07-23T15:00:05Z</time>
      </trkpt>
      <trkpt lat="45.74381" lon="6.48602">
        <ele>1532</ele>
        <time>2022-07-23T15:00:06Z</time>
      </trkpt>
      <trkpt lat="45.74381" lon="6.48603">
        <ele>1532</ele>
        <time>2022-07-23T15:00:07Z</time>
      </trkpt>
      <trkpt lat="45.74381" lon="6.48604">
        <ele>1532</ele>
        <time>2022-07-23T15:00:08Z</time>
      </trkpt>
      <trkpt lat="45.74381" lon="6.48605">
        <ele>1532</ele>
        <time>2022-07-23T15:00:09Z</time>
      </trkpt>
      <trkpt lat="45.74381" lon="6.48607">
        <ele>1533</ele>
        <time>2022-07-23T15:00:10Z</time>
      </trkpt>
      <trkpt lat="45.74381" lon="6.48608">
        <ele>1533</ele>
        <time>2022-07-23T15:00:11Z</time>
      </trkpt>
      <trkpt lat="45.74381" lon="6.4861">
        <ele>1533</ele>
        <time>2022-07-23T15:00:12Z</time>
      </trkpt>
      <trkpt lat="45.74381" lon="6.48611">
        <ele>1533</ele>
        <time>2022-07-23T15:00:13Z</time>
      </trkpt>
      <trkpt lat="45.74381" lon="6.48613">
        <ele>1533</ele>
        <time>2022-07-23T15:00:14Z</time>
      </trkpt>
      <trkpt lat="45.74381" lon="6.48614">
        <ele>1534</ele>
        <time>2022-07-23T15:00:15Z</time>
      </trkpt>
      <trkpt lat="45.74381" lon="6.48616">
        <ele>1534</ele>
        <time>2022-07-23T15:00:16Z</time>
      </trkpt>
      <trkpt lat="45.74382" lon="6.48617">
        <ele>1534</ele>
        <time>2022-07-23T15:00:17Z</time>
      </trkpt>
      <trkpt lat="45.74382" lon="6.48619">
        <ele>1534</ele>
        <time>2022-07-23T15:00:18Z</time>
      </trkpt>
      <trkpt lat="45.74382" lon="6.48621">
        <ele>1534</ele>
        <time>2022-07-23T15:00:19Z</time>
      </trkpt>
      <trkpt lat="45.74382" lon="6.48622">
        <ele>1534</ele>
        <time>2022-07-23T15:00:20Z</time>
      </trkpt>
      <trkpt lat="45.74382" lon="6.48624">
        <ele>1534</ele>
        <time>2022-07-23T15:00:21Z</time>
      </trkpt>
      <trkpt lat="45.74382" lon="6.48626">
        <ele>1534</ele>
        <time>2022-07-23T15:00:22Z</time>
      </trkpt>
      <trkpt lat="45.74382" lon="6.48628">
        <ele>1534</ele>
        <time>2022-07-23T15:00:23Z</time>
      </trkpt>
      <trkpt lat="45.74383" lon="6.4863">
        <ele>1534</ele>
        <time>2022-07-23T15:00:24Z</time>
      </trkpt>
      <trkpt lat="45.74383" lon="6.48632">
        <ele>1535</ele>
        <time>2022-07-23T15:00:25Z</time>
      </trkpt>
      <trkpt lat="45.74383" lon="6.48633">
        <ele>1535</ele>
        <time>2022-07-23T15:00:26Z</time>
      </trkpt>
      <trkpt lat="45.74383" lon="6.48635">
        <ele>1535</ele>
        <time>2022-07-23T15:00:27Z</time>
      </trkpt>
      <trkpt lat="45.74384" lon="6.48637">
        <ele>1535</ele>
        <time>2022-07-23T15:00:28Z</time>
      </trkpt>
      <trkpt lat="45.74384" lon="6.48639">
        <ele>1535</ele>
        <time>2022-07-23T15:00:29Z</time>
      </trkpt>
      <trkpt lat="45.74385" lon="6.48641">
        <ele>1536</ele>
        <time>2022-07-23T15:00:30Z</time>
      </trkpt>
      <trkpt lat="45.74385" lon="6.48642">
        <ele>1536</ele>
        <time>2022-07-23T15:00:31Z</time>
      </trkpt>
      <trkpt lat="45.74386" lon="6.48643">
        <ele>1536</ele>
        <time>2022-07-23T15:00:32Z</time>
      </trkpt>
      <trkpt lat="45.74386" lon="6.48644">
        <ele>1536</ele>
        <time>2022-07-23T15:00:33Z</time>
      </trkpt>
      <trkpt lat="45.74386" lon="6.48645">
        <ele>1536</ele>
        <time>2022-07-23T15:00:34Z</time>
      </trkpt>
      <trkpt lat="45.74387" lon="6.48646">
        <ele>1536</ele>
        <time>2022-07-23T15:00:35Z</time>
      </trkpt>
      <trkpt lat="45.74387" lon="6.48648">
        <ele>1536</ele>
        <time>2022-07-23T15:00:36Z</time>
      </trkpt>
      <trkpt lat="45.74387" lon="6.48649">
        <ele>1536</ele>
        <time>2022-07-23T15:00:37Z</time>
      </trkpt>
      <trkpt lat="45.74388" lon="6.4865">
        <ele>1536</ele>
        <time>2022-07-23T15:00:38Z</time>
      </trkpt>
      <trkpt lat="45.74388" lon="6.48653">
        <ele>1537</ele>
        <time>2022-07-23T15:00:45Z</time>
      </trkpt>
      <trkpt lat="45.74389" lon="6.48653">
        <ele>1537</ele>
        <time>2022-07-23T15:00:46Z</time>
      </trkpt>
      <trkpt lat="45.74389" lon="6.48654">
        <ele>1537</ele>
        <time>2022-07-23T15:00:47Z</time>
      </trkpt>
      <trkpt lat="45.74389" lon="6.48655">
        <ele>1537</ele>
        <time>2022-07-23T15:00:48Z</time>
      </trkpt>
      <trkpt lat="45.7439" lon="6.48656">
        <ele>1537</ele>
        <time>2022-07-23T15:00:49Z</time>
      </trkpt>
      <trkpt lat="45.74391" lon="6.48658">
        <ele>1538</ele>
        <time>2022-07-23T15:00:59Z</time>
      </trkpt>
      <trkpt lat="45.74391" lon="6.48658">
        <ele>1538</ele>
        <time>2022-07-23T15:01:00Z</time>
      </trkpt>
      <trkpt lat="45.74391" lon="6.48659">
        <ele>1538</ele>
        <time>2022-07-23T15:01:01Z</time>
      </trkpt>
      <trkpt lat="45.74391" lon="6.48659">
        <ele>1538</ele>
        <time>2022-07-23T15:01:02Z</time>
      </trkpt>
      <trkpt lat="45.74391" lon="6.48659">
        <ele>1538</ele>
        <time>2022-07-23T15:01:03Z</time>
      </trkpt>
      <trkpt lat="45.7439" lon="6.48659">
        <ele>1538</ele>
        <time>2022-07-23T15:01:04Z</time>
      </trkpt>
      <trkpt lat="45.7439" lon="6.48658">
        <ele>1538</ele>
        <time>2022-07-23T15:01:05Z</time>
      </trkpt>
      <trkpt lat="45.74389" lon="6.48658">
        <ele>1538</ele>
        <time>2022-07-23T15:01:06Z</time>
      </trkpt>
      <trkpt lat="45.74389" lon="6.48657">
        <ele>1538</ele>
        <time>2022-07-23T15:01:07Z</time>
      </trkpt>
      <trkpt lat="45.74388" lon="6.48656">
        <ele>1538</ele>
        <time>2022-07-23T15:01:14Z</time>
      </trkpt>
      <trkpt lat="45.74388" lon="6.48656">
        <ele>1538</ele>
        <time>2022-07-23T15:01:15Z</time>
      </trkpt>
      <trkpt lat="45.74387" lon="6.48656">
        <ele>1538</ele>
        <time>2022-07-23T15:01:16Z</time>
      </trkpt>
      <trkpt lat="45.74387" lon="6.48657">
        <ele>1538</ele>
        <time>2022-07-23T15:01:17Z</time>
      </trkpt>
      <trkpt lat="45.74387" lon="6.48657">
        <ele>1538</ele>
        <time>2022-07-23T15:01:18Z</time>
      </trkpt>
      <trkpt lat="45.74388" lon="6.48658">
        <ele>1538</ele>
        <time>2022-07-23T15:01:19Z</time>
      </trkpt>
      <trkpt lat="45.74388" lon="6.48659">
        <ele>1538</ele>
        <time>2022-07-23T15:01:20Z</time>
      </trkpt>
      <trkpt lat="45.74388" lon="6.48658">
        <ele>1537</ele>
        <time>2022-07-23T15:02:39Z</time>
      </trkpt>
      <trkpt lat="45.74388" lon="6.48658">
        <ele>1537</ele>
        <time>2022-07-23T15:02:40Z</time>
      </trkpt>
      <trkpt lat="45.74388" lon="6.48657">
        <ele>1537</ele>
        <time>2022-07-23T15:02:41Z</time>
      </trkpt>
      <trkpt lat="45.74388" lon="6.48656">
        <ele>1537</ele>
        <time>2022-07-23T15:02:42Z</time>
      </trkpt>
      <trkpt lat="45.74388" lon="6.48654">
        <ele>1537</ele>
        <time>2022-07-23T15:02:43Z</time>
      </trkpt>
    </trkseg>
  </trk>
</gpx>